<?xml version='1.0' encoding='UTF-8'?><gpx version="1.1" creator="JPX - https://github.com/jenetics/jpx" xmlns="http://www.topografix.com/GPX/1/1"><trk><trkseg><trkpt lat="43.93865128102386" lon="10.291886103784675"><ele>26.0</ele><time>2026-04-12T08:10:38Z</time></trkpt><trkpt lat="43.93863843114027" lon="10.291726979735424"><ele>26.0</ele><time>2026-04-12T08:10:40Z</time></trkpt><trkpt lat="43.93862883368231" lon="10.291630912458892"><ele>26.0</ele><time>2026-04-12T08:10:41Z</time></trkpt><trkpt lat="43.938611887575355" lon="10.29149545159534"><ele>26.0</ele><time>2026-04-12T08:10:42Z</time></trkpt><trkpt lat="43.9385984501842" lon="10.291364354119814"><ele>26.0</ele><time>2026-04-12T08:10:43Z</time></trkpt><trkpt lat="43.938579495006834" lon="10.291225809632868"><ele>26.0</ele><time>2026-04-12T08:10:44Z</time></trkpt><trkpt lat="43.9385658314197" lon="10.291075960191224"><ele>26.0</ele><time>2026-04-12T08:10:45Z</time></trkpt><trkpt lat="43.93854356263235" lon="10.29092323603881"><ele>26.0</ele><time>2026-04-12T08:10:46Z</time></trkpt><trkpt lat="43.93851056906689" lon="10.2907459752504"><ele>26.0</ele><time>2026-04-12T08:10:47Z</time></trkpt><trkpt lat="43.938480576596326" lon="10.29054981864181"><ele>26.5</ele><time>2026-04-12T08:10:48Z</time></trkpt><trkpt lat="43.938444681374165" lon="10.290352628244367"><ele>27.0</ele><time>2026-04-12T08:10:49Z</time></trkpt><trkpt lat="43.93840281179848" lon="10.290176614877161"><ele>27.5</ele><time>2026-04-12T08:10:50Z</time></trkpt><trkpt lat="43.9383702064226" lon="10.290012224746185"><ele>28.0</ele><time>2026-04-12T08:10:51Z</time></trkpt><trkpt lat="43.93834516302556" lon="10.289888785726092"><ele>28.0</ele><time>2026-04-12T08:10:52Z</time></trkpt><trkpt lat="43.93830864202885" lon="10.289762000323845"><ele>27.999999999999996</ele><time>2026-04-12T08:10:53Z</time></trkpt><trkpt lat="43.938283646736345" lon="10.289670222026203"><ele>27.999999999999996</ele><time>2026-04-12T08:10:54Z</time></trkpt><trkpt lat="43.93825716329011" lon="10.28949680812375"><ele>28.0</ele><time>2026-04-12T08:10:56Z</time></trkpt><trkpt lat="43.938231963933326" lon="10.289372528488597"><ele>28.0</ele><time>2026-04-12T08:10:57Z</time></trkpt><trkpt lat="43.938205395546326" lon="10.289242832261102"><ele>28.25</ele><time>2026-04-12T08:10:58Z</time></trkpt><trkpt lat="43.93817272775569" lon="10.289073213213932"><ele>28.5</ele><time>2026-04-12T08:10:59Z</time></trkpt><trkpt lat="43.93814445409748" lon="10.28888215626283"><ele>28.75</ele><time>2026-04-12T08:11:00Z</time></trkpt><trkpt lat="43.93810617486602" lon="10.288693726234419"><ele>29.0</ele><time>2026-04-12T08:11:01Z</time></trkpt><trkpt lat="43.93807148072625" lon="10.288510543818848"><ele>30.2</ele><time>2026-04-12T08:11:02Z</time></trkpt><trkpt lat="43.93802724866257" lon="10.288334346860696"><ele>31.4</ele><time>2026-04-12T08:11:03Z</time></trkpt><trkpt lat="43.93797820881959" lon="10.288197402130027"><ele>32.6</ele><time>2026-04-12T08:11:04Z</time></trkpt><trkpt lat="43.937923790286355" lon="10.288057675340742"><ele>33.8</ele><time>2026-04-12T08:11:05Z</time></trkpt><trkpt lat="43.937876598704904" lon="10.287959568348924"><ele>35.0</ele><time>2026-04-12T08:11:06Z</time></trkpt><trkpt lat="43.9378351425902" lon="10.287873987690169"><ele>34.6</ele><time>2026-04-12T08:11:07Z</time></trkpt><trkpt lat="43.93779183440468" lon="10.287780913252574"><ele>34.2</ele><time>2026-04-12T08:11:08Z</time></trkpt><trkpt lat="43.93774062280744" lon="10.287665161975804"><ele>33.8</ele><time>2026-04-12T08:11:09Z</time></trkpt><trkpt lat="43.93768171418558" lon="10.28752691176332"><ele>33.4</ele><time>2026-04-12T08:11:10Z</time></trkpt><trkpt lat="43.93761275547904" lon="10.287364357317127"><ele>33.0</ele><time>2026-04-12T08:11:11Z</time></trkpt><trkpt lat="43.937539487950104" lon="10.287197013129184"><ele>33.0</ele><time>2026-04-12T08:11:12Z</time></trkpt><trkpt lat="43.937461860128366" lon="10.287014051310768"><ele>33.0</ele><time>2026-04-12T08:11:13Z</time></trkpt><trkpt lat="43.93738408923922" lon="10.286818314658317"><ele>33.0</ele><time>2026-04-12T08:11:14Z</time></trkpt><trkpt lat="43.93730549978068" lon="10.286642143158964"><ele>33.0</ele><time>2026-04-12T08:11:15Z</time></trkpt><trkpt lat="43.93723735272344" lon="10.28647702962427"><ele>33.0</ele><time>2026-04-12T08:11:16Z</time></trkpt><trkpt lat="43.93717571987826" lon="10.28635660178795"><ele>33.0</ele><time>2026-04-12T08:11:17Z</time></trkpt><trkpt lat="43.93711652162315" lon="10.286256282545015"><ele>33.0</ele><time>2026-04-12T08:11:18Z</time></trkpt><trkpt lat="43.937062644354555" lon="10.286163619421822"><ele>33.0</ele><time>2026-04-12T08:11:19Z</time></trkpt><trkpt lat="43.937003126866095" lon="10.286090981628215"><ele>33.5</ele><time>2026-04-12T08:11:20Z</time></trkpt><trkpt lat="43.936938530832585" lon="10.286030116174917"><ele>34.0</ele><time>2026-04-12T08:11:21Z</time></trkpt><trkpt lat="43.93686962491929" lon="10.285978235847404"><ele>34.5</ele><time>2026-04-12T08:11:22Z</time></trkpt><trkpt lat="43.936802868972656" lon="10.285925813705047"><ele>35.0</ele><time>2026-04-12T08:11:23Z</time></trkpt><trkpt lat="43.93673594917118" lon="10.28588662662317"><ele>35.5</ele><time>2026-04-12T08:11:24Z</time></trkpt><trkpt lat="43.936679762515475" lon="10.28581908389346"><ele>36.0</ele><time>2026-04-12T08:11:25Z</time></trkpt><trkpt lat="43.93661686103956" lon="10.285770614541036"><ele>34.166666666666664</ele><time>2026-04-12T08:11:26Z</time></trkpt><trkpt lat="43.936558209473944" lon="10.285713074445258"><ele>32.333333333333336</ele><time>2026-04-12T08:11:27Z</time></trkpt><trkpt lat="43.936497892532486" lon="10.285654679875032"><ele>30.5</ele><time>2026-04-12T08:11:28Z</time></trkpt><trkpt lat="43.936400480310496" lon="10.285582283046114"><ele>28.666666666666668</ele><time>2026-04-12T08:11:30Z</time></trkpt><trkpt lat="43.93633836286071" lon="10.285517919640926"><ele>26.833333333333336</ele><time>2026-04-12T08:11:32Z</time></trkpt><trkpt lat="43.93628316560066" lon="10.285459904673052"><ele>25.0</ele><time>2026-04-12T08:11:34Z</time></trkpt><trkpt lat="43.93621610791685" lon="10.28539114701363"><ele>25.000000000000004</ele><time>2026-04-12T08:11:36Z</time></trkpt><trkpt lat="43.93616210471414" lon="10.285286868214833"><ele>25.0</ele><time>2026-04-12T08:11:39Z</time></trkpt><trkpt lat="43.93612485359294" lon="10.285210373585706"><ele>25.0</ele><time>2026-04-12T08:11:41Z</time></trkpt><trkpt lat="43.93609375520833" lon="10.285129239381673"><ele>25.0</ele><time>2026-04-12T08:11:42Z</time></trkpt><trkpt lat="43.936052734221825" lon="10.285048493574072"><ele>25.000000000000004</ele><time>2026-04-12T08:11:43Z</time></trkpt><trkpt lat="43.935996202769864" lon="10.284959342909774"><ele>25.0</ele><time>2026-04-12T08:11:44Z</time></trkpt><trkpt lat="43.935931830810645" lon="10.284859763236899"><ele>24.4</ele><time>2026-04-12T08:11:45Z</time></trkpt><trkpt lat="43.93586727348702" lon="10.284747809338867"><ele>23.8</ele><time>2026-04-12T08:11:46Z</time></trkpt><trkpt lat="43.93581053328016" lon="10.28463239642778"><ele>23.200000000000003</ele><time>2026-04-12T08:11:47Z</time></trkpt><trkpt lat="43.93576292091339" lon="10.28450205615103"><ele>22.6</ele><time>2026-04-12T08:11:48Z</time></trkpt><trkpt lat="43.935719997815816" lon="10.28436424757665"><ele>22.0</ele><time>2026-04-12T08:11:49Z</time></trkpt><trkpt lat="43.93567469791032" lon="10.284220982318333"><ele>22.0</ele><time>2026-04-12T08:11:50Z</time></trkpt><trkpt lat="43.93562072273544" lon="10.284073480306452"><ele>22.0</ele><time>2026-04-12T08:11:51Z</time></trkpt><trkpt lat="43.93555858396555" lon="10.283919666967831"><ele>22.0</ele><time>2026-04-12T08:11:52Z</time></trkpt><trkpt lat="43.93549517063601" lon="10.283768686824516"><ele>22.0</ele><time>2026-04-12T08:11:53Z</time></trkpt><trkpt lat="43.935428777557085" lon="10.283620843899016"><ele>22.25</ele><time>2026-04-12T08:11:54Z</time></trkpt><trkpt lat="43.935360180286736" lon="10.28346526368049"><ele>22.5</ele><time>2026-04-12T08:11:55Z</time></trkpt><trkpt lat="43.935298529560335" lon="10.283300892501835"><ele>22.75</ele><time>2026-04-12T08:11:56Z</time></trkpt><trkpt lat="43.93523697490474" lon="10.283129860445952"><ele>23.0</ele><time>2026-04-12T08:11:57Z</time></trkpt><trkpt lat="43.93517975052549" lon="10.282949596518302"><ele>23.5</ele><time>2026-04-12T08:11:58Z</time></trkpt><trkpt lat="43.93511654478614" lon="10.282768794432224"><ele>24.0</ele><time>2026-04-12T08:11:59Z</time></trkpt><trkpt lat="43.935049568710355" lon="10.282605028229344"><ele>24.5</ele><time>2026-04-12T08:12:00Z</time></trkpt><trkpt lat="43.93497528577383" lon="10.282446539572963"><ele>25.0</ele><time>2026-04-12T08:12:01Z</time></trkpt><trkpt lat="43.93489646643042" lon="10.282298025787926"><ele>23.75</ele><time>2026-04-12T08:12:02Z</time></trkpt><trkpt lat="43.93480541166022" lon="10.282148641488279"><ele>22.5</ele><time>2026-04-12T08:12:03Z</time></trkpt><trkpt lat="43.93473695198831" lon="10.28202988515741"><ele>21.25</ele><time>2026-04-12T08:12:04Z</time></trkpt><trkpt lat="43.934642519199386" lon="10.281889359453942"><ele>20.0</ele><time>2026-04-12T08:12:05Z</time></trkpt><trkpt lat="43.93454482655837" lon="10.28175437619693"><ele>20.0</ele><time>2026-04-12T08:12:06Z</time></trkpt><trkpt lat="43.93444563934337" lon="10.281630602921032"><ele>20.0</ele><time>2026-04-12T08:12:07Z</time></trkpt><trkpt lat="43.934347926887476" lon="10.281510878199162"><ele>20.0</ele><time>2026-04-12T08:12:08Z</time></trkpt><trkpt lat="43.93424927179593" lon="10.281393396515746"><ele>20.0</ele><time>2026-04-12T08:12:09Z</time></trkpt><trkpt lat="43.93415343381433" lon="10.281276653146366"><ele>20.0</ele><time>2026-04-12T08:12:10Z</time></trkpt><trkpt lat="43.934052415400046" lon="10.281156702309218"><ele>20.0</ele><time>2026-04-12T08:12:11Z</time></trkpt><trkpt lat="43.933955204582546" lon="10.281039335943179"><ele>20.0</ele><time>2026-04-12T08:12:12Z</time></trkpt><trkpt lat="43.9338569210779" lon="10.280923161708692"><ele>20.0</ele><time>2026-04-12T08:12:13Z</time></trkpt><trkpt lat="43.933758488590954" lon="10.280812325222923"><ele>20.0</ele><time>2026-04-12T08:12:14Z</time></trkpt><trkpt lat="43.93365859344821" lon="10.280701963421592"><ele>20.0</ele><time>2026-04-12T08:12:15Z</time></trkpt><trkpt lat="43.93355829214179" lon="10.280585053213322"><ele>20.0</ele><time>2026-04-12T08:12:16Z</time></trkpt><trkpt lat="43.93345131501433" lon="10.280460193447304"><ele>20.0</ele><time>2026-04-12T08:12:17Z</time></trkpt><trkpt lat="43.93334557352216" lon="10.2803363141775"><ele>19.5</ele><time>2026-04-12T08:12:18Z</time></trkpt><trkpt lat="43.93323770828274" lon="10.280218134527317"><ele>19.0</ele><time>2026-04-12T08:12:19Z</time></trkpt><trkpt lat="43.93313210776285" lon="10.280100230775545"><ele>18.5</ele><time>2026-04-12T08:12:20Z</time></trkpt><trkpt lat="43.93302558348346" lon="10.27997748863405"><ele>18.0</ele><time>2026-04-12T08:12:21Z</time></trkpt><trkpt lat="43.93291599213177" lon="10.279849781837704"><ele>17.75</ele><time>2026-04-12T08:12:22Z</time></trkpt><trkpt lat="43.93280847956943" lon="10.279721945144573"><ele>17.5</ele><time>2026-04-12T08:12:23Z</time></trkpt><trkpt lat="43.93269668876064" lon="10.279579094322562"><ele>17.25</ele><time>2026-04-12T08:12:24Z</time></trkpt><trkpt lat="43.93259013274851" lon="10.279443885255807"><ele>17.0</ele><time>2026-04-12T08:12:25Z</time></trkpt><trkpt lat="43.932490192870105" lon="10.279297467865051"><ele>17.0</ele><time>2026-04-12T08:12:26Z</time></trkpt><trkpt lat="43.932400794436205" lon="10.279146831116195"><ele>17.0</ele><time>2026-04-12T08:12:27Z</time></trkpt><trkpt lat="43.93230663255747" lon="10.279007633327506"><ele>17.0</ele><time>2026-04-12T08:12:28Z</time></trkpt><trkpt lat="43.93221016525453" lon="10.278852759991352"><ele>17.0</ele><time>2026-04-12T08:12:29Z</time></trkpt><trkpt lat="43.93211123817506" lon="10.278700329497656"><ele>17.0</ele><time>2026-04-12T08:12:30Z</time></trkpt><trkpt lat="43.9320220958722" lon="10.278538980399162"><ele>17.0</ele><time>2026-04-12T08:12:31Z</time></trkpt><trkpt lat="43.931931505889295" lon="10.278379527775977"><ele>17.0</ele><time>2026-04-12T08:12:32Z</time></trkpt><trkpt lat="43.93183560184773" lon="10.2782207068331"><ele>17.0</ele><time>2026-04-12T08:12:33Z</time></trkpt><trkpt lat="43.93173187418838" lon="10.27803318108154"><ele>16.333333333333336</ele><time>2026-04-12T08:12:34Z</time></trkpt><trkpt lat="43.931626485104864" lon="10.277840236007359"><ele>15.666666666666668</ele><time>2026-04-12T08:12:35Z</time></trkpt><trkpt lat="43.93153174008165" lon="10.277615786200437"><ele>15.0</ele><time>2026-04-12T08:12:36Z</time></trkpt><trkpt lat="43.93143445568176" lon="10.277420431811368"><ele>15.0</ele><time>2026-04-12T08:12:37Z</time></trkpt><trkpt lat="43.931337993970004" lon="10.277242263355298"><ele>15.0</ele><time>2026-04-12T08:12:38Z</time></trkpt><trkpt lat="43.93126857987987" lon="10.277068451171505"><ele>15.0</ele><time>2026-04-12T08:12:39Z</time></trkpt><trkpt lat="43.93120792584168" lon="10.27690385980647"><ele>15.0</ele><time>2026-04-12T08:12:40Z</time></trkpt><trkpt lat="43.93115371170185" lon="10.276746033053245"><ele>15.0</ele><time>2026-04-12T08:12:41Z</time></trkpt><trkpt lat="43.93110591813228" lon="10.276593065363944"><ele>15.0</ele><time>2026-04-12T08:12:42Z</time></trkpt><trkpt lat="43.93105259654077" lon="10.27643287195302"><ele>15.0</ele><time>2026-04-12T08:12:43Z</time></trkpt><trkpt lat="43.93100079947387" lon="10.276271579547581"><ele>15.0</ele><time>2026-04-12T08:12:44Z</time></trkpt><trkpt lat="43.930942620502265" lon="10.27611465991471"><ele>15.0</ele><time>2026-04-12T08:12:44.999Z</time></trkpt><trkpt lat="43.930875292962405" lon="10.275940303972648"><ele>15.0</ele><time>2026-04-12T08:12:45.999Z</time></trkpt><trkpt lat="43.93081024859801" lon="10.275764902959764"><ele>15.0</ele><time>2026-04-12T08:12:46.999Z</time></trkpt><trkpt lat="43.93073545886392" lon="10.27558925366582"><ele>15.0</ele><time>2026-04-12T08:12:47.999Z</time></trkpt><trkpt lat="43.93066823857492" lon="10.275429165860555"><ele>15.0</ele><time>2026-04-12T08:12:48.999Z</time></trkpt><trkpt lat="43.93059732358019" lon="10.27528623142698"><ele>15.0</ele><time>2026-04-12T08:12:49.999Z</time></trkpt><trkpt lat="43.93052952901881" lon="10.275151888227317"><ele>15.0</ele><time>2026-04-12T08:12:50.999Z</time></trkpt><trkpt lat="43.93047426202175" lon="10.275022667654028"><ele>15.0</ele><time>2026-04-12T08:12:51.999Z</time></trkpt><trkpt lat="43.93042772896355" lon="10.274910796148802"><ele>15.0</ele><time>2026-04-12T08:12:52.999Z</time></trkpt><trkpt lat="43.93038659264611" lon="10.27480575198169"><ele>15.0</ele><time>2026-04-12T08:12:53.999Z</time></trkpt><trkpt lat="43.93036996427638" lon="10.274689797808206"><ele>15.0</ele><time>2026-04-12T08:12:54.999Z</time></trkpt><trkpt lat="43.93034427892566" lon="10.274573958540422"><ele>15.0</ele><time>2026-04-12T08:12:55.999Z</time></trkpt><trkpt lat="43.93035621132079" lon="10.274440720653809"><ele>15.0</ele><time>2026-04-12T08:12:56.999Z</time></trkpt><trkpt lat="43.93030217497473" lon="10.274339563923153"><ele>15.0</ele><time>2026-04-12T08:12:57.999Z</time></trkpt><trkpt lat="43.9302226117879" lon="10.274273096608923"><ele>15.0</ele><time>2026-04-12T08:12:58.999Z</time></trkpt><trkpt lat="43.930141474717004" lon="10.274221244192745"><ele>15.0</ele><time>2026-04-12T08:12:59.999Z</time></trkpt><trkpt lat="43.929995025343715" lon="10.274050575533991"><ele>15.0</ele><time>2026-04-12T08:13:01.999Z</time></trkpt><trkpt lat="43.92991933332362" lon="10.273936266907938"><ele>15.0</ele><time>2026-04-12T08:13:03Z</time></trkpt><trkpt lat="43.92984193763735" lon="10.273807309313693"><ele>14.75</ele><time>2026-04-12T08:13:04Z</time></trkpt><trkpt lat="43.92976728788394" lon="10.273680887362653"><ele>14.5</ele><time>2026-04-12T08:13:05Z</time></trkpt><trkpt lat="43.929686451696874" lon="10.273551163489204"><ele>14.25</ele><time>2026-04-12T08:13:06Z</time></trkpt><trkpt lat="43.92959674106153" lon="10.27341605502124"><ele>14.0</ele><time>2026-04-12T08:13:07Z</time></trkpt><trkpt lat="43.92950552696741" lon="10.273276520093148"><ele>14.0</ele><time>2026-04-12T08:13:08Z</time></trkpt><trkpt lat="43.929412578594444" lon="10.273133233074887"><ele>14.0</ele><time>2026-04-12T08:13:09Z</time></trkpt><trkpt lat="43.92931396363838" lon="10.27298672191248"><ele>14.0</ele><time>2026-04-12T08:13:10Z</time></trkpt><trkpt lat="43.92921164392075" lon="10.272826872042584"><ele>14.0</ele><time>2026-04-12T08:13:11Z</time></trkpt><trkpt lat="43.92910234700815" lon="10.272645397610694"><ele>13.333333333333334</ele><time>2026-04-12T08:13:12Z</time></trkpt><trkpt lat="43.92897976758806" lon="10.272455607153239"><ele>12.666666666666668</ele><time>2026-04-12T08:13:13Z</time></trkpt><trkpt lat="43.92884858359744" lon="10.272252494168304"><ele>12.0</ele><time>2026-04-12T08:13:14Z</time></trkpt><trkpt lat="43.92871427190715" lon="10.272046241985937"><ele>11.666666666666666</ele><time>2026-04-12T08:13:15Z</time></trkpt><trkpt lat="43.92856417880528" lon="10.271844623435765"><ele>11.333333333333332</ele><time>2026-04-12T08:13:16Z</time></trkpt><trkpt lat="43.928424103778426" lon="10.27161775447532"><ele>11.0</ele><time>2026-04-12T08:13:17Z</time></trkpt><trkpt lat="43.92828372966878" lon="10.27140547135281"><ele>10.666666666666666</ele><time>2026-04-12T08:13:18Z</time></trkpt><trkpt lat="43.92814988091634" lon="10.27119779785174"><ele>10.333333333333334</ele><time>2026-04-12T08:13:19Z</time></trkpt><trkpt lat="43.928021340641116" lon="10.270999963733527"><ele>10.0</ele><time>2026-04-12T08:13:20Z</time></trkpt><trkpt lat="43.92789456444006" lon="10.270808239019845"><ele>10.0</ele><time>2026-04-12T08:13:21Z</time></trkpt><trkpt lat="43.9277732211609" lon="10.27062503272824"><ele>10.0</ele><time>2026-04-12T08:13:22Z</time></trkpt><trkpt lat="43.92765612229715" lon="10.270449203515167"><ele>10.0</ele><time>2026-04-12T08:13:23Z</time></trkpt><trkpt lat="43.92754242168067" lon="10.27027637954709"><ele>10.0</ele><time>2026-04-12T08:13:24Z</time></trkpt><trkpt lat="43.9274341682716" lon="10.270109010319834"><ele>10.0</ele><time>2026-04-12T08:13:25Z</time></trkpt><trkpt lat="43.92732951279669" lon="10.269949640385807"><ele>10.0</ele><time>2026-04-12T08:13:26Z</time></trkpt><trkpt lat="43.92722831820957" lon="10.269796948655278"><ele>9.5</ele><time>2026-04-12T08:13:27Z</time></trkpt><trkpt lat="43.92712589475014" lon="10.269646716766959"><ele>9.0</ele><time>2026-04-12T08:13:28Z</time></trkpt><trkpt lat="43.927026335898056" lon="10.269493588434292"><ele>8.5</ele><time>2026-04-12T08:13:29Z</time></trkpt><trkpt lat="43.92692951077958" lon="10.269344537428122"><ele>8.0</ele><time>2026-04-12T08:13:30Z</time></trkpt><trkpt lat="43.926830551416984" lon="10.269193815902819"><ele>8.0</ele><time>2026-04-12T08:13:31Z</time></trkpt><trkpt lat="43.92672818544903" lon="10.269035614589345"><ele>8.0</ele><time>2026-04-12T08:13:32Z</time></trkpt><trkpt lat="43.92662792406121" lon="10.268884450128896"><ele>8.0</ele><time>2026-04-12T08:13:33Z</time></trkpt><trkpt lat="43.92652623988738" lon="10.268724960487196"><ele>8.25</ele><time>2026-04-12T08:13:34Z</time></trkpt><trkpt lat="43.92642797826132" lon="10.268570109381761"><ele>8.5</ele><time>2026-04-12T08:13:35Z</time></trkpt><trkpt lat="43.92633208393553" lon="10.2684214893328"><ele>8.75</ele><time>2026-04-12T08:13:36Z</time></trkpt><trkpt lat="43.92623893281107" lon="10.268283828037676"><ele>9.0</ele><time>2026-04-12T08:13:37Z</time></trkpt><trkpt lat="43.92614691891833" lon="10.268146589391034"><ele>9.0</ele><time>2026-04-12T08:13:38Z</time></trkpt><trkpt lat="43.92605709699636" lon="10.26800844272813"><ele>9.0</ele><time>2026-04-12T08:13:39Z</time></trkpt><trkpt lat="43.92596709996772" lon="10.267872356338493"><ele>9.0</ele><time>2026-04-12T08:13:40Z</time></trkpt><trkpt lat="43.925879561019684" lon="10.26773665531257"><ele>9.0</ele><time>2026-04-12T08:13:41Z</time></trkpt><trkpt lat="43.925788404050465" lon="10.267597490505375"><ele>9.0</ele><time>2026-04-12T08:13:42Z</time></trkpt><trkpt lat="43.92569907643633" lon="10.267458538366082"><ele>9.0</ele><time>2026-04-12T08:13:43Z</time></trkpt><trkpt lat="43.925607927277596" lon="10.267315601967011"><ele>9.0</ele><time>2026-04-12T08:13:44Z</time></trkpt><trkpt lat="43.92551407511302" lon="10.267174679552921"><ele>9.0</ele><time>2026-04-12T08:13:45Z</time></trkpt><trkpt lat="43.925422967919346" lon="10.267037431339132"><ele>9.0</ele><time>2026-04-12T08:13:46Z</time></trkpt><trkpt lat="43.9253372763049" lon="10.266908588614475"><ele>9.0</ele><time>2026-04-12T08:13:47Z</time></trkpt><trkpt lat="43.925267221242265" lon="10.26679972657137"><ele>9.0</ele><time>2026-04-12T08:13:48Z</time></trkpt><trkpt lat="43.92520119789259" lon="10.266701603743861"><ele>9.0</ele><time>2026-04-12T08:13:49Z</time></trkpt><trkpt lat="43.92514321035474" lon="10.266614878367301"><ele>9.0</ele><time>2026-04-12T08:13:50Z</time></trkpt><trkpt lat="43.92509489424665" lon="10.266541862936416"><ele>8.833333333333334</ele><time>2026-04-12T08:13:51Z</time></trkpt><trkpt lat="43.92503984323656" lon="10.266438282961637"><ele>8.666666666666666</ele><time>2026-04-12T08:13:53Z</time></trkpt><trkpt lat="43.925005293183034" lon="10.26634505360382"><ele>8.5</ele><time>2026-04-12T08:13:56Z</time></trkpt><trkpt lat="43.92496894059314" lon="10.266172024785726"><ele>8.333333333333332</ele><time>2026-04-12T08:13:59Z</time></trkpt><trkpt lat="43.92496453968032" lon="10.266070743926658"><ele>8.166666666666666</ele><time>2026-04-12T08:14:01Z</time></trkpt><trkpt lat="43.92497331226204" lon="10.265982185485505"><ele>8.0</ele><time>2026-04-12T08:14:02Z</time></trkpt><trkpt lat="43.92499013106374" lon="10.265870918787847"><ele>8.25</ele><time>2026-04-12T08:14:03Z</time></trkpt><trkpt lat="43.9250822088051" lon="10.26578354573182"><ele>8.5</ele><time>2026-04-12T08:14:04Z</time></trkpt><trkpt lat="43.92516104896174" lon="10.265695927843609"><ele>8.75</ele><time>2026-04-12T08:14:05Z</time></trkpt><trkpt lat="43.92525135325336" lon="10.265600857146575"><ele>9.0</ele><time>2026-04-12T08:14:06Z</time></trkpt><trkpt lat="43.92535236595769" lon="10.265481434876273"><ele>9.0</ele><time>2026-04-12T08:14:07Z</time></trkpt><trkpt lat="43.925463254587946" lon="10.265347986611049"><ele>9.0</ele><time>2026-04-12T08:14:08Z</time></trkpt><trkpt lat="43.92555852943071" lon="10.26522931689664"><ele>9.0</ele><time>2026-04-12T08:14:09Z</time></trkpt><trkpt lat="43.925656478156526" lon="10.265107761233663"><ele>9.0</ele><time>2026-04-12T08:14:10Z</time></trkpt><trkpt lat="43.925756785467144" lon="10.264984497787674"><ele>9.0</ele><time>2026-04-12T08:14:11Z</time></trkpt><trkpt lat="43.925857364983905" lon="10.264859155282092"><ele>9.0</ele><time>2026-04-12T08:14:12Z</time></trkpt><trkpt lat="43.925957284112215" lon="10.264736635231365"><ele>9.0</ele><time>2026-04-12T08:14:13Z</time></trkpt><trkpt lat="43.92605979144484" lon="10.26461268759138"><ele>9.0</ele><time>2026-04-12T08:14:14Z</time></trkpt><trkpt lat="43.92615980843455" lon="10.264495596522597"><ele>9.2</ele><time>2026-04-12T08:14:15Z</time></trkpt><trkpt lat="43.92624938478027" lon="10.264385232886497"><ele>9.4</ele><time>2026-04-12T08:14:16Z</time></trkpt><trkpt lat="43.926329342173005" lon="10.264283910061916"><ele>9.6</ele><time>2026-04-12T08:14:17Z</time></trkpt><trkpt lat="43.9263963588852" lon="10.264188716937127"><ele>9.8</ele><time>2026-04-12T08:14:18Z</time></trkpt><trkpt lat="43.926454409964634" lon="10.264110332856626"><ele>10.0</ele><time>2026-04-12T08:14:19Z</time></trkpt><trkpt lat="43.92650244265864" lon="10.264029996182826"><ele>10.0</ele><time>2026-04-12T08:14:20Z</time></trkpt><trkpt lat="43.92654955074302" lon="10.263969065988144"><ele>10.0</ele><time>2026-04-12T08:14:21Z</time></trkpt><trkpt lat="43.92660304391565" lon="10.263915101785926"><ele>10.0</ele><time>2026-04-12T08:14:22Z</time></trkpt><trkpt lat="43.926665027578224" lon="10.26386033458323"><ele>10.0</ele><time>2026-04-12T08:14:23Z</time></trkpt><trkpt lat="43.92673757282818" lon="10.263802263998873"><ele>10.0</ele><time>2026-04-12T08:14:24Z</time></trkpt><trkpt lat="43.92680943399053" lon="10.263731966377973"><ele>10.0</ele><time>2026-04-12T08:14:25Z</time></trkpt><trkpt lat="43.92688782618259" lon="10.263651341503783"><ele>10.6</ele><time>2026-04-12T08:14:26Z</time></trkpt><trkpt lat="43.92697138119938" lon="10.263563155701105"><ele>11.2</ele><time>2026-04-12T08:14:27Z</time></trkpt><trkpt lat="43.92706129805562" lon="10.263479912934354"><ele>11.8</ele><time>2026-04-12T08:14:28Z</time></trkpt><trkpt lat="43.92714344886897" lon="10.26340332713166"><ele>12.4</ele><time>2026-04-12T08:14:29Z</time></trkpt><trkpt lat="43.927224948133315" lon="10.263320602708742"><ele>13.0</ele><time>2026-04-12T08:14:30Z</time></trkpt><trkpt lat="43.927311161696025" lon="10.263232792544015"><ele>13.0</ele><time>2026-04-12T08:14:31Z</time></trkpt><trkpt lat="43.92739655028474" lon="10.263147125492315"><ele>13.0</ele><time>2026-04-12T08:14:32Z</time></trkpt><trkpt lat="43.92748965089404" lon="10.26305734553012"><ele>13.0</ele><time>2026-04-12T08:14:33Z</time></trkpt><trkpt lat="43.92758248641233" lon="10.262967501843697"><ele>13.0</ele><time>2026-04-12T08:14:34Z</time></trkpt><trkpt lat="43.927675557086836" lon="10.262872542997693"><ele>13.0</ele><time>2026-04-12T08:14:35Z</time></trkpt><trkpt lat="43.92777111929107" lon="10.26277587050434"><ele>12.5</ele><time>2026-04-12T08:14:36Z</time></trkpt><trkpt lat="43.92787102962598" lon="10.262683347642009"><ele>12.0</ele><time>2026-04-12T08:14:37Z</time></trkpt><trkpt lat="43.927969829022956" lon="10.262596537964972"><ele>11.5</ele><time>2026-04-12T08:14:38Z</time></trkpt><trkpt lat="43.92806383441799" lon="10.262517376581958"><ele>11.0</ele><time>2026-04-12T08:14:39Z</time></trkpt><trkpt lat="43.92816062740391" lon="10.262445866981572"><ele>11.0</ele><time>2026-04-12T08:14:40Z</time></trkpt><trkpt lat="43.92825156660135" lon="10.262375454658686"><ele>11.0</ele><time>2026-04-12T08:14:41Z</time></trkpt><trkpt lat="43.928348874460696" lon="10.262301048472015"><ele>11.0</ele><time>2026-04-12T08:14:42Z</time></trkpt><trkpt lat="43.9284468193784" lon="10.262226266267874"><ele>11.0</ele><time>2026-04-12T08:14:43Z</time></trkpt><trkpt lat="43.92854497192902" lon="10.262143471687434"><ele>11.0</ele><time>2026-04-12T08:14:44Z</time></trkpt><trkpt lat="43.92864556067751" lon="10.26206467865587"><ele>10.8</ele><time>2026-04-12T08:14:45Z</time></trkpt><trkpt lat="43.92874289045976" lon="10.261991875014203"><ele>10.600000000000001</ele><time>2026-04-12T08:14:46Z</time></trkpt><trkpt lat="43.92883155956977" lon="10.261919816880086"><ele>10.4</ele><time>2026-04-12T08:14:47Z</time></trkpt><trkpt lat="43.9289166142662" lon="10.261854095052783"><ele>10.2</ele><time>2026-04-12T08:14:48Z</time></trkpt><trkpt lat="43.92899398477948" lon="10.261796287078464"><ele>10.0</ele><time>2026-04-12T08:14:49Z</time></trkpt><trkpt lat="43.92906183162315" lon="10.26174400334896"><ele>10.0</ele><time>2026-04-12T08:14:50Z</time></trkpt><trkpt lat="43.92913245837629" lon="10.26169501416308"><ele>10.0</ele><time>2026-04-12T08:14:50.999Z</time></trkpt><trkpt lat="43.929191385524625" lon="10.261638800313817"><ele>10.0</ele><time>2026-04-12T08:14:51.999Z</time></trkpt><trkpt lat="43.929245005542064" lon="10.261590818188077"><ele>10.0</ele><time>2026-04-12T08:14:52.999Z</time></trkpt><trkpt lat="43.92932044567096" lon="10.261538837676596"><ele>10.0</ele><time>2026-04-12T08:14:54.999Z</time></trkpt><trkpt lat="43.92938905198695" lon="10.261495008892618"><ele>10.0</ele><time>2026-04-12T08:14:56.999Z</time></trkpt><trkpt lat="43.92949118483034" lon="10.261422472908492"><ele>9.4</ele><time>2026-04-12T08:14:58.999Z</time></trkpt><trkpt lat="43.929600790583336" lon="10.261332774201412"><ele>8.8</ele><time>2026-04-12T08:15:01Z</time></trkpt><trkpt lat="43.92965849692959" lon="10.261273088169828"><ele>8.2</ele><time>2026-04-12T08:15:02Z</time></trkpt><trkpt lat="43.9297269195612" lon="10.261213005718137"><ele>7.6</ele><time>2026-04-12T08:15:03Z</time></trkpt><trkpt lat="43.92979992048359" lon="10.26115521891375"><ele>7.0</ele><time>2026-04-12T08:15:04Z</time></trkpt><trkpt lat="43.929877848593314" lon="10.261097871724093"><ele>7.0</ele><time>2026-04-12T08:15:05Z</time></trkpt><trkpt lat="43.929961861444056" lon="10.261031234870785"><ele>6.999999999999999</ele><time>2026-04-12T08:15:06Z</time></trkpt><trkpt lat="43.93005298778223" lon="10.260957959790012"><ele>6.999999999999999</ele><time>2026-04-12T08:15:07Z</time></trkpt><trkpt lat="43.93014461026155" lon="10.260879761989177"><ele>7.0</ele><time>2026-04-12T08:15:08Z</time></trkpt><trkpt lat="43.93024188121586" lon="10.260794063708941"><ele>7.0</ele><time>2026-04-12T08:15:09Z</time></trkpt><trkpt lat="43.930343586941824" lon="10.260706143812406"><ele>6.5</ele><time>2026-04-12T08:15:10Z</time></trkpt><trkpt lat="43.93043810370467" lon="10.260613451252866"><ele>6.0</ele><time>2026-04-12T08:15:11Z</time></trkpt><trkpt lat="43.93053833169037" lon="10.260530910264237"><ele>5.5</ele><time>2026-04-12T08:15:12Z</time></trkpt><trkpt lat="43.93064109811359" lon="10.26044281671362"><ele>5.0</ele><time>2026-04-12T08:15:13Z</time></trkpt><trkpt lat="43.93075159173994" lon="10.26035231997693"><ele>5.0</ele><time>2026-04-12T08:15:14Z</time></trkpt><trkpt lat="43.930860764572806" lon="10.260250245371875"><ele>5.0</ele><time>2026-04-12T08:15:15Z</time></trkpt><trkpt lat="43.93097117461104" lon="10.260136152934724"><ele>5.0</ele><time>2026-04-12T08:15:16Z</time></trkpt><trkpt lat="43.93107661439708" lon="10.26001023752186"><ele>5.0</ele><time>2026-04-12T08:15:17Z</time></trkpt><trkpt lat="43.93117945621314" lon="10.259877131846538"><ele>5.25</ele><time>2026-04-12T08:15:18Z</time></trkpt><trkpt lat="43.93128507049765" lon="10.259742790764763"><ele>5.5</ele><time>2026-04-12T08:15:19Z</time></trkpt><trkpt lat="43.931394394440936" lon="10.259603826750073"><ele>5.75</ele><time>2026-04-12T08:15:20Z</time></trkpt><trkpt lat="43.931502280370836" lon="10.25946325349814"><ele>6.0</ele><time>2026-04-12T08:15:21Z</time></trkpt><trkpt lat="43.931608951912914" lon="10.259325916671973"><ele>6.0</ele><time>2026-04-12T08:15:22Z</time></trkpt><trkpt lat="43.931716912900626" lon="10.25918985235034"><ele>6.0</ele><time>2026-04-12T08:15:23Z</time></trkpt><trkpt lat="43.93182420237572" lon="10.259045234847036"><ele>6.0</ele><time>2026-04-12T08:15:24Z</time></trkpt><trkpt lat="43.931919973114724" lon="10.258914687879134"><ele>6.0</ele><time>2026-04-12T08:15:25Z</time></trkpt><trkpt lat="43.93201312957432" lon="10.258796079186231"><ele>5.75</ele><time>2026-04-12T08:15:26Z</time></trkpt><trkpt lat="43.93210849165959" lon="10.25867714413913"><ele>5.5</ele><time>2026-04-12T08:15:27Z</time></trkpt><trkpt lat="43.932198288915544" lon="10.258557039942739"><ele>5.25</ele><time>2026-04-12T08:15:28Z</time></trkpt><trkpt lat="43.93229050655538" lon="10.258440455174473"><ele>5.0</ele><time>2026-04-12T08:15:29Z</time></trkpt><trkpt lat="43.93238273603148" lon="10.258318937897105"><ele>5.0</ele><time>2026-04-12T08:15:30Z</time></trkpt><trkpt lat="43.932478658798516" lon="10.258198370389897"><ele>5.0</ele><time>2026-04-12T08:15:31Z</time></trkpt><trkpt lat="43.932574045491926" lon="10.258074305898516"><ele>5.0</ele><time>2026-04-12T08:15:32Z</time></trkpt><trkpt lat="43.9326678792085" lon="10.257948051102776"><ele>5.0</ele><time>2026-04-12T08:15:33Z</time></trkpt><trkpt lat="43.93276809804997" lon="10.257819267108097"><ele>4.75</ele><time>2026-04-12T08:15:34Z</time></trkpt><trkpt lat="43.93286553641785" lon="10.257691598602689"><ele>4.5</ele><time>2026-04-12T08:15:35Z</time></trkpt><trkpt lat="43.932958287172085" lon="10.257568342281978"><ele>4.25</ele><time>2026-04-12T08:15:36Z</time></trkpt><trkpt lat="43.93305188853505" lon="10.257449121807989"><ele>4.0</ele><time>2026-04-12T08:15:37Z</time></trkpt><trkpt lat="43.93314583076799" lon="10.257333356352337"><ele>4.0</ele><time>2026-04-12T08:15:38Z</time></trkpt><trkpt lat="43.933236999338924" lon="10.257213990748731"><ele>4.0</ele><time>2026-04-12T08:15:39Z</time></trkpt><trkpt lat="43.933326982342514" lon="10.2570876744016"><ele>4.0</ele><time>2026-04-12T08:15:40Z</time></trkpt><trkpt lat="43.933419334399794" lon="10.256956423379641"><ele>4.0</ele><time>2026-04-12T08:15:41Z</time></trkpt><trkpt lat="43.93350898912035" lon="10.256824877728535"><ele>4.0</ele><time>2026-04-12T08:15:42Z</time></trkpt><trkpt lat="43.933597809482045" lon="10.256707242484287"><ele>4.0</ele><time>2026-04-12T08:15:43Z</time></trkpt><trkpt lat="43.93367702709595" lon="10.25659719666344"><ele>4.0</ele><time>2026-04-12T08:15:44Z</time></trkpt><trkpt lat="43.9337577990309" lon="10.256480524964564"><ele>4.0</ele><time>2026-04-12T08:15:45Z</time></trkpt><trkpt lat="43.93384372012534" lon="10.256359711514854"><ele>4.0</ele><time>2026-04-12T08:15:46Z</time></trkpt><trkpt lat="43.93392681816563" lon="10.256233779586655"><ele>4.0</ele><time>2026-04-12T08:15:47Z</time></trkpt><trkpt lat="43.93401627458989" lon="10.256111799743195"><ele>4.0</ele><time>2026-04-12T08:15:48Z</time></trkpt><trkpt lat="43.93410693624611" lon="10.255992250070891"><ele>4.0</ele><time>2026-04-12T08:15:49Z</time></trkpt><trkpt lat="43.934204177344306" lon="10.255865471056278"><ele>4.0</ele><time>2026-04-12T08:15:50Z</time></trkpt><trkpt lat="43.934296165155516" lon="10.255737284004772"><ele>4.0</ele><time>2026-04-12T08:15:51Z</time></trkpt><trkpt lat="43.93438547961443" lon="10.255621740789408"><ele>4.0</ele><time>2026-04-12T08:15:52Z</time></trkpt><trkpt lat="43.934467161841994" lon="10.255508330796127"><ele>4.0</ele><time>2026-04-12T08:15:53Z</time></trkpt><trkpt lat="43.934542558752135" lon="10.255404478904998"><ele>4.0</ele><time>2026-04-12T08:15:54Z</time></trkpt><trkpt lat="43.93461806826729" lon="10.25530873629083"><ele>4.0</ele><time>2026-04-12T08:15:55Z</time></trkpt><trkpt lat="43.934687977413105" lon="10.255218477408732"><ele>4.0</ele><time>2026-04-12T08:15:56Z</time></trkpt><trkpt lat="43.93475984441599" lon="10.255115779177741"><ele>4.0</ele><time>2026-04-12T08:15:57Z</time></trkpt><trkpt lat="43.93483498410136" lon="10.255008868322879"><ele>4.0</ele><time>2026-04-12T08:15:58Z</time></trkpt><trkpt lat="43.93491349280211" lon="10.254900301446822"><ele>4.0</ele><time>2026-04-12T08:15:59Z</time></trkpt><trkpt lat="43.934992170924964" lon="10.25478533179781"><ele>4.0</ele><time>2026-04-12T08:16:00Z</time></trkpt><trkpt lat="43.93507025775323" lon="10.25466099665257"><ele>4.0</ele><time>2026-04-12T08:16:01Z</time></trkpt><trkpt lat="43.93514557427721" lon="10.254530757000571"><ele>4.0</ele><time>2026-04-12T08:16:02Z</time></trkpt><trkpt lat="43.93522084571657" lon="10.254394148924424"><ele>3.8000000000000003</ele><time>2026-04-12T08:16:03Z</time></trkpt><trkpt lat="43.93529484383083" lon="10.254258442191212"><ele>3.6000000000000005</ele><time>2026-04-12T08:16:04Z</time></trkpt><trkpt lat="43.935367738440014" lon="10.254126825747733"><ele>3.4</ele><time>2026-04-12T08:16:05Z</time></trkpt><trkpt lat="43.93543261957835" lon="10.254007696373021"><ele>3.2</ele><time>2026-04-12T08:16:06Z</time></trkpt><trkpt lat="43.935492186735495" lon="10.253900266313302"><ele>3.0</ele><time>2026-04-12T08:16:07Z</time></trkpt><trkpt lat="43.935546413512306" lon="10.253801418377408"><ele>3.0</ele><time>2026-04-12T08:16:08Z</time></trkpt><trkpt lat="43.93559883176005" lon="10.253709606052107"><ele>3.0</ele><time>2026-04-12T08:16:09Z</time></trkpt><trkpt lat="43.93564462624628" lon="10.253629090089664"><ele>3.0</ele><time>2026-04-12T08:16:10Z</time></trkpt><trkpt lat="43.93570722419598" lon="10.253519482113006"><ele>3.0</ele><time>2026-04-12T08:16:12Z</time></trkpt><trkpt lat="43.93576903698362" lon="10.253434495475677"><ele>3.0</ele><time>2026-04-12T08:16:14Z</time></trkpt><trkpt lat="43.93585711367729" lon="10.253337448983451"><ele>3.2</ele><time>2026-04-12T08:16:16Z</time></trkpt><trkpt lat="43.935910763719335" lon="10.2532616728094"><ele>3.4</ele><time>2026-04-12T08:16:17Z</time></trkpt><trkpt lat="43.9359885781428" lon="10.253169967729232"><ele>3.6000000000000005</ele><time>2026-04-12T08:16:18Z</time></trkpt><trkpt lat="43.93607819845976" lon="10.253083275347311"><ele>3.8000000000000003</ele><time>2026-04-12T08:16:19Z</time></trkpt><trkpt lat="43.936181174916804" lon="10.252986569044023"><ele>4.0</ele><time>2026-04-12T08:16:20Z</time></trkpt><trkpt lat="43.93629448872042" lon="10.252870756712696"><ele>4.25</ele><time>2026-04-12T08:16:21Z</time></trkpt><trkpt lat="43.93641419624286" lon="10.252750537270142"><ele>4.5</ele><time>2026-04-12T08:16:22Z</time></trkpt><trkpt lat="43.936533183518264" lon="10.252627027720106"><ele>4.75</ele><time>2026-04-12T08:16:23Z</time></trkpt><trkpt lat="43.9366462900269" lon="10.25251880862423"><ele>5.0</ele><time>2026-04-12T08:16:24Z</time></trkpt><trkpt lat="43.936755585676195" lon="10.25242940383637"><ele>5.4</ele><time>2026-04-12T08:16:25Z</time></trkpt><trkpt lat="43.93686447776398" lon="10.25235628085259"><ele>5.8</ele><time>2026-04-12T08:16:26Z</time></trkpt><trkpt lat="43.93696942871784" lon="10.25231814850221"><ele>6.199999999999999</ele><time>2026-04-12T08:16:27Z</time></trkpt><trkpt lat="43.93706524556589" lon="10.252276303199798"><ele>6.6</ele><time>2026-04-12T08:16:28Z</time></trkpt><trkpt lat="43.93714953921423" lon="10.252212267689218"><ele>7.0</ele><time>2026-04-12T08:16:29Z</time></trkpt><trkpt lat="43.93716178412764" lon="10.252022754721821"><ele>7.0</ele><time>2026-04-12T08:16:30Z</time></trkpt><trkpt lat="43.937254873529426" lon="10.251862362789373"><ele>7.0</ele><time>2026-04-12T08:16:31Z</time></trkpt><trkpt lat="43.93734170030338" lon="10.251685475485646"><ele>7.0</ele><time>2026-04-12T08:16:32Z</time></trkpt><trkpt lat="43.93744526761071" lon="10.251502517740898"><ele>11.333333333333334</ele><time>2026-04-12T08:16:33Z</time></trkpt><trkpt lat="43.93755634854703" lon="10.25131109680767"><ele>15.666666666666668</ele><time>2026-04-12T08:16:34Z</time></trkpt><trkpt lat="43.93766811793966" lon="10.251111548955722"><ele>20.0</ele><time>2026-04-12T08:16:35Z</time></trkpt><trkpt lat="43.93777999140847" lon="10.250907600105917"><ele>20.0</ele><time>2026-04-12T08:16:36Z</time></trkpt><trkpt lat="43.93789076781921" lon="10.25070212058403"><ele>20.0</ele><time>2026-04-12T08:16:37Z</time></trkpt><trkpt lat="43.93800043767928" lon="10.250502195719024"><ele>20.0</ele><time>2026-04-12T08:16:38Z</time></trkpt><trkpt lat="43.93811764488125" lon="10.250303204308901"><ele>17.0</ele><time>2026-04-12T08:16:39Z</time></trkpt><trkpt lat="43.93823062088537" lon="10.250098103751776"><ele>14.0</ele><time>2026-04-12T08:16:40Z</time></trkpt><trkpt lat="43.938341969782684" lon="10.24989432132464"><ele>11.0</ele><time>2026-04-12T08:16:41Z</time></trkpt><trkpt lat="43.938452885381736" lon="10.249690774502493"><ele>11.0</ele><time>2026-04-12T08:16:42Z</time></trkpt><trkpt lat="43.93856476187842" lon="10.24948817462202"><ele>11.0</ele><time>2026-04-12T08:16:43Z</time></trkpt><trkpt lat="43.93867837408847" lon="10.24928750047583"><ele>11.0</ele><time>2026-04-12T08:16:44Z</time></trkpt><trkpt lat="43.938792911051905" lon="10.24908592159242"><ele>9.333333333333332</ele><time>2026-04-12T08:16:45Z</time></trkpt><trkpt lat="43.93890884968373" lon="10.248883835337656"><ele>7.666666666666666</ele><time>2026-04-12T08:16:46Z</time></trkpt><trkpt lat="43.939024368097165" lon="10.248688561976227"><ele>6.0</ele><time>2026-04-12T08:16:47Z</time></trkpt><trkpt lat="43.939143240255476" lon="10.248505484024768"><ele>6.0</ele><time>2026-04-12T08:16:48Z</time></trkpt><trkpt lat="43.93926675483818" lon="10.24833745392826"><ele>6.0</ele><time>2026-04-12T08:16:49Z</time></trkpt><trkpt lat="43.93939275570678" lon="10.248177831497145"><ele>6.0</ele><time>2026-04-12T08:16:50Z</time></trkpt><trkpt lat="43.93952333368253" lon="10.24802724782865"><ele>6.0</ele><time>2026-04-12T08:16:51Z</time></trkpt><trkpt lat="43.939661374093774" lon="10.247885709960258"><ele>6.0</ele><time>2026-04-12T08:16:52Z</time></trkpt><trkpt lat="43.93979631803631" lon="10.247748377064958"><ele>6.0</ele><time>2026-04-12T08:16:53Z</time></trkpt><trkpt lat="43.9399291825611" lon="10.247613483896275"><ele>6.0</ele><time>2026-04-12T08:16:54Z</time></trkpt><trkpt lat="43.94005601249895" lon="10.247486325283981"><ele>6.0</ele><time>2026-04-12T08:16:55Z</time></trkpt><trkpt lat="43.94018150402546" lon="10.247361453086109"><ele>6.0</ele><time>2026-04-12T08:16:56Z</time></trkpt><trkpt lat="43.94030699764075" lon="10.247243810545948"><ele>6.0</ele><time>2026-04-12T08:16:57Z</time></trkpt><trkpt lat="43.940432340939275" lon="10.247116639651548"><ele>6.0</ele><time>2026-04-12T08:16:58Z</time></trkpt><trkpt lat="43.94056019699539" lon="10.246991478000725"><ele>6.0</ele><time>2026-04-12T08:16:59Z</time></trkpt><trkpt lat="43.94068086849872" lon="10.246864390863857"><ele>6.0</ele><time>2026-04-12T08:17:00Z</time></trkpt><trkpt lat="43.940803302435995" lon="10.246742129127114"><ele>6.0</ele><time>2026-04-12T08:17:01Z</time></trkpt><trkpt lat="43.940922924942726" lon="10.24662069272451"><ele>6.0</ele><time>2026-04-12T08:17:02Z</time></trkpt><trkpt lat="43.941043913233685" lon="10.246496170555137"><ele>6.333333333333334</ele><time>2026-04-12T08:17:03Z</time></trkpt><trkpt lat="43.941167381710535" lon="10.246375040303873"><ele>6.666666666666667</ele><time>2026-04-12T08:17:04Z</time></trkpt><trkpt lat="43.94129060072734" lon="10.246248554597791"><ele>7.0</ele><time>2026-04-12T08:17:05Z</time></trkpt><trkpt lat="43.9414155342925" lon="10.246121656243103"><ele>7.0</ele><time>2026-04-12T08:17:06Z</time></trkpt><trkpt lat="43.94154043115467" lon="10.245989250084943"><ele>7.0</ele><time>2026-04-12T08:17:07Z</time></trkpt><trkpt lat="43.941670815695474" lon="10.245854483473138"><ele>7.0</ele><time>2026-04-12T08:17:08Z</time></trkpt><trkpt lat="43.9418021754022" lon="10.245725455021265"><ele>8.333333333333334</ele><time>2026-04-12T08:17:09Z</time></trkpt><trkpt lat="43.94193316295898" lon="10.245592914623119"><ele>9.666666666666666</ele><time>2026-04-12T08:17:10Z</time></trkpt><trkpt lat="43.942062165685655" lon="10.245459217068236"><ele>11.0</ele><time>2026-04-12T08:17:11Z</time></trkpt><trkpt lat="43.94219235345256" lon="10.245324932560912"><ele>11.0</ele><time>2026-04-12T08:17:12Z</time></trkpt><trkpt lat="43.94232484852219" lon="10.24518954082474"><ele>11.0</ele><time>2026-04-12T08:17:13Z</time></trkpt><trkpt lat="43.94245635577404" lon="10.245051392739066"><ele>11.0</ele><time>2026-04-12T08:17:14Z</time></trkpt><trkpt lat="43.94258870150384" lon="10.244919376591351"><ele>11.0</ele><time>2026-04-12T08:17:15Z</time></trkpt><trkpt lat="43.9427235163726" lon="10.244784806496254"><ele>11.0</ele><time>2026-04-12T08:17:16Z</time></trkpt><trkpt lat="43.94285706277644" lon="10.244646941188794"><ele>11.0</ele><time>2026-04-12T08:17:17Z</time></trkpt><trkpt lat="43.94298757894545" lon="10.244515275000452"><ele>11.0</ele><time>2026-04-12T08:17:18Z</time></trkpt><trkpt lat="43.94311882678228" lon="10.244380965280259"><ele>11.0</ele><time>2026-04-12T08:17:19Z</time></trkpt><trkpt lat="43.943249389763075" lon="10.244245992190205"><ele>11.0</ele><time>2026-04-12T08:17:20Z</time></trkpt><trkpt lat="43.94338402908544" lon="10.244113531288317"><ele>11.333333333333332</ele><time>2026-04-12T08:17:21Z</time></trkpt><trkpt lat="43.94351471200888" lon="10.243979627544189"><ele>11.666666666666666</ele><time>2026-04-12T08:17:22Z</time></trkpt><trkpt lat="43.943639487693716" lon="10.24384520649392"><ele>12.0</ele><time>2026-04-12T08:17:23Z</time></trkpt><trkpt lat="43.94375829179641" lon="10.243721393097022"><ele>12.0</ele><time>2026-04-12T08:17:24Z</time></trkpt><trkpt lat="43.94387791955452" lon="10.243612094251219"><ele>12.0</ele><time>2026-04-12T08:17:25Z</time></trkpt><trkpt lat="43.94399700274896" lon="10.243509831179997"><ele>12.0</ele><time>2026-04-12T08:17:26Z</time></trkpt><trkpt lat="43.944116798435935" lon="10.243420859804964"><ele>12.0</ele><time>2026-04-12T08:17:27Z</time></trkpt><trkpt lat="43.94424008538387" lon="10.243343348601776"><ele>12.0</ele><time>2026-04-12T08:17:28Z</time></trkpt><trkpt lat="43.944359549068444" lon="10.243273821092282"><ele>12.0</ele><time>2026-04-12T08:17:29Z</time></trkpt><trkpt lat="43.944472724691494" lon="10.243199279102303"><ele>12.0</ele><time>2026-04-12T08:17:30Z</time></trkpt><trkpt lat="43.944589944541" lon="10.243133618504219"><ele>12.0</ele><time>2026-04-12T08:17:31Z</time></trkpt><trkpt lat="43.94471019231646" lon="10.243058226129595"><ele>12.0</ele><time>2026-04-12T08:17:32Z</time></trkpt><trkpt lat="43.94483277183157" lon="10.242976660898348"><ele>12.0</ele><time>2026-04-12T08:17:33Z</time></trkpt><trkpt lat="43.94495835136924" lon="10.242896792020927"><ele>12.0</ele><time>2026-04-12T08:17:34Z</time></trkpt><trkpt lat="43.94508402904331" lon="10.242820459096313"><ele>12.0</ele><time>2026-04-12T08:17:35Z</time></trkpt><trkpt lat="43.9452054592382" lon="10.2427434833853"><ele>15.0</ele><time>2026-04-12T08:17:36Z</time></trkpt><trkpt lat="43.9453281497361" lon="10.242667286147347"><ele>18.0</ele><time>2026-04-12T08:17:37Z</time></trkpt><trkpt lat="43.945453196368746" lon="10.242592572049993"><ele>21.0</ele><time>2026-04-12T08:17:38Z</time></trkpt><trkpt lat="43.94557751350826" lon="10.242517542223533"><ele>24.0</ele><time>2026-04-12T08:17:39Z</time></trkpt><trkpt lat="43.94570017969947" lon="10.242441739865528"><ele>24.0</ele><time>2026-04-12T08:17:40Z</time></trkpt><trkpt lat="43.94582291414466" lon="10.242362068801585"><ele>24.0</ele><time>2026-04-12T08:17:41Z</time></trkpt><trkpt lat="43.94594779597916" lon="10.24228285471238"><ele>24.0</ele><time>2026-04-12T08:17:42Z</time></trkpt><trkpt lat="43.94606578963563" lon="10.242209766110268"><ele>24.0</ele><time>2026-04-12T08:17:43Z</time></trkpt><trkpt lat="43.94617227071666" lon="10.242146417838386"><ele>22.25</ele><time>2026-04-12T08:17:44Z</time></trkpt><trkpt lat="43.94628025226166" lon="10.242079881906973"><ele>20.5</ele><time>2026-04-12T08:17:45Z</time></trkpt><trkpt lat="43.94639616488527" lon="10.242008791268434"><ele>18.75</ele><time>2026-04-12T08:17:46Z</time></trkpt><trkpt lat="43.946514149532035" lon="10.241934730681592"><ele>17.0</ele><time>2026-04-12T08:17:47Z</time></trkpt><trkpt lat="43.94663180383649" lon="10.241863396215546"><ele>17.25</ele><time>2026-04-12T08:17:48Z</time></trkpt><trkpt lat="43.94674421172559" lon="10.241794555068195"><ele>17.5</ele><time>2026-04-12T08:17:49Z</time></trkpt><trkpt lat="43.946852149779374" lon="10.241732522089766"><ele>17.75</ele><time>2026-04-12T08:17:50Z</time></trkpt><trkpt lat="43.94696026646463" lon="10.241672637552979"><ele>18.0</ele><time>2026-04-12T08:17:51Z</time></trkpt><trkpt lat="43.94707066111348" lon="10.24161957300411"><ele>18.0</ele><time>2026-04-12T08:17:52Z</time></trkpt><trkpt lat="43.94717454310187" lon="10.241554290918957"><ele>18.0</ele><time>2026-04-12T08:17:53Z</time></trkpt><trkpt lat="43.94727681451452" lon="10.241488642995296"><ele>18.0</ele><time>2026-04-12T08:17:54Z</time></trkpt><trkpt lat="43.947376789832596" lon="10.241424236539148"><ele>18.0</ele><time>2026-04-12T08:17:55Z</time></trkpt><trkpt lat="43.94748353065646" lon="10.241360204376543"><ele>17.75</ele><time>2026-04-12T08:17:56Z</time></trkpt><trkpt lat="43.947589216690695" lon="10.241296508449423"><ele>17.5</ele><time>2026-04-12T08:17:57Z</time></trkpt><trkpt lat="43.94768953747373" lon="10.241231526939325"><ele>17.25</ele><time>2026-04-12T08:17:58Z</time></trkpt><trkpt lat="43.94779154102723" lon="10.241168527722026"><ele>17.0</ele><time>2026-04-12T08:17:59Z</time></trkpt><trkpt lat="43.9478976185839" lon="10.241101296377375"><ele>17.0</ele><time>2026-04-12T08:18:00Z</time></trkpt><trkpt lat="43.94800814262108" lon="10.241036553058102"><ele>17.0</ele><time>2026-04-12T08:18:01Z</time></trkpt><trkpt lat="43.948121860846236" lon="10.240967185835112"><ele>17.0</ele><time>2026-04-12T08:18:02Z</time></trkpt><trkpt lat="43.948238753591035" lon="10.240897349344824"><ele>17.0</ele><time>2026-04-12T08:18:03Z</time></trkpt><trkpt lat="43.94836166146525" lon="10.240819628961521"><ele>17.25</ele><time>2026-04-12T08:18:04Z</time></trkpt><trkpt lat="43.94848661379124" lon="10.240738598943679"><ele>17.5</ele><time>2026-04-12T08:18:05Z</time></trkpt><trkpt lat="43.94861967267896" lon="10.240659079739695"><ele>17.75</ele><time>2026-04-12T08:18:06Z</time></trkpt><trkpt lat="43.948755930627065" lon="10.240581260972721"><ele>18.0</ele><time>2026-04-12T08:18:07Z</time></trkpt><trkpt lat="43.94888697490543" lon="10.240501829081277"><ele>17.75</ele><time>2026-04-12T08:18:08Z</time></trkpt><trkpt lat="43.94901352124344" lon="10.240426399818094"><ele>17.5</ele><time>2026-04-12T08:18:09Z</time></trkpt><trkpt lat="43.949139862703305" lon="10.240352689354562"><ele>17.25</ele><time>2026-04-12T08:18:10Z</time></trkpt><trkpt lat="43.949258187247075" lon="10.240284560601461"><ele>17.0</ele><time>2026-04-12T08:18:11Z</time></trkpt><trkpt lat="43.94936906823517" lon="10.240222953333625"><ele>17.0</ele><time>2026-04-12T08:18:12Z</time></trkpt><trkpt lat="43.94948265067699" lon="10.240156604791494"><ele>17.0</ele><time>2026-04-12T08:18:13Z</time></trkpt><trkpt lat="43.949594628346944" lon="10.240089679391899"><ele>17.0</ele><time>2026-04-12T08:18:14Z</time></trkpt><trkpt lat="43.949706787046246" lon="10.240020497274214"><ele>17.0</ele><time>2026-04-12T08:18:15Z</time></trkpt><trkpt lat="43.94982052356869" lon="10.239952198417292"><ele>17.0</ele><time>2026-04-12T08:18:16Z</time></trkpt><trkpt lat="43.9499368455872" lon="10.239882598110079"><ele>17.0</ele><time>2026-04-12T08:18:17Z</time></trkpt><trkpt lat="43.95005181795097" lon="10.239812881298862"><ele>17.0</ele><time>2026-04-12T08:18:18Z</time></trkpt><trkpt lat="43.95016539124924" lon="10.239742056105754"><ele>17.0</ele><time>2026-04-12T08:18:19Z</time></trkpt><trkpt lat="43.950280291659645" lon="10.239677061983798"><ele>17.75</ele><time>2026-04-12T08:18:20Z</time></trkpt><trkpt lat="43.95039702203853" lon="10.239607466617759"><ele>18.5</ele><time>2026-04-12T08:18:21Z</time></trkpt><trkpt lat="43.95050184935466" lon="10.239538966041657"><ele>19.25</ele><time>2026-04-12T08:18:22Z</time></trkpt><trkpt lat="43.950606070198205" lon="10.239458745046287"><ele>20.0</ele><time>2026-04-12T08:18:23Z</time></trkpt><trkpt lat="43.95070707335821" lon="10.239370155128913"><ele>20.0</ele><time>2026-04-12T08:18:24Z</time></trkpt><trkpt lat="43.95080943111501" lon="10.239269881381485"><ele>20.0</ele><time>2026-04-12T08:18:25Z</time></trkpt><trkpt lat="43.95091055449154" lon="10.239163468072876"><ele>20.0</ele><time>2026-04-12T08:18:26Z</time></trkpt><trkpt lat="43.95100866533081" lon="10.239057870941288"><ele>20.0</ele><time>2026-04-12T08:18:27Z</time></trkpt><trkpt lat="43.95110829956254" lon="10.238949317577033"><ele>20.75</ele><time>2026-04-12T08:18:28Z</time></trkpt><trkpt lat="43.951209062189896" lon="10.238845726185291"><ele>21.5</ele><time>2026-04-12T08:18:29Z</time></trkpt><trkpt lat="43.951306580539836" lon="10.238739929973477"><ele>22.25</ele><time>2026-04-12T08:18:30Z</time></trkpt><trkpt lat="43.9514026772318" lon="10.238633169463004"><ele>23.0</ele><time>2026-04-12T08:18:31Z</time></trkpt><trkpt lat="43.95149603450996" lon="10.238531044783844"><ele>23.0</ele><time>2026-04-12T08:18:32Z</time></trkpt><trkpt lat="43.951588874048085" lon="10.238428437809267"><ele>23.0</ele><time>2026-04-12T08:18:33Z</time></trkpt><trkpt lat="43.951678600663016" lon="10.238327602709338"><ele>23.0</ele><time>2026-04-12T08:18:34Z</time></trkpt><trkpt lat="43.951767355327526" lon="10.238230777222276"><ele>23.0</ele><time>2026-04-12T08:18:35Z</time></trkpt><trkpt lat="43.95185903985209" lon="10.23813914572708"><ele>22.25</ele><time>2026-04-12T08:18:36Z</time></trkpt><trkpt lat="43.95195309468041" lon="10.238033977388225"><ele>21.5</ele><time>2026-04-12T08:18:37Z</time></trkpt><trkpt lat="43.952042613873026" lon="10.237927633112776"><ele>20.75</ele><time>2026-04-12T08:18:38Z</time></trkpt><trkpt lat="43.952140209730075" lon="10.237823807117822"><ele>20.0</ele><time>2026-04-12T08:18:39Z</time></trkpt><trkpt lat="43.952234757144566" lon="10.237721172658077"><ele>20.0</ele><time>2026-04-12T08:18:40Z</time></trkpt><trkpt lat="43.952330039934814" lon="10.237617361264853"><ele>20.0</ele><time>2026-04-12T08:18:41Z</time></trkpt><trkpt lat="43.9524217699534" lon="10.237515616852152"><ele>20.0</ele><time>2026-04-12T08:18:42.001Z</time></trkpt><trkpt lat="43.952512202562964" lon="10.237418228658003"><ele>20.0</ele><time>2026-04-12T08:18:43.001Z</time></trkpt><trkpt lat="43.95260632506541" lon="10.237318514846455"><ele>19.75</ele><time>2026-04-12T08:18:44.001Z</time></trkpt><trkpt lat="43.95270345128104" lon="10.237220601561171"><ele>19.5</ele><time>2026-04-12T08:18:45.001Z</time></trkpt><trkpt lat="43.952804656573754" lon="10.237118988678727"><ele>19.25</ele><time>2026-04-12T08:18:46.001Z</time></trkpt><trkpt lat="43.952901543383156" lon="10.237014674151697"><ele>19.0</ele><time>2026-04-12T08:18:47.001Z</time></trkpt><trkpt lat="43.95300027171297" lon="10.236905362115323"><ele>19.0</ele><time>2026-04-12T08:18:48.001Z</time></trkpt><trkpt lat="43.95309905105279" lon="10.23679182657677"><ele>19.0</ele><time>2026-04-12T08:18:49.001Z</time></trkpt><trkpt lat="43.9531995145189" lon="10.236685075373284"><ele>19.0</ele><time>2026-04-12T08:18:50.001Z</time></trkpt><trkpt lat="43.95331750100622" lon="10.236575461066451"><ele>19.0</ele><time>2026-04-12T08:18:51.001Z</time></trkpt><trkpt lat="43.95341413685036" lon="10.236458599685756"><ele>20.25</ele><time>2026-04-12T08:18:52.001Z</time></trkpt><trkpt lat="43.953512060091704" lon="10.23634367429868"><ele>21.5</ele><time>2026-04-12T08:18:53.001Z</time></trkpt><trkpt lat="43.95360818607438" lon="10.236236517964135"><ele>22.75</ele><time>2026-04-12T08:18:54.001Z</time></trkpt><trkpt lat="43.95370057016188" lon="10.236136852912871"><ele>24.0</ele><time>2026-04-12T08:18:55.001Z</time></trkpt><trkpt lat="43.95379007889656" lon="10.23603533085123"><ele>24.0</ele><time>2026-04-12T08:18:56.001Z</time></trkpt><trkpt lat="43.95388295571276" lon="10.235935248888287"><ele>24.0</ele><time>2026-04-12T08:18:57.001Z</time></trkpt><trkpt lat="43.95397187764657" lon="10.235833323395555"><ele>24.0</ele><time>2026-04-12T08:18:58.001Z</time></trkpt><trkpt lat="43.95406281498894" lon="10.23572596398294"><ele>24.0</ele><time>2026-04-12T08:18:59.001Z</time></trkpt><trkpt lat="43.95414847903652" lon="10.235609251149132"><ele>23.75</ele><time>2026-04-12T08:19:00.001Z</time></trkpt><trkpt lat="43.95423417166778" lon="10.235498041240502"><ele>23.5</ele><time>2026-04-12T08:19:01.001Z</time></trkpt><trkpt lat="43.95431000062169" lon="10.235375850334623"><ele>23.25</ele><time>2026-04-12T08:19:02.001Z</time></trkpt><trkpt lat="43.95438867192881" lon="10.235262885834342"><ele>23.0</ele><time>2026-04-12T08:19:03Z</time></trkpt><trkpt lat="43.954465930494266" lon="10.235162949502591"><ele>23.0</ele><time>2026-04-12T08:19:04Z</time></trkpt><trkpt lat="43.95451826801585" lon="10.235058348233443"><ele>23.0</ele><time>2026-04-12T08:19:05Z</time></trkpt><trkpt lat="43.95457127042514" lon="10.234967598183355"><ele>23.0</ele><time>2026-04-12T08:19:06Z</time></trkpt><trkpt lat="43.95461885567156" lon="10.234883414349158"><ele>23.0</ele><time>2026-04-12T08:19:07Z</time></trkpt><trkpt lat="43.95466727649777" lon="10.234791714315376"><ele>23.0</ele><time>2026-04-12T08:19:08Z</time></trkpt><trkpt lat="43.95473640578842" lon="10.234698421043102"><ele>23.0</ele><time>2026-04-12T08:19:09Z</time></trkpt><trkpt lat="43.954820597883234" lon="10.23460287238982"><ele>23.2</ele><time>2026-04-12T08:19:10Z</time></trkpt><trkpt lat="43.95490130935979" lon="10.234502178313859"><ele>23.4</ele><time>2026-04-12T08:19:11Z</time></trkpt><trkpt lat="43.95496580394025" lon="10.234413307211502"><ele>23.599999999999998</ele><time>2026-04-12T08:19:12Z</time></trkpt><trkpt lat="43.95501045279651" lon="10.234333848140283"><ele>23.799999999999997</ele><time>2026-04-12T08:19:13Z</time></trkpt><trkpt lat="43.95507550021224" lon="10.234249219067543"><ele>24.0</ele><time>2026-04-12T08:19:15Z</time></trkpt><trkpt lat="43.95495634643043" lon="10.23403746316108"><ele>23.2</ele><time>2026-04-12T08:19:16Z</time></trkpt><trkpt lat="43.954880357073456" lon="10.23392690334129"><ele>22.4</ele><time>2026-04-12T08:19:17Z</time></trkpt><trkpt lat="43.95480959472256" lon="10.233807103897458"><ele>21.6</ele><time>2026-04-12T08:19:18Z</time></trkpt><trkpt lat="43.95474579645884" lon="10.233690109186234"><ele>20.8</ele><time>2026-04-12T08:19:19Z</time></trkpt><trkpt lat="43.95470579838441" lon="10.233581539844412"><ele>20.0</ele><time>2026-04-12T08:19:20Z</time></trkpt><trkpt lat="43.95465996229613" lon="10.233491186548836"><ele>20.0</ele><time>2026-04-12T08:19:21Z</time></trkpt><trkpt lat="43.9546235843915" lon="10.233410841326277"><ele>20.0</ele><time>2026-04-12T08:19:22Z</time></trkpt><trkpt lat="43.954597167595196" lon="10.233328986572802"><ele>20.0</ele><time>2026-04-12T08:19:23Z</time></trkpt><trkpt lat="43.95458360020756" lon="10.23323573873785"><ele>20.0</ele><time>2026-04-12T08:19:24Z</time></trkpt><trkpt lat="43.95458314064825" lon="10.233143250512539"><ele>20.0</ele><time>2026-04-12T08:19:25Z</time></trkpt><trkpt lat="43.954642360927686" lon="10.232996006983685"><ele>20.0</ele><time>2026-04-12T08:19:27Z</time></trkpt><trkpt lat="43.954692721634785" lon="10.232927248628902"><ele>19.833333333333336</ele><time>2026-04-12T08:19:28Z</time></trkpt><trkpt lat="43.954746025474876" lon="10.23285969897475"><ele>19.666666666666668</ele><time>2026-04-12T08:19:29Z</time></trkpt><trkpt lat="43.95479624971907" lon="10.232797442769188"><ele>19.5</ele><time>2026-04-12T08:19:30Z</time></trkpt><trkpt lat="43.95488287936507" lon="10.23268794650519"><ele>19.333333333333332</ele><time>2026-04-12T08:19:32Z</time></trkpt><trkpt lat="43.954941466582255" lon="10.23261625045911"><ele>19.166666666666664</ele><time>2026-04-12T08:19:34Z</time></trkpt><trkpt lat="43.955014525234446" lon="10.23253187378138"><ele>19.0</ele><time>2026-04-12T08:19:37Z</time></trkpt><trkpt lat="43.95499117282351" lon="10.232362133252323"><ele>18.5</ele><time>2026-04-12T08:19:40Z</time></trkpt><trkpt lat="43.95489828763217" lon="10.23225086573302"><ele>18.0</ele><time>2026-04-12T08:19:42Z</time></trkpt><trkpt lat="43.9548490853697" lon="10.232178886519938"><ele>17.5</ele><time>2026-04-12T08:19:43Z</time></trkpt><trkpt lat="43.954797561125" lon="10.232102975106569"><ele>17.0</ele><time>2026-04-12T08:19:44Z</time></trkpt><trkpt lat="43.954746455701205" lon="10.232031844501078"><ele>16.5</ele><time>2026-04-12T08:19:45Z</time></trkpt><trkpt lat="43.9546916861652" lon="10.231956957702693"><ele>16.0</ele><time>2026-04-12T08:19:46Z</time></trkpt><trkpt lat="43.95463486546178" lon="10.231884316045875"><ele>15.999999999999998</ele><time>2026-04-12T08:19:47Z</time></trkpt><trkpt lat="43.95457999575452" lon="10.23180571807466"><ele>16.0</ele><time>2026-04-12T08:19:48Z</time></trkpt><trkpt lat="43.95452506510998" lon="10.231725472776686"><ele>16.0</ele><time>2026-04-12T08:19:49Z</time></trkpt><trkpt lat="43.95446619794335" lon="10.231642055902741"><ele>16.0</ele><time>2026-04-12T08:19:50Z</time></trkpt><trkpt lat="43.95440271670057" lon="10.23155210091833"><ele>15.999999999999998</ele><time>2026-04-12T08:19:51Z</time></trkpt><trkpt lat="43.95433859923343" lon="10.231465776964525"><ele>16.0</ele><time>2026-04-12T08:19:52Z</time></trkpt><trkpt lat="43.95427527701087" lon="10.231372215768657"><ele>15.200000000000001</ele><time>2026-04-12T08:19:53Z</time></trkpt><trkpt lat="43.95420350948729" lon="10.231281544344416"><ele>14.400000000000002</ele><time>2026-04-12T08:19:54Z</time></trkpt><trkpt lat="43.954133838747936" lon="10.23118457106199"><ele>13.6</ele><time>2026-04-12T08:19:55Z</time></trkpt><trkpt lat="43.95406324648906" lon="10.231083386785714"><ele>12.8</ele><time>2026-04-12T08:19:56Z</time></trkpt><trkpt lat="43.95399088111299" lon="10.23098270675419"><ele>12.0</ele><time>2026-04-12T08:19:57Z</time></trkpt><trkpt lat="43.953918604410845" lon="10.230889105469226"><ele>12.0</ele><time>2026-04-12T08:19:58Z</time></trkpt><trkpt lat="43.95385183125723" lon="10.230799488035395"><ele>12.0</ele><time>2026-04-12T08:19:59Z</time></trkpt><trkpt lat="43.95379301235109" lon="10.230717511933017"><ele>12.0</ele><time>2026-04-12T08:20:00Z</time></trkpt><trkpt lat="43.95374651301089" lon="10.230644086258307"><ele>12.0</ele><time>2026-04-12T08:20:01Z</time></trkpt><trkpt lat="43.95370526292026" lon="10.230571837496388"><ele>12.0</ele><time>2026-04-12T08:20:02Z</time></trkpt><trkpt lat="43.95365672494242" lon="10.230459807856501"><ele>12.0</ele><time>2026-04-12T08:20:04Z</time></trkpt><trkpt lat="43.95375355377225" lon="10.230323156005538"><ele>11.6</ele><time>2026-04-12T08:20:05Z</time></trkpt><trkpt lat="43.95380348458933" lon="10.23025008632653"><ele>11.2</ele><time>2026-04-12T08:20:06Z</time></trkpt><trkpt lat="43.95386083081944" lon="10.230169226914555"><ele>10.8</ele><time>2026-04-12T08:20:07Z</time></trkpt><trkpt lat="43.95392469367164" lon="10.23008295023127"><ele>10.4</ele><time>2026-04-12T08:20:08Z</time></trkpt><trkpt lat="43.95399481548663" lon="10.229986572322488"><ele>10.0</ele><time>2026-04-12T08:20:09Z</time></trkpt><trkpt lat="43.95407392994152" lon="10.22988225649378"><ele>9.5</ele><time>2026-04-12T08:20:10Z</time></trkpt><trkpt lat="43.954158450115216" lon="10.229765496405035"><ele>9.0</ele><time>2026-04-12T08:20:11Z</time></trkpt><trkpt lat="43.954250166696426" lon="10.229644034984442"><ele>8.5</ele><time>2026-04-12T08:20:12Z</time></trkpt><trkpt lat="43.95434393661555" lon="10.229531973363232"><ele>8.0</ele><time>2026-04-12T08:20:13Z</time></trkpt><trkpt lat="43.95443553426952" lon="10.229431719303609"><ele>8.0</ele><time>2026-04-12T08:20:14Z</time></trkpt><trkpt lat="43.95452622067981" lon="10.229341706001346"><ele>8.0</ele><time>2026-04-12T08:20:15Z</time></trkpt><trkpt lat="43.95460064936795" lon="10.229258003777838"><ele>8.0</ele><time>2026-04-12T08:20:16Z</time></trkpt><trkpt lat="43.95465630222104" lon="10.22918729372986"><ele>8.0</ele><time>2026-04-12T08:20:17Z</time></trkpt><trkpt lat="43.9547465577497" lon="10.229069986358724"><ele>8.0</ele><time>2026-04-12T08:20:19Z</time></trkpt><trkpt lat="43.954817565928465" lon="10.228995472550162"><ele>8.166666666666666</ele><time>2026-04-12T08:20:21Z</time></trkpt><trkpt lat="43.954888271663286" lon="10.22890436394709"><ele>8.333333333333332</ele><time>2026-04-12T08:20:23Z</time></trkpt><trkpt lat="43.954942131705444" lon="10.228844698032296"><ele>8.5</ele><time>2026-04-12T08:20:24Z</time></trkpt><trkpt lat="43.95499442785716" lon="10.228790373430897"><ele>8.666666666666666</ele><time>2026-04-12T08:20:25Z</time></trkpt><trkpt lat="43.955050052014116" lon="10.228727465867676"><ele>8.833333333333334</ele><time>2026-04-12T08:20:26Z</time></trkpt><trkpt lat="43.95515385130708" lon="10.228589654858451"><ele>9.0</ele><time>2026-04-12T08:20:28Z</time></trkpt><trkpt lat="43.95522076437327" lon="10.228507098313798"><ele>9.2</ele><time>2026-04-12T08:20:29Z</time></trkpt><trkpt lat="43.95528944301533" lon="10.228425363139356"><ele>9.4</ele><time>2026-04-12T08:20:30Z</time></trkpt><trkpt lat="43.95535931313122" lon="10.22833112893941"><ele>9.6</ele><time>2026-04-12T08:20:31.001Z</time></trkpt><trkpt lat="43.95543886354602" lon="10.228237606759132"><ele>9.8</ele><time>2026-04-12T08:20:32.001Z</time></trkpt><trkpt lat="43.95551530686023" lon="10.228144491277405"><ele>10.0</ele><time>2026-04-12T08:20:33.001Z</time></trkpt><trkpt lat="43.95559434381579" lon="10.228046977700782"><ele>9.75</ele><time>2026-04-12T08:20:34.001Z</time></trkpt><trkpt lat="43.95567455525809" lon="10.227939847909214"><ele>9.5</ele><time>2026-04-12T08:20:35.001Z</time></trkpt><trkpt lat="43.955759366427436" lon="10.227828157238942"><ele>9.25</ele><time>2026-04-12T08:20:36.001Z</time></trkpt><trkpt lat="43.955843305708854" lon="10.227724377587576"><ele>9.0</ele><time>2026-04-12T08:20:37.001Z</time></trkpt><trkpt lat="43.955928142668775" lon="10.227618134472852"><ele>9.0</ele><time>2026-04-12T08:20:38.001Z</time></trkpt><trkpt lat="43.95600807211798" lon="10.227521821131754"><ele>9.0</ele><time>2026-04-12T08:20:39.001Z</time></trkpt><trkpt lat="43.956086691602366" lon="10.227423505585113"><ele>9.0</ele><time>2026-04-12T08:20:40.001Z</time></trkpt><trkpt lat="43.95616146805805" lon="10.227325396942257"><ele>9.0</ele><time>2026-04-12T08:20:41.001Z</time></trkpt><trkpt lat="43.95624707383889" lon="10.227222085127833"><ele>9.0</ele><time>2026-04-12T08:20:42.001Z</time></trkpt><trkpt lat="43.95634023756577" lon="10.22710443238602"><ele>9.0</ele><time>2026-04-12T08:20:43.001Z</time></trkpt><trkpt lat="43.95643448003581" lon="10.226971269412314"><ele>9.0</ele><time>2026-04-12T08:20:44.001Z</time></trkpt><trkpt lat="43.956534484675636" lon="10.22682526992068"><ele>9.0</ele><time>2026-04-12T08:20:45.001Z</time></trkpt><trkpt lat="43.95663961086915" lon="10.226677909666815"><ele>9.0</ele><time>2026-04-12T08:20:46.001Z</time></trkpt><trkpt lat="43.95675098118841" lon="10.22652591102524"><ele>9.0</ele><time>2026-04-12T08:20:47.001Z</time></trkpt><trkpt lat="43.956865096766876" lon="10.226375916346756"><ele>9.0</ele><time>2026-04-12T08:20:48.001Z</time></trkpt><trkpt lat="43.95697901347639" lon="10.226221161120849"><ele>9.0</ele><time>2026-04-12T08:20:49.001Z</time></trkpt><trkpt lat="43.95709720600749" lon="10.226073005858648"><ele>9.0</ele><time>2026-04-12T08:20:50.001Z</time></trkpt><trkpt lat="43.957211507547115" lon="10.225919100568934"><ele>9.0</ele><time>2026-04-12T08:20:51.001Z</time></trkpt><trkpt lat="43.9573247338562" lon="10.225768893461241"><ele>9.0</ele><time>2026-04-12T08:20:52.001Z</time></trkpt><trkpt lat="43.957441657994956" lon="10.22561211300937"><ele>8.666666666666666</ele><time>2026-04-12T08:20:53.001Z</time></trkpt><trkpt lat="43.95755795195463" lon="10.225469349885516"><ele>8.333333333333332</ele><time>2026-04-12T08:20:54.001Z</time></trkpt><trkpt lat="43.95767473071962" lon="10.225321037719501"><ele>8.0</ele><time>2026-04-12T08:20:55.001Z</time></trkpt><trkpt lat="43.957784134784994" lon="10.225169167165554"><ele>8.0</ele><time>2026-04-12T08:20:56.001Z</time></trkpt><trkpt lat="43.95788915202854" lon="10.225009028839631"><ele>8.0</ele><time>2026-04-12T08:20:57.001Z</time></trkpt><trkpt lat="43.95798811721812" lon="10.224837839101745"><ele>8.0</ele><time>2026-04-12T08:20:58.001Z</time></trkpt><trkpt lat="43.95807416473484" lon="10.224671572594906"><ele>7.800000000000001</ele><time>2026-04-12T08:20:59.001Z</time></trkpt><trkpt lat="43.95814640798961" lon="10.224522884215817"><ele>7.6000000000000005</ele><time>2026-04-12T08:21:00.001Z</time></trkpt><trkpt lat="43.95821270579729" lon="10.224393118171028"><ele>7.3999999999999995</ele><time>2026-04-12T08:21:01.001Z</time></trkpt><trkpt lat="43.9582688594475" lon="10.224295094923129"><ele>7.199999999999999</ele><time>2026-04-12T08:21:02.001Z</time></trkpt><trkpt lat="43.958315275016446" lon="10.224225989290717"><ele>7.0</ele><time>2026-04-12T08:21:03.001Z</time></trkpt><trkpt lat="43.95839291905556" lon="10.224125340278944"><ele>7.199999999999999</ele><time>2026-04-12T08:21:05.001Z</time></trkpt><trkpt lat="43.9584924115753" lon="10.224035005526842"><ele>7.3999999999999995</ele><time>2026-04-12T08:21:07.001Z</time></trkpt><trkpt lat="43.958546339879646" lon="10.223969818860327"><ele>7.6000000000000005</ele><time>2026-04-12T08:21:08.001Z</time></trkpt><trkpt lat="43.95860161881786" lon="10.223888105350095"><ele>7.800000000000001</ele><time>2026-04-12T08:21:09Z</time></trkpt><trkpt lat="43.95866456200162" lon="10.223796842187639"><ele>8.0</ele><time>2026-04-12T08:21:10Z</time></trkpt><trkpt lat="43.95874076879422" lon="10.223710996925869"><ele>8.0</ele><time>2026-04-12T08:21:11Z</time></trkpt><trkpt lat="43.958828098395344" lon="10.223636380588259"><ele>8.0</ele><time>2026-04-12T08:21:12Z</time></trkpt><trkpt lat="43.95892097102353" lon="10.223583761140354"><ele>8.0</ele><time>2026-04-12T08:21:13Z</time></trkpt><trkpt lat="43.95902116806035" lon="10.223538073367267"><ele>8.0</ele><time>2026-04-12T08:21:14Z</time></trkpt><trkpt lat="43.95912858303801" lon="10.223468045630103"><ele>8.0</ele><time>2026-04-12T08:21:15Z</time></trkpt><trkpt lat="43.959241701047375" lon="10.22335123952788"><ele>8.0</ele><time>2026-04-12T08:21:16Z</time></trkpt><trkpt lat="43.959369089309604" lon="10.22321277805158"><ele>8.0</ele><time>2026-04-12T08:21:17Z</time></trkpt><trkpt lat="43.95950905071528" lon="10.22306926792284"><ele>8.0</ele><time>2026-04-12T08:21:18Z</time></trkpt><trkpt lat="43.95966052795425" lon="10.222922375797877"><ele>8.333333333333332</ele><time>2026-04-12T08:21:19Z</time></trkpt><trkpt lat="43.95981047072341" lon="10.222773189079392"><ele>8.666666666666666</ele><time>2026-04-12T08:21:20Z</time></trkpt><trkpt lat="43.959956038920964" lon="10.222627845487674"><ele>9.0</ele><time>2026-04-12T08:21:21Z</time></trkpt><trkpt lat="43.96009539210938" lon="10.222483539517421"><ele>9.0</ele><time>2026-04-12T08:21:22Z</time></trkpt><trkpt lat="43.96022892160295" lon="10.222341210801837"><ele>9.0</ele><time>2026-04-12T08:21:23Z</time></trkpt><trkpt lat="43.96035708918953" lon="10.222206338510281"><ele>9.0</ele><time>2026-04-12T08:21:24Z</time></trkpt><trkpt lat="43.96047660204783" lon="10.22208215224479"><ele>9.0</ele><time>2026-04-12T08:21:25Z</time></trkpt><trkpt lat="43.96058974489834" lon="10.221969094675602"><ele>9.0</ele><time>2026-04-12T08:21:26Z</time></trkpt><trkpt lat="43.96069175185412" lon="10.221863125885909"><ele>9.0</ele><time>2026-04-12T08:21:27Z</time></trkpt><trkpt lat="43.96079369446082" lon="10.221765734989253"><ele>9.0</ele><time>2026-04-12T08:21:28Z</time></trkpt><trkpt lat="43.960895399280425" lon="10.221671798014071"><ele>9.0</ele><time>2026-04-12T08:21:29Z</time></trkpt><trkpt lat="43.960995053401675" lon="10.221586025861903"><ele>9.0</ele><time>2026-04-12T08:21:30Z</time></trkpt><trkpt lat="43.961087673745894" lon="10.221503122094706"><ele>9.0</ele><time>2026-04-12T08:21:31Z</time></trkpt><trkpt lat="43.96117976938567" lon="10.221428934831527"><ele>9.0</ele><time>2026-04-12T08:21:32Z</time></trkpt><trkpt lat="43.96126938468601" lon="10.221359631277654"><ele>9.0</ele><time>2026-04-12T08:21:33Z</time></trkpt><trkpt lat="43.961356380208024" lon="10.221290711838247"><ele>9.2</ele><time>2026-04-12T08:21:34Z</time></trkpt><trkpt lat="43.96144143017171" lon="10.221222138797026"><ele>9.4</ele><time>2026-04-12T08:21:35Z</time></trkpt><trkpt lat="43.96152501033917" lon="10.22114298252993"><ele>9.6</ele><time>2026-04-12T08:21:36Z</time></trkpt><trkpt lat="43.961609975796634" lon="10.221048492999087"><ele>9.8</ele><time>2026-04-12T08:21:37Z</time></trkpt><trkpt lat="43.96168222810597" lon="10.220917154852787"><ele>10.0</ele><time>2026-04-12T08:21:38Z</time></trkpt><trkpt lat="43.96174615191491" lon="10.220788309753083"><ele>10.25</ele><time>2026-04-12T08:21:39Z</time></trkpt><trkpt lat="43.96181160155272" lon="10.220655146593124"><ele>10.5</ele><time>2026-04-12T08:21:40Z</time></trkpt><trkpt lat="43.9618785790351" lon="10.220526006611863"><ele>10.75</ele><time>2026-04-12T08:21:41Z</time></trkpt><trkpt lat="43.961959767455404" lon="10.220391021092734"><ele>11.0</ele><time>2026-04-12T08:21:42Z</time></trkpt><trkpt lat="43.962035865837805" lon="10.220272352709529"><ele>10.25</ele><time>2026-04-12T08:21:43Z</time></trkpt><trkpt lat="43.962120378868924" lon="10.220152447388282"><ele>9.5</ele><time>2026-04-12T08:21:44Z</time></trkpt><trkpt lat="43.96220948976778" lon="10.220027449440654"><ele>8.75</ele><time>2026-04-12T08:21:45Z</time></trkpt><trkpt lat="43.96229965662315" lon="10.219904398332975"><ele>8.0</ele><time>2026-04-12T08:21:46Z</time></trkpt><trkpt lat="43.962386919075676" lon="10.21978493312596"><ele>8.0</ele><time>2026-04-12T08:21:47Z</time></trkpt><trkpt lat="43.962471443588434" lon="10.219665926712118"><ele>8.0</ele><time>2026-04-12T08:21:48Z</time></trkpt><trkpt lat="43.96255208447739" lon="10.219555859196998"><ele>8.0</ele><time>2026-04-12T08:21:49Z</time></trkpt><trkpt lat="43.96262982286995" lon="10.219450184471565"><ele>8.0</ele><time>2026-04-12T08:21:50Z</time></trkpt><trkpt lat="43.96270868866849" lon="10.21934237160721"><ele>8.0</ele><time>2026-04-12T08:21:51Z</time></trkpt><trkpt lat="43.96278909607985" lon="10.219234110668753"><ele>8.0</ele><time>2026-04-12T08:21:52Z</time></trkpt><trkpt lat="43.96287242416009" lon="10.219120737482978"><ele>8.0</ele><time>2026-04-12T08:21:53Z</time></trkpt><trkpt lat="43.96296180008194" lon="10.218997684357324"><ele>8.0</ele><time>2026-04-12T08:21:54Z</time></trkpt><trkpt lat="43.963050215443175" lon="10.218874113143578"><ele>8.0</ele><time>2026-04-12T08:21:55Z</time></trkpt><trkpt lat="43.96314170200234" lon="10.218762367592355"><ele>8.0</ele><time>2026-04-12T08:21:56Z</time></trkpt><trkpt lat="43.96322625874879" lon="10.218647303711043"><ele>8.0</ele><time>2026-04-12T08:21:57Z</time></trkpt><trkpt lat="43.96331237466371" lon="10.218532111167702"><ele>8.0</ele><time>2026-04-12T08:21:58Z</time></trkpt><trkpt lat="43.96340104369026" lon="10.218416231244582"><ele>8.25</ele><time>2026-04-12T08:21:59Z</time></trkpt><trkpt lat="43.96349171600763" lon="10.218294546800298"><ele>8.5</ele><time>2026-04-12T08:22:00Z</time></trkpt><trkpt lat="43.963582644246166" lon="10.218165792781257"><ele>8.75</ele><time>2026-04-12T08:22:01Z</time></trkpt><trkpt lat="43.96367745367722" lon="10.218035946868595"><ele>9.0</ele><time>2026-04-12T08:22:02Z</time></trkpt><trkpt lat="43.96377459216561" lon="10.217905208952287"><ele>9.0</ele><time>2026-04-12T08:22:03Z</time></trkpt><trkpt lat="43.96387144787568" lon="10.217777864893884"><ele>9.0</ele><time>2026-04-12T08:22:04Z</time></trkpt><trkpt lat="43.963965642207924" lon="10.217648315176556"><ele>9.0</ele><time>2026-04-12T08:22:05Z</time></trkpt><trkpt lat="43.96405560866176" lon="10.217526099834428"><ele>9.0</ele><time>2026-04-12T08:22:06Z</time></trkpt><trkpt lat="43.964142044636915" lon="10.217408195601175"><ele>9.4</ele><time>2026-04-12T08:22:07Z</time></trkpt><trkpt lat="43.96422513525623" lon="10.217293621935767"><ele>9.8</ele><time>2026-04-12T08:22:08Z</time></trkpt><trkpt lat="43.96430900699996" lon="10.21717936894255"><ele>10.200000000000001</ele><time>2026-04-12T08:22:09Z</time></trkpt><trkpt lat="43.96438787693576" lon="10.217071556477883"><ele>10.600000000000001</ele><time>2026-04-12T08:22:10Z</time></trkpt><trkpt lat="43.96446035116018" lon="10.216968356689174"><ele>11.0</ele><time>2026-04-12T08:22:11Z</time></trkpt><trkpt lat="43.96453326565382" lon="10.216870820757059"><ele>11.0</ele><time>2026-04-12T08:22:12Z</time></trkpt><trkpt lat="43.96460611945122" lon="10.216774303774761"><ele>11.0</ele><time>2026-04-12T08:22:13Z</time></trkpt><trkpt lat="43.96468283787772" lon="10.21667174022278"><ele>11.0</ele><time>2026-04-12T08:22:14Z</time></trkpt><trkpt lat="43.96476097189175" lon="10.216564549439033"><ele>11.0</ele><time>2026-04-12T08:22:15Z</time></trkpt><trkpt lat="43.96484181425188" lon="10.216450588728827"><ele>11.0</ele><time>2026-04-12T08:22:16Z</time></trkpt><trkpt lat="43.964925845957325" lon="10.216337521431099"><ele>11.0</ele><time>2026-04-12T08:22:17Z</time></trkpt><trkpt lat="43.96500928404797" lon="10.216219500739959"><ele>11.0</ele><time>2026-04-12T08:22:18Z</time></trkpt><trkpt lat="43.96509581853709" lon="10.21610268763919"><ele>11.0</ele><time>2026-04-12T08:22:19Z</time></trkpt><trkpt lat="43.96518042781275" lon="10.215987720103286"><ele>11.0</ele><time>2026-04-12T08:22:20Z</time></trkpt><trkpt lat="43.96526514854251" lon="10.215876771627821"><ele>10.75</ele><time>2026-04-12T08:22:21Z</time></trkpt><trkpt lat="43.96534498593111" lon="10.215768317023777"><ele>10.5</ele><time>2026-04-12T08:22:22Z</time></trkpt><trkpt lat="43.96542660179386" lon="10.215656097410914"><ele>10.25</ele><time>2026-04-12T08:22:23Z</time></trkpt><trkpt lat="43.96551024169251" lon="10.215540061549431"><ele>10.0</ele><time>2026-04-12T08:22:24Z</time></trkpt><trkpt lat="43.9655969121818" lon="10.215426229633561"><ele>10.0</ele><time>2026-04-12T08:22:25Z</time></trkpt><trkpt lat="43.96568497753032" lon="10.215299517757073"><ele>10.0</ele><time>2026-04-12T08:22:26Z</time></trkpt><trkpt lat="43.96577785238284" lon="10.2151748811726"><ele>10.0</ele><time>2026-04-12T08:22:27Z</time></trkpt><trkpt lat="43.965864587685836" lon="10.215055281899227"><ele>10.0</ele><time>2026-04-12T08:22:28Z</time></trkpt><trkpt lat="43.96595375904166" lon="10.214935162522716"><ele>10.75</ele><time>2026-04-12T08:22:29Z</time></trkpt><trkpt lat="43.966047070041526" lon="10.214801239854571"><ele>11.5</ele><time>2026-04-12T08:22:30Z</time></trkpt><trkpt lat="43.96614471751933" lon="10.214655492218606"><ele>12.25</ele><time>2026-04-12T08:22:31Z</time></trkpt><trkpt lat="43.96626373664865" lon="10.214522800363556"><ele>13.0</ele><time>2026-04-12T08:22:32Z</time></trkpt><trkpt lat="43.966377555312725" lon="10.21436761903157"><ele>13.0</ele><time>2026-04-12T08:22:33Z</time></trkpt><trkpt lat="43.96649594990557" lon="10.214206198823469"><ele>13.0</ele><time>2026-04-12T08:22:34.001Z</time></trkpt><trkpt lat="43.96660405301937" lon="10.214023170670133"><ele>13.0</ele><time>2026-04-12T08:22:35.001Z</time></trkpt><trkpt lat="43.96673496376897" lon="10.213857258689195"><ele>13.333333333333332</ele><time>2026-04-12T08:22:36.001Z</time></trkpt><trkpt lat="43.9668666027403" lon="10.213689796722846"><ele>13.666666666666668</ele><time>2026-04-12T08:22:37.001Z</time></trkpt><trkpt lat="43.96699914361177" lon="10.213522101764992"><ele>14.0</ele><time>2026-04-12T08:22:38.001Z</time></trkpt><trkpt lat="43.96712417795453" lon="10.21336323014425"><ele>14.0</ele><time>2026-04-12T08:22:39.001Z</time></trkpt><trkpt lat="43.96724146545675" lon="10.21320388474381"><ele>14.0</ele><time>2026-04-12T08:22:40.001Z</time></trkpt><trkpt lat="43.96735246697453" lon="10.213045979885843"><ele>14.0</ele><time>2026-04-12T08:22:41.001Z</time></trkpt><trkpt lat="43.967461400438026" lon="10.212894022014309"><ele>14.25</ele><time>2026-04-12T08:22:42.001Z</time></trkpt><trkpt lat="43.967568198976984" lon="10.212747271213155"><ele>14.5</ele><time>2026-04-12T08:22:43.001Z</time></trkpt><trkpt lat="43.967669052166094" lon="10.212599833467962"><ele>14.75</ele><time>2026-04-12T08:22:44.001Z</time></trkpt><trkpt lat="43.9677635645708" lon="10.21244841856833"><ele>15.0</ele><time>2026-04-12T08:22:45.001Z</time></trkpt><trkpt lat="43.967843524774494" lon="10.212284626226838"><ele>15.0</ele><time>2026-04-12T08:22:46.001Z</time></trkpt><trkpt lat="43.96789626401552" lon="10.212106941801165"><ele>15.0</ele><time>2026-04-12T08:22:47.001Z</time></trkpt><trkpt lat="43.96792468301599" lon="10.211918033268917"><ele>15.0</ele><time>2026-04-12T08:22:48.001Z</time></trkpt><trkpt lat="43.967947921560054" lon="10.21173371474919"><ele>15.0</ele><time>2026-04-12T08:22:49.001Z</time></trkpt><trkpt lat="43.967988337096" lon="10.211549757121738"><ele>14.75</ele><time>2026-04-12T08:22:50.001Z</time></trkpt><trkpt lat="43.96805492974084" lon="10.211371885180885"><ele>14.5</ele><time>2026-04-12T08:22:51.001Z</time></trkpt><trkpt lat="43.96814289502172" lon="10.211199872412482"><ele>14.25</ele><time>2026-04-12T08:22:52.001Z</time></trkpt><trkpt lat="43.96824629166891" lon="10.211060130044832"><ele>14.0</ele><time>2026-04-12T08:22:53.001Z</time></trkpt><trkpt lat="43.96836036027027" lon="10.21094376346271"><ele>14.5</ele><time>2026-04-12T08:22:54.001Z</time></trkpt><trkpt lat="43.96848545267024" lon="10.21085866945255"><ele>15.0</ele><time>2026-04-12T08:22:55.001Z</time></trkpt><trkpt lat="43.96861508478832" lon="10.210790618576628"><ele>15.5</ele><time>2026-04-12T08:22:56.001Z</time></trkpt><trkpt lat="43.96873730290665" lon="10.210711676243589"><ele>16.0</ele><time>2026-04-12T08:22:57.001Z</time></trkpt><trkpt lat="43.968853230990064" lon="10.210623059309103"><ele>16.0</ele><time>2026-04-12T08:22:58.001Z</time></trkpt><trkpt lat="43.96896444071689" lon="10.21052390635926"><ele>16.0</ele><time>2026-04-12T08:22:59.001Z</time></trkpt><trkpt lat="43.96906795461566" lon="10.210410786083918"><ele>16.0</ele><time>2026-04-12T08:23:00.001Z</time></trkpt><trkpt lat="43.969162818931174" lon="10.210279229602687"><ele>16.0</ele><time>2026-04-12T08:23:01.001Z</time></trkpt><trkpt lat="43.96925589027041" lon="10.210142768581255"><ele>16.0</ele><time>2026-04-12T08:23:02.001Z</time></trkpt><trkpt lat="43.969344783852115" lon="10.210014562939312"><ele>16.0</ele><time>2026-04-12T08:23:03.001Z</time></trkpt><trkpt lat="43.96944103967094" lon="10.209883562115623"><ele>16.0</ele><time>2026-04-12T08:23:04.001Z</time></trkpt><trkpt lat="43.969545142436985" lon="10.209742554328617"><ele>16.0</ele><time>2026-04-12T08:23:05.001Z</time></trkpt><trkpt lat="43.969647136696615" lon="10.209605044688903"><ele>16.0</ele><time>2026-04-12T08:23:06.001Z</time></trkpt><trkpt lat="43.96975557037092" lon="10.209459504972106"><ele>16.0</ele><time>2026-04-12T08:23:07.001Z</time></trkpt><trkpt lat="43.9698777506155" lon="10.209309202080718"><ele>16.0</ele><time>2026-04-12T08:23:08.001Z</time></trkpt><trkpt lat="43.96998839449379" lon="10.2091539958887"><ele>16.666666666666664</ele><time>2026-04-12T08:23:09.001Z</time></trkpt><trkpt lat="43.970109204737774" lon="10.208993252730759"><ele>17.333333333333332</ele><time>2026-04-12T08:23:10.001Z</time></trkpt><trkpt lat="43.9702273266621" lon="10.20882378257044"><ele>18.0</ele><time>2026-04-12T08:23:11.001Z</time></trkpt><trkpt lat="43.97035544558211" lon="10.208640107836452"><ele>18.0</ele><time>2026-04-12T08:23:12.001Z</time></trkpt><trkpt lat="43.970502326264246" lon="10.208470768955145"><ele>18.0</ele><time>2026-04-12T08:23:13.001Z</time></trkpt><trkpt lat="43.970644288319235" lon="10.208279421228216"><ele>18.0</ele><time>2026-04-12T08:23:14.001Z</time></trkpt><trkpt lat="43.97078083048837" lon="10.20806746331291"><ele>18.0</ele><time>2026-04-12T08:23:15Z</time></trkpt><trkpt lat="43.97093331829116" lon="10.207879752860487"><ele>18.0</ele><time>2026-04-12T08:23:16Z</time></trkpt><trkpt lat="43.97107661169254" lon="10.207699618435647"><ele>18.0</ele><time>2026-04-12T08:23:17Z</time></trkpt><trkpt lat="43.97120937210924" lon="10.207525510912735"><ele>18.0</ele><time>2026-04-12T08:23:18Z</time></trkpt><trkpt lat="43.971339615711734" lon="10.20734843023188"><ele>18.0</ele><time>2026-04-12T08:23:19Z</time></trkpt><trkpt lat="43.9714604311403" lon="10.207183485940956"><ele>18.0</ele><time>2026-04-12T08:23:20Z</time></trkpt><trkpt lat="43.971574299246114" lon="10.207022155181061"><ele>18.0</ele><time>2026-04-12T08:23:21Z</time></trkpt><trkpt lat="43.97168228336506" lon="10.206877476651979"><ele>18.0</ele><time>2026-04-12T08:23:22Z</time></trkpt><trkpt lat="43.97178914028077" lon="10.206741024671167"><ele>18.0</ele><time>2026-04-12T08:23:23Z</time></trkpt><trkpt lat="43.971887925033265" lon="10.20660507127564"><ele>18.0</ele><time>2026-04-12T08:23:24Z</time></trkpt><trkpt lat="43.9719864336729" lon="10.206475592341038"><ele>18.0</ele><time>2026-04-12T08:23:25Z</time></trkpt><trkpt lat="43.97208127080982" lon="10.206350106562416"><ele>18.0</ele><time>2026-04-12T08:23:26Z</time></trkpt><trkpt lat="43.97217021961871" lon="10.206228770049956"><ele>18.0</ele><time>2026-04-12T08:23:27Z</time></trkpt><trkpt lat="43.972256444112475" lon="10.206111960453557"><ele>18.0</ele><time>2026-04-12T08:23:28Z</time></trkpt><trkpt lat="43.972346337031944" lon="10.20598807388952"><ele>18.0</ele><time>2026-04-12T08:23:29Z</time></trkpt><trkpt lat="43.972436214010216" lon="10.205873850279009"><ele>18.0</ele><time>2026-04-12T08:23:30Z</time></trkpt><trkpt lat="43.97252524286605" lon="10.205758159803322"><ele>18.0</ele><time>2026-04-12T08:23:31Z</time></trkpt><trkpt lat="43.97261347206841" lon="10.205643642747887"><ele>18.0</ele><time>2026-04-12T08:23:32Z</time></trkpt><trkpt lat="43.97270191983175" lon="10.205529757497997"><ele>18.0</ele><time>2026-04-12T08:23:33Z</time></trkpt><trkpt lat="43.97279605038475" lon="10.205406802183333"><ele>18.0</ele><time>2026-04-12T08:23:34Z</time></trkpt><trkpt lat="43.97290052206565" lon="10.205274954535298"><ele>18.0</ele><time>2026-04-12T08:23:35Z</time></trkpt><trkpt lat="43.97301211955961" lon="10.205118900856494"><ele>18.0</ele><time>2026-04-12T08:23:36Z</time></trkpt><trkpt lat="43.973130034272494" lon="10.204957979584902"><ele>17.75</ele><time>2026-04-12T08:23:37Z</time></trkpt><trkpt lat="43.9732523273117" lon="10.204809940943392"><ele>17.5</ele><time>2026-04-12T08:23:38Z</time></trkpt><trkpt lat="43.97336279878659" lon="10.204671177752706"><ele>17.25</ele><time>2026-04-12T08:23:39Z</time></trkpt><trkpt lat="43.97346376597072" lon="10.204544740372542"><ele>17.0</ele><time>2026-04-12T08:23:40Z</time></trkpt><trkpt lat="43.97355359288582" lon="10.204427552270728"><ele>17.0</ele><time>2026-04-12T08:23:41Z</time></trkpt><trkpt lat="43.97363650600749" lon="10.204315184416089"><ele>17.0</ele><time>2026-04-12T08:23:42Z</time></trkpt><trkpt lat="43.97371821928543" lon="10.204210377743129"><ele>17.0</ele><time>2026-04-12T08:23:43Z</time></trkpt><trkpt lat="43.9737987776748" lon="10.204110672634872"><ele>17.0</ele><time>2026-04-12T08:23:44Z</time></trkpt><trkpt lat="43.9738783297901" lon="10.204001667262762"><ele>17.0</ele><time>2026-04-12T08:23:45Z</time></trkpt><trkpt lat="43.97395933614535" lon="10.203899623603334"><ele>17.0</ele><time>2026-04-12T08:23:46Z</time></trkpt><trkpt lat="43.9740394462992" lon="10.203795602643721"><ele>17.0</ele><time>2026-04-12T08:23:47Z</time></trkpt><trkpt lat="43.974117099982436" lon="10.203696590708883"><ele>17.0</ele><time>2026-04-12T08:23:48Z</time></trkpt><trkpt lat="43.97419157960648" lon="10.20360164841592"><ele>17.0</ele><time>2026-04-12T08:23:49Z</time></trkpt><trkpt lat="43.97426579857718" lon="10.203505026103691"><ele>17.0</ele><time>2026-04-12T08:23:50Z</time></trkpt><trkpt lat="43.9743457260619" lon="10.203398982857724"><ele>16.75</ele><time>2026-04-12T08:23:51Z</time></trkpt><trkpt lat="43.97443415499055" lon="10.203285671973255"><ele>16.5</ele><time>2026-04-12T08:23:52Z</time></trkpt><trkpt lat="43.97452820536142" lon="10.203153238363331"><ele>16.25</ele><time>2026-04-12T08:23:53Z</time></trkpt><trkpt lat="43.974632761580395" lon="10.203010224345412"><ele>16.0</ele><time>2026-04-12T08:23:54Z</time></trkpt><trkpt lat="43.97475755987314" lon="10.202874786990055"><ele>16.333333333333332</ele><time>2026-04-12T08:23:55Z</time></trkpt><trkpt lat="43.97486269316331" lon="10.202711696275403"><ele>16.666666666666668</ele><time>2026-04-12T08:23:56Z</time></trkpt><trkpt lat="43.9749808897828" lon="10.20256187580152"><ele>17.0</ele><time>2026-04-12T08:23:57Z</time></trkpt><trkpt lat="43.97509991878731" lon="10.202399336120918"><ele>17.333333333333336</ele><time>2026-04-12T08:23:58Z</time></trkpt><trkpt lat="43.975223104622415" lon="10.20224197896155"><ele>17.666666666666668</ele><time>2026-04-12T08:23:59Z</time></trkpt><trkpt lat="43.97534688622331" lon="10.202080203254447"><ele>18.0</ele><time>2026-04-12T08:24:00Z</time></trkpt><trkpt lat="43.97547181692287" lon="10.201918482743718"><ele>18.0</ele><time>2026-04-12T08:24:01Z</time></trkpt><trkpt lat="43.97559483336192" lon="10.201758968601967"><ele>18.0</ele><time>2026-04-12T08:24:02Z</time></trkpt><trkpt lat="43.97572685264969" lon="10.201611706748775"><ele>18.0</ele><time>2026-04-12T08:24:03Z</time></trkpt><trkpt lat="43.975846962179986" lon="10.201450668748008"><ele>18.0</ele><time>2026-04-12T08:24:04Z</time></trkpt><trkpt lat="43.97597341437835" lon="10.201303286045345"><ele>18.0</ele><time>2026-04-12T08:24:05Z</time></trkpt><trkpt lat="43.976097255503284" lon="10.201152947946792"><ele>18.0</ele><time>2026-04-12T08:24:06Z</time></trkpt><trkpt lat="43.97621361012469" lon="10.201007104870873"><ele>18.0</ele><time>2026-04-12T08:24:07Z</time></trkpt><trkpt lat="43.97632650143964" lon="10.200864337791732"><ele>18.0</ele><time>2026-04-12T08:24:08Z</time></trkpt><trkpt lat="43.97643034685853" lon="10.200730547797411"><ele>18.0</ele><time>2026-04-12T08:24:09Z</time></trkpt><trkpt lat="43.97652953222997" lon="10.200603389565151"><ele>18.0</ele><time>2026-04-12T08:24:10Z</time></trkpt><trkpt lat="43.97662140734869" lon="10.200486228766648"><ele>18.0</ele><time>2026-04-12T08:24:11Z</time></trkpt><trkpt lat="43.97671671532659" lon="10.20036380914926"><ele>18.0</ele><time>2026-04-12T08:24:12Z</time></trkpt><trkpt lat="43.97681331466809" lon="10.200228443090467"><ele>18.0</ele><time>2026-04-12T08:24:13Z</time></trkpt><trkpt lat="43.97692124381064" lon="10.200091191457313"><ele>18.0</ele><time>2026-04-12T08:24:14Z</time></trkpt><trkpt lat="43.97703398515726" lon="10.199952350615275"><ele>17.666666666666668</ele><time>2026-04-12T08:24:15Z</time></trkpt><trkpt lat="43.97715035286031" lon="10.199811523600712"><ele>17.333333333333336</ele><time>2026-04-12T08:24:16Z</time></trkpt><trkpt lat="43.97726242965437" lon="10.19967277848841"><ele>17.0</ele><time>2026-04-12T08:24:17Z</time></trkpt><trkpt lat="43.97737116693343" lon="10.199531978229729"><ele>17.0</ele><time>2026-04-12T08:24:18Z</time></trkpt><trkpt lat="43.97748213054906" lon="10.199391264634391"><ele>17.0</ele><time>2026-04-12T08:24:19Z</time></trkpt><trkpt lat="43.977595013421826" lon="10.19924361310289"><ele>17.0</ele><time>2026-04-12T08:24:20Z</time></trkpt><trkpt lat="43.97770658822252" lon="10.199100189749299"><ele>17.25</ele><time>2026-04-12T08:24:21Z</time></trkpt><trkpt lat="43.977813359782274" lon="10.198961695767506"><ele>17.5</ele><time>2026-04-12T08:24:22Z</time></trkpt><trkpt lat="43.97791681647223" lon="10.198827871491662"><ele>17.75</ele><time>2026-04-12T08:24:23Z</time></trkpt><trkpt lat="43.97802635700816" lon="10.19868844217752"><ele>18.0</ele><time>2026-04-12T08:24:24Z</time></trkpt><trkpt lat="43.97814015096806" lon="10.19854558854932"><ele>18.0</ele><time>2026-04-12T08:24:25Z</time></trkpt><trkpt lat="43.9782579755746" lon="10.198399859804272"><ele>18.0</ele><time>2026-04-12T08:24:26Z</time></trkpt><trkpt lat="43.97837590608596" lon="10.198255670441394"><ele>18.0</ele><time>2026-04-12T08:24:27Z</time></trkpt><trkpt lat="43.97849612980755" lon="10.1981069033308"><ele>18.333333333333332</ele><time>2026-04-12T08:24:28Z</time></trkpt><trkpt lat="43.97861585365328" lon="10.197956673149877"><ele>18.666666666666664</ele><time>2026-04-12T08:24:29Z</time></trkpt><trkpt lat="43.97873544835388" lon="10.19780559027986"><ele>19.0</ele><time>2026-04-12T08:24:30Z</time></trkpt><trkpt lat="43.97885685530573" lon="10.19765160841326"><ele>19.0</ele><time>2026-04-12T08:24:31Z</time></trkpt><trkpt lat="43.97897617030678" lon="10.197499033052463"><ele>19.0</ele><time>2026-04-12T08:24:32Z</time></trkpt><trkpt lat="43.97909374894416" lon="10.197354020733023"><ele>19.0</ele><time>2026-04-12T08:24:33Z</time></trkpt><trkpt lat="43.97921167994755" lon="10.197214575930479"><ele>18.333333333333332</ele><time>2026-04-12T08:24:34Z</time></trkpt><trkpt lat="43.97932519633488" lon="10.197061886192218"><ele>17.666666666666668</ele><time>2026-04-12T08:24:35Z</time></trkpt><trkpt lat="43.97944236168866" lon="10.196914026624905"><ele>17.0</ele><time>2026-04-12T08:24:36.001Z</time></trkpt><trkpt lat="43.979559301765846" lon="10.196760480941965"><ele>17.0</ele><time>2026-04-12T08:24:37.001Z</time></trkpt><trkpt lat="43.979674506886234" lon="10.196609701501071"><ele>17.0</ele><time>2026-04-12T08:24:38.001Z</time></trkpt><trkpt lat="43.97979333346272" lon="10.196456956288626"><ele>17.0</ele><time>2026-04-12T08:24:39.001Z</time></trkpt><trkpt lat="43.97991043444177" lon="10.196301721931569"><ele>16.333333333333336</ele><time>2026-04-12T08:24:40.001Z</time></trkpt><trkpt lat="43.98002795121474" lon="10.196145795019358"><ele>15.666666666666668</ele><time>2026-04-12T08:24:41.001Z</time></trkpt><trkpt lat="43.98014385217343" lon="10.195988096375695"><ele>15.0</ele><time>2026-04-12T08:24:42.001Z</time></trkpt><trkpt lat="43.98026423108381" lon="10.19582873311608"><ele>15.0</ele><time>2026-04-12T08:24:43.001Z</time></trkpt><trkpt lat="43.98038559361598" lon="10.195667460221712"><ele>15.0</ele><time>2026-04-12T08:24:44.001Z</time></trkpt><trkpt lat="43.980511683061096" lon="10.195505144053783"><ele>15.0</ele><time>2026-04-12T08:24:45.001Z</time></trkpt><trkpt lat="43.98063542968488" lon="10.195340820645773"><ele>15.0</ele><time>2026-04-12T08:24:46.001Z</time></trkpt><trkpt lat="43.98076219385228" lon="10.195175049668457"><ele>15.0</ele><time>2026-04-12T08:24:47.001Z</time></trkpt><trkpt lat="43.98088892366347" lon="10.195005272380586"><ele>15.0</ele><time>2026-04-12T08:24:48.001Z</time></trkpt><trkpt lat="43.98101747459292" lon="10.194837366507711"><ele>14.666666666666668</ele><time>2026-04-12T08:24:49.001Z</time></trkpt><trkpt lat="43.98114314934067" lon="10.194670641215035"><ele>14.333333333333334</ele><time>2026-04-12T08:24:50.001Z</time></trkpt><trkpt lat="43.9812644238816" lon="10.19450493204086"><ele>14.0</ele><time>2026-04-12T08:24:51.001Z</time></trkpt><trkpt lat="43.98138752847445" lon="10.19433738144159"><ele>14.0</ele><time>2026-04-12T08:24:52.001Z</time></trkpt><trkpt lat="43.98150790850282" lon="10.194167739213878"><ele>14.0</ele><time>2026-04-12T08:24:53.001Z</time></trkpt><trkpt lat="43.981627191343485" lon="10.194000947407483"><ele>14.0</ele><time>2026-04-12T08:24:54.001Z</time></trkpt><trkpt lat="43.981751025926044" lon="10.193830251163094"><ele>14.333333333333334</ele><time>2026-04-12T08:24:55.001Z</time></trkpt><trkpt lat="43.98187204863783" lon="10.193661934501222"><ele>14.666666666666668</ele><time>2026-04-12T08:24:56.001Z</time></trkpt><trkpt lat="43.98199611354083" lon="10.193491219658824"><ele>15.0</ele><time>2026-04-12T08:24:57.001Z</time></trkpt><trkpt lat="43.98212601677657" lon="10.193313731924333"><ele>14.666666666666668</ele><time>2026-04-12T08:24:58.001Z</time></trkpt><trkpt lat="43.98225538434063" lon="10.193127064087209"><ele>14.333333333333334</ele><time>2026-04-12T08:24:59.001Z</time></trkpt><trkpt lat="43.98238449635089" lon="10.192930721003727"><ele>14.0</ele><time>2026-04-12T08:25:00.001Z</time></trkpt><trkpt lat="43.982521994108396" lon="10.192733029665396"><ele>14.0</ele><time>2026-04-12T08:25:01.001Z</time></trkpt><trkpt lat="43.98266891836408" lon="10.192539461674897"><ele>14.0</ele><time>2026-04-12T08:25:02.001Z</time></trkpt><trkpt lat="43.982815072550196" lon="10.192342860118949"><ele>14.0</ele><time>2026-04-12T08:25:03.001Z</time></trkpt><trkpt lat="43.982957194358" lon="10.192151316514144"><ele>14.0</ele><time>2026-04-12T08:25:04.001Z</time></trkpt><trkpt lat="43.983094372970605" lon="10.19196157923704"><ele>14.0</ele><time>2026-04-12T08:25:05.001Z</time></trkpt><trkpt lat="43.983229494797435" lon="10.191775192100067"><ele>14.0</ele><time>2026-04-12T08:25:06.001Z</time></trkpt><trkpt lat="43.98336519398062" lon="10.191587728544086"><ele>14.0</ele><time>2026-04-12T08:25:07.001Z</time></trkpt><trkpt lat="43.983499407082434" lon="10.191400162982998"><ele>14.0</ele><time>2026-04-12T08:25:08.001Z</time></trkpt><trkpt lat="43.98363238017447" lon="10.191216438949157"><ele>14.0</ele><time>2026-04-12T08:25:09.001Z</time></trkpt><trkpt lat="43.98376573845064" lon="10.191029064179762"><ele>14.0</ele><time>2026-04-12T08:25:10.001Z</time></trkpt><trkpt lat="43.98389603354222" lon="10.190840090003558"><ele>14.0</ele><time>2026-04-12T08:25:11.001Z</time></trkpt><trkpt lat="43.98402950068863" lon="10.190662459822645"><ele>14.0</ele><time>2026-04-12T08:25:12.001Z</time></trkpt><trkpt lat="43.98416231189402" lon="10.19047729631768"><ele>13.666666666666668</ele><time>2026-04-12T08:25:13.001Z</time></trkpt><trkpt lat="43.98429338195956" lon="10.190294940773368"><ele>13.333333333333332</ele><time>2026-04-12T08:25:14.001Z</time></trkpt><trkpt lat="43.98442404806427" lon="10.190110288343924"><ele>13.0</ele><time>2026-04-12T08:25:15.001Z</time></trkpt><trkpt lat="43.98455552030766" lon="10.189927735433338"><ele>13.333333333333332</ele><time>2026-04-12T08:25:16.001Z</time></trkpt><trkpt lat="43.98468260634048" lon="10.189743762440836"><ele>13.666666666666668</ele><time>2026-04-12T08:25:17.001Z</time></trkpt><trkpt lat="43.98481427474478" lon="10.189557440086286"><ele>14.0</ele><time>2026-04-12T08:25:18.001Z</time></trkpt><trkpt lat="43.984944637099815" lon="10.189372719033944"><ele>14.0</ele><time>2026-04-12T08:25:19.001Z</time></trkpt><trkpt lat="43.98507653866006" lon="10.18918591611991"><ele>14.0</ele><time>2026-04-12T08:25:20.001Z</time></trkpt><trkpt lat="43.98521084593681" lon="10.189000244318185"><ele>14.0</ele><time>2026-04-12T08:25:21Z</time></trkpt><trkpt lat="43.98534568933256" lon="10.188811670861496"><ele>13.666666666666668</ele><time>2026-04-12T08:25:22Z</time></trkpt><trkpt lat="43.9854819651147" lon="10.188623043182574"><ele>13.333333333333332</ele><time>2026-04-12T08:25:23Z</time></trkpt><trkpt lat="43.98561598371028" lon="10.188432553192351"><ele>13.0</ele><time>2026-04-12T08:25:24Z</time></trkpt><trkpt lat="43.98574860145165" lon="10.188242280696953"><ele>13.0</ele><time>2026-04-12T08:25:25Z</time></trkpt><trkpt lat="43.985882664818234" lon="10.188051638477567"><ele>13.0</ele><time>2026-04-12T08:25:26Z</time></trkpt><trkpt lat="43.98601848406766" lon="10.187857976327367"><ele>13.0</ele><time>2026-04-12T08:25:27Z</time></trkpt><trkpt lat="43.986156535983305" lon="10.187664850367943"><ele>13.0</ele><time>2026-04-12T08:25:28Z</time></trkpt><trkpt lat="43.986293919450155" lon="10.187469039287686"><ele>13.0</ele><time>2026-04-12T08:25:29Z</time></trkpt><trkpt lat="43.98643184409522" lon="10.187273128118315"><ele>13.0</ele><time>2026-04-12T08:25:30Z</time></trkpt><trkpt lat="43.98657145888651" lon="10.187075989707024"><ele>12.666666666666666</ele><time>2026-04-12T08:25:31Z</time></trkpt><trkpt lat="43.986714617490506" lon="10.186875153391767"><ele>12.333333333333332</ele><time>2026-04-12T08:25:32Z</time></trkpt><trkpt lat="43.98685436544381" lon="10.18667929805378"><ele>12.0</ele><time>2026-04-12T08:25:33Z</time></trkpt><trkpt lat="43.986995641183796" lon="10.186476404762741"><ele>12.0</ele><time>2026-04-12T08:25:34Z</time></trkpt><trkpt lat="43.98713645602865" lon="10.186275945899581"><ele>12.0</ele><time>2026-04-12T08:25:35Z</time></trkpt><trkpt lat="43.9872806374692" lon="10.18607501844129"><ele>12.0</ele><time>2026-04-12T08:25:36Z</time></trkpt><trkpt lat="43.98742328555825" lon="10.185871566152132"><ele>11.0</ele><time>2026-04-12T08:25:37Z</time></trkpt><trkpt lat="43.98756741225333" lon="10.185669981189896"><ele>10.0</ele><time>2026-04-12T08:25:38Z</time></trkpt><trkpt lat="43.98771051539075" lon="10.185468137811664"><ele>9.0</ele><time>2026-04-12T08:25:39Z</time></trkpt><trkpt lat="43.98785179534393" lon="10.185269778204146"><ele>9.0</ele><time>2026-04-12T08:25:40Z</time></trkpt><trkpt lat="43.98799097233468" lon="10.185077052384832"><ele>9.0</ele><time>2026-04-12T08:25:41Z</time></trkpt><trkpt lat="43.9881286223316" lon="10.184882001036998"><ele>9.0</ele><time>2026-04-12T08:25:42Z</time></trkpt><trkpt lat="43.988268862236815" lon="10.184686021623962"><ele>9.0</ele><time>2026-04-12T08:25:43Z</time></trkpt><trkpt lat="43.98840938855967" lon="10.184489720475142"><ele>9.0</ele><time>2026-04-12T08:25:44Z</time></trkpt><trkpt lat="43.9885472364138" lon="10.184293908928964"><ele>9.0</ele><time>2026-04-12T08:25:45Z</time></trkpt><trkpt lat="43.988685733290204" lon="10.184097909911742"><ele>8.333333333333334</ele><time>2026-04-12T08:25:46Z</time></trkpt><trkpt lat="43.988824452861465" lon="10.18390299174428"><ele>7.666666666666667</ele><time>2026-04-12T08:25:47Z</time></trkpt><trkpt lat="43.98896223581528" lon="10.183716537745049"><ele>7.0</ele><time>2026-04-12T08:25:48Z</time></trkpt><trkpt lat="43.989102588532724" lon="10.183535344551103"><ele>7.333333333333334</ele><time>2026-04-12T08:25:49Z</time></trkpt><trkpt lat="43.98924603143912" lon="10.183367612803165"><ele>7.666666666666666</ele><time>2026-04-12T08:25:50Z</time></trkpt><trkpt lat="43.98938731542918" lon="10.183209087591566"><ele>8.0</ele><time>2026-04-12T08:25:51Z</time></trkpt><trkpt lat="43.98952232878261" lon="10.183059439703653"><ele>8.0</ele><time>2026-04-12T08:25:52Z</time></trkpt><trkpt lat="43.98964666827313" lon="10.182903170611977"><ele>8.0</ele><time>2026-04-12T08:25:53Z</time></trkpt><trkpt lat="43.989748774273906" lon="10.182726368063951"><ele>8.0</ele><time>2026-04-12T08:25:54Z</time></trkpt><trkpt lat="43.989832941231256" lon="10.182528764408426"><ele>8.0</ele><time>2026-04-12T08:25:55Z</time></trkpt><trkpt lat="43.98989924070032" lon="10.182322727166463"><ele>8.0</ele><time>2026-04-12T08:25:56Z</time></trkpt><trkpt lat="43.98994804272836" lon="10.182121482745798"><ele>8.0</ele><time>2026-04-12T08:25:57Z</time></trkpt><trkpt lat="43.98999128660175" lon="10.18191493843546"><ele>7.333333333333333</ele><time>2026-04-12T08:25:58Z</time></trkpt><trkpt lat="43.9900445536797" lon="10.18172244463466"><ele>6.666666666666666</ele><time>2026-04-12T08:25:59Z</time></trkpt><trkpt lat="43.99010568512587" lon="10.181529142965806"><ele>6.0</ele><time>2026-04-12T08:26:00Z</time></trkpt><trkpt lat="43.99018022908609" lon="10.18134665437282"><ele>5.333333333333333</ele><time>2026-04-12T08:26:01Z</time></trkpt><trkpt lat="43.99027423504452" lon="10.181182069525294"><ele>4.666666666666666</ele><time>2026-04-12T08:26:02Z</time></trkpt><trkpt lat="43.990385190010386" lon="10.181041704237066"><ele>4.0</ele><time>2026-04-12T08:26:03Z</time></trkpt><trkpt lat="43.99050975508227" lon="10.180926752381964"><ele>4.0</ele><time>2026-04-12T08:26:04Z</time></trkpt><trkpt lat="43.990647524454396" lon="10.180841269852026"><ele>4.0</ele><time>2026-04-12T08:26:05Z</time></trkpt><trkpt lat="43.990799232945584" lon="10.180791305682536"><ele>4.0</ele><time>2026-04-12T08:26:06Z</time></trkpt><trkpt lat="43.990952324165626" lon="10.180775849103236"><ele>4.25</ele><time>2026-04-12T08:26:07Z</time></trkpt><trkpt lat="43.99109498127125" lon="10.180815920689826"><ele>4.5</ele><time>2026-04-12T08:26:08Z</time></trkpt><trkpt lat="43.99122947223396" lon="10.18086330507599"><ele>4.75</ele><time>2026-04-12T08:26:09Z</time></trkpt><trkpt lat="43.99135682418214" lon="10.180897322048887"><ele>5.0</ele><time>2026-04-12T08:26:10Z</time></trkpt><trkpt lat="43.99147109423474" lon="10.180946814270703"><ele>5.0</ele><time>2026-04-12T08:26:11Z</time></trkpt><trkpt lat="43.991567048734105" lon="10.180946574181036"><ele>5.0</ele><time>2026-04-12T08:26:12Z</time></trkpt><trkpt lat="43.99166952264844" lon="10.180903924361106"><ele>5.0</ele><time>2026-04-12T08:26:13Z</time></trkpt><trkpt lat="43.99175746224006" lon="10.180794148846662"><ele>5.0</ele><time>2026-04-12T08:26:14Z</time></trkpt><trkpt lat="43.99184751038517" lon="10.180705528214524"><ele>5.0</ele><time>2026-04-12T08:26:15Z</time></trkpt><trkpt lat="43.99195758966925" lon="10.18063542066225"><ele>5.333333333333334</ele><time>2026-04-12T08:26:16Z</time></trkpt><trkpt lat="43.99208578892067" lon="10.1805405647077"><ele>5.666666666666667</ele><time>2026-04-12T08:26:17Z</time></trkpt><trkpt lat="43.99222569057846" lon="10.180414762221815"><ele>6.0</ele><time>2026-04-12T08:26:18Z</time></trkpt><trkpt lat="43.99236352010475" lon="10.180252444344976"><ele>5.666666666666667</ele><time>2026-04-12T08:26:19Z</time></trkpt><trkpt lat="43.99252496078322" lon="10.180107106082046"><ele>5.333333333333334</ele><time>2026-04-12T08:26:20Z</time></trkpt><trkpt lat="43.99270170421608" lon="10.179963528826939"><ele>5.0</ele><time>2026-04-12T08:26:21Z</time></trkpt><trkpt lat="43.992881173999244" lon="10.179802018691184"><ele>5.0</ele><time>2026-04-12T08:26:22Z</time></trkpt><trkpt lat="43.99306566255369" lon="10.179636826430787"><ele>5.0</ele><time>2026-04-12T08:26:23Z</time></trkpt><trkpt lat="43.99323690187175" lon="10.17946779930251"><ele>5.0</ele><time>2026-04-12T08:26:24Z</time></trkpt><trkpt lat="43.993394137068684" lon="10.179296909606828"><ele>4.666666666666667</ele><time>2026-04-12T08:26:25Z</time></trkpt><trkpt lat="43.99354364118629" lon="10.179127075397805"><ele>4.333333333333333</ele><time>2026-04-12T08:26:26Z</time></trkpt><trkpt lat="43.99368568703418" lon="10.178958190258586"><ele>4.0</ele><time>2026-04-12T08:26:27Z</time></trkpt><trkpt lat="43.9938181078083" lon="10.178781950838049"><ele>4.333333333333333</ele><time>2026-04-12T08:26:28Z</time></trkpt><trkpt lat="43.99394128037112" lon="10.178594043081013"><ele>4.666666666666667</ele><time>2026-04-12T08:26:29Z</time></trkpt><trkpt lat="43.9940550684322" lon="10.178388062271738"><ele>5.0</ele><time>2026-04-12T08:26:30Z</time></trkpt><trkpt lat="43.994167070538296" lon="10.178178487303272"><ele>4.666666666666667</ele><time>2026-04-12T08:26:31Z</time></trkpt><trkpt lat="43.99428386216762" lon="10.17796696715135"><ele>4.333333333333333</ele><time>2026-04-12T08:26:32Z</time></trkpt><trkpt lat="43.99440044853057" lon="10.177756155460429"><ele>4.0</ele><time>2026-04-12T08:26:33Z</time></trkpt><trkpt lat="43.99451776468796" lon="10.177545825642921"><ele>3.6666666666666665</ele><time>2026-04-12T08:26:34Z</time></trkpt><trkpt lat="43.99463368566488" lon="10.17733840590947"><ele>3.333333333333333</ele><time>2026-04-12T08:26:35Z</time></trkpt><trkpt lat="43.99474949533993" lon="10.17712942257735"><ele>3.0</ele><time>2026-04-12T08:26:36Z</time></trkpt><trkpt lat="43.99486650596863" lon="10.176919346168148"><ele>3.0</ele><time>2026-04-12T08:26:37Z</time></trkpt><trkpt lat="43.99498369185353" lon="10.176709742598561"><ele>3.0</ele><time>2026-04-12T08:26:38Z</time></trkpt><trkpt lat="43.99509962637897" lon="10.176502856321726"><ele>3.0</ele><time>2026-04-12T08:26:39Z</time></trkpt><trkpt lat="43.99521387913451" lon="10.17629710861629"><ele>3.666666666666667</ele><time>2026-04-12T08:26:40Z</time></trkpt><trkpt lat="43.995328091323586" lon="10.176092645919114"><ele>4.333333333333334</ele><time>2026-04-12T08:26:41Z</time></trkpt><trkpt lat="43.99544149877171" lon="10.175887273830359"><ele>5.0</ele><time>2026-04-12T08:26:42Z</time></trkpt><trkpt lat="43.99555559663966" lon="10.175684660368699"><ele>5.0</ele><time>2026-04-12T08:26:43.001Z</time></trkpt><trkpt lat="43.99567106087071" lon="10.175482011957394"><ele>5.0</ele><time>2026-04-12T08:26:44.001Z</time></trkpt><trkpt lat="43.995786527535806" lon="10.175277799181009"><ele>5.0</ele><time>2026-04-12T08:26:45.001Z</time></trkpt><trkpt lat="43.99590104758273" lon="10.175071717243064"><ele>3.666666666666667</ele><time>2026-04-12T08:26:46.001Z</time></trkpt><trkpt lat="43.99601333230021" lon="10.174864618638397"><ele>2.3333333333333335</ele><time>2026-04-12T08:26:47.001Z</time></trkpt><trkpt lat="43.9961255262106" lon="10.174654961572445"><ele>1.0</ele><time>2026-04-12T08:26:48.001Z</time></trkpt><trkpt lat="43.996237299372105" lon="10.17444841305584"><ele>1.0</ele><time>2026-04-12T08:26:49.001Z</time></trkpt><trkpt lat="43.99635479382627" lon="10.174236771942104"><ele>1.0</ele><time>2026-04-12T08:26:50.001Z</time></trkpt><trkpt lat="43.99646890584328" lon="10.174033975864491"><ele>1.0</ele><time>2026-04-12T08:26:51.001Z</time></trkpt><trkpt lat="43.99658425733646" lon="10.173827666466554"><ele>7.0</ele><time>2026-04-12T08:26:52.001Z</time></trkpt><trkpt lat="43.99670175005592" lon="10.173625777546318"><ele>13.0</ele><time>2026-04-12T08:26:53.001Z</time></trkpt><trkpt lat="43.99682419331912" lon="10.173426493471847"><ele>19.0</ele><time>2026-04-12T08:26:54.001Z</time></trkpt><trkpt lat="43.9969534502093" lon="10.17323913259349"><ele>14.666666666666666</ele><time>2026-04-12T08:26:55.001Z</time></trkpt><trkpt lat="43.99708728420998" lon="10.173060552532506"><ele>10.333333333333332</ele><time>2026-04-12T08:26:56.001Z</time></trkpt><trkpt lat="43.99722589285346" lon="10.172880431281955"><ele>6.0</ele><time>2026-04-12T08:26:57.001Z</time></trkpt><trkpt lat="43.9973641001858" lon="10.172703773446537"><ele>6.0</ele><time>2026-04-12T08:26:58.001Z</time></trkpt><trkpt lat="43.9975013442083" lon="10.172529426436471"><ele>6.0</ele><time>2026-04-12T08:26:59.001Z</time></trkpt><trkpt lat="43.99763955847292" lon="10.17235643714683"><ele>6.0</ele><time>2026-04-12T08:27:00.001Z</time></trkpt><trkpt lat="43.99777972252983" lon="10.172186767376811"><ele>6.333333333333334</ele><time>2026-04-12T08:27:01.001Z</time></trkpt><trkpt lat="43.9979174057419" lon="10.172017555702206"><ele>6.666666666666667</ele><time>2026-04-12T08:27:02.001Z</time></trkpt><trkpt lat="43.99805269179712" lon="10.171845011336844"><ele>7.0</ele><time>2026-04-12T08:27:03.001Z</time></trkpt><trkpt lat="43.998184328600885" lon="10.171667912125832"><ele>6.666666666666667</ele><time>2026-04-12T08:27:04.001Z</time></trkpt><trkpt lat="43.99831783756041" lon="10.17148753923678"><ele>6.333333333333334</ele><time>2026-04-12T08:27:05.001Z</time></trkpt><trkpt lat="43.99845296131425" lon="10.171308287936084"><ele>6.0</ele><time>2026-04-12T08:27:06.001Z</time></trkpt><trkpt lat="43.99858942025462" lon="10.171125919193537"><ele>6.0</ele><time>2026-04-12T08:27:07.001Z</time></trkpt><trkpt lat="43.99872282836572" lon="10.170937667257306"><ele>6.0</ele><time>2026-04-12T08:27:08.001Z</time></trkpt><trkpt lat="43.99885804680599" lon="10.170751097078728"><ele>6.0</ele><time>2026-04-12T08:27:09.001Z</time></trkpt><trkpt lat="43.9989947949098" lon="10.170559644472828"><ele>6.0</ele><time>2026-04-12T08:27:10.001Z</time></trkpt><trkpt lat="43.99912981124367" lon="10.170370015954555"><ele>6.0</ele><time>2026-04-12T08:27:11.001Z</time></trkpt><trkpt lat="43.999257396758004" lon="10.170187998241442"><ele>6.0</ele><time>2026-04-12T08:27:12.001Z</time></trkpt><trkpt lat="43.99937719617005" lon="10.170015523312806"><ele>6.0</ele><time>2026-04-12T08:27:13.001Z</time></trkpt><trkpt lat="43.999488995376325" lon="10.169857050527062"><ele>6.0</ele><time>2026-04-12T08:27:14.001Z</time></trkpt><trkpt lat="43.9995928861378" lon="10.169712124248484"><ele>6.0</ele><time>2026-04-12T08:27:15.001Z</time></trkpt><trkpt lat="43.99968742214456" lon="10.169576479774667"><ele>6.0</ele><time>2026-04-12T08:27:16.001Z</time></trkpt><trkpt lat="43.99977691165004" lon="10.169452024350328"><ele>6.0</ele><time>2026-04-12T08:27:17.001Z</time></trkpt><trkpt lat="43.99986009777316" lon="10.169346883613798"><ele>6.0</ele><time>2026-04-12T08:27:18.001Z</time></trkpt><trkpt lat="43.999935740356015" lon="10.169266784433615"><ele>6.0</ele><time>2026-04-12T08:27:19.001Z</time></trkpt><trkpt lat="44.00000103298355" lon="10.169213526658845"><ele>6.0</ele><time>2026-04-12T08:27:20.001Z</time></trkpt><trkpt lat="44.000059622517185" lon="10.1691762000065"><ele>6.0</ele><time>2026-04-12T08:27:21.001Z</time></trkpt><trkpt lat="44.00015928243606" lon="10.169121584541431"><ele>5.8</ele><time>2026-04-12T08:27:23.001Z</time></trkpt><trkpt lat="44.000216483148186" lon="10.169011264138277"><ele>5.6</ele><time>2026-04-12T08:27:25.001Z</time></trkpt><trkpt lat="44.00024930179943" lon="10.16883629591077"><ele>5.4</ele><time>2026-04-12T08:27:27Z</time></trkpt><trkpt lat="44.00029001680054" lon="10.168735217391466"><ele>5.2</ele><time>2026-04-12T08:27:28Z</time></trkpt><trkpt lat="44.00034692058711" lon="10.16862970762546"><ele>5.0</ele><time>2026-04-12T08:27:29Z</time></trkpt><trkpt lat="44.00041671287556" lon="10.168516839810536"><ele>5.0</ele><time>2026-04-12T08:27:30Z</time></trkpt><trkpt lat="44.00049483571574" lon="10.16838681782644"><ele>5.0</ele><time>2026-04-12T08:27:31Z</time></trkpt><trkpt lat="44.00060422328222" lon="10.168266659825408"><ele>5.0</ele><time>2026-04-12T08:27:32Z</time></trkpt><trkpt lat="44.00070273226333" lon="10.168103805657188"><ele>5.0</ele><time>2026-04-12T08:27:33Z</time></trkpt><trkpt lat="44.000815742716306" lon="10.16795420161565"><ele>6.333333333333334</ele><time>2026-04-12T08:27:34Z</time></trkpt><trkpt lat="44.000940422444216" lon="10.167793210306662"><ele>7.666666666666667</ele><time>2026-04-12T08:27:35Z</time></trkpt><trkpt lat="44.0010676795905" lon="10.167618629635873"><ele>9.0</ele><time>2026-04-12T08:27:36Z</time></trkpt><trkpt lat="44.001198821515985" lon="10.167432576531018"><ele>9.0</ele><time>2026-04-12T08:27:37Z</time></trkpt><trkpt lat="44.00132857238306" lon="10.167240165318422"><ele>9.0</ele><time>2026-04-12T08:27:38Z</time></trkpt><trkpt lat="44.0014596238006" lon="10.167047304496428"><ele>9.0</ele><time>2026-04-12T08:27:39Z</time></trkpt><trkpt lat="44.001594019358954" lon="10.166862778269989"><ele>9.333333333333334</ele><time>2026-04-12T08:27:40Z</time></trkpt><trkpt lat="44.001729826328365" lon="10.166680148325089"><ele>9.666666666666668</ele><time>2026-04-12T08:27:41Z</time></trkpt><trkpt lat="44.001865958202174" lon="10.16649755254676"><ele>10.0</ele><time>2026-04-12T08:27:42Z</time></trkpt><trkpt lat="44.00200684561832" lon="10.166312116815215"><ele>10.0</ele><time>2026-04-12T08:27:43Z</time></trkpt><trkpt lat="44.0021480582932" lon="10.166126251834084"><ele>10.0</ele><time>2026-04-12T08:27:44Z</time></trkpt><trkpt lat="44.0022895983437" lon="10.165937043181353"><ele>10.0</ele><time>2026-04-12T08:27:45Z</time></trkpt><trkpt lat="44.00242822205095" lon="10.165746532991337"><ele>11.0</ele><time>2026-04-12T08:27:46Z</time></trkpt><trkpt lat="44.002567771941116" lon="10.165554806999578"><ele>12.0</ele><time>2026-04-12T08:27:47Z</time></trkpt><trkpt lat="44.00270747822001" lon="10.165358856210842"><ele>13.0</ele><time>2026-04-12T08:27:48Z</time></trkpt><trkpt lat="44.00284906291496" lon="10.16516568587486"><ele>13.0</ele><time>2026-04-12T08:27:49Z</time></trkpt><trkpt lat="44.002993199516766" lon="10.164972892174344"><ele>13.0</ele><time>2026-04-12T08:27:50Z</time></trkpt><trkpt lat="44.00313847755886" lon="10.164778273992964"><ele>13.0</ele><time>2026-04-12T08:27:51Z</time></trkpt><trkpt lat="44.00328317871122" lon="10.164585376202309"><ele>13.333333333333332</ele><time>2026-04-12T08:27:52Z</time></trkpt><trkpt lat="44.00342952898584" lon="10.164388761159408"><ele>13.666666666666668</ele><time>2026-04-12T08:27:53Z</time></trkpt><trkpt lat="44.00357311088002" lon="10.164196015804313"><ele>14.0</ele><time>2026-04-12T08:27:54Z</time></trkpt><trkpt lat="44.003716501101394" lon="10.163999571370303"><ele>14.0</ele><time>2026-04-12T08:27:55Z</time></trkpt><trkpt lat="44.003859726983514" lon="10.163802367711572"><ele>14.0</ele><time>2026-04-12T08:27:56Z</time></trkpt><trkpt lat="44.004002321047516" lon="10.163609161289365"><ele>14.0</ele><time>2026-04-12T08:27:57Z</time></trkpt><trkpt lat="44.004145857443135" lon="10.163415093947163"><ele>14.666666666666668</ele><time>2026-04-12T08:27:58Z</time></trkpt><trkpt lat="44.00428928834114" lon="10.163221912642365"><ele>15.333333333333332</ele><time>2026-04-12T08:27:59Z</time></trkpt><trkpt lat="44.00443020794413" lon="10.163027009888209"><ele>16.0</ele><time>2026-04-12T08:28:00Z</time></trkpt><trkpt lat="44.00456959386212" lon="10.162835360398027"><ele>16.0</ele><time>2026-04-12T08:28:01Z</time></trkpt><trkpt lat="44.004704218256514" lon="10.162653637161974"><ele>16.0</ele><time>2026-04-12T08:28:02Z</time></trkpt><trkpt lat="44.0048348713718" lon="10.162476979820998"><ele>16.0</ele><time>2026-04-12T08:28:03Z</time></trkpt><trkpt lat="44.004959362919784" lon="10.162313438495552"><ele>16.666666666666664</ele><time>2026-04-12T08:28:04Z</time></trkpt><trkpt lat="44.00507878540995" lon="10.162160577514873"><ele>17.333333333333332</ele><time>2026-04-12T08:28:05Z</time></trkpt><trkpt lat="44.005199551830515" lon="10.162012271932005"><ele>18.0</ele><time>2026-04-12T08:28:06Z</time></trkpt><trkpt lat="44.0053189818056" lon="10.161879313309244"><ele>18.0</ele><time>2026-04-12T08:28:07Z</time></trkpt><trkpt lat="44.0054423899748" lon="10.161763865582888"><ele>18.0</ele><time>2026-04-12T08:28:08Z</time></trkpt><trkpt lat="44.00557011149548" lon="10.161654129515961"><ele>18.0</ele><time>2026-04-12T08:28:09Z</time></trkpt><trkpt lat="44.00570577690551" lon="10.161563319378867"><ele>18.0</ele><time>2026-04-12T08:28:10Z</time></trkpt><trkpt lat="44.005848480806016" lon="10.161480970466677"><ele>19.0</ele><time>2026-04-12T08:28:11Z</time></trkpt><trkpt lat="44.005993859741906" lon="10.161411133224151"><ele>20.0</ele><time>2026-04-12T08:28:12Z</time></trkpt><trkpt lat="44.00614403540756" lon="10.161337565571376"><ele>21.0</ele><time>2026-04-12T08:28:13Z</time></trkpt><trkpt lat="44.00628077515376" lon="10.161269414227059"><ele>21.0</ele><time>2026-04-12T08:28:14Z</time></trkpt><trkpt lat="44.00640549891854" lon="10.161207076206555"><ele>21.0</ele><time>2026-04-12T08:28:15Z</time></trkpt><trkpt lat="44.006533444363605" lon="10.161142762768915"><ele>21.0</ele><time>2026-04-12T08:28:16Z</time></trkpt><trkpt lat="44.00666098188073" lon="10.16107737689049"><ele>21.0</ele><time>2026-04-12T08:28:17Z</time></trkpt><trkpt lat="44.00678721437554" lon="10.161013690663768"><ele>21.5</ele><time>2026-04-12T08:28:18Z</time></trkpt><trkpt lat="44.00691101993816" lon="10.160952886374051"><ele>22.0</ele><time>2026-04-12T08:28:19Z</time></trkpt><trkpt lat="44.00703718201663" lon="10.160887874142357"><ele>22.5</ele><time>2026-04-12T08:28:20Z</time></trkpt><trkpt lat="44.00716209637375" lon="10.160819417359422"><ele>23.0</ele><time>2026-04-12T08:28:21Z</time></trkpt><trkpt lat="44.00728135779749" lon="10.160761919577048"><ele>23.0</ele><time>2026-04-12T08:28:22Z</time></trkpt><trkpt lat="44.00738682162249" lon="10.160713938388954"><ele>23.0</ele><time>2026-04-12T08:28:23Z</time></trkpt><trkpt lat="44.007483718147796" lon="10.160668034755538"><ele>23.0</ele><time>2026-04-12T08:28:24Z</time></trkpt><trkpt lat="44.00757078143471" lon="10.160617329438557"><ele>23.0</ele><time>2026-04-12T08:28:25Z</time></trkpt><trkpt lat="44.00765522976511" lon="10.160566732455534"><ele>23.0</ele><time>2026-04-12T08:28:26Z</time></trkpt><trkpt lat="44.007736587380904" lon="10.160524220841666"><ele>23.599999999999998</ele><time>2026-04-12T08:28:27Z</time></trkpt><trkpt lat="44.007807196168535" lon="10.16049329899016"><ele>24.2</ele><time>2026-04-12T08:28:28Z</time></trkpt><trkpt lat="44.00790236862937" lon="10.160458551146672"><ele>24.8</ele><time>2026-04-12T08:28:30Z</time></trkpt><trkpt lat="44.0079738177318" lon="10.16042682699659"><ele>25.4</ele><time>2026-04-12T08:28:32Z</time></trkpt><trkpt lat="44.00810204730922" lon="10.160355391801325"><ele>26.0</ele><time>2026-04-12T08:28:34Z</time></trkpt><trkpt lat="44.008180613208594" lon="10.160308683552278"><ele>25.999999999999996</ele><time>2026-04-12T08:28:35Z</time></trkpt><trkpt lat="44.008260337007385" lon="10.160291316886724"><ele>26.0</ele><time>2026-04-12T08:28:36Z</time></trkpt><trkpt lat="44.00833616455632" lon="10.160280523794524"><ele>26.0</ele><time>2026-04-12T08:28:37Z</time></trkpt><trkpt lat="44.008405209794795" lon="10.160244810560648"><ele>26.0</ele><time>2026-04-12T08:28:38Z</time></trkpt><trkpt lat="44.008481783838974" lon="10.160171333402245"><ele>25.999999999999996</ele><time>2026-04-12T08:28:39Z</time></trkpt><trkpt lat="44.00857046242838" lon="10.160098098608296"><ele>26.0</ele><time>2026-04-12T08:28:40Z</time></trkpt><trkpt lat="44.00867985027096" lon="10.160037967040592"><ele>26.0</ele><time>2026-04-12T08:28:41Z</time></trkpt><trkpt lat="44.008800403797444" lon="10.15997932199702"><ele>26.0</ele><time>2026-04-12T08:28:42Z</time></trkpt><trkpt lat="44.00892113082338" lon="10.159918538887965"><ele>26.0</ele><time>2026-04-12T08:28:43Z</time></trkpt><trkpt lat="44.00904513828162" lon="10.159850978776738"><ele>26.0</ele><time>2026-04-12T08:28:44Z</time></trkpt><trkpt lat="44.009177787738885" lon="10.159780808926357"><ele>27.0</ele><time>2026-04-12T08:28:45Z</time></trkpt><trkpt lat="44.00931950846729" lon="10.159712082341407"><ele>28.0</ele><time>2026-04-12T08:28:46Z</time></trkpt><trkpt lat="44.00946342049943" lon="10.15963933171757"><ele>29.0</ele><time>2026-04-12T08:28:47Z</time></trkpt><trkpt lat="44.0096131516001" lon="10.159562832675114"><ele>29.0</ele><time>2026-04-12T08:28:48Z</time></trkpt><trkpt lat="44.00975740272594" lon="10.159484714510052"><ele>29.0</ele><time>2026-04-12T08:28:49Z</time></trkpt><trkpt lat="44.0098961064365" lon="10.15941069787188"><ele>29.0</ele><time>2026-04-12T08:28:50Z</time></trkpt><trkpt lat="44.010038827373" lon="10.159334656311579"><ele>30.0</ele><time>2026-04-12T08:28:51Z</time></trkpt><trkpt lat="44.01018464947339" lon="10.159253988563572"><ele>31.0</ele><time>2026-04-12T08:28:52Z</time></trkpt><trkpt lat="44.010333541954445" lon="10.159176001396867"><ele>32.0</ele><time>2026-04-12T08:28:53Z</time></trkpt><trkpt lat="44.01048443756534" lon="10.15910039557245"><ele>31.666666666666664</ele><time>2026-04-12T08:28:54.001Z</time></trkpt><trkpt lat="44.01063937762703" lon="10.159019856548305"><ele>31.333333333333336</ele><time>2026-04-12T08:28:55.001Z</time></trkpt><trkpt lat="44.01079434738204" lon="10.158942145784826"><ele>31.0</ele><time>2026-04-12T08:28:56.001Z</time></trkpt><trkpt lat="44.01094728990679" lon="10.158864274544905"><ele>32.0</ele><time>2026-04-12T08:28:57.001Z</time></trkpt><trkpt lat="44.01109449375683" lon="10.158784575507108"><ele>33.0</ele><time>2026-04-12T08:28:58.001Z</time></trkpt><trkpt lat="44.011238458294414" lon="10.15870703478989"><ele>34.0</ele><time>2026-04-12T08:28:59.001Z</time></trkpt><trkpt lat="44.01137559841019" lon="10.158637673334967"><ele>34.0</ele><time>2026-04-12T08:29:00.001Z</time></trkpt><trkpt lat="44.01150365210419" lon="10.158567594425206"><ele>34.0</ele><time>2026-04-12T08:29:01.001Z</time></trkpt><trkpt lat="44.01161138508557" lon="10.15851089018277"><ele>34.0</ele><time>2026-04-12T08:29:02.001Z</time></trkpt><trkpt lat="44.01170390630643" lon="10.158464507889812"><ele>34.0</ele><time>2026-04-12T08:29:03.001Z</time></trkpt><trkpt lat="44.01178771085165" lon="10.15842311653741"><ele>34.0</ele><time>2026-04-12T08:29:04.001Z</time></trkpt><trkpt lat="44.011854955257625" lon="10.158389629645642"><ele>34.16666666666667</ele><time>2026-04-12T08:29:05.001Z</time></trkpt><trkpt lat="44.01192064431427" lon="10.158361050376698"><ele>34.333333333333336</ele><time>2026-04-12T08:29:06.001Z</time></trkpt><trkpt lat="44.011984974216944" lon="10.158322005218563"><ele>34.5</ele><time>2026-04-12T08:29:07.001Z</time></trkpt><trkpt lat="44.012063373262855" lon="10.158279706233008"><ele>34.666666666666664</ele><time>2026-04-12T08:29:08.001Z</time></trkpt><trkpt lat="44.01215458755294" lon="10.158228628636156"><ele>34.83333333333333</ele><time>2026-04-12T08:29:09.001Z</time></trkpt><trkpt lat="44.012255836512225" lon="10.15817362612141"><ele>35.0</ele><time>2026-04-12T08:29:10.001Z</time></trkpt><trkpt lat="44.0123686501464" lon="10.158118544352932"><ele>34.5</ele><time>2026-04-12T08:29:11.001Z</time></trkpt><trkpt lat="44.0124874761078" lon="10.15806094061198"><ele>34.0</ele><time>2026-04-12T08:29:12.001Z</time></trkpt><trkpt lat="44.01260336902903" lon="10.158001930331896"><ele>33.5</ele><time>2026-04-12T08:29:13.001Z</time></trkpt><trkpt lat="44.01272596024265" lon="10.157939556499631"><ele>33.0</ele><time>2026-04-12T08:29:14.001Z</time></trkpt><trkpt lat="44.01284999170083" lon="10.157876027084795"><ele>33.0</ele><time>2026-04-12T08:29:15.001Z</time></trkpt><trkpt lat="44.012977267203254" lon="10.157805121923612"><ele>33.0</ele><time>2026-04-12T08:29:16.001Z</time></trkpt><trkpt lat="44.013114381515294" lon="10.157735131561488"><ele>33.0</ele><time>2026-04-12T08:29:17.001Z</time></trkpt><trkpt lat="44.01325398713512" lon="10.157667066928472"><ele>33.0</ele><time>2026-04-12T08:29:18.001Z</time></trkpt><trkpt lat="44.01338568110225" lon="10.15760335925698"><ele>33.25</ele><time>2026-04-12T08:29:19.001Z</time></trkpt><trkpt lat="44.01351609649504" lon="10.157536036856706"><ele>33.5</ele><time>2026-04-12T08:29:20.001Z</time></trkpt><trkpt lat="44.013643752042995" lon="10.157470458517071"><ele>33.75</ele><time>2026-04-12T08:29:21.001Z</time></trkpt><trkpt lat="44.01377727162657" lon="10.157401958003053"><ele>34.0</ele><time>2026-04-12T08:29:22.001Z</time></trkpt><trkpt lat="44.01390540772231" lon="10.157338020924595"><ele>33.75</ele><time>2026-04-12T08:29:23.001Z</time></trkpt><trkpt lat="44.01403119714411" lon="10.157267968671153"><ele>33.5</ele><time>2026-04-12T08:29:24.001Z</time></trkpt><trkpt lat="44.01416178668973" lon="10.157199993622175"><ele>33.25</ele><time>2026-04-12T08:29:25.001Z</time></trkpt><trkpt lat="44.01429017763433" lon="10.157130133795782"><ele>33.0</ele><time>2026-04-12T08:29:26.001Z</time></trkpt><trkpt lat="44.01442253375659" lon="10.157060789299816"><ele>33.0</ele><time>2026-04-12T08:29:27.001Z</time></trkpt><trkpt lat="44.01455761989637" lon="10.15698880983561"><ele>33.0</ele><time>2026-04-12T08:29:28.001Z</time></trkpt><trkpt lat="44.01468770599538" lon="10.156914728427251"><ele>33.0</ele><time>2026-04-12T08:29:29.001Z</time></trkpt><trkpt lat="44.01482331522449" lon="10.15684438923147"><ele>33.0</ele><time>2026-04-12T08:29:30.001Z</time></trkpt><trkpt lat="44.014955969134384" lon="10.156776451298851"><ele>32.75</ele><time>2026-04-12T08:29:31.001Z</time></trkpt><trkpt lat="44.01508738447046" lon="10.15670908516781"><ele>32.5</ele><time>2026-04-12T08:29:32.001Z</time></trkpt><trkpt lat="44.01522354783539" lon="10.156641445675671"><ele>32.25</ele><time>2026-04-12T08:29:33Z</time></trkpt><trkpt lat="44.01535985442103" lon="10.156575524145756"><ele>32.0</ele><time>2026-04-12T08:29:34Z</time></trkpt><trkpt lat="44.01549704663191" lon="10.156508376285675"><ele>32.0</ele><time>2026-04-12T08:29:35Z</time></trkpt><trkpt lat="44.01562518053" lon="10.15644030431074"><ele>32.0</ele><time>2026-04-12T08:29:36Z</time></trkpt><trkpt lat="44.015748158075795" lon="10.156372270310346"><ele>32.0</ele><time>2026-04-12T08:29:37Z</time></trkpt><trkpt lat="44.0158772254168" lon="10.156309973527165"><ele>32.0</ele><time>2026-04-12T08:29:38Z</time></trkpt><trkpt lat="44.01600795238782" lon="10.156248160842964"><ele>32.5</ele><time>2026-04-12T08:29:39Z</time></trkpt><trkpt lat="44.016143769860136" lon="10.156185982298785"><ele>33.0</ele><time>2026-04-12T08:29:40Z</time></trkpt><trkpt lat="44.016281041286256" lon="10.156128160649505"><ele>33.5</ele><time>2026-04-12T08:29:41Z</time></trkpt><trkpt lat="44.016423397951854" lon="10.15606839810315"><ele>34.0</ele><time>2026-04-12T08:29:42Z</time></trkpt><trkpt lat="44.01656264833336" lon="10.156012589755969"><ele>34.5</ele><time>2026-04-12T08:29:43Z</time></trkpt><trkpt lat="44.01669134120777" lon="10.155962932216312"><ele>35.0</ele><time>2026-04-12T08:29:44Z</time></trkpt><trkpt lat="44.01681485731603" lon="10.15591563986639"><ele>35.5</ele><time>2026-04-12T08:29:45Z</time></trkpt><trkpt lat="44.01693785124198" lon="10.155866746147215"><ele>36.0</ele><time>2026-04-12T08:29:46Z</time></trkpt><trkpt lat="44.0170624288303" lon="10.155822075924377"><ele>36.0</ele><time>2026-04-12T08:29:47Z</time></trkpt><trkpt lat="44.017186592695346" lon="10.155767879884953"><ele>36.0</ele><time>2026-04-12T08:29:48Z</time></trkpt><trkpt lat="44.017313984960076" lon="10.155706196861836"><ele>36.0</ele><time>2026-04-12T08:29:49Z</time></trkpt><trkpt lat="44.01743941568863" lon="10.155634292142615"><ele>36.0</ele><time>2026-04-12T08:29:50Z</time></trkpt><trkpt lat="44.01755814427499" lon="10.155538949210053"><ele>37.25</ele><time>2026-04-12T08:29:51Z</time></trkpt><trkpt lat="44.01767385418087" lon="10.155427850241026"><ele>38.5</ele><time>2026-04-12T08:29:52Z</time></trkpt><trkpt lat="44.017779870237966" lon="10.155297566046388"><ele>39.75</ele><time>2026-04-12T08:29:53Z</time></trkpt><trkpt lat="44.01787192554171" lon="10.155144225950282"><ele>41.0</ele><time>2026-04-12T08:29:54Z</time></trkpt><trkpt lat="44.01794931271803" lon="10.154977393364094"><ele>40.25</ele><time>2026-04-12T08:29:55Z</time></trkpt><trkpt lat="44.01801562518949" lon="10.154798854953473"><ele>39.5</ele><time>2026-04-12T08:29:56Z</time></trkpt><trkpt lat="44.01806823683958" lon="10.154609427301894"><ele>38.75</ele><time>2026-04-12T08:29:57Z</time></trkpt><trkpt lat="44.01811183510151" lon="10.154413056096812"><ele>38.0</ele><time>2026-04-12T08:29:58Z</time></trkpt><trkpt lat="44.0181505937203" lon="10.154212743823333"><ele>37.0</ele><time>2026-04-12T08:29:59Z</time></trkpt><trkpt lat="44.01818830663762" lon="10.154012008350607"><ele>36.0</ele><time>2026-04-12T08:30:00Z</time></trkpt><trkpt lat="44.01823205502367" lon="10.153812662751422"><ele>35.0</ele><time>2026-04-12T08:30:01Z</time></trkpt><trkpt lat="44.01827764223891" lon="10.153610948397116"><ele>39.0</ele><time>2026-04-12T08:30:02Z</time></trkpt><trkpt lat="44.0183250343953" lon="10.153404145987164"><ele>43.0</ele><time>2026-04-12T08:30:03Z</time></trkpt><trkpt lat="44.018371316437964" lon="10.153194457724249"><ele>47.0</ele><time>2026-04-12T08:30:04Z</time></trkpt><trkpt lat="44.0184164552308" lon="10.152982315538312"><ele>47.0</ele><time>2026-04-12T08:30:05Z</time></trkpt><trkpt lat="44.01845893276742" lon="10.15276485224841"><ele>47.0</ele><time>2026-04-12T08:30:06Z</time></trkpt><trkpt lat="44.01849933765106" lon="10.152551680861226"><ele>47.0</ele><time>2026-04-12T08:30:07Z</time></trkpt><trkpt lat="44.018545026815524" lon="10.152335465641574"><ele>47.666666666666664</ele><time>2026-04-12T08:30:08Z</time></trkpt><trkpt lat="44.01859487683893" lon="10.15212293443989"><ele>48.33333333333333</ele><time>2026-04-12T08:30:09Z</time></trkpt><trkpt lat="44.018644004877686" lon="10.151920139967872"><ele>49.0</ele><time>2026-04-12T08:30:10Z</time></trkpt><trkpt lat="44.018698885078265" lon="10.151730099836092"><ele>49.0</ele><time>2026-04-12T08:30:11Z</time></trkpt><trkpt lat="44.01875997825507" lon="10.151549252294913"><ele>49.0</ele><time>2026-04-12T08:30:12Z</time></trkpt><trkpt lat="44.01883576216661" lon="10.15137730361556"><ele>49.0</ele><time>2026-04-12T08:30:13Z</time></trkpt><trkpt lat="44.01893146002723" lon="10.151218583443178"><ele>49.0</ele><time>2026-04-12T08:30:14Z</time></trkpt><trkpt lat="44.01903693611337" lon="10.151079926015697"><ele>48.33333333333333</ele><time>2026-04-12T08:30:15Z</time></trkpt><trkpt lat="44.01914493326996" lon="10.150940577443919"><ele>47.666666666666664</ele><time>2026-04-12T08:30:16Z</time></trkpt><trkpt lat="44.019258264303005" lon="10.15079391908643"><ele>47.0</ele><time>2026-04-12T08:30:17Z</time></trkpt><trkpt lat="44.01938412855858" lon="10.150656315161495"><ele>46.33333333333333</ele><time>2026-04-12T08:30:18Z</time></trkpt><trkpt lat="44.019516650445425" lon="10.150541381895746"><ele>45.666666666666664</ele><time>2026-04-12T08:30:19Z</time></trkpt><trkpt lat="44.019641253873296" lon="10.150429318467369"><ele>45.0</ele><time>2026-04-12T08:30:20Z</time></trkpt><trkpt lat="44.01976635926231" lon="10.150310628790576"><ele>45.0</ele><time>2026-04-12T08:30:21Z</time></trkpt><trkpt lat="44.01988655220937" lon="10.150201122482718"><ele>45.0</ele><time>2026-04-12T08:30:22Z</time></trkpt><trkpt lat="44.020004352742056" lon="10.150088696098553"><ele>45.0</ele><time>2026-04-12T08:30:23Z</time></trkpt><trkpt lat="44.020126359068534" lon="10.149975049248305"><ele>45.0</ele><time>2026-04-12T08:30:24Z</time></trkpt><trkpt lat="44.020247278058356" lon="10.149863608972163"><ele>45.5</ele><time>2026-04-12T08:30:25Z</time></trkpt><trkpt lat="44.02036743768018" lon="10.149758181191173"><ele>46.0</ele><time>2026-04-12T08:30:26Z</time></trkpt><trkpt lat="44.020491391310166" lon="10.14965010670255"><ele>46.5</ele><time>2026-04-12T08:30:27Z</time></trkpt><trkpt lat="44.02061131312064" lon="10.149545370969422"><ele>47.0</ele><time>2026-04-12T08:30:28Z</time></trkpt><trkpt lat="44.02073249026659" lon="10.149439301439784"><ele>46.5</ele><time>2026-04-12T08:30:29Z</time></trkpt><trkpt lat="44.02085403652531" lon="10.149336882196126"><ele>46.0</ele><time>2026-04-12T08:30:30Z</time></trkpt><trkpt lat="44.02096690921992" lon="10.149234445707553"><ele>45.5</ele><time>2026-04-12T08:30:31Z</time></trkpt><trkpt lat="44.021082574279355" lon="10.14913311569124"><ele>45.0</ele><time>2026-04-12T08:30:32Z</time></trkpt><trkpt lat="44.02119480628834" lon="10.149026184009383"><ele>45.0</ele><time>2026-04-12T08:30:33Z</time></trkpt><trkpt lat="44.021304976385274" lon="10.148918178251645"><ele>45.0</ele><time>2026-04-12T08:30:34Z</time></trkpt><trkpt lat="44.021410621269474" lon="10.148803519793754"><ele>45.0</ele><time>2026-04-12T08:30:35Z</time></trkpt><trkpt lat="44.02151230253625" lon="10.14868291624296"><ele>45.0</ele><time>2026-04-12T08:30:36Z</time></trkpt><trkpt lat="44.021610945640205" lon="10.148567142211359"><ele>44.75</ele><time>2026-04-12T08:30:37Z</time></trkpt><trkpt lat="44.02171056475244" lon="10.14845510672705"><ele>44.5</ele><time>2026-04-12T08:30:38Z</time></trkpt><trkpt lat="44.021807908319595" lon="10.148345483577046"><ele>44.25</ele><time>2026-04-12T08:30:39Z</time></trkpt><trkpt lat="44.021904483544475" lon="10.148240441681788"><ele>44.0</ele><time>2026-04-12T08:30:40Z</time></trkpt><trkpt lat="44.02199619997587" lon="10.14813974539494"><ele>44.0</ele><time>2026-04-12T08:30:41Z</time></trkpt><trkpt lat="44.02209522838603" lon="10.148037467889822"><ele>44.0</ele><time>2026-04-12T08:30:42Z</time></trkpt><trkpt lat="44.02219356668256" lon="10.147931554034212"><ele>44.0</ele><time>2026-04-12T08:30:43Z</time></trkpt><trkpt lat="44.02229991282735" lon="10.14782441538346"><ele>44.0</ele><time>2026-04-12T08:30:44Z</time></trkpt><trkpt lat="44.02240146121877" lon="10.14771664349059"><ele>44.2</ele><time>2026-04-12T08:30:45Z</time></trkpt><trkpt lat="44.02249546976884" lon="10.147613942217557"><ele>44.400000000000006</ele><time>2026-04-12T08:30:46Z</time></trkpt><trkpt lat="44.02257977092544" lon="10.147522255890234"><ele>44.6</ele><time>2026-04-12T08:30:47Z</time></trkpt><trkpt lat="44.02265823001601" lon="10.147443219495997"><ele>44.8</ele><time>2026-04-12T08:30:48Z</time></trkpt><trkpt lat="44.02272915110352" lon="10.14737034150245"><ele>45.0</ele><time>2026-04-12T08:30:49Z</time></trkpt><trkpt lat="44.02279749921062" lon="10.147320015394936"><ele>44.5</ele><time>2026-04-12T08:30:50Z</time></trkpt><trkpt lat="44.02286424576888" lon="10.14726896165474"><ele>44.0</ele><time>2026-04-12T08:30:51Z</time></trkpt><trkpt lat="44.02294373709882" lon="10.147212484057185"><ele>43.5</ele><time>2026-04-12T08:30:53Z</time></trkpt><trkpt lat="44.02301205869465" lon="10.147158286177778"><ele>43.0</ele><time>2026-04-12T08:30:56Z</time></trkpt><trkpt lat="44.02310916934024" lon="10.147089935854515"><ele>42.5</ele><time>2026-04-12T08:30:58Z</time></trkpt><trkpt lat="44.02315022231228" lon="10.147019572337722"><ele>42.0</ele><time>2026-04-12T08:30:59.001Z</time></trkpt><trkpt lat="44.02320461789646" lon="10.146964616937423"><ele>42.0</ele><time>2026-04-12T08:31:00.001Z</time></trkpt><trkpt lat="44.02327529340029" lon="10.146923690139225"><ele>42.0</ele><time>2026-04-12T08:31:01.001Z</time></trkpt><trkpt lat="44.0233334610258" lon="10.146867081557359"><ele>42.0</ele><time>2026-04-12T08:31:02.001Z</time></trkpt><trkpt lat="44.02339418075578" lon="10.146807989086799"><ele>42.0</ele><time>2026-04-12T08:31:03.001Z</time></trkpt><trkpt lat="44.023460303951715" lon="10.14674363793142"><ele>42.0</ele><time>2026-04-12T08:31:04.001Z</time></trkpt><trkpt lat="44.02353104804396" lon="10.146674789932982"><ele>42.0</ele><time>2026-04-12T08:31:05.001Z</time></trkpt><trkpt lat="44.02359864573635" lon="10.146586687996262"><ele>41.6</ele><time>2026-04-12T08:31:06.001Z</time></trkpt><trkpt lat="44.0236820526832" lon="10.14652080160459"><ele>41.2</ele><time>2026-04-12T08:31:07.001Z</time></trkpt><trkpt lat="44.02376521154436" lon="10.146456476854159"><ele>40.8</ele><time>2026-04-12T08:31:08.001Z</time></trkpt><trkpt lat="44.02385131364776" lon="10.14639703856365"><ele>40.4</ele><time>2026-04-12T08:31:09.001Z</time></trkpt><trkpt lat="44.023942706189025" lon="10.146340845299147"><ele>40.0</ele><time>2026-04-12T08:31:10.001Z</time></trkpt><trkpt lat="44.02403973418067" lon="10.146286692038206"><ele>40.0</ele><time>2026-04-12T08:31:11.001Z</time></trkpt><trkpt lat="44.02414461438544" lon="10.146235439914737"><ele>40.0</ele><time>2026-04-12T08:31:12.001Z</time></trkpt><trkpt lat="44.02425500648626" lon="10.1461848224345"><ele>40.0</ele><time>2026-04-12T08:31:13.001Z</time></trkpt><trkpt lat="44.024368078198705" lon="10.146137872222154"><ele>40.0</ele><time>2026-04-12T08:31:14.001Z</time></trkpt><trkpt lat="44.02447045409767" lon="10.146094989080717"><ele>40.5</ele><time>2026-04-12T08:31:15.001Z</time></trkpt><trkpt lat="44.02455449730089" lon="10.14603606525349"><ele>41.0</ele><time>2026-04-12T08:31:16.001Z</time></trkpt><trkpt lat="44.02462711057533" lon="10.145981433590128"><ele>41.5</ele><time>2026-04-12T08:31:17.001Z</time></trkpt><trkpt lat="44.02468516828689" lon="10.145928939498416"><ele>42.0</ele><time>2026-04-12T08:31:18.001Z</time></trkpt><trkpt lat="44.02473975957658" lon="10.14584692237308"><ele>42.5</ele><time>2026-04-12T08:31:20.001Z</time></trkpt><trkpt lat="44.024820708699316" lon="10.145783232167403"><ele>43.0</ele><time>2026-04-12T08:31:22.001Z</time></trkpt><trkpt lat="44.02488079027441" lon="10.14571540423243"><ele>43.0</ele><time>2026-04-12T08:31:24.001Z</time></trkpt><trkpt lat="44.024946127902815" lon="10.145626298263258"><ele>43.0</ele><time>2026-04-12T08:31:38.001Z</time></trkpt><trkpt lat="44.024999475770365" lon="10.145571130239965"><ele>43.0</ele><time>2026-04-12T08:31:39Z</time></trkpt><trkpt lat="44.02506613687544" lon="10.145494856653775"><ele>43.0</ele><time>2026-04-12T08:31:40Z</time></trkpt><trkpt lat="44.025136710836286" lon="10.145416617589259"><ele>43.0</ele><time>2026-04-12T08:31:41Z</time></trkpt><trkpt lat="44.02521480088245" lon="10.145367983534308"><ele>43.0</ele><time>2026-04-12T08:31:42Z</time></trkpt><trkpt lat="44.02526919510294" lon="10.14531711484731"><ele>43.0</ele><time>2026-04-12T08:31:43Z</time></trkpt><trkpt lat="44.02531682049809" lon="10.145253514239922"><ele>43.0</ele><time>2026-04-12T08:31:45Z</time></trkpt><trkpt lat="44.02522345183005" lon="10.145060805899725"><ele>43.0</ele><time>2026-04-12T08:31:46Z</time></trkpt><trkpt lat="44.02515723985476" lon="10.144985366075687"><ele>43.0</ele><time>2026-04-12T08:31:47Z</time></trkpt><trkpt lat="44.02508414916431" lon="10.144901184778195"><ele>43.0</ele><time>2026-04-12T08:31:48Z</time></trkpt><trkpt lat="44.02500038399926" lon="10.144805040286997"><ele>42.25</ele><time>2026-04-12T08:31:49Z</time></trkpt><trkpt lat="44.024911158632314" lon="10.144689765632961"><ele>41.5</ele><time>2026-04-12T08:31:50Z</time></trkpt><trkpt lat="44.02482517386979" lon="10.144580947836664"><ele>40.75</ele><time>2026-04-12T08:31:51Z</time></trkpt><trkpt lat="44.02473572429456" lon="10.144476932649"><ele>40.0</ele><time>2026-04-12T08:31:52Z</time></trkpt><trkpt lat="44.024641227192554" lon="10.144368633371885"><ele>40.0</ele><time>2026-04-12T08:31:53Z</time></trkpt><trkpt lat="44.02454526025652" lon="10.144261538015945"><ele>40.0</ele><time>2026-04-12T08:31:54Z</time></trkpt><trkpt lat="44.024447685536074" lon="10.144149454458548"><ele>40.0</ele><time>2026-04-12T08:31:55Z</time></trkpt><trkpt lat="44.0243526930777" lon="10.144034892380537"><ele>40.0</ele><time>2026-04-12T08:31:56Z</time></trkpt><trkpt lat="44.02426495824996" lon="10.143920575404366"><ele>39.6</ele><time>2026-04-12T08:31:57Z</time></trkpt><trkpt lat="44.024188720865645" lon="10.143814361867928"><ele>39.2</ele><time>2026-04-12T08:31:58Z</time></trkpt><trkpt lat="44.02411262279345" lon="10.143708697367442"><ele>38.8</ele><time>2026-04-12T08:31:59Z</time></trkpt><trkpt lat="44.02403742841027" lon="10.143601414558036"><ele>38.4</ele><time>2026-04-12T08:32:00Z</time></trkpt><trkpt lat="44.02396185831899" lon="10.143492898251317"><ele>38.0</ele><time>2026-04-12T08:32:01Z</time></trkpt><trkpt lat="44.02389703131923" lon="10.143388857252685"><ele>37.5</ele><time>2026-04-12T08:32:02Z</time></trkpt><trkpt lat="44.02383882655947" lon="10.143292587087245"><ele>37.0</ele><time>2026-04-12T08:32:03Z</time></trkpt><trkpt lat="44.02377858411357" lon="10.143201189912832"><ele>36.5</ele><time>2026-04-12T08:32:04Z</time></trkpt><trkpt lat="44.02372196482004" lon="10.14311565841872"><ele>36.0</ele><time>2026-04-12T08:32:05Z</time></trkpt><trkpt lat="44.02366895277072" lon="10.14303136037823"><ele>35.5</ele><time>2026-04-12T08:32:06Z</time></trkpt><trkpt lat="44.02361216508145" lon="10.142948361842253"><ele>35.0</ele><time>2026-04-12T08:32:07Z</time></trkpt><trkpt lat="44.023555694545486" lon="10.142860521391666"><ele>34.666666666666664</ele><time>2026-04-12T08:32:08Z</time></trkpt><trkpt lat="44.023498600120774" lon="10.142766613108739"><ele>34.33333333333333</ele><time>2026-04-12T08:32:09Z</time></trkpt><trkpt lat="44.02344074578277" lon="10.142674912153103"><ele>34.0</ele><time>2026-04-12T08:32:10Z</time></trkpt><trkpt lat="44.023387811933425" lon="10.14259487360854"><ele>33.666666666666664</ele><time>2026-04-12T08:32:11Z</time></trkpt><trkpt lat="44.02334355033117" lon="10.142523523672592"><ele>33.333333333333336</ele><time>2026-04-12T08:32:12Z</time></trkpt><trkpt lat="44.023303280451714" lon="10.142454600772766"><ele>33.0</ele><time>2026-04-12T08:32:13Z</time></trkpt><trkpt lat="44.02322348979255" lon="10.142312245308007"><ele>32.333333333333336</ele><time>2026-04-12T08:32:15Z</time></trkpt><trkpt lat="44.023175205825616" lon="10.14221994551806"><ele>31.666666666666664</ele><time>2026-04-12T08:32:16Z</time></trkpt><trkpt lat="44.02312638816356" lon="10.142124910262948"><ele>31.0</ele><time>2026-04-12T08:32:17Z</time></trkpt><trkpt lat="44.023074635798345" lon="10.142030524863518"><ele>30.333333333333332</ele><time>2026-04-12T08:32:18Z</time></trkpt><trkpt lat="44.02301776987649" lon="10.141932025882051"><ele>29.666666666666664</ele><time>2026-04-12T08:32:19Z</time></trkpt><trkpt lat="44.022953482786804" lon="10.141833801675622"><ele>29.0</ele><time>2026-04-12T08:32:20Z</time></trkpt><trkpt lat="44.02287956000689" lon="10.141730736117186"><ele>29.0</ele><time>2026-04-12T08:32:21Z</time></trkpt><trkpt lat="44.02279236324338" lon="10.141615723479594"><ele>29.0</ele><time>2026-04-12T08:32:22Z</time></trkpt><trkpt lat="44.02269549484338" lon="10.141478964325787"><ele>29.0</ele><time>2026-04-12T08:32:23Z</time></trkpt><trkpt lat="44.02260221480234" lon="10.141311594881408"><ele>29.0</ele><time>2026-04-12T08:32:24Z</time></trkpt><trkpt lat="44.022492600154244" lon="10.141162771749231"><ele>28.75</ele><time>2026-04-12T08:32:25Z</time></trkpt><trkpt lat="44.022392033655564" lon="10.14102703932806"><ele>28.5</ele><time>2026-04-12T08:32:26Z</time></trkpt><trkpt lat="44.022309146706974" lon="10.140889934820526"><ele>28.25</ele><time>2026-04-12T08:32:27Z</time></trkpt><trkpt lat="44.02222761003834" lon="10.140768314779827"><ele>28.0</ele><time>2026-04-12T08:32:28Z</time></trkpt><trkpt lat="44.02215480328437" lon="10.1406657600533"><ele>27.799999999999997</ele><time>2026-04-12T08:32:29Z</time></trkpt><trkpt lat="44.022095313026874" lon="10.140583262278392"><ele>27.599999999999998</ele><time>2026-04-12T08:32:30Z</time></trkpt><trkpt lat="44.02202293933293" lon="10.14045359047219"><ele>27.400000000000002</ele><time>2026-04-12T08:32:32Z</time></trkpt><trkpt lat="44.02197172298757" lon="10.140312041843918"><ele>27.200000000000003</ele><time>2026-04-12T08:32:34Z</time></trkpt><trkpt lat="44.02193825124926" lon="10.140227579270128"><ele>27.0</ele><time>2026-04-12T08:32:36Z</time></trkpt><trkpt lat="44.02179143059465" lon="10.140335737940417"><ele>27.0</ele><time>2026-04-12T08:32:38Z</time></trkpt><trkpt lat="44.021730054681804" lon="10.14040797321412"><ele>27.000000000000004</ele><time>2026-04-12T08:32:39Z</time></trkpt><trkpt lat="44.02166060151801" lon="10.140491592672056"><ele>27.000000000000004</ele><time>2026-04-12T08:32:40Z</time></trkpt><trkpt lat="44.02158638382427" lon="10.140557522069571"><ele>27.0</ele><time>2026-04-12T08:32:41Z</time></trkpt><trkpt lat="44.021496914298474" lon="10.140602837788691"><ele>27.0</ele><time>2026-04-12T08:32:42Z</time></trkpt><trkpt lat="44.02139829374352" lon="10.140615162155418"><ele>26.8</ele><time>2026-04-12T08:32:43Z</time></trkpt><trkpt lat="44.021297947432146" lon="10.140605602939106"><ele>26.6</ele><time>2026-04-12T08:32:44Z</time></trkpt><trkpt lat="44.02119428015724" lon="10.140571231523477"><ele>26.400000000000002</ele><time>2026-04-12T08:32:45Z</time></trkpt><trkpt lat="44.021096748430985" lon="10.140510934271404"><ele>26.200000000000003</ele><time>2026-04-12T08:32:46Z</time></trkpt><trkpt lat="44.021003077875946" lon="10.14041449057245"><ele>26.0</ele><time>2026-04-12T08:32:47Z</time></trkpt><trkpt lat="44.02091046016138" lon="10.14029108082566"><ele>26.0</ele><time>2026-04-12T08:32:48Z</time></trkpt><trkpt lat="44.020823514091255" lon="10.140155935879521"><ele>26.0</ele><time>2026-04-12T08:32:49Z</time></trkpt><trkpt lat="44.020743309243485" lon="10.140038505036015"><ele>26.0</ele><time>2026-04-12T08:32:50Z</time></trkpt><trkpt lat="44.0206665239835" lon="10.139930087618538"><ele>26.0</ele><time>2026-04-12T08:32:51Z</time></trkpt><trkpt lat="44.02059840639147" lon="10.139861275255326"><ele>26.0</ele><time>2026-04-12T08:32:52Z</time></trkpt><trkpt lat="44.020538728321846" lon="10.13977394746266"><ele>25.499999999999996</ele><time>2026-04-12T08:32:53Z</time></trkpt><trkpt lat="44.020501851559374" lon="10.139689098506926"><ele>25.0</ele><time>2026-04-12T08:32:54Z</time></trkpt><trkpt lat="44.02048596700642" lon="10.139590579105638"><ele>24.5</ele><time>2026-04-12T08:32:55Z</time></trkpt><trkpt lat="44.020483628555766" lon="10.13945373486306"><ele>24.0</ele><time>2026-04-12T08:32:57Z</time></trkpt><trkpt lat="44.02048571209385" lon="10.139362093754004"><ele>23.5</ele><time>2026-04-12T08:33:00.001Z</time></trkpt><trkpt lat="44.02037640707453" lon="10.139383411443836"><ele>23.0</ele><time>2026-04-12T08:33:02.001Z</time></trkpt><trkpt lat="44.02038129435438" lon="10.139626855703314"><ele>23.0</ele><time>2026-04-12T08:33:15.001Z</time></trkpt><trkpt lat="44.02044726784021" lon="10.1397089465414"><ele>23.0</ele><time>2026-04-12T08:33:16.001Z</time></trkpt><trkpt lat="44.020514862747284" lon="10.139800077386637"><ele>23.0</ele><time>2026-04-12T08:33:17.001Z</time></trkpt><trkpt lat="44.02058622368994" lon="10.139896956769775"><ele>23.0</ele><time>2026-04-12T08:33:18.001Z</time></trkpt><trkpt lat="44.02066499026676" lon="10.140004841483705"><ele>23.0</ele><time>2026-04-12T08:33:19.001Z</time></trkpt><trkpt lat="44.02074937521384" lon="10.140122859068144"><ele>23.75</ele><time>2026-04-12T08:33:20.001Z</time></trkpt><trkpt lat="44.02082453912831" lon="10.140228004868982"><ele>24.5</ele><time>2026-04-12T08:33:21.001Z</time></trkpt><trkpt lat="44.02089846260441" lon="10.140339752506621"><ele>25.25</ele><time>2026-04-12T08:33:22.001Z</time></trkpt><trkpt lat="44.02099589463259" lon="10.1404608188391"><ele>26.0</ele><time>2026-04-12T08:33:23.001Z</time></trkpt><trkpt lat="44.02111665547619" lon="10.140593740753925"><ele>26.0</ele><time>2026-04-12T08:33:24.001Z</time></trkpt><trkpt lat="44.02124251828493" lon="10.14066813092661"><ele>26.0</ele><time>2026-04-12T08:33:25.001Z</time></trkpt><trkpt lat="44.02137594387514" lon="10.140683223001881"><ele>26.0</ele><time>2026-04-12T08:33:26.001Z</time></trkpt><trkpt lat="44.021508065210995" lon="10.140651971037576"><ele>26.0</ele><time>2026-04-12T08:33:27.001Z</time></trkpt><trkpt lat="44.021612450482316" lon="10.140586130278487"><ele>26.25</ele><time>2026-04-12T08:33:28.001Z</time></trkpt><trkpt lat="44.021696995006316" lon="10.140508287147332"><ele>26.5</ele><time>2026-04-12T08:33:29.001Z</time></trkpt><trkpt lat="44.02190074708656" lon="10.140424408115436"><ele>26.75</ele><time>2026-04-12T08:33:32.001Z</time></trkpt><trkpt lat="44.021999127852766" lon="10.140331037244904"><ele>27.0</ele><time>2026-04-12T08:33:34.001Z</time></trkpt><trkpt lat="44.022015223159755" lon="10.140223748728065"><ele>27.0</ele><time>2026-04-12T08:33:35.001Z</time></trkpt><trkpt lat="44.02203480660036" lon="10.140105100994992"><ele>27.0</ele><time>2026-04-12T08:33:36.001Z</time></trkpt><trkpt lat="44.02206977887365" lon="10.139981123262741"><ele>27.0</ele><time>2026-04-12T08:33:37.001Z</time></trkpt><trkpt lat="44.02218788164603" lon="10.13988422762412"><ele>27.0</ele><time>2026-04-12T08:33:38.001Z</time></trkpt><trkpt lat="44.02229010269331" lon="10.139774149310838"><ele>27.0</ele><time>2026-04-12T08:33:39.001Z</time></trkpt><trkpt lat="44.02240129923644" lon="10.139655783887722"><ele>27.0</ele><time>2026-04-12T08:33:40.001Z</time></trkpt><trkpt lat="44.02251383121467" lon="10.139524790595068"><ele>27.0</ele><time>2026-04-12T08:33:41.001Z</time></trkpt><trkpt lat="44.02262999850119" lon="10.13938277786726"><ele>27.0</ele><time>2026-04-12T08:33:42.001Z</time></trkpt><trkpt lat="44.02274648703787" lon="10.1392406282167"><ele>27.666666666666664</ele><time>2026-04-12T08:33:43.001Z</time></trkpt><trkpt lat="44.02286148468777" lon="10.139100423419563"><ele>28.333333333333332</ele><time>2026-04-12T08:33:44.001Z</time></trkpt><trkpt lat="44.0229755157267" lon="10.138962563051036"><ele>29.0</ele><time>2026-04-12T08:33:45Z</time></trkpt><trkpt lat="44.02309748166249" lon="10.138818021936595"><ele>29.0</ele><time>2026-04-12T08:33:46Z</time></trkpt><trkpt lat="44.02320788321409" lon="10.138680593734412"><ele>29.0</ele><time>2026-04-12T08:33:47Z</time></trkpt><trkpt lat="44.02330779690761" lon="10.138561514824637"><ele>29.0</ele><time>2026-04-12T08:33:48Z</time></trkpt><trkpt lat="44.0234016260544" lon="10.138454107308554"><ele>29.0</ele><time>2026-04-12T08:33:49Z</time></trkpt><trkpt lat="44.02348804592807" lon="10.138344015809297"><ele>29.2</ele><time>2026-04-12T08:33:50Z</time></trkpt><trkpt lat="44.02357675888048" lon="10.138241674439945"><ele>29.4</ele><time>2026-04-12T08:33:51Z</time></trkpt><trkpt lat="44.02366154175693" lon="10.138142176155318"><ele>29.6</ele><time>2026-04-12T08:33:52Z</time></trkpt><trkpt lat="44.02374430119158" lon="10.138032592212783"><ele>29.8</ele><time>2026-04-12T08:33:53Z</time></trkpt><trkpt lat="44.02382356398219" lon="10.137929436511246"><ele>30.0</ele><time>2026-04-12T08:33:54Z</time></trkpt><trkpt lat="44.02389998647091" lon="10.137825402050275"><ele>30.2</ele><time>2026-04-12T08:33:55Z</time></trkpt><trkpt lat="44.02396925047441" lon="10.137726286184163"><ele>30.4</ele><time>2026-04-12T08:33:56Z</time></trkpt><trkpt lat="44.02403474618937" lon="10.137628421790296"><ele>30.6</ele><time>2026-04-12T08:33:57Z</time></trkpt><trkpt lat="44.02409740975117" lon="10.13753947871328"><ele>30.8</ele><time>2026-04-12T08:33:58Z</time></trkpt><trkpt lat="44.02415679905081" lon="10.137453337574573"><ele>31.0</ele><time>2026-04-12T08:33:59Z</time></trkpt><trkpt lat="44.02421373681984" lon="10.137373969351264"><ele>31.166666666666668</ele><time>2026-04-12T08:34:00Z</time></trkpt><trkpt lat="44.0242657337834" lon="10.137289647600268"><ele>31.333333333333336</ele><time>2026-04-12T08:34:01Z</time></trkpt><trkpt lat="44.02431994493283" lon="10.137197703196852"><ele>31.5</ele><time>2026-04-12T08:34:02Z</time></trkpt><trkpt lat="44.02437409495113" lon="10.13710669296283"><ele>31.666666666666664</ele><time>2026-04-12T08:34:03Z</time></trkpt><trkpt lat="44.024430644701326" lon="10.137016100932708"><ele>31.833333333333332</ele><time>2026-04-12T08:34:04Z</time></trkpt><trkpt lat="44.02448960291225" lon="10.136923474080726"><ele>32.0</ele><time>2026-04-12T08:34:05Z</time></trkpt><trkpt lat="44.02454809816948" lon="10.136832930822283"><ele>31.999999999999996</ele><time>2026-04-12T08:34:06Z</time></trkpt><trkpt lat="44.024597989924466" lon="10.136751736023571"><ele>32.0</ele><time>2026-04-12T08:34:07Z</time></trkpt><trkpt lat="44.02464626836266" lon="10.136683565061393"><ele>32.0</ele><time>2026-04-12T08:34:08Z</time></trkpt><trkpt lat="44.02470008445861" lon="10.13661581061362"><ele>32.0</ele><time>2026-04-12T08:34:09Z</time></trkpt><trkpt lat="44.024763689039624" lon="10.13654129555396"><ele>31.999999999999996</ele><time>2026-04-12T08:34:10Z</time></trkpt><trkpt lat="44.02481970619632" lon="10.136444064430478"><ele>32.0</ele><time>2026-04-12T08:34:11Z</time></trkpt><trkpt lat="44.02486071382715" lon="10.13632914264342"><ele>31.6</ele><time>2026-04-12T08:34:12Z</time></trkpt><trkpt lat="44.02489019470817" lon="10.136215821892238"><ele>31.200000000000003</ele><time>2026-04-12T08:34:13Z</time></trkpt><trkpt lat="44.02491120115337" lon="10.136099111119124"><ele>30.8</ele><time>2026-04-12T08:34:14Z</time></trkpt><trkpt lat="44.0249930607775" lon="10.136016938372698"><ele>30.4</ele><time>2026-04-12T08:34:15Z</time></trkpt><trkpt lat="44.02505961726124" lon="10.135914848944449"><ele>30.0</ele><time>2026-04-12T08:34:16Z</time></trkpt><trkpt lat="44.02512921515881" lon="10.135807482926756"><ele>29.8</ele><time>2026-04-12T08:34:17Z</time></trkpt><trkpt lat="44.02520006333432" lon="10.135700156097835"><ele>29.6</ele><time>2026-04-12T08:34:18Z</time></trkpt><trkpt lat="44.02526757867788" lon="10.135599101333888"><ele>29.4</ele><time>2026-04-12T08:34:19Z</time></trkpt><trkpt lat="44.025333414741624" lon="10.135501480983631"><ele>29.2</ele><time>2026-04-12T08:34:20Z</time></trkpt><trkpt lat="44.025397105885524" lon="10.13540573326065"><ele>29.0</ele><time>2026-04-12T08:34:21Z</time></trkpt><trkpt lat="44.02545893274829" lon="10.135311788832087"><ele>28.999999999999996</ele><time>2026-04-12T08:34:22Z</time></trkpt><trkpt lat="44.02552175773188" lon="10.13521876027961"><ele>29.0</ele><time>2026-04-12T08:34:23Z</time></trkpt><trkpt lat="44.02558526243076" lon="10.135125606921717"><ele>29.0</ele><time>2026-04-12T08:34:24Z</time></trkpt><trkpt lat="44.0256441946339" lon="10.135041410710452"><ele>29.0</ele><time>2026-04-12T08:34:25Z</time></trkpt><trkpt lat="44.025700946286875" lon="10.134960260618152"><ele>28.999999999999996</ele><time>2026-04-12T08:34:26Z</time></trkpt><trkpt lat="44.02575920387788" lon="10.134870898504614"><ele>29.0</ele><time>2026-04-12T08:34:27Z</time></trkpt><trkpt lat="44.025820290872495" lon="10.134777848618143"><ele>30.2</ele><time>2026-04-12T08:34:28Z</time></trkpt><trkpt lat="44.02588239949229" lon="10.134682043602334"><ele>31.4</ele><time>2026-04-12T08:34:29Z</time></trkpt><trkpt lat="44.025946676579224" lon="10.134582112032817"><ele>32.6</ele><time>2026-04-12T08:34:30Z</time></trkpt><trkpt lat="44.02600924957062" lon="10.13448561226023"><ele>33.8</ele><time>2026-04-12T08:34:31Z</time></trkpt><trkpt lat="44.02606860083247" lon="10.134393927356196"><ele>35.0</ele><time>2026-04-12T08:34:32Z</time></trkpt><trkpt lat="44.02612879125578" lon="10.134309632971659"><ele>35.0</ele><time>2026-04-12T08:34:33Z</time></trkpt><trkpt lat="44.02618396473654" lon="10.134227343589036"><ele>35.0</ele><time>2026-04-12T08:34:34Z</time></trkpt><trkpt lat="44.02623746677146" lon="10.134149292805242"><ele>35.0</ele><time>2026-04-12T08:34:35Z</time></trkpt><trkpt lat="44.02629007201216" lon="10.134070788988023"><ele>35.0</ele><time>2026-04-12T08:34:36Z</time></trkpt><trkpt lat="44.02633901328213" lon="10.133994641335196"><ele>35.0</ele><time>2026-04-12T08:34:37Z</time></trkpt><trkpt lat="44.026388806396014" lon="10.133920746535162"><ele>35.0</ele><time>2026-04-12T08:34:38Z</time></trkpt><trkpt lat="44.02644353872597" lon="10.133841958130581"><ele>35.166666666666664</ele><time>2026-04-12T08:34:39Z</time></trkpt><trkpt lat="44.026502209087894" lon="10.1337577158121"><ele>35.33333333333333</ele><time>2026-04-12T08:34:40Z</time></trkpt><trkpt lat="44.02656121336386" lon="10.13367081834257"><ele>35.5</ele><time>2026-04-12T08:34:41Z</time></trkpt><trkpt lat="44.02662335149937" lon="10.133581963247261"><ele>35.666666666666664</ele><time>2026-04-12T08:34:42Z</time></trkpt><trkpt lat="44.026687871057895" lon="10.133487548809951"><ele>35.833333333333336</ele><time>2026-04-12T08:34:43Z</time></trkpt><trkpt lat="44.026750154216245" lon="10.13339186043616"><ele>36.0</ele><time>2026-04-12T08:34:44Z</time></trkpt><trkpt lat="44.02681335052102" lon="10.133297152046337"><ele>35.666666666666664</ele><time>2026-04-12T08:34:45Z</time></trkpt><trkpt lat="44.026875188907475" lon="10.133205921146494"><ele>35.333333333333336</ele><time>2026-04-12T08:34:46Z</time></trkpt><trkpt lat="44.02693555157714" lon="10.133117249129112"><ele>35.0</ele><time>2026-04-12T08:34:47Z</time></trkpt><trkpt lat="44.026993494782886" lon="10.133030182618326"><ele>34.66666666666667</ele><time>2026-04-12T08:34:48Z</time></trkpt><trkpt lat="44.02705160557198" lon="10.132945789822497"><ele>34.333333333333336</ele><time>2026-04-12T08:34:49Z</time></trkpt><trkpt lat="44.02711484502568" lon="10.132858654350999"><ele>34.0</ele><time>2026-04-12T08:34:50Z</time></trkpt><trkpt lat="44.027183037838626" lon="10.132767908930367"><ele>34.0</ele><time>2026-04-12T08:34:51Z</time></trkpt><trkpt lat="44.027254605351864" lon="10.132671336378431"><ele>34.0</ele><time>2026-04-12T08:34:52Z</time></trkpt><trkpt lat="44.02732156804143" lon="10.132578697268801"><ele>34.0</ele><time>2026-04-12T08:34:53Z</time></trkpt><trkpt lat="44.02738736017501" lon="10.132487216933258"><ele>34.0</ele><time>2026-04-12T08:34:54Z</time></trkpt><trkpt lat="44.027451220253745" lon="10.132402907157326"><ele>34.0</ele><time>2026-04-12T08:34:55Z</time></trkpt><trkpt lat="44.027514620092724" lon="10.132324968212416"><ele>34.2</ele><time>2026-04-12T08:34:56Z</time></trkpt><trkpt lat="44.027573508732985" lon="10.132254514937737"><ele>34.4</ele><time>2026-04-12T08:34:57Z</time></trkpt><trkpt lat="44.02762861458741" lon="10.132190888344729"><ele>34.6</ele><time>2026-04-12T08:34:58Z</time></trkpt><trkpt lat="44.02767661948591" lon="10.132133280405382"><ele>34.8</ele><time>2026-04-12T08:34:59Z</time></trkpt><trkpt lat="44.027749347947555" lon="10.132050302681439"><ele>35.0</ele><time>2026-04-12T08:35:01Z</time></trkpt><trkpt lat="44.027901978945465" lon="10.131927028813063"><ele>35.0</ele><time>2026-04-12T08:35:04.001Z</time></trkpt><trkpt lat="44.027960409288845" lon="10.131822325578202"><ele>35.0</ele><time>2026-04-12T08:35:06.001Z</time></trkpt><trkpt lat="44.02798971725525" lon="10.13169122361582"><ele>35.0</ele><time>2026-04-12T08:35:08.001Z</time></trkpt><trkpt lat="44.02799819109497" lon="10.13153807943805"><ele>35.0</ele><time>2026-04-12T08:35:10.001Z</time></trkpt><trkpt lat="44.028096699262896" lon="10.131474635950125"><ele>35.0</ele><time>2026-04-12T08:35:11.001Z</time></trkpt><trkpt lat="44.028210220213914" lon="10.131333975854645"><ele>34.83333333333333</ele><time>2026-04-12T08:35:13.001Z</time></trkpt><trkpt lat="44.02827058476859" lon="10.131260035549174"><ele>34.666666666666664</ele><time>2026-04-12T08:35:14.001Z</time></trkpt><trkpt lat="44.02832952438351" lon="10.131178268082804"><ele>34.5</ele><time>2026-04-12T08:35:15.001Z</time></trkpt><trkpt lat="44.02839118395867" lon="10.13109191851377"><ele>34.333333333333336</ele><time>2026-04-12T08:35:16.001Z</time></trkpt><trkpt lat="44.02845347936296" lon="10.131007988993012"><ele>34.16666666666667</ele><time>2026-04-12T08:35:17.001Z</time></trkpt><trkpt lat="44.02851418264296" lon="10.130923937640267"><ele>34.0</ele><time>2026-04-12T08:35:18.001Z</time></trkpt><trkpt lat="44.02857191702273" lon="10.130840199295902"><ele>34.16666666666667</ele><time>2026-04-12T08:35:19.001Z</time></trkpt><trkpt lat="44.028630315272636" lon="10.130756419539228"><ele>34.333333333333336</ele><time>2026-04-12T08:35:20.001Z</time></trkpt><trkpt lat="44.02868779215489" lon="10.130675578285858"><ele>34.5</ele><time>2026-04-12T08:35:21.001Z</time></trkpt><trkpt lat="44.02874509990717" lon="10.130599121995933"><ele>34.666666666666664</ele><time>2026-04-12T08:35:22.001Z</time></trkpt><trkpt lat="44.02879555732329" lon="10.130529013049758"><ele>34.83333333333333</ele><time>2026-04-12T08:35:23.001Z</time></trkpt><trkpt lat="44.028827118341354" lon="10.130452861229244"><ele>35.0</ele><time>2026-04-12T08:35:24.001Z</time></trkpt><trkpt lat="44.02890909573807" lon="10.130344308523895"><ele>35.0</ele><time>2026-04-12T08:35:26.001Z</time></trkpt><trkpt lat="44.02897618020903" lon="10.130274141412137"><ele>35.0</ele><time>2026-04-12T08:35:28.001Z</time></trkpt><trkpt lat="44.02908675617273" lon="10.130206654524404"><ele>35.0</ele><time>2026-04-12T08:35:30.001Z</time></trkpt><trkpt lat="44.02908288139351" lon="10.130109199841574"><ele>35.0</ele><time>2026-04-12T08:35:31.001Z</time></trkpt><trkpt lat="44.0291787125989" lon="10.130011619551686"><ele>35.0</ele><time>2026-04-12T08:35:32.001Z</time></trkpt><trkpt lat="44.02923885368664" lon="10.129909405285895"><ele>35.6</ele><time>2026-04-12T08:35:33.001Z</time></trkpt><trkpt lat="44.02930939197648" lon="10.129817985505605"><ele>36.2</ele><time>2026-04-12T08:35:34.001Z</time></trkpt><trkpt lat="44.029376734133585" lon="10.129704663210777"><ele>36.8</ele><time>2026-04-12T08:35:35.001Z</time></trkpt><trkpt lat="44.029457793488895" lon="10.12959433658216"><ele>37.4</ele><time>2026-04-12T08:35:36.001Z</time></trkpt><trkpt lat="44.02954217644911" lon="10.129486203632805"><ele>38.0</ele><time>2026-04-12T08:35:37.001Z</time></trkpt><trkpt lat="44.02962721253153" lon="10.129381440303712"><ele>38.0</ele><time>2026-04-12T08:35:38.001Z</time></trkpt><trkpt lat="44.02970688333691" lon="10.129277249737406"><ele>38.0</ele><time>2026-04-12T08:35:39.001Z</time></trkpt><trkpt lat="44.029785195059944" lon="10.129171993579082"><ele>38.0</ele><time>2026-04-12T08:35:40.001Z</time></trkpt><trkpt lat="44.0298662609441" lon="10.129067405283743"><ele>38.0</ele><time>2026-04-12T08:35:41.001Z</time></trkpt><trkpt lat="44.02995387730026" lon="10.128956261231838"><ele>38.0</ele><time>2026-04-12T08:35:42.001Z</time></trkpt><trkpt lat="44.03003498222964" lon="10.128845765001659"><ele>37.199999999999996</ele><time>2026-04-12T08:35:43.001Z</time></trkpt><trkpt lat="44.03011547225719" lon="10.128742000600846"><ele>36.4</ele><time>2026-04-12T08:35:44.001Z</time></trkpt><trkpt lat="44.030194377259114" lon="10.128636137188668"><ele>35.599999999999994</ele><time>2026-04-12T08:35:45.001Z</time></trkpt><trkpt lat="44.030269137680556" lon="10.128538102115284"><ele>34.8</ele><time>2026-04-12T08:35:46.001Z</time></trkpt><trkpt lat="44.030342186596926" lon="10.128440686189018"><ele>34.0</ele><time>2026-04-12T08:35:47.001Z</time></trkpt><trkpt lat="44.030410668868285" lon="10.128346771183454"><ele>34.0</ele><time>2026-04-12T08:35:48.001Z</time></trkpt><trkpt lat="44.03047410149044" lon="10.128263363260853"><ele>34.0</ele><time>2026-04-12T08:35:49.001Z</time></trkpt><trkpt lat="44.0305324378997" lon="10.128189543356765"><ele>34.0</ele><time>2026-04-12T08:35:50.001Z</time></trkpt><trkpt lat="44.030592671112345" lon="10.1281405728282"><ele>34.0</ele><time>2026-04-12T08:35:51Z</time></trkpt><trkpt lat="44.03066002445295" lon="10.128121709579903"><ele>34.0</ele><time>2026-04-12T08:35:52Z</time></trkpt><trkpt lat="44.03073680764684" lon="10.128125333937568"><ele>34.0</ele><time>2026-04-12T08:35:53Z</time></trkpt><trkpt lat="44.03081277141645" lon="10.12815450673422"><ele>34.0</ele><time>2026-04-12T08:35:54Z</time></trkpt><trkpt lat="44.030889507289565" lon="10.128192315747189"><ele>34.0</ele><time>2026-04-12T08:35:55Z</time></trkpt><trkpt lat="44.0309673076706" lon="10.128217006299787"><ele>34.0</ele><time>2026-04-12T08:35:56Z</time></trkpt><trkpt lat="44.03103322384861" lon="10.12822499557515"><ele>34.0</ele><time>2026-04-12T08:35:57Z</time></trkpt><trkpt lat="44.03113274703802" lon="10.128172699273307"><ele>34.0</ele><time>2026-04-12T08:35:59Z</time></trkpt><trkpt lat="44.03116836242449" lon="10.128004931224948"><ele>34.0</ele><time>2026-04-12T08:36:01Z</time></trkpt><trkpt lat="44.03114458503359" lon="10.127896632437174"><ele>34.0</ele><time>2026-04-12T08:36:02Z</time></trkpt><trkpt lat="44.031108374984356" lon="10.127792056382926"><ele>34.0</ele><time>2026-04-12T08:36:03Z</time></trkpt><trkpt lat="44.031058016476294" lon="10.127703134823557"><ele>34.0</ele><time>2026-04-12T08:36:04Z</time></trkpt><trkpt lat="44.031023642229215" lon="10.127610055157193"><ele>34.0</ele><time>2026-04-12T08:36:05Z</time></trkpt><trkpt lat="44.031126975391714" lon="10.127389744151339"><ele>33.0</ele><time>2026-04-12T08:36:07Z</time></trkpt><trkpt lat="44.03118337713461" lon="10.127315308460313"><ele>32.0</ele><time>2026-04-12T08:36:08Z</time></trkpt><trkpt lat="44.03125270672615" lon="10.12724078606324"><ele>31.0</ele><time>2026-04-12T08:36:09Z</time></trkpt><trkpt lat="44.03132518757421" lon="10.127147961505397"><ele>30.0</ele><time>2026-04-12T08:36:10Z</time></trkpt><trkpt lat="44.03139511459166" lon="10.127037555017962"><ele>29.0</ele><time>2026-04-12T08:36:11Z</time></trkpt><trkpt lat="44.0314714725334" lon="10.126914366038882"><ele>29.0</ele><time>2026-04-12T08:36:12Z</time></trkpt><trkpt lat="44.03154573459972" lon="10.126797663128599"><ele>29.0</ele><time>2026-04-12T08:36:13Z</time></trkpt><trkpt lat="44.03162184317541" lon="10.126679927425327"><ele>29.0</ele><time>2026-04-12T08:36:14Z</time></trkpt><trkpt lat="44.03170434235431" lon="10.126562042244585"><ele>29.0</ele><time>2026-04-12T08:36:15Z</time></trkpt><trkpt lat="44.03178806664251" lon="10.12643796758121"><ele>29.0</ele><time>2026-04-12T08:36:16Z</time></trkpt><trkpt lat="44.03187582146344" lon="10.126306335286621"><ele>29.0</ele><time>2026-04-12T08:36:17Z</time></trkpt><trkpt lat="44.03196636973321" lon="10.126158769364757"><ele>29.0</ele><time>2026-04-12T08:36:18Z</time></trkpt><trkpt lat="44.03205039571275" lon="10.12602033399557"><ele>29.0</ele><time>2026-04-12T08:36:19Z</time></trkpt><trkpt lat="44.03212855361155" lon="10.12587632703309"><ele>28.0</ele><time>2026-04-12T08:36:20Z</time></trkpt><trkpt lat="44.03220195612597" lon="10.125727768541193"><ele>27.0</ele><time>2026-04-12T08:36:21Z</time></trkpt><trkpt lat="44.03227349543291" lon="10.125581330380419"><ele>26.0</ele><time>2026-04-12T08:36:22Z</time></trkpt><trkpt lat="44.03234275043459" lon="10.125435072437714"><ele>25.0</ele><time>2026-04-12T08:36:23Z</time></trkpt><trkpt lat="44.03240758319816" lon="10.125287982644661"><ele>25.0</ele><time>2026-04-12T08:36:24Z</time></trkpt><trkpt lat="44.03246856313454" lon="10.12513903745549"><ele>25.0</ele><time>2026-04-12T08:36:25Z</time></trkpt><trkpt lat="44.03252440063923" lon="10.124986083552676"><ele>25.0</ele><time>2026-04-12T08:36:26Z</time></trkpt><trkpt lat="44.03257560971498" lon="10.124830891334888"><ele>25.0</ele><time>2026-04-12T08:36:27Z</time></trkpt><trkpt lat="44.03262189386114" lon="10.124680518905391"><ele>25.5</ele><time>2026-04-12T08:36:28Z</time></trkpt><trkpt lat="44.032667489890876" lon="10.124521768197857"><ele>26.0</ele><time>2026-04-12T08:36:29Z</time></trkpt><trkpt lat="44.032709866933665" lon="10.124358773551508"><ele>26.5</ele><time>2026-04-12T08:36:30Z</time></trkpt><trkpt lat="44.03275095658874" lon="10.124186336184241"><ele>27.0</ele><time>2026-04-12T08:36:31Z</time></trkpt><trkpt lat="44.032788785406204" lon="10.124011148823726"><ele>27.0</ele><time>2026-04-12T08:36:32Z</time></trkpt><trkpt lat="44.032827742317565" lon="10.12383379855026"><ele>27.0</ele><time>2026-04-12T08:36:33Z</time></trkpt><trkpt lat="44.03286528085328" lon="10.123653781713069"><ele>27.0</ele><time>2026-04-12T08:36:34Z</time></trkpt><trkpt lat="44.0329016064217" lon="10.123475578557619"><ele>27.0</ele><time>2026-04-12T08:36:35Z</time></trkpt><trkpt lat="44.03293798160031" lon="10.123293363989344"><ele>26.25</ele><time>2026-04-12T08:36:36Z</time></trkpt><trkpt lat="44.03297296970454" lon="10.123116591464022"><ele>25.5</ele><time>2026-04-12T08:36:37Z</time></trkpt><trkpt lat="44.03300982418788" lon="10.122933774169356"><ele>24.75</ele><time>2026-04-12T08:36:38Z</time></trkpt><trkpt lat="44.0330421104262" lon="10.122753901858765"><ele>24.0</ele><time>2026-04-12T08:36:39Z</time></trkpt><trkpt lat="44.03307750231071" lon="10.122571977267006"><ele>25.25</ele><time>2026-04-12T08:36:40Z</time></trkpt><trkpt lat="44.033115699139856" lon="10.122385258527405"><ele>26.5</ele><time>2026-04-12T08:36:41Z</time></trkpt><trkpt lat="44.03315269683122" lon="10.122200533239754"><ele>27.75</ele><time>2026-04-12T08:36:42Z</time></trkpt><trkpt lat="44.03319117670641" lon="10.122014735271035"><ele>29.0</ele><time>2026-04-12T08:36:43Z</time></trkpt><trkpt lat="44.03323018605136" lon="10.12182764427095"><ele>29.0</ele><time>2026-04-12T08:36:44Z</time></trkpt><trkpt lat="44.03326844523196" lon="10.12163933879651"><ele>29.0</ele><time>2026-04-12T08:36:45Z</time></trkpt><trkpt lat="44.033306335419695" lon="10.121451561028028"><ele>29.0</ele><time>2026-04-12T08:36:46Z</time></trkpt><trkpt lat="44.03334296566413" lon="10.12126718056784"><ele>29.0</ele><time>2026-04-12T08:36:47Z</time></trkpt><trkpt lat="44.03337501598659" lon="10.121090478681367"><ele>29.5</ele><time>2026-04-12T08:36:48Z</time></trkpt><trkpt lat="44.03341166195936" lon="10.12090985234549"><ele>30.0</ele><time>2026-04-12T08:36:49Z</time></trkpt><trkpt lat="44.03344592883535" lon="10.120731707387149"><ele>30.5</ele><time>2026-04-12T08:36:50Z</time></trkpt><trkpt lat="44.03348140785011" lon="10.120552785981511"><ele>31.0</ele><time>2026-04-12T08:36:51Z</time></trkpt><trkpt lat="44.033517777010864" lon="10.120373867815616"><ele>31.0</ele><time>2026-04-12T08:36:52Z</time></trkpt><trkpt lat="44.03355465858997" lon="10.120197920744465"><ele>31.0</ele><time>2026-04-12T08:36:53Z</time></trkpt><trkpt lat="44.03359125616761" lon="10.120022135242145"><ele>31.0</ele><time>2026-04-12T08:36:54Z</time></trkpt><trkpt lat="44.033626748176246" lon="10.119841870696462"><ele>31.0</ele><time>2026-04-12T08:36:55Z</time></trkpt><trkpt lat="44.033660069929525" lon="10.119661305883627"><ele>31.0</ele><time>2026-04-12T08:36:56Z</time></trkpt><trkpt lat="44.0336969914276" lon="10.119482475493621"><ele>31.0</ele><time>2026-04-12T08:36:57Z</time></trkpt><trkpt lat="44.033734002500324" lon="10.119307318269204"><ele>31.0</ele><time>2026-04-12T08:36:58Z</time></trkpt><trkpt lat="44.03376799825277" lon="10.119134329460314"><ele>31.0</ele><time>2026-04-12T08:36:59Z</time></trkpt><trkpt lat="44.03379915415272" lon="10.118970491151172"><ele>30.8</ele><time>2026-04-12T08:37:00Z</time></trkpt><trkpt lat="44.033830084169594" lon="10.118819028228247"><ele>30.6</ele><time>2026-04-12T08:37:01Z</time></trkpt><trkpt lat="44.03386283905117" lon="10.118676496012867"><ele>30.4</ele><time>2026-04-12T08:37:02Z</time></trkpt><trkpt lat="44.03388871414338" lon="10.118544327673543"><ele>30.2</ele><time>2026-04-12T08:37:03Z</time></trkpt><trkpt lat="44.033913036158175" lon="10.118427707317307"><ele>30.0</ele><time>2026-04-12T08:37:04Z</time></trkpt><trkpt lat="44.0339421659491" lon="10.118328180622067"><ele>29.8</ele><time>2026-04-12T08:37:05Z</time></trkpt><trkpt lat="44.0339878845358" lon="10.118185267771981"><ele>29.6</ele><time>2026-04-12T08:37:07Z</time></trkpt><trkpt lat="44.034033606670356" lon="10.118089322809691"><ele>29.4</ele><time>2026-04-12T08:37:09Z</time></trkpt><trkpt lat="44.034103982341854" lon="10.117985355069322"><ele>29.2</ele><time>2026-04-12T08:37:11Z</time></trkpt><trkpt lat="44.034206491908236" lon="10.117912914547523"><ele>29.0</ele><time>2026-04-12T08:37:13.001Z</time></trkpt><trkpt lat="44.03424255836488" lon="10.11777964567278"><ele>28.999999999999996</ele><time>2026-04-12T08:37:15.001Z</time></trkpt><trkpt lat="44.03422540365243" lon="10.117640395167172"><ele>29.0</ele><time>2026-04-12T08:37:17.001Z</time></trkpt><trkpt lat="44.03418916370789" lon="10.117478186631875"><ele>29.0</ele><time>2026-04-12T08:37:19.001Z</time></trkpt><trkpt lat="44.03417738969064" lon="10.117387319336963"><ele>29.0</ele><time>2026-04-12T08:37:20.001Z</time></trkpt><trkpt lat="44.03417458036006" lon="10.117280113757774"><ele>28.999999999999996</ele><time>2026-04-12T08:37:21.001Z</time></trkpt><trkpt lat="44.034145690934295" lon="10.117177317523353"><ele>29.0</ele><time>2026-04-12T08:37:22.001Z</time></trkpt><trkpt lat="44.0341987838645" lon="10.117038803627471"><ele>29.0</ele><time>2026-04-12T08:37:23.001Z</time></trkpt><trkpt lat="44.03422352165328" lon="10.116899347787763"><ele>29.0</ele><time>2026-04-12T08:37:24.001Z</time></trkpt><trkpt lat="44.03425258094217" lon="10.116745002691927"><ele>29.0</ele><time>2026-04-12T08:37:25.001Z</time></trkpt><trkpt lat="44.034283938848304" lon="10.116589003637396"><ele>29.0</ele><time>2026-04-12T08:37:26.001Z</time></trkpt><trkpt lat="44.034317923888025" lon="10.116429580458112"><ele>28.25</ele><time>2026-04-12T08:37:27.001Z</time></trkpt><trkpt lat="44.03435433425908" lon="10.116264422314703"><ele>27.5</ele><time>2026-04-12T08:37:28.001Z</time></trkpt><trkpt lat="44.034389137648375" lon="10.116103710239681"><ele>26.75</ele><time>2026-04-12T08:37:29.001Z</time></trkpt><trkpt lat="44.0344226283234" lon="10.115938057190249"><ele>26.0</ele><time>2026-04-12T08:37:30.001Z</time></trkpt><trkpt lat="44.03445350528079" lon="10.115770228417965"><ele>26.0</ele><time>2026-04-12T08:37:31.001Z</time></trkpt><trkpt lat="44.03448618236978" lon="10.115598075329652"><ele>26.0</ele><time>2026-04-12T08:37:32.001Z</time></trkpt><trkpt lat="44.03452242446387" lon="10.115425220640144"><ele>26.0</ele><time>2026-04-12T08:37:33.001Z</time></trkpt><trkpt lat="44.03455907872935" lon="10.115250479890616"><ele>26.0</ele><time>2026-04-12T08:37:34.001Z</time></trkpt><trkpt lat="44.03459542106148" lon="10.11507812678585"><ele>25.75</ele><time>2026-04-12T08:37:35.001Z</time></trkpt><trkpt lat="44.0346302675062" lon="10.114902104326534"><ele>25.5</ele><time>2026-04-12T08:37:36.001Z</time></trkpt><trkpt lat="44.034666749559065" lon="10.114720000878846"><ele>25.25</ele><time>2026-04-12T08:37:37.001Z</time></trkpt><trkpt lat="44.034704672492666" lon="10.11454168510521"><ele>25.0</ele><time>2026-04-12T08:37:38.001Z</time></trkpt><trkpt lat="44.0347396109898" lon="10.114365511355052"><ele>25.0</ele><time>2026-04-12T08:37:39.001Z</time></trkpt><trkpt lat="44.034776215056354" lon="10.11419430793987"><ele>25.0</ele><time>2026-04-12T08:37:40.001Z</time></trkpt><trkpt lat="44.034810384927475" lon="10.114024161531857"><ele>25.0</ele><time>2026-04-12T08:37:41.001Z</time></trkpt><trkpt lat="44.034845154186144" lon="10.113855017231183"><ele>25.0</ele><time>2026-04-12T08:37:42.001Z</time></trkpt><trkpt lat="44.03487982273266" lon="10.113684883456425"><ele>25.0</ele><time>2026-04-12T08:37:43.001Z</time></trkpt><trkpt lat="44.034915550116445" lon="10.113519713374762"><ele>25.0</ele><time>2026-04-12T08:37:44.001Z</time></trkpt><trkpt lat="44.03495091974315" lon="10.113354160462706"><ele>25.0</ele><time>2026-04-12T08:37:45.001Z</time></trkpt><trkpt lat="44.03499072238239" lon="10.113183003194566"><ele>25.0</ele><time>2026-04-12T08:37:46.001Z</time></trkpt><trkpt lat="44.03503210986913" lon="10.11301171641812"><ele>25.0</ele><time>2026-04-12T08:37:47.001Z</time></trkpt><trkpt lat="44.03508148465138" lon="10.112843903391008"><ele>25.0</ele><time>2026-04-12T08:37:48.001Z</time></trkpt><trkpt lat="44.035134132120405" lon="10.112681865217459"><ele>25.0</ele><time>2026-04-12T08:37:49.001Z</time></trkpt><trkpt lat="44.03518913517176" lon="10.112519402381432"><ele>25.0</ele><time>2026-04-12T08:37:50.001Z</time></trkpt><trkpt lat="44.03525123605841" lon="10.112347048570536"><ele>25.25</ele><time>2026-04-12T08:37:51.001Z</time></trkpt><trkpt lat="44.03531989856098" lon="10.11217627868306"><ele>25.5</ele><time>2026-04-12T08:37:52.001Z</time></trkpt><trkpt lat="44.03539546842044" lon="10.112000908375093"><ele>25.75</ele><time>2026-04-12T08:37:53.001Z</time></trkpt><trkpt lat="44.03546814950518" lon="10.111836747438696"><ele>26.0</ele><time>2026-04-12T08:37:54.001Z</time></trkpt><trkpt lat="44.03555022665786" lon="10.111671816295358"><ele>26.0</ele><time>2026-04-12T08:37:55.001Z</time></trkpt><trkpt lat="44.0356310391612" lon="10.111507632056313"><ele>26.0</ele><time>2026-04-12T08:37:56.001Z</time></trkpt><trkpt lat="44.03571916414768" lon="10.111339027501375"><ele>26.0</ele><time>2026-04-12T08:37:57Z</time></trkpt><trkpt lat="44.03580948077886" lon="10.111167004464086"><ele>26.0</ele><time>2026-04-12T08:37:58Z</time></trkpt><trkpt lat="44.035899405931126" lon="10.110994094614036"><ele>26.25</ele><time>2026-04-12T08:37:59Z</time></trkpt><trkpt lat="44.03598864425126" lon="10.110819984245047"><ele>26.5</ele><time>2026-04-12T08:38:00Z</time></trkpt><trkpt lat="44.03607277413057" lon="10.110653085547137"><ele>26.75</ele><time>2026-04-12T08:38:01Z</time></trkpt><trkpt lat="44.03615440717752" lon="10.110495665088573"><ele>27.0</ele><time>2026-04-12T08:38:02Z</time></trkpt><trkpt lat="44.03623761473451" lon="10.110344093036012"><ele>27.5</ele><time>2026-04-12T08:38:03Z</time></trkpt><trkpt lat="44.03631605040561" lon="10.110189022151358"><ele>28.0</ele><time>2026-04-12T08:38:04Z</time></trkpt><trkpt lat="44.036390003678335" lon="10.110042697156624"><ele>28.5</ele><time>2026-04-12T08:38:05Z</time></trkpt><trkpt lat="44.036463789400926" lon="10.109901438037255"><ele>29.0</ele><time>2026-04-12T08:38:06Z</time></trkpt><trkpt lat="44.03653435199532" lon="10.109762718142338"><ele>29.2</ele><time>2026-04-12T08:38:07Z</time></trkpt><trkpt lat="44.03660081808857" lon="10.109633550277303"><ele>29.4</ele><time>2026-04-12T08:38:08Z</time></trkpt><trkpt lat="44.03666099627365" lon="10.109510459826447"><ele>29.6</ele><time>2026-04-12T08:38:09Z</time></trkpt><trkpt lat="44.03671909095891" lon="10.10939434811863"><ele>29.8</ele><time>2026-04-12T08:38:10Z</time></trkpt><trkpt lat="44.03677628473744" lon="10.10928364133493"><ele>30.0</ele><time>2026-04-12T08:38:11Z</time></trkpt><trkpt lat="44.036828495125214" lon="10.10918114887845"><ele>29.666666666666668</ele><time>2026-04-12T08:38:12Z</time></trkpt><trkpt lat="44.03687395051449" lon="10.10909127991802"><ele>29.333333333333336</ele><time>2026-04-12T08:38:13Z</time></trkpt><trkpt lat="44.03690789434955" lon="10.109016505730194"><ele>29.0</ele><time>2026-04-12T08:38:14Z</time></trkpt><trkpt lat="44.03696717914873" lon="10.108879785350974"><ele>28.666666666666668</ele><time>2026-04-12T08:38:16Z</time></trkpt><trkpt lat="44.0370172571575" lon="10.10878849410369"><ele>28.333333333333336</ele><time>2026-04-12T08:38:18Z</time></trkpt><trkpt lat="44.03708211253883" lon="10.108690757708443"><ele>28.0</ele><time>2026-04-12T08:38:30Z</time></trkpt><trkpt lat="44.03712716560637" lon="10.108613670912701"><ele>28.0</ele><time>2026-04-12T08:38:31Z</time></trkpt><trkpt lat="44.03717288390944" lon="10.108512494561193"><ele>27.999999999999996</ele><time>2026-04-12T08:38:32Z</time></trkpt><trkpt lat="44.03717683630117" lon="10.108370961931909"><ele>27.999999999999996</ele><time>2026-04-12T08:38:33Z</time></trkpt><trkpt lat="44.037186690603505" lon="10.108217410561087"><ele>28.0</ele><time>2026-04-12T08:38:34Z</time></trkpt><trkpt lat="44.03719133242143" lon="10.108052334296735"><ele>28.0</ele><time>2026-04-12T08:38:35Z</time></trkpt><trkpt lat="44.03719574001254" lon="10.107885848947152"><ele>27.25</ele><time>2026-04-12T08:38:36Z</time></trkpt><trkpt lat="44.03719177422132" lon="10.107702762347314"><ele>26.5</ele><time>2026-04-12T08:38:37Z</time></trkpt><trkpt lat="44.037185774173444" lon="10.107510448710418"><ele>25.75</ele><time>2026-04-12T08:38:38Z</time></trkpt><trkpt lat="44.037179677324225" lon="10.107311601242982"><ele>25.0</ele><time>2026-04-12T08:38:39Z</time></trkpt><trkpt lat="44.037174621914" lon="10.107099531411267"><ele>24.333333333333336</ele><time>2026-04-12T08:38:40Z</time></trkpt><trkpt lat="44.03717041070889" lon="10.106885373002365"><ele>23.666666666666668</ele><time>2026-04-12T08:38:41Z</time></trkpt><trkpt lat="44.037162413189115" lon="10.106672818155287"><ele>23.0</ele><time>2026-04-12T08:38:42Z</time></trkpt><trkpt lat="44.037153546395814" lon="10.10646227529034"><ele>22.333333333333336</ele><time>2026-04-12T08:38:43Z</time></trkpt><trkpt lat="44.037146401415846" lon="10.106250604902545"><ele>21.666666666666668</ele><time>2026-04-12T08:38:44Z</time></trkpt><trkpt lat="44.03714084365341" lon="10.106035424519936"><ele>21.0</ele><time>2026-04-12T08:38:45Z</time></trkpt><trkpt lat="44.037132528920736" lon="10.105819659412024"><ele>21.333333333333332</ele><time>2026-04-12T08:38:46Z</time></trkpt><trkpt lat="44.03712673099023" lon="10.105596261099357"><ele>21.666666666666664</ele><time>2026-04-12T08:38:47Z</time></trkpt><trkpt lat="44.037121269641126" lon="10.105369447224893"><ele>22.0</ele><time>2026-04-12T08:38:48Z</time></trkpt><trkpt lat="44.037120933620365" lon="10.105133432186697"><ele>22.666666666666664</ele><time>2026-04-12T08:38:49Z</time></trkpt><trkpt lat="44.03711124590297" lon="10.104908074337338"><ele>23.333333333333332</ele><time>2026-04-12T08:38:50Z</time></trkpt><trkpt lat="44.037104395122135" lon="10.104681492814294"><ele>24.0</ele><time>2026-04-12T08:38:51Z</time></trkpt><trkpt lat="44.0370982472365" lon="10.10444628725247"><ele>24.0</ele><time>2026-04-12T08:38:52Z</time></trkpt><trkpt lat="44.03709146423536" lon="10.104207954318275"><ele>24.0</ele><time>2026-04-12T08:38:53Z</time></trkpt><trkpt lat="44.03708558895764" lon="10.103970257137156"><ele>24.0</ele><time>2026-04-12T08:38:54Z</time></trkpt><trkpt lat="44.037078010848504" lon="10.103736605925798"><ele>23.0</ele><time>2026-04-12T08:38:55Z</time></trkpt><trkpt lat="44.03707293690342" lon="10.10350660180285"><ele>22.0</ele><time>2026-04-12T08:38:56Z</time></trkpt><trkpt lat="44.03706545959862" lon="10.10327214632553"><ele>21.0</ele><time>2026-04-12T08:38:57Z</time></trkpt><trkpt lat="44.03706064082222" lon="10.103045116392785"><ele>20.0</ele><time>2026-04-12T08:38:58Z</time></trkpt><trkpt lat="44.03705126464466" lon="10.102822338406613"><ele>19.0</ele><time>2026-04-12T08:38:59Z</time></trkpt><trkpt lat="44.03704434265287" lon="10.102603763388936"><ele>18.0</ele><time>2026-04-12T08:39:00Z</time></trkpt><trkpt lat="44.0370390586332" lon="10.102389479386114"><ele>17.75</ele><time>2026-04-12T08:39:01Z</time></trkpt><trkpt lat="44.03703336520751" lon="10.102186672482338"><ele>17.5</ele><time>2026-04-12T08:39:02Z</time></trkpt><trkpt lat="44.03702590355738" lon="10.101996602051772"><ele>17.25</ele><time>2026-04-12T08:39:03Z</time></trkpt><trkpt lat="44.03701973709305" lon="10.10180692588851"><ele>17.0</ele><time>2026-04-12T08:39:04Z</time></trkpt><trkpt lat="44.03701360899296" lon="10.101623761618889"><ele>17.4</ele><time>2026-04-12T08:39:05Z</time></trkpt><trkpt lat="44.037005064134306" lon="10.101458716206247"><ele>17.799999999999997</ele><time>2026-04-12T08:39:06Z</time></trkpt><trkpt lat="44.03699287970954" lon="10.101317159616347"><ele>18.2</ele><time>2026-04-12T08:39:07Z</time></trkpt><trkpt lat="44.03697087996917" lon="10.101183586329809"><ele>18.599999999999998</ele><time>2026-04-12T08:39:08Z</time></trkpt><trkpt lat="44.0369424536721" lon="10.101050421958343"><ele>19.0</ele><time>2026-04-12T08:39:09.001Z</time></trkpt><trkpt lat="44.03692800918947" lon="10.100908043028967"><ele>18.25</ele><time>2026-04-12T08:39:10.001Z</time></trkpt><trkpt lat="44.03701459348497" lon="10.100748793367794"><ele>17.5</ele><time>2026-04-12T08:39:11.001Z</time></trkpt><trkpt lat="44.03701648151082" lon="10.100592565009725"><ele>16.75</ele><time>2026-04-12T08:39:12.001Z</time></trkpt><trkpt lat="44.037034550328016" lon="10.100423659973869"><ele>16.0</ele><time>2026-04-12T08:39:13.001Z</time></trkpt><trkpt lat="44.03698368563463" lon="10.100232784291576"><ele>16.0</ele><time>2026-04-12T08:39:14.001Z</time></trkpt><trkpt lat="44.0369853598987" lon="10.100069597303678"><ele>16.0</ele><time>2026-04-12T08:39:15.001Z</time></trkpt><trkpt lat="44.036983827431904" lon="10.099919210906673"><ele>16.0</ele><time>2026-04-12T08:39:16.001Z</time></trkpt><trkpt lat="44.03698365416946" lon="10.099776125337327"><ele>16.0</ele><time>2026-04-12T08:39:17.001Z</time></trkpt><trkpt lat="44.03699017217672" lon="10.099639606465914"><ele>16.0</ele><time>2026-04-12T08:39:18.001Z</time></trkpt><trkpt lat="44.03700216957975" lon="10.099499350494733"><ele>15.200000000000001</ele><time>2026-04-12T08:39:19.001Z</time></trkpt><trkpt lat="44.03701804772047" lon="10.099358024687485"><ele>14.400000000000002</ele><time>2026-04-12T08:39:20.001Z</time></trkpt><trkpt lat="44.03703682087255" lon="10.099208191893682"><ele>13.6</ele><time>2026-04-12T08:39:21.001Z</time></trkpt><trkpt lat="44.03705945105946" lon="10.099057218298416"><ele>12.8</ele><time>2026-04-12T08:39:22.001Z</time></trkpt><trkpt lat="44.03708622496562" lon="10.098912024560345"><ele>12.0</ele><time>2026-04-12T08:39:23.001Z</time></trkpt><trkpt lat="44.03711726139376" lon="10.098780364840518"><ele>12.0</ele><time>2026-04-12T08:39:24.001Z</time></trkpt><trkpt lat="44.03715370904887" lon="10.098659114687479"><ele>12.0</ele><time>2026-04-12T08:39:25.001Z</time></trkpt><trkpt lat="44.037185218437834" lon="10.098533488790386"><ele>12.0</ele><time>2026-04-12T08:39:26.001Z</time></trkpt><trkpt lat="44.03722190029185" lon="10.09839682891866"><ele>12.0</ele><time>2026-04-12T08:39:27.001Z</time></trkpt><trkpt lat="44.03726323351712" lon="10.098235234515133"><ele>12.0</ele><time>2026-04-12T08:39:28.001Z</time></trkpt><trkpt lat="44.03732089723535" lon="10.098047786316455"><ele>12.333333333333332</ele><time>2026-04-12T08:39:29.001Z</time></trkpt><trkpt lat="44.03740045010897" lon="10.097851916822782"><ele>12.666666666666666</ele><time>2026-04-12T08:39:30.001Z</time></trkpt><trkpt lat="44.037503688964506" lon="10.097660933968637"><ele>13.0</ele><time>2026-04-12T08:39:31.001Z</time></trkpt><trkpt lat="44.037620526466874" lon="10.097470454435342"><ele>13.0</ele><time>2026-04-12T08:39:32.001Z</time></trkpt><trkpt lat="44.03773477816369" lon="10.097288778794058"><ele>13.0</ele><time>2026-04-12T08:39:33.001Z</time></trkpt><trkpt lat="44.03785782007724" lon="10.097104722233109"><ele>13.0</ele><time>2026-04-12T08:39:34.001Z</time></trkpt><trkpt lat="44.037979399364616" lon="10.096922877630881"><ele>13.0</ele><time>2026-04-12T08:39:35.001Z</time></trkpt><trkpt lat="44.0381063748859" lon="10.096743150613397"><ele>13.0</ele><time>2026-04-12T08:39:36.001Z</time></trkpt><trkpt lat="44.038231215218325" lon="10.096562500215757"><ele>13.0</ele><time>2026-04-12T08:39:37.001Z</time></trkpt><trkpt lat="44.03835529302624" lon="10.096380319272056"><ele>12.0</ele><time>2026-04-12T08:39:38.001Z</time></trkpt><trkpt lat="44.03848303272594" lon="10.096204943378993"><ele>11.0</ele><time>2026-04-12T08:39:39.001Z</time></trkpt><trkpt lat="44.038608543555895" lon="10.096026497053096"><ele>10.0</ele><time>2026-04-12T08:39:40.001Z</time></trkpt><trkpt lat="44.038738034484965" lon="10.095842098560516"><ele>10.0</ele><time>2026-04-12T08:39:41.001Z</time></trkpt><trkpt lat="44.03886710367235" lon="10.095646332848494"><ele>10.0</ele><time>2026-04-12T08:39:42.001Z</time></trkpt><trkpt lat="44.03899430145421" lon="10.095450254089009"><ele>10.0</ele><time>2026-04-12T08:39:43.001Z</time></trkpt><trkpt lat="44.03912423984543" lon="10.095245474909207"><ele>9.666666666666668</ele><time>2026-04-12T08:39:44.001Z</time></trkpt><trkpt lat="44.03924715961786" lon="10.095034888186413"><ele>9.333333333333334</ele><time>2026-04-12T08:39:45.001Z</time></trkpt><trkpt lat="44.039369823129846" lon="10.094826837732803"><ele>9.0</ele><time>2026-04-12T08:39:46.001Z</time></trkpt><trkpt lat="44.0394888770042" lon="10.094621646891996"><ele>8.666666666666666</ele><time>2026-04-12T08:39:47.001Z</time></trkpt><trkpt lat="44.03960421771693" lon="10.094408738186598"><ele>8.333333333333332</ele><time>2026-04-12T08:39:48.001Z</time></trkpt><trkpt lat="44.03971772808171" lon="10.094189799900166"><ele>8.0</ele><time>2026-04-12T08:39:49.001Z</time></trkpt><trkpt lat="44.03982830147135" lon="10.093961877060917"><ele>8.0</ele><time>2026-04-12T08:39:50.001Z</time></trkpt><trkpt lat="44.03994628800844" lon="10.093738384167015"><ele>8.0</ele><time>2026-04-12T08:39:51.001Z</time></trkpt><trkpt lat="44.040053393235354" lon="10.09352047861113"><ele>8.0</ele><time>2026-04-12T08:39:52.001Z</time></trkpt><trkpt lat="44.04016526371801" lon="10.093293224087175"><ele>7.333333333333333</ele><time>2026-04-12T08:39:53.001Z</time></trkpt><trkpt lat="44.040272920042625" lon="10.093056951174798"><ele>6.666666666666666</ele><time>2026-04-12T08:39:54.001Z</time></trkpt><trkpt lat="44.040385576616025" lon="10.092827020090517"><ele>6.0</ele><time>2026-04-12T08:39:55.001Z</time></trkpt><trkpt lat="44.040503316153355" lon="10.092604097296997"><ele>6.333333333333334</ele><time>2026-04-12T08:39:56.001Z</time></trkpt><trkpt lat="44.04063113548111" lon="10.092378217215055"><ele>6.666666666666667</ele><time>2026-04-12T08:39:57.001Z</time></trkpt><trkpt lat="44.040746234738556" lon="10.092162530533084"><ele>7.0</ele><time>2026-04-12T08:39:58.001Z</time></trkpt><trkpt lat="44.04085735263017" lon="10.09195396935195"><ele>7.666666666666667</ele><time>2026-04-12T08:39:59.001Z</time></trkpt><trkpt lat="44.040964255094956" lon="10.09173762126899"><ele>8.333333333333334</ele><time>2026-04-12T08:40:00.001Z</time></trkpt><trkpt lat="44.041069050929146" lon="10.091525236528609"><ele>9.0</ele><time>2026-04-12T08:40:01.001Z</time></trkpt><trkpt lat="44.04117353842275" lon="10.091311193183653"><ele>9.333333333333334</ele><time>2026-04-12T08:40:02.001Z</time></trkpt><trkpt lat="44.04128503413865" lon="10.091097903379197"><ele>9.666666666666668</ele><time>2026-04-12T08:40:03Z</time></trkpt><trkpt lat="44.041386179861355" lon="10.090887917702858"><ele>10.0</ele><time>2026-04-12T08:40:04Z</time></trkpt><trkpt lat="44.04150061127242" lon="10.090673546111896"><ele>9.666666666666668</ele><time>2026-04-12T08:40:05Z</time></trkpt><trkpt lat="44.041612324107724" lon="10.090453583540379"><ele>9.333333333333334</ele><time>2026-04-12T08:40:06Z</time></trkpt><trkpt lat="44.041721003960355" lon="10.09023843281792"><ele>9.0</ele><time>2026-04-12T08:40:07Z</time></trkpt><trkpt lat="44.04183117338906" lon="10.090018525573571"><ele>8.666666666666666</ele><time>2026-04-12T08:40:08Z</time></trkpt><trkpt lat="44.04193937940877" lon="10.089801595648373"><ele>8.333333333333332</ele><time>2026-04-12T08:40:09Z</time></trkpt><trkpt lat="44.04205006667117" lon="10.089590040657583"><ele>8.0</ele><time>2026-04-12T08:40:10Z</time></trkpt><trkpt lat="44.04215760173409" lon="10.089366324195366"><ele>8.0</ele><time>2026-04-12T08:40:11Z</time></trkpt><trkpt lat="44.04237987311476" lon="10.088928954623029"><ele>8.0</ele><time>2026-04-12T08:40:13Z</time></trkpt><trkpt lat="44.04248704881285" lon="10.088702482052247"><ele>8.0</ele><time>2026-04-12T08:40:14Z</time></trkpt><trkpt lat="44.042599072850045" lon="10.08847782605155"><ele>8.0</ele><time>2026-04-12T08:40:15Z</time></trkpt><trkpt lat="44.042713180788" lon="10.08825862645254"><ele>8.0</ele><time>2026-04-12T08:40:16Z</time></trkpt><trkpt lat="44.04281797850486" lon="10.088048319906566"><ele>8.666666666666666</ele><time>2026-04-12T08:40:17Z</time></trkpt><trkpt lat="44.042911715983045" lon="10.087862210034727"><ele>9.333333333333334</ele><time>2026-04-12T08:40:18Z</time></trkpt><trkpt lat="44.04300573135543" lon="10.0876898375224"><ele>10.0</ele><time>2026-04-12T08:40:19Z</time></trkpt><trkpt lat="44.043089344898995" lon="10.087532537910047"><ele>10.25</ele><time>2026-04-12T08:40:20Z</time></trkpt><trkpt lat="44.04316711403404" lon="10.08737404875736"><ele>10.5</ele><time>2026-04-12T08:40:21Z</time></trkpt><trkpt lat="44.04323671956845" lon="10.087223306956"><ele>10.75</ele><time>2026-04-12T08:40:22Z</time></trkpt><trkpt lat="44.04329801478425" lon="10.087072248640789"><ele>11.0</ele><time>2026-04-12T08:40:23Z</time></trkpt><trkpt lat="44.04334222555393" lon="10.086927977612838"><ele>11.0</ele><time>2026-04-12T08:40:24Z</time></trkpt><trkpt lat="44.04335817957928" lon="10.08679003286087"><ele>11.0</ele><time>2026-04-12T08:40:25Z</time></trkpt><trkpt lat="44.04335633705758" lon="10.086660847156963"><ele>11.0</ele><time>2026-04-12T08:40:26Z</time></trkpt><trkpt lat="44.04336532853313" lon="10.086543268098476"><ele>11.0</ele><time>2026-04-12T08:40:27Z</time></trkpt><trkpt lat="44.04340242216004" lon="10.086450287559076"><ele>11.0</ele><time>2026-04-12T08:40:28Z</time></trkpt><trkpt lat="44.043463867549804" lon="10.086387295720233"><ele>11.0</ele><time>2026-04-12T08:40:29Z</time></trkpt><trkpt lat="44.04353686767752" lon="10.086325138953379"><ele>9.666666666666666</ele><time>2026-04-12T08:40:30Z</time></trkpt><trkpt lat="44.0436156065704" lon="10.08623798614358"><ele>8.333333333333334</ele><time>2026-04-12T08:40:31Z</time></trkpt><trkpt lat="44.04368392981499" lon="10.0861173608469"><ele>7.0</ele><time>2026-04-12T08:40:32Z</time></trkpt><trkpt lat="44.04379499282914" lon="10.085792907164238"><ele>8.0</ele><time>2026-04-12T08:40:34Z</time></trkpt><trkpt lat="44.04387484760082" lon="10.08564147533611"><ele>9.0</ele><time>2026-04-12T08:40:35Z</time></trkpt><trkpt lat="44.04398393987847" lon="10.085519460629506"><ele>10.0</ele><time>2026-04-12T08:40:36Z</time></trkpt><trkpt lat="44.044109763132155" lon="10.08539805615539"><ele>11.0</ele><time>2026-04-12T08:40:37Z</time></trkpt><trkpt lat="44.044223497543626" lon="10.085250806092297"><ele>11.0</ele><time>2026-04-12T08:40:38Z</time></trkpt><trkpt lat="44.04432889039602" lon="10.085081320567218"><ele>11.0</ele><time>2026-04-12T08:40:39Z</time></trkpt><trkpt lat="44.04443374951243" lon="10.08489497620083"><ele>11.0</ele><time>2026-04-12T08:40:40Z</time></trkpt><trkpt lat="44.04452723839343" lon="10.084701131964339"><ele>11.0</ele><time>2026-04-12T08:40:41Z</time></trkpt><trkpt lat="44.04462599533721" lon="10.084495488240103"><ele>11.0</ele><time>2026-04-12T08:40:42Z</time></trkpt><trkpt lat="44.044728800977744" lon="10.084288740891415"><ele>11.0</ele><time>2026-04-12T08:40:43Z</time></trkpt><trkpt lat="44.044839657654045" lon="10.084071622586059"><ele>11.666666666666666</ele><time>2026-04-12T08:40:44Z</time></trkpt><trkpt lat="44.044950894407116" lon="10.083855361417486"><ele>12.333333333333332</ele><time>2026-04-12T08:40:45Z</time></trkpt><trkpt lat="44.0450578625872" lon="10.08364753950851"><ele>13.0</ele><time>2026-04-12T08:40:46Z</time></trkpt><trkpt lat="44.04516231500494" lon="10.083445106976786"><ele>12.666666666666666</ele><time>2026-04-12T08:40:47Z</time></trkpt><trkpt lat="44.04526920288134" lon="10.083239628934948"><ele>12.333333333333332</ele><time>2026-04-12T08:40:48Z</time></trkpt><trkpt lat="44.04537287345902" lon="10.083034886871975"><ele>12.0</ele><time>2026-04-12T08:40:49Z</time></trkpt><trkpt lat="44.04547540004131" lon="10.082831808840593"><ele>12.0</ele><time>2026-04-12T08:40:50Z</time></trkpt><trkpt lat="44.045581858809214" lon="10.082624370312843"><ele>12.0</ele><time>2026-04-12T08:40:51Z</time></trkpt><trkpt lat="44.045680784034104" lon="10.082426004641547"><ele>12.0</ele><time>2026-04-12T08:40:52Z</time></trkpt><trkpt lat="44.04577784135741" lon="10.08223144248738"><ele>13.0</ele><time>2026-04-12T08:40:53Z</time></trkpt><trkpt lat="44.04587790129087" lon="10.0820353875066"><ele>14.0</ele><time>2026-04-12T08:40:54Z</time></trkpt><trkpt lat="44.04598151029738" lon="10.081838096330209"><ele>15.0</ele><time>2026-04-12T08:40:55Z</time></trkpt><trkpt lat="44.04607341148531" lon="10.081655354560642"><ele>15.333333333333332</ele><time>2026-04-12T08:40:56Z</time></trkpt><trkpt lat="44.046172082807395" lon="10.081452199230263"><ele>15.666666666666666</ele><time>2026-04-12T08:40:57Z</time></trkpt><trkpt lat="44.04626942103625" lon="10.081258632259932"><ele>16.0</ele><time>2026-04-12T08:40:58Z</time></trkpt><trkpt lat="44.04636473264712" lon="10.081071560809276"><ele>16.0</ele><time>2026-04-12T08:40:59Z</time></trkpt><trkpt lat="44.04645737998632" lon="10.080889338258991"><ele>16.0</ele><time>2026-04-12T08:41:00Z</time></trkpt><trkpt lat="44.04655911069343" lon="10.080700060861203"><ele>16.0</ele><time>2026-04-12T08:41:01Z</time></trkpt><trkpt lat="44.0466475434958" lon="10.080508718158686"><ele>16.333333333333332</ele><time>2026-04-12T08:41:02Z</time></trkpt><trkpt lat="44.046738836656566" lon="10.080322882764843"><ele>16.666666666666668</ele><time>2026-04-12T08:41:03Z</time></trkpt><trkpt lat="44.046836237718786" lon="10.080137241657724"><ele>17.0</ele><time>2026-04-12T08:41:04Z</time></trkpt><trkpt lat="44.04693383738907" lon="10.079946147182266"><ele>15.666666666666668</ele><time>2026-04-12T08:41:05Z</time></trkpt><trkpt lat="44.04703371052253" lon="10.079763338885988"><ele>14.333333333333332</ele><time>2026-04-12T08:41:06Z</time></trkpt><trkpt lat="44.04713803329616" lon="10.079578073301397"><ele>13.0</ele><time>2026-04-12T08:41:07Z</time></trkpt><trkpt lat="44.04725108350487" lon="10.079398150207156"><ele>13.0</ele><time>2026-04-12T08:41:08Z</time></trkpt><trkpt lat="44.047366107694195" lon="10.079217414637926"><ele>13.0</ele><time>2026-04-12T08:41:09Z</time></trkpt><trkpt lat="44.04748512058984" lon="10.079032799246852"><ele>13.0</ele><time>2026-04-12T08:41:10.001Z</time></trkpt><trkpt lat="44.047610484105356" lon="10.078857356155348"><ele>13.666666666666666</ele><time>2026-04-12T08:41:11.001Z</time></trkpt><trkpt lat="44.04773035696707" lon="10.078668875894786"><ele>14.333333333333332</ele><time>2026-04-12T08:41:12.001Z</time></trkpt><trkpt lat="44.04785368642874" lon="10.078487239407357"><ele>15.0</ele><time>2026-04-12T08:41:13.001Z</time></trkpt><trkpt lat="44.047977417570536" lon="10.07830808840212"><ele>14.666666666666668</ele><time>2026-04-12T08:41:14.001Z</time></trkpt><trkpt lat="44.048093535345416" lon="10.078132424471715"><ele>14.333333333333334</ele><time>2026-04-12T08:41:15.001Z</time></trkpt><trkpt lat="44.0482120660778" lon="10.077952708445899"><ele>14.0</ele><time>2026-04-12T08:41:16.001Z</time></trkpt><trkpt lat="44.04833078630771" lon="10.077774142996487"><ele>14.666666666666668</ele><time>2026-04-12T08:41:17.001Z</time></trkpt><trkpt lat="44.048446202367906" lon="10.07760254351771"><ele>15.333333333333332</ele><time>2026-04-12T08:41:18.001Z</time></trkpt><trkpt lat="44.048551026323395" lon="10.077414142319842"><ele>16.0</ele><time>2026-04-12T08:41:19.001Z</time></trkpt><trkpt lat="44.04865839566391" lon="10.07723082384829"><ele>16.666666666666664</ele><time>2026-04-12T08:41:20.001Z</time></trkpt><trkpt lat="44.04876383816627" lon="10.077047122342067"><ele>17.333333333333332</ele><time>2026-04-12T08:41:21.001Z</time></trkpt><trkpt lat="44.04886456792958" lon="10.076862810112543"><ele>18.0</ele><time>2026-04-12T08:41:22.001Z</time></trkpt><trkpt lat="44.04896076446057" lon="10.076670192471962"><ele>17.333333333333332</ele><time>2026-04-12T08:41:23.001Z</time></trkpt><trkpt lat="44.049058234713115" lon="10.076485542957963"><ele>16.666666666666664</ele><time>2026-04-12T08:41:24.001Z</time></trkpt><trkpt lat="44.04915348775168" lon="10.076295339582611"><ele>16.0</ele><time>2026-04-12T08:41:25.001Z</time></trkpt><trkpt lat="44.04924050675825" lon="10.076108942225785"><ele>16.0</ele><time>2026-04-12T08:41:26.001Z</time></trkpt><trkpt lat="44.049330661902474" lon="10.075918414851545"><ele>16.0</ele><time>2026-04-12T08:41:27.001Z</time></trkpt><trkpt lat="44.04942602496716" lon="10.075729363390423"><ele>16.0</ele><time>2026-04-12T08:41:28.001Z</time></trkpt><trkpt lat="44.04951869772567" lon="10.075529894787893"><ele>15.666666666666666</ele><time>2026-04-12T08:41:29.001Z</time></trkpt><trkpt lat="44.049603803945104" lon="10.075343974957335"><ele>15.333333333333332</ele><time>2026-04-12T08:41:30.001Z</time></trkpt><trkpt lat="44.049690557309056" lon="10.075160730038974"><ele>15.0</ele><time>2026-04-12T08:41:31.001Z</time></trkpt><trkpt lat="44.049779311295644" lon="10.07497711132068"><ele>14.5</ele><time>2026-04-12T08:41:32.001Z</time></trkpt><trkpt lat="44.04985762790302" lon="10.0748031404002"><ele>14.0</ele><time>2026-04-12T08:41:33.001Z</time></trkpt><trkpt lat="44.04993707614471" lon="10.074641137010996"><ele>13.5</ele><time>2026-04-12T08:41:34.001Z</time></trkpt><trkpt lat="44.05001397219793" lon="10.074482323627878"><ele>13.0</ele><time>2026-04-12T08:41:35.001Z</time></trkpt><trkpt lat="44.0500940182356" lon="10.074319599474764"><ele>14.25</ele><time>2026-04-12T08:41:36.001Z</time></trkpt><trkpt lat="44.050170043004805" lon="10.07416105303404"><ele>15.5</ele><time>2026-04-12T08:41:37.001Z</time></trkpt><trkpt lat="44.05024136540676" lon="10.074005819878005"><ele>16.75</ele><time>2026-04-12T08:41:38.001Z</time></trkpt><trkpt lat="44.05031965806526" lon="10.073842753478512"><ele>18.0</ele><time>2026-04-12T08:41:39.001Z</time></trkpt><trkpt lat="44.05038600798108" lon="10.07368253202773"><ele>18.0</ele><time>2026-04-12T08:41:40.001Z</time></trkpt><trkpt lat="44.050462257055145" lon="10.073532907783093"><ele>18.0</ele><time>2026-04-12T08:41:41.001Z</time></trkpt><trkpt lat="44.050530652324674" lon="10.07338029604872"><ele>18.0</ele><time>2026-04-12T08:41:42.001Z</time></trkpt><trkpt lat="44.05061121283695" lon="10.073230846520225"><ele>18.0</ele><time>2026-04-12T08:41:43.001Z</time></trkpt><trkpt lat="44.050687825660674" lon="10.073080103036096"><ele>18.0</ele><time>2026-04-12T08:41:44.001Z</time></trkpt><trkpt lat="44.05076074490067" lon="10.072938458170675"><ele>18.0</ele><time>2026-04-12T08:41:45.001Z</time></trkpt><trkpt lat="44.05083025873826" lon="10.072801004221693"><ele>18.0</ele><time>2026-04-12T08:41:46.001Z</time></trkpt><trkpt lat="44.05090064945439" lon="10.072678040869597"><ele>18.0</ele><time>2026-04-12T08:41:47.001Z</time></trkpt><trkpt lat="44.050964402914545" lon="10.072567106695308"><ele>18.333333333333332</ele><time>2026-04-12T08:41:48.001Z</time></trkpt><trkpt lat="44.05102351672463" lon="10.072466419266993"><ele>18.666666666666668</ele><time>2026-04-12T08:41:49.001Z</time></trkpt><trkpt lat="44.05107935600888" lon="10.0723649861648"><ele>19.0</ele><time>2026-04-12T08:41:50.001Z</time></trkpt><trkpt lat="44.051133983750894" lon="10.072271778255391"><ele>19.333333333333336</ele><time>2026-04-12T08:41:51.001Z</time></trkpt><trkpt lat="44.0511876380715" lon="10.072182560397"><ele>19.666666666666668</ele><time>2026-04-12T08:41:52.001Z</time></trkpt><trkpt lat="44.051245757727315" lon="10.07208759190823"><ele>20.0</ele><time>2026-04-12T08:41:53.001Z</time></trkpt><trkpt lat="44.05130609336183" lon="10.071985341578474"><ele>20.0</ele><time>2026-04-12T08:41:54.001Z</time></trkpt><trkpt lat="44.051361580035554" lon="10.071877085259292"><ele>20.0</ele><time>2026-04-12T08:41:55.001Z</time></trkpt><trkpt lat="44.051422395831" lon="10.071770798627384"><ele>20.0</ele><time>2026-04-12T08:41:56.001Z</time></trkpt><trkpt lat="44.051480705442906" lon="10.071670843416214"><ele>20.0</ele><time>2026-04-12T08:41:57.001Z</time></trkpt><trkpt lat="44.05153993986251" lon="10.071568845788047"><ele>20.0</ele><time>2026-04-12T08:41:58.001Z</time></trkpt><trkpt lat="44.05160238476297" lon="10.071468194442513"><ele>20.2</ele><time>2026-04-12T08:41:59.001Z</time></trkpt><trkpt lat="44.05165822106512" lon="10.071368303585626"><ele>20.4</ele><time>2026-04-12T08:42:00.001Z</time></trkpt><trkpt lat="44.05172348414526" lon="10.07126269156038"><ele>20.6</ele><time>2026-04-12T08:42:01.001Z</time></trkpt><trkpt lat="44.051785741871555" lon="10.071158074203732"><ele>20.8</ele><time>2026-04-12T08:42:02.001Z</time></trkpt><trkpt lat="44.05185005842425" lon="10.071050169907869"><ele>21.0</ele><time>2026-04-12T08:42:03.001Z</time></trkpt><trkpt lat="44.05191474256017" lon="10.070937847896646"><ele>21.0</ele><time>2026-04-12T08:42:04.001Z</time></trkpt><trkpt lat="44.05198106327812" lon="10.070823336279195"><ele>21.0</ele><time>2026-04-12T08:42:05.001Z</time></trkpt><trkpt lat="44.05204920551734" lon="10.070707027374509"><ele>21.0</ele><time>2026-04-12T08:42:06.001Z</time></trkpt><trkpt lat="44.05211230086497" lon="10.070598291918632"><ele>21.0</ele><time>2026-04-12T08:42:07.001Z</time></trkpt><trkpt lat="44.05217503591554" lon="10.070490116354907"><ele>21.0</ele><time>2026-04-12T08:42:08.001Z</time></trkpt><trkpt lat="44.05223533321303" lon="10.070384600522674"><ele>21.200000000000003</ele><time>2026-04-12T08:42:09Z</time></trkpt><trkpt lat="44.05229262544507" lon="10.070282476766836"><ele>21.400000000000002</ele><time>2026-04-12T08:42:10Z</time></trkpt><trkpt lat="44.05235084833105" lon="10.070187882575572"><ele>21.6</ele><time>2026-04-12T08:42:11Z</time></trkpt><trkpt lat="44.05240843830537" lon="10.0700887032257"><ele>21.8</ele><time>2026-04-12T08:42:12Z</time></trkpt><trkpt lat="44.05246594447798" lon="10.069992461131365"><ele>22.0</ele><time>2026-04-12T08:42:13Z</time></trkpt><trkpt lat="44.05252088482726" lon="10.069891912247138"><ele>22.0</ele><time>2026-04-12T08:42:14Z</time></trkpt><trkpt lat="44.05258063509519" lon="10.069786599607497"><ele>22.0</ele><time>2026-04-12T08:42:15Z</time></trkpt><trkpt lat="44.05263906939338" lon="10.069677518546278"><ele>22.0</ele><time>2026-04-12T08:42:16Z</time></trkpt><trkpt lat="44.05270511723849" lon="10.06956754282721"><ele>22.0</ele><time>2026-04-12T08:42:17Z</time></trkpt><trkpt lat="44.05277109541152" lon="10.069456087126772"><ele>22.0</ele><time>2026-04-12T08:42:18Z</time></trkpt><trkpt lat="44.052837511606526" lon="10.069337781479875"><ele>22.0</ele><time>2026-04-12T08:42:19Z</time></trkpt><trkpt lat="44.052904832436425" lon="10.069219811925251"><ele>22.0</ele><time>2026-04-12T08:42:20Z</time></trkpt><trkpt lat="44.05297456740261" lon="10.069098632981357"><ele>22.0</ele><time>2026-04-12T08:42:21Z</time></trkpt><trkpt lat="44.05304463230415" lon="10.06897531698942"><ele>22.0</ele><time>2026-04-12T08:42:22Z</time></trkpt><trkpt lat="44.05311229628878" lon="10.068856250237982"><ele>22.0</ele><time>2026-04-12T08:42:23Z</time></trkpt><trkpt lat="44.05317592329501" lon="10.068746028862952"><ele>21.8</ele><time>2026-04-12T08:42:24Z</time></trkpt><trkpt lat="44.05323759567227" lon="10.068645694229085"><ele>21.6</ele><time>2026-04-12T08:42:25Z</time></trkpt><trkpt lat="44.05329894258385" lon="10.068542214218672"><ele>21.400000000000002</ele><time>2026-04-12T08:42:26Z</time></trkpt><trkpt lat="44.053360305217524" lon="10.068434483901688"><ele>21.200000000000003</ele><time>2026-04-12T08:42:27Z</time></trkpt><trkpt lat="44.05342194346644" lon="10.068325804315384"><ele>21.0</ele><time>2026-04-12T08:42:28Z</time></trkpt><trkpt lat="44.053485176708946" lon="10.068219047514663"><ele>20.8</ele><time>2026-04-12T08:42:29Z</time></trkpt><trkpt lat="44.053545465808426" lon="10.06811608542829"><ele>20.6</ele><time>2026-04-12T08:42:30Z</time></trkpt><trkpt lat="44.05360554281227" lon="10.06801239093278"><ele>20.4</ele><time>2026-04-12T08:42:31Z</time></trkpt><trkpt lat="44.053665815106015" lon="10.067907480931698"><ele>20.2</ele><time>2026-04-12T08:42:32Z</time></trkpt><trkpt lat="44.05372631485846" lon="10.067799569798986"><ele>20.0</ele><time>2026-04-12T08:42:33Z</time></trkpt><trkpt lat="44.05378641862007" lon="10.067692704206026"><ele>20.0</ele><time>2026-04-12T08:42:34Z</time></trkpt><trkpt lat="44.053852990590265" lon="10.067584607112206"><ele>20.0</ele><time>2026-04-12T08:42:35Z</time></trkpt><trkpt lat="44.053915063647764" lon="10.06747592928258"><ele>20.0</ele><time>2026-04-12T08:42:36Z</time></trkpt><trkpt lat="44.05397834238265" lon="10.067364130895067"><ele>20.0</ele><time>2026-04-12T08:42:37Z</time></trkpt><trkpt lat="44.05404426494443" lon="10.067246671614031"><ele>20.0</ele><time>2026-04-12T08:42:38Z</time></trkpt><trkpt lat="44.05411499965487" lon="10.067121592660603"><ele>20.25</ele><time>2026-04-12T08:42:39Z</time></trkpt><trkpt lat="44.054186298546014" lon="10.066994788743838"><ele>20.5</ele><time>2026-04-12T08:42:40Z</time></trkpt><trkpt lat="44.05425906149568" lon="10.066868277398342"><ele>20.75</ele><time>2026-04-12T08:42:41Z</time></trkpt><trkpt lat="44.05433359459314" lon="10.06674375938516"><ele>21.0</ele><time>2026-04-12T08:42:42Z</time></trkpt><trkpt lat="44.05440614983635" lon="10.066620275655946"><ele>20.75</ele><time>2026-04-12T08:42:43Z</time></trkpt><trkpt lat="44.05448029699279" lon="10.066497305846788"><ele>20.5</ele><time>2026-04-12T08:42:44Z</time></trkpt><trkpt lat="44.05455668811255" lon="10.066372622035678"><ele>20.25</ele><time>2026-04-12T08:42:45Z</time></trkpt><trkpt lat="44.054635239233406" lon="10.066247805098113"><ele>20.0</ele><time>2026-04-12T08:42:46Z</time></trkpt><trkpt lat="44.05470358507196" lon="10.066125786749652"><ele>20.0</ele><time>2026-04-12T08:42:47Z</time></trkpt><trkpt lat="44.05477583135588" lon="10.065998844087678"><ele>20.0</ele><time>2026-04-12T08:42:48Z</time></trkpt><trkpt lat="44.05484702916324" lon="10.06586711523393"><ele>20.0</ele><time>2026-04-12T08:42:49Z</time></trkpt><trkpt lat="44.05491313030893" lon="10.065733437042358"><ele>20.0</ele><time>2026-04-12T08:42:50Z</time></trkpt><trkpt lat="44.054971845025165" lon="10.065593086822833"><ele>20.25</ele><time>2026-04-12T08:42:51Z</time></trkpt><trkpt lat="44.055021467786716" lon="10.06544738072498"><ele>20.5</ele><time>2026-04-12T08:42:52Z</time></trkpt><trkpt lat="44.055064212200556" lon="10.065291781962959"><ele>20.75</ele><time>2026-04-12T08:42:53Z</time></trkpt><trkpt lat="44.05510114558081" lon="10.06513593191572"><ele>21.0</ele><time>2026-04-12T08:42:54Z</time></trkpt><trkpt lat="44.05512552105883" lon="10.064986112117822"><ele>20.8</ele><time>2026-04-12T08:42:55Z</time></trkpt><trkpt lat="44.055136367053905" lon="10.064824615476649"><ele>20.6</ele><time>2026-04-12T08:42:56Z</time></trkpt><trkpt lat="44.055146306462184" lon="10.064677907940272"><ele>20.4</ele><time>2026-04-12T08:42:57Z</time></trkpt><trkpt lat="44.05514906789284" lon="10.06453209662906"><ele>20.2</ele><time>2026-04-12T08:42:58Z</time></trkpt><trkpt lat="44.05514746746255" lon="10.064386386547636"><ele>20.0</ele><time>2026-04-12T08:42:59Z</time></trkpt><trkpt lat="44.05514362255276" lon="10.0642416104144"><ele>19.6</ele><time>2026-04-12T08:43:00Z</time></trkpt><trkpt lat="44.055139913706526" lon="10.064101104231534"><ele>19.2</ele><time>2026-04-12T08:43:01Z</time></trkpt><trkpt lat="44.0551397490636" lon="10.063960785088495"><ele>18.8</ele><time>2026-04-12T08:43:02Z</time></trkpt><trkpt lat="44.05514151911762" lon="10.063821292927443"><ele>18.4</ele><time>2026-04-12T08:43:03Z</time></trkpt><trkpt lat="44.05514059455426" lon="10.063689479866795"><ele>18.0</ele><time>2026-04-12T08:43:04Z</time></trkpt><trkpt lat="44.05513732359689" lon="10.063574622728602"><ele>18.0</ele><time>2026-04-12T08:43:05Z</time></trkpt><trkpt lat="44.055133835829444" lon="10.063482605530206"><ele>18.0</ele><time>2026-04-12T08:43:06Z</time></trkpt><trkpt lat="44.055142737191275" lon="10.063344754674167"><ele>18.0</ele><time>2026-04-12T08:43:08Z</time></trkpt><trkpt lat="44.05516555503004" lon="10.063261448366868"><ele>18.0</ele><time>2026-04-12T08:43:10.001Z</time></trkpt><trkpt lat="44.055210922038135" lon="10.06310404184413"><ele>18.0</ele><time>2026-04-12T08:43:12.001Z</time></trkpt><trkpt lat="44.05524301043376" lon="10.062983790566268"><ele>18.0</ele><time>2026-04-12T08:43:13.001Z</time></trkpt><trkpt lat="44.05526017193513" lon="10.062846352348833"><ele>18.0</ele><time>2026-04-12T08:43:14.001Z</time></trkpt><trkpt lat="44.055260638044416" lon="10.062692236761741"><ele>18.0</ele><time>2026-04-12T08:43:15.001Z</time></trkpt><trkpt lat="44.055264877144005" lon="10.062540411724996"><ele>18.0</ele><time>2026-04-12T08:43:16.001Z</time></trkpt><trkpt lat="44.055282757705" lon="10.062377452299485"><ele>18.0</ele><time>2026-04-12T08:43:17.001Z</time></trkpt><trkpt lat="44.055300515498296" lon="10.062208580027425"><ele>18.0</ele><time>2026-04-12T08:43:18.001Z</time></trkpt><trkpt lat="44.055401999390355" lon="10.062067592150873"><ele>18.0</ele><time>2026-04-12T08:43:19.001Z</time></trkpt><trkpt lat="44.05548444547194" lon="10.061921907117215"><ele>18.0</ele><time>2026-04-12T08:43:20.001Z</time></trkpt><trkpt lat="44.05556998021453" lon="10.061769397843722"><ele>18.0</ele><time>2026-04-12T08:43:21.001Z</time></trkpt><trkpt lat="44.055662713370516" lon="10.061617857228903"><ele>17.75</ele><time>2026-04-12T08:43:22.001Z</time></trkpt><trkpt lat="44.0557496536854" lon="10.06146787411667"><ele>17.5</ele><time>2026-04-12T08:43:23.001Z</time></trkpt><trkpt lat="44.05583770608542" lon="10.061316108640062"><ele>17.25</ele><time>2026-04-12T08:43:24.001Z</time></trkpt><trkpt lat="44.05592807609115" lon="10.061163017199517"><ele>17.0</ele><time>2026-04-12T08:43:25.001Z</time></trkpt><trkpt lat="44.056019400797084" lon="10.06100770777433"><ele>17.0</ele><time>2026-04-12T08:43:26.001Z</time></trkpt><trkpt lat="44.056111014281974" lon="10.06085423835476"><ele>17.0</ele><time>2026-04-12T08:43:27.001Z</time></trkpt><trkpt lat="44.05620223609533" lon="10.06069977784615"><ele>17.0</ele><time>2026-04-12T08:43:28.001Z</time></trkpt><trkpt lat="44.05629421780323" lon="10.060546100529915"><ele>17.0</ele><time>2026-04-12T08:43:29.001Z</time></trkpt><trkpt lat="44.05638591856224" lon="10.06039005151055"><ele>17.0</ele><time>2026-04-12T08:43:30.001Z</time></trkpt><trkpt lat="44.056475881891174" lon="10.060230044477567"><ele>17.0</ele><time>2026-04-12T08:43:31.001Z</time></trkpt><trkpt lat="44.056565743970324" lon="10.060079280069125"><ele>17.0</ele><time>2026-04-12T08:43:32.001Z</time></trkpt><trkpt lat="44.056655741687415" lon="10.059932282718114"><ele>17.0</ele><time>2026-04-12T08:43:33.001Z</time></trkpt><trkpt lat="44.05673894800963" lon="10.059786416763734"><ele>17.0</ele><time>2026-04-12T08:43:34.001Z</time></trkpt><trkpt lat="44.056825123099095" lon="10.059646980697627"><ele>17.0</ele><time>2026-04-12T08:43:35.001Z</time></trkpt><trkpt lat="44.056903939031535" lon="10.059508425306344"><ele>17.0</ele><time>2026-04-12T08:43:36.001Z</time></trkpt><trkpt lat="44.056982922115715" lon="10.059370588101482"><ele>17.0</ele><time>2026-04-12T08:43:37.001Z</time></trkpt><trkpt lat="44.05706127182116" lon="10.059230541574825"><ele>17.5</ele><time>2026-04-12T08:43:38.001Z</time></trkpt><trkpt lat="44.05713807432889" lon="10.059092025854808"><ele>18.0</ele><time>2026-04-12T08:43:39.001Z</time></trkpt><trkpt lat="44.057220776209476" lon="10.058953366227422"><ele>18.5</ele><time>2026-04-12T08:43:40.001Z</time></trkpt><trkpt lat="44.05730387574333" lon="10.05881671392353"><ele>19.0</ele><time>2026-04-12T08:43:41.001Z</time></trkpt><trkpt lat="44.0573882172095" lon="10.058681498200507"><ele>19.0</ele><time>2026-04-12T08:43:42.001Z</time></trkpt><trkpt lat="44.057472366189025" lon="10.058544456237527"><ele>19.0</ele><time>2026-04-12T08:43:43.001Z</time></trkpt><trkpt lat="44.05755226765619" lon="10.058404877026875"><ele>19.0</ele><time>2026-04-12T08:43:44.001Z</time></trkpt><trkpt lat="44.057631550037485" lon="10.058263380481595"><ele>19.0</ele><time>2026-04-12T08:43:45.001Z</time></trkpt><trkpt lat="44.0577076326441" lon="10.058130893479715"><ele>18.5</ele><time>2026-04-12T08:43:46.001Z</time></trkpt><trkpt lat="44.05779137920723" lon="10.05798684960779"><ele>18.0</ele><time>2026-04-12T08:43:47.001Z</time></trkpt><trkpt lat="44.057882552954545" lon="10.057837844885213"><ele>17.5</ele><time>2026-04-12T08:43:48.001Z</time></trkpt><trkpt lat="44.05796181107779" lon="10.0576852657949"><ele>17.0</ele><time>2026-04-12T08:43:49.001Z</time></trkpt><trkpt lat="44.05804048980785" lon="10.057535156416566"><ele>17.0</ele><time>2026-04-12T08:43:50.001Z</time></trkpt><trkpt lat="44.058119162998366" lon="10.057381924173084"><ele>17.0</ele><time>2026-04-12T08:43:51.001Z</time></trkpt><trkpt lat="44.058191988353805" lon="10.057227236400049"><ele>17.0</ele><time>2026-04-12T08:43:52.001Z</time></trkpt><trkpt lat="44.05826053127351" lon="10.057055830674463"><ele>17.0</ele><time>2026-04-12T08:43:53.001Z</time></trkpt><trkpt lat="44.058317997863796" lon="10.056882135322862"><ele>17.0</ele><time>2026-04-12T08:43:54.001Z</time></trkpt><trkpt lat="44.05837048136808" lon="10.056698806685167"><ele>17.0</ele><time>2026-04-12T08:43:55.001Z</time></trkpt><trkpt lat="44.058414720608525" lon="10.056509646781498"><ele>17.0</ele><time>2026-04-12T08:43:56.001Z</time></trkpt><trkpt lat="44.058468668199396" lon="10.056328274621357"><ele>17.0</ele><time>2026-04-12T08:43:57.001Z</time></trkpt><trkpt lat="44.05849864661902" lon="10.056123759880105"><ele>16.5</ele><time>2026-04-12T08:43:58.001Z</time></trkpt><trkpt lat="44.0585214935013" lon="10.055913567279257"><ele>16.0</ele><time>2026-04-12T08:43:59.001Z</time></trkpt><trkpt lat="44.05854273535629" lon="10.055706882626879"><ele>15.5</ele><time>2026-04-12T08:44:00.001Z</time></trkpt><trkpt lat="44.058553978308375" lon="10.055506053644416"><ele>15.0</ele><time>2026-04-12T08:44:01.001Z</time></trkpt><trkpt lat="44.05856623321519" lon="10.055311540586557"><ele>15.0</ele><time>2026-04-12T08:44:02.001Z</time></trkpt><trkpt lat="44.05857861383963" lon="10.055122083553037"><ele>15.0</ele><time>2026-04-12T08:44:03.001Z</time></trkpt><trkpt lat="44.058591346423626" lon="10.054926981112974"><ele>15.0</ele><time>2026-04-12T08:44:04.001Z</time></trkpt><trkpt lat="44.05860979380994" lon="10.054729160544557"><ele>15.0</ele><time>2026-04-12T08:44:05.001Z</time></trkpt><trkpt lat="44.05862303337452" lon="10.05453580133939"><ele>14.75</ele><time>2026-04-12T08:44:06.001Z</time></trkpt><trkpt lat="44.05864083421405" lon="10.054336082532288"><ele>14.5</ele><time>2026-04-12T08:44:07.001Z</time></trkpt><trkpt lat="44.05865754641968" lon="10.054135945209657"><ele>14.25</ele><time>2026-04-12T08:44:08.001Z</time></trkpt><trkpt lat="44.05867324485826" lon="10.053929729483967"><ele>14.0</ele><time>2026-04-12T08:44:09.001Z</time></trkpt><trkpt lat="44.05869011742761" lon="10.053730688726452"><ele>13.75</ele><time>2026-04-12T08:44:10.001Z</time></trkpt><trkpt lat="44.058707590905904" lon="10.05352834263451"><ele>13.5</ele><time>2026-04-12T08:44:11.001Z</time></trkpt><trkpt lat="44.05872531240666" lon="10.053329648110333"><ele>13.25</ele><time>2026-04-12T08:44:12.001Z</time></trkpt><trkpt lat="44.058741416741356" lon="10.05312432993084"><ele>13.0</ele><time>2026-04-12T08:44:13.001Z</time></trkpt><trkpt lat="44.05875885197757" lon="10.052921046021357"><ele>12.5</ele><time>2026-04-12T08:44:14.001Z</time></trkpt><trkpt lat="44.05876952144451" lon="10.052720674519591"><ele>12.0</ele><time>2026-04-12T08:44:15Z</time></trkpt><trkpt lat="44.058787338395476" lon="10.052526696126316"><ele>11.5</ele><time>2026-04-12T08:44:16Z</time></trkpt><trkpt lat="44.05880319604927" lon="10.05232990089243"><ele>11.0</ele><time>2026-04-12T08:44:17Z</time></trkpt><trkpt lat="44.05881977236628" lon="10.052131450919145"><ele>10.5</ele><time>2026-04-12T08:44:18Z</time></trkpt><trkpt lat="44.058836199209054" lon="10.051928975832157"><ele>10.0</ele><time>2026-04-12T08:44:19Z</time></trkpt><trkpt lat="44.05885442725137" lon="10.05172240654561"><ele>9.5</ele><time>2026-04-12T08:44:20Z</time></trkpt><trkpt lat="44.0588727283362" lon="10.051517701276737"><ele>9.0</ele><time>2026-04-12T08:44:21Z</time></trkpt><trkpt lat="44.05888761332864" lon="10.051312138092912"><ele>9.0</ele><time>2026-04-12T08:44:22Z</time></trkpt><trkpt lat="44.05890295714919" lon="10.05110367081233"><ele>9.0</ele><time>2026-04-12T08:44:23Z</time></trkpt><trkpt lat="44.05892156789606" lon="10.050895386103615"><ele>9.0</ele><time>2026-04-12T08:44:24Z</time></trkpt><trkpt lat="44.05894027723604" lon="10.050685762427186"><ele>8.666666666666666</ele><time>2026-04-12T08:44:25Z</time></trkpt><trkpt lat="44.05895835905031" lon="10.050474971897652"><ele>8.333333333333332</ele><time>2026-04-12T08:44:26Z</time></trkpt><trkpt lat="44.058975985497206" lon="10.050263192821571"><ele>8.0</ele><time>2026-04-12T08:44:27Z</time></trkpt><trkpt lat="44.05899186230995" lon="10.05005008254545"><ele>7.666666666666666</ele><time>2026-04-12T08:44:28Z</time></trkpt><trkpt lat="44.059007873590424" lon="10.04983796200506"><ele>7.333333333333334</ele><time>2026-04-12T08:44:29Z</time></trkpt><trkpt lat="44.05902464169027" lon="10.049624524906351"><ele>7.0</ele><time>2026-04-12T08:44:30Z</time></trkpt><trkpt lat="44.05904116887286" lon="10.049413747290066"><ele>7.0</ele><time>2026-04-12T08:44:31Z</time></trkpt><trkpt lat="44.05905690696174" lon="10.049202575003788"><ele>7.0</ele><time>2026-04-12T08:44:32Z</time></trkpt><trkpt lat="44.059071872448634" lon="10.04898488825193"><ele>7.0</ele><time>2026-04-12T08:44:33Z</time></trkpt><trkpt lat="44.059086659797075" lon="10.048772292503253"><ele>6.75</ele><time>2026-04-12T08:44:34Z</time></trkpt><trkpt lat="44.059101506029094" lon="10.048564180347027"><ele>6.5</ele><time>2026-04-12T08:44:35Z</time></trkpt><trkpt lat="44.05911571070259" lon="10.04836145344107"><ele>6.25</ele><time>2026-04-12T08:44:36Z</time></trkpt><trkpt lat="44.05913400265072" lon="10.04816050258448"><ele>6.0</ele><time>2026-04-12T08:44:37Z</time></trkpt><trkpt lat="44.05915423481167" lon="10.047954779523891"><ele>5.75</ele><time>2026-04-12T08:44:38Z</time></trkpt><trkpt lat="44.05917043901178" lon="10.04775143859883"><ele>5.5</ele><time>2026-04-12T08:44:39Z</time></trkpt><trkpt lat="44.05918716456875" lon="10.047548925853405"><ele>5.25</ele><time>2026-04-12T08:44:40Z</time></trkpt><trkpt lat="44.05920038732444" lon="10.047350207128902"><ele>5.0</ele><time>2026-04-12T08:44:41Z</time></trkpt><trkpt lat="44.05921770591497" lon="10.047173338984567"><ele>5.0</ele><time>2026-04-12T08:44:42Z</time></trkpt><trkpt lat="44.05922984701322" lon="10.04705461518662"><ele>5.0</ele><time>2026-04-12T08:44:43Z</time></trkpt><trkpt lat="44.059250387619976" lon="10.04693290651539"><ele>5.0</ele><time>2026-04-12T08:45:28.001Z</time></trkpt><trkpt lat="44.05927540496206" lon="10.046740078262669"><ele>5.0</ele><time>2026-04-12T08:45:30.001Z</time></trkpt><trkpt lat="44.05928560106632" lon="10.046615261316617"><ele>5.0</ele><time>2026-04-12T08:45:31.001Z</time></trkpt><trkpt lat="44.05930778111473" lon="10.046481701482847"><ele>5.25</ele><time>2026-04-12T08:45:32.001Z</time></trkpt><trkpt lat="44.059344291901944" lon="10.046335191539361"><ele>5.5</ele><time>2026-04-12T08:45:33.001Z</time></trkpt><trkpt lat="44.059392045689435" lon="10.046189029128879"><ele>5.75</ele><time>2026-04-12T08:45:34.001Z</time></trkpt><trkpt lat="44.05943895413894" lon="10.046041758932033"><ele>6.0</ele><time>2026-04-12T08:45:35.001Z</time></trkpt><trkpt lat="44.05948362948748" lon="10.045892989774442"><ele>5.75</ele><time>2026-04-12T08:45:36.001Z</time></trkpt><trkpt lat="44.05953521901008" lon="10.045735576232287"><ele>5.5</ele><time>2026-04-12T08:45:37.001Z</time></trkpt><trkpt lat="44.0595901547683" lon="10.045565704202527"><ele>5.25</ele><time>2026-04-12T08:45:38.001Z</time></trkpt><trkpt lat="44.05965097765138" lon="10.045390253656237"><ele>5.0</ele><time>2026-04-12T08:45:39.001Z</time></trkpt><trkpt lat="44.05970804283846" lon="10.04521250365734"><ele>5.0</ele><time>2026-04-12T08:45:40.001Z</time></trkpt><trkpt lat="44.059766229708146" lon="10.045029162008758"><ele>5.0</ele><time>2026-04-12T08:45:41.001Z</time></trkpt><trkpt lat="44.05982983329438" lon="10.044839412530088"><ele>5.0</ele><time>2026-04-12T08:45:42.001Z</time></trkpt><trkpt lat="44.05989130244393" lon="10.044644136381189"><ele>5.0</ele><time>2026-04-12T08:45:43.001Z</time></trkpt><trkpt lat="44.059950628032865" lon="10.044455541590452"><ele>5.0</ele><time>2026-04-12T08:45:44.001Z</time></trkpt><trkpt lat="44.06000709724024" lon="10.044280361564352"><ele>5.0</ele><time>2026-04-12T08:45:45.001Z</time></trkpt><trkpt lat="44.060065891711055" lon="10.044106289491674"><ele>5.0</ele><time>2026-04-12T08:45:46.001Z</time></trkpt><trkpt lat="44.06011808627588" lon="10.043945524719115"><ele>5.0</ele><time>2026-04-12T08:45:47.001Z</time></trkpt><trkpt lat="44.060166641225116" lon="10.04379503299446"><ele>5.0</ele><time>2026-04-12T08:45:48.001Z</time></trkpt><trkpt lat="44.060213020314144" lon="10.04365097930737"><ele>5.0</ele><time>2026-04-12T08:45:49.001Z</time></trkpt><trkpt lat="44.06025744633118" lon="10.043513402847129"><ele>5.0</ele><time>2026-04-12T08:45:50.001Z</time></trkpt><trkpt lat="44.06030862447049" lon="10.043376210859401"><ele>5.0</ele><time>2026-04-12T08:45:51.001Z</time></trkpt><trkpt lat="44.06035897866557" lon="10.043236068205106"><ele>5.0</ele><time>2026-04-12T08:45:52.001Z</time></trkpt><trkpt lat="44.0604158554826" lon="10.043100209406937"><ele>5.0</ele><time>2026-04-12T08:45:53.001Z</time></trkpt><trkpt lat="44.06047823196726" lon="10.0429640995439"><ele>5.0</ele><time>2026-04-12T08:45:54.001Z</time></trkpt><trkpt lat="44.06054194673501" lon="10.042841274528254"><ele>5.0</ele><time>2026-04-12T08:45:55.001Z</time></trkpt><trkpt lat="44.06061054491217" lon="10.042728154213576"><ele>5.0</ele><time>2026-04-12T08:45:56.001Z</time></trkpt><trkpt lat="44.06067429315648" lon="10.04261592621723"><ele>5.0</ele><time>2026-04-12T08:45:57.001Z</time></trkpt><trkpt lat="44.06073794873575" lon="10.042504806546662"><ele>5.6</ele><time>2026-04-12T08:45:58.001Z</time></trkpt><trkpt lat="44.06079697750063" lon="10.0423983591936"><ele>6.2</ele><time>2026-04-12T08:45:59.001Z</time></trkpt><trkpt lat="44.060859584866975" lon="10.042286609169688"><ele>6.800000000000001</ele><time>2026-04-12T08:46:00.001Z</time></trkpt><trkpt lat="44.06092505477716" lon="10.04216519451582"><ele>7.4</ele><time>2026-04-12T08:46:01.001Z</time></trkpt><trkpt lat="44.06099922400491" lon="10.042048798112678"><ele>8.0</ele><time>2026-04-12T08:46:02.001Z</time></trkpt><trkpt lat="44.06107023836425" lon="10.041930954915651"><ele>8.0</ele><time>2026-04-12T08:46:03.001Z</time></trkpt><trkpt lat="44.06113878863591" lon="10.041811395038273"><ele>8.0</ele><time>2026-04-12T08:46:04.001Z</time></trkpt><trkpt lat="44.06120536406857" lon="10.041691234219545"><ele>8.0</ele><time>2026-04-12T08:46:05.001Z</time></trkpt><trkpt lat="44.06127605474584" lon="10.041571355922116"><ele>8.0</ele><time>2026-04-12T08:46:06.001Z</time></trkpt><trkpt lat="44.06134483267575" lon="10.04145552820949"><ele>8.0</ele><time>2026-04-12T08:46:07.001Z</time></trkpt><trkpt lat="44.06141117748364" lon="10.0413451852707"><ele>7.800000000000001</ele><time>2026-04-12T08:46:08.001Z</time></trkpt><trkpt lat="44.061474372071004" lon="10.041234283358843"><ele>7.6000000000000005</ele><time>2026-04-12T08:46:09.001Z</time></trkpt><trkpt lat="44.061539909454105" lon="10.04111673279535"><ele>7.3999999999999995</ele><time>2026-04-12T08:46:10.001Z</time></trkpt><trkpt lat="44.0616059476251" lon="10.040995894559215"><ele>7.199999999999999</ele><time>2026-04-12T08:46:11.001Z</time></trkpt><trkpt lat="44.06168476418314" lon="10.04085180067853"><ele>7.0</ele><time>2026-04-12T08:46:12.001Z</time></trkpt><trkpt lat="44.06177859483914" lon="10.040682582667053"><ele>6.666666666666667</ele><time>2026-04-12T08:46:13.001Z</time></trkpt><trkpt lat="44.06187773391316" lon="10.040501111378193"><ele>6.333333333333334</ele><time>2026-04-12T08:46:14.001Z</time></trkpt><trkpt lat="44.061981387065046" lon="10.040312131077517"><ele>6.0</ele><time>2026-04-12T08:46:15.001Z</time></trkpt><trkpt lat="44.06208344773565" lon="10.040118086871399"><ele>6.0</ele><time>2026-04-12T08:46:16.001Z</time></trkpt><trkpt lat="44.06217685357148" lon="10.039928795546881"><ele>6.0</ele><time>2026-04-12T08:46:17.001Z</time></trkpt><trkpt lat="44.062261465806266" lon="10.039732871735838"><ele>6.0</ele><time>2026-04-12T08:46:18.001Z</time></trkpt><trkpt lat="44.0623368913129" lon="10.03954153371466"><ele>6.0</ele><time>2026-04-12T08:46:19.001Z</time></trkpt><trkpt lat="44.06239963409401" lon="10.039345645120067"><ele>6.0</ele><time>2026-04-12T08:46:20.001Z</time></trkpt><trkpt lat="44.06245383918369" lon="10.039161903947521"><ele>6.0</ele><time>2026-04-12T08:46:21Z</time></trkpt><trkpt lat="44.062507234843444" lon="10.039001093142172"><ele>6.0</ele><time>2026-04-12T08:46:22Z</time></trkpt><trkpt lat="44.0625655909631" lon="10.038821802296344"><ele>7.0</ele><time>2026-04-12T08:46:23Z</time></trkpt><trkpt lat="44.06263268768244" lon="10.03862387129505"><ele>8.0</ele><time>2026-04-12T08:46:24Z</time></trkpt><trkpt lat="44.062704468684636" lon="10.03840983790075"><ele>9.0</ele><time>2026-04-12T08:46:25Z</time></trkpt><trkpt lat="44.062784886095216" lon="10.038201602664827"><ele>9.0</ele><time>2026-04-12T08:46:26Z</time></trkpt><trkpt lat="44.062861858828335" lon="10.038009746649278"><ele>9.0</ele><time>2026-04-12T08:46:27Z</time></trkpt><trkpt lat="44.06292664444729" lon="10.03782215762082"><ele>9.0</ele><time>2026-04-12T08:46:28Z</time></trkpt><trkpt lat="44.06299074270794" lon="10.037662039775494"><ele>9.0</ele><time>2026-04-12T08:46:29Z</time></trkpt><trkpt lat="44.063049336784566" lon="10.037489786803972"><ele>8.5</ele><time>2026-04-12T08:46:30Z</time></trkpt><trkpt lat="44.06310937469123" lon="10.037313393579911"><ele>8.0</ele><time>2026-04-12T08:46:31Z</time></trkpt><trkpt lat="44.06316870995926" lon="10.037119817123608"><ele>7.5</ele><time>2026-04-12T08:46:32Z</time></trkpt><trkpt lat="44.063234371592515" lon="10.03692250547035"><ele>7.0</ele><time>2026-04-12T08:46:33Z</time></trkpt><trkpt lat="44.06330743718085" lon="10.0367289918615"><ele>7.5</ele><time>2026-04-12T08:46:34Z</time></trkpt><trkpt lat="44.06337755925286" lon="10.036552817467697"><ele>8.0</ele><time>2026-04-12T08:46:35Z</time></trkpt><trkpt lat="44.063445426103385" lon="10.036396449472516"><ele>8.5</ele><time>2026-04-12T08:46:36Z</time></trkpt><trkpt lat="44.063511333995606" lon="10.036252118742285"><ele>9.0</ele><time>2026-04-12T08:46:37Z</time></trkpt><trkpt lat="44.06357754633751" lon="10.036107986134205"><ele>9.0</ele><time>2026-04-12T08:46:38Z</time></trkpt><trkpt lat="44.06364997824742" lon="10.035966633273166"><ele>9.0</ele><time>2026-04-12T08:46:39Z</time></trkpt><trkpt lat="44.06372682491192" lon="10.035819487466842"><ele>9.0</ele><time>2026-04-12T08:46:40Z</time></trkpt><trkpt lat="44.063810387458766" lon="10.03567020715364"><ele>9.0</ele><time>2026-04-12T08:46:41Z</time></trkpt><trkpt lat="44.06389435936011" lon="10.035517709736592"><ele>8.75</ele><time>2026-04-12T08:46:42Z</time></trkpt><trkpt lat="44.063979635029916" lon="10.035367250067335"><ele>8.5</ele><time>2026-04-12T08:46:43Z</time></trkpt><trkpt lat="44.064061041269355" lon="10.035224596933991"><ele>8.25</ele><time>2026-04-12T08:46:44Z</time></trkpt><trkpt lat="44.064143303348565" lon="10.035075714913297"><ele>8.0</ele><time>2026-04-12T08:46:45Z</time></trkpt><trkpt lat="44.06422489549826" lon="10.034923847807615"><ele>8.75</ele><time>2026-04-12T08:46:46Z</time></trkpt><trkpt lat="44.0643069042424" lon="10.034773410066828"><ele>9.5</ele><time>2026-04-12T08:46:47Z</time></trkpt><trkpt lat="44.06438665368692" lon="10.034620585078526"><ele>10.25</ele><time>2026-04-12T08:46:48Z</time></trkpt><trkpt lat="44.06446694994006" lon="10.034468697773928"><ele>11.0</ele><time>2026-04-12T08:46:49Z</time></trkpt><trkpt lat="44.06454660959921" lon="10.034312755483498"><ele>11.0</ele><time>2026-04-12T08:46:50Z</time></trkpt><trkpt lat="44.06462792239149" lon="10.034165124181698"><ele>11.0</ele><time>2026-04-12T08:46:51Z</time></trkpt><trkpt lat="44.06470534166902" lon="10.034026035571834"><ele>11.0</ele><time>2026-04-12T08:46:52Z</time></trkpt><trkpt lat="44.06478136146296" lon="10.03389195964725"><ele>11.0</ele><time>2026-04-12T08:46:53Z</time></trkpt><trkpt lat="44.06484909719117" lon="10.033768583634414"><ele>11.25</ele><time>2026-04-12T08:46:54Z</time></trkpt><trkpt lat="44.06491543313163" lon="10.03364439861183"><ele>11.5</ele><time>2026-04-12T08:46:55Z</time></trkpt><trkpt lat="44.064981988423405" lon="10.033519639068425"><ele>11.75</ele><time>2026-04-12T08:46:56Z</time></trkpt><trkpt lat="44.06505086803265" lon="10.03339086725136"><ele>12.0</ele><time>2026-04-12T08:46:57Z</time></trkpt><trkpt lat="44.06511926307465" lon="10.033264134903424"><ele>12.5</ele><time>2026-04-12T08:46:58Z</time></trkpt><trkpt lat="44.065189103948825" lon="10.033138729120521"><ele>13.0</ele><time>2026-04-12T08:46:59Z</time></trkpt><trkpt lat="44.065263102277726" lon="10.033012714555419"><ele>13.5</ele><time>2026-04-12T08:47:00Z</time></trkpt><trkpt lat="44.06533568886385" lon="10.03289418509851"><ele>14.0</ele><time>2026-04-12T08:47:01Z</time></trkpt><trkpt lat="44.065409697448594" lon="10.032775701646331"><ele>14.0</ele><time>2026-04-12T08:47:02Z</time></trkpt><trkpt lat="44.06548211481595" lon="10.032661592195128"><ele>13.999999999999998</ele><time>2026-04-12T08:47:03Z</time></trkpt><trkpt lat="44.065550935825755" lon="10.032551911628042"><ele>13.999999999999998</ele><time>2026-04-12T08:47:04Z</time></trkpt><trkpt lat="44.065629291884214" lon="10.032439617544998"><ele>14.0</ele><time>2026-04-12T08:47:05Z</time></trkpt><trkpt lat="44.06570609826197" lon="10.03232856277156"><ele>14.0</ele><time>2026-04-12T08:47:06Z</time></trkpt><trkpt lat="44.06578582144084" lon="10.032213344879258"><ele>14.75</ele><time>2026-04-12T08:47:07Z</time></trkpt><trkpt lat="44.065867141907844" lon="10.032091949769802"><ele>15.5</ele><time>2026-04-12T08:47:08Z</time></trkpt><trkpt lat="44.06594876873031" lon="10.031958378933124"><ele>16.25</ele><time>2026-04-12T08:47:09Z</time></trkpt><trkpt lat="44.066030772465055" lon="10.031811072642686"><ele>17.0</ele><time>2026-04-12T08:47:10Z</time></trkpt><trkpt lat="44.06611862095093" lon="10.03165586188318"><ele>16.666666666666668</ele><time>2026-04-12T08:47:11Z</time></trkpt><trkpt lat="44.066204876035656" lon="10.031481694530449"><ele>16.333333333333332</ele><time>2026-04-12T08:47:12Z</time></trkpt><trkpt lat="44.06629572251912" lon="10.031299734810585"><ele>16.0</ele><time>2026-04-12T08:47:13Z</time></trkpt><trkpt lat="44.06639444113943" lon="10.031116937008838"><ele>16.0</ele><time>2026-04-12T08:47:14Z</time></trkpt><trkpt lat="44.06649516973242" lon="10.030923819885828"><ele>16.0</ele><time>2026-04-12T08:47:15Z</time></trkpt><trkpt lat="44.06660856710162" lon="10.030751370866849"><ele>16.0</ele><time>2026-04-12T08:47:16Z</time></trkpt><trkpt lat="44.066706653235585" lon="10.030570621981548"><ele>16.25</ele><time>2026-04-12T08:47:17Z</time></trkpt><trkpt lat="44.06678364446684" lon="10.030395016197119"><ele>16.5</ele><time>2026-04-12T08:47:18Z</time></trkpt><trkpt lat="44.06687096020497" lon="10.030243320958622"><ele>16.75</ele><time>2026-04-12T08:47:19Z</time></trkpt><trkpt lat="44.06695051927644" lon="10.030095833350122"><ele>17.0</ele><time>2026-04-12T08:47:20Z</time></trkpt><trkpt lat="44.06702657191358" lon="10.029945898577667"><ele>17.0</ele><time>2026-04-12T08:47:21Z</time></trkpt><trkpt lat="44.06710421224702" lon="10.029793163452236"><ele>17.0</ele><time>2026-04-12T08:47:22Z</time></trkpt><trkpt lat="44.06718621022526" lon="10.029641044044917"><ele>17.0</ele><time>2026-04-12T08:47:23Z</time></trkpt><trkpt lat="44.06726741099687" lon="10.029487670226581"><ele>17.0</ele><time>2026-04-12T08:47:24Z</time></trkpt><trkpt lat="44.06734656755746" lon="10.029336309927182"><ele>17.0</ele><time>2026-04-12T08:47:25Z</time></trkpt><trkpt lat="44.067423361219845" lon="10.029188589940821"><ele>17.0</ele><time>2026-04-12T08:47:26Z</time></trkpt><trkpt lat="44.06749671210878" lon="10.029044544900652"><ele>17.0</ele><time>2026-04-12T08:47:27Z</time></trkpt><trkpt lat="44.06756875671237" lon="10.028899355069932"><ele>17.0</ele><time>2026-04-12T08:47:28.001Z</time></trkpt><trkpt lat="44.06764012889506" lon="10.028767471736872"><ele>16.833333333333336</ele><time>2026-04-12T08:47:29.001Z</time></trkpt><trkpt lat="44.0677053172525" lon="10.028649306463397"><ele>16.666666666666668</ele><time>2026-04-12T08:47:30.001Z</time></trkpt><trkpt lat="44.067757790733516" lon="10.028553023555114"><ele>16.5</ele><time>2026-04-12T08:47:31.001Z</time></trkpt><trkpt lat="44.067798095865825" lon="10.028477340947187"><ele>16.333333333333332</ele><time>2026-04-12T08:47:32.001Z</time></trkpt><trkpt lat="44.067839973064785" lon="10.028399824364183"><ele>16.166666666666664</ele><time>2026-04-12T08:47:33.001Z</time></trkpt><trkpt lat="44.067884991708894" lon="10.028316513492546"><ele>16.0</ele><time>2026-04-12T08:47:34.001Z</time></trkpt><trkpt lat="44.067937576475174" lon="10.028224204468916"><ele>15.999999999999998</ele><time>2026-04-12T08:47:35.001Z</time></trkpt><trkpt lat="44.06798831123684" lon="10.028128300701594"><ele>16.0</ele><time>2026-04-12T08:47:36.001Z</time></trkpt><trkpt lat="44.06803675217058" lon="10.028034713130605"><ele>16.0</ele><time>2026-04-12T08:47:37.001Z</time></trkpt><trkpt lat="44.06808143403579" lon="10.027948644608346"><ele>16.0</ele><time>2026-04-12T08:47:38.001Z</time></trkpt><trkpt lat="44.068123158262964" lon="10.027872962280195"><ele>15.999999999999998</ele><time>2026-04-12T08:47:39.001Z</time></trkpt><trkpt lat="44.06816722268958" lon="10.027794066908408"><ele>16.0</ele><time>2026-04-12T08:47:40.001Z</time></trkpt><trkpt lat="44.06821667284506" lon="10.027704723658879"><ele>16.0</ele><time>2026-04-12T08:47:41.001Z</time></trkpt><trkpt lat="44.06827111375165" lon="10.027604027536118"><ele>16.0</ele><time>2026-04-12T08:47:42.001Z</time></trkpt><trkpt lat="44.06832982467002" lon="10.027494844785034"><ele>16.0</ele><time>2026-04-12T08:47:43.001Z</time></trkpt><trkpt lat="44.0683924184518" lon="10.027380527535076"><ele>16.0</ele><time>2026-04-12T08:47:44.001Z</time></trkpt><trkpt lat="44.06845562659863" lon="10.027267637494797"><ele>16.0</ele><time>2026-04-12T08:47:45.001Z</time></trkpt><trkpt lat="44.068521009178646" lon="10.02714828596881"><ele>16.2</ele><time>2026-04-12T08:47:46.001Z</time></trkpt><trkpt lat="44.06858344215853" lon="10.027033377887879"><ele>16.400000000000002</ele><time>2026-04-12T08:47:47.001Z</time></trkpt><trkpt lat="44.06865399590943" lon="10.026922573115474"><ele>16.6</ele><time>2026-04-12T08:47:48.001Z</time></trkpt><trkpt lat="44.06872790762739" lon="10.026808482573834"><ele>16.8</ele><time>2026-04-12T08:47:49.001Z</time></trkpt><trkpt lat="44.06880565967563" lon="10.026687302967444"><ele>17.0</ele><time>2026-04-12T08:47:50.001Z</time></trkpt><trkpt lat="44.068884485279376" lon="10.02657074677233"><ele>17.0</ele><time>2026-04-12T08:47:51.001Z</time></trkpt><trkpt lat="44.06896197499636" lon="10.026450895658956"><ele>17.0</ele><time>2026-04-12T08:47:52.001Z</time></trkpt><trkpt lat="44.06904129305887" lon="10.026330746599928"><ele>17.0</ele><time>2026-04-12T08:47:53.001Z</time></trkpt><trkpt lat="44.06911723456749" lon="10.026212683882802"><ele>17.0</ele><time>2026-04-12T08:47:54.001Z</time></trkpt><trkpt lat="44.069196759341814" lon="10.026090937858289"><ele>17.25</ele><time>2026-04-12T08:47:55.001Z</time></trkpt><trkpt lat="44.06928278417007" lon="10.025971999576443"><ele>17.5</ele><time>2026-04-12T08:47:56.001Z</time></trkpt><trkpt lat="44.06936813899459" lon="10.02585575422697"><ele>17.75</ele><time>2026-04-12T08:47:57.001Z</time></trkpt><trkpt lat="44.06945364005972" lon="10.025734515184547"><ele>18.0</ele><time>2026-04-12T08:47:58.001Z</time></trkpt><trkpt lat="44.06953453878338" lon="10.025611411189074"><ele>18.0</ele><time>2026-04-12T08:47:59.001Z</time></trkpt><trkpt lat="44.069616435828806" lon="10.025485442026573"><ele>18.0</ele><time>2026-04-12T08:48:00.001Z</time></trkpt><trkpt lat="44.069694442909565" lon="10.025363667121875"><ele>18.0</ele><time>2026-04-12T08:48:01.001Z</time></trkpt><trkpt lat="44.069772045427534" lon="10.025243550476363"><ele>18.0</ele><time>2026-04-12T08:48:02.001Z</time></trkpt><trkpt lat="44.06985546311411" lon="10.025124442773096"><ele>18.0</ele><time>2026-04-12T08:48:03.001Z</time></trkpt><trkpt lat="44.069933871565645" lon="10.025008580029619"><ele>18.0</ele><time>2026-04-12T08:48:04.001Z</time></trkpt><trkpt lat="44.07001357629986" lon="10.024893289023142"><ele>18.0</ele><time>2026-04-12T08:48:05.001Z</time></trkpt><trkpt lat="44.07008668075412" lon="10.024778799835959"><ele>18.0</ele><time>2026-04-12T08:48:06.001Z</time></trkpt><trkpt lat="44.070160498242586" lon="10.024672454200505"><ele>18.0</ele><time>2026-04-12T08:48:07.001Z</time></trkpt><trkpt lat="44.07021914735947" lon="10.024579738466953"><ele>18.2</ele><time>2026-04-12T08:48:08.001Z</time></trkpt><trkpt lat="44.07027637950811" lon="10.02450333931126"><ele>18.4</ele><time>2026-04-12T08:48:09.001Z</time></trkpt><trkpt lat="44.07032455610474" lon="10.024432987389222"><ele>18.599999999999998</ele><time>2026-04-12T08:48:10.001Z</time></trkpt><trkpt lat="44.07039306888642" lon="10.024332057281898"><ele>18.8</ele><time>2026-04-12T08:48:12.001Z</time></trkpt><trkpt lat="44.07045830956248" lon="10.024240386473938"><ele>19.0</ele><time>2026-04-12T08:48:14.001Z</time></trkpt><trkpt lat="44.07054716120199" lon="10.024113851438168"><ele>19.0</ele><time>2026-04-12T08:48:16.001Z</time></trkpt><trkpt lat="44.070621961213845" lon="10.024001270560094"><ele>19.0</ele><time>2026-04-12T08:48:18.001Z</time></trkpt><trkpt lat="44.0706689555081" lon="10.023934303274237"><ele>19.0</ele><time>2026-04-12T08:48:20.001Z</time></trkpt><trkpt lat="44.07073633087303" lon="10.023825083514584"><ele>19.0</ele><time>2026-04-12T08:48:22.001Z</time></trkpt><trkpt lat="44.07078669235601" lon="10.023745306750822"><ele>19.0</ele><time>2026-04-12T08:48:23.001Z</time></trkpt><trkpt lat="44.07083915868932" lon="10.023662887365601"><ele>19.0</ele><time>2026-04-12T08:48:24.001Z</time></trkpt><trkpt lat="44.07089707315213" lon="10.023553568971717"><ele>19.25</ele><time>2026-04-12T08:48:25.001Z</time></trkpt><trkpt lat="44.070963965089256" lon="10.02342347973456"><ele>19.5</ele><time>2026-04-12T08:48:26.001Z</time></trkpt><trkpt lat="44.071060252525115" lon="10.023293661213868"><ele>19.75</ele><time>2026-04-12T08:48:27Z</time></trkpt><trkpt lat="44.071142672798565" lon="10.023134579049044"><ele>20.0</ele><time>2026-04-12T08:48:28Z</time></trkpt><trkpt lat="44.07123773097585" lon="10.022974709017383"><ele>20.0</ele><time>2026-04-12T08:48:29Z</time></trkpt><trkpt lat="44.0713342892421" lon="10.022824092367749"><ele>20.0</ele><time>2026-04-12T08:48:30Z</time></trkpt><trkpt lat="44.07143259160333" lon="10.022677281241656"><ele>20.0</ele><time>2026-04-12T08:48:31Z</time></trkpt><trkpt lat="44.07152001342391" lon="10.022543962678766"><ele>20.0</ele><time>2026-04-12T08:48:32Z</time></trkpt><trkpt lat="44.071595136459855" lon="10.022420037880678"><ele>19.833333333333336</ele><time>2026-04-12T08:48:33Z</time></trkpt><trkpt lat="44.071657535967844" lon="10.022305072803855"><ele>19.666666666666668</ele><time>2026-04-12T08:48:34Z</time></trkpt><trkpt lat="44.07171826294331" lon="10.0222108493638"><ele>19.5</ele><time>2026-04-12T08:48:35Z</time></trkpt><trkpt lat="44.071768355975045" lon="10.02212978307402"><ele>19.333333333333332</ele><time>2026-04-12T08:48:36Z</time></trkpt><trkpt lat="44.071818137576976" lon="10.022040325110613"><ele>19.166666666666664</ele><time>2026-04-12T08:48:38Z</time></trkpt><trkpt lat="44.07187069928215" lon="10.021970609497341"><ele>19.0</ele><time>2026-04-12T08:48:52Z</time></trkpt><trkpt lat="44.07192871848803" lon="10.021884808751647"><ele>19.0</ele><time>2026-04-12T08:48:54Z</time></trkpt><trkpt lat="44.07200480924911" lon="10.02177289741896"><ele>19.0</ele><time>2026-04-12T08:48:56Z</time></trkpt><trkpt lat="44.07205399119455" lon="10.021698475698836"><ele>19.0</ele><time>2026-04-12T08:48:57Z</time></trkpt><trkpt lat="44.07210520757205" lon="10.021619455252628"><ele>19.0</ele><time>2026-04-12T08:48:58Z</time></trkpt><trkpt lat="44.072158447902765" lon="10.021537191652524"><ele>19.0</ele><time>2026-04-12T08:48:59Z</time></trkpt><trkpt lat="44.07221760553281" lon="10.021442811913781"><ele>19.0</ele><time>2026-04-12T08:49:00Z</time></trkpt><trkpt lat="44.07228139548083" lon="10.02133789390863"><ele>19.0</ele><time>2026-04-12T08:49:01Z</time></trkpt><trkpt lat="44.07235128891527" lon="10.021217887706248"><ele>19.0</ele><time>2026-04-12T08:49:02Z</time></trkpt><trkpt lat="44.07242458858169" lon="10.021088835559418"><ele>19.0</ele><time>2026-04-12T08:49:03Z</time></trkpt><trkpt lat="44.072499067307284" lon="10.020962884887563"><ele>19.0</ele><time>2026-04-12T08:49:04Z</time></trkpt><trkpt lat="44.07258099216629" lon="10.02082059290323"><ele>18.5</ele><time>2026-04-12T08:49:05Z</time></trkpt><trkpt lat="44.072665980917016" lon="10.020662698362669"><ele>18.0</ele><time>2026-04-12T08:49:06Z</time></trkpt><trkpt lat="44.07274493841696" lon="10.020502353116028"><ele>17.5</ele><time>2026-04-12T08:49:07Z</time></trkpt><trkpt lat="44.072827540662736" lon="10.020335827255673"><ele>17.0</ele><time>2026-04-12T08:49:08Z</time></trkpt><trkpt lat="44.07290663882699" lon="10.020174778889432"><ele>17.0</ele><time>2026-04-12T08:49:09Z</time></trkpt><trkpt lat="44.072986135067865" lon="10.020017085765115"><ele>17.0</ele><time>2026-04-12T08:49:10Z</time></trkpt><trkpt lat="44.07305943126342" lon="10.019858731529126"><ele>17.0</ele><time>2026-04-12T08:49:11Z</time></trkpt><trkpt lat="44.07314146666934" lon="10.01969726624732"><ele>17.0</ele><time>2026-04-12T08:49:12Z</time></trkpt><trkpt lat="44.07321971995831" lon="10.01953433527259"><ele>17.333333333333336</ele><time>2026-04-12T08:49:13Z</time></trkpt><trkpt lat="44.07330133024636" lon="10.019369329139092"><ele>17.666666666666668</ele><time>2026-04-12T08:49:14Z</time></trkpt><trkpt lat="44.07338235845258" lon="10.019182288673035"><ele>18.0</ele><time>2026-04-12T08:49:15Z</time></trkpt><trkpt lat="44.07348637746892" lon="10.018997072318049"><ele>17.333333333333332</ele><time>2026-04-12T08:49:16Z</time></trkpt><trkpt lat="44.073567297704216" lon="10.018799037246865"><ele>16.666666666666664</ele><time>2026-04-12T08:49:17Z</time></trkpt><trkpt lat="44.07366582905382" lon="10.018620856835142"><ele>16.0</ele><time>2026-04-12T08:49:18Z</time></trkpt><trkpt lat="44.07375321942607" lon="10.018434175219843"><ele>15.5</ele><time>2026-04-12T08:49:19Z</time></trkpt><trkpt lat="44.07382789837755" lon="10.018279608518414"><ele>15.0</ele><time>2026-04-12T08:49:20Z</time></trkpt><trkpt lat="44.07389434949558" lon="10.01815024347719"><ele>14.5</ele><time>2026-04-12T08:49:21Z</time></trkpt><trkpt lat="44.073957202276254" lon="10.018018740867562"><ele>14.0</ele><time>2026-04-12T08:49:22Z</time></trkpt><trkpt lat="44.07402397593494" lon="10.017891911846318"><ele>14.0</ele><time>2026-04-12T08:49:23Z</time></trkpt><trkpt lat="44.07408881183195" lon="10.017761925337743"><ele>14.0</ele><time>2026-04-12T08:49:24Z</time></trkpt><trkpt lat="44.074154811280124" lon="10.017631021920613"><ele>14.0</ele><time>2026-04-12T08:49:25Z</time></trkpt><trkpt lat="44.07421966445938" lon="10.017492789192476"><ele>14.0</ele><time>2026-04-12T08:49:26Z</time></trkpt><trkpt lat="44.07429237531907" lon="10.017351096393812"><ele>14.25</ele><time>2026-04-12T08:49:27Z</time></trkpt><trkpt lat="44.074364359292474" lon="10.017207834910193"><ele>14.5</ele><time>2026-04-12T08:49:28.001Z</time></trkpt><trkpt lat="44.074435300332844" lon="10.01706993483096"><ele>14.75</ele><time>2026-04-12T08:49:29.001Z</time></trkpt><trkpt lat="44.074498873991544" lon="10.01693930148531"><ele>15.0</ele><time>2026-04-12T08:49:30.001Z</time></trkpt><trkpt lat="44.07456013801142" lon="10.016795396795443"><ele>15.0</ele><time>2026-04-12T08:49:31.001Z</time></trkpt><trkpt lat="44.07463584626676" lon="10.016652813866635"><ele>15.0</ele><time>2026-04-12T08:49:32.001Z</time></trkpt><trkpt lat="44.0747089955035" lon="10.016509531517283"><ele>15.0</ele><time>2026-04-12T08:49:33.001Z</time></trkpt><trkpt lat="44.07477746115569" lon="10.016365028524074"><ele>15.0</ele><time>2026-04-12T08:49:34.001Z</time></trkpt><trkpt lat="44.07484400801094" lon="10.016233846152241"><ele>14.8</ele><time>2026-04-12T08:49:35.001Z</time></trkpt><trkpt lat="44.07490692813168" lon="10.016102121985774"><ele>14.6</ele><time>2026-04-12T08:49:36.001Z</time></trkpt><trkpt lat="44.0749632015127" lon="10.015976005996635"><ele>14.399999999999999</ele><time>2026-04-12T08:49:37.001Z</time></trkpt><trkpt lat="44.07502721473364" lon="10.015853365276183"><ele>14.2</ele><time>2026-04-12T08:49:38.001Z</time></trkpt><trkpt lat="44.07509316971074" lon="10.015725101963062"><ele>14.0</ele><time>2026-04-12T08:49:39.001Z</time></trkpt><trkpt lat="44.075155113207856" lon="10.01559671836806"><ele>14.0</ele><time>2026-04-12T08:49:40.001Z</time></trkpt><trkpt lat="44.075223584799076" lon="10.015463144131909"><ele>14.0</ele><time>2026-04-12T08:49:41.001Z</time></trkpt><trkpt lat="44.07529515044306" lon="10.015322413249933"><ele>14.0</ele><time>2026-04-12T08:49:42.001Z</time></trkpt><trkpt lat="44.07537517636435" lon="10.015187784302293"><ele>14.0</ele><time>2026-04-12T08:49:43.001Z</time></trkpt><trkpt lat="44.07545265322839" lon="10.015062409719757"><ele>13.75</ele><time>2026-04-12T08:49:44.001Z</time></trkpt><trkpt lat="44.075534208785434" lon="10.014941934102795"><ele>13.5</ele><time>2026-04-12T08:49:45.001Z</time></trkpt><trkpt lat="44.075619251896654" lon="10.014816196181268"><ele>13.25</ele><time>2026-04-12T08:49:46.001Z</time></trkpt><trkpt lat="44.0757112517161" lon="10.014682225266812"><ele>13.0</ele><time>2026-04-12T08:49:47.001Z</time></trkpt><trkpt lat="44.07581148850604" lon="10.014535952479216"><ele>13.0</ele><time>2026-04-12T08:49:48.001Z</time></trkpt><trkpt lat="44.07591819626644" lon="10.014383717129636"><ele>13.0</ele><time>2026-04-12T08:49:49.001Z</time></trkpt><trkpt lat="44.07602900861984" lon="10.014219290753553"><ele>13.0</ele><time>2026-04-12T08:49:50.001Z</time></trkpt><trkpt lat="44.07613325904558" lon="10.014072070395855"><ele>12.5</ele><time>2026-04-12T08:49:51.001Z</time></trkpt><trkpt lat="44.076236727987656" lon="10.013927526368407"><ele>12.0</ele><time>2026-04-12T08:49:52.001Z</time></trkpt><trkpt lat="44.07633357199544" lon="10.0137931508"><ele>11.5</ele><time>2026-04-12T08:49:53.001Z</time></trkpt><trkpt lat="44.07642312134201" lon="10.013668635105097"><ele>11.0</ele><time>2026-04-12T08:49:54.001Z</time></trkpt><trkpt lat="44.07651246266109" lon="10.01354695417495"><ele>11.0</ele><time>2026-04-12T08:49:55.001Z</time></trkpt><trkpt lat="44.07660164415173" lon="10.013430982927039"><ele>11.0</ele><time>2026-04-12T08:49:56.001Z</time></trkpt><trkpt lat="44.076682118440274" lon="10.013325733647697"><ele>11.0</ele><time>2026-04-12T08:49:57.001Z</time></trkpt><trkpt lat="44.07675189504357" lon="10.013235208598212"><ele>11.0</ele><time>2026-04-12T08:49:58.001Z</time></trkpt><trkpt lat="44.07681021535709" lon="10.01315960750668"><ele>11.0</ele><time>2026-04-12T08:49:59.001Z</time></trkpt><trkpt lat="44.0768622294882" lon="10.013098372172957"><ele>10.833333333333332</ele><time>2026-04-12T08:50:00.001Z</time></trkpt><trkpt lat="44.0769165174259" lon="10.013051777099479"><ele>10.666666666666666</ele><time>2026-04-12T08:50:01.001Z</time></trkpt><trkpt lat="44.0769802594275" lon="10.013003777523346"><ele>10.5</ele><time>2026-04-12T08:50:03.001Z</time></trkpt><trkpt lat="44.077054460334104" lon="10.012945940378739"><ele>10.333333333333334</ele><time>2026-04-12T08:51:04Z</time></trkpt><trkpt lat="44.077121842123496" lon="10.012890353204243"><ele>10.166666666666668</ele><time>2026-04-12T08:51:05Z</time></trkpt><trkpt lat="44.07720842229492" lon="10.01282108509574"><ele>10.0</ele><time>2026-04-12T08:51:06Z</time></trkpt><trkpt lat="44.07729938192394" lon="10.012749652455922"><ele>10.0</ele><time>2026-04-12T08:51:07Z</time></trkpt><trkpt lat="44.07740937751893" lon="10.012662397400279"><ele>10.0</ele><time>2026-04-12T08:51:08Z</time></trkpt><trkpt lat="44.07753501848588" lon="10.012562870375223"><ele>10.0</ele><time>2026-04-12T08:51:09Z</time></trkpt><trkpt lat="44.07766001410155" lon="10.012462070336705"><ele>10.0</ele><time>2026-04-12T08:51:10Z</time></trkpt><trkpt lat="44.07779162494532" lon="10.012360614215599"><ele>9.666666666666668</ele><time>2026-04-12T08:51:11Z</time></trkpt><trkpt lat="44.07792978151171" lon="10.012250803295325"><ele>9.333333333333334</ele><time>2026-04-12T08:51:12Z</time></trkpt><trkpt lat="44.078069706049135" lon="10.01214300904173"><ele>9.0</ele><time>2026-04-12T08:51:13Z</time></trkpt><trkpt lat="44.07820451940441" lon="10.01203625034768"><ele>9.333333333333334</ele><time>2026-04-12T08:51:14Z</time></trkpt><trkpt lat="44.078345994799385" lon="10.011921027569974"><ele>9.666666666666668</ele><time>2026-04-12T08:51:15Z</time></trkpt><trkpt lat="44.07849643673994" lon="10.01180494199961"><ele>10.0</ele><time>2026-04-12T08:51:16Z</time></trkpt><trkpt lat="44.0786502728416" lon="10.011686418209296"><ele>10.0</ele><time>2026-04-12T08:51:17Z</time></trkpt><trkpt lat="44.07881161699147" lon="10.011558680443768"><ele>10.0</ele><time>2026-04-12T08:51:18Z</time></trkpt><trkpt lat="44.07897793508787" lon="10.011435184721291"><ele>10.0</ele><time>2026-04-12T08:51:19Z</time></trkpt><trkpt lat="44.07914238955133" lon="10.01130912621174"><ele>10.0</ele><time>2026-04-12T08:51:20Z</time></trkpt><trkpt lat="44.079305231853596" lon="10.01118207738048"><ele>10.0</ele><time>2026-04-12T08:51:21Z</time></trkpt><trkpt lat="44.07946640707557" lon="10.011060872403053"><ele>10.0</ele><time>2026-04-12T08:51:22Z</time></trkpt><trkpt lat="44.079628409548576" lon="10.010933578823437"><ele>10.0</ele><time>2026-04-12T08:51:23Z</time></trkpt><trkpt lat="44.07978750786878" lon="10.01080686084969"><ele>10.0</ele><time>2026-04-12T08:51:24Z</time></trkpt><trkpt lat="44.07995090987589" lon="10.01068427403154"><ele>10.0</ele><time>2026-04-12T08:51:25Z</time></trkpt><trkpt lat="44.08010203030769" lon="10.010562688960766"><ele>10.0</ele><time>2026-04-12T08:51:26Z</time></trkpt><trkpt lat="44.08025508400608" lon="10.010441909985147"><ele>10.0</ele><time>2026-04-12T08:51:27Z</time></trkpt><trkpt lat="44.08040016518293" lon="10.010314459034989"><ele>10.0</ele><time>2026-04-12T08:51:28Z</time></trkpt><trkpt lat="44.08054290028403" lon="10.010190041108437"><ele>10.0</ele><time>2026-04-12T08:51:29Z</time></trkpt><trkpt lat="44.0806880224722" lon="10.010065221701511"><ele>10.0</ele><time>2026-04-12T08:51:30.001Z</time></trkpt><trkpt lat="44.08083477760388" lon="10.009941123866248"><ele>10.0</ele><time>2026-04-12T08:51:31.001Z</time></trkpt><trkpt lat="44.080975867094566" lon="10.009818777083717"><ele>11.0</ele><time>2026-04-12T08:51:32.001Z</time></trkpt><trkpt lat="44.08110941822478" lon="10.009699871859839"><ele>12.0</ele><time>2026-04-12T08:51:33.001Z</time></trkpt><trkpt lat="44.08123912084093" lon="10.009586392771684"><ele>13.0</ele><time>2026-04-12T08:51:34.001Z</time></trkpt><trkpt lat="44.081366734576235" lon="10.009473530646217"><ele>13.0</ele><time>2026-04-12T08:51:35.001Z</time></trkpt><trkpt lat="44.08149349681408" lon="10.009363418961037"><ele>13.0</ele><time>2026-04-12T08:51:36.001Z</time></trkpt><trkpt lat="44.08160824235494" lon="10.00925956228615"><ele>13.0</ele><time>2026-04-12T08:51:37.001Z</time></trkpt><trkpt lat="44.081716190988594" lon="10.009168671836957"><ele>13.0</ele><time>2026-04-12T08:51:38.001Z</time></trkpt><trkpt lat="44.08181663015413" lon="10.009078080083777"><ele>13.0</ele><time>2026-04-12T08:51:39.001Z</time></trkpt><trkpt lat="44.08191620001644" lon="10.008994789385296"><ele>13.0</ele><time>2026-04-12T08:51:40.001Z</time></trkpt><trkpt lat="44.08201115188131" lon="10.008914182025238"><ele>13.0</ele><time>2026-04-12T08:51:41.001Z</time></trkpt><trkpt lat="44.08209904778996" lon="10.008843082594526"><ele>13.0</ele><time>2026-04-12T08:51:42.001Z</time></trkpt><trkpt lat="44.08217835802741" lon="10.008776009164992"><ele>13.0</ele><time>2026-04-12T08:51:43.001Z</time></trkpt><trkpt lat="44.08224743858111" lon="10.008715053764343"><ele>13.0</ele><time>2026-04-12T08:51:44.001Z</time></trkpt><trkpt lat="44.082306993921904" lon="10.008649241522365"><ele>13.0</ele><time>2026-04-12T08:51:45.001Z</time></trkpt><trkpt lat="44.08237051222668" lon="10.008584952554633"><ele>13.0</ele><time>2026-04-12T08:51:46.001Z</time></trkpt><trkpt lat="44.082434512728454" lon="10.008537807231022"><ele>13.0</ele><time>2026-04-12T08:51:47.001Z</time></trkpt><trkpt lat="44.082529634889994" lon="10.008459847624545"><ele>13.0</ele><time>2026-04-12T08:51:49.001Z</time></trkpt><trkpt lat="44.08263637723271" lon="10.008366944961299"><ele>12.833333333333332</ele><time>2026-04-12T08:51:51.001Z</time></trkpt><trkpt lat="44.08270648710357" lon="10.0083064954152"><ele>12.666666666666666</ele><time>2026-04-12T08:51:52.001Z</time></trkpt><trkpt lat="44.082782036996946" lon="10.008243280883768"><ele>12.5</ele><time>2026-04-12T08:51:53.001Z</time></trkpt><trkpt lat="44.082861931457316" lon="10.008174130243681"><ele>12.333333333333332</ele><time>2026-04-12T08:51:54.001Z</time></trkpt><trkpt lat="44.08293625195524" lon="10.0081102702311"><ele>12.166666666666666</ele><time>2026-04-12T08:51:55.001Z</time></trkpt><trkpt lat="44.08300334820201" lon="10.008050499401545"><ele>12.0</ele><time>2026-04-12T08:51:56.001Z</time></trkpt><trkpt lat="44.08307154373746" lon="10.007987768884053"><ele>12.0</ele><time>2026-04-12T08:51:57.001Z</time></trkpt><trkpt lat="44.083141478582554" lon="10.007918833383341"><ele>12.0</ele><time>2026-04-12T08:51:58.001Z</time></trkpt><trkpt lat="44.08321446276109" lon="10.007847442580891"><ele>12.0</ele><time>2026-04-12T08:51:59.001Z</time></trkpt><trkpt lat="44.083300720927106" lon="10.00777788717871"><ele>12.0</ele><time>2026-04-12T08:52:00.001Z</time></trkpt><trkpt lat="44.08339143021384" lon="10.00770124997481"><ele>12.0</ele><time>2026-04-12T08:52:01.001Z</time></trkpt><trkpt lat="44.083474817951505" lon="10.007627151583833"><ele>12.0</ele><time>2026-04-12T08:52:02.001Z</time></trkpt><trkpt lat="44.083557038666854" lon="10.007554097205857"><ele>12.0</ele><time>2026-04-12T08:52:03.001Z</time></trkpt><trkpt lat="44.08364503439795" lon="10.007475142393039"><ele>12.0</ele><time>2026-04-12T08:52:04.001Z</time></trkpt><trkpt lat="44.08373908699344" lon="10.00739305564459"><ele>12.0</ele><time>2026-04-12T08:52:05.001Z</time></trkpt><trkpt lat="44.0838290816956" lon="10.007310020818455"><ele>12.0</ele><time>2026-04-12T08:52:06.001Z</time></trkpt><trkpt lat="44.0839174897427" lon="10.007230521022576"><ele>12.0</ele><time>2026-04-12T08:52:07.001Z</time></trkpt><trkpt lat="44.084016345171314" lon="10.007149799499254"><ele>12.0</ele><time>2026-04-12T08:52:08.001Z</time></trkpt><trkpt lat="44.08411184470671" lon="10.007058116753157"><ele>12.0</ele><time>2026-04-12T08:52:09.001Z</time></trkpt><trkpt lat="44.08420651676345" lon="10.006973092152881"><ele>12.0</ele><time>2026-04-12T08:52:10.001Z</time></trkpt><trkpt lat="44.08429839227667" lon="10.006890115868433"><ele>12.0</ele><time>2026-04-12T08:52:11.001Z</time></trkpt><trkpt lat="44.08439355694434" lon="10.006802006783238"><ele>12.0</ele><time>2026-04-12T08:52:12.001Z</time></trkpt><trkpt lat="44.084485464785374" lon="10.006716017110215"><ele>12.0</ele><time>2026-04-12T08:52:13.001Z</time></trkpt><trkpt lat="44.084575357751206" lon="10.006624148194724"><ele>12.0</ele><time>2026-04-12T08:52:14.001Z</time></trkpt><trkpt lat="44.08466612197796" lon="10.006537670938792"><ele>12.0</ele><time>2026-04-12T08:52:15.001Z</time></trkpt><trkpt lat="44.08475195528254" lon="10.006437371046628"><ele>11.6</ele><time>2026-04-12T08:52:16.001Z</time></trkpt><trkpt lat="44.08483713149861" lon="10.006334238113938"><ele>11.2</ele><time>2026-04-12T08:52:17.001Z</time></trkpt><trkpt lat="44.08491698724861" lon="10.006235978107112"><ele>10.8</ele><time>2026-04-12T08:52:18.001Z</time></trkpt><trkpt lat="44.084983312571424" lon="10.006142238198036"><ele>10.4</ele><time>2026-04-12T08:52:19.001Z</time></trkpt><trkpt lat="44.08504187796045" lon="10.006061500977049"><ele>10.0</ele><time>2026-04-12T08:52:20.001Z</time></trkpt><trkpt lat="44.08509229173998" lon="10.005993904552318"><ele>10.0</ele><time>2026-04-12T08:52:21.001Z</time></trkpt><trkpt lat="44.08517012739094" lon="10.00588228364297"><ele>10.0</ele><time>2026-04-12T08:52:23.001Z</time></trkpt><trkpt lat="44.08524615717175" lon="10.005763494850692"><ele>10.0</ele><time>2026-04-12T08:52:25.001Z</time></trkpt><trkpt lat="44.085288343173055" lon="10.005695318463541"><ele>10.0</ele><time>2026-04-12T08:52:26.001Z</time></trkpt><trkpt lat="44.085359568521405" lon="10.005577390563037"><ele>10.0</ele><time>2026-04-12T08:52:28.001Z</time></trkpt><trkpt lat="44.085401045212144" lon="10.005510728798491"><ele>10.0</ele><time>2026-04-12T08:52:29.001Z</time></trkpt><trkpt lat="44.085454619951044" lon="10.005423725340291"><ele>10.0</ele><time>2026-04-12T08:52:30.001Z</time></trkpt><trkpt lat="44.085512161691526" lon="10.005324423926185"><ele>10.0</ele><time>2026-04-12T08:52:31.001Z</time></trkpt><trkpt lat="44.08557274708954" lon="10.005222486766387"><ele>10.0</ele><time>2026-04-12T08:52:32.001Z</time></trkpt><trkpt lat="44.08563523595351" lon="10.005115472618657"><ele>10.0</ele><time>2026-04-12T08:52:33.001Z</time></trkpt><trkpt lat="44.08570395992543" lon="10.005000676475467"><ele>10.2</ele><time>2026-04-12T08:52:34.001Z</time></trkpt><trkpt lat="44.08577462444869" lon="10.004877842048375"><ele>10.4</ele><time>2026-04-12T08:52:35.001Z</time></trkpt><trkpt lat="44.085844550505605" lon="10.004760435531626"><ele>10.600000000000001</ele><time>2026-04-12T08:52:36.001Z</time></trkpt><trkpt lat="44.08591108095902" lon="10.004645671782677"><ele>10.8</ele><time>2026-04-12T08:52:37.001Z</time></trkpt><trkpt lat="44.08597662267805" lon="10.00454034327159"><ele>11.0</ele><time>2026-04-12T08:52:38.001Z</time></trkpt><trkpt lat="44.0860385771932" lon="10.004436131911294"><ele>11.0</ele><time>2026-04-12T08:52:39Z</time></trkpt><trkpt lat="44.086104123331204" lon="10.004331350305272"><ele>11.0</ele><time>2026-04-12T08:52:40Z</time></trkpt><trkpt lat="44.08617033038353" lon="10.00421772684575"><ele>11.0</ele><time>2026-04-12T08:52:41Z</time></trkpt><trkpt lat="44.086242120291665" lon="10.004096209743512"><ele>11.0</ele><time>2026-04-12T08:52:42Z</time></trkpt><trkpt lat="44.086318964716114" lon="10.003970931810697"><ele>11.0</ele><time>2026-04-12T08:52:43Z</time></trkpt><trkpt lat="44.086392304904706" lon="10.003848864828173"><ele>11.25</ele><time>2026-04-12T08:52:44Z</time></trkpt><trkpt lat="44.08646756972788" lon="10.003724674176489"><ele>11.5</ele><time>2026-04-12T08:52:45Z</time></trkpt><trkpt lat="44.08654210335639" lon="10.003602775576091"><ele>11.75</ele><time>2026-04-12T08:52:46Z</time></trkpt><trkpt lat="44.0866194688197" lon="10.003471640816885"><ele>12.0</ele><time>2026-04-12T08:52:47Z</time></trkpt><trkpt lat="44.086696501596336" lon="10.003342237378305"><ele>12.0</ele><time>2026-04-12T08:52:48Z</time></trkpt><trkpt lat="44.08677587787876" lon="10.003210502900338"><ele>12.0</ele><time>2026-04-12T08:52:49Z</time></trkpt><trkpt lat="44.08685607859406" lon="10.003078864948046"><ele>12.0</ele><time>2026-04-12T08:52:50Z</time></trkpt><trkpt lat="44.08693489362803" lon="10.00295324976849"><ele>12.0</ele><time>2026-04-12T08:52:51Z</time></trkpt><trkpt lat="44.087013928513244" lon="10.002833374033038"><ele>12.0</ele><time>2026-04-12T08:52:52Z</time></trkpt><trkpt lat="44.08709485807575" lon="10.002718068201832"><ele>12.0</ele><time>2026-04-12T08:52:53Z</time></trkpt><trkpt lat="44.0871744171636" lon="10.002615110233075"><ele>12.0</ele><time>2026-04-12T08:52:54Z</time></trkpt><trkpt lat="44.08726349988762" lon="10.002516893440342"><ele>12.0</ele><time>2026-04-12T08:52:55Z</time></trkpt><trkpt lat="44.087360742190846" lon="10.002416455257427"><ele>11.25</ele><time>2026-04-12T08:52:56Z</time></trkpt><trkpt lat="44.087464067763946" lon="10.002315216107569"><ele>10.5</ele><time>2026-04-12T08:52:57Z</time></trkpt><trkpt lat="44.087570809678326" lon="10.002216463721009"><ele>9.75</ele><time>2026-04-12T08:52:58Z</time></trkpt><trkpt lat="44.08768064071048" lon="10.002127565194005"><ele>9.0</ele><time>2026-04-12T08:52:59Z</time></trkpt><trkpt lat="44.08779441175426" lon="10.002048233325858"><ele>9.0</ele><time>2026-04-12T08:53:00Z</time></trkpt><trkpt lat="44.0879105415351" lon="10.00197172186336"><ele>9.0</ele><time>2026-04-12T08:53:01Z</time></trkpt><trkpt lat="44.08802100687861" lon="10.001900870097785"><ele>9.0</ele><time>2026-04-12T08:53:02Z</time></trkpt><trkpt lat="44.08812882698722" lon="10.001830561157979"><ele>9.0</ele><time>2026-04-12T08:53:03Z</time></trkpt><trkpt lat="44.08823665906378" lon="10.001753719167649"><ele>9.5</ele><time>2026-04-12T08:53:04Z</time></trkpt><trkpt lat="44.08834421254036" lon="10.00167262630185"><ele>10.0</ele><time>2026-04-12T08:53:05Z</time></trkpt><trkpt lat="44.088448938187554" lon="10.001580431619082"><ele>10.5</ele><time>2026-04-12T08:53:06Z</time></trkpt><trkpt lat="44.08855340701635" lon="10.001481883935643"><ele>11.0</ele><time>2026-04-12T08:53:07Z</time></trkpt><trkpt lat="44.088658351030595" lon="10.0013737139667"><ele>11.0</ele><time>2026-04-12T08:53:08Z</time></trkpt><trkpt lat="44.08876371945569" lon="10.001262193781306"><ele>11.0</ele><time>2026-04-12T08:53:09Z</time></trkpt><trkpt lat="44.08886128726939" lon="10.001140792455436"><ele>11.0</ele><time>2026-04-12T08:53:10Z</time></trkpt><trkpt lat="44.08895138655321" lon="10.001008524617584"><ele>11.0</ele><time>2026-04-12T08:53:11Z</time></trkpt><trkpt lat="44.089040777291395" lon="10.000869008371769"><ele>11.0</ele><time>2026-04-12T08:53:12Z</time></trkpt><trkpt lat="44.08913014776016" lon="10.000721113366655"><ele>11.0</ele><time>2026-04-12T08:53:13Z</time></trkpt><trkpt lat="44.08922174120519" lon="10.000577713351886"><ele>11.0</ele><time>2026-04-12T08:53:14Z</time></trkpt><trkpt lat="44.089305318185104" lon="10.000431787897742"><ele>11.0</ele><time>2026-04-12T08:53:15Z</time></trkpt><trkpt lat="44.089386401005605" lon="10.000284017809228"><ele>11.0</ele><time>2026-04-12T08:53:16Z</time></trkpt><trkpt lat="44.08946643961099" lon="10.000134808645834"><ele>11.0</ele><time>2026-04-12T08:53:17Z</time></trkpt><trkpt lat="44.08954569068713" lon="9.999983580375272"><ele>11.0</ele><time>2026-04-12T08:53:18Z</time></trkpt><trkpt lat="44.08962220902662" lon="9.9998338007213"><ele>11.0</ele><time>2026-04-12T08:53:19Z</time></trkpt><trkpt lat="44.089691850900394" lon="9.999689464053686"><ele>11.0</ele><time>2026-04-12T08:53:20Z</time></trkpt><trkpt lat="44.089755348632444" lon="9.9995487320973"><ele>11.0</ele><time>2026-04-12T08:53:21Z</time></trkpt><trkpt lat="44.08981617643327" lon="9.999401410542577"><ele>11.0</ele><time>2026-04-12T08:53:22Z</time></trkpt><trkpt lat="44.08987812169942" lon="9.999247966003715"><ele>11.0</ele><time>2026-04-12T08:53:23Z</time></trkpt><trkpt lat="44.08993869870015" lon="9.999099719325857"><ele>11.600000000000001</ele><time>2026-04-12T08:53:24Z</time></trkpt><trkpt lat="44.08999177562054" lon="9.998970996147609"><ele>12.2</ele><time>2026-04-12T08:53:25Z</time></trkpt><trkpt lat="44.090043357931776" lon="9.998848917094813"><ele>12.799999999999999</ele><time>2026-04-12T08:53:26Z</time></trkpt><trkpt lat="44.09009263925769" lon="9.998733122262973"><ele>13.399999999999999</ele><time>2026-04-12T08:53:27Z</time></trkpt><trkpt lat="44.09014394413722" lon="9.998616772674914"><ele>14.0</ele><time>2026-04-12T08:53:28Z</time></trkpt><trkpt lat="44.09019255002883" lon="9.998500794630734"><ele>14.0</ele><time>2026-04-12T08:53:29Z</time></trkpt><trkpt lat="44.090239588756994" lon="9.998392131093036"><ele>13.999999999999998</ele><time>2026-04-12T08:53:30Z</time></trkpt><trkpt lat="44.090283969096106" lon="9.998291652259525"><ele>13.999999999999998</ele><time>2026-04-12T08:53:31Z</time></trkpt><trkpt lat="44.090331095952635" lon="9.998188590818156"><ele>14.0</ele><time>2026-04-12T08:53:32Z</time></trkpt><trkpt lat="44.09038662269973" lon="9.998091041182334"><ele>14.0</ele><time>2026-04-12T08:53:33Z</time></trkpt><trkpt lat="44.09044620613209" lon="9.997974117897636"><ele>14.2</ele><time>2026-04-12T08:53:34Z</time></trkpt><trkpt lat="44.090506933823576" lon="9.997847520922187"><ele>14.399999999999999</ele><time>2026-04-12T08:53:35Z</time></trkpt><trkpt lat="44.09056585635716" lon="9.997729444189412"><ele>14.6</ele><time>2026-04-12T08:53:36Z</time></trkpt><trkpt lat="44.090624278045404" lon="9.997615189158378"><ele>14.8</ele><time>2026-04-12T08:53:37Z</time></trkpt><trkpt lat="44.09068033475381" lon="9.99749854548517"><ele>15.0</ele><time>2026-04-12T08:53:38Z</time></trkpt><trkpt lat="44.09073359681563" lon="9.997380066528006"><ele>15.333333333333334</ele><time>2026-04-12T08:53:39Z</time></trkpt><trkpt lat="44.09078356024343" lon="9.997264316299828"><ele>15.666666666666668</ele><time>2026-04-12T08:53:40Z</time></trkpt><trkpt lat="44.09083288395759" lon="9.997155035850732"><ele>16.0</ele><time>2026-04-12T08:53:41Z</time></trkpt><trkpt lat="44.090880872848345" lon="9.997052562193668"><ele>16.333333333333336</ele><time>2026-04-12T08:53:42Z</time></trkpt><trkpt lat="44.09092841588977" lon="9.996954871506789"><ele>16.666666666666668</ele><time>2026-04-12T08:53:43Z</time></trkpt><trkpt lat="44.09097617367315" lon="9.996857289542902"><ele>17.0</ele><time>2026-04-12T08:53:44Z</time></trkpt><trkpt lat="44.09102416153347" lon="9.996755041859362"><ele>17.0</ele><time>2026-04-12T08:53:45Z</time></trkpt><trkpt lat="44.0910737830491" lon="9.996641760126206"><ele>17.0</ele><time>2026-04-12T08:53:46Z</time></trkpt><trkpt lat="44.0911239900469" lon="9.996512181347239"><ele>17.0</ele><time>2026-04-12T08:53:47Z</time></trkpt><trkpt lat="44.09116614004536" lon="9.99638281010439"><ele>17.0</ele><time>2026-04-12T08:53:48Z</time></trkpt><trkpt lat="44.091211227587856" lon="9.996248569313325"><ele>17.0</ele><time>2026-04-12T08:53:49Z</time></trkpt><trkpt lat="44.09125700711117" lon="9.996112550978399"><ele>17.0</ele><time>2026-04-12T08:53:50Z</time></trkpt><trkpt lat="44.09130335139878" lon="9.995971739844558"><ele>17.0</ele><time>2026-04-12T08:53:51Z</time></trkpt><trkpt lat="44.09134974211251" lon="9.995827640976733"><ele>17.0</ele><time>2026-04-12T08:53:52.001Z</time></trkpt><trkpt lat="44.091392439608995" lon="9.995676975565619"><ele>17.0</ele><time>2026-04-12T08:53:53.001Z</time></trkpt><trkpt lat="44.09143958710597" lon="9.995528377149006"><ele>17.0</ele><time>2026-04-12T08:53:54.001Z</time></trkpt><trkpt lat="44.09148231450635" lon="9.995371748799444"><ele>17.0</ele><time>2026-04-12T08:53:55.001Z</time></trkpt><trkpt lat="44.09152899880795" lon="9.995207669023344"><ele>17.0</ele><time>2026-04-12T08:53:56.001Z</time></trkpt><trkpt lat="44.09158242938005" lon="9.995040040346728"><ele>17.0</ele><time>2026-04-12T08:53:57.001Z</time></trkpt><trkpt lat="44.09163120246433" lon="9.994872328255624"><ele>17.0</ele><time>2026-04-12T08:53:58.001Z</time></trkpt><trkpt lat="44.09168253671765" lon="9.994714609491401"><ele>17.0</ele><time>2026-04-12T08:53:59.001Z</time></trkpt><trkpt lat="44.0917432992427" lon="9.994568463682844"><ele>17.0</ele><time>2026-04-12T08:54:00.001Z</time></trkpt><trkpt lat="44.09181189612401" lon="9.994427865241537"><ele>17.0</ele><time>2026-04-12T08:54:01.001Z</time></trkpt><trkpt lat="44.09189412279844" lon="9.994301217037046"><ele>17.0</ele><time>2026-04-12T08:54:02.001Z</time></trkpt><trkpt lat="44.09198629814429" lon="9.994180824051863"><ele>17.0</ele><time>2026-04-12T08:54:03.001Z</time></trkpt><trkpt lat="44.09208351727689" lon="9.99406291463803"><ele>17.0</ele><time>2026-04-12T08:54:04.001Z</time></trkpt><trkpt lat="44.0921826550486" lon="9.993947421708711"><ele>17.0</ele><time>2026-04-12T08:54:05.001Z</time></trkpt><trkpt lat="44.09228079328873" lon="9.993834151444549"><ele>17.0</ele><time>2026-04-12T08:54:06.001Z</time></trkpt><trkpt lat="44.09237779172711" lon="9.993716260704534"><ele>17.0</ele><time>2026-04-12T08:54:07.001Z</time></trkpt><trkpt lat="44.09247343162335" lon="9.993604426457042"><ele>17.0</ele><time>2026-04-12T08:54:08.001Z</time></trkpt><trkpt lat="44.09256761737656" lon="9.993494988323928"><ele>17.0</ele><time>2026-04-12T08:54:09.001Z</time></trkpt><trkpt lat="44.09266459337008" lon="9.993382306156699"><ele>17.75</ele><time>2026-04-12T08:54:10.001Z</time></trkpt><trkpt lat="44.0927608491209" lon="9.99326890046451"><ele>18.5</ele><time>2026-04-12T08:54:11.001Z</time></trkpt><trkpt lat="44.09285971392134" lon="9.993153163823713"><ele>19.25</ele><time>2026-04-12T08:54:12.001Z</time></trkpt><trkpt lat="44.09295791326979" lon="9.993032083725288"><ele>20.0</ele><time>2026-04-12T08:54:13.001Z</time></trkpt><trkpt lat="44.09305972980001" lon="9.992910840912662"><ele>20.0</ele><time>2026-04-12T08:54:14.001Z</time></trkpt><trkpt lat="44.093163553479314" lon="9.992787956427401"><ele>20.0</ele><time>2026-04-12T08:54:15.001Z</time></trkpt><trkpt lat="44.09326755322606" lon="9.99265928679238"><ele>20.0</ele><time>2026-04-12T08:54:16.001Z</time></trkpt><trkpt lat="44.09337259995178" lon="9.992525989948476"><ele>20.0</ele><time>2026-04-12T08:54:17.001Z</time></trkpt><trkpt lat="44.093468280391896" lon="9.992376639278984"><ele>20.5</ele><time>2026-04-12T08:54:18.001Z</time></trkpt><trkpt lat="44.09356025471348" lon="9.992233888672121"><ele>21.0</ele><time>2026-04-12T08:54:19.001Z</time></trkpt><trkpt lat="44.093659935006194" lon="9.992097739473547"><ele>21.5</ele><time>2026-04-12T08:54:20.001Z</time></trkpt><trkpt lat="44.09376110158368" lon="9.991972385372495"><ele>22.0</ele><time>2026-04-12T08:54:21.001Z</time></trkpt><trkpt lat="44.0938525719457" lon="9.991839657679131"><ele>22.0</ele><time>2026-04-12T08:54:22.001Z</time></trkpt><trkpt lat="44.093938885966864" lon="9.991700497907795"><ele>22.0</ele><time>2026-04-12T08:54:23.001Z</time></trkpt><trkpt lat="44.09401969886007" lon="9.991558157045546"><ele>22.0</ele><time>2026-04-12T08:54:24.001Z</time></trkpt><trkpt lat="44.09410364896511" lon="9.991418235462547"><ele>22.0</ele><time>2026-04-12T08:54:25.001Z</time></trkpt><trkpt lat="44.09418884248603" lon="9.991278321831558"><ele>22.0</ele><time>2026-04-12T08:54:26.001Z</time></trkpt><trkpt lat="44.0942878554719" lon="9.991146555824226"><ele>22.0</ele><time>2026-04-12T08:54:27.001Z</time></trkpt><trkpt lat="44.09439048848581" lon="9.991030930322374"><ele>22.0</ele><time>2026-04-12T08:54:28.001Z</time></trkpt><trkpt lat="44.094494554114895" lon="9.990932573732023"><ele>22.0</ele><time>2026-04-12T08:54:29.001Z</time></trkpt><trkpt lat="44.094600369671866" lon="9.990834102089863"><ele>22.0</ele><time>2026-04-12T08:54:30.001Z</time></trkpt><trkpt lat="44.09470964100859" lon="9.990734696108175"><ele>22.0</ele><time>2026-04-12T08:54:31.001Z</time></trkpt><trkpt lat="44.09481425611873" lon="9.990630919617683"><ele>22.0</ele><time>2026-04-12T08:54:32.001Z</time></trkpt><trkpt lat="44.09489934288639" lon="9.990511452216467"><ele>22.0</ele><time>2026-04-12T08:54:33.001Z</time></trkpt><trkpt lat="44.094972383409456" lon="9.990386905703488"><ele>22.0</ele><time>2026-04-12T08:54:34.001Z</time></trkpt><trkpt lat="44.0950343664556" lon="9.990262536918344"><ele>22.0</ele><time>2026-04-12T08:54:35.001Z</time></trkpt><trkpt lat="44.095102466324526" lon="9.990130761964128"><ele>22.0</ele><time>2026-04-12T08:54:36.001Z</time></trkpt><trkpt lat="44.095136939656406" lon="9.990016573764649"><ele>22.0</ele><time>2026-04-12T08:54:37.001Z</time></trkpt><trkpt lat="44.09518515554291" lon="9.989904086943227"><ele>22.0</ele><time>2026-04-12T08:54:38.001Z</time></trkpt><trkpt lat="44.09525297538332" lon="9.989795348344368"><ele>22.0</ele><time>2026-04-12T08:54:39.001Z</time></trkpt><trkpt lat="44.0953029769185" lon="9.989659325220234"><ele>22.0</ele><time>2026-04-12T08:54:40.001Z</time></trkpt><trkpt lat="44.0953631730836" lon="9.989530585086607"><ele>22.0</ele><time>2026-04-12T08:54:41.001Z</time></trkpt><trkpt lat="44.09542523461167" lon="9.989394415787677"><ele>22.0</ele><time>2026-04-12T08:54:42.001Z</time></trkpt><trkpt lat="44.095481161821944" lon="9.9892677306816"><ele>22.0</ele><time>2026-04-12T08:54:43.001Z</time></trkpt><trkpt lat="44.095538589675485" lon="9.989158104762087"><ele>22.0</ele><time>2026-04-12T08:54:44.001Z</time></trkpt><trkpt lat="44.095594809122794" lon="9.989045080754494"><ele>22.0</ele><time>2026-04-12T08:54:45Z</time></trkpt><trkpt lat="44.095652962267444" lon="9.988925842475117"><ele>22.0</ele><time>2026-04-12T08:54:46Z</time></trkpt><trkpt lat="44.095712577331746" lon="9.988802637841742"><ele>22.0</ele><time>2026-04-12T08:54:47Z</time></trkpt><trkpt lat="44.09577521786571" lon="9.988678627414604"><ele>22.0</ele><time>2026-04-12T08:54:48Z</time></trkpt><trkpt lat="44.09582987989833" lon="9.988560621230132"><ele>22.0</ele><time>2026-04-12T08:54:49Z</time></trkpt><trkpt lat="44.09588815472284" lon="9.988448804105243"><ele>22.0</ele><time>2026-04-12T08:54:50Z</time></trkpt><trkpt lat="44.09595307913697" lon="9.988326387030817"><ele>22.0</ele><time>2026-04-12T08:54:51Z</time></trkpt><trkpt lat="44.09601810423026" lon="9.988193568557422"><ele>22.0</ele><time>2026-04-12T08:54:52Z</time></trkpt><trkpt lat="44.09608614013198" lon="9.98806986390056"><ele>22.0</ele><time>2026-04-12T08:54:53Z</time></trkpt><trkpt lat="44.09615267263418" lon="9.987949041373906"><ele>21.8</ele><time>2026-04-12T08:54:54Z</time></trkpt><trkpt lat="44.09622091137797" lon="9.987835801151576"><ele>21.6</ele><time>2026-04-12T08:54:55Z</time></trkpt><trkpt lat="44.09628470476404" lon="9.98772605462468"><ele>21.400000000000002</ele><time>2026-04-12T08:54:56Z</time></trkpt><trkpt lat="44.09634717721622" lon="9.987632480656066"><ele>21.200000000000003</ele><time>2026-04-12T08:54:57Z</time></trkpt><trkpt lat="44.09640302676745" lon="9.987543968441166"><ele>21.0</ele><time>2026-04-12T08:54:58Z</time></trkpt><trkpt lat="44.096458563543415" lon="9.98745743557602"><ele>20.833333333333332</ele><time>2026-04-12T08:54:59Z</time></trkpt><trkpt lat="44.096517914126" lon="9.987369847397503"><ele>20.666666666666668</ele><time>2026-04-12T08:55:00Z</time></trkpt><trkpt lat="44.0965753678693" lon="9.987286256261108"><ele>20.5</ele><time>2026-04-12T08:55:01Z</time></trkpt><trkpt lat="44.09662701482315" lon="9.987209752336238"><ele>20.333333333333336</ele><time>2026-04-12T08:55:02Z</time></trkpt><trkpt lat="44.09667695860751" lon="9.987134435898025"><ele>20.166666666666668</ele><time>2026-04-12T08:55:03Z</time></trkpt><trkpt lat="44.09673025164605" lon="9.987053540841309"><ele>20.0</ele><time>2026-04-12T08:55:04Z</time></trkpt><trkpt lat="44.096787827934214" lon="9.986964196320734"><ele>20.6</ele><time>2026-04-12T08:55:05Z</time></trkpt><trkpt lat="44.0968535026915" lon="9.986863908989205"><ele>21.2</ele><time>2026-04-12T08:55:06Z</time></trkpt><trkpt lat="44.096925362887156" lon="9.986757402486232"><ele>21.799999999999997</ele><time>2026-04-12T08:55:07Z</time></trkpt><trkpt lat="44.09699230058314" lon="9.98665726394447"><ele>22.4</ele><time>2026-04-12T08:55:08Z</time></trkpt><trkpt lat="44.09706172595608" lon="9.986551553160817"><ele>23.0</ele><time>2026-04-12T08:55:09Z</time></trkpt><trkpt lat="44.097133909420684" lon="9.986444564440655"><ele>23.0</ele><time>2026-04-12T08:55:10Z</time></trkpt><trkpt lat="44.09720820913672" lon="9.98634361633933"><ele>23.0</ele><time>2026-04-12T08:55:11Z</time></trkpt><trkpt lat="44.09727610950739" lon="9.986239556382264"><ele>23.0</ele><time>2026-04-12T08:55:12Z</time></trkpt><trkpt lat="44.09734599707267" lon="9.986138896660151"><ele>23.0</ele><time>2026-04-12T08:55:13Z</time></trkpt><trkpt lat="44.097416036434055" lon="9.986035092857442"><ele>23.0</ele><time>2026-04-12T08:55:14Z</time></trkpt><trkpt lat="44.09748928744563" lon="9.985923519562467"><ele>22.799999999999997</ele><time>2026-04-12T08:55:15Z</time></trkpt><trkpt lat="44.0975585317065" lon="9.985806030624309"><ele>22.6</ele><time>2026-04-12T08:55:16Z</time></trkpt><trkpt lat="44.09763249926395" lon="9.985694928485598"><ele>22.4</ele><time>2026-04-12T08:55:17Z</time></trkpt><trkpt lat="44.097704538876336" lon="9.985578219068866"><ele>22.200000000000003</ele><time>2026-04-12T08:55:18Z</time></trkpt><trkpt lat="44.0977735487341" lon="9.985465468899484"><ele>22.0</ele><time>2026-04-12T08:55:19Z</time></trkpt><trkpt lat="44.097844525972995" lon="9.985358178795735"><ele>22.0</ele><time>2026-04-12T08:55:20Z</time></trkpt><trkpt lat="44.09791343905728" lon="9.985257370490947"><ele>22.0</ele><time>2026-04-12T08:55:21Z</time></trkpt><trkpt lat="44.09798019489639" lon="9.985159025373765"><ele>22.0</ele><time>2026-04-12T08:55:22Z</time></trkpt><trkpt lat="44.098044664157" lon="9.98506013424231"><ele>22.0</ele><time>2026-04-12T08:55:23Z</time></trkpt><trkpt lat="44.09811507963266" lon="9.984956281480486"><ele>22.0</ele><time>2026-04-12T08:55:24Z</time></trkpt><trkpt lat="44.09818162331248" lon="9.98485264314178"><ele>22.0</ele><time>2026-04-12T08:55:25Z</time></trkpt><trkpt lat="44.09825046559189" lon="9.984747507530614"><ele>22.0</ele><time>2026-04-12T08:55:26Z</time></trkpt><trkpt lat="44.098317232460666" lon="9.984648308252437"><ele>22.0</ele><time>2026-04-12T08:55:27Z</time></trkpt><trkpt lat="44.098385514366306" lon="9.984544330615861"><ele>22.0</ele><time>2026-04-12T08:55:28Z</time></trkpt><trkpt lat="44.0984566165168" lon="9.984434062637456"><ele>22.0</ele><time>2026-04-12T08:55:29Z</time></trkpt><trkpt lat="44.098528606597924" lon="9.984318064175397"><ele>22.0</ele><time>2026-04-12T08:55:30Z</time></trkpt><trkpt lat="44.098609533243284" lon="9.984187576984462"><ele>22.0</ele><time>2026-04-12T08:55:31Z</time></trkpt><trkpt lat="44.09869483566794" lon="9.98406407991516"><ele>22.0</ele><time>2026-04-12T08:55:32Z</time></trkpt><trkpt lat="44.09877422095818" lon="9.983952038520112"><ele>22.0</ele><time>2026-04-12T08:55:33Z</time></trkpt><trkpt lat="44.09884606215526" lon="9.983847212496485"><ele>21.833333333333332</ele><time>2026-04-12T08:55:34Z</time></trkpt><trkpt lat="44.09891200437925" lon="9.983749562009004"><ele>21.666666666666664</ele><time>2026-04-12T08:55:35Z</time></trkpt><trkpt lat="44.098970061648075" lon="9.983669343912885"><ele>21.5</ele><time>2026-04-12T08:55:36Z</time></trkpt><trkpt lat="44.09902155950382" lon="9.983598777019866"><ele>21.333333333333332</ele><time>2026-04-12T08:55:37Z</time></trkpt><trkpt lat="44.09907157046551" lon="9.983531264565606"><ele>21.166666666666668</ele><time>2026-04-12T08:55:38Z</time></trkpt><trkpt lat="44.09916862302179" lon="9.983416758444674"><ele>21.0</ele><time>2026-04-12T08:55:40Z</time></trkpt><trkpt lat="44.09922398544673" lon="9.983354611934514"><ele>21.0</ele><time>2026-04-12T08:55:41Z</time></trkpt><trkpt lat="44.09928712477053" lon="9.9832865995054"><ele>21.0</ele><time>2026-04-12T08:55:42Z</time></trkpt><trkpt lat="44.09935515828506" lon="9.983214201578113"><ele>21.0</ele><time>2026-04-12T08:55:43Z</time></trkpt><trkpt lat="44.09941038489192" lon="9.983166945840845"><ele>21.0</ele><time>2026-04-12T08:55:44Z</time></trkpt><trkpt lat="44.099479055851134" lon="9.983106432202364"><ele>21.0</ele><time>2026-04-12T08:55:45Z</time></trkpt><trkpt lat="44.09955006234072" lon="9.983047055131934"><ele>21.0</ele><time>2026-04-12T08:55:46Z</time></trkpt><trkpt lat="44.09961424090259" lon="9.982994910057194"><ele>21.0</ele><time>2026-04-12T08:55:47.001Z</time></trkpt><trkpt lat="44.0996700416905" lon="9.98294817684975"><ele>21.0</ele><time>2026-04-12T08:55:48.001Z</time></trkpt><trkpt lat="44.09977640587124" lon="9.982867081181931"><ele>21.0</ele><time>2026-04-12T08:55:50.001Z</time></trkpt><trkpt lat="44.09983198978925" lon="9.982822305464282"><ele>21.0</ele><time>2026-04-12T08:55:51.001Z</time></trkpt><trkpt lat="44.099887941511035" lon="9.98277065910138"><ele>21.0</ele><time>2026-04-12T08:55:52.001Z</time></trkpt><trkpt lat="44.09994570907974" lon="9.982712062353276"><ele>21.0</ele><time>2026-04-12T08:55:53.001Z</time></trkpt><trkpt lat="44.10000320287411" lon="9.982638461002505"><ele>20.25</ele><time>2026-04-12T08:55:54.001Z</time></trkpt><trkpt lat="44.1000769324629" lon="9.982531112889617"><ele>19.5</ele><time>2026-04-12T08:55:55.001Z</time></trkpt><trkpt lat="44.10016106695822" lon="9.982397929050393"><ele>18.75</ele><time>2026-04-12T08:55:56.001Z</time></trkpt><trkpt lat="44.10025283132087" lon="9.982271018681958"><ele>18.0</ele><time>2026-04-12T08:55:57.001Z</time></trkpt><trkpt lat="44.100338256777256" lon="9.982149727847919"><ele>17.5</ele><time>2026-04-12T08:55:58.001Z</time></trkpt><trkpt lat="44.10041969799189" lon="9.982025798061333"><ele>17.0</ele><time>2026-04-12T08:55:59.001Z</time></trkpt><trkpt lat="44.100498124477774" lon="9.98190211960882"><ele>16.5</ele><time>2026-04-12T08:56:00.001Z</time></trkpt><trkpt lat="44.100575488321226" lon="9.981783115687778"><ele>16.0</ele><time>2026-04-12T08:56:01.001Z</time></trkpt><trkpt lat="44.100654866326494" lon="9.981662478011227"><ele>15.600000000000001</ele><time>2026-04-12T08:56:02.001Z</time></trkpt><trkpt lat="44.10073101616175" lon="9.981550091970318"><ele>15.200000000000001</ele><time>2026-04-12T08:56:03.001Z</time></trkpt><trkpt lat="44.10079972536979" lon="9.98144783663001"><ele>14.799999999999999</ele><time>2026-04-12T08:56:04.001Z</time></trkpt><trkpt lat="44.100867391084044" lon="9.981347356959061"><ele>14.399999999999999</ele><time>2026-04-12T08:56:05.001Z</time></trkpt><trkpt lat="44.10094313694853" lon="9.98122033986386"><ele>14.0</ele><time>2026-04-12T08:56:06.001Z</time></trkpt><trkpt lat="44.101056797679526" lon="9.981077248634517"><ele>15.333333333333334</ele><time>2026-04-12T08:56:07.001Z</time></trkpt><trkpt lat="44.10117495788454" lon="9.9808858993847"><ele>16.666666666666668</ele><time>2026-04-12T08:56:08.001Z</time></trkpt><trkpt lat="44.101309029091745" lon="9.980691856580949"><ele>18.0</ele><time>2026-04-12T08:56:09.001Z</time></trkpt><trkpt lat="44.101428096466314" lon="9.980507215680055"><ele>18.333333333333332</ele><time>2026-04-12T08:56:10.001Z</time></trkpt><trkpt lat="44.1015446136227" lon="9.980332456549984"><ele>18.666666666666664</ele><time>2026-04-12T08:56:11.001Z</time></trkpt><trkpt lat="44.10165719811887" lon="9.98016087187369"><ele>19.0</ele><time>2026-04-12T08:56:12.001Z</time></trkpt><trkpt lat="44.101767397764824" lon="9.979992702411348"><ele>19.0</ele><time>2026-04-12T08:56:13.001Z</time></trkpt><trkpt lat="44.101872125156405" lon="9.979832437284015"><ele>19.0</ele><time>2026-04-12T08:56:14.001Z</time></trkpt><trkpt lat="44.10197119387965" lon="9.979676389476602"><ele>19.0</ele><time>2026-04-12T08:56:15.001Z</time></trkpt><trkpt lat="44.10206320436512" lon="9.979523692017024"><ele>19.0</ele><time>2026-04-12T08:56:16.001Z</time></trkpt><trkpt lat="44.10215640429794" lon="9.979359704798036"><ele>19.333333333333332</ele><time>2026-04-12T08:56:17.001Z</time></trkpt><trkpt lat="44.10227373012396" lon="9.979175165029154"><ele>19.666666666666668</ele><time>2026-04-12T08:56:18.001Z</time></trkpt><trkpt lat="44.10240548953568" lon="9.979003105712934"><ele>20.0</ele><time>2026-04-12T08:56:19.001Z</time></trkpt><trkpt lat="44.10252533560302" lon="9.978832655973509"><ele>18.666666666666668</ele><time>2026-04-12T08:56:20.001Z</time></trkpt><trkpt lat="44.10263885566976" lon="9.97866282865446"><ele>17.333333333333332</ele><time>2026-04-12T08:56:21.001Z</time></trkpt><trkpt lat="44.10275192210654" lon="9.978504459164263"><ele>16.0</ele><time>2026-04-12T08:56:22.001Z</time></trkpt><trkpt lat="44.10286026250355" lon="9.978362834575288"><ele>16.75</ele><time>2026-04-12T08:56:23.001Z</time></trkpt><trkpt lat="44.10296311046468" lon="9.978222501777593"><ele>17.5</ele><time>2026-04-12T08:56:24.001Z</time></trkpt><trkpt lat="44.10306283721631" lon="9.97806760770804"><ele>18.25</ele><time>2026-04-12T08:56:25.001Z</time></trkpt><trkpt lat="44.10315416284003" lon="9.977895108537227"><ele>19.0</ele><time>2026-04-12T08:56:26.001Z</time></trkpt><trkpt lat="44.10323911291064" lon="9.977704042958475"><ele>16.666666666666664</ele><time>2026-04-12T08:56:27.001Z</time></trkpt><trkpt lat="44.10330758888347" lon="9.977499891576388"><ele>14.333333333333332</ele><time>2026-04-12T08:56:28.001Z</time></trkpt><trkpt lat="44.10336974347928" lon="9.977283432680501"><ele>12.0</ele><time>2026-04-12T08:56:29.001Z</time></trkpt><trkpt lat="44.103419800563834" lon="9.9770630232185"><ele>12.0</ele><time>2026-04-12T08:56:30.001Z</time></trkpt><trkpt lat="44.10346097639713" lon="9.976829954892303"><ele>12.0</ele><time>2026-04-12T08:56:31.001Z</time></trkpt><trkpt lat="44.10348689827967" lon="9.976601219362989"><ele>12.0</ele><time>2026-04-12T08:56:32.001Z</time></trkpt><trkpt lat="44.103504509672554" lon="9.976370882341183"><ele>12.0</ele><time>2026-04-12T08:56:33.001Z</time></trkpt><trkpt lat="44.103507546308215" lon="9.976140781704224"><ele>12.0</ele><time>2026-04-12T08:56:34.001Z</time></trkpt><trkpt lat="44.1034963134809" lon="9.97590432464562"><ele>12.0</ele><time>2026-04-12T08:56:35.001Z</time></trkpt><trkpt lat="44.10347108731349" lon="9.975672325918582"><ele>12.0</ele><time>2026-04-12T08:56:36.001Z</time></trkpt><trkpt lat="44.10344251182655" lon="9.97545185863499"><ele>12.0</ele><time>2026-04-12T08:56:37.001Z</time></trkpt><trkpt lat="44.103413933971886" lon="9.975232434608767"><ele>12.0</ele><time>2026-04-12T08:56:38.001Z</time></trkpt><trkpt lat="44.10338576338451" lon="9.975024970550221"><ele>11.333333333333334</ele><time>2026-04-12T08:56:39.001Z</time></trkpt><trkpt lat="44.103356454910504" lon="9.974809784805323"><ele>10.666666666666668</ele><time>2026-04-12T08:56:40.001Z</time></trkpt><trkpt lat="44.10332485763212" lon="9.974590915607074"><ele>10.0</ele><time>2026-04-12T08:56:41.001Z</time></trkpt><trkpt lat="44.1032921046885" lon="9.97438122300971"><ele>9.666666666666668</ele><time>2026-04-12T08:56:42.001Z</time></trkpt><trkpt lat="44.103261476100734" lon="9.974159883398938"><ele>9.333333333333334</ele><time>2026-04-12T08:56:43.001Z</time></trkpt><trkpt lat="44.103230018531065" lon="9.973932605636383"><ele>9.0</ele><time>2026-04-12T08:56:44.001Z</time></trkpt><trkpt lat="44.10320233614796" lon="9.973713621580327"><ele>9.0</ele><time>2026-04-12T08:56:45.001Z</time></trkpt><trkpt lat="44.1031699164012" lon="9.973478654145273"><ele>9.0</ele><time>2026-04-12T08:56:46.001Z</time></trkpt><trkpt lat="44.10313898895715" lon="9.973264744107105"><ele>9.0</ele><time>2026-04-12T08:56:47.001Z</time></trkpt><trkpt lat="44.10310955698864" lon="9.973047255837711"><ele>8.75</ele><time>2026-04-12T08:56:48.001Z</time></trkpt><trkpt lat="44.10308349056366" lon="9.972833275870334"><ele>8.5</ele><time>2026-04-12T08:56:49.001Z</time></trkpt><trkpt lat="44.10306540485017" lon="9.97263086236154"><ele>8.25</ele><time>2026-04-12T08:56:50.001Z</time></trkpt><trkpt lat="44.10304824360758" lon="9.972427548142894"><ele>8.0</ele><time>2026-04-12T08:56:51Z</time></trkpt><trkpt lat="44.103034891437574" lon="9.972223204010364"><ele>8.0</ele><time>2026-04-12T08:56:52Z</time></trkpt><trkpt lat="44.10302944093062" lon="9.972023733576526"><ele>8.0</ele><time>2026-04-12T08:56:53Z</time></trkpt><trkpt lat="44.10303175594783" lon="9.971841382098253"><ele>8.0</ele><time>2026-04-12T08:56:54Z</time></trkpt><trkpt lat="44.10303869435944" lon="9.971665581455659"><ele>8.0</ele><time>2026-04-12T08:56:55Z</time></trkpt><trkpt lat="44.10304615958229" lon="9.971491763997184"><ele>8.0</ele><time>2026-04-12T08:56:56Z</time></trkpt><trkpt lat="44.103058280980996" lon="9.97131928317677"><ele>8.0</ele><time>2026-04-12T08:56:57Z</time></trkpt><trkpt lat="44.10307088220737" lon="9.971152620717584"><ele>8.0</ele><time>2026-04-12T08:56:58Z</time></trkpt><trkpt lat="44.10308128197658" lon="9.970985764097959"><ele>8.0</ele><time>2026-04-12T08:56:59Z</time></trkpt><trkpt lat="44.1030936690403" lon="9.970823024403924"><ele>7.75</ele><time>2026-04-12T08:57:00Z</time></trkpt><trkpt lat="44.10310249938444" lon="9.97066297373812"><ele>7.5</ele><time>2026-04-12T08:57:01Z</time></trkpt><trkpt lat="44.10311190553541" lon="9.970503171555304"><ele>7.25</ele><time>2026-04-12T08:57:02Z</time></trkpt><trkpt lat="44.103123876151585" lon="9.970345345092248"><ele>7.0</ele><time>2026-04-12T08:57:03Z</time></trkpt><trkpt lat="44.10313538497399" lon="9.970198192619229"><ele>7.0</ele><time>2026-04-12T08:57:04Z</time></trkpt><trkpt lat="44.103145960217134" lon="9.970052000627598"><ele>6.999999999999999</ele><time>2026-04-12T08:57:05Z</time></trkpt><trkpt lat="44.10315711113686" lon="9.969913600176696"><ele>6.999999999999999</ele><time>2026-04-12T08:57:06Z</time></trkpt><trkpt lat="44.103167764930596" lon="9.969786323426803"><ele>7.0</ele><time>2026-04-12T08:57:07Z</time></trkpt><trkpt lat="44.10317622992701" lon="9.969671311309478"><ele>7.0</ele><time>2026-04-12T08:57:08Z</time></trkpt><trkpt lat="44.103185062347585" lon="9.969564136248044"><ele>7.166666666666667</ele><time>2026-04-12T08:57:09Z</time></trkpt><trkpt lat="44.103191921783704" lon="9.969450233032306"><ele>7.333333333333334</ele><time>2026-04-12T08:57:10Z</time></trkpt><trkpt lat="44.10320019823778" lon="9.969347031050503"><ele>7.5</ele><time>2026-04-12T08:57:11Z</time></trkpt><trkpt lat="44.103209376476585" lon="9.969244836373715"><ele>7.666666666666666</ele><time>2026-04-12T08:57:12Z</time></trkpt><trkpt lat="44.10321967931216" lon="9.969109077086504"><ele>7.833333333333333</ele><time>2026-04-12T08:57:14Z</time></trkpt><trkpt lat="44.10324785128045" lon="9.968979516600752"><ele>8.0</ele><time>2026-04-12T08:57:16Z</time></trkpt><trkpt lat="44.10327572024606" lon="9.968895504629794"><ele>8.0</ele><time>2026-04-12T08:57:17Z</time></trkpt><trkpt lat="44.103313626893176" lon="9.96879951584657"><ele>7.999999999999999</ele><time>2026-04-12T08:57:18Z</time></trkpt><trkpt lat="44.10334076763242" lon="9.96869603652503"><ele>8.0</ele><time>2026-04-12T08:57:19Z</time></trkpt><trkpt lat="44.10333802277181" lon="9.96859580025574"><ele>8.0</ele><time>2026-04-12T08:57:20Z</time></trkpt><trkpt lat="44.10333004770586" lon="9.968499149123994"><ele>7.999999999999999</ele><time>2026-04-12T08:57:21Z</time></trkpt><trkpt lat="44.10332598092211" lon="9.968408830544833"><ele>8.0</ele><time>2026-04-12T08:57:22Z</time></trkpt><trkpt lat="44.10333063546241" lon="9.968317281522324"><ele>8.0</ele><time>2026-04-12T08:57:23Z</time></trkpt><trkpt lat="44.10334631756026" lon="9.968220850725952"><ele>7.833333333333333</ele><time>2026-04-12T08:57:24Z</time></trkpt><trkpt lat="44.10336828035967" lon="9.968117831664022"><ele>7.666666666666666</ele><time>2026-04-12T08:57:25Z</time></trkpt><trkpt lat="44.10339472686067" lon="9.968014672586303"><ele>7.5</ele><time>2026-04-12T08:57:26Z</time></trkpt><trkpt lat="44.103422406790486" lon="9.967910235119472"><ele>7.333333333333334</ele><time>2026-04-12T08:57:27Z</time></trkpt><trkpt lat="44.103451235949564" lon="9.967816752669808"><ele>7.166666666666667</ele><time>2026-04-12T08:57:28Z</time></trkpt><trkpt lat="44.103475467931176" lon="9.967730576419438"><ele>7.0</ele><time>2026-04-12T08:57:29Z</time></trkpt><trkpt lat="44.10351977036491" lon="9.967572246815386"><ele>6.5</ele><time>2026-04-12T08:57:31Z</time></trkpt><trkpt lat="44.10356575407949" lon="9.967406203206403"><ele>6.0</ele><time>2026-04-12T08:57:33Z</time></trkpt><trkpt lat="44.10360851095358" lon="9.967253428845735"><ele>5.5</ele><time>2026-04-12T08:57:35Z</time></trkpt><trkpt lat="44.10364786226709" lon="9.967104803867128"><ele>5.0</ele><time>2026-04-12T08:57:37Z</time></trkpt><trkpt lat="44.10369498395994" lon="9.966953934029858"><ele>5.0</ele><time>2026-04-12T08:57:39Z</time></trkpt><trkpt lat="44.103722183848" lon="9.966863601244032"><ele>5.0</ele><time>2026-04-12T08:57:40Z</time></trkpt><trkpt lat="44.10374783523272" lon="9.966777222778049"><ele>5.0</ele><time>2026-04-12T08:57:41Z</time></trkpt><trkpt lat="44.10376908444205" lon="9.966691911569544"><ele>5.0</ele><time>2026-04-12T08:57:42Z</time></trkpt><trkpt lat="44.10379341337786" lon="9.966600516735989"><ele>5.0</ele><time>2026-04-12T08:57:43Z</time></trkpt><trkpt lat="44.10384011505269" lon="9.966448357634016"><ele>5.0</ele><time>2026-04-12T08:57:45Z</time></trkpt><trkpt lat="44.1038610804295" lon="9.966365628250083"><ele>5.0</ele><time>2026-04-12T08:57:46Z</time></trkpt><trkpt lat="44.10388402349826" lon="9.966276043515391"><ele>5.0</ele><time>2026-04-12T08:57:47Z</time></trkpt><trkpt lat="44.10390790380225" lon="9.966183400671106"><ele>5.0</ele><time>2026-04-12T08:57:48.001Z</time></trkpt><trkpt lat="44.10393135553669" lon="9.966094981813542"><ele>5.0</ele><time>2026-04-12T08:57:49.001Z</time></trkpt><trkpt lat="44.10395638574687" lon="9.966007421504422"><ele>5.0</ele><time>2026-04-12T08:57:50.001Z</time></trkpt><trkpt lat="44.10398102374386" lon="9.965916310237075"><ele>5.0</ele><time>2026-04-12T08:57:51.001Z</time></trkpt><trkpt lat="44.10400682064279" lon="9.96582658679546"><ele>5.0</ele><time>2026-04-12T08:57:52.001Z</time></trkpt><trkpt lat="44.104034287012475" lon="9.965732907465805"><ele>5.142857142857142</ele><time>2026-04-12T08:57:53.001Z</time></trkpt><trkpt lat="44.104059661930435" lon="9.965640650817349"><ele>5.285714285714286</ele><time>2026-04-12T08:57:54.001Z</time></trkpt><trkpt lat="44.10408298980471" lon="9.965553799819855"><ele>5.428571428571429</ele><time>2026-04-12T08:57:55.001Z</time></trkpt><trkpt lat="44.104112263804545" lon="9.965455397557363"><ele>5.571428571428571</ele><time>2026-04-12T08:57:56.001Z</time></trkpt><trkpt lat="44.1041422599494" lon="9.965351365436716"><ele>5.714285714285714</ele><time>2026-04-12T08:57:57.001Z</time></trkpt><trkpt lat="44.10416769760523" lon="9.965253904123976"><ele>5.857142857142857</ele><time>2026-04-12T08:57:58.001Z</time></trkpt><trkpt lat="44.10419554589618" lon="9.965163531360991"><ele>6.0</ele><time>2026-04-12T08:57:59.001Z</time></trkpt><trkpt lat="44.10422009098495" lon="9.96507732018259"><ele>6.8</ele><time>2026-04-12T08:58:00.001Z</time></trkpt><trkpt lat="44.10425998070844" lon="9.96493118162113"><ele>7.6</ele><time>2026-04-12T08:58:02.001Z</time></trkpt><trkpt lat="44.104292252632355" lon="9.964804632742345"><ele>8.4</ele><time>2026-04-12T08:58:04.001Z</time></trkpt><trkpt lat="44.104335073890155" lon="9.964666702039683"><ele>9.2</ele><time>2026-04-12T08:58:06.001Z</time></trkpt><trkpt lat="44.10437814511948" lon="9.964509195096522"><ele>10.0</ele><time>2026-04-12T08:58:08.001Z</time></trkpt><trkpt lat="44.104402935114685" lon="9.964424048281845"><ele>10.0</ele><time>2026-04-12T08:58:09.001Z</time></trkpt><trkpt lat="44.10442797973022" lon="9.964339662340471"><ele>10.0</ele><time>2026-04-12T08:58:10.001Z</time></trkpt><trkpt lat="44.104472932815526" lon="9.964183644612755"><ele>10.0</ele><time>2026-04-12T08:58:12.001Z</time></trkpt><trkpt lat="44.10449565202074" lon="9.964097713597118"><ele>10.0</ele><time>2026-04-12T08:58:13.001Z</time></trkpt><trkpt lat="44.10452280112123" lon="9.964000581165475"><ele>10.0</ele><time>2026-04-12T08:58:14.001Z</time></trkpt><trkpt lat="44.10455352139225" lon="9.963899321422069"><ele>10.0</ele><time>2026-04-12T08:58:15.001Z</time></trkpt><trkpt lat="44.10458281027256" lon="9.963799229723268"><ele>10.0</ele><time>2026-04-12T08:58:16.001Z</time></trkpt><trkpt lat="44.10460937993596" lon="9.963710609824906"><ele>10.0</ele><time>2026-04-12T08:58:17.001Z</time></trkpt><trkpt lat="44.10465751165676" lon="9.963547980476854"><ele>10.0</ele><time>2026-04-12T08:58:19.001Z</time></trkpt><trkpt lat="44.104685635060385" lon="9.963466832504611"><ele>10.0</ele><time>2026-04-12T08:58:20.001Z</time></trkpt><trkpt lat="44.104717701028626" lon="9.963384730902648"><ele>10.0</ele><time>2026-04-12T08:58:21.001Z</time></trkpt><trkpt lat="44.10475056482417" lon="9.963307403359424"><ele>10.0</ele><time>2026-04-12T08:58:22.001Z</time></trkpt><trkpt lat="44.10478439529914" lon="9.96322081967793"><ele>10.0</ele><time>2026-04-12T08:58:23.001Z</time></trkpt><trkpt lat="44.10481500003071" lon="9.963123777500618"><ele>10.0</ele><time>2026-04-12T08:58:24.001Z</time></trkpt><trkpt lat="44.1048352913944" lon="9.963008080575337"><ele>10.0</ele><time>2026-04-12T08:58:25.001Z</time></trkpt><trkpt lat="44.1048523727145" lon="9.962883734820387"><ele>10.0</ele><time>2026-04-12T08:58:26.001Z</time></trkpt><trkpt lat="44.10487787666216" lon="9.962769332118064"><ele>10.0</ele><time>2026-04-12T08:58:27.001Z</time></trkpt><trkpt lat="44.10490645974488" lon="9.962656638737709"><ele>10.0</ele><time>2026-04-12T08:58:28.001Z</time></trkpt><trkpt lat="44.10493903526445" lon="9.962541572493551"><ele>10.0</ele><time>2026-04-12T08:58:29.001Z</time></trkpt><trkpt lat="44.10497377271216" lon="9.962423188375087"><ele>10.0</ele><time>2026-04-12T08:58:30.001Z</time></trkpt><trkpt lat="44.105007145370905" lon="9.962301784654635"><ele>10.0</ele><time>2026-04-12T08:58:31.001Z</time></trkpt><trkpt lat="44.10504146090172" lon="9.962179573165178"><ele>10.0</ele><time>2026-04-12T08:58:32.001Z</time></trkpt><trkpt lat="44.10507906324469" lon="9.962046367772812"><ele>10.0</ele><time>2026-04-12T08:58:33.001Z</time></trkpt><trkpt lat="44.10511505828024" lon="9.961916858913835"><ele>10.0</ele><time>2026-04-12T08:58:34.001Z</time></trkpt><trkpt lat="44.105148234307045" lon="9.961792878988723"><ele>10.0</ele><time>2026-04-12T08:58:35.001Z</time></trkpt><trkpt lat="44.105179201629745" lon="9.961666040832121"><ele>10.0</ele><time>2026-04-12T08:58:36.001Z</time></trkpt><trkpt lat="44.10520761984626" lon="9.961537055249167"><ele>10.0</ele><time>2026-04-12T08:58:37.001Z</time></trkpt><trkpt lat="44.105229884998636" lon="9.961410367497598"><ele>10.0</ele><time>2026-04-12T08:58:38.001Z</time></trkpt><trkpt lat="44.10525220477861" lon="9.961272896726845"><ele>10.0</ele><time>2026-04-12T08:58:39.001Z</time></trkpt><trkpt lat="44.1052746848332" lon="9.961123015241576"><ele>10.0</ele><time>2026-04-12T08:58:40.001Z</time></trkpt><trkpt lat="44.10529926555357" lon="9.96095042276874"><ele>10.0</ele><time>2026-04-12T08:58:41.001Z</time></trkpt><trkpt lat="44.10532218880074" lon="9.960746490627677"><ele>10.0</ele><time>2026-04-12T08:58:42.001Z</time></trkpt><trkpt lat="44.10535095068864" lon="9.960532283646009"><ele>10.0</ele><time>2026-04-12T08:58:43.001Z</time></trkpt><trkpt lat="44.105387128329845" lon="9.960308790241886"><ele>10.0</ele><time>2026-04-12T08:58:44.001Z</time></trkpt><trkpt lat="44.105427365150305" lon="9.960080096731172"><ele>10.0</ele><time>2026-04-12T08:58:45.001Z</time></trkpt><trkpt lat="44.10546386231265" lon="9.959852721631572"><ele>10.0</ele><time>2026-04-12T08:58:46.001Z</time></trkpt><trkpt lat="44.105497300031466" lon="9.959628703239977"><ele>10.0</ele><time>2026-04-12T08:58:47.001Z</time></trkpt><trkpt lat="44.105529068105554" lon="9.959401715881114"><ele>10.0</ele><time>2026-04-12T08:58:48.001Z</time></trkpt><trkpt lat="44.105560584788584" lon="9.959176400464498"><ele>10.333333333333334</ele><time>2026-04-12T08:58:49.001Z</time></trkpt><trkpt lat="44.10559228352466" lon="9.958948830268026"><ele>10.666666666666666</ele><time>2026-04-12T08:58:50.001Z</time></trkpt><trkpt lat="44.10562445822219" lon="9.958722493869663"><ele>11.0</ele><time>2026-04-12T08:58:51.001Z</time></trkpt><trkpt lat="44.10565719064517" lon="9.958504434615639"><ele>11.333333333333332</ele><time>2026-04-12T08:58:52.001Z</time></trkpt><trkpt lat="44.105689902639476" lon="9.958280731877448"><ele>11.666666666666666</ele><time>2026-04-12T08:58:53.001Z</time></trkpt><trkpt lat="44.10573290102782" lon="9.958060889716435"><ele>12.0</ele><time>2026-04-12T08:58:54.001Z</time></trkpt><trkpt lat="44.105786876342684" lon="9.957839309838857"><ele>12.0</ele><time>2026-04-12T08:58:55.001Z</time></trkpt><trkpt lat="44.105852301211314" lon="9.957622249018437"><ele>12.0</ele><time>2026-04-12T08:58:56.001Z</time></trkpt><trkpt lat="44.105919344603194" lon="9.957422191659719"><ele>12.0</ele><time>2026-04-12T08:58:57Z</time></trkpt><trkpt lat="44.105991409531406" lon="9.957231815661572"><ele>11.75</ele><time>2026-04-12T08:58:58Z</time></trkpt><trkpt lat="44.10605567125423" lon="9.957051306827747"><ele>11.5</ele><time>2026-04-12T08:58:59Z</time></trkpt><trkpt lat="44.106117341125994" lon="9.95686966541971"><ele>11.25</ele><time>2026-04-12T08:59:00Z</time></trkpt><trkpt lat="44.1061792858183" lon="9.95668876320001"><ele>11.0</ele><time>2026-04-12T08:59:01Z</time></trkpt><trkpt lat="44.10623626359757" lon="9.956525027850084"><ele>11.0</ele><time>2026-04-12T08:59:02Z</time></trkpt><trkpt lat="44.10629093818276" lon="9.956363175051536"><ele>11.0</ele><time>2026-04-12T08:59:03Z</time></trkpt><trkpt lat="44.10634525603702" lon="9.956206205984428"><ele>11.0</ele><time>2026-04-12T08:59:04Z</time></trkpt><trkpt lat="44.10639347024531" lon="9.956061574340099"><ele>11.0</ele><time>2026-04-12T08:59:05Z</time></trkpt><trkpt lat="44.10643940797865" lon="9.955931486108009"><ele>11.0</ele><time>2026-04-12T08:59:06Z</time></trkpt><trkpt lat="44.106488956018765" lon="9.955814419405444"><ele>11.0</ele><time>2026-04-12T08:59:07Z</time></trkpt><trkpt lat="44.106552460413624" lon="9.95571155920087"><ele>11.0</ele><time>2026-04-12T08:59:08Z</time></trkpt><trkpt lat="44.106619858070346" lon="9.955625930573467"><ele>11.0</ele><time>2026-04-12T08:59:09Z</time></trkpt><trkpt lat="44.10667098326149" lon="9.95553433035907"><ele>11.0</ele><time>2026-04-12T08:59:10Z</time></trkpt><trkpt lat="44.10669076695612" lon="9.95540658598772"><ele>11.0</ele><time>2026-04-12T08:59:11Z</time></trkpt><trkpt lat="44.10670059353614" lon="9.955291225664984"><ele>11.0</ele><time>2026-04-12T08:59:12Z</time></trkpt><trkpt lat="44.106717405575246" lon="9.955164850308524"><ele>11.0</ele><time>2026-04-12T08:59:13Z</time></trkpt><trkpt lat="44.10674286412013" lon="9.955055245799937"><ele>11.0</ele><time>2026-04-12T08:59:14Z</time></trkpt><trkpt lat="44.1067767096894" lon="9.954954281097965"><ele>11.0</ele><time>2026-04-12T08:59:15Z</time></trkpt><trkpt lat="44.10682057145706" lon="9.95487404118268"><ele>11.0</ele><time>2026-04-12T08:59:16Z</time></trkpt><trkpt lat="44.106871450043336" lon="9.954806433154628"><ele>11.0</ele><time>2026-04-12T08:59:17Z</time></trkpt><trkpt lat="44.10692875134925" lon="9.954745179651296"><ele>11.0</ele><time>2026-04-12T08:59:18Z</time></trkpt><trkpt lat="44.106990215848604" lon="9.954686780203692"><ele>11.0</ele><time>2026-04-12T08:59:19Z</time></trkpt><trkpt lat="44.10703923255117" lon="9.954627327216132"><ele>11.0</ele><time>2026-04-12T08:59:20Z</time></trkpt><trkpt lat="44.1070705725653" lon="9.954459727091466"><ele>11.0</ele><time>2026-04-12T08:59:22Z</time></trkpt><trkpt lat="44.10704130178208" lon="9.954368111066163"><ele>11.0</ele><time>2026-04-12T08:59:23Z</time></trkpt><trkpt lat="44.106996427900356" lon="9.954297151565529"><ele>11.0</ele><time>2026-04-12T08:59:24Z</time></trkpt><trkpt lat="44.106935856733664" lon="9.954239464017745"><ele>11.0</ele><time>2026-04-12T08:59:25Z</time></trkpt><trkpt lat="44.10684893544356" lon="9.954170330779625"><ele>11.0</ele><time>2026-04-12T08:59:26Z</time></trkpt><trkpt lat="44.10676583705043" lon="9.954099134962282"><ele>11.0</ele><time>2026-04-12T08:59:27Z</time></trkpt><trkpt lat="44.10669811320711" lon="9.954003502574633"><ele>11.0</ele><time>2026-04-12T08:59:28Z</time></trkpt><trkpt lat="44.106642837919026" lon="9.953894812714491"><ele>10.8</ele><time>2026-04-12T08:59:29Z</time></trkpt><trkpt lat="44.10659466345176" lon="9.953765765034921"><ele>10.600000000000001</ele><time>2026-04-12T08:59:30Z</time></trkpt><trkpt lat="44.10655691048031" lon="9.9536204573215"><ele>10.4</ele><time>2026-04-12T08:59:31Z</time></trkpt><trkpt lat="44.106518344554786" lon="9.953470187871696"><ele>10.2</ele><time>2026-04-12T08:59:32Z</time></trkpt><trkpt lat="44.10647958597635" lon="9.95332221142445"><ele>10.0</ele><time>2026-04-12T08:59:33Z</time></trkpt><trkpt lat="44.10643913457572" lon="9.953165637202858"><ele>9.4</ele><time>2026-04-12T08:59:34Z</time></trkpt><trkpt lat="44.106401447526906" lon="9.953014118942606"><ele>8.8</ele><time>2026-04-12T08:59:35Z</time></trkpt><trkpt lat="44.10636345486011" lon="9.9528654753006"><ele>8.2</ele><time>2026-04-12T08:59:36Z</time></trkpt><trkpt lat="44.10632630582631" lon="9.952718556171055"><ele>7.6</ele><time>2026-04-12T08:59:37Z</time></trkpt><trkpt lat="44.10629080496529" lon="9.952579069770492"><ele>7.0</ele><time>2026-04-12T08:59:38Z</time></trkpt><trkpt lat="44.10625714431753" lon="9.952440851153089"><ele>6.8</ele><time>2026-04-12T08:59:39Z</time></trkpt><trkpt lat="44.10622282281293" lon="9.952301255337925"><ele>6.6</ele><time>2026-04-12T08:59:40Z</time></trkpt><trkpt lat="44.10618749145488" lon="9.952155066002291"><ele>6.3999999999999995</ele><time>2026-04-12T08:59:41Z</time></trkpt><trkpt lat="44.10615333786636" lon="9.952007079356532"><ele>6.199999999999999</ele><time>2026-04-12T08:59:42Z</time></trkpt><trkpt lat="44.10612065518787" lon="9.951864319782334"><ele>6.0</ele><time>2026-04-12T08:59:43Z</time></trkpt><trkpt lat="44.10608973359462" lon="9.95173587896413"><ele>6.199999999999999</ele><time>2026-04-12T08:59:44Z</time></trkpt><trkpt lat="44.106059587878256" lon="9.951612172314428"><ele>6.3999999999999995</ele><time>2026-04-12T08:59:45Z</time></trkpt><trkpt lat="44.10602403185818" lon="9.951476041947279"><ele>6.6</ele><time>2026-04-12T08:59:46Z</time></trkpt><trkpt lat="44.10598141434788" lon="9.951324150511384"><ele>6.8</ele><time>2026-04-12T08:59:47Z</time></trkpt><trkpt lat="44.10593849495357" lon="9.951147919567916"><ele>7.0</ele><time>2026-04-12T08:59:48Z</time></trkpt><trkpt lat="44.10588841749072" lon="9.950946968226777"><ele>7.0</ele><time>2026-04-12T08:59:49Z</time></trkpt><trkpt lat="44.10583823359813" lon="9.950720383438586"><ele>7.0</ele><time>2026-04-12T08:59:50Z</time></trkpt><trkpt lat="44.105788190033266" lon="9.950494030256527"><ele>7.0</ele><time>2026-04-12T08:59:51Z</time></trkpt><trkpt lat="44.105729269450435" lon="9.95025867452603"><ele>6.333333333333334</ele><time>2026-04-12T08:59:52Z</time></trkpt><trkpt lat="44.105673741629715" lon="9.950027250135618"><ele>5.666666666666667</ele><time>2026-04-12T08:59:53Z</time></trkpt><trkpt lat="44.105622654922776" lon="9.949807565818086"><ele>5.0</ele><time>2026-04-12T08:59:54Z</time></trkpt><trkpt lat="44.10557454121562" lon="9.949599669033459"><ele>5.0</ele><time>2026-04-12T08:59:55Z</time></trkpt><trkpt lat="44.105529861370655" lon="9.94941898470068"><ele>5.0</ele><time>2026-04-12T08:59:56Z</time></trkpt><trkpt lat="44.10548851741384" lon="9.949259856078607"><ele>5.0</ele><time>2026-04-12T08:59:57Z</time></trkpt><trkpt lat="44.10544667022258" lon="9.949087814669875"><ele>5.0</ele><time>2026-04-12T08:59:58Z</time></trkpt><trkpt lat="44.10539284057938" lon="9.948883504858168"><ele>5.0</ele><time>2026-04-12T08:59:59Z</time></trkpt><trkpt lat="44.10534943709163" lon="9.94868442288477"><ele>5.0</ele><time>2026-04-12T09:00:00Z</time></trkpt><trkpt lat="44.10531061483529" lon="9.948523481052243"><ele>5.0</ele><time>2026-04-12T09:00:01Z</time></trkpt><trkpt lat="44.105278536081954" lon="9.948389540582644"><ele>5.0</ele><time>2026-04-12T09:00:02.001Z</time></trkpt><trkpt lat="44.10524563275979" lon="9.948273075915457"><ele>5.0</ele><time>2026-04-12T09:00:03.001Z</time></trkpt><trkpt lat="44.10521626736337" lon="9.948164785488682"><ele>5.0</ele><time>2026-04-12T09:00:04.001Z</time></trkpt><trkpt lat="44.10519417565352" lon="9.948065694673206"><ele>5.0</ele><time>2026-04-12T09:00:05.001Z</time></trkpt><trkpt lat="44.1051834578086" lon="9.947931687897741"><ele>5.0</ele><time>2026-04-12T09:00:07.001Z</time></trkpt><trkpt lat="44.105216531472834" lon="9.947771387081891"><ele>5.0</ele><time>2026-04-12T09:00:09.001Z</time></trkpt><trkpt lat="44.10523452685653" lon="9.947672911280346"><ele>5.0</ele><time>2026-04-12T09:00:10.001Z</time></trkpt><trkpt lat="44.10522934998495" lon="9.94749848837535"><ele>5.333333333333334</ele><time>2026-04-12T09:00:12.001Z</time></trkpt><trkpt lat="44.105192063738386" lon="9.947415539613369"><ele>5.666666666666667</ele><time>2026-04-12T09:00:13.001Z</time></trkpt><trkpt lat="44.105146763981026" lon="9.947346941740111"><ele>6.0</ele><time>2026-04-12T09:00:14.001Z</time></trkpt><trkpt lat="44.10509124291859" lon="9.947281049917112"><ele>6.333333333333334</ele><time>2026-04-12T09:00:15.001Z</time></trkpt><trkpt lat="44.105035525194225" lon="9.947191320095234"><ele>6.666666666666667</ele><time>2026-04-12T09:00:16.001Z</time></trkpt><trkpt lat="44.10498368975931" lon="9.947076998890171"><ele>7.0</ele><time>2026-04-12T09:00:17.001Z</time></trkpt><trkpt lat="44.10494601379844" lon="9.94694217901765"><ele>7.25</ele><time>2026-04-12T09:00:18.001Z</time></trkpt><trkpt lat="44.104907105325324" lon="9.946783952991318"><ele>7.5</ele><time>2026-04-12T09:00:19.001Z</time></trkpt><trkpt lat="44.10486731637342" lon="9.946597641215934"><ele>7.75</ele><time>2026-04-12T09:00:20.001Z</time></trkpt><trkpt lat="44.10482517373593" lon="9.946393617319252"><ele>8.0</ele><time>2026-04-12T09:00:21.001Z</time></trkpt><trkpt lat="44.104772201684895" lon="9.946181742144875"><ele>8.0</ele><time>2026-04-12T09:00:22.001Z</time></trkpt><trkpt lat="44.10471217326726" lon="9.945962848396329"><ele>8.0</ele><time>2026-04-12T09:00:23.001Z</time></trkpt><trkpt lat="44.104655522365626" lon="9.945720972841228"><ele>8.0</ele><time>2026-04-12T09:00:24.001Z</time></trkpt><trkpt lat="44.10461006001885" lon="9.945458481916258"><ele>8.0</ele><time>2026-04-12T09:00:25.001Z</time></trkpt><trkpt lat="44.10458707129249" lon="9.945191104605525"><ele>8.0</ele><time>2026-04-12T09:00:26.001Z</time></trkpt><trkpt lat="44.10458682519966" lon="9.944919156425271"><ele>8.0</ele><time>2026-04-12T09:00:27.001Z</time></trkpt><trkpt lat="44.10460917415773" lon="9.944644189306493"><ele>8.0</ele><time>2026-04-12T09:00:28.001Z</time></trkpt><trkpt lat="44.10464515138504" lon="9.94437430164335"><ele>8.0</ele><time>2026-04-12T09:00:29.001Z</time></trkpt><trkpt lat="44.10468877906038" lon="9.944119875933598"><ele>8.0</ele><time>2026-04-12T09:00:30.001Z</time></trkpt><trkpt lat="44.1047361960272" lon="9.94387972470577"><ele>8.0</ele><time>2026-04-12T09:00:31.001Z</time></trkpt><trkpt lat="44.10477950056341" lon="9.943642248069985"><ele>8.0</ele><time>2026-04-12T09:00:32.001Z</time></trkpt><trkpt lat="44.104819681764646" lon="9.94341284850006"><ele>8.0</ele><time>2026-04-12T09:00:33.001Z</time></trkpt><trkpt lat="44.10485805358033" lon="9.943199707834799"><ele>8.0</ele><time>2026-04-12T09:00:34.001Z</time></trkpt><trkpt lat="44.10489298112504" lon="9.942995037828185"><ele>8.0</ele><time>2026-04-12T09:00:35.001Z</time></trkpt><trkpt lat="44.1049269887721" lon="9.942795072083381"><ele>8.0</ele><time>2026-04-12T09:00:36.001Z</time></trkpt><trkpt lat="44.10495884789227" lon="9.942609119673499"><ele>8.0</ele><time>2026-04-12T09:00:37.001Z</time></trkpt><trkpt lat="44.10499303002972" lon="9.942431180079483"><ele>8.0</ele><time>2026-04-12T09:00:38.001Z</time></trkpt><trkpt lat="44.10502712454943" lon="9.942249126578563"><ele>8.0</ele><time>2026-04-12T09:00:39.001Z</time></trkpt><trkpt lat="44.105056270268946" lon="9.942075889524942"><ele>8.0</ele><time>2026-04-12T09:00:40.001Z</time></trkpt><trkpt lat="44.105084511304135" lon="9.941900433047829"><ele>8.0</ele><time>2026-04-12T09:00:41.001Z</time></trkpt><trkpt lat="44.10511542382122" lon="9.941723497200428"><ele>7.75</ele><time>2026-04-12T09:00:42.001Z</time></trkpt><trkpt lat="44.10514805367329" lon="9.941544227027052"><ele>7.5</ele><time>2026-04-12T09:00:43.001Z</time></trkpt><trkpt lat="44.10517996784204" lon="9.941364310377027"><ele>7.25</ele><time>2026-04-12T09:00:44.001Z</time></trkpt><trkpt lat="44.10521181303552" lon="9.941187125981276"><ele>7.0</ele><time>2026-04-12T09:00:45.001Z</time></trkpt><trkpt lat="44.10524273512148" lon="9.941009945936262"><ele>7.0</ele><time>2026-04-12T09:00:46.001Z</time></trkpt><trkpt lat="44.105272257073615" lon="9.94083280006965"><ele>7.0</ele><time>2026-04-12T09:00:47.001Z</time></trkpt><trkpt lat="44.10530531484613" lon="9.940649462971688"><ele>7.0</ele><time>2026-04-12T09:00:48.001Z</time></trkpt><trkpt lat="44.105337090041466" lon="9.940465619073391"><ele>7.0</ele><time>2026-04-12T09:00:49.001Z</time></trkpt><trkpt lat="44.1053691518309" lon="9.940281578396704"><ele>7.0</ele><time>2026-04-12T09:00:50.001Z</time></trkpt><trkpt lat="44.105402779820736" lon="9.940095551706484"><ele>7.0</ele><time>2026-04-12T09:00:51.001Z</time></trkpt><trkpt lat="44.10543522065512" lon="9.939912765954826"><ele>7.0</ele><time>2026-04-12T09:00:52.001Z</time></trkpt><trkpt lat="44.10546710828019" lon="9.939727647423382"><ele>7.0</ele><time>2026-04-12T09:00:53.001Z</time></trkpt><trkpt lat="44.10549956682164" lon="9.93953831691416"><ele>7.0</ele><time>2026-04-12T09:00:54.001Z</time></trkpt><trkpt lat="44.105532575172205" lon="9.93934347066697"><ele>7.0</ele><time>2026-04-12T09:00:55.001Z</time></trkpt><trkpt lat="44.10556235582755" lon="9.939153550563887"><ele>7.0</ele><time>2026-04-12T09:00:56.001Z</time></trkpt><trkpt lat="44.105597129146375" lon="9.938964555614813"><ele>7.0</ele><time>2026-04-12T09:00:57.001Z</time></trkpt><trkpt lat="44.10562763149432" lon="9.938786266498585"><ele>7.0</ele><time>2026-04-12T09:00:58.001Z</time></trkpt><trkpt lat="44.10566005983439" lon="9.938607093778735"><ele>7.0</ele><time>2026-04-12T09:00:59.001Z</time></trkpt><trkpt lat="44.10569178800659" lon="9.938427665458153"><ele>7.0</ele><time>2026-04-12T09:01:00.001Z</time></trkpt><trkpt lat="44.10572367281259" lon="9.938250791892454"><ele>7.0</ele><time>2026-04-12T09:01:01.001Z</time></trkpt><trkpt lat="44.105753822254904" lon="9.93807808020043"><ele>6.75</ele><time>2026-04-12T09:01:02.001Z</time></trkpt><trkpt lat="44.105781384285656" lon="9.937909800665167"><ele>6.5</ele><time>2026-04-12T09:01:03Z</time></trkpt><trkpt lat="44.105810869100075" lon="9.937735724769983"><ele>6.25</ele><time>2026-04-12T09:01:04Z</time></trkpt><trkpt lat="44.10584241086462" lon="9.937557533405396"><ele>6.0</ele><time>2026-04-12T09:01:05Z</time></trkpt><trkpt lat="44.105874283715984" lon="9.937377466593643"><ele>5.25</ele><time>2026-04-12T09:01:06Z</time></trkpt><trkpt lat="44.105905598405016" lon="9.937198413963882"><ele>4.5</ele><time>2026-04-12T09:01:07Z</time></trkpt><trkpt lat="44.10593903641324" lon="9.937017797140676"><ele>3.75</ele><time>2026-04-12T09:01:08Z</time></trkpt><trkpt lat="44.10597199201539" lon="9.936829798381076"><ele>3.0</ele><time>2026-04-12T09:01:09Z</time></trkpt><trkpt lat="44.10600336685754" lon="9.936645639882675"><ele>3.0</ele><time>2026-04-12T09:01:10Z</time></trkpt><trkpt lat="44.10603386080464" lon="9.936465369422379"><ele>3.0</ele><time>2026-04-12T09:01:11Z</time></trkpt><trkpt lat="44.106063298083825" lon="9.93628779301865"><ele>3.0</ele><time>2026-04-12T09:01:12Z</time></trkpt><trkpt lat="44.10609754229035" lon="9.936099816986044"><ele>3.0</ele><time>2026-04-12T09:01:13Z</time></trkpt><trkpt lat="44.10612975065301" lon="9.935914722918968"><ele>3.5</ele><time>2026-04-12T09:01:14Z</time></trkpt><trkpt lat="44.10616352781988" lon="9.935726854457657"><ele>4.0</ele><time>2026-04-12T09:01:15Z</time></trkpt><trkpt lat="44.10619571189446" lon="9.935537552072546"><ele>4.5</ele><time>2026-04-12T09:01:16Z</time></trkpt><trkpt lat="44.106227591221675" lon="9.935348782212015"><ele>5.0</ele><time>2026-04-12T09:01:17Z</time></trkpt><trkpt lat="44.10625910522874" lon="9.935163459747393"><ele>5.75</ele><time>2026-04-12T09:01:18Z</time></trkpt><trkpt lat="44.106291097946155" lon="9.934985366356269"><ele>6.5</ele><time>2026-04-12T09:01:19Z</time></trkpt><trkpt lat="44.10632413460254" lon="9.93480324764501"><ele>7.25</ele><time>2026-04-12T09:01:20Z</time></trkpt><trkpt lat="44.106357174204675" lon="9.934620106407527"><ele>8.0</ele><time>2026-04-12T09:01:21Z</time></trkpt><trkpt lat="44.106390501313214" lon="9.934437968630188"><ele>8.0</ele><time>2026-04-12T09:01:22Z</time></trkpt><trkpt lat="44.10643006963974" lon="9.934256544007738"><ele>8.0</ele><time>2026-04-12T09:01:23Z</time></trkpt><trkpt lat="44.10647604520726" lon="9.934078664905794"><ele>8.0</ele><time>2026-04-12T09:01:24Z</time></trkpt><trkpt lat="44.106526506939666" lon="9.933905268856437"><ele>8.0</ele><time>2026-04-12T09:01:25Z</time></trkpt><trkpt lat="44.10657914576173" lon="9.933733593144705"><ele>9.25</ele><time>2026-04-12T09:01:26Z</time></trkpt><trkpt lat="44.10663302139046" lon="9.933562002145967"><ele>10.5</ele><time>2026-04-12T09:01:27Z</time></trkpt><trkpt lat="44.10669243182194" lon="9.933382343848558"><ele>11.75</ele><time>2026-04-12T09:01:28Z</time></trkpt><trkpt lat="44.10675218049759" lon="9.933207285230177"><ele>13.0</ele><time>2026-04-12T09:01:29Z</time></trkpt><trkpt lat="44.106823279775995" lon="9.9330353713224"><ele>15.5</ele><time>2026-04-12T09:01:30Z</time></trkpt><trkpt lat="44.106894448105244" lon="9.93287484694623"><ele>18.0</ele><time>2026-04-12T09:01:31Z</time></trkpt><trkpt lat="44.10696804214178" lon="9.932718276671268"><ele>20.5</ele><time>2026-04-12T09:01:32Z</time></trkpt><trkpt lat="44.10704633580032" lon="9.932562660700775"><ele>23.0</ele><time>2026-04-12T09:01:33Z</time></trkpt><trkpt lat="44.107127442228595" lon="9.932406789789116"><ele>26.25</ele><time>2026-04-12T09:01:34Z</time></trkpt><trkpt lat="44.10721429732805" lon="9.932251784721279"><ele>29.5</ele><time>2026-04-12T09:01:35Z</time></trkpt><trkpt lat="44.10730200414496" lon="9.932097974712024"><ele>32.75</ele><time>2026-04-12T09:01:36Z</time></trkpt><trkpt lat="44.10738643949591" lon="9.931948264927358"><ele>36.0</ele><time>2026-04-12T09:01:37Z</time></trkpt><trkpt lat="44.10746774024705" lon="9.93179919845327"><ele>31.25</ele><time>2026-04-12T09:01:38Z</time></trkpt><trkpt lat="44.107547491601686" lon="9.931650552646696"><ele>26.5</ele><time>2026-04-12T09:01:39Z</time></trkpt><trkpt lat="44.10763157409463" lon="9.931496258591842"><ele>21.75</ele><time>2026-04-12T09:01:40Z</time></trkpt><trkpt lat="44.107713542315764" lon="9.931344691155175"><ele>17.0</ele><time>2026-04-12T09:01:41Z</time></trkpt><trkpt lat="44.10778998280988" lon="9.931203194652623"><ele>17.0</ele><time>2026-04-12T09:01:42Z</time></trkpt><trkpt lat="44.107863577689336" lon="9.931068079274034"><ele>17.0</ele><time>2026-04-12T09:01:43Z</time></trkpt><trkpt lat="44.10793765409652" lon="9.930931684220774"><ele>17.0</ele><time>2026-04-12T09:01:44Z</time></trkpt><trkpt lat="44.10801211346699" lon="9.930785481386248"><ele>17.0</ele><time>2026-04-12T09:01:45Z</time></trkpt><trkpt lat="44.108096396944866" lon="9.93062484754183"><ele>14.666666666666668</ele><time>2026-04-12T09:01:46Z</time></trkpt><trkpt lat="44.10819974370055" lon="9.930466930591235"><ele>12.333333333333334</ele><time>2026-04-12T09:01:47Z</time></trkpt><trkpt lat="44.10829969426142" lon="9.930283268898833"><ele>10.0</ele><time>2026-04-12T09:01:48Z</time></trkpt><trkpt lat="44.10838887418178" lon="9.930085471891516"><ele>12.666666666666668</ele><time>2026-04-12T09:01:49Z</time></trkpt><trkpt lat="44.10849852083837" lon="9.92989671054457"><ele>15.333333333333334</ele><time>2026-04-12T09:01:50Z</time></trkpt><trkpt lat="44.10861493812856" lon="9.92970605543785"><ele>18.0</ele><time>2026-04-12T09:01:51Z</time></trkpt><trkpt lat="44.108728198988686" lon="9.929511742169971"><ele>18.0</ele><time>2026-04-12T09:01:52Z</time></trkpt><trkpt lat="44.108841239634195" lon="9.929313640537982"><ele>18.0</ele><time>2026-04-12T09:01:53Z</time></trkpt><trkpt lat="44.10895209241378" lon="9.92911339586629"><ele>18.0</ele><time>2026-04-12T09:01:54Z</time></trkpt><trkpt lat="44.10906405301937" lon="9.928911767416377"><ele>20.0</ele><time>2026-04-12T09:01:55Z</time></trkpt><trkpt lat="44.109175828495594" lon="9.92870573734516"><ele>22.0</ele><time>2026-04-12T09:01:56Z</time></trkpt><trkpt lat="44.10928189492772" lon="9.928501654545334"><ele>24.0</ele><time>2026-04-12T09:01:57Z</time></trkpt><trkpt lat="44.10937605387058" lon="9.928291248219974"><ele>24.0</ele><time>2026-04-12T09:01:58Z</time></trkpt><trkpt lat="44.109452238028304" lon="9.928074434161307"><ele>24.0</ele><time>2026-04-12T09:01:59Z</time></trkpt><trkpt lat="44.10951087846429" lon="9.927834397599636"><ele>24.0</ele><time>2026-04-12T09:02:00Z</time></trkpt><trkpt lat="44.10955662578021" lon="9.927599154845499"><ele>30.666666666666664</ele><time>2026-04-12T09:02:01Z</time></trkpt><trkpt lat="44.10959368331413" lon="9.927354838337676"><ele>37.33333333333333</ele><time>2026-04-12T09:02:02Z</time></trkpt><trkpt lat="44.10962463858247" lon="9.927107467034253"><ele>44.0</ele><time>2026-04-12T09:02:03Z</time></trkpt><trkpt lat="44.109645913750875" lon="9.926860684218921"><ele>47.33333333333333</ele><time>2026-04-12T09:02:04Z</time></trkpt><trkpt lat="44.1096566585621" lon="9.926624252894605"><ele>50.666666666666664</ele><time>2026-04-12T09:02:05Z</time></trkpt><trkpt lat="44.10965802965657" lon="9.926396791627514"><ele>54.0</ele><time>2026-04-12T09:02:06Z</time></trkpt><trkpt lat="44.10965006719505" lon="9.926173455204712"><ele>54.0</ele><time>2026-04-12T09:02:07Z</time></trkpt><trkpt lat="44.109631210046864" lon="9.925955033514715"><ele>54.0</ele><time>2026-04-12T09:02:08Z</time></trkpt><trkpt lat="44.10960488830606" lon="9.925739588489437"><ele>54.0</ele><time>2026-04-12T09:02:09Z</time></trkpt><trkpt lat="44.10957457476882" lon="9.925525411277626"><ele>51.666666666666664</ele><time>2026-04-12T09:02:10Z</time></trkpt><trkpt lat="44.1095384183721" lon="9.925316420783426"><ele>49.33333333333333</ele><time>2026-04-12T09:02:11Z</time></trkpt><trkpt lat="44.10950378892312" lon="9.925097126002456"><ele>47.0</ele><time>2026-04-12T09:02:12Z</time></trkpt><trkpt lat="44.10946860602486" lon="9.924879628477296"><ele>41.33333333333333</ele><time>2026-04-12T09:02:13Z</time></trkpt><trkpt lat="44.109431895624375" lon="9.924661377314068"><ele>35.666666666666664</ele><time>2026-04-12T09:02:14.001Z</time></trkpt><trkpt lat="44.10939558325359" lon="9.924435573927955"><ele>30.0</ele><time>2026-04-12T09:02:15.001Z</time></trkpt><trkpt lat="44.10935781220879" lon="9.924209625554596"><ele>25.333333333333332</ele><time>2026-04-12T09:02:16.001Z</time></trkpt><trkpt lat="44.10932176014878" lon="9.923986596729174"><ele>20.666666666666664</ele><time>2026-04-12T09:02:17.001Z</time></trkpt><trkpt lat="44.1092847579123" lon="9.923757924174629"><ele>16.0</ele><time>2026-04-12T09:02:18.001Z</time></trkpt><trkpt lat="44.10924544621947" lon="9.92352438049615"><ele>14.0</ele><time>2026-04-12T09:02:19.001Z</time></trkpt><trkpt lat="44.10920577722728" lon="9.923290938708934"><ele>12.0</ele><time>2026-04-12T09:02:20.001Z</time></trkpt><trkpt lat="44.109169488922284" lon="9.923060802300354"><ele>10.0</ele><time>2026-04-12T09:02:21.001Z</time></trkpt><trkpt lat="44.1091338871163" lon="9.92283422235262"><ele>10.0</ele><time>2026-04-12T09:02:22.001Z</time></trkpt><trkpt lat="44.10910598075769" lon="9.922611172176849"><ele>10.0</ele><time>2026-04-12T09:02:23.001Z</time></trkpt><trkpt lat="44.109097718499086" lon="9.922385873089903"><ele>10.0</ele><time>2026-04-12T09:02:24.001Z</time></trkpt><trkpt lat="44.10910790700214" lon="9.922165372235712"><ele>10.5</ele><time>2026-04-12T09:02:25.001Z</time></trkpt><trkpt lat="44.109138510171036" lon="9.921956538958693"><ele>11.0</ele><time>2026-04-12T09:02:26.001Z</time></trkpt><trkpt lat="44.10916439858873" lon="9.921759044970385"><ele>11.5</ele><time>2026-04-12T09:02:27.001Z</time></trkpt><trkpt lat="44.109189749747735" lon="9.921568042206259"><ele>12.0</ele><time>2026-04-12T09:02:28.001Z</time></trkpt><trkpt lat="44.109210566823045" lon="9.921385138710823"><ele>13.0</ele><time>2026-04-12T09:02:29.001Z</time></trkpt><trkpt lat="44.10922662562104" lon="9.921221971745165"><ele>14.0</ele><time>2026-04-12T09:02:30.001Z</time></trkpt><trkpt lat="44.10923935857262" lon="9.92107094606248"><ele>15.0</ele><time>2026-04-12T09:02:31.001Z</time></trkpt><trkpt lat="44.10924312367583" lon="9.920944555935405"><ele>16.0</ele><time>2026-04-12T09:02:32.001Z</time></trkpt><trkpt lat="44.109237558194195" lon="9.920831112795915"><ele>17.0</ele><time>2026-04-12T09:02:33.001Z</time></trkpt><trkpt lat="44.10921596215069" lon="9.920726851428405"><ele>17.25</ele><time>2026-04-12T09:02:34.001Z</time></trkpt><trkpt lat="44.109180285186454" lon="9.92060228532938"><ele>17.5</ele><time>2026-04-12T09:02:35.001Z</time></trkpt><trkpt lat="44.1091278338906" lon="9.920468465452267"><ele>17.75</ele><time>2026-04-12T09:02:36.001Z</time></trkpt><trkpt lat="44.109071072286355" lon="9.920321895458143"><ele>18.0</ele><time>2026-04-12T09:02:37.001Z</time></trkpt><trkpt lat="44.10902775621506" lon="9.920159191412989"><ele>18.25</ele><time>2026-04-12T09:02:38.001Z</time></trkpt><trkpt lat="44.10901327335911" lon="9.91999403604896"><ele>18.5</ele><time>2026-04-12T09:02:39.001Z</time></trkpt><trkpt lat="44.10904072622924" lon="9.919837306949395"><ele>18.75</ele><time>2026-04-12T09:02:40.001Z</time></trkpt><trkpt lat="44.10909677789072" lon="9.919704477251654"><ele>19.0</ele><time>2026-04-12T09:02:41.001Z</time></trkpt><trkpt lat="44.10917343134821" lon="9.919597546821539"><ele>18.2</ele><time>2026-04-12T09:02:42.001Z</time></trkpt><trkpt lat="44.10924953332221" lon="9.919504165099902"><ele>17.4</ele><time>2026-04-12T09:02:43.001Z</time></trkpt><trkpt lat="44.10932702960355" lon="9.919417010368289"><ele>16.6</ele><time>2026-04-12T09:02:44.001Z</time></trkpt><trkpt lat="44.109402372449516" lon="9.91932447605084"><ele>15.8</ele><time>2026-04-12T09:02:45.001Z</time></trkpt><trkpt lat="44.10947481143975" lon="9.919223539972743"><ele>15.0</ele><time>2026-04-12T09:02:46.001Z</time></trkpt><trkpt lat="44.10955644871839" lon="9.919124329626612"><ele>14.8</ele><time>2026-04-12T09:02:47.001Z</time></trkpt><trkpt lat="44.109637053367976" lon="9.919018939129815"><ele>14.6</ele><time>2026-04-12T09:02:48.001Z</time></trkpt><trkpt lat="44.10971541209063" lon="9.918915346023022"><ele>14.399999999999999</ele><time>2026-04-12T09:02:49.001Z</time></trkpt><trkpt lat="44.109799250622984" lon="9.918808311145462"><ele>14.2</ele><time>2026-04-12T09:02:50.001Z</time></trkpt><trkpt lat="44.109881631976315" lon="9.918706525733965"><ele>14.0</ele><time>2026-04-12T09:02:51.001Z</time></trkpt><trkpt lat="44.109961387478684" lon="9.91859727882228"><ele>13.6</ele><time>2026-04-12T09:02:52.001Z</time></trkpt><trkpt lat="44.11004388162786" lon="9.918490118005662"><ele>13.2</ele><time>2026-04-12T09:02:53.001Z</time></trkpt><trkpt lat="44.11012130164434" lon="9.918384897423307"><ele>12.799999999999999</ele><time>2026-04-12T09:02:54.001Z</time></trkpt><trkpt lat="44.11019911101868" lon="9.918276090745994"><ele>12.399999999999999</ele><time>2026-04-12T09:02:55.001Z</time></trkpt><trkpt lat="44.110279912103145" lon="9.918170962630052"><ele>12.0</ele><time>2026-04-12T09:02:56.001Z</time></trkpt><trkpt lat="44.11036467154709" lon="9.918071488042237"><ele>12.0</ele><time>2026-04-12T09:02:57.001Z</time></trkpt><trkpt lat="44.110453766085655" lon="9.917974741241736"><ele>12.0</ele><time>2026-04-12T09:02:58.001Z</time></trkpt><trkpt lat="44.11054710057189" lon="9.91788651497431"><ele>12.0</ele><time>2026-04-12T09:02:59.001Z</time></trkpt><trkpt lat="44.11063893222432" lon="9.917803262943865"><ele>12.0</ele><time>2026-04-12T09:03:00.001Z</time></trkpt><trkpt lat="44.1107334804143" lon="9.91772625785991"><ele>12.0</ele><time>2026-04-12T09:03:01.001Z</time></trkpt><trkpt lat="44.11082463036902" lon="9.917652511970582"><ele>11.8</ele><time>2026-04-12T09:03:02.001Z</time></trkpt><trkpt lat="44.11091476430856" lon="9.91757888461129"><ele>11.6</ele><time>2026-04-12T09:03:03.001Z</time></trkpt><trkpt lat="44.11100682945021" lon="9.917503929617048"><ele>11.4</ele><time>2026-04-12T09:03:04.001Z</time></trkpt><trkpt lat="44.1111023760504" lon="9.917434268076361"><ele>11.200000000000001</ele><time>2026-04-12T09:03:05.001Z</time></trkpt><trkpt lat="44.11119304222285" lon="9.917360760286456"><ele>11.0</ele><time>2026-04-12T09:03:06.001Z</time></trkpt><trkpt lat="44.111280191781375" lon="9.91728714723826"><ele>11.200000000000001</ele><time>2026-04-12T09:03:07.001Z</time></trkpt><trkpt lat="44.11136501586931" lon="9.917215952627348"><ele>11.4</ele><time>2026-04-12T09:03:08.001Z</time></trkpt><trkpt lat="44.11144926142539" lon="9.917145837262735"><ele>11.6</ele><time>2026-04-12T09:03:09Z</time></trkpt><trkpt lat="44.11152926418484" lon="9.917077756406535"><ele>11.8</ele><time>2026-04-12T09:03:10Z</time></trkpt><trkpt lat="44.11161070320661" lon="9.917020549487296"><ele>12.0</ele><time>2026-04-12T09:03:11Z</time></trkpt><trkpt lat="44.11169286439728" lon="9.91695561615359"><ele>12.0</ele><time>2026-04-12T09:03:12Z</time></trkpt><trkpt lat="44.11177811228523" lon="9.916886555320966"><ele>12.0</ele><time>2026-04-12T09:03:13Z</time></trkpt><trkpt lat="44.11186878828121" lon="9.916811785614351"><ele>12.0</ele><time>2026-04-12T09:03:14Z</time></trkpt><trkpt lat="44.11197218280134" lon="9.916717817552025"><ele>12.0</ele><time>2026-04-12T09:03:15Z</time></trkpt><trkpt lat="44.112091267458126" lon="9.916609818755592"><ele>13.666666666666668</ele><time>2026-04-12T09:03:16Z</time></trkpt><trkpt lat="44.112234771934055" lon="9.916501838547022"><ele>15.333333333333334</ele><time>2026-04-12T09:03:17Z</time></trkpt><trkpt lat="44.11239528350455" lon="9.916382904836597"><ele>17.0</ele><time>2026-04-12T09:03:18Z</time></trkpt><trkpt lat="44.11257077944772" lon="9.916254529459426"><ele>17.0</ele><time>2026-04-12T09:03:19Z</time></trkpt><trkpt lat="44.11273497067959" lon="9.916130963143756"><ele>17.0</ele><time>2026-04-12T09:03:20Z</time></trkpt><trkpt lat="44.112882102413465" lon="9.915987255684154"><ele>17.0</ele><time>2026-04-12T09:03:21Z</time></trkpt><trkpt lat="44.11302660173228" lon="9.915842625215182"><ele>15.0</ele><time>2026-04-12T09:03:22Z</time></trkpt><trkpt lat="44.113159079247716" lon="9.915681741439123"><ele>13.0</ele><time>2026-04-12T09:03:23Z</time></trkpt><trkpt lat="44.1132869852807" lon="9.91551840980365"><ele>11.0</ele><time>2026-04-12T09:03:24Z</time></trkpt><trkpt lat="44.11341384863605" lon="9.91535368320539"><ele>11.0</ele><time>2026-04-12T09:03:25Z</time></trkpt><trkpt lat="44.11354298365972" lon="9.915195336111337"><ele>11.0</ele><time>2026-04-12T09:03:26Z</time></trkpt><trkpt lat="44.1136729159705" lon="9.915038157904146"><ele>11.0</ele><time>2026-04-12T09:03:27Z</time></trkpt><trkpt lat="44.1137980064181" lon="9.914887182723316"><ele>11.333333333333332</ele><time>2026-04-12T09:03:28Z</time></trkpt><trkpt lat="44.11392153987945" lon="9.914735430348918"><ele>11.666666666666666</ele><time>2026-04-12T09:03:29Z</time></trkpt><trkpt lat="44.114050505430555" lon="9.914589025978938"><ele>12.0</ele><time>2026-04-12T09:03:30Z</time></trkpt><trkpt lat="44.11417755279153" lon="9.914435731527357"><ele>12.0</ele><time>2026-04-12T09:03:31Z</time></trkpt><trkpt lat="44.114307324559725" lon="9.914296086208871"><ele>12.0</ele><time>2026-04-12T09:03:32Z</time></trkpt><trkpt lat="44.114436079323085" lon="9.914155361742555"><ele>12.0</ele><time>2026-04-12T09:03:33Z</time></trkpt><trkpt lat="44.11456600729873" lon="9.914019022876131"><ele>11.666666666666666</ele><time>2026-04-12T09:03:34Z</time></trkpt><trkpt lat="44.11469404153765" lon="9.913880902720244"><ele>11.333333333333332</ele><time>2026-04-12T09:03:35Z</time></trkpt><trkpt lat="44.114824767755046" lon="9.913738634374905"><ele>11.0</ele><time>2026-04-12T09:03:36Z</time></trkpt><trkpt lat="44.11495558463105" lon="9.913616774962918"><ele>11.0</ele><time>2026-04-12T09:03:37Z</time></trkpt><trkpt lat="44.115089852840086" lon="9.913497513191091"><ele>11.0</ele><time>2026-04-12T09:03:38Z</time></trkpt><trkpt lat="44.11522443077775" lon="9.913383116042198"><ele>11.0</ele><time>2026-04-12T09:03:39Z</time></trkpt><trkpt lat="44.115359303421386" lon="9.913280601736348"><ele>12.0</ele><time>2026-04-12T09:03:40Z</time></trkpt><trkpt lat="44.115491147826376" lon="9.913183299124908"><ele>13.0</ele><time>2026-04-12T09:03:41Z</time></trkpt><trkpt lat="44.115615233107754" lon="9.913075687893397"><ele>14.0</ele><time>2026-04-12T09:03:42Z</time></trkpt><trkpt lat="44.115722416958405" lon="9.912956493288123"><ele>15.0</ele><time>2026-04-12T09:03:43Z</time></trkpt><trkpt lat="44.115800757755835" lon="9.912830362321948"><ele>15.0</ele><time>2026-04-12T09:03:44Z</time></trkpt><trkpt lat="44.115858431841744" lon="9.912712969682639"><ele>15.0</ele><time>2026-04-12T09:03:45Z</time></trkpt><trkpt lat="44.11590991539361" lon="9.912599978445805"><ele>15.0</ele><time>2026-04-12T09:03:46Z</time></trkpt><trkpt lat="44.11596965114722" lon="9.91250513031719"><ele>15.0</ele><time>2026-04-12T09:03:47Z</time></trkpt><trkpt lat="44.116043830857336" lon="9.912443912155386"><ele>15.0</ele><time>2026-04-12T09:03:48Z</time></trkpt><trkpt lat="44.11611889192369" lon="9.912400194323697"><ele>15.8</ele><time>2026-04-12T09:03:49Z</time></trkpt><trkpt lat="44.116178739970294" lon="9.91233088556666"><ele>16.6</ele><time>2026-04-12T09:03:50Z</time></trkpt><trkpt lat="44.11620648854851" lon="9.912245283441935"><ele>17.4</ele><time>2026-04-12T09:03:51Z</time></trkpt><trkpt lat="44.11621088004261" lon="9.912154422905934"><ele>18.2</ele><time>2026-04-12T09:03:52Z</time></trkpt><trkpt lat="44.11620150442467" lon="9.91205870469197"><ele>19.0</ele><time>2026-04-12T09:03:53Z</time></trkpt><trkpt lat="44.11622024153779" lon="9.911814456794403"><ele>18.75</ele><time>2026-04-12T09:03:55Z</time></trkpt><trkpt lat="44.116221757781474" lon="9.911652597274685"><ele>18.5</ele><time>2026-04-12T09:03:56Z</time></trkpt><trkpt lat="44.11619813694092" lon="9.911486503468824"><ele>18.25</ele><time>2026-04-12T09:03:57Z</time></trkpt><trkpt lat="44.11616448665986" lon="9.91130526739096"><ele>18.0</ele><time>2026-04-12T09:03:58Z</time></trkpt><trkpt lat="44.116128227375334" lon="9.911111865813144"><ele>18.0</ele><time>2026-04-12T09:03:59Z</time></trkpt><trkpt lat="44.116095836142456" lon="9.910926469502007"><ele>18.0</ele><time>2026-04-12T09:04:00Z</time></trkpt><trkpt lat="44.11606120140416" lon="9.910751946905828"><ele>18.0</ele><time>2026-04-12T09:04:01Z</time></trkpt><trkpt lat="44.116040597780135" lon="9.910571812633888"><ele>18.0</ele><time>2026-04-12T09:04:02Z</time></trkpt><trkpt lat="44.11605430892859" lon="9.910376403364033"><ele>18.25</ele><time>2026-04-12T09:04:03Z</time></trkpt><trkpt lat="44.116036598778074" lon="9.91018793591707"><ele>18.5</ele><time>2026-04-12T09:04:04Z</time></trkpt><trkpt lat="44.116037533870454" lon="9.910005520400386"><ele>18.75</ele><time>2026-04-12T09:04:05Z</time></trkpt><trkpt lat="44.116031147387" lon="9.909832030788289"><ele>19.0</ele><time>2026-04-12T09:04:06Z</time></trkpt><trkpt lat="44.1160279415877" lon="9.909682622228228"><ele>19.0</ele><time>2026-04-12T09:04:07Z</time></trkpt><trkpt lat="44.116029139112555" lon="9.909543924656502"><ele>19.0</ele><time>2026-04-12T09:04:08Z</time></trkpt><trkpt lat="44.11603409257087" lon="9.90941248971794"><ele>19.0</ele><time>2026-04-12T09:04:09Z</time></trkpt><trkpt lat="44.11604353652945" lon="9.909276483682943"><ele>19.0</ele><time>2026-04-12T09:04:10Z</time></trkpt><trkpt lat="44.11605891310618" lon="9.909124586105293"><ele>19.0</ele><time>2026-04-12T09:04:11Z</time></trkpt><trkpt lat="44.11607873317411" lon="9.908962900543585"><ele>19.5</ele><time>2026-04-12T09:04:12Z</time></trkpt><trkpt lat="44.116101278140896" lon="9.908790160030662"><ele>20.0</ele><time>2026-04-12T09:04:13Z</time></trkpt><trkpt lat="44.11610568032556" lon="9.908633815734031"><ele>20.5</ele><time>2026-04-12T09:04:14.001Z</time></trkpt><trkpt lat="44.11609292228281" lon="9.908498237617795"><ele>21.0</ele><time>2026-04-12T09:04:15.001Z</time></trkpt><trkpt lat="44.11608895451099" lon="9.908309994860767"><ele>21.333333333333332</ele><time>2026-04-12T09:04:17.001Z</time></trkpt><trkpt lat="44.11612424517201" lon="9.908200995157229"><ele>21.666666666666668</ele><time>2026-04-12T09:04:19.001Z</time></trkpt><trkpt lat="44.116212779719376" lon="9.908144045778641"><ele>22.0</ele><time>2026-04-12T09:04:21.001Z</time></trkpt><trkpt lat="44.11627279025697" lon="9.908069517344863"><ele>22.333333333333336</ele><time>2026-04-12T09:04:23.001Z</time></trkpt><trkpt lat="44.1163530528368" lon="9.90804375796667"><ele>22.666666666666668</ele><time>2026-04-12T09:04:25.001Z</time></trkpt><trkpt lat="44.116421405028746" lon="9.908057215706275"><ele>23.0</ele><time>2026-04-12T09:04:26.001Z</time></trkpt><trkpt lat="44.11648874764172" lon="9.908064891786978"><ele>23.0</ele><time>2026-04-12T09:04:27.001Z</time></trkpt><trkpt lat="44.116589256520186" lon="9.908036716635452"><ele>23.0</ele><time>2026-04-12T09:04:29.001Z</time></trkpt><trkpt lat="44.11663515628492" lon="9.90793418067267"><ele>23.0</ele><time>2026-04-12T09:04:33.001Z</time></trkpt><trkpt lat="44.11659347214811" lon="9.908054861092591"><ele>23.0</ele><time>2026-04-12T09:04:49.001Z</time></trkpt><trkpt lat="44.11652711816932" lon="9.908021490216377"><ele>23.0</ele><time>2026-04-12T09:04:50.001Z</time></trkpt><trkpt lat="44.11627588076522" lon="9.90804790636101"><ele>23.0</ele><time>2026-04-12T09:04:52.001Z</time></trkpt><trkpt lat="44.116208434285866" lon="9.90808470238328"><ele>23.0</ele><time>2026-04-12T09:04:53.001Z</time></trkpt><trkpt lat="44.116150969240444" lon="9.908135821405306"><ele>23.0</ele><time>2026-04-12T09:04:54.001Z</time></trkpt><trkpt lat="44.11609256277269" lon="9.908183653714392"><ele>23.0</ele><time>2026-04-12T09:04:55.001Z</time></trkpt><trkpt lat="44.11605514797157" lon="9.90809919373312"><ele>23.0</ele><time>2026-04-12T09:05:03.001Z</time></trkpt><trkpt lat="44.116051671813054" lon="9.907968220079173"><ele>23.0</ele><time>2026-04-12T09:05:04.001Z</time></trkpt><trkpt lat="44.116034434063344" lon="9.907857868662978"><ele>23.0</ele><time>2026-04-12T09:05:05.001Z</time></trkpt><trkpt lat="44.11599597578294" lon="9.907762322150331"><ele>23.0</ele><time>2026-04-12T09:05:06.001Z</time></trkpt><trkpt lat="44.11594432356207" lon="9.907685135546625"><ele>23.0</ele><time>2026-04-12T09:05:07.001Z</time></trkpt><trkpt lat="44.115870551934066" lon="9.907638428397274"><ele>23.0</ele><time>2026-04-12T09:05:08.001Z</time></trkpt><trkpt lat="44.115789272141704" lon="9.907607675575445"><ele>23.0</ele><time>2026-04-12T09:05:09.001Z</time></trkpt><trkpt lat="44.11570923584294" lon="9.907589860504578"><ele>23.0</ele><time>2026-04-12T09:05:10.001Z</time></trkpt><trkpt lat="44.11563696147898" lon="9.907536964278524"><ele>26.333333333333336</ele><time>2026-04-12T09:05:11.001Z</time></trkpt><trkpt lat="44.11556529903801" lon="9.907489036648862"><ele>29.666666666666668</ele><time>2026-04-12T09:05:12.001Z</time></trkpt><trkpt lat="44.11549731617523" lon="9.907462905818909"><ele>33.0</ele><time>2026-04-12T09:05:13.001Z</time></trkpt><trkpt lat="44.11543450897056" lon="9.907431165680531"><ele>36.333333333333336</ele><time>2026-04-12T09:05:14.001Z</time></trkpt><trkpt lat="44.11535967997086" lon="9.90740498985906"><ele>39.66666666666667</ele><time>2026-04-12T09:05:15Z</time></trkpt><trkpt lat="44.11527663820399" lon="9.907424212050069"><ele>43.0</ele><time>2026-04-12T09:05:16Z</time></trkpt><trkpt lat="44.11519674242648" lon="9.907449483421365"><ele>43.0</ele><time>2026-04-12T09:05:17Z</time></trkpt><trkpt lat="44.115124137055396" lon="9.90747128263762"><ele>43.0</ele><time>2026-04-12T09:05:18Z</time></trkpt><trkpt lat="44.1150389523195" lon="9.907457948228853"><ele>43.0</ele><time>2026-04-12T09:05:20Z</time></trkpt><trkpt lat="44.115037748120066" lon="9.90733603340917"><ele>43.0</ele><time>2026-04-12T09:05:22Z</time></trkpt><trkpt lat="44.11514833709775" lon="9.907273364806866"><ele>43.0</ele><time>2026-04-12T09:05:24Z</time></trkpt><trkpt lat="44.1152036304501" lon="9.907207958974881"><ele>43.0</ele><time>2026-04-12T09:05:25Z</time></trkpt><trkpt lat="44.115285461921495" lon="9.90715735147072"><ele>43.0</ele><time>2026-04-12T09:05:26Z</time></trkpt><trkpt lat="44.115352000101375" lon="9.907075255017508"><ele>43.0</ele><time>2026-04-12T09:05:27Z</time></trkpt><trkpt lat="44.115397958505994" lon="9.906973354912068"><ele>43.0</ele><time>2026-04-12T09:05:28Z</time></trkpt><trkpt lat="44.1154301838796" lon="9.906826060894703"><ele>43.0</ele><time>2026-04-12T09:05:29Z</time></trkpt><trkpt lat="44.11544212716975" lon="9.906644900397477"><ele>43.0</ele><time>2026-04-12T09:05:30Z</time></trkpt><trkpt lat="44.11542407581334" lon="9.90654502958535"><ele>45.4</ele><time>2026-04-12T09:05:31Z</time></trkpt><trkpt lat="44.11542260160449" lon="9.906376385045949"><ele>47.8</ele><time>2026-04-12T09:05:32Z</time></trkpt><trkpt lat="44.11540481899591" lon="9.906236189049475"><ele>50.2</ele><time>2026-04-12T09:05:33Z</time></trkpt><trkpt lat="44.11539909185293" lon="9.906093625928726"><ele>52.6</ele><time>2026-04-12T09:05:34Z</time></trkpt><trkpt lat="44.11539547437195" lon="9.905956195703997"><ele>55.0</ele><time>2026-04-12T09:05:35Z</time></trkpt><trkpt lat="44.11538148230118" lon="9.90581687428434"><ele>56.8</ele><time>2026-04-12T09:05:36Z</time></trkpt><trkpt lat="44.11533777869936" lon="9.905682050686282"><ele>58.6</ele><time>2026-04-12T09:05:37Z</time></trkpt><trkpt lat="44.11529687198843" lon="9.905548745048845"><ele>60.400000000000006</ele><time>2026-04-12T09:05:38Z</time></trkpt><trkpt lat="44.115248471850954" lon="9.905417993929667"><ele>62.2</ele><time>2026-04-12T09:05:39Z</time></trkpt><trkpt lat="44.11518952174126" lon="9.905283766098925"><ele>64.0</ele><time>2026-04-12T09:05:40Z</time></trkpt><trkpt lat="44.115113029811354" lon="9.90516221881878"><ele>62.2</ele><time>2026-04-12T09:05:41Z</time></trkpt><trkpt lat="44.115031890327074" lon="9.905048299652085"><ele>60.400000000000006</ele><time>2026-04-12T09:05:42Z</time></trkpt><trkpt lat="44.11496270259123" lon="9.904925429478709"><ele>58.6</ele><time>2026-04-12T09:05:43Z</time></trkpt><trkpt lat="44.11491352020533" lon="9.904816170544926"><ele>56.8</ele><time>2026-04-12T09:05:44Z</time></trkpt><trkpt lat="44.11488076994404" lon="9.904708559236038"><ele>55.0</ele><time>2026-04-12T09:05:45Z</time></trkpt><trkpt lat="44.11484631645374" lon="9.904603557929828"><ele>61.2</ele><time>2026-04-12T09:05:46Z</time></trkpt><trkpt lat="44.114805286941674" lon="9.904510037914163"><ele>67.4</ele><time>2026-04-12T09:05:47Z</time></trkpt><trkpt lat="44.11475011668604" lon="9.904416916032615"><ele>73.6</ele><time>2026-04-12T09:05:48Z</time></trkpt><trkpt lat="44.11467066416063" lon="9.90434170058814"><ele>79.8</ele><time>2026-04-12T09:05:49Z</time></trkpt><trkpt lat="44.11457785277644" lon="9.904292079411041"><ele>86.0</ele><time>2026-04-12T09:05:50Z</time></trkpt><trkpt lat="44.11447468627484" lon="9.904271503970094"><ele>86.0</ele><time>2026-04-12T09:05:51Z</time></trkpt><trkpt lat="44.11437513476973" lon="9.90426729843601"><ele>86.0</ele><time>2026-04-12T09:05:52Z</time></trkpt><trkpt lat="44.11429523857681" lon="9.904250534047508"><ele>86.0</ele><time>2026-04-12T09:05:53Z</time></trkpt><trkpt lat="44.11423026342573" lon="9.904201635967045"><ele>86.0</ele><time>2026-04-12T09:05:54Z</time></trkpt><trkpt lat="44.11418088464126" lon="9.90411462360424"><ele>86.0</ele><time>2026-04-12T09:05:55Z</time></trkpt><trkpt lat="44.11413072363559" lon="9.90401944860737"><ele>86.0</ele><time>2026-04-12T09:05:56Z</time></trkpt><trkpt lat="44.11407461739194" lon="9.903937031860922"><ele>88.19999999999999</ele><time>2026-04-12T09:05:57Z</time></trkpt><trkpt lat="44.114001603507326" lon="9.903873458696607"><ele>90.39999999999999</ele><time>2026-04-12T09:05:58Z</time></trkpt><trkpt lat="44.113916283425866" lon="9.903823477745293"><ele>92.6</ele><time>2026-04-12T09:05:59Z</time></trkpt><trkpt lat="44.113821347483196" lon="9.903760580354648"><ele>94.8</ele><time>2026-04-12T09:06:00Z</time></trkpt><trkpt lat="44.113734576841836" lon="9.903691684535445"><ele>97.0</ele><time>2026-04-12T09:06:01Z</time></trkpt><trkpt lat="44.11364340986285" lon="9.903638922520733"><ele>97.00000000000001</ele><time>2026-04-12T09:06:02Z</time></trkpt><trkpt lat="44.11354548477947" lon="9.903617714528997"><ele>97.0</ele><time>2026-04-12T09:06:03Z</time></trkpt><trkpt lat="44.1134490964904" lon="9.90362636432126"><ele>97.0</ele><time>2026-04-12T09:06:04Z</time></trkpt><trkpt lat="44.113363383870414" lon="9.903611790004609"><ele>97.0</ele><time>2026-04-12T09:06:05Z</time></trkpt><trkpt lat="44.11329451437464" lon="9.903631304528624"><ele>97.00000000000001</ele><time>2026-04-12T09:06:06Z</time></trkpt><trkpt lat="44.113254475622526" lon="9.903530692956924"><ele>97.0</ele><time>2026-04-12T09:06:07Z</time></trkpt><trkpt lat="44.11320867300562" lon="9.903461232133898"><ele>100.19999999999999</ele><time>2026-04-12T09:06:08Z</time></trkpt><trkpt lat="44.11319324491175" lon="9.903363931936171"><ele>103.4</ele><time>2026-04-12T09:06:09Z</time></trkpt><trkpt lat="44.113177837524795" lon="9.903215109863119"><ele>106.60000000000001</ele><time>2026-04-12T09:06:11Z</time></trkpt><trkpt lat="44.113158741778946" lon="9.9030951009037"><ele>109.80000000000001</ele><time>2026-04-12T09:06:13Z</time></trkpt><trkpt lat="44.11300692684539" lon="9.903119970556785"><ele>113.0</ele><time>2026-04-12T09:06:15.001Z</time></trkpt><trkpt lat="44.11297451270744" lon="9.903239675413994"><ele>112.99999999999999</ele><time>2026-04-12T09:06:16.001Z</time></trkpt><trkpt lat="44.1129193564963" lon="9.90333118353939"><ele>113.0</ele><time>2026-04-12T09:06:17.001Z</time></trkpt><trkpt lat="44.112870387249174" lon="9.903432549590526"><ele>113.0</ele><time>2026-04-12T09:06:18.001Z</time></trkpt><trkpt lat="44.11283239070789" lon="9.903525945593572"><ele>113.0</ele><time>2026-04-12T09:06:19.001Z</time></trkpt><trkpt lat="44.112826001271" lon="9.903637964975841"><ele>112.99999999999999</ele><time>2026-04-12T09:06:20.001Z</time></trkpt><trkpt lat="44.11290194628337" lon="9.903731121404597"><ele>113.0</ele><time>2026-04-12T09:06:21.001Z</time></trkpt><trkpt lat="44.11297453114637" lon="9.903797729277414"><ele>112.4</ele><time>2026-04-12T09:06:22.001Z</time></trkpt><trkpt lat="44.11305948329016" lon="9.90386294749377"><ele>111.80000000000001</ele><time>2026-04-12T09:06:23.001Z</time></trkpt><trkpt lat="44.11316494548024" lon="9.903894420028152"><ele>111.2</ele><time>2026-04-12T09:06:24.001Z</time></trkpt><trkpt lat="44.11328406143123" lon="9.903916267532042"><ele>110.6</ele><time>2026-04-12T09:06:25.001Z</time></trkpt><trkpt lat="44.1134019117819" lon="9.903967961179635"><ele>110.0</ele><time>2026-04-12T09:06:26.001Z</time></trkpt><trkpt lat="44.11350902046651" lon="9.904002578557314"><ele>107.83333333333333</ele><time>2026-04-12T09:06:27.001Z</time></trkpt><trkpt lat="44.11359417488524" lon="9.904044282344097"><ele>105.66666666666666</ele><time>2026-04-12T09:06:28.001Z</time></trkpt><trkpt lat="44.113697816764684" lon="9.90411261987967"><ele>103.5</ele><time>2026-04-12T09:06:30.001Z</time></trkpt><trkpt lat="44.11375685150591" lon="9.904157732744435"><ele>101.33333333333334</ele><time>2026-04-12T09:06:31.001Z</time></trkpt><trkpt lat="44.113814860138675" lon="9.904214648340021"><ele>99.16666666666667</ele><time>2026-04-12T09:06:32.001Z</time></trkpt><trkpt lat="44.113852529100285" lon="9.904290309024434"><ele>97.0</ele><time>2026-04-12T09:06:33.001Z</time></trkpt><trkpt lat="44.11387578679313" lon="9.904383570413222"><ele>96.50000000000001</ele><time>2026-04-12T09:06:34.001Z</time></trkpt><trkpt lat="44.113906078234784" lon="9.904481845383687"><ele>96.0</ele><time>2026-04-12T09:06:36.001Z</time></trkpt><trkpt lat="44.11394209604393" lon="9.904595565513034"><ele>95.5</ele><time>2026-04-12T09:06:38.001Z</time></trkpt><trkpt lat="44.113964081318" lon="9.90468536494094"><ele>95.0</ele><time>2026-04-12T09:06:40.001Z</time></trkpt><trkpt lat="44.11390002791145" lon="9.904720744142214"><ele>94.5</ele><time>2026-04-12T09:06:44.001Z</time></trkpt><trkpt lat="44.11389085440469" lon="9.904569198140766"><ele>94.0</ele><time>2026-04-12T09:06:46.001Z</time></trkpt><trkpt lat="44.113859150493816" lon="9.904468639100775"><ele>94.0</ele><time>2026-04-12T09:06:47.001Z</time></trkpt><trkpt lat="44.113810951511695" lon="9.904367685445994"><ele>94.0</ele><time>2026-04-12T09:06:48.001Z</time></trkpt><trkpt lat="44.11376378427373" lon="9.904277010777943"><ele>94.0</ele><time>2026-04-12T09:06:49.001Z</time></trkpt><trkpt lat="44.11369447317" lon="9.90421483595403"><ele>94.0</ele><time>2026-04-12T09:06:51.001Z</time></trkpt><trkpt lat="44.11362667084105" lon="9.904256063062956"><ele>94.0</ele><time>2026-04-12T09:06:53.001Z</time></trkpt><trkpt lat="44.113683825332906" lon="9.90441120900931"><ele>94.0</ele><time>2026-04-12T09:06:55.001Z</time></trkpt><trkpt lat="44.113738040761675" lon="9.904470309713767"><ele>94.0</ele><time>2026-04-12T09:06:56.001Z</time></trkpt><trkpt lat="44.113775302198995" lon="9.904542020437885"><ele>94.0</ele><time>2026-04-12T09:06:57.001Z</time></trkpt><trkpt lat="44.113805972334085" lon="9.904654480685387"><ele>94.0</ele><time>2026-04-12T09:06:59.001Z</time></trkpt><trkpt lat="44.113763657843464" lon="9.904735291317776"><ele>94.0</ele><time>2026-04-12T09:07:01.001Z</time></trkpt><trkpt lat="44.113626453658036" lon="9.904705520045649"><ele>94.0</ele><time>2026-04-12T09:07:03.001Z</time></trkpt><trkpt lat="44.11354864068031" lon="9.904660694117506"><ele>94.0</ele><time>2026-04-12T09:07:04.001Z</time></trkpt><trkpt lat="44.11344863733277" lon="9.904659390124602"><ele>94.0</ele><time>2026-04-12T09:07:05.001Z</time></trkpt><trkpt lat="44.113307495673425" lon="9.904618897333755"><ele>94.0</ele><time>2026-04-12T09:07:07.001Z</time></trkpt><trkpt lat="44.11321946364355" lon="9.90457048790864"><ele>94.0</ele><time>2026-04-12T09:07:08.001Z</time></trkpt><trkpt lat="44.113139796711074" lon="9.904523488948557"><ele>94.0</ele><time>2026-04-12T09:07:09.001Z</time></trkpt><trkpt lat="44.1130580413956" lon="9.90446867095518"><ele>94.0</ele><time>2026-04-12T09:07:10.001Z</time></trkpt><trkpt lat="44.112978634051764" lon="9.904424176906053"><ele>94.66666666666666</ele><time>2026-04-12T09:07:11.001Z</time></trkpt><trkpt lat="44.11291911979462" lon="9.904340645655257"><ele>95.33333333333333</ele><time>2026-04-12T09:07:12.001Z</time></trkpt><trkpt lat="44.112858595056984" lon="9.904268095875452"><ele>96.0</ele><time>2026-04-12T09:07:13.001Z</time></trkpt><trkpt lat="44.11279925825896" lon="9.904195018717488"><ele>96.66666666666666</ele><time>2026-04-12T09:07:14.001Z</time></trkpt><trkpt lat="44.11273051741458" lon="9.904135181344019"><ele>97.33333333333333</ele><time>2026-04-12T09:07:15.001Z</time></trkpt><trkpt lat="44.11266981854973" lon="9.904068339596346"><ele>98.0</ele><time>2026-04-12T09:07:16.001Z</time></trkpt><trkpt lat="44.11260979379857" lon="9.904036118821894"><ele>100.4</ele><time>2026-04-12T09:07:17.001Z</time></trkpt><trkpt lat="44.11253591618975" lon="9.90394420744326"><ele>102.80000000000001</ele><time>2026-04-12T09:07:19.001Z</time></trkpt><trkpt lat="44.11249787239341" lon="9.90386999161218"><ele>105.2</ele><time>2026-04-12T09:07:21Z</time></trkpt><trkpt lat="44.112473691942036" lon="9.903729873578012"><ele>107.6</ele><time>2026-04-12T09:07:23Z</time></trkpt><trkpt lat="44.11247919516709" lon="9.90355438636645"><ele>110.0</ele><time>2026-04-12T09:07:25Z</time></trkpt><trkpt lat="44.11248996354185" lon="9.903419853966076"><ele>110.49999999999999</ele><time>2026-04-12T09:07:27Z</time></trkpt><trkpt lat="44.11249902550724" lon="9.903328622996195"><ele>111.0</ele><time>2026-04-12T09:07:28Z</time></trkpt><trkpt lat="44.112506884829756" lon="9.9032144149439"><ele>111.5</ele><time>2026-04-12T09:07:29Z</time></trkpt><trkpt lat="44.11252005826476" lon="9.903092683318112"><ele>112.0</ele><time>2026-04-12T09:07:30Z</time></trkpt><trkpt lat="44.11252535189628" lon="9.902970258738554"><ele>112.49999999999999</ele><time>2026-04-12T09:07:31Z</time></trkpt><trkpt lat="44.112529201678555" lon="9.902839816357085"><ele>113.0</ele><time>2026-04-12T09:07:32Z</time></trkpt><trkpt lat="44.112538084002665" lon="9.902712176787787"><ele>112.99999999999999</ele><time>2026-04-12T09:07:33Z</time></trkpt><trkpt lat="44.11252294434494" lon="9.902594396453335"><ele>113.0</ele><time>2026-04-12T09:07:34Z</time></trkpt><trkpt lat="44.112485386509896" lon="9.90248280068957"><ele>113.0</ele><time>2026-04-12T09:07:35Z</time></trkpt><trkpt lat="44.1124405096428" lon="9.902389111717573"><ele>113.0</ele><time>2026-04-12T09:07:36Z</time></trkpt><trkpt lat="44.11237831514127" lon="9.902301983557175"><ele>112.99999999999999</ele><time>2026-04-12T09:07:37Z</time></trkpt><trkpt lat="44.11230530524713" lon="9.902219243055294"><ele>113.0</ele><time>2026-04-12T09:07:38Z</time></trkpt><trkpt lat="44.112230844736466" lon="9.90214543594952"><ele>111.60000000000001</ele><time>2026-04-12T09:07:39Z</time></trkpt><trkpt lat="44.11219501856091" lon="9.902024812156485"><ele>110.20000000000002</ele><time>2026-04-12T09:07:40Z</time></trkpt><trkpt lat="44.112138555325586" lon="9.90187661962307"><ele>108.8</ele><time>2026-04-12T09:07:41Z</time></trkpt><trkpt lat="44.11208392279066" lon="9.901762093421622"><ele>107.4</ele><time>2026-04-12T09:07:42Z</time></trkpt><trkpt lat="44.1120247415943" lon="9.901631613258642"><ele>106.0</ele><time>2026-04-12T09:07:43Z</time></trkpt><trkpt lat="44.111972463405436" lon="9.901495218318678"><ele>106.0</ele><time>2026-04-12T09:07:44Z</time></trkpt><trkpt lat="44.111926906400186" lon="9.901355124049578"><ele>106.0</ele><time>2026-04-12T09:07:45Z</time></trkpt><trkpt lat="44.111886106703366" lon="9.90121948252424"><ele>106.0</ele><time>2026-04-12T09:07:46Z</time></trkpt><trkpt lat="44.111857819490794" lon="9.901074984872654"><ele>106.0</ele><time>2026-04-12T09:07:47Z</time></trkpt><trkpt lat="44.11184653096743" lon="9.900934046411859"><ele>106.0</ele><time>2026-04-12T09:07:48Z</time></trkpt><trkpt lat="44.111841652760724" lon="9.900774312061628"><ele>108.75</ele><time>2026-04-12T09:07:49Z</time></trkpt><trkpt lat="44.11182994380735" lon="9.900609681722754"><ele>111.5</ele><time>2026-04-12T09:07:50Z</time></trkpt><trkpt lat="44.11181776102383" lon="9.900443939517675"><ele>114.25</ele><time>2026-04-12T09:07:51Z</time></trkpt><trkpt lat="44.11181039604192" lon="9.90028285898442"><ele>117.0</ele><time>2026-04-12T09:07:52Z</time></trkpt><trkpt lat="44.11180105368035" lon="9.900127797435418"><ele>119.0</ele><time>2026-04-12T09:07:53Z</time></trkpt><trkpt lat="44.11179648529162" lon="9.899974257949307"><ele>120.99999999999999</ele><time>2026-04-12T09:07:54Z</time></trkpt><trkpt lat="44.111789206961845" lon="9.899826003723275"><ele>122.99999999999999</ele><time>2026-04-12T09:07:55Z</time></trkpt><trkpt lat="44.11178540986732" lon="9.899697091683905"><ele>125.0</ele><time>2026-04-12T09:07:56Z</time></trkpt><trkpt lat="44.11178279215507" lon="9.899561689005752"><ele>127.0</ele><time>2026-04-12T09:07:57Z</time></trkpt><trkpt lat="44.111774821947584" lon="9.899429667012408"><ele>127.0</ele><time>2026-04-12T09:07:58Z</time></trkpt><trkpt lat="44.111765201923085" lon="9.899296141274451"><ele>126.99999999999999</ele><time>2026-04-12T09:07:59Z</time></trkpt><trkpt lat="44.11175581027137" lon="9.89916711325266"><ele>126.99999999999999</ele><time>2026-04-12T09:08:00Z</time></trkpt><trkpt lat="44.111753555601645" lon="9.899057770118045"><ele>127.0</ele><time>2026-04-12T09:08:01Z</time></trkpt><trkpt lat="44.11176780431269" lon="9.89889796510675"><ele>127.0</ele><time>2026-04-12T09:08:03Z</time></trkpt><trkpt lat="44.11179888573847" lon="9.898792673629348"><ele>126.8</ele><time>2026-04-12T09:08:05Z</time></trkpt><trkpt lat="44.111857033208004" lon="9.898695723975372"><ele>126.6</ele><time>2026-04-12T09:08:07Z</time></trkpt><trkpt lat="44.11195268156132" lon="9.898546228378468"><ele>126.39999999999999</ele><time>2026-04-12T09:08:09Z</time></trkpt><trkpt lat="44.11202003354745" lon="9.898449079266221"><ele>126.19999999999999</ele><time>2026-04-12T09:08:10Z</time></trkpt><trkpt lat="44.11208950524732" lon="9.89835361711518"><ele>126.0</ele><time>2026-04-12T09:08:11Z</time></trkpt><trkpt lat="44.11215998491264" lon="9.898263346401086"><ele>127.33333333333333</ele><time>2026-04-12T09:08:12Z</time></trkpt><trkpt lat="44.112220757006284" lon="9.898183052736599"><ele>128.66666666666666</ele><time>2026-04-12T09:08:13Z</time></trkpt><trkpt lat="44.1122642266871" lon="9.898118967670742"><ele>130.0</ele><time>2026-04-12T09:08:14Z</time></trkpt><trkpt lat="44.11230289473534" lon="9.89801206184308"><ele>131.33333333333331</ele><time>2026-04-12T09:08:15Z</time></trkpt><trkpt lat="44.11231622512821" lon="9.897907069895123"><ele>132.66666666666666</ele><time>2026-04-12T09:08:16.001Z</time></trkpt><trkpt lat="44.11233518775209" lon="9.897761653535976"><ele>134.0</ele><time>2026-04-12T09:08:17.001Z</time></trkpt><trkpt lat="44.11235795113548" lon="9.897615495211879"><ele>133.8</ele><time>2026-04-12T09:08:18.001Z</time></trkpt><trkpt lat="44.11240169353623" lon="9.897470814319913"><ele>133.60000000000002</ele><time>2026-04-12T09:08:19.001Z</time></trkpt><trkpt lat="44.112415857002304" lon="9.897334361247774"><ele>133.4</ele><time>2026-04-12T09:08:20.001Z</time></trkpt><trkpt lat="44.11245412579909" lon="9.897215092487828"><ele>133.20000000000002</ele><time>2026-04-12T09:08:21.001Z</time></trkpt><trkpt lat="44.11247154213096" lon="9.897087696816728"><ele>133.0</ele><time>2026-04-12T09:08:22.001Z</time></trkpt><trkpt lat="44.1124918586925" lon="9.896992687798228"><ele>133.0</ele><time>2026-04-12T09:08:23.001Z</time></trkpt><trkpt lat="44.112522236914955" lon="9.896906451038534"><ele>133.0</ele><time>2026-04-12T09:08:24.001Z</time></trkpt><trkpt lat="44.11257812924862" lon="9.896811300230247"><ele>133.0</ele><time>2026-04-12T09:08:25.001Z</time></trkpt><trkpt lat="44.11264805605264" lon="9.89673352469386"><ele>133.0</ele><time>2026-04-12T09:08:26.001Z</time></trkpt><trkpt lat="44.11272395360379" lon="9.896667915277936"><ele>133.0</ele><time>2026-04-12T09:08:27.001Z</time></trkpt><trkpt lat="44.11280853367232" lon="9.896619337488186"><ele>133.0</ele><time>2026-04-12T09:08:28.001Z</time></trkpt><trkpt lat="44.11289878506414" lon="9.896601640224427"><ele>133.20000000000002</ele><time>2026-04-12T09:08:29.001Z</time></trkpt><trkpt lat="44.1129778247303" lon="9.896628164534164"><ele>133.4</ele><time>2026-04-12T09:08:30.001Z</time></trkpt><trkpt lat="44.11307756575801" lon="9.896642811976559"><ele>133.60000000000002</ele><time>2026-04-12T09:08:31.001Z</time></trkpt><trkpt lat="44.113190705961884" lon="9.896651762030244"><ele>133.8</ele><time>2026-04-12T09:08:32.001Z</time></trkpt><trkpt lat="44.11328975292961" lon="9.896656149737543"><ele>134.0</ele><time>2026-04-12T09:08:33.001Z</time></trkpt><trkpt lat="44.11338398406043" lon="9.896644368375526"><ele>134.6</ele><time>2026-04-12T09:08:34.001Z</time></trkpt><trkpt lat="44.113485287376356" lon="9.896633464525125"><ele>135.2</ele><time>2026-04-12T09:08:35.001Z</time></trkpt><trkpt lat="44.11358936831171" lon="9.896616879800883"><ele>135.79999999999998</ele><time>2026-04-12T09:08:36.001Z</time></trkpt><trkpt lat="44.11369367783531" lon="9.89661588343332"><ele>136.4</ele><time>2026-04-12T09:08:37.001Z</time></trkpt><trkpt lat="44.11379532582448" lon="9.89662005691909"><ele>137.0</ele><time>2026-04-12T09:08:38.001Z</time></trkpt><trkpt lat="44.1138928187306" lon="9.896648683132526"><ele>137.0</ele><time>2026-04-12T09:08:39.001Z</time></trkpt><trkpt lat="44.113989843926774" lon="9.896665624497611"><ele>137.0</ele><time>2026-04-12T09:08:40.001Z</time></trkpt><trkpt lat="44.11407551693259" lon="9.89669090496775"><ele>137.0</ele><time>2026-04-12T09:08:41.001Z</time></trkpt><trkpt lat="44.11416647002955" lon="9.896724769430174"><ele>137.0</ele><time>2026-04-12T09:08:42.001Z</time></trkpt><trkpt lat="44.11426122153481" lon="9.896761391097941"><ele>137.0</ele><time>2026-04-12T09:08:43.001Z</time></trkpt><trkpt lat="44.1143478754894" lon="9.896832125804238"><ele>134.25</ele><time>2026-04-12T09:08:44.001Z</time></trkpt><trkpt lat="44.114434661496055" lon="9.896925173212859"><ele>131.5</ele><time>2026-04-12T09:08:45.001Z</time></trkpt><trkpt lat="44.11452253523334" lon="9.897027829997986"><ele>128.75</ele><time>2026-04-12T09:08:46.001Z</time></trkpt><trkpt lat="44.114612232242386" lon="9.897127321321912"><ele>126.0</ele><time>2026-04-12T09:08:47.001Z</time></trkpt><trkpt lat="44.11471589005747" lon="9.897212766629984"><ele>126.0</ele><time>2026-04-12T09:08:48.001Z</time></trkpt><trkpt lat="44.11480641664561" lon="9.897333299263787"><ele>126.0</ele><time>2026-04-12T09:08:49.001Z</time></trkpt><trkpt lat="44.11491107885965" lon="9.897450029178751"><ele>126.0</ele><time>2026-04-12T09:08:50.001Z</time></trkpt><trkpt lat="44.11501813446739" lon="9.897565005809597"><ele>126.0</ele><time>2026-04-12T09:08:51.001Z</time></trkpt><trkpt lat="44.11511234275645" lon="9.897663644128873"><ele>127.66666666666667</ele><time>2026-04-12T09:08:52.001Z</time></trkpt><trkpt lat="44.11518725616724" lon="9.897738854316056"><ele>129.33333333333334</ele><time>2026-04-12T09:08:53.001Z</time></trkpt><trkpt lat="44.1152479942514" lon="9.897783363713057"><ele>131.0</ele><time>2026-04-12T09:08:54.001Z</time></trkpt><trkpt lat="44.11529647288179" lon="9.897847500201754"><ele>132.66666666666669</ele><time>2026-04-12T09:08:55.001Z</time></trkpt><trkpt lat="44.11535363001541" lon="9.897901502708265"><ele>134.33333333333334</ele><time>2026-04-12T09:08:56.001Z</time></trkpt><trkpt lat="44.11545819741595" lon="9.897999567476491"><ele>136.0</ele><time>2026-04-12T09:08:58.001Z</time></trkpt><trkpt lat="44.11552736877671" lon="9.898041330585482"><ele>136.0</ele><time>2026-04-12T09:08:59.001Z</time></trkpt><trkpt lat="44.11560004826916" lon="9.898110463290829"><ele>136.0</ele><time>2026-04-12T09:09:00.001Z</time></trkpt><trkpt lat="44.115675610978485" lon="9.89818939232116"><ele>136.0</ele><time>2026-04-12T09:09:01.001Z</time></trkpt><trkpt lat="44.115767081726574" lon="9.89823410406417"><ele>136.0</ele><time>2026-04-12T09:09:02.001Z</time></trkpt><trkpt lat="44.11586676675562" lon="9.898255705877126"><ele>136.0</ele><time>2026-04-12T09:09:03.001Z</time></trkpt><trkpt lat="44.115970583126675" lon="9.89825291255465"><ele>137.75</ele><time>2026-04-12T09:09:04.001Z</time></trkpt><trkpt lat="44.11608205750237" lon="9.89822427333579"><ele>139.5</ele><time>2026-04-12T09:09:05.001Z</time></trkpt><trkpt lat="44.11619813969573" lon="9.898194111549271"><ele>141.25</ele><time>2026-04-12T09:09:06.001Z</time></trkpt><trkpt lat="44.116310705716124" lon="9.89816309684699"><ele>143.0</ele><time>2026-04-12T09:09:07.001Z</time></trkpt><trkpt lat="44.11641876944916" lon="9.898104396942923"><ele>143.0</ele><time>2026-04-12T09:09:08.001Z</time></trkpt><trkpt lat="44.11650745173965" lon="9.898002234795221"><ele>143.0</ele><time>2026-04-12T09:09:09.001Z</time></trkpt><trkpt lat="44.1165830428983" lon="9.897880440906395"><ele>143.0</ele><time>2026-04-12T09:09:10.001Z</time></trkpt><trkpt lat="44.11666862115697" lon="9.897719996554699"><ele>143.0</ele><time>2026-04-12T09:09:11.001Z</time></trkpt><trkpt lat="44.11671389994943" lon="9.897639750216605"><ele>143.0</ele><time>2026-04-12T09:09:12.001Z</time></trkpt><trkpt lat="44.116748468114714" lon="9.897536565050409"><ele>145.4</ele><time>2026-04-12T09:09:13.001Z</time></trkpt><trkpt lat="44.11676851968771" lon="9.897421120250137"><ele>147.8</ele><time>2026-04-12T09:09:14.001Z</time></trkpt><trkpt lat="44.11676524285861" lon="9.897294922284445"><ele>150.2</ele><time>2026-04-12T09:09:15.001Z</time></trkpt><trkpt lat="44.11676296782024" lon="9.897152089410085"><ele>152.6</ele><time>2026-04-12T09:09:16.001Z</time></trkpt><trkpt lat="44.116762734600115" lon="9.89701196654171"><ele>155.0</ele><time>2026-04-12T09:09:17.001Z</time></trkpt><trkpt lat="44.11677212168741" lon="9.89687971765809"><ele>155.0</ele><time>2026-04-12T09:09:18.001Z</time></trkpt><trkpt lat="44.11679605666891" lon="9.896753233658814"><ele>155.0</ele><time>2026-04-12T09:09:19.001Z</time></trkpt><trkpt lat="44.11684391269881" lon="9.896616436101928"><ele>155.0</ele><time>2026-04-12T09:09:20.001Z</time></trkpt><trkpt lat="44.11692812941629" lon="9.896480352060157"><ele>155.0</ele><time>2026-04-12T09:09:21.001Z</time></trkpt><trkpt lat="44.11698772347515" lon="9.896363515148638"><ele>155.0</ele><time>2026-04-12T09:09:22.001Z</time></trkpt><trkpt lat="44.1170600059855" lon="9.896248284299128"><ele>158.0</ele><time>2026-04-12T09:09:23.001Z</time></trkpt><trkpt lat="44.11716009563365" lon="9.896150663859235"><ele>161.0</ele><time>2026-04-12T09:09:24.001Z</time></trkpt><trkpt lat="44.11726584976276" lon="9.896100664726543"><ele>164.0</ele><time>2026-04-12T09:09:25.001Z</time></trkpt><trkpt lat="44.1173663404663" lon="9.89604267797299"><ele>167.0</ele><time>2026-04-12T09:09:26.001Z</time></trkpt><trkpt lat="44.11746637094337" lon="9.89598226067032"><ele>162.0</ele><time>2026-04-12T09:09:27Z</time></trkpt><trkpt lat="44.11755757716437" lon="9.895910536509772"><ele>157.0</ele><time>2026-04-12T09:09:28Z</time></trkpt><trkpt lat="44.11765169304341" lon="9.895844183742081"><ele>152.0</ele><time>2026-04-12T09:09:29Z</time></trkpt><trkpt lat="44.11774454410586" lon="9.895781681172487"><ele>147.0</ele><time>2026-04-12T09:09:30Z</time></trkpt><trkpt lat="44.11783787553831" lon="9.895701993850508"><ele>142.0</ele><time>2026-04-12T09:09:31Z</time></trkpt><trkpt lat="44.11793029158988" lon="9.895637554756298"><ele>142.0</ele><time>2026-04-12T09:09:32Z</time></trkpt><trkpt lat="44.11801464747642" lon="9.89556145894243"><ele>142.0</ele><time>2026-04-12T09:09:33Z</time></trkpt><trkpt lat="44.118090384307386" lon="9.89548082548295"><ele>142.0</ele><time>2026-04-12T09:09:34Z</time></trkpt><trkpt lat="44.118144595086186" lon="9.895379266289549"><ele>142.0</ele><time>2026-04-12T09:09:35Z</time></trkpt><trkpt lat="44.11818688816561" lon="9.895258493718462"><ele>142.0</ele><time>2026-04-12T09:09:36Z</time></trkpt><trkpt lat="44.11820687571244" lon="9.895129752692496"><ele>145.5</ele><time>2026-04-12T09:09:37Z</time></trkpt><trkpt lat="44.118201817049695" lon="9.89497094125627"><ele>149.0</ele><time>2026-04-12T09:09:38Z</time></trkpt><trkpt lat="44.118195169873765" lon="9.894809974815393"><ele>152.5</ele><time>2026-04-12T09:09:39Z</time></trkpt><trkpt lat="44.11820069118242" lon="9.894640357164128"><ele>156.0</ele><time>2026-04-12T09:09:40Z</time></trkpt><trkpt lat="44.11820470118512" lon="9.894474957136625"><ele>156.0</ele><time>2026-04-12T09:09:41Z</time></trkpt><trkpt lat="44.11820877646868" lon="9.894312035226994"><ele>156.0</ele><time>2026-04-12T09:09:42Z</time></trkpt><trkpt lat="44.11822374533645" lon="9.894164965854067"><ele>156.0</ele><time>2026-04-12T09:09:43Z</time></trkpt><trkpt lat="44.11825631152238" lon="9.89406352238317"><ele>156.0</ele><time>2026-04-12T09:09:44Z</time></trkpt><trkpt lat="44.1183055466377" lon="9.894006687576974"><ele>156.0</ele><time>2026-04-12T09:09:45Z</time></trkpt><trkpt lat="44.11844622179035" lon="9.89389151762234"><ele>151.4</ele><time>2026-04-12T09:09:47Z</time></trkpt><trkpt lat="44.118539131694405" lon="9.893856791494052"><ele>146.8</ele><time>2026-04-12T09:09:48Z</time></trkpt><trkpt lat="44.1186359587705" lon="9.893821955425798"><ele>142.20000000000002</ele><time>2026-04-12T09:09:49Z</time></trkpt><trkpt lat="44.11873723511328" lon="9.893784514186846"><ele>137.6</ele><time>2026-04-12T09:09:50Z</time></trkpt><trkpt lat="44.11884799499519" lon="9.893805358805203"><ele>133.0</ele><time>2026-04-12T09:09:51Z</time></trkpt><trkpt lat="44.11895143232214" lon="9.893778369052164"><ele>133.0</ele><time>2026-04-12T09:09:52Z</time></trkpt><trkpt lat="44.11906027476695" lon="9.893752373371733"><ele>133.0</ele><time>2026-04-12T09:09:53Z</time></trkpt><trkpt lat="44.119169365386675" lon="9.893723834968123"><ele>133.0</ele><time>2026-04-12T09:09:54Z</time></trkpt><trkpt lat="44.11927103149604" lon="9.893693449973343"><ele>133.0</ele><time>2026-04-12T09:09:55Z</time></trkpt><trkpt lat="44.1193643216796" lon="9.89365757509707"><ele>133.0</ele><time>2026-04-12T09:09:56Z</time></trkpt><trkpt lat="44.1194523322241" lon="9.893626619436807"><ele>133.33333333333334</ele><time>2026-04-12T09:09:57Z</time></trkpt><trkpt lat="44.11953468008013" lon="9.893580894798083"><ele>133.66666666666669</ele><time>2026-04-12T09:09:58Z</time></trkpt><trkpt lat="44.119617211936855" lon="9.893539211613243"><ele>134.0</ele><time>2026-04-12T09:09:59Z</time></trkpt><trkpt lat="44.11969579779224" lon="9.893487988754202"><ele>134.33333333333334</ele><time>2026-04-12T09:10:00Z</time></trkpt><trkpt lat="44.11977626362763" lon="9.893424239169528"><ele>134.66666666666666</ele><time>2026-04-12T09:10:01Z</time></trkpt><trkpt lat="44.11985140785654" lon="9.893354477858004"><ele>135.0</ele><time>2026-04-12T09:10:02Z</time></trkpt><trkpt lat="44.119904183992716" lon="9.893304523417235"><ele>135.0</ele><time>2026-04-12T09:10:03Z</time></trkpt><trkpt lat="44.119959556105535" lon="9.89317765216656"><ele>135.0</ele><time>2026-04-12T09:10:05Z</time></trkpt><trkpt lat="44.11995205224569" lon="9.893000275679617"><ele>135.0</ele><time>2026-04-12T09:10:07Z</time></trkpt><trkpt lat="44.119932703129365" lon="9.892895113252637"><ele>135.0</ele><time>2026-04-12T09:10:08Z</time></trkpt><trkpt lat="44.119918157402026" lon="9.892784865848437"><ele>135.0</ele><time>2026-04-12T09:10:09Z</time></trkpt><trkpt lat="44.119909194843146" lon="9.892685636611429"><ele>136.33333333333334</ele><time>2026-04-12T09:10:10Z</time></trkpt><trkpt lat="44.11993896208759" lon="9.892586621152933"><ele>137.66666666666666</ele><time>2026-04-12T09:10:11Z</time></trkpt><trkpt lat="44.11995154754354" lon="9.892480846233981"><ele>139.0</ele><time>2026-04-12T09:10:12Z</time></trkpt><trkpt lat="44.11995233042944" lon="9.89237609345717"><ele>140.33333333333331</ele><time>2026-04-12T09:10:13Z</time></trkpt><trkpt lat="44.11997504378106" lon="9.892210514212167"><ele>141.66666666666666</ele><time>2026-04-12T09:10:15Z</time></trkpt><trkpt lat="44.11998712914506" lon="9.892091591084846"><ele>143.0</ele><time>2026-04-12T09:10:17Z</time></trkpt><trkpt lat="44.12005337417927" lon="9.891992197767012"><ele>143.0</ele><time>2026-04-12T09:10:19.001Z</time></trkpt><trkpt lat="44.120122574682135" lon="9.891883491420652"><ele>143.0</ele><time>2026-04-12T09:10:21.001Z</time></trkpt><trkpt lat="44.12020009484428" lon="9.89178029691876"><ele>143.0</ele><time>2026-04-12T09:10:23.001Z</time></trkpt><trkpt lat="44.12024162435844" lon="9.891706792433144"><ele>143.0</ele><time>2026-04-12T09:10:25.001Z</time></trkpt><trkpt lat="44.12030488575984" lon="9.891643709134671"><ele>143.0</ele><time>2026-04-12T09:10:28.001Z</time></trkpt><trkpt lat="44.12035338638197" lon="9.891585269011834"><ele>143.0</ele><time>2026-04-12T09:10:37.001Z</time></trkpt><trkpt lat="44.12041614097431" lon="9.891536166988999"><ele>142.83333333333331</ele><time>2026-04-12T09:10:39.001Z</time></trkpt><trkpt lat="44.120481868337095" lon="9.891509542716861"><ele>142.66666666666666</ele><time>2026-04-12T09:10:41.001Z</time></trkpt><trkpt lat="44.12054692244235" lon="9.891542160300158"><ele>142.5</ele><time>2026-04-12T09:10:43.001Z</time></trkpt><trkpt lat="44.120614002373976" lon="9.891502786339792"><ele>142.33333333333334</ele><time>2026-04-12T09:10:45.001Z</time></trkpt><trkpt lat="44.12067159576588" lon="9.891453260878663"><ele>142.16666666666669</ele><time>2026-04-12T09:10:46.001Z</time></trkpt><trkpt lat="44.120745786388" lon="9.891368398208712"><ele>142.0</ele><time>2026-04-12T09:10:48.001Z</time></trkpt><trkpt lat="44.12082523288636" lon="9.891230265308767"><ele>142.0</ele><time>2026-04-12T09:10:50.001Z</time></trkpt><trkpt lat="44.120889303135066" lon="9.891099181289029"><ele>142.0</ele><time>2026-04-12T09:10:52.001Z</time></trkpt><trkpt lat="44.12094357484787" lon="9.89102923585309"><ele>142.0</ele><time>2026-04-12T09:10:53.001Z</time></trkpt><trkpt lat="44.1209919389074" lon="9.890960591786877"><ele>142.0</ele><time>2026-04-12T09:10:54.001Z</time></trkpt><trkpt lat="44.12103684468518" lon="9.890897560264738"><ele>142.0</ele><time>2026-04-12T09:10:55.001Z</time></trkpt><trkpt lat="44.12111467289777" lon="9.89080897289692"><ele>142.0</ele><time>2026-04-12T09:10:57.001Z</time></trkpt><trkpt lat="44.12118913884094" lon="9.890733795791474"><ele>142.0</ele><time>2026-04-12T09:10:59.001Z</time></trkpt><trkpt lat="44.121267754237984" lon="9.89064931250039"><ele>142.0</ele><time>2026-04-12T09:11:01.001Z</time></trkpt><trkpt lat="44.12133637962005" lon="9.890570462416926"><ele>142.0</ele><time>2026-04-12T09:11:03.001Z</time></trkpt><trkpt lat="44.12140909464345" lon="9.89050876689914"><ele>142.0</ele><time>2026-04-12T09:11:05.001Z</time></trkpt><trkpt lat="44.12146308362286" lon="9.89043201423819"><ele>142.0</ele><time>2026-04-12T09:11:07.001Z</time></trkpt><trkpt lat="44.12150279286339" lon="9.890280995727831"><ele>142.0</ele><time>2026-04-12T09:11:09.001Z</time></trkpt><trkpt lat="44.12154744317673" lon="9.89015427843971"><ele>142.0</ele><time>2026-04-12T09:11:11.001Z</time></trkpt><trkpt lat="44.12161914514477" lon="9.890024274839483"><ele>142.0</ele><time>2026-04-12T09:11:13.001Z</time></trkpt><trkpt lat="44.121692504203615" lon="9.889888227261869"><ele>142.0</ele><time>2026-04-12T09:11:15.001Z</time></trkpt><trkpt lat="44.12175542477161" lon="9.889774632599156"><ele>142.0</ele><time>2026-04-12T09:11:17.001Z</time></trkpt><trkpt lat="44.12180438097988" lon="9.889701688514085"><ele>138.0</ele><time>2026-04-12T09:11:19.001Z</time></trkpt><trkpt lat="44.12186104817962" lon="9.889633567678178"><ele>134.0</ele><time>2026-04-12T09:11:22.001Z</time></trkpt><trkpt lat="44.121865722581084" lon="9.889538299452699"><ele>130.0</ele><time>2026-04-12T09:11:24.001Z</time></trkpt><trkpt lat="44.12182857146018" lon="9.889402502541817"><ele>126.0</ele><time>2026-04-12T09:11:26.001Z</time></trkpt><trkpt lat="44.121792722635654" lon="9.889305564559578"><ele>122.00000000000001</ele><time>2026-04-12T09:11:28.001Z</time></trkpt><trkpt lat="44.12177925361633" lon="9.889189300466592"><ele>118.0</ele><time>2026-04-12T09:11:36Z</time></trkpt><trkpt lat="44.12175353508754" lon="9.88903832845948"><ele>117.0</ele><time>2026-04-12T09:11:38Z</time></trkpt><trkpt lat="44.12173270633597" lon="9.88889589392149"><ele>116.00000000000001</ele><time>2026-04-12T09:11:40Z</time></trkpt><trkpt lat="44.12170427002139" lon="9.888735115218736"><ele>115.00000000000001</ele><time>2026-04-12T09:11:42Z</time></trkpt><trkpt lat="44.12169083344512" lon="9.888646703927549"><ele>114.0</ele><time>2026-04-12T09:11:43Z</time></trkpt><trkpt lat="44.1216527251062" lon="9.888514770568001"><ele>113.0</ele><time>2026-04-12T09:11:45Z</time></trkpt><trkpt lat="44.12162836890469" lon="9.88835280747776"><ele>110.60000000000001</ele><time>2026-04-12T09:11:47Z</time></trkpt><trkpt lat="44.1215816222949" lon="9.888220087598636"><ele>108.20000000000002</ele><time>2026-04-12T09:11:49Z</time></trkpt><trkpt lat="44.12155643525434" lon="9.88807746871992"><ele>105.8</ele><time>2026-04-12T09:11:51Z</time></trkpt><trkpt lat="44.121533870030184" lon="9.887952840179034"><ele>103.4</ele><time>2026-04-12T09:11:53Z</time></trkpt><trkpt lat="44.121478820232845" lon="9.887892457032832"><ele>101.0</ele><time>2026-04-12T09:11:55Z</time></trkpt><trkpt lat="44.121390768626064" lon="9.887845544846106"><ele>100.16666666666666</ele><time>2026-04-12T09:11:57Z</time></trkpt><trkpt lat="44.121317848354444" lon="9.887852932086117"><ele>99.33333333333333</ele><time>2026-04-12T09:11:59Z</time></trkpt><trkpt lat="44.12126460584949" lon="9.887932287551346"><ele>98.5</ele><time>2026-04-12T09:12:01Z</time></trkpt><trkpt lat="44.12124419041352" lon="9.888053987925014"><ele>97.66666666666666</ele><time>2026-04-12T09:12:03Z</time></trkpt><trkpt lat="44.12117097925068" lon="9.888066801080846"><ele>96.83333333333333</ele><time>2026-04-12T09:12:05Z</time></trkpt><trkpt lat="44.121096727584785" lon="9.888061287975917"><ele>96.0</ele><time>2026-04-12T09:12:07Z</time></trkpt><trkpt lat="44.121012919872236" lon="9.887985996881126"><ele>96.0</ele><time>2026-04-12T09:12:09Z</time></trkpt><trkpt lat="44.1209199293138" lon="9.887938494707763"><ele>96.0</ele><time>2026-04-12T09:12:11Z</time></trkpt><trkpt lat="44.1208189757851" lon="9.887901577734668"><ele>96.0</ele><time>2026-04-12T09:12:13Z</time></trkpt><trkpt lat="44.12074054810035" lon="9.887845602367731"><ele>96.0</ele><time>2026-04-12T09:12:15Z</time></trkpt><trkpt lat="44.1206098762251" lon="9.887821873644814"><ele>96.0</ele><time>2026-04-12T09:12:17Z</time></trkpt><trkpt lat="44.12048748426039" lon="9.887791550072965"><ele>95.0</ele><time>2026-04-12T09:12:19Z</time></trkpt><trkpt lat="44.12037898587964" lon="9.887756968591521"><ele>94.0</ele><time>2026-04-12T09:12:21Z</time></trkpt><trkpt lat="44.12028304792469" lon="9.8877360808601"><ele>93.0</ele><time>2026-04-12T09:12:23Z</time></trkpt><trkpt lat="44.12017720003533" lon="9.887678656088475"><ele>92.0</ele><time>2026-04-12T09:12:25Z</time></trkpt><trkpt lat="44.12007494386568" lon="9.887625809614976"><ele>91.0</ele><time>2026-04-12T09:12:27.001Z</time></trkpt><trkpt lat="44.11997990510502" lon="9.887621488638795"><ele>88.83333333333333</ele><time>2026-04-12T09:12:29.001Z</time></trkpt><trkpt lat="44.11988925210164" lon="9.887656945029363"><ele>86.66666666666666</ele><time>2026-04-12T09:12:31.001Z</time></trkpt><trkpt lat="44.119819712327455" lon="9.88761774128534"><ele>84.5</ele><time>2026-04-12T09:12:33.001Z</time></trkpt><trkpt lat="44.11979369937656" lon="9.887499912489758"><ele>82.33333333333333</ele><time>2026-04-12T09:12:35.001Z</time></trkpt><trkpt lat="44.11975506671474" lon="9.887374597834246"><ele>80.16666666666667</ele><time>2026-04-12T09:12:37.001Z</time></trkpt><trkpt lat="44.119712490852784" lon="9.88730390102134"><ele>78.0</ele><time>2026-04-12T09:12:44.001Z</time></trkpt><trkpt lat="44.11974197442471" lon="9.887171510012685"><ele>76.6</ele><time>2026-04-12T09:12:46.001Z</time></trkpt><trkpt lat="44.119800603738554" lon="9.887046699951787"><ele>75.19999999999999</ele><time>2026-04-12T09:12:47.001Z</time></trkpt><trkpt lat="44.119844117812875" lon="9.886935376062677"><ele>73.8</ele><time>2026-04-12T09:12:48.001Z</time></trkpt><trkpt lat="44.119895990552514" lon="9.886800847081417"><ele>72.39999999999999</ele><time>2026-04-12T09:12:49.001Z</time></trkpt><trkpt lat="44.11994257890933" lon="9.88667589958289"><ele>71.0</ele><time>2026-04-12T09:12:50.001Z</time></trkpt><trkpt lat="44.11999881995437" lon="9.886522802602626"><ele>70.83333333333334</ele><time>2026-04-12T09:12:51.001Z</time></trkpt><trkpt lat="44.12003066716358" lon="9.886435738015484"><ele>70.66666666666667</ele><time>2026-04-12T09:12:52.001Z</time></trkpt><trkpt lat="44.120072460661774" lon="9.886342041524099"><ele>70.5</ele><time>2026-04-12T09:12:53.001Z</time></trkpt><trkpt lat="44.120123202719746" lon="9.886270752726562"><ele>70.33333333333333</ele><time>2026-04-12T09:12:54.001Z</time></trkpt><trkpt lat="44.120234192038325" lon="9.886233567619708"><ele>70.16666666666666</ele><time>2026-04-12T09:12:56.001Z</time></trkpt><trkpt lat="44.12030973733685" lon="9.886257777979568"><ele>70.0</ele><time>2026-04-12T09:12:57.001Z</time></trkpt><trkpt lat="44.12039535030187" lon="9.886277405911958"><ele>70.0</ele><time>2026-04-12T09:12:58.001Z</time></trkpt><trkpt lat="44.120488189684416" lon="9.886260329339274"><ele>70.0</ele><time>2026-04-12T09:12:59.001Z</time></trkpt><trkpt lat="44.120590109950825" lon="9.886215908217235"><ele>70.0</ele><time>2026-04-12T09:13:00.001Z</time></trkpt><trkpt lat="44.12067995869575" lon="9.88613285869395"><ele>70.0</ele><time>2026-04-12T09:13:01.001Z</time></trkpt><trkpt lat="44.12075540319666" lon="9.886017498604268"><ele>70.0</ele><time>2026-04-12T09:13:02.001Z</time></trkpt><trkpt lat="44.120812943804324" lon="9.885881714408718"><ele>67.6</ele><time>2026-04-12T09:13:03.001Z</time></trkpt><trkpt lat="44.120857899480335" lon="9.885731683685101"><ele>65.2</ele><time>2026-04-12T09:13:04.001Z</time></trkpt><trkpt lat="44.12089936058983" lon="9.885584406225277"><ele>62.8</ele><time>2026-04-12T09:13:05.001Z</time></trkpt><trkpt lat="44.12094639487609" lon="9.885446407600723"><ele>60.4</ele><time>2026-04-12T09:13:06.001Z</time></trkpt><trkpt lat="44.120995992497996" lon="9.88531248793771"><ele>58.0</ele><time>2026-04-12T09:13:07.001Z</time></trkpt><trkpt lat="44.121046431341334" lon="9.88517936097275"><ele>57.8</ele><time>2026-04-12T09:13:08.001Z</time></trkpt><trkpt lat="44.12109231702531" lon="9.885050349565706"><ele>57.599999999999994</ele><time>2026-04-12T09:13:09.001Z</time></trkpt><trkpt lat="44.12113674086072" lon="9.884916632378205"><ele>57.400000000000006</ele><time>2026-04-12T09:13:10.001Z</time></trkpt><trkpt lat="44.12116705131888" lon="9.884795793598654"><ele>57.2</ele><time>2026-04-12T09:13:11.001Z</time></trkpt><trkpt lat="44.12118638653738" lon="9.884687435106967"><ele>57.0</ele><time>2026-04-12T09:13:12.001Z</time></trkpt><trkpt lat="44.12120855472789" lon="9.884584574396865"><ele>57.0</ele><time>2026-04-12T09:13:13.001Z</time></trkpt><trkpt lat="44.1212456883765" lon="9.884492392574385"><ele>56.99999999999999</ele><time>2026-04-12T09:13:14.001Z</time></trkpt><trkpt lat="44.121294160126446" lon="9.884399038089988"><ele>57.0</ele><time>2026-04-12T09:13:15.001Z</time></trkpt><trkpt lat="44.12134193307797" lon="9.884317082230478"><ele>57.0</ele><time>2026-04-12T09:13:16.001Z</time></trkpt><trkpt lat="44.12138601818016" lon="9.884237999296237"><ele>56.99999999999999</ele><time>2026-04-12T09:13:17.001Z</time></trkpt><trkpt lat="44.121431184002134" lon="9.884161064482317"><ele>57.0</ele><time>2026-04-12T09:13:18.001Z</time></trkpt><trkpt lat="44.12147229912557" lon="9.884084734596458"><ele>57.0</ele><time>2026-04-12T09:13:19.001Z</time></trkpt><trkpt lat="44.12152479633233" lon="9.883961968641897"><ele>55.0</ele><time>2026-04-12T09:13:20.001Z</time></trkpt><trkpt lat="44.12159026317425" lon="9.883848617226892"><ele>53.0</ele><time>2026-04-12T09:13:22.001Z</time></trkpt><trkpt lat="44.121661896449204" lon="9.883753846993274"><ele>51.0</ele><time>2026-04-12T09:13:24.001Z</time></trkpt><trkpt lat="44.121743922782514" lon="9.883694766540579"><ele>49.0</ele><time>2026-04-12T09:13:28.001Z</time></trkpt><trkpt lat="44.12187988695529" lon="9.883685344510996"><ele>47.0</ele><time>2026-04-12T09:13:30.001Z</time></trkpt><trkpt lat="44.12194062157953" lon="9.883649735368104"><ele>47.0</ele><time>2026-04-12T09:13:31.001Z</time></trkpt><trkpt lat="44.12198270869462" lon="9.883491084300822"><ele>47.0</ele><time>2026-04-12T09:13:33.001Z</time></trkpt><trkpt lat="44.121953733148985" lon="9.88340892574078"><ele>47.0</ele><time>2026-04-12T09:13:34.001Z</time></trkpt><trkpt lat="44.12185028302946" lon="9.883335210567417"><ele>47.0</ele><time>2026-04-12T09:13:36.001Z</time></trkpt><trkpt lat="44.121703831860756" lon="9.883331349444223"><ele>46.75</ele><time>2026-04-12T09:13:38.001Z</time></trkpt><trkpt lat="44.12160029944874" lon="9.88331575537824"><ele>46.5</ele><time>2026-04-12T09:13:39Z</time></trkpt><trkpt lat="44.12147982210612" lon="9.883283111281502"><ele>46.25</ele><time>2026-04-12T09:13:40Z</time></trkpt><trkpt lat="44.12134998130187" lon="9.883247669475555"><ele>46.0</ele><time>2026-04-12T09:13:41Z</time></trkpt><trkpt lat="44.12122150844755" lon="9.883216965039642"><ele>47.0</ele><time>2026-04-12T09:13:42Z</time></trkpt><trkpt lat="44.121092470457434" lon="9.88321004291907"><ele>48.0</ele><time>2026-04-12T09:13:43Z</time></trkpt><trkpt lat="44.120959386708265" lon="9.883158326367212"><ele>49.0</ele><time>2026-04-12T09:13:44Z</time></trkpt><trkpt lat="44.12083214627822" lon="9.88312873310204"><ele>50.0</ele><time>2026-04-12T09:13:45Z</time></trkpt><trkpt lat="44.12070707247225" lon="9.883106392343228"><ele>47.5</ele><time>2026-04-12T09:13:46Z</time></trkpt><trkpt lat="44.1205884406105" lon="9.8830785919444"><ele>45.0</ele><time>2026-04-12T09:13:47Z</time></trkpt><trkpt lat="44.12047973940722" lon="9.883069407931139"><ele>42.5</ele><time>2026-04-12T09:13:48Z</time></trkpt><trkpt lat="44.12037065241822" lon="9.88304209563831"><ele>40.0</ele><time>2026-04-12T09:13:49Z</time></trkpt><trkpt lat="44.12024795819355" lon="9.883006075646286"><ele>40.0</ele><time>2026-04-12T09:13:50Z</time></trkpt><trkpt lat="44.12012689318389" lon="9.882946198761896"><ele>40.0</ele><time>2026-04-12T09:13:51Z</time></trkpt><trkpt lat="44.12000249566593" lon="9.882888436964624"><ele>40.0</ele><time>2026-04-12T09:13:52Z</time></trkpt><trkpt lat="44.119872393088414" lon="9.882823481197388"><ele>40.0</ele><time>2026-04-12T09:13:53Z</time></trkpt><trkpt lat="44.1197394307002" lon="9.882763358516089"><ele>38.75</ele><time>2026-04-12T09:13:54Z</time></trkpt><trkpt lat="44.119609543865174" lon="9.882702494343977"><ele>37.5</ele><time>2026-04-12T09:13:55Z</time></trkpt><trkpt lat="44.119483547980195" lon="9.88263552236005"><ele>36.25</ele><time>2026-04-12T09:13:56Z</time></trkpt><trkpt lat="44.119364157333436" lon="9.882561673921991"><ele>35.0</ele><time>2026-04-12T09:13:57Z</time></trkpt><trkpt lat="44.11924864732189" lon="9.882473970793647"><ele>35.0</ele><time>2026-04-12T09:13:58Z</time></trkpt><trkpt lat="44.11913468360589" lon="9.882370401174988"><ele>35.0</ele><time>2026-04-12T09:13:59Z</time></trkpt><trkpt lat="44.11901851942282" lon="9.882251599542496"><ele>35.0</ele><time>2026-04-12T09:14:00Z</time></trkpt><trkpt lat="44.118907749694046" lon="9.882137805318362"><ele>35.0</ele><time>2026-04-12T09:14:01Z</time></trkpt><trkpt lat="44.11879982500647" lon="9.882022077372273"><ele>33.75</ele><time>2026-04-12T09:14:02Z</time></trkpt><trkpt lat="44.118691177376036" lon="9.881920211057585"><ele>32.5</ele><time>2026-04-12T09:14:03Z</time></trkpt><trkpt lat="44.118587291208875" lon="9.88179822668304"><ele>31.25</ele><time>2026-04-12T09:14:04Z</time></trkpt><trkpt lat="44.118489184079976" lon="9.881661114107889"><ele>30.0</ele><time>2026-04-12T09:14:05Z</time></trkpt><trkpt lat="44.11839804648646" lon="9.881513506027375"><ele>30.0</ele><time>2026-04-12T09:14:06Z</time></trkpt><trkpt lat="44.11831160436507" lon="9.881360422148726"><ele>30.0</ele><time>2026-04-12T09:14:07Z</time></trkpt><trkpt lat="44.118224314220505" lon="9.881216009815269"><ele>30.0</ele><time>2026-04-12T09:14:08Z</time></trkpt><trkpt lat="44.11813677799594" lon="9.881070878160585"><ele>30.0</ele><time>2026-04-12T09:14:09Z</time></trkpt><trkpt lat="44.11804604984268" lon="9.880923855440125"><ele>28.25</ele><time>2026-04-12T09:14:10Z</time></trkpt><trkpt lat="44.1179588748638" lon="9.880781305821825"><ele>26.5</ele><time>2026-04-12T09:14:11Z</time></trkpt><trkpt lat="44.117874623108385" lon="9.88063343637332"><ele>24.75</ele><time>2026-04-12T09:14:12Z</time></trkpt><trkpt lat="44.117785744416885" lon="9.880493488778326"><ele>23.0</ele><time>2026-04-12T09:14:13Z</time></trkpt><trkpt lat="44.11769851192392" lon="9.880348499978835"><ele>23.0</ele><time>2026-04-12T09:14:14Z</time></trkpt><trkpt lat="44.11761206294878" lon="9.880203071086214"><ele>23.0</ele><time>2026-04-12T09:14:15Z</time></trkpt><trkpt lat="44.11752244731317" lon="9.880063090099483"><ele>23.0</ele><time>2026-04-12T09:14:16Z</time></trkpt><trkpt lat="44.117432247449145" lon="9.879915656676305"><ele>23.0</ele><time>2026-04-12T09:14:17Z</time></trkpt><trkpt lat="44.117341985671175" lon="9.87976720315597"><ele>23.0</ele><time>2026-04-12T09:14:18Z</time></trkpt><trkpt lat="44.11724956307947" lon="9.879622753251168"><ele>23.0</ele><time>2026-04-12T09:14:19Z</time></trkpt><trkpt lat="44.11716091395858" lon="9.879481148790495"><ele>23.0</ele><time>2026-04-12T09:14:20Z</time></trkpt><trkpt lat="44.11707720454779" lon="9.879341859140258"><ele>23.0</ele><time>2026-04-12T09:14:21Z</time></trkpt><trkpt lat="44.11699382854224" lon="9.879205921072781"><ele>21.75</ele><time>2026-04-12T09:14:22Z</time></trkpt><trkpt lat="44.116908412993354" lon="9.879069910571236"><ele>20.5</ele><time>2026-04-12T09:14:23Z</time></trkpt><trkpt lat="44.11682583242811" lon="9.87893862554694"><ele>19.25</ele><time>2026-04-12T09:14:24Z</time></trkpt><trkpt lat="44.11674796652584" lon="9.878810428422439"><ele>18.0</ele><time>2026-04-12T09:14:25Z</time></trkpt><trkpt lat="44.11667331542783" lon="9.878692171639956"><ele>18.0</ele><time>2026-04-12T09:14:26Z</time></trkpt><trkpt lat="44.116615649534815" lon="9.878555453219258"><ele>18.0</ele><time>2026-04-12T09:14:27Z</time></trkpt><trkpt lat="44.116590717973" lon="9.878408221644861"><ele>18.0</ele><time>2026-04-12T09:14:28Z</time></trkpt><trkpt lat="44.11659330097487" lon="9.87824933873078"><ele>18.0</ele><time>2026-04-12T09:14:29Z</time></trkpt><trkpt lat="44.11662333960793" lon="9.878069566971364"><ele>17.75</ele><time>2026-04-12T09:14:30Z</time></trkpt><trkpt lat="44.116651267833085" lon="9.877892591215577"><ele>17.5</ele><time>2026-04-12T09:14:31Z</time></trkpt><trkpt lat="44.116668972214455" lon="9.87769701280692"><ele>17.25</ele><time>2026-04-12T09:14:32Z</time></trkpt><trkpt lat="44.116678430123834" lon="9.877538383606622"><ele>17.0</ele><time>2026-04-12T09:14:33Z</time></trkpt><trkpt lat="44.11669340047452" lon="9.877331018193745"><ele>16.25</ele><time>2026-04-12T09:14:34Z</time></trkpt><trkpt lat="44.116684490319365" lon="9.877147105106284"><ele>15.5</ele><time>2026-04-12T09:14:35Z</time></trkpt><trkpt lat="44.11665534587467" lon="9.87696121421513"><ele>14.75</ele><time>2026-04-12T09:14:36.001Z</time></trkpt><trkpt lat="44.11661425112829" lon="9.876772071436319"><ele>14.0</ele><time>2026-04-12T09:14:37.001Z</time></trkpt><trkpt lat="44.11656380562771" lon="9.876598436032872"><ele>13.75</ele><time>2026-04-12T09:14:38.001Z</time></trkpt><trkpt lat="44.11652920123356" lon="9.876441866620834"><ele>13.5</ele><time>2026-04-12T09:14:39.001Z</time></trkpt><trkpt lat="44.116485040036466" lon="9.87628318924224"><ele>13.25</ele><time>2026-04-12T09:14:40.001Z</time></trkpt><trkpt lat="44.11644801716514" lon="9.876128970194888"><ele>13.0</ele><time>2026-04-12T09:14:41.001Z</time></trkpt><trkpt lat="44.11640641294774" lon="9.875961016027569"><ele>13.5</ele><time>2026-04-12T09:14:42.001Z</time></trkpt><trkpt lat="44.11636071689707" lon="9.875782267186132"><ele>14.0</ele><time>2026-04-12T09:14:43.001Z</time></trkpt><trkpt lat="44.1163054017879" lon="9.875597134040621"><ele>14.5</ele><time>2026-04-12T09:14:44.001Z</time></trkpt><trkpt lat="44.11625308698415" lon="9.87542251078548"><ele>15.0</ele><time>2026-04-12T09:14:45.001Z</time></trkpt><trkpt lat="44.11621446162444" lon="9.87525230629283"><ele>15.0</ele><time>2026-04-12T09:14:46.001Z</time></trkpt><trkpt lat="44.11619436143336" lon="9.875091756172127"><ele>15.0</ele><time>2026-04-12T09:14:47.001Z</time></trkpt><trkpt lat="44.11619899251081" lon="9.87492673186052"><ele>15.0</ele><time>2026-04-12T09:14:48.001Z</time></trkpt><trkpt lat="44.116230376633226" lon="9.874753752020519"><ele>15.0</ele><time>2026-04-12T09:14:49.001Z</time></trkpt><trkpt lat="44.11628182692676" lon="9.874570376714686"><ele>15.0</ele><time>2026-04-12T09:14:50.001Z</time></trkpt><trkpt lat="44.11632045467493" lon="9.874377349128888"><ele>15.0</ele><time>2026-04-12T09:14:51.001Z</time></trkpt><trkpt lat="44.11636185700801" lon="9.874199618490875"><ele>15.0</ele><time>2026-04-12T09:14:52.001Z</time></trkpt><trkpt lat="44.11640085788268" lon="9.874035137041094"><ele>15.0</ele><time>2026-04-12T09:14:53.001Z</time></trkpt><trkpt lat="44.116426069698164" lon="9.873883877415954"><ele>14.5</ele><time>2026-04-12T09:14:54.001Z</time></trkpt><trkpt lat="44.11641083608647" lon="9.873740083325549"><ele>14.0</ele><time>2026-04-12T09:14:55.001Z</time></trkpt><trkpt lat="44.116357220832825" lon="9.873610357572511"><ele>13.5</ele><time>2026-04-12T09:14:56.001Z</time></trkpt><trkpt lat="44.11625838167874" lon="9.873525395940408"><ele>13.0</ele><time>2026-04-12T09:14:57.001Z</time></trkpt><trkpt lat="44.11615335052379" lon="9.873432207115872"><ele>13.0</ele><time>2026-04-12T09:14:58.001Z</time></trkpt><trkpt lat="44.11604623776555" lon="9.873318670416616"><ele>13.0</ele><time>2026-04-12T09:14:59.001Z</time></trkpt><trkpt lat="44.115941145569586" lon="9.873198071549977"><ele>13.0</ele><time>2026-04-12T09:15:00.001Z</time></trkpt><trkpt lat="44.11583004687638" lon="9.87306815379074"><ele>13.0</ele><time>2026-04-12T09:15:01.001Z</time></trkpt><trkpt lat="44.11571706121772" lon="9.872939311522863"><ele>12.75</ele><time>2026-04-12T09:15:02.001Z</time></trkpt><trkpt lat="44.115609976725594" lon="9.872815329015998"><ele>12.5</ele><time>2026-04-12T09:15:03.001Z</time></trkpt><trkpt lat="44.11551647591502" lon="9.872674637091404"><ele>12.25</ele><time>2026-04-12T09:15:04.001Z</time></trkpt><trkpt lat="44.11543574217251" lon="9.872550621011772"><ele>12.0</ele><time>2026-04-12T09:15:05.001Z</time></trkpt><trkpt lat="44.115381334196776" lon="9.87237684789646"><ele>12.0</ele><time>2026-04-12T09:15:06.001Z</time></trkpt><trkpt lat="44.11533624793672" lon="9.87221216906114"><ele>12.0</ele><time>2026-04-12T09:15:07.001Z</time></trkpt><trkpt lat="44.11529563790655" lon="9.872075617965123"><ele>12.0</ele><time>2026-04-12T09:15:08.001Z</time></trkpt><trkpt lat="44.11525983381825" lon="9.871935650437448"><ele>12.0</ele><time>2026-04-12T09:15:09.001Z</time></trkpt><trkpt lat="44.11525486107465" lon="9.871785726204612"><ele>12.0</ele><time>2026-04-12T09:15:10.001Z</time></trkpt><trkpt lat="44.11528270836617" lon="9.871643955093226"><ele>12.0</ele><time>2026-04-12T09:15:11.001Z</time></trkpt><trkpt lat="44.11531314140572" lon="9.871512481825478"><ele>12.0</ele><time>2026-04-12T09:15:12.001Z</time></trkpt><trkpt lat="44.1153294424072" lon="9.871394514338894"><ele>12.0</ele><time>2026-04-12T09:15:13.001Z</time></trkpt><trkpt lat="44.1153354361528" lon="9.871280915870814"><ele>12.0</ele><time>2026-04-12T09:15:14.001Z</time></trkpt><trkpt lat="44.115334090709176" lon="9.871175270941404"><ele>12.0</ele><time>2026-04-12T09:15:15.001Z</time></trkpt><trkpt lat="44.11532317366593" lon="9.871083734157166"><ele>12.0</ele><time>2026-04-12T09:15:16.001Z</time></trkpt><trkpt lat="44.11530131579288" lon="9.870977109345715"><ele>12.0</ele><time>2026-04-12T09:15:17.001Z</time></trkpt><trkpt lat="44.11527458658185" lon="9.870842777422464"><ele>12.0</ele><time>2026-04-12T09:15:18.001Z</time></trkpt><trkpt lat="44.115237110736565" lon="9.870693255574231"><ele>12.0</ele><time>2026-04-12T09:15:19.001Z</time></trkpt><trkpt lat="44.11519557634462" lon="9.870527529019956"><ele>12.0</ele><time>2026-04-12T09:15:20.001Z</time></trkpt><trkpt lat="44.115170868751655" lon="9.870348690197273"><ele>12.0</ele><time>2026-04-12T09:15:21.001Z</time></trkpt><trkpt lat="44.11517251393728" lon="9.870159285031553"><ele>12.0</ele><time>2026-04-12T09:15:22.001Z</time></trkpt><trkpt lat="44.11518752950099" lon="9.869971843105494"><ele>12.0</ele><time>2026-04-12T09:15:23.001Z</time></trkpt><trkpt lat="44.115209867464706" lon="9.86977623786175"><ele>12.0</ele><time>2026-04-12T09:15:24.001Z</time></trkpt><trkpt lat="44.1152313084131" lon="9.869602830276902"><ele>12.0</ele><time>2026-04-12T09:15:25.001Z</time></trkpt><trkpt lat="44.11525476619803" lon="9.869459578950863"><ele>12.0</ele><time>2026-04-12T09:15:26.001Z</time></trkpt><trkpt lat="44.11529773374871" lon="9.869350705596695"><ele>12.0</ele><time>2026-04-12T09:15:27.001Z</time></trkpt><trkpt lat="44.115362038776674" lon="9.869291879161315"><ele>12.0</ele><time>2026-04-12T09:15:28.001Z</time></trkpt><trkpt lat="44.11544494490974" lon="9.869276673507725"><ele>12.0</ele><time>2026-04-12T09:15:29.001Z</time></trkpt><trkpt lat="44.11553814688107" lon="9.869312310758788"><ele>12.0</ele><time>2026-04-12T09:15:30.001Z</time></trkpt><trkpt lat="44.115623630568415" lon="9.86939099541031"><ele>12.0</ele><time>2026-04-12T09:15:31.001Z</time></trkpt><trkpt lat="44.115715045174" lon="9.869497921698"><ele>12.0</ele><time>2026-04-12T09:15:32.001Z</time></trkpt><trkpt lat="44.11582644565355" lon="9.869598322971637"><ele>12.0</ele><time>2026-04-12T09:15:33.001Z</time></trkpt><trkpt lat="44.11596056694695" lon="9.869665513474084"><ele>14.25</ele><time>2026-04-12T09:15:34.001Z</time></trkpt><trkpt lat="44.11610269019756" lon="9.869694673478012"><ele>16.5</ele><time>2026-04-12T09:15:35.001Z</time></trkpt><trkpt lat="44.11622870773479" lon="9.869701113348999"><ele>18.75</ele><time>2026-04-12T09:15:36.001Z</time></trkpt><trkpt lat="44.11633929095862" lon="9.869707490568047"><ele>21.0</ele><time>2026-04-12T09:15:37.001Z</time></trkpt><trkpt lat="44.11643273196161" lon="9.869710952148102"><ele>21.0</ele><time>2026-04-12T09:15:38.001Z</time></trkpt><trkpt lat="44.11651610014138" lon="9.86971460742738"><ele>21.0</ele><time>2026-04-12T09:15:39.001Z</time></trkpt><trkpt lat="44.11659482336783" lon="9.869724064933875"><ele>21.0</ele><time>2026-04-12T09:15:40.001Z</time></trkpt><trkpt lat="44.11666980461296" lon="9.869733739064275"><ele>21.0</ele><time>2026-04-12T09:15:41.001Z</time></trkpt><trkpt lat="44.11674504715107" lon="9.869742601573494"><ele>21.0</ele><time>2026-04-12T09:15:42.001Z</time></trkpt><trkpt lat="44.11682879348148" lon="9.869748926765057"><ele>21.0</ele><time>2026-04-12T09:15:43.001Z</time></trkpt><trkpt lat="44.116921055146456" lon="9.869754707862405"><ele>21.0</ele><time>2026-04-12T09:15:44.001Z</time></trkpt><trkpt lat="44.11702005951555" lon="9.869760479028116"><ele>21.0</ele><time>2026-04-12T09:15:45Z</time></trkpt><trkpt lat="44.11713043959091" lon="9.869759805626135"><ele>21.0</ele><time>2026-04-12T09:15:46Z</time></trkpt><trkpt lat="44.11724388954199" lon="9.869737593872633"><ele>21.0</ele><time>2026-04-12T09:15:47Z</time></trkpt><trkpt lat="44.117344463895336" lon="9.869670970577202"><ele>21.0</ele><time>2026-04-12T09:15:48Z</time></trkpt><trkpt lat="44.117436640472164" lon="9.869570219016687"><ele>20.5</ele><time>2026-04-12T09:15:49Z</time></trkpt><trkpt lat="44.117499303809474" lon="9.869429882065024"><ele>20.0</ele><time>2026-04-12T09:15:50Z</time></trkpt><trkpt lat="44.11754008874184" lon="9.869281886047698"><ele>19.5</ele><time>2026-04-12T09:15:51Z</time></trkpt><trkpt lat="44.117549776254116" lon="9.869112530624157"><ele>19.0</ele><time>2026-04-12T09:15:52Z</time></trkpt><trkpt lat="44.117553771806236" lon="9.868932629345597"><ele>18.0</ele><time>2026-04-12T09:15:53Z</time></trkpt><trkpt lat="44.117563461468684" lon="9.868751366129537"><ele>17.0</ele><time>2026-04-12T09:15:54Z</time></trkpt><trkpt lat="44.117564074998164" lon="9.868576999555941"><ele>16.0</ele><time>2026-04-12T09:15:55Z</time></trkpt><trkpt lat="44.11756305827158" lon="9.868405344996493"><ele>15.0</ele><time>2026-04-12T09:15:56Z</time></trkpt><trkpt lat="44.11755371973199" lon="9.868235515876053"><ele>14.4</ele><time>2026-04-12T09:15:57Z</time></trkpt><trkpt lat="44.11752971649987" lon="9.868072158354053"><ele>13.8</ele><time>2026-04-12T09:15:58Z</time></trkpt><trkpt lat="44.11749867439638" lon="9.867920335256276"><ele>13.2</ele><time>2026-04-12T09:15:59Z</time></trkpt><trkpt lat="44.117468512134266" lon="9.867776326616234"><ele>12.6</ele><time>2026-04-12T09:16:00Z</time></trkpt><trkpt lat="44.117430490460194" lon="9.867639190713993"><ele>12.0</ele><time>2026-04-12T09:16:01Z</time></trkpt><trkpt lat="44.1173898658366" lon="9.867502608423917"><ele>11.5</ele><time>2026-04-12T09:16:02Z</time></trkpt><trkpt lat="44.11734954951714" lon="9.867359203329615"><ele>11.0</ele><time>2026-04-12T09:16:03Z</time></trkpt><trkpt lat="44.11730813237971" lon="9.867207268096475"><ele>10.5</ele><time>2026-04-12T09:16:04Z</time></trkpt><trkpt lat="44.11726553956014" lon="9.8670539531108"><ele>10.0</ele><time>2026-04-12T09:16:05Z</time></trkpt><trkpt lat="44.11721878358181" lon="9.866899896219547"><ele>10.0</ele><time>2026-04-12T09:16:06Z</time></trkpt><trkpt lat="44.11717268617748" lon="9.866752883865216"><ele>10.0</ele><time>2026-04-12T09:16:07Z</time></trkpt><trkpt lat="44.11713174039201" lon="9.866611612297774"><ele>10.0</ele><time>2026-04-12T09:16:08Z</time></trkpt><trkpt lat="44.11709188566414" lon="9.866479560608843"><ele>10.0</ele><time>2026-04-12T09:16:09Z</time></trkpt><trkpt lat="44.117057313250655" lon="9.866334841201363"><ele>10.0</ele><time>2026-04-12T09:16:10Z</time></trkpt><trkpt lat="44.1170391422417" lon="9.866181785949317"><ele>10.0</ele><time>2026-04-12T09:16:11Z</time></trkpt><trkpt lat="44.11703300488783" lon="9.866026652741171"><ele>10.0</ele><time>2026-04-12T09:16:12Z</time></trkpt><trkpt lat="44.11703091372309" lon="9.865871131611534"><ele>10.0</ele><time>2026-04-12T09:16:13Z</time></trkpt><trkpt lat="44.11702871393602" lon="9.865716070248407"><ele>10.0</ele><time>2026-04-12T09:16:14Z</time></trkpt><trkpt lat="44.11702918281493" lon="9.865564691808265"><ele>10.0</ele><time>2026-04-12T09:16:15Z</time></trkpt><trkpt lat="44.11702507406463" lon="9.8654095562468"><ele>10.25</ele><time>2026-04-12T09:16:16Z</time></trkpt><trkpt lat="44.11702483544045" lon="9.865245002512118"><ele>10.5</ele><time>2026-04-12T09:16:17Z</time></trkpt><trkpt lat="44.11702514256607" lon="9.865084271116336"><ele>10.75</ele><time>2026-04-12T09:16:18Z</time></trkpt><trkpt lat="44.11702691096218" lon="9.864916540284513"><ele>11.0</ele><time>2026-04-12T09:16:19Z</time></trkpt><trkpt lat="44.11703089632698" lon="9.864757071876351"><ele>11.0</ele><time>2026-04-12T09:16:20Z</time></trkpt><trkpt lat="44.11703798745074" lon="9.864610948435367"><ele>11.0</ele><time>2026-04-12T09:16:21Z</time></trkpt><trkpt lat="44.11705173467141" lon="9.864470736362609"><ele>11.0</ele><time>2026-04-12T09:16:22Z</time></trkpt><trkpt lat="44.11706831710855" lon="9.86433876337977"><ele>11.0</ele><time>2026-04-12T09:16:23Z</time></trkpt><trkpt lat="44.11708682321831" lon="9.864207578050403"><ele>11.0</ele><time>2026-04-12T09:16:24Z</time></trkpt><trkpt lat="44.117106244337414" lon="9.864079004134798"><ele>11.0</ele><time>2026-04-12T09:16:25Z</time></trkpt><trkpt lat="44.11713096651143" lon="9.863948132828236"><ele>11.0</ele><time>2026-04-12T09:16:26Z</time></trkpt><trkpt lat="44.11715371144897" lon="9.863820886272874"><ele>11.0</ele><time>2026-04-12T09:16:27Z</time></trkpt><trkpt lat="44.1171748908936" lon="9.863692086242299"><ele>11.0</ele><time>2026-04-12T09:16:28Z</time></trkpt><trkpt lat="44.11719172744473" lon="9.863575073947874"><ele>11.0</ele><time>2026-04-12T09:16:29Z</time></trkpt><trkpt lat="44.11721220163619" lon="9.86349049053175"><ele>11.0</ele><time>2026-04-12T09:16:30Z</time></trkpt><trkpt lat="44.117221027680834" lon="9.863364986162257"><ele>11.666666666666666</ele><time>2026-04-12T09:16:31Z</time></trkpt><trkpt lat="44.117229902360634" lon="9.86327016390054"><ele>12.333333333333332</ele><time>2026-04-12T09:16:32Z</time></trkpt><trkpt lat="44.117197501234756" lon="9.863100741724246"><ele>13.0</ele><time>2026-04-12T09:16:34.001Z</time></trkpt><trkpt lat="44.11714785902217" lon="9.863037851447654"><ele>13.666666666666666</ele><time>2026-04-12T09:16:35.001Z</time></trkpt><trkpt lat="44.11709033235411" lon="9.862979959861903"><ele>14.333333333333334</ele><time>2026-04-12T09:16:36.001Z</time></trkpt><trkpt lat="44.117033483490665" lon="9.8629130610249"><ele>15.0</ele><time>2026-04-12T09:16:37.001Z</time></trkpt><trkpt lat="44.1169885715846" lon="9.86281657957078"><ele>15.0</ele><time>2026-04-12T09:16:38.001Z</time></trkpt><trkpt lat="44.11695585999023" lon="9.86271937828334"><ele>15.0</ele><time>2026-04-12T09:16:39.001Z</time></trkpt><trkpt lat="44.116944547127325" lon="9.862604168796118"><ele>15.0</ele><time>2026-04-12T09:16:40.001Z</time></trkpt><trkpt lat="44.11694331909441" lon="9.86248878279436"><ele>15.0</ele><time>2026-04-12T09:16:41.001Z</time></trkpt><trkpt lat="44.11694173634951" lon="9.862386337618073"><ele>15.0</ele><time>2026-04-12T09:16:42.001Z</time></trkpt><trkpt lat="44.116930115867746" lon="9.862276675965097"><ele>15.0</ele><time>2026-04-12T09:16:44.001Z</time></trkpt><trkpt lat="44.11689132067389" lon="9.862148548073073"><ele>14.8</ele><time>2026-04-12T09:16:55.001Z</time></trkpt><trkpt lat="44.116861575503556" lon="9.862040645201489"><ele>14.6</ele><time>2026-04-12T09:16:57.001Z</time></trkpt><trkpt lat="44.11681604892498" lon="9.861904888673907"><ele>14.399999999999999</ele><time>2026-04-12T09:16:59.001Z</time></trkpt><trkpt lat="44.11677094481617" lon="9.861767138116859"><ele>14.2</ele><time>2026-04-12T09:17:01.001Z</time></trkpt><trkpt lat="44.11676148319013" lon="9.861660074848933"><ele>14.0</ele><time>2026-04-12T09:17:03.001Z</time></trkpt><trkpt lat="44.11682541887457" lon="9.861557120744997"><ele>14.000000000000002</ele><time>2026-04-12T09:17:06.001Z</time></trkpt><trkpt lat="44.11689055615984" lon="9.861560185077044"><ele>14.0</ele><time>2026-04-12T09:17:07.001Z</time></trkpt><trkpt lat="44.117006203071455" lon="9.861634518344063"><ele>14.0</ele><time>2026-04-12T09:17:09.001Z</time></trkpt><trkpt lat="44.11708178929593" lon="9.861667068196455"><ele>14.0</ele><time>2026-04-12T09:17:10.001Z</time></trkpt><trkpt lat="44.117150134390116" lon="9.861689243049144"><ele>14.000000000000002</ele><time>2026-04-12T09:17:11.001Z</time></trkpt><trkpt lat="44.11724583143077" lon="9.861656448560295"><ele>14.0</ele><time>2026-04-12T09:17:13.001Z</time></trkpt><trkpt lat="44.11728494451563" lon="9.861499819920505"><ele>14.0</ele><time>2026-04-12T09:17:15.001Z</time></trkpt><trkpt lat="44.11727553308186" lon="9.861393219304508"><ele>13.999999999999998</ele><time>2026-04-12T09:17:16.001Z</time></trkpt><trkpt lat="44.11725887857541" lon="9.861281604655584"><ele>13.999999999999998</ele><time>2026-04-12T09:17:17.001Z</time></trkpt><trkpt lat="44.11724306125331" lon="9.861152000676586"><ele>14.0</ele><time>2026-04-12T09:17:18.001Z</time></trkpt><trkpt lat="44.11723154315452" lon="9.861017237929797"><ele>14.0</ele><time>2026-04-12T09:17:19.001Z</time></trkpt><trkpt lat="44.1172169027836" lon="9.860867258588875"><ele>14.75</ele><time>2026-04-12T09:17:20.001Z</time></trkpt><trkpt lat="44.11719972537882" lon="9.860712866139421"><ele>15.5</ele><time>2026-04-12T09:17:21.001Z</time></trkpt><trkpt lat="44.11718032945332" lon="9.860551115835761"><ele>16.25</ele><time>2026-04-12T09:17:22.001Z</time></trkpt><trkpt lat="44.117161636037196" lon="9.86038875886059"><ele>17.0</ele><time>2026-04-12T09:17:23.001Z</time></trkpt><trkpt lat="44.11714727787794" lon="9.860226094512266"><ele>17.6</ele><time>2026-04-12T09:17:24.001Z</time></trkpt><trkpt lat="44.117132493039804" lon="9.860068995677592"><ele>18.2</ele><time>2026-04-12T09:17:25.001Z</time></trkpt><trkpt lat="44.11712097028003" lon="9.859925614334003"><ele>18.8</ele><time>2026-04-12T09:17:26.001Z</time></trkpt><trkpt lat="44.117116349944055" lon="9.85978367387463"><ele>19.4</ele><time>2026-04-12T09:17:27.001Z</time></trkpt><trkpt lat="44.11712431704085" lon="9.859629271204936"><ele>20.0</ele><time>2026-04-12T09:17:28.001Z</time></trkpt><trkpt lat="44.11714349881655" lon="9.859474019915199"><ele>20.0</ele><time>2026-04-12T09:17:29.001Z</time></trkpt><trkpt lat="44.11717994347065" lon="9.859324895556107"><ele>20.0</ele><time>2026-04-12T09:17:30.001Z</time></trkpt><trkpt lat="44.11722670761644" lon="9.859179369456909"><ele>20.0</ele><time>2026-04-12T09:17:31.001Z</time></trkpt><trkpt lat="44.11728411388453" lon="9.859040038272662"><ele>20.0</ele><time>2026-04-12T09:17:32.001Z</time></trkpt><trkpt lat="44.11735024211702" lon="9.858904258406001"><ele>19.75</ele><time>2026-04-12T09:17:33.001Z</time></trkpt><trkpt lat="44.117409808856266" lon="9.858778821176637"><ele>19.5</ele><time>2026-04-12T09:17:34.001Z</time></trkpt><trkpt lat="44.11746795092319" lon="9.858633572591971"><ele>19.25</ele><time>2026-04-12T09:17:35.001Z</time></trkpt><trkpt lat="44.11751208119891" lon="9.858470642331023"><ele>19.0</ele><time>2026-04-12T09:17:36.001Z</time></trkpt><trkpt lat="44.117552461958056" lon="9.858301813317427"><ele>19.5</ele><time>2026-04-12T09:17:37.001Z</time></trkpt><trkpt lat="44.11759388400663" lon="9.858138319516291"><ele>20.0</ele><time>2026-04-12T09:17:38.001Z</time></trkpt><trkpt lat="44.117636865381215" lon="9.857965778299432"><ele>20.5</ele><time>2026-04-12T09:17:39.001Z</time></trkpt><trkpt lat="44.11767495514051" lon="9.857810799806664"><ele>21.0</ele><time>2026-04-12T09:17:40.001Z</time></trkpt><trkpt lat="44.11770399059757" lon="9.857677539174304"><ele>20.400000000000002</ele><time>2026-04-12T09:17:41.001Z</time></trkpt><trkpt lat="44.11774166025209" lon="9.857529199984002"><ele>19.8</ele><time>2026-04-12T09:17:42.001Z</time></trkpt><trkpt lat="44.117776944399495" lon="9.857386889745307"><ele>19.200000000000003</ele><time>2026-04-12T09:17:43.001Z</time></trkpt><trkpt lat="44.11781168870978" lon="9.85725365681999"><ele>18.6</ele><time>2026-04-12T09:17:44.001Z</time></trkpt><trkpt lat="44.117850446034176" lon="9.857118162202282"><ele>18.0</ele><time>2026-04-12T09:17:45.001Z</time></trkpt><trkpt lat="44.11789118445526" lon="9.856986299183655"><ele>18.0</ele><time>2026-04-12T09:17:46.001Z</time></trkpt><trkpt lat="44.117930672944304" lon="9.856862281088508"><ele>18.0</ele><time>2026-04-12T09:17:47.001Z</time></trkpt><trkpt lat="44.11796559527212" lon="9.856744617564063"><ele>18.0</ele><time>2026-04-12T09:17:48.001Z</time></trkpt><trkpt lat="44.11799549022254" lon="9.856642855535004"><ele>18.0</ele><time>2026-04-12T09:17:49.001Z</time></trkpt><trkpt lat="44.11802587029435" lon="9.856551125353489"><ele>18.0</ele><time>2026-04-12T09:17:50.001Z</time></trkpt><trkpt lat="44.118099221356914" lon="9.856408614928664"><ele>17.6</ele><time>2026-04-12T09:17:52Z</time></trkpt><trkpt lat="44.11814406358983" lon="9.856335768522936"><ele>17.200000000000003</ele><time>2026-04-12T09:17:53Z</time></trkpt><trkpt lat="44.118187107971515" lon="9.856219289527417"><ele>16.8</ele><time>2026-04-12T09:17:54Z</time></trkpt><trkpt lat="44.11822719377233" lon="9.856076256213097"><ele>16.400000000000002</ele><time>2026-04-12T09:17:55Z</time></trkpt><trkpt lat="44.11827411144344" lon="9.855918978017744"><ele>16.0</ele><time>2026-04-12T09:17:56Z</time></trkpt><trkpt lat="44.11833540285137" lon="9.855756855624934"><ele>15.25</ele><time>2026-04-12T09:17:57Z</time></trkpt><trkpt lat="44.11841455018039" lon="9.855596756038599"><ele>14.5</ele><time>2026-04-12T09:17:58Z</time></trkpt><trkpt lat="44.118508922623874" lon="9.855441967092867"><ele>13.75</ele><time>2026-04-12T09:17:59Z</time></trkpt><trkpt lat="44.11861466679147" lon="9.855296923976008"><ele>13.0</ele><time>2026-04-12T09:18:00Z</time></trkpt><trkpt lat="44.11874090506499" lon="9.85517453341424"><ele>12.25</ele><time>2026-04-12T09:18:01Z</time></trkpt><trkpt lat="44.11885027409984" lon="9.855047696932854"><ele>11.5</ele><time>2026-04-12T09:18:02Z</time></trkpt><trkpt lat="44.11895736147222" lon="9.854918921504133"><ele>10.75</ele><time>2026-04-12T09:18:03Z</time></trkpt><trkpt lat="44.119069947183476" lon="9.854797047434342"><ele>10.0</ele><time>2026-04-12T09:18:04Z</time></trkpt><trkpt lat="44.11917464551284" lon="9.854676453927594"><ele>10.5</ele><time>2026-04-12T09:18:05Z</time></trkpt><trkpt lat="44.1192710852718" lon="9.854569564544414"><ele>11.0</ele><time>2026-04-12T09:18:06Z</time></trkpt><trkpt lat="44.119360421187125" lon="9.854462641281511"><ele>11.5</ele><time>2026-04-12T09:18:07Z</time></trkpt><trkpt lat="44.119454011174966" lon="9.854355710539474"><ele>12.0</ele><time>2026-04-12T09:18:08Z</time></trkpt><trkpt lat="44.11954595584862" lon="9.8542428226608"><ele>12.0</ele><time>2026-04-12T09:18:09Z</time></trkpt><trkpt lat="44.11963725205807" lon="9.854125002966596"><ele>12.0</ele><time>2026-04-12T09:18:10Z</time></trkpt><trkpt lat="44.119730397377296" lon="9.854006069141802"><ele>12.0</ele><time>2026-04-12T09:18:11Z</time></trkpt><trkpt lat="44.11982373724749" lon="9.853887698986076"><ele>12.0</ele><time>2026-04-12T09:18:12Z</time></trkpt><trkpt lat="44.11991454104752" lon="9.853773016887299"><ele>12.0</ele><time>2026-04-12T09:18:13Z</time></trkpt><trkpt lat="44.120005036109184" lon="9.853659696359584"><ele>12.0</ele><time>2026-04-12T09:18:14Z</time></trkpt><trkpt lat="44.120096528223975" lon="9.853553936885334"><ele>12.0</ele><time>2026-04-12T09:18:15Z</time></trkpt><trkpt lat="44.12018621716652" lon="9.853434507582778"><ele>12.0</ele><time>2026-04-12T09:18:16Z</time></trkpt><trkpt lat="44.1202763838716" lon="9.853318515649251"><ele>12.0</ele><time>2026-04-12T09:18:17Z</time></trkpt><trkpt lat="44.12036691955288" lon="9.853198999789598"><ele>12.0</ele><time>2026-04-12T09:18:18Z</time></trkpt><trkpt lat="44.12045986381363" lon="9.853076495688153"><ele>12.0</ele><time>2026-04-12T09:18:19Z</time></trkpt><trkpt lat="44.12054580491637" lon="9.852964769266631"><ele>12.0</ele><time>2026-04-12T09:18:20Z</time></trkpt><trkpt lat="44.12063560117908" lon="9.852847445395183"><ele>12.0</ele><time>2026-04-12T09:18:21Z</time></trkpt><trkpt lat="44.12072604461441" lon="9.852732919014615"><ele>12.0</ele><time>2026-04-12T09:18:22Z</time></trkpt><trkpt lat="44.1208134125846" lon="9.8526158670622"><ele>12.0</ele><time>2026-04-12T09:18:23Z</time></trkpt><trkpt lat="44.12089835225656" lon="9.852500350791942"><ele>12.0</ele><time>2026-04-12T09:18:24Z</time></trkpt><trkpt lat="44.12098602649451" lon="9.85238975010873"><ele>11.8</ele><time>2026-04-12T09:18:25Z</time></trkpt><trkpt lat="44.12107737659975" lon="9.852291296992142"><ele>11.6</ele><time>2026-04-12T09:18:26Z</time></trkpt><trkpt lat="44.12114889629332" lon="9.852183948254394"><ele>11.4</ele><time>2026-04-12T09:18:27Z</time></trkpt><trkpt lat="44.12123153698" lon="9.852082805428967"><ele>11.200000000000001</ele><time>2026-04-12T09:18:28Z</time></trkpt><trkpt lat="44.12131831006298" lon="9.851989193278992"><ele>11.0</ele><time>2026-04-12T09:18:29Z</time></trkpt><trkpt lat="44.121405838477216" lon="9.85189013230648"><ele>11.0</ele><time>2026-04-12T09:18:30Z</time></trkpt><trkpt lat="44.12149329059229" lon="9.851791773743985"><ele>11.0</ele><time>2026-04-12T09:18:31Z</time></trkpt><trkpt lat="44.12157926204261" lon="9.851689271485558"><ele>11.0</ele><time>2026-04-12T09:18:32Z</time></trkpt><trkpt lat="44.12166848486842" lon="9.851587255053508"><ele>11.0</ele><time>2026-04-12T09:18:33Z</time></trkpt><trkpt lat="44.12175468558357" lon="9.851490783582294"><ele>11.4</ele><time>2026-04-12T09:18:34Z</time></trkpt><trkpt lat="44.12184109112318" lon="9.851382525963391"><ele>11.8</ele><time>2026-04-12T09:18:35Z</time></trkpt><trkpt lat="44.12192606607597" lon="9.85128967751457"><ele>12.200000000000001</ele><time>2026-04-12T09:18:36Z</time></trkpt><trkpt lat="44.122006141115165" lon="9.851192744500214"><ele>12.600000000000001</ele><time>2026-04-12T09:18:37.001Z</time></trkpt><trkpt lat="44.122093114581936" lon="9.851092767418976"><ele>13.0</ele><time>2026-04-12T09:18:38.001Z</time></trkpt><trkpt lat="44.12217813292282" lon="9.850999059614239"><ele>13.2</ele><time>2026-04-12T09:18:39.001Z</time></trkpt><trkpt lat="44.12226295395524" lon="9.850902158426592"><ele>13.4</ele><time>2026-04-12T09:18:40.001Z</time></trkpt><trkpt lat="44.12235063524619" lon="9.850806250731003"><ele>13.599999999999998</ele><time>2026-04-12T09:18:41.001Z</time></trkpt><trkpt lat="44.12243426185752" lon="9.85070068662727"><ele>13.799999999999999</ele><time>2026-04-12T09:18:42.001Z</time></trkpt><trkpt lat="44.122520793702456" lon="9.850600009606204"><ele>14.0</ele><time>2026-04-12T09:18:43.001Z</time></trkpt><trkpt lat="44.122597979584654" lon="9.85048749395457"><ele>14.0</ele><time>2026-04-12T09:18:44.001Z</time></trkpt><trkpt lat="44.122658583476316" lon="9.850369032019108"><ele>13.999999999999998</ele><time>2026-04-12T09:18:45.001Z</time></trkpt><trkpt lat="44.12270723748892" lon="9.850239245127089"><ele>13.999999999999998</ele><time>2026-04-12T09:18:46.001Z</time></trkpt><trkpt lat="44.12274317019194" lon="9.850097397669817"><ele>14.0</ele><time>2026-04-12T09:18:47.001Z</time></trkpt><trkpt lat="44.122763330801384" lon="9.849944050115367"><ele>14.0</ele><time>2026-04-12T09:18:48.001Z</time></trkpt><trkpt lat="44.122774034121036" lon="9.849782138457753"><ele>14.0</ele><time>2026-04-12T09:18:49.001Z</time></trkpt><trkpt lat="44.12277317629672" lon="9.849621336458833"><ele>14.0</ele><time>2026-04-12T09:18:50.001Z</time></trkpt><trkpt lat="44.12276644100757" lon="9.849463940303721"><ele>14.0</ele><time>2026-04-12T09:18:51.001Z</time></trkpt><trkpt lat="44.12276243908461" lon="9.849300523246477"><ele>14.0</ele><time>2026-04-12T09:18:52.001Z</time></trkpt><trkpt lat="44.122753059185555" lon="9.849141768146023"><ele>14.0</ele><time>2026-04-12T09:18:53.001Z</time></trkpt><trkpt lat="44.12274479620327" lon="9.848988855831532"><ele>13.999999999999998</ele><time>2026-04-12T09:18:54.001Z</time></trkpt><trkpt lat="44.12273863506807" lon="9.848841060283108"><ele>13.999999999999998</ele><time>2026-04-12T09:18:55.001Z</time></trkpt><trkpt lat="44.1227289613996" lon="9.848689812479"><ele>14.0</ele><time>2026-04-12T09:18:56.001Z</time></trkpt><trkpt lat="44.122719306668415" lon="9.848541402455355"><ele>14.0</ele><time>2026-04-12T09:18:57.001Z</time></trkpt><trkpt lat="44.12270915219773" lon="9.848407283758677"><ele>14.000000000000002</ele><time>2026-04-12T09:18:58.001Z</time></trkpt><trkpt lat="44.12270068899726" lon="9.848275894095954"><ele>14.0</ele><time>2026-04-12T09:18:59.001Z</time></trkpt><trkpt lat="44.12269965754281" lon="9.84814642078336"><ele>14.0</ele><time>2026-04-12T09:19:00.001Z</time></trkpt><trkpt lat="44.12269643638592" lon="9.848026173720475"><ele>14.0</ele><time>2026-04-12T09:19:01.001Z</time></trkpt><trkpt lat="44.12269322205098" lon="9.84791647428943"><ele>14.000000000000002</ele><time>2026-04-12T09:19:02.001Z</time></trkpt><trkpt lat="44.122687385793604" lon="9.847815987229852"><ele>14.0</ele><time>2026-04-12T09:19:03.001Z</time></trkpt><trkpt lat="44.12268411126449" lon="9.84768887879256"><ele>14.166666666666668</ele><time>2026-04-12T09:19:05.001Z</time></trkpt><trkpt lat="44.12268418838194" lon="9.84758222264734"><ele>14.333333333333334</ele><time>2026-04-12T09:19:07.001Z</time></trkpt><trkpt lat="44.12269027021122" lon="9.847460879210773"><ele>14.5</ele><time>2026-04-12T09:19:09.001Z</time></trkpt><trkpt lat="44.1226962645575" lon="9.84734813600529"><ele>14.666666666666668</ele><time>2026-04-12T09:19:12.001Z</time></trkpt><trkpt lat="44.12270850511345" lon="9.84718926022512"><ele>14.833333333333334</ele><time>2026-04-12T09:19:18.001Z</time></trkpt><trkpt lat="44.12271329841369" lon="9.847086488300913"><ele>15.0</ele><time>2026-04-12T09:19:35.001Z</time></trkpt><trkpt lat="44.12272593936842" lon="9.846993925384211"><ele>15.0</ele><time>2026-04-12T09:19:37.001Z</time></trkpt><trkpt lat="44.122741552588344" lon="9.846852421447108"><ele>15.0</ele><time>2026-04-12T09:19:39.001Z</time></trkpt><trkpt lat="44.12272865038861" lon="9.846710137226177"><ele>15.0</ele><time>2026-04-12T09:19:41.001Z</time></trkpt><trkpt lat="44.12267060350624" lon="9.846646684334136"><ele>15.0</ele><time>2026-04-12T09:19:43.001Z</time></trkpt><trkpt lat="44.122580322822024" lon="9.846640526951308"><ele>15.0</ele><time>2026-04-12T09:19:45.001Z</time></trkpt><trkpt lat="44.12245050408952" lon="9.846651187996024"><ele>14.8</ele><time>2026-04-12T09:19:47.001Z</time></trkpt><trkpt lat="44.12236601433166" lon="9.846661046526416"><ele>14.6</ele><time>2026-04-12T09:19:48.001Z</time></trkpt><trkpt lat="44.12227257382479" lon="9.846669948541726"><ele>14.399999999999999</ele><time>2026-04-12T09:19:49.001Z</time></trkpt><trkpt lat="44.122180370619596" lon="9.846673825986354"><ele>14.2</ele><time>2026-04-12T09:19:50.001Z</time></trkpt><trkpt lat="44.122088954750886" lon="9.846688239265658"><ele>14.0</ele><time>2026-04-12T09:19:51.001Z</time></trkpt><trkpt lat="44.12199618902084" lon="9.846700190102709"><ele>14.0</ele><time>2026-04-12T09:19:52.001Z</time></trkpt><trkpt lat="44.12190320187399" lon="9.846705168120502"><ele>13.999999999999998</ele><time>2026-04-12T09:19:53.001Z</time></trkpt><trkpt lat="44.12181116753935" lon="9.846708182303443"><ele>13.999999999999998</ele><time>2026-04-12T09:19:54.001Z</time></trkpt><trkpt lat="44.12172302444222" lon="9.846714263537125"><ele>14.0</ele><time>2026-04-12T09:19:55.001Z</time></trkpt><trkpt lat="44.12162947568574" lon="9.846719827249478"><ele>14.0</ele><time>2026-04-12T09:19:56.001Z</time></trkpt><trkpt lat="44.12152846566554" lon="9.846725915956453"><ele>13.799999999999999</ele><time>2026-04-12T09:19:57Z</time></trkpt><trkpt lat="44.121425165202176" lon="9.84673011345496"><ele>13.599999999999998</ele><time>2026-04-12T09:19:58Z</time></trkpt><trkpt lat="44.12131710994991" lon="9.846728507167944"><ele>13.4</ele><time>2026-04-12T09:19:59Z</time></trkpt><trkpt lat="44.12120645087023" lon="9.846713697883088"><ele>13.2</ele><time>2026-04-12T09:20:00Z</time></trkpt><trkpt lat="44.121103843152866" lon="9.84668993817137"><ele>13.0</ele><time>2026-04-12T09:20:01Z</time></trkpt><trkpt lat="44.12100060577248" lon="9.84663416198996"><ele>13.0</ele><time>2026-04-12T09:20:02Z</time></trkpt><trkpt lat="44.12090133040963" lon="9.846552264322957"><ele>13.0</ele><time>2026-04-12T09:20:03Z</time></trkpt><trkpt lat="44.12080773476872" lon="9.846467022401153"><ele>13.0</ele><time>2026-04-12T09:20:04Z</time></trkpt><trkpt lat="44.12071960385003" lon="9.846374877216002"><ele>13.0</ele><time>2026-04-12T09:20:05Z</time></trkpt><trkpt lat="44.12063322720035" lon="9.84627638343737"><ele>13.0</ele><time>2026-04-12T09:20:06Z</time></trkpt><trkpt lat="44.1205511511216" lon="9.846177376975447"><ele>13.0</ele><time>2026-04-12T09:20:07Z</time></trkpt><trkpt lat="44.120466870547" lon="9.846076541283974"><ele>13.0</ele><time>2026-04-12T09:20:08Z</time></trkpt><trkpt lat="44.12037878560253" lon="9.845976382238819"><ele>13.0</ele><time>2026-04-12T09:20:09Z</time></trkpt><trkpt lat="44.120294652003906" lon="9.845875136426995"><ele>13.0</ele><time>2026-04-12T09:20:10Z</time></trkpt><trkpt lat="44.12020751995901" lon="9.845782573090547"><ele>13.0</ele><time>2026-04-12T09:20:11Z</time></trkpt><trkpt lat="44.1201263745338" lon="9.845679930748533"><ele>13.0</ele><time>2026-04-12T09:20:12Z</time></trkpt><trkpt lat="44.1200479565828" lon="9.84558576663367"><ele>13.0</ele><time>2026-04-12T09:20:13Z</time></trkpt><trkpt lat="44.11997707045224" lon="9.845497206178873"><ele>13.0</ele><time>2026-04-12T09:20:14Z</time></trkpt><trkpt lat="44.11991541599602" lon="9.845416690725791"><ele>13.0</ele><time>2026-04-12T09:20:15Z</time></trkpt><trkpt lat="44.119861978650285" lon="9.845350725838717"><ele>13.0</ele><time>2026-04-12T09:20:16Z</time></trkpt><trkpt lat="44.119775207848214" lon="9.845245962711958"><ele>12.4</ele><time>2026-04-12T09:20:18Z</time></trkpt><trkpt lat="44.11968464301232" lon="9.8451428255681"><ele>11.8</ele><time>2026-04-12T09:20:20Z</time></trkpt><trkpt lat="44.119598433551715" lon="9.845021742310406"><ele>11.2</ele><time>2026-04-12T09:20:22Z</time></trkpt><trkpt lat="44.119550214616645" lon="9.844963949999533"><ele>10.6</ele><time>2026-04-12T09:20:23Z</time></trkpt><trkpt lat="44.11949384782166" lon="9.84489792106691"><ele>10.0</ele><time>2026-04-12T09:20:24Z</time></trkpt><trkpt lat="44.11943090486783" lon="9.844829395804991"><ele>10.0</ele><time>2026-04-12T09:20:25Z</time></trkpt><trkpt lat="44.119365566741536" lon="9.844752506055416"><ele>10.0</ele><time>2026-04-12T09:20:26Z</time></trkpt><trkpt lat="44.11929604356753" lon="9.844666799553664"><ele>10.0</ele><time>2026-04-12T09:20:27Z</time></trkpt><trkpt lat="44.11921870218249" lon="9.844570653735481"><ele>10.0</ele><time>2026-04-12T09:20:28Z</time></trkpt><trkpt lat="44.11914351438279" lon="9.844473775430334"><ele>10.0</ele><time>2026-04-12T09:20:29Z</time></trkpt><trkpt lat="44.11906821258453" lon="9.844377264884718"><ele>9.6</ele><time>2026-04-12T09:20:30Z</time></trkpt><trkpt lat="44.118995119045806" lon="9.84428276105335"><ele>9.2</ele><time>2026-04-12T09:20:31Z</time></trkpt><trkpt lat="44.118922934301956" lon="9.844186147072485"><ele>8.8</ele><time>2026-04-12T09:20:32Z</time></trkpt><trkpt lat="44.11884194437745" lon="9.84409933030147"><ele>8.4</ele><time>2026-04-12T09:20:33Z</time></trkpt><trkpt lat="44.11875901018931" lon="9.844008619331607"><ele>8.0</ele><time>2026-04-12T09:20:34Z</time></trkpt><trkpt lat="44.118675575481305" lon="9.843909202978223"><ele>8.0</ele><time>2026-04-12T09:20:35Z</time></trkpt><trkpt lat="44.11859048086323" lon="9.843803868959688"><ele>8.0</ele><time>2026-04-12T09:20:36Z</time></trkpt><trkpt lat="44.11850438901935" lon="9.843693942330392"><ele>8.0</ele><time>2026-04-12T09:20:37Z</time></trkpt><trkpt lat="44.118416897518514" lon="9.843582903916712"><ele>8.0</ele><time>2026-04-12T09:20:38Z</time></trkpt><trkpt lat="44.11832671101299" lon="9.843476318689536"><ele>8.0</ele><time>2026-04-12T09:20:39Z</time></trkpt><trkpt lat="44.11823567222146" lon="9.843360616708228"><ele>8.0</ele><time>2026-04-12T09:20:40Z</time></trkpt><trkpt lat="44.11815862721859" lon="9.843227431673744"><ele>8.0</ele><time>2026-04-12T09:20:41Z</time></trkpt><trkpt lat="44.11806790958594" lon="9.843151018306813"><ele>8.0</ele><time>2026-04-12T09:20:42Z</time></trkpt><trkpt lat="44.11798803886106" lon="9.843069903984222"><ele>7.999999999999999</ele><time>2026-04-12T09:20:43Z</time></trkpt><trkpt lat="44.11790937358699" lon="9.842993023428734"><ele>8.0</ele><time>2026-04-12T09:20:44Z</time></trkpt><trkpt lat="44.117851511755234" lon="9.842916639598485"><ele>8.0</ele><time>2026-04-12T09:20:45Z</time></trkpt><trkpt lat="44.1177975621956" lon="9.842846783592533"><ele>8.0</ele><time>2026-04-12T09:20:46.001Z</time></trkpt><trkpt lat="44.11775172634029" lon="9.842779374989945"><ele>7.999999999999999</ele><time>2026-04-12T09:20:47.001Z</time></trkpt><trkpt lat="44.11769484971732" lon="9.842712183917934"><ele>8.0</ele><time>2026-04-12T09:20:49.001Z</time></trkpt><trkpt lat="44.11761838529034" lon="9.842613669615476"><ele>7.999999999999999</ele><time>2026-04-12T09:21:03.001Z</time></trkpt><trkpt lat="44.11755011325327" lon="9.84252773176111"><ele>8.0</ele><time>2026-04-12T09:21:05.001Z</time></trkpt><trkpt lat="44.117471443792674" lon="9.842436947533617"><ele>8.0</ele><time>2026-04-12T09:21:07.001Z</time></trkpt><trkpt lat="44.11742396123704" lon="9.842378503261866"><ele>8.0</ele><time>2026-04-12T09:21:08.001Z</time></trkpt><trkpt lat="44.11737103626982" lon="9.842308513504728"><ele>7.999999999999999</ele><time>2026-04-12T09:21:09.001Z</time></trkpt><trkpt lat="44.11730584818805" lon="9.84223056864292"><ele>8.0</ele><time>2026-04-12T09:21:10.001Z</time></trkpt><trkpt lat="44.117237213814796" lon="9.842147906479347"><ele>7.999999999999999</ele><time>2026-04-12T09:21:11.001Z</time></trkpt><trkpt lat="44.11717356986113" lon="9.84206692585113"><ele>8.0</ele><time>2026-04-12T09:21:12.001Z</time></trkpt><trkpt lat="44.117113982222584" lon="9.841989482076558"><ele>8.0</ele><time>2026-04-12T09:21:13.001Z</time></trkpt><trkpt lat="44.117051997762076" lon="9.841913558257206"><ele>8.0</ele><time>2026-04-12T09:21:14.001Z</time></trkpt><trkpt lat="44.11699044245874" lon="9.841837141400957"><ele>7.999999999999999</ele><time>2026-04-12T09:21:15.001Z</time></trkpt><trkpt lat="44.116925366070625" lon="9.841763973096343"><ele>8.0</ele><time>2026-04-12T09:21:16.001Z</time></trkpt><trkpt lat="44.116859001109724" lon="9.84168263296319"><ele>8.0</ele><time>2026-04-12T09:21:17.001Z</time></trkpt><trkpt lat="44.116790672611955" lon="9.841597871775843"><ele>8.0</ele><time>2026-04-12T09:21:18.001Z</time></trkpt><trkpt lat="44.11671816366447" lon="9.841510380991913"><ele>8.0</ele><time>2026-04-12T09:21:19.001Z</time></trkpt><trkpt lat="44.11664829026873" lon="9.841426773557568"><ele>8.0</ele><time>2026-04-12T09:21:20.001Z</time></trkpt><trkpt lat="44.11657889093886" lon="9.841343274185295"><ele>8.0</ele><time>2026-04-12T09:21:21.001Z</time></trkpt><trkpt lat="44.11651350430279" lon="9.841265636237043"><ele>7.666666666666666</ele><time>2026-04-12T09:21:22.001Z</time></trkpt><trkpt lat="44.11644893120885" lon="9.84118813728396"><ele>7.333333333333333</ele><time>2026-04-12T09:21:23.001Z</time></trkpt><trkpt lat="44.1163911144521" lon="9.841111907208921"><ele>7.0</ele><time>2026-04-12T09:21:24.001Z</time></trkpt><trkpt lat="44.116336399215115" lon="9.841044527328739"><ele>6.666666666666666</ele><time>2026-04-12T09:21:25.001Z</time></trkpt><trkpt lat="44.11628539784504" lon="9.840975100377666"><ele>6.333333333333333</ele><time>2026-04-12T09:21:26.001Z</time></trkpt><trkpt lat="44.11618058255408" lon="9.840847871535749"><ele>6.0</ele><time>2026-04-12T09:21:28.001Z</time></trkpt><trkpt lat="44.11611699173629" lon="9.84078093466477"><ele>6.333333333333333</ele><time>2026-04-12T09:21:29.001Z</time></trkpt><trkpt lat="44.116047231776754" lon="9.84071695911609"><ele>6.666666666666666</ele><time>2026-04-12T09:21:30.001Z</time></trkpt><trkpt lat="44.1159727134638" lon="9.840636021922602"><ele>7.0</ele><time>2026-04-12T09:21:31.001Z</time></trkpt><trkpt lat="44.11590646103735" lon="9.840554414831809"><ele>7.333333333333333</ele><time>2026-04-12T09:21:32.001Z</time></trkpt><trkpt lat="44.11584535850284" lon="9.840483858795492"><ele>7.666666666666666</ele><time>2026-04-12T09:21:33.001Z</time></trkpt><trkpt lat="44.115792977903084" lon="9.840418604447368"><ele>8.0</ele><time>2026-04-12T09:21:34.001Z</time></trkpt><trkpt lat="44.11571604045717" lon="9.840324679609683"><ele>7.999999999999999</ele><time>2026-04-12T09:21:36.001Z</time></trkpt><trkpt lat="44.1156600666679" lon="9.840257462417878"><ele>8.0</ele><time>2026-04-12T09:21:39.001Z</time></trkpt><trkpt lat="44.11559717276694" lon="9.840166510548164"><ele>8.0</ele><time>2026-04-12T09:21:45.001Z</time></trkpt><trkpt lat="44.11552830455745" lon="9.840089258368145"><ele>8.0</ele><time>2026-04-12T09:21:46.001Z</time></trkpt><trkpt lat="44.11545975551936" lon="9.840008302620909"><ele>7.999999999999999</ele><time>2026-04-12T09:21:47.001Z</time></trkpt><trkpt lat="44.11538802939086" lon="9.839912467944854"><ele>8.0</ele><time>2026-04-12T09:21:48.001Z</time></trkpt><trkpt lat="44.11530858367446" lon="9.839807729596744"><ele>7.800000000000001</ele><time>2026-04-12T09:21:49.001Z</time></trkpt><trkpt lat="44.1152305977215" lon="9.839706100069884"><ele>7.6000000000000005</ele><time>2026-04-12T09:21:50.001Z</time></trkpt><trkpt lat="44.11515274890498" lon="9.839607654451473"><ele>7.3999999999999995</ele><time>2026-04-12T09:21:51.001Z</time></trkpt><trkpt lat="44.11507322372081" lon="9.83950555809787"><ele>7.199999999999999</ele><time>2026-04-12T09:21:52.001Z</time></trkpt><trkpt lat="44.114991401291434" lon="9.839407559894411"><ele>7.0</ele><time>2026-04-12T09:21:53.001Z</time></trkpt><trkpt lat="44.11490609439136" lon="9.839310485017544"><ele>7.0</ele><time>2026-04-12T09:21:54.001Z</time></trkpt><trkpt lat="44.114823968529365" lon="9.839208536636626"><ele>6.999999999999999</ele><time>2026-04-12T09:21:55.001Z</time></trkpt><trkpt lat="44.11473947162142" lon="9.839105594936576"><ele>6.999999999999999</ele><time>2026-04-12T09:21:56.001Z</time></trkpt><trkpt lat="44.11465838113456" lon="9.839010845018969"><ele>7.0</ele><time>2026-04-12T09:21:57.001Z</time></trkpt><trkpt lat="44.1145764839933" lon="9.838907566307777"><ele>7.0</ele><time>2026-04-12T09:21:58.001Z</time></trkpt><trkpt lat="44.11449536663323" lon="9.838807650082284"><ele>7.0</ele><time>2026-04-12T09:21:59.001Z</time></trkpt><trkpt lat="44.11441981366013" lon="9.838718453491644"><ele>6.999999999999999</ele><time>2026-04-12T09:22:00.001Z</time></trkpt><trkpt lat="44.114345444926336" lon="9.838627749515597"><ele>6.999999999999999</ele><time>2026-04-12T09:22:01.001Z</time></trkpt><trkpt lat="44.11426971098912" lon="9.838533747427833"><ele>7.0</ele><time>2026-04-12T09:22:02.001Z</time></trkpt><trkpt lat="44.114192462454426" lon="9.838439298774242"><ele>7.0</ele><time>2026-04-12T09:22:03Z</time></trkpt><trkpt lat="44.11411409020787" lon="9.83834767728177"><ele>6.6</ele><time>2026-04-12T09:22:04Z</time></trkpt><trkpt lat="44.11404286456488" lon="9.838259172733808"><ele>6.199999999999999</ele><time>2026-04-12T09:22:05Z</time></trkpt><trkpt lat="44.11396944742486" lon="9.83817173536649"><ele>5.8</ele><time>2026-04-12T09:22:06Z</time></trkpt><trkpt lat="44.113897537838255" lon="9.838081821508457"><ele>5.4</ele><time>2026-04-12T09:22:07Z</time></trkpt><trkpt lat="44.11382788140238" lon="9.837991763398124"><ele>5.0</ele><time>2026-04-12T09:22:08Z</time></trkpt><trkpt lat="44.11375456120535" lon="9.837903711165405"><ele>5.0</ele><time>2026-04-12T09:22:09Z</time></trkpt><trkpt lat="44.11367670618017" lon="9.837809625912197"><ele>5.0</ele><time>2026-04-12T09:22:10Z</time></trkpt><trkpt lat="44.11359766545415" lon="9.837712492159381"><ele>5.0</ele><time>2026-04-12T09:22:11Z</time></trkpt><trkpt lat="44.11351532360761" lon="9.837611570549145"><ele>5.0</ele><time>2026-04-12T09:22:12Z</time></trkpt><trkpt lat="44.113427537493685" lon="9.837511416967898"><ele>5.0</ele><time>2026-04-12T09:22:13Z</time></trkpt><trkpt lat="44.11334531749351" lon="9.837406943664536"><ele>4.6</ele><time>2026-04-12T09:22:14Z</time></trkpt><trkpt lat="44.113262508056906" lon="9.837302397453021"><ele>4.2</ele><time>2026-04-12T09:22:15Z</time></trkpt><trkpt lat="44.113179362977874" lon="9.837205168718134"><ele>3.8</ele><time>2026-04-12T09:22:16Z</time></trkpt><trkpt lat="44.11310661926413" lon="9.837109553184044"><ele>3.4</ele><time>2026-04-12T09:22:17Z</time></trkpt><trkpt lat="44.11303394299615" lon="9.837021921052731"><ele>3.0</ele><time>2026-04-12T09:22:18Z</time></trkpt><trkpt lat="44.11296370373083" lon="9.836935488504542"><ele>2.8</ele><time>2026-04-12T09:22:19Z</time></trkpt><trkpt lat="44.112894795685044" lon="9.836845550355497"><ele>2.5999999999999996</ele><time>2026-04-12T09:22:20Z</time></trkpt><trkpt lat="44.11282161652223" lon="9.836756509345806"><ele>2.4000000000000004</ele><time>2026-04-12T09:22:21Z</time></trkpt><trkpt lat="44.112746972792806" lon="9.836667703676145"><ele>2.2</ele><time>2026-04-12T09:22:22Z</time></trkpt><trkpt lat="44.11267191125192" lon="9.836577424730077"><ele>2.0</ele><time>2026-04-12T09:22:23Z</time></trkpt><trkpt lat="44.11259835102563" lon="9.836489958310406"><ele>2.2</ele><time>2026-04-12T09:22:24Z</time></trkpt><trkpt lat="44.11252427097851" lon="9.836407584923167"><ele>2.4000000000000004</ele><time>2026-04-12T09:22:25Z</time></trkpt><trkpt lat="44.11245551513368" lon="9.836319332166656"><ele>2.5999999999999996</ele><time>2026-04-12T09:22:26Z</time></trkpt><trkpt lat="44.11239334588441" lon="9.836247956291706"><ele>2.8</ele><time>2026-04-12T09:22:27Z</time></trkpt><trkpt lat="44.1123093939547" lon="9.836161957038781"><ele>3.0</ele><time>2026-04-12T09:22:28Z</time></trkpt><trkpt lat="44.11221524501034" lon="9.836055150955524"><ele>3.5999999999999996</ele><time>2026-04-12T09:22:29Z</time></trkpt><trkpt lat="44.11212529405718" lon="9.835948559408166"><ele>4.199999999999999</ele><time>2026-04-12T09:22:30Z</time></trkpt><trkpt lat="44.112048017232354" lon="9.835841758351876"><ele>4.8</ele><time>2026-04-12T09:22:31Z</time></trkpt><trkpt lat="44.11198133474728" lon="9.835751357604456"><ele>5.3999999999999995</ele><time>2026-04-12T09:22:32Z</time></trkpt><trkpt lat="44.11192227896067" lon="9.835675254901354"><ele>6.0</ele><time>2026-04-12T09:22:33Z</time></trkpt><trkpt lat="44.11187058136918" lon="9.8356123283239"><ele>6.0</ele><time>2026-04-12T09:22:34Z</time></trkpt><trkpt lat="44.11182150388624" lon="9.83555235077512"><ele>6.0</ele><time>2026-04-12T09:22:35Z</time></trkpt><trkpt lat="44.11176613565019" lon="9.83548576331146"><ele>6.0</ele><time>2026-04-12T09:22:36Z</time></trkpt><trkpt lat="44.11170155368374" lon="9.83540864747064"><ele>6.0</ele><time>2026-04-12T09:22:37Z</time></trkpt><trkpt lat="44.111628687329286" lon="9.83532785778433"><ele>6.0</ele><time>2026-04-12T09:22:38Z</time></trkpt><trkpt lat="44.11155507034226" lon="9.835244834790554"><ele>6.0</ele><time>2026-04-12T09:22:39Z</time></trkpt><trkpt lat="44.111485833834514" lon="9.83515176393282"><ele>6.166666666666667</ele><time>2026-04-12T09:22:40Z</time></trkpt><trkpt lat="44.111421020991074" lon="9.835075694007514"><ele>6.333333333333334</ele><time>2026-04-12T09:22:41Z</time></trkpt><trkpt lat="44.11136124494637" lon="9.835017180046597"><ele>6.5</ele><time>2026-04-12T09:22:42Z</time></trkpt><trkpt lat="44.11131195383174" lon="9.834953458444405"><ele>6.666666666666667</ele><time>2026-04-12T09:22:43Z</time></trkpt><trkpt lat="44.11122279101753" lon="9.83484566759989"><ele>6.833333333333334</ele><time>2026-04-12T09:22:45Z</time></trkpt><trkpt lat="44.111146352266346" lon="9.834763372126877"><ele>7.0</ele><time>2026-04-12T09:22:47Z</time></trkpt><trkpt lat="44.11106819666164" lon="9.834661723197303"><ele>7.0</ele><time>2026-04-12T09:22:49Z</time></trkpt><trkpt lat="44.11097624750316" lon="9.834563553462692"><ele>7.0</ele><time>2026-04-12T09:22:51Z</time></trkpt><trkpt lat="44.11089079214747" lon="9.834464141729406"><ele>7.0</ele><time>2026-04-12T09:22:53Z</time></trkpt><trkpt lat="44.11080120993556" lon="9.834346299480767"><ele>7.0</ele><time>2026-04-12T09:22:55Z</time></trkpt><trkpt lat="44.110706897888335" lon="9.834227596092997"><ele>6.333333333333334</ele><time>2026-04-12T09:22:57.001Z</time></trkpt><trkpt lat="44.11065792259764" lon="9.834162387847185"><ele>5.666666666666667</ele><time>2026-04-12T09:22:58.001Z</time></trkpt><trkpt lat="44.11059950102215" lon="9.834084556024731"><ele>5.0</ele><time>2026-04-12T09:22:59.001Z</time></trkpt><trkpt lat="44.11053614149081" lon="9.834009814792012"><ele>4.333333333333334</ele><time>2026-04-12T09:23:00.001Z</time></trkpt><trkpt lat="44.11047279859696" lon="9.833930371105211"><ele>3.666666666666667</ele><time>2026-04-12T09:23:01.001Z</time></trkpt><trkpt lat="44.110402256669346" lon="9.833845365573634"><ele>3.0</ele><time>2026-04-12T09:23:02.001Z</time></trkpt><trkpt lat="44.11033309254368" lon="9.833759517038379"><ele>3.0</ele><time>2026-04-12T09:23:03.001Z</time></trkpt><trkpt lat="44.110262419268516" lon="9.833672909127737"><ele>3.0</ele><time>2026-04-12T09:23:04.001Z</time></trkpt><trkpt lat="44.110190724866726" lon="9.833579923469712"><ele>3.0</ele><time>2026-04-12T09:23:05.001Z</time></trkpt><trkpt lat="44.110117231114046" lon="9.833492735535682"><ele>3.0</ele><time>2026-04-12T09:23:06.001Z</time></trkpt><trkpt lat="44.11004523083441" lon="9.833402302657701"><ele>3.0</ele><time>2026-04-12T09:23:07.001Z</time></trkpt><trkpt lat="44.10996965628975" lon="9.83331334833243"><ele>2.8</ele><time>2026-04-12T09:23:08.001Z</time></trkpt><trkpt lat="44.10988832679795" lon="9.833223014362748"><ele>2.5999999999999996</ele><time>2026-04-12T09:23:09.001Z</time></trkpt><trkpt lat="44.109803653462244" lon="9.833124336519168"><ele>2.4000000000000004</ele><time>2026-04-12T09:23:10.001Z</time></trkpt><trkpt lat="44.109727175357854" lon="9.833022221984345"><ele>2.2</ele><time>2026-04-12T09:23:11.001Z</time></trkpt><trkpt lat="44.109647814253776" lon="9.832921188465125"><ele>2.0</ele><time>2026-04-12T09:23:12.001Z</time></trkpt><trkpt lat="44.10956552348141" lon="9.83282477125328"><ele>2.0</ele><time>2026-04-12T09:23:13.001Z</time></trkpt><trkpt lat="44.10948194507416" lon="9.832728234317134"><ele>2.0</ele><time>2026-04-12T09:23:14.001Z</time></trkpt><trkpt lat="44.109403029140445" lon="9.832627633086659"><ele>2.0</ele><time>2026-04-12T09:23:15.001Z</time></trkpt><trkpt lat="44.10932369133394" lon="9.832528661759907"><ele>2.0</ele><time>2026-04-12T09:23:16.001Z</time></trkpt><trkpt lat="44.10924175699802" lon="9.832434431483168"><ele>2.0</ele><time>2026-04-12T09:23:17.001Z</time></trkpt><trkpt lat="44.10916173990532" lon="9.832341029129536"><ele>1.9999999999999998</ele><time>2026-04-12T09:23:18.001Z</time></trkpt><trkpt lat="44.109087978462085" lon="9.832247519396546"><ele>2.0</ele><time>2026-04-12T09:23:19.001Z</time></trkpt><trkpt lat="44.10901904044955" lon="9.832162343168681"><ele>2.0</ele><time>2026-04-12T09:23:20.001Z</time></trkpt><trkpt lat="44.10895813066546" lon="9.832085576169925"><ele>2.0</ele><time>2026-04-12T09:23:21.001Z</time></trkpt><trkpt lat="44.10889469394859" lon="9.832009522793694"><ele>1.9999999999999998</ele><time>2026-04-12T09:23:22.001Z</time></trkpt><trkpt lat="44.108824724513426" lon="9.831927622753305"><ele>2.0</ele><time>2026-04-12T09:23:23.001Z</time></trkpt><trkpt lat="44.10875325722381" lon="9.831842181037008"><ele>2.4000000000000004</ele><time>2026-04-12T09:23:24.001Z</time></trkpt><trkpt lat="44.10867674852285" lon="9.831746837111346"><ele>2.8000000000000003</ele><time>2026-04-12T09:23:25.001Z</time></trkpt><trkpt lat="44.108597334198464" lon="9.831639859495523"><ele>3.2</ele><time>2026-04-12T09:23:26.001Z</time></trkpt><trkpt lat="44.10851245641722" lon="9.831530201327725"><ele>3.6</ele><time>2026-04-12T09:23:27.001Z</time></trkpt><trkpt lat="44.1084262686217" lon="9.831420958951515"><ele>4.0</ele><time>2026-04-12T09:23:28.001Z</time></trkpt><trkpt lat="44.108338134717826" lon="9.831315320043387"><ele>4.0</ele><time>2026-04-12T09:23:29.001Z</time></trkpt><trkpt lat="44.10824951188031" lon="9.831204801163356"><ele>4.0</ele><time>2026-04-12T09:23:30.001Z</time></trkpt><trkpt lat="44.108166544893834" lon="9.831105381068184"><ele>4.0</ele><time>2026-04-12T09:23:31.001Z</time></trkpt><trkpt lat="44.10809006668781" lon="9.831012500577895"><ele>4.0</ele><time>2026-04-12T09:23:32.001Z</time></trkpt><trkpt lat="44.108016478944634" lon="9.830926365282332"><ele>4.0</ele><time>2026-04-12T09:23:33.001Z</time></trkpt><trkpt lat="44.10794507253588" lon="9.830843803721264"><ele>3.8000000000000003</ele><time>2026-04-12T09:23:34.001Z</time></trkpt><trkpt lat="44.10786793846441" lon="9.830746594805865"><ele>3.6000000000000005</ele><time>2026-04-12T09:23:35.001Z</time></trkpt><trkpt lat="44.10778440989151" lon="9.83064118011526"><ele>3.4</ele><time>2026-04-12T09:23:36.001Z</time></trkpt><trkpt lat="44.10770030668219" lon="9.830532273703186"><ele>3.2</ele><time>2026-04-12T09:23:37.001Z</time></trkpt><trkpt lat="44.10761548376911" lon="9.830422187971203"><ele>3.0</ele><time>2026-04-12T09:23:38.001Z</time></trkpt><trkpt lat="44.10752973108383" lon="9.83032013900201"><ele>3.0</ele><time>2026-04-12T09:23:39.001Z</time></trkpt><trkpt lat="44.10745238577164" lon="9.830219422880074"><ele>3.0</ele><time>2026-04-12T09:23:40.001Z</time></trkpt><trkpt lat="44.10737866738555" lon="9.830129316951828"><ele>3.0</ele><time>2026-04-12T09:23:41.001Z</time></trkpt><trkpt lat="44.107307291238776" lon="9.830048686737436"><ele>3.0</ele><time>2026-04-12T09:23:42.001Z</time></trkpt><trkpt lat="44.10723123055293" lon="9.82997157452466"><ele>3.0</ele><time>2026-04-12T09:23:43.001Z</time></trkpt><trkpt lat="44.107150332450395" lon="9.829883253923105"><ele>2.4</ele><time>2026-04-12T09:23:44.001Z</time></trkpt><trkpt lat="44.10708782330788" lon="9.829801712091603"><ele>1.7999999999999998</ele><time>2026-04-12T09:23:45.001Z</time></trkpt><trkpt lat="44.10703204088845" lon="9.829728631474897"><ele>1.2</ele><time>2026-04-12T09:23:46.001Z</time></trkpt><trkpt lat="44.10695128766826" lon="9.829624369982623"><ele>0.6</ele><time>2026-04-12T09:23:48.001Z</time></trkpt><trkpt lat="44.10688112671607" lon="9.829538498500352"><ele>0.0</ele><time>2026-04-12T09:23:50.001Z</time></trkpt><trkpt lat="44.106785428378615" lon="9.829418373819163"><ele>0.0</ele><time>2026-04-12T09:23:52.001Z</time></trkpt><trkpt lat="44.106726296450624" lon="9.829347833484139"><ele>0.0</ele><time>2026-04-12T09:23:53.001Z</time></trkpt><trkpt lat="44.106663100145084" lon="9.829265365937061"><ele>0.0</ele><time>2026-04-12T09:23:54.001Z</time></trkpt><trkpt lat="44.10660093540841" lon="9.82918547693286"><ele>0.0</ele><time>2026-04-12T09:23:55.001Z</time></trkpt><trkpt lat="44.106532764244065" lon="9.8290959703667"><ele>0.0</ele><time>2026-04-12T09:23:56.001Z</time></trkpt><trkpt lat="44.10646335194795" lon="9.82900939308753"><ele>0.0</ele><time>2026-04-12T09:23:57.001Z</time></trkpt><trkpt lat="44.10639959654719" lon="9.828928984567304"><ele>0.0</ele><time>2026-04-12T09:23:58.001Z</time></trkpt><trkpt lat="44.10633045104272" lon="9.828850673593852"><ele>0.0</ele><time>2026-04-12T09:23:59.001Z</time></trkpt><trkpt lat="44.106256478502715" lon="9.828768195388115"><ele>0.0</ele><time>2026-04-12T09:24:00.001Z</time></trkpt><trkpt lat="44.106184716404" lon="9.828684332731301"><ele>0.0</ele><time>2026-04-12T09:24:01.001Z</time></trkpt><trkpt lat="44.10611723034837" lon="9.828600290964834"><ele>0.0</ele><time>2026-04-12T09:24:02.001Z</time></trkpt><trkpt lat="44.10604137455334" lon="9.828512802760361"><ele>0.2</ele><time>2026-04-12T09:24:03.001Z</time></trkpt><trkpt lat="44.10596229283386" lon="9.828416600329382"><ele>0.4</ele><time>2026-04-12T09:24:04.001Z</time></trkpt><trkpt lat="44.10588497030191" lon="9.828319968540137"><ele>0.6000000000000001</ele><time>2026-04-12T09:24:05.001Z</time></trkpt><trkpt lat="44.105805716321726" lon="9.82822274801401"><ele>0.8</ele><time>2026-04-12T09:24:06.001Z</time></trkpt><trkpt lat="44.10571990695949" lon="9.82811205118988"><ele>1.0</ele><time>2026-04-12T09:24:07.001Z</time></trkpt><trkpt lat="44.10563120976154" lon="9.82799802849094"><ele>1.25</ele><time>2026-04-12T09:24:08.001Z</time></trkpt><trkpt lat="44.10553454718153" lon="9.827880284867765"><ele>1.5</ele><time>2026-04-12T09:24:09Z</time></trkpt><trkpt lat="44.105437101141256" lon="9.827767822305866"><ele>1.75</ele><time>2026-04-12T09:24:10Z</time></trkpt><trkpt lat="44.10534128387775" lon="9.827651989339005"><ele>2.0</ele><time>2026-04-12T09:24:11Z</time></trkpt><trkpt lat="44.10524672728635" lon="9.827545788885805"><ele>1.5</ele><time>2026-04-12T09:24:12Z</time></trkpt><trkpt lat="44.10515326408415" lon="9.82744004054924"><ele>1.0</ele><time>2026-04-12T09:24:13Z</time></trkpt><trkpt lat="44.10506363266684" lon="9.827334006371517"><ele>0.5</ele><time>2026-04-12T09:24:14Z</time></trkpt><trkpt lat="44.10497660890009" lon="9.827227871459273"><ele>0.0</ele><time>2026-04-12T09:24:15Z</time></trkpt><trkpt lat="44.104895954693625" lon="9.82712518172797"><ele>0.0</ele><time>2026-04-12T09:24:16Z</time></trkpt><trkpt lat="44.10481262733778" lon="9.827024041562874"><ele>0.0</ele><time>2026-04-12T09:24:17Z</time></trkpt><trkpt lat="44.10472649119343" lon="9.826920750138429"><ele>0.0</ele><time>2026-04-12T09:24:18Z</time></trkpt><trkpt lat="44.104641175698795" lon="9.826820144296361"><ele>0.0</ele><time>2026-04-12T09:24:19Z</time></trkpt><trkpt lat="44.10456171287055" lon="9.826713831444666"><ele>0.0</ele><time>2026-04-12T09:24:20Z</time></trkpt><trkpt lat="44.104482221458134" lon="9.826605361122175"><ele>0.0</ele><time>2026-04-12T09:24:21Z</time></trkpt><trkpt lat="44.10439943091743" lon="9.82650432935299"><ele>0.0</ele><time>2026-04-12T09:24:22Z</time></trkpt><trkpt lat="44.104313620287535" lon="9.826408310436122"><ele>0.0</ele><time>2026-04-12T09:24:23Z</time></trkpt><trkpt lat="44.104227421082605" lon="9.82631558628496"><ele>0.0</ele><time>2026-04-12T09:24:24Z</time></trkpt><trkpt lat="44.10414262646737" lon="9.826219314013489"><ele>0.0</ele><time>2026-04-12T09:24:25Z</time></trkpt><trkpt lat="44.104059965870235" lon="9.826121081904285"><ele>0.0</ele><time>2026-04-12T09:24:26Z</time></trkpt><trkpt lat="44.10397563350454" lon="9.82601824453304"><ele>0.0</ele><time>2026-04-12T09:24:27Z</time></trkpt><trkpt lat="44.10388903070927" lon="9.825912414196816"><ele>0.0</ele><time>2026-04-12T09:24:28Z</time></trkpt><trkpt lat="44.103804449791916" lon="9.825808992937755"><ele>0.0</ele><time>2026-04-12T09:24:29Z</time></trkpt><trkpt lat="44.10371652096121" lon="9.825702333715903"><ele>0.0</ele><time>2026-04-12T09:24:30Z</time></trkpt><trkpt lat="44.103627308213404" lon="9.82559833656306"><ele>0.0</ele><time>2026-04-12T09:24:31Z</time></trkpt><trkpt lat="44.10354161349814" lon="9.82549012815583"><ele>0.0</ele><time>2026-04-12T09:24:32Z</time></trkpt><trkpt lat="44.10345794140012" lon="9.825385792241422"><ele>0.0</ele><time>2026-04-12T09:24:33Z</time></trkpt><trkpt lat="44.103377173113465" lon="9.825282704852272"><ele>0.0</ele><time>2026-04-12T09:24:34Z</time></trkpt><trkpt lat="44.103298671842076" lon="9.825180842479593"><ele>0.0</ele><time>2026-04-12T09:24:35Z</time></trkpt><trkpt lat="44.10321947762286" lon="9.825080694168546"><ele>0.0</ele><time>2026-04-12T09:24:36Z</time></trkpt><trkpt lat="44.103143030099275" lon="9.82498830688504"><ele>0.0</ele><time>2026-04-12T09:24:37Z</time></trkpt><trkpt lat="44.10306959582693" lon="9.824900739931392"><ele>0.0</ele><time>2026-04-12T09:24:38Z</time></trkpt><trkpt lat="44.10300015706075" lon="9.824818414866998"><ele>-0.16666666666666666</ele><time>2026-04-12T09:24:39Z</time></trkpt><trkpt lat="44.102933292603176" lon="9.824737999729837"><ele>-0.3333333333333333</ele><time>2026-04-12T09:24:40Z</time></trkpt><trkpt lat="44.102872180031554" lon="9.824656686508666"><ele>-0.5</ele><time>2026-04-12T09:24:41Z</time></trkpt><trkpt lat="44.10281025672353" lon="9.824576483320941"><ele>-0.6666666666666666</ele><time>2026-04-12T09:24:42Z</time></trkpt><trkpt lat="44.10274574199134" lon="9.824488881321095"><ele>-0.8333333333333333</ele><time>2026-04-12T09:24:43Z</time></trkpt><trkpt lat="44.102683789901576" lon="9.824408074901603"><ele>-1.0</ele><time>2026-04-12T09:24:44Z</time></trkpt><trkpt lat="44.10262553150008" lon="9.824333424561967"><ele>-0.6666666666666666</ele><time>2026-04-12T09:24:45Z</time></trkpt><trkpt lat="44.102570449859016" lon="9.824265112917985"><ele>-0.3333333333333333</ele><time>2026-04-12T09:24:46Z</time></trkpt><trkpt lat="44.10251790800924" lon="9.824200526807543"><ele>0.0</ele><time>2026-04-12T09:24:47Z</time></trkpt><trkpt lat="44.102461930676725" lon="9.824134879196937"><ele>0.3333333333333333</ele><time>2026-04-12T09:24:48Z</time></trkpt><trkpt lat="44.10241392668746" lon="9.824073886008268"><ele>0.6666666666666666</ele><time>2026-04-12T09:24:49Z</time></trkpt><trkpt lat="44.102330077361714" lon="9.823976692801489"><ele>1.0</ele><time>2026-04-12T09:24:51Z</time></trkpt><trkpt lat="44.10223278464443" lon="9.82385766840905"><ele>0.9999999999999999</ele><time>2026-04-12T09:24:53Z</time></trkpt><trkpt lat="44.102174381339516" lon="9.823769401294612"><ele>1.0</ele><time>2026-04-12T09:24:54Z</time></trkpt><trkpt lat="44.102105557585034" lon="9.823682827343637"><ele>1.0</ele><time>2026-04-12T09:24:55Z</time></trkpt><trkpt lat="44.10203338535273" lon="9.823597302731567"><ele>1.0</ele><time>2026-04-12T09:24:56Z</time></trkpt><trkpt lat="44.10196911537479" lon="9.823520428961928"><ele>0.9999999999999999</ele><time>2026-04-12T09:24:57Z</time></trkpt><trkpt lat="44.101911265168816" lon="9.823450178054458"><ele>1.0</ele><time>2026-04-12T09:24:58Z</time></trkpt><trkpt lat="44.10186358060291" lon="9.823383959624842"><ele>1.4</ele><time>2026-04-12T09:24:59Z</time></trkpt><trkpt lat="44.10179318026749" lon="9.823301250813543"><ele>1.8</ele><time>2026-04-12T09:25:01Z</time></trkpt><trkpt lat="44.10173131867734" lon="9.823258598351819"><ele>2.1999999999999997</ele><time>2026-04-12T09:25:34.001Z</time></trkpt><trkpt lat="44.10165974114961" lon="9.823175057963862"><ele>2.6</ele><time>2026-04-12T09:25:36.001Z</time></trkpt><trkpt lat="44.10157223864182" lon="9.82306192319676"><ele>3.0</ele><time>2026-04-12T09:25:38.001Z</time></trkpt><trkpt lat="44.10148451761217" lon="9.822940070652743"><ele>3.3333333333333335</ele><time>2026-04-12T09:25:40.001Z</time></trkpt><trkpt lat="44.10143577159228" lon="9.822880905254594"><ele>3.666666666666667</ele><time>2026-04-12T09:25:41.001Z</time></trkpt><trkpt lat="44.101381557818364" lon="9.822813920902606"><ele>4.0</ele><time>2026-04-12T09:25:42.001Z</time></trkpt><trkpt lat="44.1013194674538" lon="9.822744413835514"><ele>4.333333333333334</ele><time>2026-04-12T09:25:43.001Z</time></trkpt><trkpt lat="44.10125200949291" lon="9.822667190198306"><ele>4.666666666666667</ele><time>2026-04-12T09:25:44.001Z</time></trkpt><trkpt lat="44.1011879570685" lon="9.822596903636176"><ele>5.0</ele><time>2026-04-12T09:25:45.001Z</time></trkpt><trkpt lat="44.10113391670162" lon="9.822546002667664"><ele>5.0</ele><time>2026-04-12T09:25:46.001Z</time></trkpt><trkpt lat="44.10108206567938" lon="9.822490171466942"><ele>5.0</ele><time>2026-04-12T09:25:47.001Z</time></trkpt><trkpt lat="44.10100180834374" lon="9.8223754561578"><ele>5.0</ele><time>2026-04-12T09:25:49.001Z</time></trkpt><trkpt lat="44.10095173273575" lon="9.822230501868857"><ele>5.0</ele><time>2026-04-12T09:25:51.001Z</time></trkpt><trkpt lat="44.10089573132284" lon="9.822160152472554"><ele>5.0</ele><time>2026-04-12T09:25:53.001Z</time></trkpt><trkpt lat="44.10084682136712" lon="9.822243868906195"><ele>5.0</ele><time>2026-04-12T09:25:55.001Z</time></trkpt><trkpt lat="44.100942606742734" lon="9.822410912365775"><ele>5.0</ele><time>2026-04-12T09:25:58.001Z</time></trkpt><trkpt lat="44.101008828353145" lon="9.822471486295884"><ele>5.0</ele><time>2026-04-12T09:25:59.001Z</time></trkpt><trkpt lat="44.10107405597697" lon="9.822545742743507"><ele>5.0</ele><time>2026-04-12T09:26:00.001Z</time></trkpt><trkpt lat="44.10114263452399" lon="9.8226260028568"><ele>5.0</ele><time>2026-04-12T09:26:01.001Z</time></trkpt><trkpt lat="44.10120902251098" lon="9.822707308378751"><ele>5.0</ele><time>2026-04-12T09:26:02.001Z</time></trkpt><trkpt lat="44.10127613313789" lon="9.822789562398285"><ele>5.0</ele><time>2026-04-12T09:26:03.001Z</time></trkpt><trkpt lat="44.10134294269214" lon="9.822866399239304"><ele>5.0</ele><time>2026-04-12T09:26:04.001Z</time></trkpt><trkpt lat="44.10140885220343" lon="9.822946270560223"><ele>5.0</ele><time>2026-04-12T09:26:05.001Z</time></trkpt><trkpt lat="44.10148138523529" lon="9.823033925435473"><ele>5.0</ele><time>2026-04-12T09:26:06.001Z</time></trkpt><trkpt lat="44.10155911106185" lon="9.823135041324262"><ele>5.0</ele><time>2026-04-12T09:26:07.001Z</time></trkpt><trkpt lat="44.101647381516656" lon="9.823241557302154"><ele>5.0</ele><time>2026-04-12T09:26:08.001Z</time></trkpt><trkpt lat="44.10173513534551" lon="9.823348430484714"><ele>4.5</ele><time>2026-04-12T09:26:09.001Z</time></trkpt><trkpt lat="44.10182146826701" lon="9.82345454108155"><ele>4.0</ele><time>2026-04-12T09:26:10.001Z</time></trkpt><trkpt lat="44.10190620386903" lon="9.823560259921596"><ele>3.5</ele><time>2026-04-12T09:26:11.001Z</time></trkpt><trkpt lat="44.10199370529755" lon="9.823664799830928"><ele>3.0</ele><time>2026-04-12T09:26:12.001Z</time></trkpt><trkpt lat="44.10207693189482" lon="9.823765434722898"><ele>2.6</ele><time>2026-04-12T09:26:13.001Z</time></trkpt><trkpt lat="44.102155358111766" lon="9.823862974001425"><ele>2.1999999999999997</ele><time>2026-04-12T09:26:14.001Z</time></trkpt><trkpt lat="44.10223222272898" lon="9.823955252904518"><ele>1.8</ele><time>2026-04-12T09:26:14.999Z</time></trkpt><trkpt lat="44.10230048157149" lon="9.824040899756286"><ele>1.4</ele><time>2026-04-12T09:26:15.999Z</time></trkpt><trkpt lat="44.10236199250253" lon="9.824125403587285"><ele>1.0</ele><time>2026-04-12T09:26:17.999Z</time></trkpt><trkpt lat="44.10242478859084" lon="9.824175227631196"><ele>1.0</ele><time>2026-04-12T09:26:21.999Z</time></trkpt><trkpt lat="44.10252545750187" lon="9.824289164604028"><ele>1.0</ele><time>2026-04-12T09:26:48Z</time></trkpt><trkpt lat="44.10259804969044" lon="9.824377167254548"><ele>1.0</ele><time>2026-04-12T09:26:49Z</time></trkpt><trkpt lat="44.10268357225811" lon="9.824488059580203"><ele>1.0</ele><time>2026-04-12T09:26:50Z</time></trkpt><trkpt lat="44.102776315272564" lon="9.824600807926563"><ele>0.3333333333333333</ele><time>2026-04-12T09:26:51Z</time></trkpt><trkpt lat="44.10288189307878" lon="9.824728987052152"><ele>-0.3333333333333333</ele><time>2026-04-12T09:26:52Z</time></trkpt><trkpt lat="44.10299635076762" lon="9.824867648585139"><ele>-1.0</ele><time>2026-04-12T09:26:53Z</time></trkpt><trkpt lat="44.10311627383393" lon="9.825014320019013"><ele>-0.75</ele><time>2026-04-12T09:26:54Z</time></trkpt><trkpt lat="44.10323093869789" lon="9.825150973643543"><ele>-0.5</ele><time>2026-04-12T09:26:55Z</time></trkpt><trkpt lat="44.10333999172818" lon="9.825276326144499"><ele>-0.25</ele><time>2026-04-12T09:26:56Z</time></trkpt><trkpt lat="44.10344652499655" lon="9.82540443667502"><ele>0.0</ele><time>2026-04-12T09:26:57Z</time></trkpt><trkpt lat="44.10354848914485" lon="9.825530903687822"><ele>0.0</ele><time>2026-04-12T09:26:58Z</time></trkpt><trkpt lat="44.10365434323521" lon="9.825662255259932"><ele>0.0</ele><time>2026-04-12T09:26:59Z</time></trkpt><trkpt lat="44.10376152378267" lon="9.825798499383506"><ele>0.0</ele><time>2026-04-12T09:27:00Z</time></trkpt><trkpt lat="44.10386940617512" lon="9.825930671346052"><ele>0.0</ele><time>2026-04-12T09:27:01Z</time></trkpt><trkpt lat="44.10398330780304" lon="9.826070457635861"><ele>0.0</ele><time>2026-04-12T09:27:02Z</time></trkpt><trkpt lat="44.104099841993744" lon="9.826212409179334"><ele>0.0</ele><time>2026-04-12T09:27:03Z</time></trkpt><trkpt lat="44.104218464146044" lon="9.826357825532162"><ele>0.0</ele><time>2026-04-12T09:27:04Z</time></trkpt><trkpt lat="44.10433400950355" lon="9.826498492713997"><ele>0.0</ele><time>2026-04-12T09:27:05Z</time></trkpt><trkpt lat="44.10445186685325" lon="9.82664041179265"><ele>0.0</ele><time>2026-04-12T09:27:06Z</time></trkpt><trkpt lat="44.10456971702492" lon="9.826786378015955"><ele>0.0</ele><time>2026-04-12T09:27:07Z</time></trkpt><trkpt lat="44.10468773373113" lon="9.826930236177864"><ele>0.0</ele><time>2026-04-12T09:27:08Z</time></trkpt><trkpt lat="44.10480567752304" lon="9.82707813287533"><ele>0.0</ele><time>2026-04-12T09:27:09Z</time></trkpt><trkpt lat="44.10492226603958" lon="9.827217390549967"><ele>0.0</ele><time>2026-04-12T09:27:10Z</time></trkpt><trkpt lat="44.105039489408405" lon="9.82735794563856"><ele>0.0</ele><time>2026-04-12T09:27:11Z</time></trkpt><trkpt lat="44.10514955590037" lon="9.82749185589857"><ele>0.0</ele><time>2026-04-12T09:27:12Z</time></trkpt><trkpt lat="44.10525429028373" lon="9.827614973579758"><ele>0.0</ele><time>2026-04-12T09:27:13Z</time></trkpt><trkpt lat="44.10535250982847" lon="9.827732789191742"><ele>0.0</ele><time>2026-04-12T09:27:14Z</time></trkpt><trkpt lat="44.105443032571955" lon="9.827841753154344"><ele>0.16666666666666666</ele><time>2026-04-12T09:27:15Z</time></trkpt><trkpt lat="44.105522501538076" lon="9.827938742004935"><ele>0.3333333333333333</ele><time>2026-04-12T09:27:16Z</time></trkpt><trkpt lat="44.10558669577028" lon="9.828018627279814"><ele>0.5</ele><time>2026-04-12T09:27:17Z</time></trkpt><trkpt lat="44.10564201193822" lon="9.828086899057547"><ele>0.6666666666666666</ele><time>2026-04-12T09:27:18Z</time></trkpt><trkpt lat="44.10570651138852" lon="9.828167639729005"><ele>0.8333333333333333</ele><time>2026-04-12T09:27:20Z</time></trkpt><trkpt lat="44.10577090923155" lon="9.82823728436574"><ele>1.0</ele><time>2026-04-12T09:27:48.001Z</time></trkpt><trkpt lat="44.105869877537145" lon="9.828349126224726"><ele>1.0</ele><time>2026-04-12T09:27:50.001Z</time></trkpt><trkpt lat="44.1059401900945" lon="9.828438357383686"><ele>1.0</ele><time>2026-04-12T09:27:51.001Z</time></trkpt><trkpt lat="44.106010530553796" lon="9.828533594294406"><ele>1.0</ele><time>2026-04-12T09:27:52.001Z</time></trkpt><trkpt lat="44.10608996977121" lon="9.828630772426074"><ele>1.0</ele><time>2026-04-12T09:27:53.001Z</time></trkpt><trkpt lat="44.10616536379899" lon="9.828729414488746"><ele>1.0</ele><time>2026-04-12T09:27:54.001Z</time></trkpt><trkpt lat="44.106232793335224" lon="9.828813854470676"><ele>0.8333333333333333</ele><time>2026-04-12T09:27:55.001Z</time></trkpt><trkpt lat="44.10629622357912" lon="9.828889600437567"><ele>0.6666666666666666</ele><time>2026-04-12T09:27:56.001Z</time></trkpt><trkpt lat="44.10635024817702" lon="9.828954563177025"><ele>0.5</ele><time>2026-04-12T09:27:57.001Z</time></trkpt><trkpt lat="44.106398754059875" lon="9.829012901160798"><ele>0.3333333333333333</ele><time>2026-04-12T09:27:58.001Z</time></trkpt><trkpt lat="44.10647548576344" lon="9.829101324865267"><ele>0.16666666666666666</ele><time>2026-04-12T09:28:00.001Z</time></trkpt><trkpt lat="44.106532045555284" lon="9.829171085330866"><ele>0.0</ele><time>2026-04-12T09:28:03.001Z</time></trkpt><trkpt lat="44.10658287014984" lon="9.829242525468262"><ele>0.0</ele><time>2026-04-12T09:28:15.001Z</time></trkpt><trkpt lat="44.1066425085624" lon="9.829318822694422"><ele>0.0</ele><time>2026-04-12T09:28:16.001Z</time></trkpt><trkpt lat="44.106721138590196" lon="9.829412836237607"><ele>0.0</ele><time>2026-04-12T09:28:17.001Z</time></trkpt><trkpt lat="44.10680636454434" lon="9.829508620540814"><ele>0.0</ele><time>2026-04-12T09:28:18.001Z</time></trkpt><trkpt lat="44.106899083338305" lon="9.829619163766191"><ele>0.0</ele><time>2026-04-12T09:28:19.001Z</time></trkpt><trkpt lat="44.106997216440064" lon="9.829738863437173"><ele>0.0</ele><time>2026-04-12T09:28:20.001Z</time></trkpt><trkpt lat="44.10709838630318" lon="9.829861166798487"><ele>0.0</ele><time>2026-04-12T09:28:21Z</time></trkpt><trkpt lat="44.1072038811497" lon="9.829989697998968"><ele>0.0</ele><time>2026-04-12T09:28:22Z</time></trkpt><trkpt lat="44.10730352826454" lon="9.830109337987167"><ele>0.0</ele><time>2026-04-12T09:28:23Z</time></trkpt><trkpt lat="44.107399912695016" lon="9.830227320131876"><ele>0.75</ele><time>2026-04-12T09:28:24Z</time></trkpt><trkpt lat="44.10749414278106" lon="9.83034394785011"><ele>1.5</ele><time>2026-04-12T09:28:25Z</time></trkpt><trkpt lat="44.10758758160317" lon="9.830461754402199"><ele>2.25</ele><time>2026-04-12T09:28:26Z</time></trkpt><trkpt lat="44.10768417624416" lon="9.830584988475747"><ele>3.0</ele><time>2026-04-12T09:28:27Z</time></trkpt><trkpt lat="44.10778440781508" lon="9.830704247502991"><ele>3.0</ele><time>2026-04-12T09:28:28Z</time></trkpt><trkpt lat="44.1078836889414" lon="9.830829812275182"><ele>3.0</ele><time>2026-04-12T09:28:29Z</time></trkpt><trkpt lat="44.10799024511087" lon="9.830953549721952"><ele>3.0</ele><time>2026-04-12T09:28:30Z</time></trkpt><trkpt lat="44.10809514638165" lon="9.831078549206435"><ele>3.0</ele><time>2026-04-12T09:28:31Z</time></trkpt><trkpt lat="44.10820395306117" lon="9.831203614989299"><ele>3.25</ele><time>2026-04-12T09:28:32Z</time></trkpt><trkpt lat="44.108310153127405" lon="9.83133252651335"><ele>3.5</ele><time>2026-04-12T09:28:33Z</time></trkpt><trkpt lat="44.108413583220134" lon="9.831454078044866"><ele>3.75</ele><time>2026-04-12T09:28:34Z</time></trkpt><trkpt lat="44.108513885674526" lon="9.831583684052811"><ele>4.0</ele><time>2026-04-12T09:28:35Z</time></trkpt><trkpt lat="44.10861647778171" lon="9.831707215741066"><ele>3.5</ele><time>2026-04-12T09:28:36Z</time></trkpt><trkpt lat="44.108720918680234" lon="9.831839583728973"><ele>3.0</ele><time>2026-04-12T09:28:37Z</time></trkpt><trkpt lat="44.10882326329584" lon="9.831964703989735"><ele>2.5</ele><time>2026-04-12T09:28:38Z</time></trkpt><trkpt lat="44.10892653008173" lon="9.832087213062929"><ele>2.0</ele><time>2026-04-12T09:28:39Z</time></trkpt><trkpt lat="44.10902656456915" lon="9.832209391712194"><ele>2.25</ele><time>2026-04-12T09:28:40Z</time></trkpt><trkpt lat="44.10912642923464" lon="9.83233016850519"><ele>2.5</ele><time>2026-04-12T09:28:41Z</time></trkpt><trkpt lat="44.109219929366915" lon="9.832448517394509"><ele>2.75</ele><time>2026-04-12T09:28:42Z</time></trkpt><trkpt lat="44.10930193122354" lon="9.832543320704644"><ele>3.0</ele><time>2026-04-12T09:28:43Z</time></trkpt><trkpt lat="44.10937682279926" lon="9.832625513155488"><ele>3.0</ele><time>2026-04-12T09:28:44Z</time></trkpt><trkpt lat="44.10943510928739" lon="9.832696480407861"><ele>3.0</ele><time>2026-04-12T09:28:45Z</time></trkpt><trkpt lat="44.10949614494596" lon="9.832764546237"><ele>3.0</ele><time>2026-04-12T09:28:47Z</time></trkpt><trkpt lat="44.10964208140721" lon="9.832634475526604"><ele>3.0</ele><time>2026-04-12T09:29:06Z</time></trkpt><trkpt lat="44.109688261760155" lon="9.832542815959343"><ele>3.0</ele><time>2026-04-12T09:29:07Z</time></trkpt><trkpt lat="44.109748356811" lon="9.832475669281177"><ele>3.0</ele><time>2026-04-12T09:29:08Z</time></trkpt><trkpt lat="44.10980256922554" lon="9.83240346848175"><ele>3.0</ele><time>2026-04-12T09:29:09Z</time></trkpt><trkpt lat="44.109868801124634" lon="9.83228215096395"><ele>3.0</ele><time>2026-04-12T09:29:11Z</time></trkpt><trkpt lat="44.10992124972236" lon="9.83218957074243"><ele>3.0</ele><time>2026-04-12T09:29:25.001Z</time></trkpt><trkpt lat="44.11002902289094" lon="9.832248234453685"><ele>3.0</ele><time>2026-04-12T09:29:27.001Z</time></trkpt><trkpt lat="44.110086909952685" lon="9.832327753356743"><ele>3.666666666666667</ele><time>2026-04-12T09:29:28.001Z</time></trkpt><trkpt lat="44.110149373279256" lon="9.83240456615911"><ele>4.333333333333334</ele><time>2026-04-12T09:29:29.001Z</time></trkpt><trkpt lat="44.11021403903266" lon="9.832477511334298"><ele>5.0</ele><time>2026-04-12T09:29:30.001Z</time></trkpt><trkpt lat="44.11029117650336" lon="9.83255593981817"><ele>5.666666666666667</ele><time>2026-04-12T09:29:31.001Z</time></trkpt><trkpt lat="44.11036782501384" lon="9.832641232510904"><ele>6.333333333333334</ele><time>2026-04-12T09:29:32.001Z</time></trkpt><trkpt lat="44.11042934004835" lon="9.832729129508873"><ele>7.0</ele><time>2026-04-12T09:29:33.001Z</time></trkpt><trkpt lat="44.110496760928264" lon="9.832820028929605"><ele>7.000000000000001</ele><time>2026-04-12T09:29:34.001Z</time></trkpt><trkpt lat="44.110570663031396" lon="9.832886929724241"><ele>7.0</ele><time>2026-04-12T09:29:35.001Z</time></trkpt><trkpt lat="44.11062787447753" lon="9.83297736458328"><ele>7.0</ele><time>2026-04-12T09:29:36.001Z</time></trkpt><trkpt lat="44.11067523467283" lon="9.833056782821025"><ele>7.0</ele><time>2026-04-12T09:29:37.001Z</time></trkpt><trkpt lat="44.11075473980204" lon="9.833156922014096"><ele>7.000000000000001</ele><time>2026-04-12T09:29:39.001Z</time></trkpt><trkpt lat="44.11081138090151" lon="9.833220651213137"><ele>7.0</ele><time>2026-04-12T09:29:41.001Z</time></trkpt><trkpt lat="44.1108988922677" lon="9.833343889502816"><ele>7.833333333333334</ele><time>2026-04-12T09:30:37Z</time></trkpt><trkpt lat="44.11095913382654" lon="9.833386642524392"><ele>8.666666666666668</ele><time>2026-04-12T09:30:39Z</time></trkpt><trkpt lat="44.11103552093434" lon="9.833308492736922"><ele>9.5</ele><time>2026-04-12T09:30:40Z</time></trkpt><trkpt lat="44.11109159035101" lon="9.833223494023708"><ele>10.333333333333334</ele><time>2026-04-12T09:30:41Z</time></trkpt><trkpt lat="44.111142993950295" lon="9.83314556896137"><ele>11.166666666666666</ele><time>2026-04-12T09:30:42Z</time></trkpt><trkpt lat="44.111206804664384" lon="9.83304883518714"><ele>12.0</ele><time>2026-04-12T09:30:43Z</time></trkpt><trkpt lat="44.111266985142024" lon="9.83294294494897"><ele>12.0</ele><time>2026-04-12T09:30:44Z</time></trkpt><trkpt lat="44.111326115785964" lon="9.83285071334925"><ele>12.0</ele><time>2026-04-12T09:30:45Z</time></trkpt><trkpt lat="44.111375960686985" lon="9.8327780991845"><ele>12.0</ele><time>2026-04-12T09:30:46Z</time></trkpt><trkpt lat="44.11143256629012" lon="9.832665024885419"><ele>12.0</ele><time>2026-04-12T09:30:48Z</time></trkpt><trkpt lat="44.11149365221241" lon="9.8325989907815"><ele>12.0</ele><time>2026-04-12T09:31:04Z</time></trkpt><trkpt lat="44.111541916336904" lon="9.832523659397937"><ele>12.0</ele><time>2026-04-12T09:31:06.001Z</time></trkpt><trkpt lat="44.111521078900424" lon="9.832351759328732"><ele>12.2</ele><time>2026-04-12T09:31:07.001Z</time></trkpt><trkpt lat="44.11145369045544" lon="9.832268886395248"><ele>12.399999999999999</ele><time>2026-04-12T09:31:08.001Z</time></trkpt><trkpt lat="44.11137096502044" lon="9.832167339629379"><ele>12.600000000000001</ele><time>2026-04-12T09:31:09.001Z</time></trkpt><trkpt lat="44.11127739706046" lon="9.832075874285156"><ele>12.8</ele><time>2026-04-12T09:31:10.001Z</time></trkpt><trkpt lat="44.11119825584612" lon="9.831961600762664"><ele>13.0</ele><time>2026-04-12T09:31:11.001Z</time></trkpt><trkpt lat="44.111120266809465" lon="9.831860845035406"><ele>12.0</ele><time>2026-04-12T09:31:12.001Z</time></trkpt><trkpt lat="44.111049333557666" lon="9.831771947463373"><ele>11.0</ele><time>2026-04-12T09:31:13.001Z</time></trkpt><trkpt lat="44.110985545864516" lon="9.831689526681574"><ele>10.0</ele><time>2026-04-12T09:31:14.001Z</time></trkpt><trkpt lat="44.110928200390404" lon="9.83160833336091"><ele>9.0</ele><time>2026-04-12T09:31:15.001Z</time></trkpt><trkpt lat="44.11086689887459" lon="9.831519046254341"><ele>8.0</ele><time>2026-04-12T09:31:16.001Z</time></trkpt><trkpt lat="44.1107972735323" lon="9.831422214274705"><ele>9.75</ele><time>2026-04-12T09:31:17.001Z</time></trkpt><trkpt lat="44.11073216530567" lon="9.831333330513182"><ele>11.5</ele><time>2026-04-12T09:31:18.001Z</time></trkpt><trkpt lat="44.11066645436269" lon="9.831284057866718"><ele>13.25</ele><time>2026-04-12T09:31:19.001Z</time></trkpt><trkpt lat="44.110588360893196" lon="9.831194880544894"><ele>15.0</ele><time>2026-04-12T09:31:21.001Z</time></trkpt><trkpt lat="44.11071413555588" lon="9.830947205535916"><ele>14.166666666666666</ele><time>2026-04-12T09:31:23.001Z</time></trkpt><trkpt lat="44.110771102918356" lon="9.830880310109773"><ele>13.333333333333334</ele><time>2026-04-12T09:31:24.001Z</time></trkpt><trkpt lat="44.11080803979237" lon="9.830799847977797"><ele>12.5</ele><time>2026-04-12T09:31:25.001Z</time></trkpt><trkpt lat="44.11080424938894" lon="9.830694026351777"><ele>11.666666666666668</ele><time>2026-04-12T09:31:26.001Z</time></trkpt><trkpt lat="44.11077782635219" lon="9.830578759769486"><ele>10.833333333333334</ele><time>2026-04-12T09:31:27.001Z</time></trkpt><trkpt lat="44.110752818428935" lon="9.830461356779303"><ele>10.0</ele><time>2026-04-12T09:31:28.001Z</time></trkpt><trkpt lat="44.11072458240675" lon="9.830341251527747"><ele>10.666666666666668</ele><time>2026-04-12T09:31:29.001Z</time></trkpt><trkpt lat="44.11070099659092" lon="9.830229357102759"><ele>11.333333333333334</ele><time>2026-04-12T09:31:30.001Z</time></trkpt><trkpt lat="44.110679184449104" lon="9.830131894347977"><ele>12.0</ele><time>2026-04-12T09:31:31.001Z</time></trkpt><trkpt lat="44.11065731130705" lon="9.830026581848331"><ele>12.666666666666668</ele><time>2026-04-12T09:31:32.001Z</time></trkpt><trkpt lat="44.11063231507521" lon="9.829911091366196"><ele>13.333333333333334</ele><time>2026-04-12T09:31:33.001Z</time></trkpt><trkpt lat="44.11060455587935" lon="9.829787683574219"><ele>14.0</ele><time>2026-04-12T09:31:34.001Z</time></trkpt><trkpt lat="44.11057209357729" lon="9.829661872891414"><ele>14.0</ele><time>2026-04-12T09:31:35.001Z</time></trkpt><trkpt lat="44.110543780067694" lon="9.829529724816659"><ele>13.999999999999998</ele><time>2026-04-12T09:31:36.001Z</time></trkpt><trkpt lat="44.11051883056468" lon="9.829396943281493"><ele>13.999999999999998</ele><time>2026-04-12T09:31:37.001Z</time></trkpt><trkpt lat="44.110496419783374" lon="9.829263720343965"><ele>14.0</ele><time>2026-04-12T09:31:38.001Z</time></trkpt><trkpt lat="44.11047037702314" lon="9.829129126131068"><ele>14.0</ele><time>2026-04-12T09:31:39.001Z</time></trkpt><trkpt lat="44.110444041957436" lon="9.828995227377632"><ele>13.333333333333334</ele><time>2026-04-12T09:31:40.001Z</time></trkpt><trkpt lat="44.1104170782337" lon="9.828858370474393"><ele>12.666666666666668</ele><time>2026-04-12T09:31:41.001Z</time></trkpt><trkpt lat="44.11038903583875" lon="9.82872810258358"><ele>12.0</ele><time>2026-04-12T09:31:42.001Z</time></trkpt><trkpt lat="44.11036299929689" lon="9.828612042186606"><ele>11.333333333333334</ele><time>2026-04-12T09:31:43.001Z</time></trkpt><trkpt lat="44.11033766984413" lon="9.828502991574979"><ele>10.666666666666668</ele><time>2026-04-12T09:31:44.001Z</time></trkpt><trkpt lat="44.110316927422616" lon="9.828395074238394"><ele>10.0</ele><time>2026-04-12T09:31:45.001Z</time></trkpt><trkpt lat="44.11029485522949" lon="9.828290162622444"><ele>9.5</ele><time>2026-04-12T09:31:46.001Z</time></trkpt><trkpt lat="44.11027008306612" lon="9.828197378801615"><ele>9.0</ele><time>2026-04-12T09:31:47.001Z</time></trkpt><trkpt lat="44.110250322627856" lon="9.82810567740009"><ele>8.5</ele><time>2026-04-12T09:31:48.001Z</time></trkpt><trkpt lat="44.110234640497815" lon="9.828017370360618"><ele>8.0</ele><time>2026-04-12T09:31:49.001Z</time></trkpt><trkpt lat="44.11021174433486" lon="9.82786560827561"><ele>7.500000000000001</ele><time>2026-04-12T09:31:51.001Z</time></trkpt><trkpt lat="44.11018662342568" lon="9.827734806766985"><ele>7.0</ele><time>2026-04-12T09:31:53.001Z</time></trkpt><trkpt lat="44.11019297493841" lon="9.827560606553558"><ele>8.0</ele><time>2026-04-12T09:31:55.001Z</time></trkpt><trkpt lat="44.110204803151284" lon="9.827451077920037"><ele>9.0</ele><time>2026-04-12T09:31:56.001Z</time></trkpt><trkpt lat="44.110268574194464" lon="9.827362276480981"><ele>10.0</ele><time>2026-04-12T09:31:57.001Z</time></trkpt><trkpt lat="44.11031865452639" lon="9.827262892029564"><ele>11.0</ele><time>2026-04-12T09:31:58.001Z</time></trkpt><trkpt lat="44.110363418116066" lon="9.827168255993948"><ele>11.999999999999998</ele><time>2026-04-12T09:31:59.001Z</time></trkpt><trkpt lat="44.110395717846934" lon="9.827078455939425"><ele>13.0</ele><time>2026-04-12T09:32:00.001Z</time></trkpt><trkpt lat="44.11041965208723" lon="9.826981777993785"><ele>12.999999999999998</ele><time>2026-04-12T09:32:01.001Z</time></trkpt><trkpt lat="44.11044049709439" lon="9.826873806701443"><ele>13.0</ele><time>2026-04-12T09:32:02.001Z</time></trkpt><trkpt lat="44.11046074212427" lon="9.826768228544893"><ele>13.0</ele><time>2026-04-12T09:32:03.001Z</time></trkpt><trkpt lat="44.11047747908155" lon="9.826670154131003"><ele>13.0</ele><time>2026-04-12T09:32:04.001Z</time></trkpt><trkpt lat="44.11050377577672" lon="9.826511131325072"><ele>12.999999999999998</ele><time>2026-04-12T09:32:06.001Z</time></trkpt><trkpt lat="44.110539748503115" lon="9.826391732235507"><ele>13.0</ele><time>2026-04-12T09:32:08.001Z</time></trkpt><trkpt lat="44.110585760828016" lon="9.82625485874599"><ele>14.2</ele><time>2026-04-12T09:32:10.001Z</time></trkpt><trkpt lat="44.110602794717266" lon="9.826090968118832"><ele>15.4</ele><time>2026-04-12T09:32:12.001Z</time></trkpt><trkpt lat="44.11051855224833" lon="9.825971896822416"><ele>16.599999999999998</ele><time>2026-04-12T09:32:14.001Z</time></trkpt><trkpt lat="44.110475957338586" lon="9.825877317979232"><ele>17.8</ele><time>2026-04-12T09:32:15.001Z</time></trkpt><trkpt lat="44.11041348463783" lon="9.825803282447511"><ele>19.0</ele><time>2026-04-12T09:32:16.001Z</time></trkpt><trkpt lat="44.11037559178341" lon="9.825682120823997"><ele>19.799999999999997</ele><time>2026-04-12T09:32:17.001Z</time></trkpt><trkpt lat="44.11034164270119" lon="9.825546515837537"><ele>20.599999999999998</ele><time>2026-04-12T09:32:18.001Z</time></trkpt><trkpt lat="44.11031874354318" lon="9.825402156985827"><ele>21.4</ele><time>2026-04-12T09:32:19.001Z</time></trkpt><trkpt lat="44.1102968310567" lon="9.825261019081928"><ele>22.2</ele><time>2026-04-12T09:32:20.001Z</time></trkpt><trkpt lat="44.110269713832984" lon="9.825121494797749"><ele>23.0</ele><time>2026-04-12T09:32:21.001Z</time></trkpt><trkpt lat="44.11024406488866" lon="9.82498341646581"><ele>24.0</ele><time>2026-04-12T09:32:22.001Z</time></trkpt><trkpt lat="44.11021380668446" lon="9.824837250089518"><ele>25.0</ele><time>2026-04-12T09:32:23.002Z</time></trkpt><trkpt lat="44.11018392179822" lon="9.824681442455285"><ele>26.0</ele><time>2026-04-12T09:32:24.002Z</time></trkpt><trkpt lat="44.11015638036554" lon="9.824519690914583"><ele>27.0</ele><time>2026-04-12T09:32:25.002Z</time></trkpt><trkpt lat="44.110130573043726" lon="9.824339742079296"><ele>28.75</ele><time>2026-04-12T09:32:26.002Z</time></trkpt><trkpt lat="44.11010703436265" lon="9.82417006614641"><ele>30.5</ele><time>2026-04-12T09:32:27.002Z</time></trkpt><trkpt lat="44.11008454141537" lon="9.82399562544217"><ele>32.25</ele><time>2026-04-12T09:32:28.002Z</time></trkpt><trkpt lat="44.110091036382826" lon="9.823809976689274"><ele>34.0</ele><time>2026-04-12T09:32:29.002Z</time></trkpt><trkpt lat="44.11007629751996" lon="9.82363434734027"><ele>36.5</ele><time>2026-04-12T09:32:30.002Z</time></trkpt><trkpt lat="44.11006090264282" lon="9.823459536058971"><ele>39.0</ele><time>2026-04-12T09:32:31.002Z</time></trkpt><trkpt lat="44.11004436197913" lon="9.823281062254987"><ele>41.5</ele><time>2026-04-12T09:32:32.002Z</time></trkpt><trkpt lat="44.11002350012104" lon="9.823104912520659"><ele>44.0</ele><time>2026-04-12T09:32:33Z</time></trkpt><trkpt lat="44.11000983047208" lon="9.822915151758716"><ele>44.0</ele><time>2026-04-12T09:32:34Z</time></trkpt><trkpt lat="44.109993364988654" lon="9.822731656485713"><ele>44.0</ele><time>2026-04-12T09:32:35.014Z</time></trkpt><trkpt lat="44.10997990827332" lon="9.82255480588153"><ele>44.0</ele><time>2026-04-12T09:32:36.012Z</time></trkpt><trkpt lat="44.10966066622923" lon="9.820513881013738"><ele>45.5</ele><time>2026-04-12T09:32:39.35Z</time></trkpt><trkpt lat="44.10958684406727" lon="9.819897306949219"><ele>47.0</ele><time>2026-04-12T09:32:40.351Z</time></trkpt><trkpt lat="44.109512642354225" lon="9.81928216008944"><ele>39.0</ele><time>2026-04-12T09:32:41.35Z</time></trkpt><trkpt lat="44.10941220342723" lon="9.81867243153836"><ele>31.0</ele><time>2026-04-12T09:32:42.349Z</time></trkpt><trkpt lat="44.10918137367468" lon="9.818130961654703"><ele>20.0</ele><time>2026-04-12T09:32:43.352Z</time></trkpt><trkpt lat="44.11004793643067" lon="9.816851046931147"><ele>18.5</ele><time>2026-04-12T09:32:54.183Z</time></trkpt><trkpt lat="44.10966541698514" lon="9.817116820858947"><ele>17.0</ele><time>2026-04-12T09:32:55.313Z</time></trkpt><trkpt lat="44.10893982280428" lon="9.817543057733976"><ele>17.0</ele><time>2026-04-12T09:33:02Z</time></trkpt><trkpt lat="44.1089975639436" lon="9.81765255511654"><ele>17.0</ele><time>2026-04-12T09:33:04Z</time></trkpt><trkpt lat="44.10903455022037" lon="9.817741883418746"><ele>17.0</ele><time>2026-04-12T09:33:06Z</time></trkpt><trkpt lat="44.109088355743836" lon="9.817834689382186"><ele>17.0</ele><time>2026-04-12T09:33:11Z</time></trkpt><trkpt lat="44.10913497066331" lon="9.817917696697144"><ele>17.0</ele><time>2026-04-12T09:33:12Z</time></trkpt><trkpt lat="44.109118790054204" lon="9.817825867007931"><ele>17.0</ele><time>2026-04-12T09:33:20.001Z</time></trkpt><trkpt lat="44.109401928946205" lon="9.817515874395694"><ele>17.0</ele><time>2026-04-12T09:33:22.001Z</time></trkpt><trkpt lat="44.10945130871314" lon="9.817433346146096"><ele>17.0</ele><time>2026-04-12T09:33:23.001Z</time></trkpt><trkpt lat="44.10949591214225" lon="9.817343342932734"><ele>17.0</ele><time>2026-04-12T09:33:24.001Z</time></trkpt><trkpt lat="44.10955325077418" lon="9.817257890856329"><ele>17.0</ele><time>2026-04-12T09:33:25.001Z</time></trkpt><trkpt lat="44.10961144675697" lon="9.817169785817445"><ele>17.0</ele><time>2026-04-12T09:33:26.001Z</time></trkpt><trkpt lat="44.10966997290499" lon="9.817077754565613"><ele>17.0</ele><time>2026-04-12T09:33:27.001Z</time></trkpt><trkpt lat="44.10971124827694" lon="9.816962876033084"><ele>17.0</ele><time>2026-04-12T09:33:28.001Z</time></trkpt><trkpt lat="44.10975896926389" lon="9.816866873526406"><ele>17.0</ele><time>2026-04-12T09:33:29.001Z</time></trkpt><trkpt lat="44.10974423158535" lon="9.816772133587955"><ele>17.0</ele><time>2026-04-12T09:33:56.001Z</time></trkpt><trkpt lat="44.10980571165462" lon="9.816659198122608"><ele>17.0</ele><time>2026-04-12T09:33:58.001Z</time></trkpt><trkpt lat="44.1098832807377" lon="9.816630711077048"><ele>17.0</ele><time>2026-04-12T09:33:59.001Z</time></trkpt><trkpt lat="44.10992347744462" lon="9.816557914584404"><ele>17.0</ele><time>2026-04-12T09:34:00.001Z</time></trkpt><trkpt lat="44.109960590122974" lon="9.81648404002123"><ele>16.5</ele><time>2026-04-12T09:34:01.001Z</time></trkpt><trkpt lat="44.110024368458255" lon="9.816347866742428"><ele>16.0</ele><time>2026-04-12T09:34:03.001Z</time></trkpt><trkpt lat="44.11008314598649" lon="9.816220905113871"><ele>15.5</ele><time>2026-04-12T09:34:05.001Z</time></trkpt><trkpt lat="44.110075361356486" lon="9.815987495702924"><ele>15.0</ele><time>2026-04-12T09:34:08.001Z</time></trkpt><trkpt lat="44.1100647529496" lon="9.815888483153481"><ele>15.0</ele><time>2026-04-12T09:34:09.001Z</time></trkpt><trkpt lat="44.110042746922154" lon="9.815794531248754"><ele>15.0</ele><time>2026-04-12T09:34:10.001Z</time></trkpt><trkpt lat="44.110031495863566" lon="9.815702938531551"><ele>15.0</ele><time>2026-04-12T09:34:11.001Z</time></trkpt><trkpt lat="44.11004091710098" lon="9.815600798547313"><ele>15.0</ele><time>2026-04-12T09:34:12.001Z</time></trkpt><trkpt lat="44.11007213900963" lon="9.815496809418251"><ele>15.0</ele><time>2026-04-12T09:34:13.001Z</time></trkpt><trkpt lat="44.11009253878857" lon="9.815412028070751"><ele>15.0</ele><time>2026-04-12T09:34:19.001Z</time></trkpt><trkpt lat="44.11017083043178" lon="9.815267328642038"><ele>14.8</ele><time>2026-04-12T09:34:21.001Z</time></trkpt><trkpt lat="44.1102129812258" lon="9.815152052690701"><ele>14.6</ele><time>2026-04-12T09:34:22.001Z</time></trkpt><trkpt lat="44.11026022177431" lon="9.815037408919887"><ele>14.399999999999999</ele><time>2026-04-12T09:34:23.001Z</time></trkpt><trkpt lat="44.110312585358166" lon="9.814910167395213"><ele>14.2</ele><time>2026-04-12T09:34:24.001Z</time></trkpt><trkpt lat="44.11036325555608" lon="9.814780323421424"><ele>14.0</ele><time>2026-04-12T09:34:25.001Z</time></trkpt><trkpt lat="44.110409512118906" lon="9.814659703812557"><ele>14.0</ele><time>2026-04-12T09:34:26.001Z</time></trkpt><trkpt lat="44.110464827013296" lon="9.814540279132952"><ele>13.999999999999998</ele><time>2026-04-12T09:34:27.001Z</time></trkpt><trkpt lat="44.11052058297711" lon="9.814406472862288"><ele>13.999999999999998</ele><time>2026-04-12T09:34:28.001Z</time></trkpt><trkpt lat="44.110585867138184" lon="9.814287512488251"><ele>14.0</ele><time>2026-04-12T09:34:29.001Z</time></trkpt><trkpt lat="44.11063284055417" lon="9.814147224106357"><ele>14.0</ele><time>2026-04-12T09:34:30.001Z</time></trkpt><trkpt lat="44.11069096578273" lon="9.814012925752587"><ele>14.0</ele><time>2026-04-12T09:34:31.001Z</time></trkpt><trkpt lat="44.110742007829145" lon="9.81387682884976"><ele>13.999999999999998</ele><time>2026-04-12T09:34:32.001Z</time></trkpt><trkpt lat="44.11079627645308" lon="9.813746273936653"><ele>13.999999999999998</ele><time>2026-04-12T09:34:33.001Z</time></trkpt><trkpt lat="44.11085183074689" lon="9.81361834847824"><ele>14.0</ele><time>2026-04-12T09:34:34.001Z</time></trkpt><trkpt lat="44.11090743457023" lon="9.813480360717092"><ele>14.0</ele><time>2026-04-12T09:34:35.001Z</time></trkpt><trkpt lat="44.11096098484514" lon="9.813342975834864"><ele>14.0</ele><time>2026-04-12T09:34:36.001Z</time></trkpt><trkpt lat="44.11101456550575" lon="9.81320583414299"><ele>13.999999999999998</ele><time>2026-04-12T09:34:37.001Z</time></trkpt><trkpt lat="44.111073078439595" lon="9.813069359895252"><ele>13.999999999999998</ele><time>2026-04-12T09:34:38.002Z</time></trkpt><trkpt lat="44.11112726719564" lon="9.81293500002545"><ele>14.0</ele><time>2026-04-12T09:34:39Z</time></trkpt><trkpt lat="44.11119042115977" lon="9.812817958002295"><ele>14.0</ele><time>2026-04-12T09:34:40Z</time></trkpt><trkpt lat="44.11123956256898" lon="9.812688636853581"><ele>13.25</ele><time>2026-04-12T09:34:41Z</time></trkpt><trkpt lat="44.11128579121691" lon="9.812552144704304"><ele>12.5</ele><time>2026-04-12T09:34:42Z</time></trkpt><trkpt lat="44.11133865086968" lon="9.812415933000716"><ele>11.75</ele><time>2026-04-12T09:34:43Z</time></trkpt><trkpt lat="44.11140526566993" lon="9.812266692316856"><ele>11.0</ele><time>2026-04-12T09:34:44Z</time></trkpt><trkpt lat="44.11146792085989" lon="9.812121585099051"><ele>11.0</ele><time>2026-04-12T09:34:45Z</time></trkpt><trkpt lat="44.111529630694356" lon="9.811971741417642"><ele>11.0</ele><time>2026-04-12T09:34:46Z</time></trkpt><trkpt lat="44.11159956586968" lon="9.81181936780799"><ele>11.0</ele><time>2026-04-12T09:34:47Z</time></trkpt><trkpt lat="44.11166643996724" lon="9.811676533030148"><ele>11.0</ele><time>2026-04-12T09:34:48Z</time></trkpt><trkpt lat="44.111728488994515" lon="9.811555337725073"><ele>11.200000000000001</ele><time>2026-04-12T09:34:49Z</time></trkpt><trkpt lat="44.111793256436876" lon="9.81145829940795"><ele>11.4</ele><time>2026-04-12T09:34:50Z</time></trkpt><trkpt lat="44.111864583118944" lon="9.811367894392783"><ele>11.6</ele><time>2026-04-12T09:34:51Z</time></trkpt><trkpt lat="44.11192392451643" lon="9.81130122125297"><ele>11.8</ele><time>2026-04-12T09:34:52Z</time></trkpt><trkpt lat="44.11202043537479" lon="9.8112026870824"><ele>12.0</ele><time>2026-04-12T09:34:54Z</time></trkpt><trkpt lat="44.112080887030146" lon="9.811168755748673"><ele>12.0</ele><time>2026-04-12T09:34:56Z</time></trkpt><trkpt lat="44.11205214967077" lon="9.81101302196425"><ele>12.0</ele><time>2026-04-12T09:35:04Z</time></trkpt><trkpt lat="44.11199000146343" lon="9.810937004975111"><ele>12.0</ele><time>2026-04-12T09:35:05Z</time></trkpt><trkpt lat="44.11192502154269" lon="9.810870323752349"><ele>12.0</ele><time>2026-04-12T09:35:06Z</time></trkpt><trkpt lat="44.11187422407053" lon="9.810814496460653"><ele>12.0</ele><time>2026-04-12T09:35:07Z</time></trkpt><trkpt lat="44.11181672606766" lon="9.810750560620061"><ele>12.0</ele><time>2026-04-12T09:35:09Z</time></trkpt><trkpt lat="44.111748955548265" lon="9.810653976526108"><ele>12.0</ele><time>2026-04-12T09:35:13Z</time></trkpt><trkpt lat="44.11167752677444" lon="9.8105698755661"><ele>12.0</ele><time>2026-04-12T09:35:15Z</time></trkpt><trkpt lat="44.11162179107023" lon="9.810490240027903"><ele>12.0</ele><time>2026-04-12T09:35:17Z</time></trkpt><trkpt lat="44.11152902900971" lon="9.810375901488486"><ele>12.0</ele><time>2026-04-12T09:35:19Z</time></trkpt><trkpt lat="44.11146019193468" lon="9.810309846644843"><ele>12.0</ele><time>2026-04-12T09:35:20Z</time></trkpt><trkpt lat="44.11138963333011" lon="9.810244896584875"><ele>12.0</ele><time>2026-04-12T09:35:21Z</time></trkpt><trkpt lat="44.11132618784887" lon="9.81017602601196"><ele>12.0</ele><time>2026-04-12T09:35:22Z</time></trkpt><trkpt lat="44.11126598844762" lon="9.810111154011711"><ele>12.0</ele><time>2026-04-12T09:35:23Z</time></trkpt><trkpt lat="44.111196495861904" lon="9.810028315087125"><ele>12.0</ele><time>2026-04-12T09:35:24Z</time></trkpt><trkpt lat="44.11112109501842" lon="9.809954997319005"><ele>12.0</ele><time>2026-04-12T09:35:25Z</time></trkpt><trkpt lat="44.111048029705046" lon="9.809884473099984"><ele>12.0</ele><time>2026-04-12T09:35:26Z</time></trkpt><trkpt lat="44.11098191683609" lon="9.809820003212666"><ele>12.0</ele><time>2026-04-12T09:35:27Z</time></trkpt><trkpt lat="44.11089551377779" lon="9.809717363967385"><ele>12.0</ele><time>2026-04-12T09:35:29Z</time></trkpt><trkpt lat="44.11081769292086" lon="9.809632525274242"><ele>12.0</ele><time>2026-04-12T09:35:31.001Z</time></trkpt><trkpt lat="44.110759804874554" lon="9.809569014979322"><ele>12.0</ele><time>2026-04-12T09:35:32.001Z</time></trkpt><trkpt lat="44.11068471083518" lon="9.809496348547164"><ele>12.0</ele><time>2026-04-12T09:35:33.001Z</time></trkpt><trkpt lat="44.110617211036995" lon="9.809410027785288"><ele>12.0</ele><time>2026-04-12T09:35:34.001Z</time></trkpt><trkpt lat="44.11055254996454" lon="9.809337274417292"><ele>12.0</ele><time>2026-04-12T09:35:35.001Z</time></trkpt><trkpt lat="44.11048593966311" lon="9.80925995102255"><ele>12.0</ele><time>2026-04-12T09:35:36.001Z</time></trkpt><trkpt lat="44.110411227465455" lon="9.809171957597282"><ele>12.0</ele><time>2026-04-12T09:35:37.001Z</time></trkpt><trkpt lat="44.110331296824036" lon="9.809085940704925"><ele>12.0</ele><time>2026-04-12T09:35:38.001Z</time></trkpt><trkpt lat="44.11025576484007" lon="9.808994971903125"><ele>11.833333333333334</ele><time>2026-04-12T09:35:39.001Z</time></trkpt><trkpt lat="44.11017935859961" lon="9.808914683538918"><ele>11.666666666666666</ele><time>2026-04-12T09:35:40.001Z</time></trkpt><trkpt lat="44.1101150697811" lon="9.808833314742145"><ele>11.5</ele><time>2026-04-12T09:35:41.001Z</time></trkpt><trkpt lat="44.11004745961987" lon="9.808760627444409"><ele>11.333333333333332</ele><time>2026-04-12T09:35:42.001Z</time></trkpt><trkpt lat="44.10998472459269" lon="9.808689560847874"><ele>11.166666666666666</ele><time>2026-04-12T09:35:43.001Z</time></trkpt><trkpt lat="44.10992425296365" lon="9.808612214239057"><ele>11.0</ele><time>2026-04-12T09:35:44.001Z</time></trkpt><trkpt lat="44.10987019917912" lon="9.80854593833904"><ele>11.0</ele><time>2026-04-12T09:35:45.001Z</time></trkpt><trkpt lat="44.10980793044987" lon="9.8084915020508"><ele>11.0</ele><time>2026-04-12T09:35:46.001Z</time></trkpt><trkpt lat="44.10974719961796" lon="9.808434367064976"><ele>11.0</ele><time>2026-04-12T09:35:47.001Z</time></trkpt><trkpt lat="44.109693786471944" lon="9.808363653347188"><ele>11.0</ele><time>2026-04-12T09:35:48.001Z</time></trkpt><trkpt lat="44.10963679504219" lon="9.808291110700575"><ele>11.0</ele><time>2026-04-12T09:35:49.001Z</time></trkpt><trkpt lat="44.10957560041741" lon="9.808220648007373"><ele>11.0</ele><time>2026-04-12T09:35:50.001Z</time></trkpt><trkpt lat="44.1095123227234" lon="9.80814284698583"><ele>11.0</ele><time>2026-04-12T09:35:51.001Z</time></trkpt><trkpt lat="44.109457700466336" lon="9.808068229141393"><ele>11.0</ele><time>2026-04-12T09:35:52.001Z</time></trkpt><trkpt lat="44.109395971969406" lon="9.808017780114882"><ele>11.0</ele><time>2026-04-12T09:35:53.001Z</time></trkpt><trkpt lat="44.10933824823377" lon="9.807965667618241"><ele>11.0</ele><time>2026-04-12T09:35:54.001Z</time></trkpt><trkpt lat="44.109279613351596" lon="9.807898837397293"><ele>11.0</ele><time>2026-04-12T09:35:55.001Z</time></trkpt><trkpt lat="44.10921427345944" lon="9.807819625057444"><ele>11.0</ele><time>2026-04-12T09:35:56.001Z</time></trkpt><trkpt lat="44.10913544002901" lon="9.807739183727508"><ele>11.200000000000001</ele><time>2026-04-12T09:35:57.001Z</time></trkpt><trkpt lat="44.1090793451981" lon="9.807620897923066"><ele>11.4</ele><time>2026-04-12T09:35:58.001Z</time></trkpt><trkpt lat="44.10900386966088" lon="9.807538062579715"><ele>11.6</ele><time>2026-04-12T09:35:59.001Z</time></trkpt><trkpt lat="44.108946358457835" lon="9.807444027251154"><ele>11.8</ele><time>2026-04-12T09:36:00.001Z</time></trkpt><trkpt lat="44.108880908535966" lon="9.807369278406938"><ele>12.0</ele><time>2026-04-12T09:36:01.001Z</time></trkpt><trkpt lat="44.10881823033395" lon="9.807300149292676"><ele>11.666666666666666</ele><time>2026-04-12T09:36:02.001Z</time></trkpt><trkpt lat="44.10876123451449" lon="9.807237287390775"><ele>11.333333333333334</ele><time>2026-04-12T09:36:03.001Z</time></trkpt><trkpt lat="44.10871104089766" lon="9.807181927762446"><ele>11.0</ele><time>2026-04-12T09:36:04.001Z</time></trkpt><trkpt lat="44.10861951859524" lon="9.807103258299778"><ele>10.666666666666668</ele><time>2026-04-12T09:36:06.001Z</time></trkpt><trkpt lat="44.10853878033805" lon="9.807012280876085"><ele>10.333333333333334</ele><time>2026-04-12T09:36:08.001Z</time></trkpt><trkpt lat="44.10848693677967" lon="9.80696015196594"><ele>10.0</ele><time>2026-04-12T09:36:09.001Z</time></trkpt><trkpt lat="44.10840319306914" lon="9.80683639523831"><ele>10.333333333333334</ele><time>2026-04-12T09:36:11.001Z</time></trkpt><trkpt lat="44.108361319285684" lon="9.806692037344419"><ele>10.666666666666668</ele><time>2026-04-12T09:36:13.001Z</time></trkpt><trkpt lat="44.108371367828305" lon="9.806601548909367"><ele>11.0</ele><time>2026-04-12T09:36:14.001Z</time></trkpt><trkpt lat="44.10837156309967" lon="9.806509756616837"><ele>11.333333333333334</ele><time>2026-04-12T09:36:15.001Z</time></trkpt><trkpt lat="44.10828852854112" lon="9.806431421489233"><ele>11.666666666666666</ele><time>2026-04-12T09:36:17.001Z</time></trkpt><trkpt lat="44.10821942020201" lon="9.80645182456023"><ele>12.0</ele><time>2026-04-12T09:36:18.001Z</time></trkpt><trkpt lat="44.108139530359786" lon="9.806468305667508"><ele>12.0</ele><time>2026-04-12T09:36:19.001Z</time></trkpt><trkpt lat="44.10804979791634" lon="9.806434433193386"><ele>12.0</ele><time>2026-04-12T09:36:20.001Z</time></trkpt><trkpt lat="44.10796140262092" lon="9.80637221716821"><ele>12.0</ele><time>2026-04-12T09:36:21.001Z</time></trkpt><trkpt lat="44.10786930369201" lon="9.806272817588535"><ele>12.0</ele><time>2026-04-12T09:36:22.001Z</time></trkpt><trkpt lat="44.107777627456635" lon="9.806159271888012"><ele>12.0</ele><time>2026-04-12T09:36:23.001Z</time></trkpt><trkpt lat="44.10769129136537" lon="9.806053751029584"><ele>12.6</ele><time>2026-04-12T09:36:24.001Z</time></trkpt><trkpt lat="44.10760155099745" lon="9.805953458391805"><ele>13.2</ele><time>2026-04-12T09:36:25.001Z</time></trkpt><trkpt lat="44.10751205488566" lon="9.805856457957187"><ele>13.8</ele><time>2026-04-12T09:36:26.001Z</time></trkpt><trkpt lat="44.10742751755956" lon="9.80576126980518"><ele>14.4</ele><time>2026-04-12T09:36:27.001Z</time></trkpt><trkpt lat="44.10734553619262" lon="9.805669836655968"><ele>15.0</ele><time>2026-04-12T09:36:28.001Z</time></trkpt><trkpt lat="44.107261716283475" lon="9.805582397493271"><ele>15.0</ele><time>2026-04-12T09:36:29.001Z</time></trkpt><trkpt lat="44.107179295614685" lon="9.805491675455594"><ele>15.0</ele><time>2026-04-12T09:36:30.001Z</time></trkpt><trkpt lat="44.10709773171577" lon="9.80540009010592"><ele>15.0</ele><time>2026-04-12T09:36:31.001Z</time></trkpt><trkpt lat="44.10701708153272" lon="9.805312169921175"><ele>15.0</ele><time>2026-04-12T09:36:32.001Z</time></trkpt><trkpt lat="44.10693817789621" lon="9.80522841458546"><ele>15.0</ele><time>2026-04-12T09:36:33.001Z</time></trkpt><trkpt lat="44.10686244512246" lon="9.805144584325253"><ele>15.2</ele><time>2026-04-12T09:36:34.001Z</time></trkpt><trkpt lat="44.10679281681083" lon="9.805064273255713"><ele>15.4</ele><time>2026-04-12T09:36:35.001Z</time></trkpt><trkpt lat="44.106715822485306" lon="9.804982994755779"><ele>15.600000000000001</ele><time>2026-04-12T09:36:36.001Z</time></trkpt><trkpt lat="44.106637526568605" lon="9.804896274255093"><ele>15.8</ele><time>2026-04-12T09:36:37.001Z</time></trkpt><trkpt lat="44.106551636007175" lon="9.804808997690655"><ele>16.0</ele><time>2026-04-12T09:36:38.001Z</time></trkpt><trkpt lat="44.10646772129571" lon="9.804712919395456"><ele>15.999999999999998</ele><time>2026-04-12T09:36:39.001Z</time></trkpt><trkpt lat="44.10639384441477" lon="9.80462613030904"><ele>16.0</ele><time>2026-04-12T09:36:40.001Z</time></trkpt><trkpt lat="44.10632326487374" lon="9.804547963472357"><ele>16.0</ele><time>2026-04-12T09:36:41.001Z</time></trkpt><trkpt lat="44.10625918646258" lon="9.80447808545413"><ele>16.0</ele><time>2026-04-12T09:36:42.001Z</time></trkpt><trkpt lat="44.10620162128523" lon="9.804416853156159"><ele>15.999999999999998</ele><time>2026-04-12T09:36:43.001Z</time></trkpt><trkpt lat="44.10615080876445" lon="9.804360609811653"><ele>16.0</ele><time>2026-04-12T09:36:44.001Z</time></trkpt><trkpt lat="44.10609477565798" lon="9.804296060964047"><ele>16.333333333333332</ele><time>2026-04-12T09:36:46Z</time></trkpt><trkpt lat="44.10603621008907" lon="9.804224929786331"><ele>16.666666666666664</ele><time>2026-04-12T09:36:50Z</time></trkpt><trkpt lat="44.10596769962266" lon="9.80414678183597"><ele>17.0</ele><time>2026-04-12T09:36:53Z</time></trkpt><trkpt lat="44.10589685298199" lon="9.804077349196636"><ele>17.333333333333332</ele><time>2026-04-12T09:36:55Z</time></trkpt><trkpt lat="44.10581067431903" lon="9.803977614632828"><ele>17.666666666666668</ele><time>2026-04-12T09:36:57Z</time></trkpt><trkpt lat="44.10575925688432" lon="9.803920618435992"><ele>18.0</ele><time>2026-04-12T09:36:58Z</time></trkpt><trkpt lat="44.10570522124899" lon="9.803859223467619"><ele>18.0</ele><time>2026-04-12T09:36:59Z</time></trkpt><trkpt lat="44.10565480480608" lon="9.803799548742276"><ele>18.0</ele><time>2026-04-12T09:37:00Z</time></trkpt><trkpt lat="44.105604910141544" lon="9.803739290607329"><ele>18.0</ele><time>2026-04-12T09:37:01Z</time></trkpt><trkpt lat="44.105556371857766" lon="9.803683364285774"><ele>18.0</ele><time>2026-04-12T09:37:02Z</time></trkpt><trkpt lat="44.105482054544616" lon="9.803606609677244"><ele>18.0</ele><time>2026-04-12T09:37:04Z</time></trkpt><trkpt lat="44.105384881445026" lon="9.803506950640351"><ele>18.0</ele><time>2026-04-12T09:37:06Z</time></trkpt><trkpt lat="44.10533589803525" lon="9.803450221563423"><ele>18.4</ele><time>2026-04-12T09:37:07Z</time></trkpt><trkpt lat="44.10527897615734" lon="9.803388152741807"><ele>18.8</ele><time>2026-04-12T09:37:08Z</time></trkpt><trkpt lat="44.10518950001817" lon="9.803285340804656"><ele>19.2</ele><time>2026-04-12T09:37:10Z</time></trkpt><trkpt lat="44.105103290289286" lon="9.80327388737323"><ele>19.6</ele><time>2026-04-12T09:37:12Z</time></trkpt><trkpt lat="44.105010942482544" lon="9.803336215732088"><ele>20.0</ele><time>2026-04-12T09:37:14Z</time></trkpt><trkpt lat="44.104914796666996" lon="9.803350770128253"><ele>20.333333333333336</ele><time>2026-04-12T09:37:16Z</time></trkpt><trkpt lat="44.104863533508556" lon="9.803281822558965"><ele>20.666666666666668</ele><time>2026-04-12T09:37:17Z</time></trkpt><trkpt lat="44.10478513454084" lon="9.803246882641858"><ele>21.0</ele><time>2026-04-12T09:37:18Z</time></trkpt><trkpt lat="44.104711567152734" lon="9.803185155436445"><ele>21.333333333333332</ele><time>2026-04-12T09:37:19Z</time></trkpt><trkpt lat="44.10462396158386" lon="9.803129169030319"><ele>21.666666666666664</ele><time>2026-04-12T09:37:20Z</time></trkpt><trkpt lat="44.104530828594896" lon="9.803062604686033"><ele>22.0</ele><time>2026-04-12T09:37:21Z</time></trkpt><trkpt lat="44.104439521800195" lon="9.803003936431008"><ele>22.0</ele><time>2026-04-12T09:37:22Z</time></trkpt><trkpt lat="44.104350110199654" lon="9.802953520657221"><ele>22.0</ele><time>2026-04-12T09:37:23Z</time></trkpt><trkpt lat="44.104267910881894" lon="9.802914966268336"><ele>22.0</ele><time>2026-04-12T09:37:24Z</time></trkpt><trkpt lat="44.10418844898591" lon="9.802880994885742"><ele>22.0</ele><time>2026-04-12T09:37:25Z</time></trkpt><trkpt lat="44.10411681273425" lon="9.802851097490326"><ele>22.0</ele><time>2026-04-12T09:37:26Z</time></trkpt><trkpt lat="44.104052181775295" lon="9.802825520297858"><ele>22.0</ele><time>2026-04-12T09:37:27Z</time></trkpt><trkpt lat="44.103984938744674" lon="9.802796897273396"><ele>22.833333333333332</ele><time>2026-04-12T09:37:29Z</time></trkpt><trkpt lat="44.10392244288062" lon="9.802773697767785"><ele>23.666666666666664</ele><time>2026-04-12T09:37:31Z</time></trkpt><trkpt lat="44.10381567896921" lon="9.802715225029976"><ele>24.5</ele><time>2026-04-12T09:37:33Z</time></trkpt><trkpt lat="44.10374533115967" lon="9.80268803605846"><ele>25.333333333333332</ele><time>2026-04-12T09:37:34Z</time></trkpt><trkpt lat="44.10366979066245" lon="9.802658840133866"><ele>26.166666666666668</ele><time>2026-04-12T09:37:35Z</time></trkpt><trkpt lat="44.103589687649915" lon="9.802634943635935"><ele>27.0</ele><time>2026-04-12T09:37:36.001Z</time></trkpt><trkpt lat="44.10351841198121" lon="9.802609114958"><ele>27.0</ele><time>2026-04-12T09:37:37.001Z</time></trkpt><trkpt lat="44.103450982279824" lon="9.802576397618184"><ele>27.0</ele><time>2026-04-12T09:37:38.001Z</time></trkpt><trkpt lat="44.10334815499497" lon="9.802515260200149"><ele>27.0</ele><time>2026-04-12T09:37:40.001Z</time></trkpt><trkpt lat="44.10323989947227" lon="9.802457539020903"><ele>27.0</ele><time>2026-04-12T09:37:42.001Z</time></trkpt><trkpt lat="44.10317276193979" lon="9.80242645667326"><ele>27.0</ele><time>2026-04-12T09:37:43.001Z</time></trkpt><trkpt lat="44.10310013655211" lon="9.802391021684324"><ele>27.0</ele><time>2026-04-12T09:37:44.001Z</time></trkpt><trkpt lat="44.103029126380896" lon="9.802346572940877"><ele>29.0</ele><time>2026-04-12T09:37:45.001Z</time></trkpt><trkpt lat="44.10297419182766" lon="9.802303625555252"><ele>31.0</ele><time>2026-04-12T09:37:46.001Z</time></trkpt><trkpt lat="44.102879592995876" lon="9.80221555341395"><ele>33.0</ele><time>2026-04-12T09:37:48.001Z</time></trkpt><trkpt lat="44.10283058336825" lon="9.802154251519715"><ele>35.0</ele><time>2026-04-12T09:37:49.001Z</time></trkpt><trkpt lat="44.102784497924596" lon="9.802075933346087"><ele>37.0</ele><time>2026-04-12T09:37:50.001Z</time></trkpt><trkpt lat="44.102747269129026" lon="9.801992997716502"><ele>39.0</ele><time>2026-04-12T09:37:51.001Z</time></trkpt><trkpt lat="44.10272948173877" lon="9.801904218045939"><ele>38.5</ele><time>2026-04-12T09:37:52.001Z</time></trkpt><trkpt lat="44.102680240865105" lon="9.801782018832167"><ele>38.0</ele><time>2026-04-12T09:37:54.001Z</time></trkpt><trkpt lat="44.10263543800711" lon="9.801658281163535"><ele>37.5</ele><time>2026-04-12T09:37:56.001Z</time></trkpt><trkpt lat="44.10260755367155" lon="9.801566323274978"><ele>37.0</ele><time>2026-04-12T09:37:57.001Z</time></trkpt><trkpt lat="44.102581022267564" lon="9.801472728185159"><ele>36.5</ele><time>2026-04-12T09:37:58.001Z</time></trkpt><trkpt lat="44.102557885024886" lon="9.801381124480756"><ele>36.0</ele><time>2026-04-12T09:37:59.001Z</time></trkpt><trkpt lat="44.10251262544269" lon="9.801219603555538"><ele>36.0</ele><time>2026-04-12T09:38:01.001Z</time></trkpt><trkpt lat="44.10247236986808" lon="9.801082406812862"><ele>36.0</ele><time>2026-04-12T09:38:03.001Z</time></trkpt><trkpt lat="44.10244073219904" lon="9.800947930144742"><ele>36.0</ele><time>2026-04-12T09:38:05.001Z</time></trkpt><trkpt lat="44.10235893057179" lon="9.800865958695942"><ele>36.0</ele><time>2026-04-12T09:38:07.001Z</time></trkpt><trkpt lat="44.10230068275351" lon="9.800788845406494"><ele>36.0</ele><time>2026-04-12T09:38:09.001Z</time></trkpt><trkpt lat="44.10223372424954" lon="9.800689161362653"><ele>43.0</ele><time>2026-04-12T09:38:11.001Z</time></trkpt><trkpt lat="44.102211915925054" lon="9.800548826669036"><ele>50.0</ele><time>2026-04-12T09:38:13.001Z</time></trkpt><trkpt lat="44.10221432944934" lon="9.80039854186396"><ele>57.0</ele><time>2026-04-12T09:38:15.001Z</time></trkpt><trkpt lat="44.10219931261605" lon="9.800235462787708"><ele>64.0</ele><time>2026-04-12T09:38:17.001Z</time></trkpt><trkpt lat="44.10214742518809" lon="9.800060989802144"><ele>63.99999999999999</ele><time>2026-04-12T09:38:19.001Z</time></trkpt><trkpt lat="44.102117005432554" lon="9.7999657531576"><ele>64.0</ele><time>2026-04-12T09:38:20.001Z</time></trkpt><trkpt lat="44.10210027458766" lon="9.799861513173743"><ele>64.0</ele><time>2026-04-12T09:38:21.001Z</time></trkpt><trkpt lat="44.10207549609448" lon="9.799780696873963"><ele>64.0</ele><time>2026-04-12T09:38:22.001Z</time></trkpt><trkpt lat="44.102035514854165" lon="9.799666709080274"><ele>63.99999999999999</ele><time>2026-04-12T09:38:24.001Z</time></trkpt><trkpt lat="44.10202272900536" lon="9.799567935410618"><ele>64.0</ele><time>2026-04-12T09:38:26.001Z</time></trkpt><trkpt lat="44.102049407896985" lon="9.799460776858616"><ele>64.4</ele><time>2026-04-12T09:38:28.001Z</time></trkpt><trkpt lat="44.1021090237408" lon="9.799298689973243"><ele>64.80000000000001</ele><time>2026-04-12T09:38:30.001Z</time></trkpt><trkpt lat="44.102143440800944" lon="9.79921889237585"><ele>65.19999999999999</ele><time>2026-04-12T09:38:31.001Z</time></trkpt><trkpt lat="44.102199096353715" lon="9.799084457146494"><ele>65.6</ele><time>2026-04-12T09:38:33.001Z</time></trkpt><trkpt lat="44.10224573193662" lon="9.798942861851591"><ele>66.0</ele><time>2026-04-12T09:38:35.001Z</time></trkpt><trkpt lat="44.10226296198966" lon="9.79885479282807"><ele>66.0</ele><time>2026-04-12T09:38:36.001Z</time></trkpt><trkpt lat="44.102272662197066" lon="9.798753047668873"><ele>66.0</ele><time>2026-04-12T09:38:37.001Z</time></trkpt><trkpt lat="44.10228410324319" lon="9.798656556695876"><ele>66.0</ele><time>2026-04-12T09:38:38.001Z</time></trkpt><trkpt lat="44.10229745726943" lon="9.79856116086819"><ele>66.0</ele><time>2026-04-12T09:38:39.001Z</time></trkpt><trkpt lat="44.10230579531083" lon="9.798404039482957"><ele>66.0</ele><time>2026-04-12T09:38:41.001Z</time></trkpt><trkpt lat="44.10229256121614" lon="9.798275307103767"><ele>66.0</ele><time>2026-04-12T09:38:43.001Z</time></trkpt><trkpt lat="44.10226055817515" lon="9.798163164142629"><ele>65.83333333333333</ele><time>2026-04-12T09:38:46.001Z</time></trkpt><trkpt lat="44.102224386836355" lon="9.798090099729695"><ele>65.66666666666667</ele><time>2026-04-12T09:38:47.001Z</time></trkpt><trkpt lat="44.10215818552388" lon="9.798066510397303"><ele>65.5</ele><time>2026-04-12T09:38:48.001Z</time></trkpt><trkpt lat="44.102070992874566" lon="9.798045139841454"><ele>65.33333333333334</ele><time>2026-04-12T09:38:50.001Z</time></trkpt><trkpt lat="44.10194415992741" lon="9.798015432990645"><ele>65.16666666666667</ele><time>2026-04-12T09:38:52Z</time></trkpt><trkpt lat="44.10187224278082" lon="9.797994410201328"><ele>65.0</ele><time>2026-04-12T09:38:53Z</time></trkpt><trkpt lat="44.10179796539864" lon="9.797992980390527"><ele>65.0</ele><time>2026-04-12T09:38:54Z</time></trkpt><trkpt lat="44.10173142393831" lon="9.797939100779706"><ele>65.0</ele><time>2026-04-12T09:38:55Z</time></trkpt><trkpt lat="44.101662483099865" lon="9.797899600376331"><ele>65.0</ele><time>2026-04-12T09:38:56Z</time></trkpt><trkpt lat="44.101585743568755" lon="9.797864994246485"><ele>65.0</ele><time>2026-04-12T09:38:57Z</time></trkpt><trkpt lat="44.10152537101729" lon="9.797786050118592"><ele>65.0</ele><time>2026-04-12T09:38:58Z</time></trkpt><trkpt lat="44.10147600841096" lon="9.797680181684775"><ele>65.0</ele><time>2026-04-12T09:38:59Z</time></trkpt><trkpt lat="44.101450609038274" lon="9.797555246480496"><ele>73.4</ele><time>2026-04-12T09:39:00Z</time></trkpt><trkpt lat="44.10144003586176" lon="9.797425335302373"><ele>81.8</ele><time>2026-04-12T09:39:01Z</time></trkpt><trkpt lat="44.10141987229529" lon="9.797288225983143"><ele>90.19999999999999</ele><time>2026-04-12T09:39:02Z</time></trkpt><trkpt lat="44.10138494583277" lon="9.797166560335077"><ele>98.6</ele><time>2026-04-12T09:39:03Z</time></trkpt><trkpt lat="44.10134183744729" lon="9.797053648731042"><ele>107.0</ele><time>2026-04-12T09:39:04Z</time></trkpt><trkpt lat="44.101295649439585" lon="9.796950034481933"><ele>106.99999999999999</ele><time>2026-04-12T09:39:05Z</time></trkpt><trkpt lat="44.101243881975364" lon="9.796868392599405"><ele>107.0</ele><time>2026-04-12T09:39:06Z</time></trkpt><trkpt lat="44.10119191603959" lon="9.796797402236813"><ele>107.0</ele><time>2026-04-12T09:39:07Z</time></trkpt><trkpt lat="44.10113102006802" lon="9.796716810774964"><ele>107.0</ele><time>2026-04-12T09:39:08Z</time></trkpt><trkpt lat="44.10106841039409" lon="9.796629054216654"><ele>106.99999999999999</ele><time>2026-04-12T09:39:09Z</time></trkpt><trkpt lat="44.10100740342543" lon="9.796522358337882"><ele>107.0</ele><time>2026-04-12T09:39:10Z</time></trkpt><trkpt lat="44.10097077605631" lon="9.796395057578007"><ele>103.25</ele><time>2026-04-12T09:39:11Z</time></trkpt><trkpt lat="44.100924831018546" lon="9.79625681161028"><ele>99.5</ele><time>2026-04-12T09:39:12Z</time></trkpt><trkpt lat="44.10087078642823" lon="9.796097023934324"><ele>95.75</ele><time>2026-04-12T09:39:13Z</time></trkpt><trkpt lat="44.10083394458876" lon="9.795903708490853"><ele>92.0</ele><time>2026-04-12T09:39:14Z</time></trkpt><trkpt lat="44.10077581654064" lon="9.795683251351418"><ele>100.66666666666667</ele><time>2026-04-12T09:39:15Z</time></trkpt><trkpt lat="44.10071664605729" lon="9.795459128849137"><ele>109.33333333333334</ele><time>2026-04-12T09:39:16Z</time></trkpt><trkpt lat="44.100642548220684" lon="9.795214965133537"><ele>118.0</ele><time>2026-04-12T09:39:17Z</time></trkpt><trkpt lat="44.10055252809055" lon="9.79495382849208"><ele>118.0</ele><time>2026-04-12T09:39:18Z</time></trkpt><trkpt lat="44.100445062117714" lon="9.79467349430177"><ele>118.0</ele><time>2026-04-12T09:39:19Z</time></trkpt><trkpt lat="44.10035351233775" lon="9.794401159252947"><ele>118.0</ele><time>2026-04-12T09:39:20Z</time></trkpt><trkpt lat="44.100273470949084" lon="9.794169525135496"><ele>112.66666666666667</ele><time>2026-04-12T09:39:21Z</time></trkpt><trkpt lat="44.10018403754135" lon="9.793939493394248"><ele>107.33333333333334</ele><time>2026-04-12T09:39:22Z</time></trkpt><trkpt lat="44.10005651665553" lon="9.793745954217686"><ele>102.0</ele><time>2026-04-12T09:39:23Z</time></trkpt><trkpt lat="44.09994550615219" lon="9.79353884456606"><ele>115.66666666666666</ele><time>2026-04-12T09:39:24Z</time></trkpt><trkpt lat="44.09982783814343" lon="9.793345542520164"><ele>129.33333333333331</ele><time>2026-04-12T09:39:25Z</time></trkpt><trkpt lat="44.09973856107502" lon="9.79313925298836"><ele>143.0</ele><time>2026-04-12T09:39:26Z</time></trkpt><trkpt lat="44.0996605137728" lon="9.792918326720775"><ele>143.0</ele><time>2026-04-12T09:39:27Z</time></trkpt><trkpt lat="44.099603484781284" lon="9.792679050122995"><ele>143.0</ele><time>2026-04-12T09:39:28Z</time></trkpt><trkpt lat="44.0995357247742" lon="9.792432610296572"><ele>143.0</ele><time>2026-04-12T09:39:29Z</time></trkpt><trkpt lat="44.09947588564522" lon="9.792193360998116"><ele>139.66666666666666</ele><time>2026-04-12T09:39:30Z</time></trkpt><trkpt lat="44.099408827106394" lon="9.791973283395297"><ele>136.33333333333334</ele><time>2026-04-12T09:39:31Z</time></trkpt><trkpt lat="44.099340213072914" lon="9.791768463482752"><ele>133.0</ele><time>2026-04-12T09:39:32Z</time></trkpt><trkpt lat="44.09928295822261" lon="9.791575982015068"><ele>130.33333333333334</ele><time>2026-04-12T09:39:33Z</time></trkpt><trkpt lat="44.09924394242221" lon="9.791365757671224"><ele>127.66666666666666</ele><time>2026-04-12T09:39:34Z</time></trkpt><trkpt lat="44.09921703422949" lon="9.79114033963755"><ele>125.0</ele><time>2026-04-12T09:39:35Z</time></trkpt><trkpt lat="44.099209476897336" lon="9.790912257582015"><ele>125.0</ele><time>2026-04-12T09:39:36Z</time></trkpt><trkpt lat="44.099214734067644" lon="9.79068814992941"><ele>125.0</ele><time>2026-04-12T09:39:37Z</time></trkpt><trkpt lat="44.09921984949065" lon="9.790466809779527"><ele>125.0</ele><time>2026-04-12T09:39:38Z</time></trkpt><trkpt lat="44.09921100083579" lon="9.7902522048329"><ele>125.25</ele><time>2026-04-12T09:39:39Z</time></trkpt><trkpt lat="44.09917408646601" lon="9.790034420768409"><ele>125.5</ele><time>2026-04-12T09:39:40Z</time></trkpt><trkpt lat="44.09912758642184" lon="9.789852859835884"><ele>125.75</ele><time>2026-04-12T09:39:41Z</time></trkpt><trkpt lat="44.09909039434982" lon="9.789683302849399"><ele>126.0</ele><time>2026-04-12T09:39:42Z</time></trkpt><trkpt lat="44.099068226814566" lon="9.789558501986559"><ele>126.16666666666667</ele><time>2026-04-12T09:39:43Z</time></trkpt><trkpt lat="44.09906984151839" lon="9.789447561321465"><ele>126.33333333333334</ele><time>2026-04-12T09:39:44Z</time></trkpt><trkpt lat="44.09905276564398" lon="9.789362328683804"><ele>126.5</ele><time>2026-04-12T09:39:45Z</time></trkpt><trkpt lat="44.099117212493006" lon="9.789248035555774"><ele>126.66666666666667</ele><time>2026-04-12T09:39:47.001Z</time></trkpt><trkpt lat="44.09918414341177" lon="9.789211847160496"><ele>126.83333333333334</ele><time>2026-04-12T09:39:48.001Z</time></trkpt><trkpt lat="44.09929453590032" lon="9.789205500803135"><ele>127.0</ele><time>2026-04-12T09:39:50.001Z</time></trkpt><trkpt lat="44.09936830362416" lon="9.789290631055659"><ele>127.0</ele><time>2026-04-12T09:39:51.001Z</time></trkpt><trkpt lat="44.09942788338486" lon="9.789351671137508"><ele>126.99999999999999</ele><time>2026-04-12T09:39:52.001Z</time></trkpt><trkpt lat="44.09950600904683" lon="9.789303770581586"><ele>126.99999999999999</ele><time>2026-04-12T09:39:54.001Z</time></trkpt><trkpt lat="44.09947775101325" lon="9.789124078698695"><ele>127.0</ele><time>2026-04-12T09:39:56.001Z</time></trkpt><trkpt lat="44.099418460929684" lon="9.78905142834428"><ele>127.0</ele><time>2026-04-12T09:39:57.001Z</time></trkpt><trkpt lat="44.09933691706335" lon="9.78897954851479"><ele>127.0</ele><time>2026-04-12T09:39:58.001Z</time></trkpt><trkpt lat="44.09926193654214" lon="9.788886513853008"><ele>127.0</ele><time>2026-04-12T09:39:59.001Z</time></trkpt><trkpt lat="44.099201844554834" lon="9.788763211360148"><ele>127.0</ele><time>2026-04-12T09:40:00.001Z</time></trkpt><trkpt lat="44.099136063990535" lon="9.788621352699874"><ele>127.0</ele><time>2026-04-12T09:40:01.001Z</time></trkpt><trkpt lat="44.09908641671536" lon="9.788457455353317"><ele>130.25</ele><time>2026-04-12T09:40:02.001Z</time></trkpt><trkpt lat="44.09902307126697" lon="9.788285627088335"><ele>133.5</ele><time>2026-04-12T09:40:03.001Z</time></trkpt><trkpt lat="44.09894503591509" lon="9.788110415139977"><ele>136.75</ele><time>2026-04-12T09:40:04.001Z</time></trkpt><trkpt lat="44.09884509337381" lon="9.787937549805475"><ele>140.0</ele><time>2026-04-12T09:40:05.001Z</time></trkpt><trkpt lat="44.09875770546007" lon="9.787767599132527"><ele>140.5</ele><time>2026-04-12T09:40:06.001Z</time></trkpt><trkpt lat="44.098667888569125" lon="9.78760546006201"><ele>141.0</ele><time>2026-04-12T09:40:07.001Z</time></trkpt><trkpt lat="44.09858427182817" lon="9.787436318999529"><ele>141.5</ele><time>2026-04-12T09:40:08.001Z</time></trkpt><trkpt lat="44.0985248523349" lon="9.787250970334481"><ele>142.0</ele><time>2026-04-12T09:40:09.001Z</time></trkpt><trkpt lat="44.09848264251475" lon="9.787059042439298"><ele>142.0</ele><time>2026-04-12T09:40:10.001Z</time></trkpt><trkpt lat="44.09843231196378" lon="9.786876685685401"><ele>142.0</ele><time>2026-04-12T09:40:11.001Z</time></trkpt><trkpt lat="44.09836696033109" lon="9.786711135540063"><ele>142.0</ele><time>2026-04-12T09:40:12.001Z</time></trkpt><trkpt lat="44.09828666124741" lon="9.78658615774126"><ele>142.0</ele><time>2026-04-12T09:40:13.001Z</time></trkpt><trkpt lat="44.09819385615502" lon="9.786459289823897"><ele>147.75</ele><time>2026-04-12T09:40:14.001Z</time></trkpt><trkpt lat="44.09806885536337" lon="9.786343404569854"><ele>153.5</ele><time>2026-04-12T09:40:15.001Z</time></trkpt><trkpt lat="44.09793705178717" lon="9.78623752587075"><ele>159.25</ele><time>2026-04-12T09:40:16.001Z</time></trkpt><trkpt lat="44.09782446957146" lon="9.786116446504865"><ele>165.0</ele><time>2026-04-12T09:40:17.001Z</time></trkpt><trkpt lat="44.097733942955315" lon="9.786018395202193"><ele>162.75</ele><time>2026-04-12T09:40:18.001Z</time></trkpt><trkpt lat="44.09766388679356" lon="9.785904111351353"><ele>160.5</ele><time>2026-04-12T09:40:19.001Z</time></trkpt><trkpt lat="44.09759052259232" lon="9.785768330975698"><ele>158.25</ele><time>2026-04-12T09:40:20.001Z</time></trkpt><trkpt lat="44.09751954846511" lon="9.785615757480642"><ele>156.0</ele><time>2026-04-12T09:40:21.001Z</time></trkpt><trkpt lat="44.097456326987654" lon="9.785459758708848"><ele>158.5</ele><time>2026-04-12T09:40:22.001Z</time></trkpt><trkpt lat="44.097397139030015" lon="9.78531689444131"><ele>161.0</ele><time>2026-04-12T09:40:23.001Z</time></trkpt><trkpt lat="44.09740782290695" lon="9.7851454096549"><ele>163.5</ele><time>2026-04-12T09:40:24.001Z</time></trkpt><trkpt lat="44.09741623806162" lon="9.784990516386351"><ele>166.0</ele><time>2026-04-12T09:40:25.001Z</time></trkpt><trkpt lat="44.097435282665344" lon="9.784848855272097"><ele>166.0</ele><time>2026-04-12T09:40:26.001Z</time></trkpt><trkpt lat="44.09744131481653" lon="9.784736111926295"><ele>166.0</ele><time>2026-04-12T09:40:27.001Z</time></trkpt><trkpt lat="44.09747774147919" lon="9.784650450179036"><ele>166.0</ele><time>2026-04-12T09:40:28.001Z</time></trkpt><trkpt lat="44.09745475337557" lon="9.784537904563791"><ele>166.0</ele><time>2026-04-12T09:40:30.001Z</time></trkpt><trkpt lat="44.097350210532674" lon="9.784525172510426"><ele>166.0</ele><time>2026-04-12T09:40:32.001Z</time></trkpt><trkpt lat="44.09730336562747" lon="9.78462021566062"><ele>166.0</ele><time>2026-04-12T09:40:33.001Z</time></trkpt><trkpt lat="44.09730776683907" lon="9.784745800415875"><ele>168.4</ele><time>2026-04-12T09:40:34.001Z</time></trkpt><trkpt lat="44.09729885922548" lon="9.78486827964081"><ele>170.8</ele><time>2026-04-12T09:40:35.001Z</time></trkpt><trkpt lat="44.09728016051887" lon="9.785002189146095"><ele>173.20000000000002</ele><time>2026-04-12T09:40:36.001Z</time></trkpt><trkpt lat="44.097235197115545" lon="9.785130430600306"><ele>175.60000000000002</ele><time>2026-04-12T09:40:37.001Z</time></trkpt><trkpt lat="44.097193190947735" lon="9.785257823710987"><ele>178.0</ele><time>2026-04-12T09:40:38.001Z</time></trkpt><trkpt lat="44.097153407741004" lon="9.785365213303688"><ele>179.0</ele><time>2026-04-12T09:40:39.001Z</time></trkpt><trkpt lat="44.09711852631429" lon="9.785457101747674"><ele>180.0</ele><time>2026-04-12T09:40:40.001Z</time></trkpt><trkpt lat="44.09704553744471" lon="9.78556689101215"><ele>181.0</ele><time>2026-04-12T09:40:42.001Z</time></trkpt><trkpt lat="44.0969423975169" lon="9.785564709418654"><ele>182.0</ele><time>2026-04-12T09:40:44.001Z</time></trkpt><trkpt lat="44.09689258396585" lon="9.78546985838156"><ele>183.0</ele><time>2026-04-12T09:40:45.001Z</time></trkpt><trkpt lat="44.096855972879645" lon="9.785342139408174"><ele>183.0</ele><time>2026-04-12T09:40:46.001Z</time></trkpt><trkpt lat="44.096822170950055" lon="9.785189118538872"><ele>183.0</ele><time>2026-04-12T09:40:47.001Z</time></trkpt><trkpt lat="44.09676185396873" lon="9.785032103064747"><ele>183.0</ele><time>2026-04-12T09:40:48.001Z</time></trkpt><trkpt lat="44.09667548139257" lon="9.784896845833925"><ele>183.0</ele><time>2026-04-12T09:40:49.001Z</time></trkpt><trkpt lat="44.096589061506506" lon="9.784796003129273"><ele>182.83333333333334</ele><time>2026-04-12T09:40:50.001Z</time></trkpt><trkpt lat="44.096537047280805" lon="9.784705408102841"><ele>182.66666666666666</ele><time>2026-04-12T09:40:51.001Z</time></trkpt><trkpt lat="44.096482315622694" lon="9.784598569893532"><ele>182.5</ele><time>2026-04-12T09:40:53.001Z</time></trkpt><trkpt lat="44.09651638575227" lon="9.784522739663252"><ele>182.33333333333331</ele><time>2026-04-12T09:40:54.001Z</time></trkpt><trkpt lat="44.096638095257624" lon="9.784515073519724"><ele>182.16666666666666</ele><time>2026-04-12T09:40:56.001Z</time></trkpt><trkpt lat="44.09668891066424" lon="9.784601498674622"><ele>182.0</ele><time>2026-04-12T09:40:57Z</time></trkpt><trkpt lat="44.096699410658175" lon="9.784729537237357"><ele>181.33333333333331</ele><time>2026-04-12T09:40:58Z</time></trkpt><trkpt lat="44.09673477936972" lon="9.784816646546567"><ele>180.66666666666666</ele><time>2026-04-12T09:40:59Z</time></trkpt><trkpt lat="44.09683190953868" lon="9.784916142759648"><ele>180.0</ele><time>2026-04-12T09:41:01Z</time></trkpt><trkpt lat="44.09690363852661" lon="9.78488278142869"><ele>179.33333333333334</ele><time>2026-04-12T09:41:02Z</time></trkpt><trkpt lat="44.096950523999986" lon="9.784785253333471"><ele>178.66666666666669</ele><time>2026-04-12T09:41:03Z</time></trkpt><trkpt lat="44.09696694226934" lon="9.784663676882069"><ele>178.0</ele><time>2026-04-12T09:41:04Z</time></trkpt><trkpt lat="44.09696681704412" lon="9.784525181377939"><ele>178.0</ele><time>2026-04-12T09:41:05Z</time></trkpt><trkpt lat="44.09696720541955" lon="9.784359380619547"><ele>178.0</ele><time>2026-04-12T09:41:06Z</time></trkpt><trkpt lat="44.096976004061936" lon="9.784184202204969"><ele>178.0</ele><time>2026-04-12T09:41:07Z</time></trkpt><trkpt lat="44.09698656754088" lon="9.784008846554489"><ele>178.0</ele><time>2026-04-12T09:41:08Z</time></trkpt><trkpt lat="44.096983735193874" lon="9.7838120075185"><ele>182.0</ele><time>2026-04-12T09:41:09Z</time></trkpt><trkpt lat="44.09696172699132" lon="9.783602426042725"><ele>186.0</ele><time>2026-04-12T09:41:10Z</time></trkpt><trkpt lat="44.09692556681019" lon="9.783389572735608"><ele>190.0</ele><time>2026-04-12T09:41:11Z</time></trkpt><trkpt lat="44.09689267697867" lon="9.783178519362984"><ele>194.0</ele><time>2026-04-12T09:41:12Z</time></trkpt><trkpt lat="44.09687468823627" lon="9.782988639940273"><ele>198.0</ele><time>2026-04-12T09:41:13Z</time></trkpt><trkpt lat="44.096854798468655" lon="9.78280456836365"><ele>202.0</ele><time>2026-04-12T09:41:14Z</time></trkpt><trkpt lat="44.09680341280431" lon="9.782626588027734"><ele>206.0</ele><time>2026-04-12T09:41:15Z</time></trkpt><trkpt lat="44.096732466656725" lon="9.78246376268636"><ele>207.8</ele><time>2026-04-12T09:41:16Z</time></trkpt><trkpt lat="44.09665944534203" lon="9.78233494173618"><ele>209.60000000000002</ele><time>2026-04-12T09:41:17Z</time></trkpt><trkpt lat="44.0966174992057" lon="9.782200913492185"><ele>211.4</ele><time>2026-04-12T09:41:18Z</time></trkpt><trkpt lat="44.096574900657636" lon="9.782113885035338"><ele>213.2</ele><time>2026-04-12T09:41:19Z</time></trkpt><trkpt lat="44.09661262128295" lon="9.781996408177275"><ele>215.0</ele><time>2026-04-12T09:41:21Z</time></trkpt><trkpt lat="44.09668305554111" lon="9.781958289689918"><ele>215.0</ele><time>2026-04-12T09:41:22Z</time></trkpt><trkpt lat="44.09676054368795" lon="9.781963977474291"><ele>215.0</ele><time>2026-04-12T09:41:23Z</time></trkpt><trkpt lat="44.09685559457115" lon="9.78193617412871"><ele>215.0</ele><time>2026-04-12T09:41:24Z</time></trkpt><trkpt lat="44.096932819902776" lon="9.781907668969776"><ele>215.0</ele><time>2026-04-12T09:41:25Z</time></trkpt><trkpt lat="44.09698578514983" lon="9.781761478564238"><ele>215.0</ele><time>2026-04-12T09:41:27Z</time></trkpt><trkpt lat="44.09694264509563" lon="9.781665809581252"><ele>215.50000000000003</ele><time>2026-04-12T09:41:28Z</time></trkpt><trkpt lat="44.096863249068505" lon="9.781649588776926"><ele>216.0</ele><time>2026-04-12T09:41:29Z</time></trkpt><trkpt lat="44.09679118626241" lon="9.781676505798558"><ele>216.5</ele><time>2026-04-12T09:41:30Z</time></trkpt><trkpt lat="44.09671613880613" lon="9.781747901181541"><ele>217.0</ele><time>2026-04-12T09:41:31Z</time></trkpt><trkpt lat="44.096623358375076" lon="9.781752157655625"><ele>217.50000000000003</ele><time>2026-04-12T09:41:33Z</time></trkpt><trkpt lat="44.09664401969876" lon="9.781603361205086"><ele>218.0</ele><time>2026-04-12T09:41:36Z</time></trkpt><trkpt lat="44.09672066648179" lon="9.781551129606477"><ele>218.00000000000003</ele><time>2026-04-12T09:41:37Z</time></trkpt><trkpt lat="44.0967754090889" lon="9.781475689468198"><ele>218.0</ele><time>2026-04-12T09:41:38Z</time></trkpt><trkpt lat="44.09679259609057" lon="9.781350431561282"><ele>218.0</ele><time>2026-04-12T09:41:39Z</time></trkpt><trkpt lat="44.09678671719014" lon="9.781206577604179"><ele>218.0</ele><time>2026-04-12T09:41:40Z</time></trkpt><trkpt lat="44.09678168894487" lon="9.781072694963125"><ele>218.00000000000003</ele><time>2026-04-12T09:41:41Z</time></trkpt><trkpt lat="44.09677768894635" lon="9.780965641723014"><ele>218.0</ele><time>2026-04-12T09:41:42Z</time></trkpt><trkpt lat="44.09671635552652" lon="9.780841493700986"><ele>218.0</ele><time>2026-04-12T09:41:44.001Z</time></trkpt><trkpt lat="44.09663904186387" lon="9.78081179399356"><ele>218.0</ele><time>2026-04-12T09:41:46.001Z</time></trkpt><trkpt lat="44.096570872141484" lon="9.780958894280818"><ele>218.0</ele><time>2026-04-12T09:41:47.001Z</time></trkpt><trkpt lat="44.096589985189446" lon="9.781089052289147"><ele>218.0</ele><time>2026-04-12T09:41:48.001Z</time></trkpt><trkpt lat="44.09655806082029" lon="9.781194343841433"><ele>218.0</ele><time>2026-04-12T09:41:49.001Z</time></trkpt><trkpt lat="44.09652588235509" lon="9.781278649015839"><ele>223.16666666666669</ele><time>2026-04-12T09:41:50.001Z</time></trkpt><trkpt lat="44.09645358022099" lon="9.781308603297568"><ele>228.33333333333334</ele><time>2026-04-12T09:41:51.001Z</time></trkpt><trkpt lat="44.096366082042536" lon="9.781278756061962"><ele>233.5</ele><time>2026-04-12T09:41:53.001Z</time></trkpt><trkpt lat="44.09635273443701" lon="9.781141813614196"><ele>238.66666666666669</ele><time>2026-04-12T09:41:55.001Z</time></trkpt><trkpt lat="44.09641844246237" lon="9.781073257173757"><ele>243.83333333333334</ele><time>2026-04-12T09:41:56.001Z</time></trkpt><trkpt lat="44.09645833008444" lon="9.78096841637589"><ele>249.0</ele><time>2026-04-12T09:41:57.001Z</time></trkpt><trkpt lat="44.09648913261199" lon="9.780843780074957"><ele>249.0</ele><time>2026-04-12T09:41:58.001Z</time></trkpt><trkpt lat="44.096497933231" lon="9.780727531664525"><ele>248.99999999999997</ele><time>2026-04-12T09:41:59.001Z</time></trkpt><trkpt lat="44.09646864604775" lon="9.780583982864036"><ele>248.99999999999997</ele><time>2026-04-12T09:42:01.001Z</time></trkpt><trkpt lat="44.09637224712732" lon="9.780564497327894"><ele>249.0</ele><time>2026-04-12T09:42:03.001Z</time></trkpt><trkpt lat="44.09628717896527" lon="9.780745571515485"><ele>249.0</ele><time>2026-04-12T09:42:05.001Z</time></trkpt><trkpt lat="44.09625115923932" lon="9.780866669018561"><ele>249.0</ele><time>2026-04-12T09:42:06.001Z</time></trkpt><trkpt lat="44.096193851731385" lon="9.780965594083684"><ele>248.99999999999997</ele><time>2026-04-12T09:42:07.001Z</time></trkpt><trkpt lat="44.09612248442011" lon="9.781053037841955"><ele>248.99999999999997</ele><time>2026-04-12T09:42:08.001Z</time></trkpt><trkpt lat="44.09605179494897" lon="9.781128727588596"><ele>249.0</ele><time>2026-04-12T09:42:09.001Z</time></trkpt><trkpt lat="44.09594794216333" lon="9.781167450417835"><ele>249.0</ele><time>2026-04-12T09:42:11.001Z</time></trkpt><trkpt lat="44.09590006510013" lon="9.781079615234495"><ele>249.0</ele><time>2026-04-12T09:42:13.001Z</time></trkpt><trkpt lat="44.09596069562195" lon="9.780993296957387"><ele>248.99999999999997</ele><time>2026-04-12T09:42:14.001Z</time></trkpt><trkpt lat="44.09602789893806" lon="9.78093404991597"><ele>248.99999999999997</ele><time>2026-04-12T09:42:15.001Z</time></trkpt><trkpt lat="44.096090695354874" lon="9.780841421085514"><ele>249.0</ele><time>2026-04-12T09:42:16.001Z</time></trkpt><trkpt lat="44.09613852696568" lon="9.780707159871474"><ele>249.0</ele><time>2026-04-12T09:42:17.001Z</time></trkpt><trkpt lat="44.0961595513565" lon="9.78058640308358"><ele>249.0</ele><time>2026-04-12T09:42:18.001Z</time></trkpt><trkpt lat="44.09617481581568" lon="9.780494327456326"><ele>248.99999999999997</ele><time>2026-04-12T09:42:19.001Z</time></trkpt><trkpt lat="44.09611774435659" lon="9.780364914515477"><ele>248.99999999999997</ele><time>2026-04-12T09:42:21.001Z</time></trkpt><trkpt lat="44.09598745144799" lon="9.78037868715688"><ele>249.0</ele><time>2026-04-12T09:42:23.001Z</time></trkpt><trkpt lat="44.095904777295836" lon="9.780432778666166"><ele>249.0</ele><time>2026-04-12T09:42:24.001Z</time></trkpt><trkpt lat="44.09582329241571" lon="9.780449664664317"><ele>249.0</ele><time>2026-04-12T09:42:25.001Z</time></trkpt><trkpt lat="44.09576516047964" lon="9.780487836854897"><ele>248.99999999999997</ele><time>2026-04-12T09:42:26.001Z</time></trkpt><trkpt lat="44.09570063533941" lon="9.78045295364247"><ele>248.99999999999997</ele><time>2026-04-12T09:42:28.001Z</time></trkpt><trkpt lat="44.09571091657558" lon="9.780329625652465"><ele>249.0</ele><time>2026-04-12T09:42:29.001Z</time></trkpt><trkpt lat="44.095827302261746" lon="9.780194945602025"><ele>249.0</ele><time>2026-04-12T09:42:31.001Z</time></trkpt><trkpt lat="44.09587773851255" lon="9.780104408042602"><ele>250.6</ele><time>2026-04-12T09:42:32.001Z</time></trkpt><trkpt lat="44.09589253896516" lon="9.779963087715677"><ele>252.2</ele><time>2026-04-12T09:42:33.001Z</time></trkpt><trkpt lat="44.09588988811654" lon="9.779829113473996"><ele>253.79999999999998</ele><time>2026-04-12T09:42:34.001Z</time></trkpt><trkpt lat="44.09589727092269" lon="9.779685991118034"><ele>255.39999999999998</ele><time>2026-04-12T09:42:35.001Z</time></trkpt><trkpt lat="44.09593059267777" lon="9.77956117496913"><ele>257.0</ele><time>2026-04-12T09:42:36.001Z</time></trkpt><trkpt lat="44.095939942119585" lon="9.779416322076932"><ele>257.0</ele><time>2026-04-12T09:42:38.001Z</time></trkpt><trkpt lat="44.09581946220478" lon="9.779400615208791"><ele>257.0</ele><time>2026-04-12T09:42:40.001Z</time></trkpt><trkpt lat="44.09575695260975" lon="9.779462585341935"><ele>257.0</ele><time>2026-04-12T09:42:41.001Z</time></trkpt><trkpt lat="44.09569971299821" lon="9.77955768655682"><ele>257.0</ele><time>2026-04-12T09:42:42.001Z</time></trkpt><trkpt lat="44.09562329929394" lon="9.779620367677206"><ele>257.0</ele><time>2026-04-12T09:42:43.001Z</time></trkpt><trkpt lat="44.095539517826786" lon="9.77965902859444"><ele>260.6666666666667</ele><time>2026-04-12T09:42:44.001Z</time></trkpt><trkpt lat="44.09543984537775" lon="9.779674219398677"><ele>264.33333333333337</ele><time>2026-04-12T09:42:45.001Z</time></trkpt><trkpt lat="44.09534701119961" lon="9.779667857300504"><ele>268.0</ele><time>2026-04-12T09:42:46.001Z</time></trkpt><trkpt lat="44.09526433192139" lon="9.779669328693064"><ele>271.6666666666667</ele><time>2026-04-12T09:42:47.001Z</time></trkpt><trkpt lat="44.09520876305838" lon="9.779614733849858"><ele>275.3333333333333</ele><time>2026-04-12T09:42:48.001Z</time></trkpt><trkpt lat="44.09519019426228" lon="9.77952180993661"><ele>279.0</ele><time>2026-04-12T09:42:50.001Z</time></trkpt><trkpt lat="44.095305399310334" lon="9.779429944983024"><ele>279.0</ele><time>2026-04-12T09:42:52.001Z</time></trkpt><trkpt lat="44.09537361259933" lon="9.779361971347077"><ele>279.0</ele><time>2026-04-12T09:42:53.001Z</time></trkpt><trkpt lat="44.09546759349563" lon="9.77931347737423"><ele>279.0</ele><time>2026-04-12T09:42:54.001Z</time></trkpt><trkpt lat="44.09554579839335" lon="9.779249958492224"><ele>279.0</ele><time>2026-04-12T09:42:55.001Z</time></trkpt><trkpt lat="44.09557929438693" lon="9.779098745309454"><ele>279.0</ele><time>2026-04-12T09:42:57.001Z</time></trkpt><trkpt lat="44.09549844851317" lon="9.778971657135173"><ele>279.8</ele><time>2026-04-12T09:42:59.001Z</time></trkpt><trkpt lat="44.09541564300162" lon="9.778958608324427"><ele>280.59999999999997</ele><time>2026-04-12T09:43:00.001Z</time></trkpt><trkpt lat="44.09530974452696" lon="9.778966343167934"><ele>281.4</ele><time>2026-04-12T09:43:01.001Z</time></trkpt><trkpt lat="44.09520258666462" lon="9.778978739112974"><ele>282.2</ele><time>2026-04-12T09:43:02.002Z</time></trkpt><trkpt lat="44.09510240311752" lon="9.778978987002864"><ele>283.0</ele><time>2026-04-12T09:43:03Z</time></trkpt><trkpt lat="44.09503100781697" lon="9.778989959492977"><ele>283.0</ele><time>2026-04-12T09:43:04Z</time></trkpt><trkpt lat="44.094974187934774" lon="9.778928075638895"><ele>283.0</ele><time>2026-04-12T09:43:06Z</time></trkpt><trkpt lat="44.09504928154187" lon="9.778765114907628"><ele>283.0</ele><time>2026-04-12T09:43:08Z</time></trkpt><trkpt lat="44.095111662629584" lon="9.778678201331342"><ele>283.0</ele><time>2026-04-12T09:43:09Z</time></trkpt><trkpt lat="44.095180286502114" lon="9.778578615089241"><ele>283.0</ele><time>2026-04-12T09:43:10Z</time></trkpt><trkpt lat="44.09524860796705" lon="9.77846693084075"><ele>284.6</ele><time>2026-04-12T09:43:11Z</time></trkpt><trkpt lat="44.095313511365966" lon="9.778358124535131"><ele>286.20000000000005</ele><time>2026-04-12T09:43:12Z</time></trkpt><trkpt lat="44.09536593164989" lon="9.778236540512902"><ele>287.8</ele><time>2026-04-12T09:43:13Z</time></trkpt><trkpt lat="44.09539482741114" lon="9.778129782753558"><ele>289.40000000000003</ele><time>2026-04-12T09:43:14Z</time></trkpt><trkpt lat="44.09534293608517" lon="9.777994393064935"><ele>291.0</ele><time>2026-04-12T09:43:16Z</time></trkpt><trkpt lat="44.095200318995865" lon="9.778012814392724"><ele>291.0</ele><time>2026-04-12T09:43:18Z</time></trkpt><trkpt lat="44.095108121302815" lon="9.778065558941698"><ele>291.0</ele><time>2026-04-12T09:43:19Z</time></trkpt><trkpt lat="44.09500596071191" lon="9.778081438577175"><ele>291.0</ele><time>2026-04-12T09:43:20Z</time></trkpt><trkpt lat="44.09490936036596" lon="9.778058609478876"><ele>291.0</ele><time>2026-04-12T09:43:21Z</time></trkpt><trkpt lat="44.09483744570537" lon="9.778019473826625"><ele>291.0</ele><time>2026-04-12T09:43:22Z</time></trkpt><trkpt lat="44.09474581276628" lon="9.777910011921323"><ele>293.40000000000003</ele><time>2026-04-12T09:43:24Z</time></trkpt><trkpt lat="44.094682029972454" lon="9.777836551248292"><ele>295.8</ele><time>2026-04-12T09:43:25Z</time></trkpt><trkpt lat="44.09463740128786" lon="9.777723357052764"><ele>298.20000000000005</ele><time>2026-04-12T09:43:26Z</time></trkpt><trkpt lat="44.09457081135219" lon="9.77762182989262"><ele>300.6</ele><time>2026-04-12T09:43:27Z</time></trkpt><trkpt lat="44.09450857107228" lon="9.777513715105995"><ele>303.0</ele><time>2026-04-12T09:43:28Z</time></trkpt><trkpt lat="44.09443980687441" lon="9.777415345875653"><ele>305.2</ele><time>2026-04-12T09:43:29Z</time></trkpt><trkpt lat="44.09432950898693" lon="9.777393174876341"><ele>307.4</ele><time>2026-04-12T09:43:30Z</time></trkpt><trkpt lat="44.09423342127527" lon="9.777374694226154"><ele>309.59999999999997</ele><time>2026-04-12T09:43:31Z</time></trkpt><trkpt lat="44.09414028832132" lon="9.777364657159241"><ele>311.8</ele><time>2026-04-12T09:43:32Z</time></trkpt><trkpt lat="44.09405440435104" lon="9.777365179031703"><ele>314.0</ele><time>2026-04-12T09:43:33Z</time></trkpt><trkpt lat="44.0939752138847" lon="9.777402586164133"><ele>315.83333333333337</ele><time>2026-04-12T09:43:34Z</time></trkpt><trkpt lat="44.09390686267925" lon="9.777473476628693"><ele>317.6666666666667</ele><time>2026-04-12T09:43:35Z</time></trkpt><trkpt lat="44.093855674258265" lon="9.777548397543823"><ele>319.5</ele><time>2026-04-12T09:43:36Z</time></trkpt><trkpt lat="44.09380739191631" lon="9.777642182413695"><ele>321.3333333333333</ele><time>2026-04-12T09:43:37Z</time></trkpt><trkpt lat="44.093726523424515" lon="9.777677119400481"><ele>323.16666666666663</ele><time>2026-04-12T09:43:38Z</time></trkpt><trkpt lat="44.09363868331205" lon="9.777713023245004"><ele>325.0</ele><time>2026-04-12T09:43:39Z</time></trkpt><trkpt lat="44.09356281108675" lon="9.777753247965647"><ele>325.0</ele><time>2026-04-12T09:43:40Z</time></trkpt><trkpt lat="44.093495269341645" lon="9.777833685520227"><ele>325.0</ele><time>2026-04-12T09:43:41Z</time></trkpt><trkpt lat="44.093438260293524" lon="9.777940686206446"><ele>325.0</ele><time>2026-04-12T09:43:42Z</time></trkpt><trkpt lat="44.093390197638456" lon="9.778078586870256"><ele>325.0</ele><time>2026-04-12T09:43:43Z</time></trkpt><trkpt lat="44.09334820596818" lon="9.778212483560397"><ele>325.0</ele><time>2026-04-12T09:43:44Z</time></trkpt><trkpt lat="44.093272602804895" lon="9.778310750403863"><ele>328.0</ele><time>2026-04-12T09:43:45Z</time></trkpt><trkpt lat="44.09322006837466" lon="9.778392120525757"><ele>331.0</ele><time>2026-04-12T09:43:46Z</time></trkpt><trkpt lat="44.093153031687436" lon="9.778403945974292"><ele>334.0</ele><time>2026-04-12T09:43:47Z</time></trkpt><trkpt lat="44.09305387291983" lon="9.77848664687977"><ele>337.0</ele><time>2026-04-12T09:43:49.001Z</time></trkpt><trkpt lat="44.093044216999004" lon="9.778657884959149"><ele>340.0</ele><time>2026-04-12T09:43:50.001Z</time></trkpt><trkpt lat="44.093019393204884" lon="9.778805788127988"><ele>340.0</ele><time>2026-04-12T09:43:51.001Z</time></trkpt><trkpt lat="44.09300832438293" lon="9.778961958266516"><ele>340.0</ele><time>2026-04-12T09:43:52.001Z</time></trkpt><trkpt lat="44.092994219514246" lon="9.77909596451061"><ele>340.0</ele><time>2026-04-12T09:43:53.001Z</time></trkpt><trkpt lat="44.092998940803454" lon="9.779216205698173"><ele>340.0</ele><time>2026-04-12T09:43:54.001Z</time></trkpt><trkpt lat="44.09304288340979" lon="9.779324962777475"><ele>340.0</ele><time>2026-04-12T09:43:55.001Z</time></trkpt><trkpt lat="44.09311630305534" lon="9.77941117745367"><ele>337.8</ele><time>2026-04-12T09:43:56.001Z</time></trkpt><trkpt lat="44.09321662599587" lon="9.779470680736146"><ele>335.6</ele><time>2026-04-12T09:43:57.001Z</time></trkpt><trkpt lat="44.09332823915136" lon="9.779522958023097"><ele>333.4</ele><time>2026-04-12T09:43:58.001Z</time></trkpt><trkpt lat="44.093440111983085" lon="9.779563716159888"><ele>331.2</ele><time>2026-04-12T09:43:59.001Z</time></trkpt><trkpt lat="44.09352618600095" lon="9.779640277421839"><ele>329.0</ele><time>2026-04-12T09:44:00.001Z</time></trkpt><trkpt lat="44.09359276531282" lon="9.779715055667113"><ele>329.0</ele><time>2026-04-12T09:44:01.001Z</time></trkpt><trkpt lat="44.093644849395126" lon="9.77979334768784"><ele>329.0</ele><time>2026-04-12T09:44:02.001Z</time></trkpt><trkpt lat="44.09363097379308" lon="9.779927340922633"><ele>329.0</ele><time>2026-04-12T09:44:03.001Z</time></trkpt><trkpt lat="44.09360242605996" lon="9.780039077356289"><ele>329.0</ele><time>2026-04-12T09:44:04.001Z</time></trkpt><trkpt lat="44.093551473500256" lon="9.78017098067749"><ele>329.0</ele><time>2026-04-12T09:44:05.001Z</time></trkpt><trkpt lat="44.093500743421224" lon="9.780317816049946"><ele>326.4</ele><time>2026-04-12T09:44:06.001Z</time></trkpt><trkpt lat="44.09345146737655" lon="9.780461577407522"><ele>323.79999999999995</ele><time>2026-04-12T09:44:07.001Z</time></trkpt><trkpt lat="44.093404236546114" lon="9.780587838800495"><ele>321.20000000000005</ele><time>2026-04-12T09:44:08.001Z</time></trkpt><trkpt lat="44.09335795854578" lon="9.780700133242958"><ele>318.6</ele><time>2026-04-12T09:44:09.001Z</time></trkpt><trkpt lat="44.09327564809655" lon="9.780767195653599"><ele>316.0</ele><time>2026-04-12T09:44:10.001Z</time></trkpt><trkpt lat="44.09317688192294" lon="9.78078305766308"><ele>316.0</ele><time>2026-04-12T09:44:11.001Z</time></trkpt><trkpt lat="44.09307046922156" lon="9.78074840831114"><ele>316.0</ele><time>2026-04-12T09:44:12.001Z</time></trkpt><trkpt lat="44.092963271828104" lon="9.78069213684299"><ele>316.0</ele><time>2026-04-12T09:44:13.001Z</time></trkpt><trkpt lat="44.09285423564403" lon="9.780627228772955"><ele>316.0</ele><time>2026-04-12T09:44:14.001Z</time></trkpt><trkpt lat="44.09275440447063" lon="9.78057438060867"><ele>316.0</ele><time>2026-04-12T09:44:15.001Z</time></trkpt><trkpt lat="44.09265946116896" lon="9.780545077292775"><ele>316.0</ele><time>2026-04-12T09:44:16.001Z</time></trkpt><trkpt lat="44.09256750618796" lon="9.780539640553174"><ele>316.0</ele><time>2026-04-12T09:44:17.001Z</time></trkpt><trkpt lat="44.09248499178889" lon="9.78057253559394"><ele>316.0</ele><time>2026-04-12T09:44:18.001Z</time></trkpt><trkpt lat="44.092419754512896" lon="9.780660248804192"><ele>316.0</ele><time>2026-04-12T09:44:19.001Z</time></trkpt><trkpt lat="44.09238074304567" lon="9.780768054885446"><ele>316.0</ele><time>2026-04-12T09:44:20.001Z</time></trkpt><trkpt lat="44.092374440171575" lon="9.78089930245353"><ele>316.0</ele><time>2026-04-12T09:44:21.001Z</time></trkpt><trkpt lat="44.09240441921759" lon="9.781044986955804"><ele>316.0</ele><time>2026-04-12T09:44:22.001Z</time></trkpt><trkpt lat="44.092465252340595" lon="9.781192719319737"><ele>316.0</ele><time>2026-04-12T09:44:23.001Z</time></trkpt><trkpt lat="44.09252483472981" lon="9.781338222159924"><ele>316.0</ele><time>2026-04-12T09:44:24.001Z</time></trkpt><trkpt lat="44.092584199422284" lon="9.781479327753118"><ele>316.0</ele><time>2026-04-12T09:44:25.001Z</time></trkpt><trkpt lat="44.092631461929834" lon="9.781606131639494"><ele>316.0</ele><time>2026-04-12T09:44:26.001Z</time></trkpt><trkpt lat="44.09265822098509" lon="9.781735858557719"><ele>316.0</ele><time>2026-04-12T09:44:27.001Z</time></trkpt><trkpt lat="44.09264409212056" lon="9.781876778999504"><ele>316.0</ele><time>2026-04-12T09:44:28.001Z</time></trkpt><trkpt lat="44.09260301236353" lon="9.782023840361065"><ele>316.0</ele><time>2026-04-12T09:44:29.001Z</time></trkpt><trkpt lat="44.09254258919875" lon="9.782177935802768"><ele>315.5</ele><time>2026-04-12T09:44:30.001Z</time></trkpt><trkpt lat="44.09248295018929" lon="9.782334961091003"><ele>315.0</ele><time>2026-04-12T09:44:31.001Z</time></trkpt><trkpt lat="44.09242729247102" lon="9.782482047226106"><ele>314.5</ele><time>2026-04-12T09:44:32.001Z</time></trkpt><trkpt lat="44.09236410517838" lon="9.782611798772002"><ele>314.0</ele><time>2026-04-12T09:44:33.001Z</time></trkpt><trkpt lat="44.09228491951026" lon="9.782715452903295"><ele>308.0</ele><time>2026-04-12T09:44:34.001Z</time></trkpt><trkpt lat="44.09217830095371" lon="9.782801636357012"><ele>302.0</ele><time>2026-04-12T09:44:35.001Z</time></trkpt><trkpt lat="44.09205681402219" lon="9.782858262202375"><ele>296.0</ele><time>2026-04-12T09:44:36.001Z</time></trkpt><trkpt lat="44.09191874886234" lon="9.782898080800098"><ele>290.0</ele><time>2026-04-12T09:44:37.001Z</time></trkpt><trkpt lat="44.091788203688715" lon="9.782929487377938"><ele>290.0</ele><time>2026-04-12T09:44:38.001Z</time></trkpt><trkpt lat="44.09167286282495" lon="9.782961865079724"><ele>290.0</ele><time>2026-04-12T09:44:39.001Z</time></trkpt><trkpt lat="44.09156589752033" lon="9.783000760333808"><ele>290.0</ele><time>2026-04-12T09:44:40.001Z</time></trkpt><trkpt lat="44.09146708656207" lon="9.78304057145971"><ele>290.0</ele><time>2026-04-12T09:44:41.001Z</time></trkpt><trkpt lat="44.09137817286668" lon="9.783065243377035"><ele>290.0</ele><time>2026-04-12T09:44:42.001Z</time></trkpt><trkpt lat="44.09130511100311" lon="9.78305971267296"><ele>293.2</ele><time>2026-04-12T09:44:43.001Z</time></trkpt><trkpt lat="44.091249860212926" lon="9.783013836954687"><ele>296.4</ele><time>2026-04-12T09:44:44.001Z</time></trkpt><trkpt lat="44.09118715417428" lon="9.78290883142624"><ele>299.6</ele><time>2026-04-12T09:44:46.001Z</time></trkpt><trkpt lat="44.09116949792315" lon="9.782774813952036"><ele>302.8</ele><time>2026-04-12T09:44:50.001Z</time></trkpt><trkpt lat="44.091183205593346" lon="9.782645094166705"><ele>306.0</ele><time>2026-04-12T09:44:51.001Z</time></trkpt><trkpt lat="44.09116534027061" lon="9.782491296809868"><ele>309.5</ele><time>2026-04-12T09:44:52.001Z</time></trkpt><trkpt lat="44.09112130552561" lon="9.782339705147628"><ele>313.0</ele><time>2026-04-12T09:44:53.001Z</time></trkpt><trkpt lat="44.091089089155" lon="9.782173623235467"><ele>316.5</ele><time>2026-04-12T09:44:54.001Z</time></trkpt><trkpt lat="44.091023928344164" lon="9.781963736998199"><ele>320.0</ele><time>2026-04-12T09:44:55.001Z</time></trkpt><trkpt lat="44.090963736989885" lon="9.781748569566469"><ele>325.0</ele><time>2026-04-12T09:44:56.001Z</time></trkpt><trkpt lat="44.090897418877496" lon="9.781521619502888"><ele>330.0</ele><time>2026-04-12T09:44:57.012Z</time></trkpt><trkpt lat="44.090836650199435" lon="9.7813055997014"><ele>335.0</ele><time>2026-04-12T09:44:58.013Z</time></trkpt><trkpt lat="44.09077724497985" lon="9.781093435510497"><ele>346.33333333333337</ele><time>2026-04-12T09:44:59.011Z</time></trkpt><trkpt lat="44.09071563726126" lon="9.780875649337169"><ele>357.6666666666667</ele><time>2026-04-12T09:45:00.015Z</time></trkpt><trkpt lat="44.09070337697889" lon="9.780607445991961"><ele>369.0</ele><time>2026-04-12T09:45:01.012Z</time></trkpt><trkpt lat="44.09065434336562" lon="9.780385088850766"><ele>444.0</ele><time>2026-04-12T09:45:02.015Z</time></trkpt><trkpt lat="44.09006347441626" lon="9.77847095015194"><ele>458.5</ele><time>2026-04-12T09:45:05.359Z</time></trkpt><trkpt lat="44.08990520246796" lon="9.777886647239935"><ele>473.0</ele><time>2026-04-12T09:45:06.359Z</time></trkpt><trkpt lat="44.08974486499516" lon="9.777301779339473"><ele>493.5</ele><time>2026-04-12T09:45:07.361Z</time></trkpt><trkpt lat="44.08958526986546" lon="9.776719339149263"><ele>514.0</ele><time>2026-04-12T09:45:08.359Z</time></trkpt><trkpt lat="44.089426371550914" lon="9.776133901465197"><ele>521.5</ele><time>2026-04-12T09:45:09.361Z</time></trkpt><trkpt lat="44.0893827" lon="9.775973"><ele>529.0</ele><time>2026-04-12T09:45:10.361Z</time></trkpt><trkpt lat="44.087616051588284" lon="9.769947677859822"><ele>456.33333333333337</ele><time>2026-04-12T09:45:50.002Z</time></trkpt><trkpt lat="44.08755977900024" lon="9.76975245272047"><ele>383.6666666666667</ele><time>2026-04-12T09:45:51.002Z</time></trkpt><trkpt lat="44.0875919679162" lon="9.769371878649375"><ele>311.0</ele><time>2026-04-12T09:45:52.002Z</time></trkpt><trkpt lat="44.087558912805754" lon="9.769196210221379"><ele>307.25</ele><time>2026-04-12T09:45:53.002Z</time></trkpt><trkpt lat="44.08755388421269" lon="9.769006551613609"><ele>303.5</ele><time>2026-04-12T09:45:54.002Z</time></trkpt><trkpt lat="44.08756582150922" lon="9.76880826165389"><ele>299.75</ele><time>2026-04-12T09:45:55.002Z</time></trkpt><trkpt lat="44.087598955046005" lon="9.768607772694821"><ele>296.0</ele><time>2026-04-12T09:45:56.001Z</time></trkpt><trkpt lat="44.08765714505392" lon="9.768413029625854"><ele>292.33333333333337</ele><time>2026-04-12T09:45:57.001Z</time></trkpt><trkpt lat="44.0877482746404" lon="9.768244458193234"><ele>288.6666666666667</ele><time>2026-04-12T09:45:58.001Z</time></trkpt><trkpt lat="44.087850347170736" lon="9.768081661483652"><ele>285.0</ele><time>2026-04-12T09:45:59.001Z</time></trkpt><trkpt lat="44.087957242828125" lon="9.767937804994553"><ele>285.0</ele><time>2026-04-12T09:46:00.001Z</time></trkpt><trkpt lat="44.08805017629595" lon="9.767798811329522"><ele>285.0</ele><time>2026-04-12T09:46:01.001Z</time></trkpt><trkpt lat="44.08813111512344" lon="9.767656500337472"><ele>285.0</ele><time>2026-04-12T09:46:02.001Z</time></trkpt><trkpt lat="44.08817659200996" lon="9.767494114470809"><ele>285.0</ele><time>2026-04-12T09:46:03.001Z</time></trkpt><trkpt lat="44.08817698262737" lon="9.76732746711844"><ele>283.25</ele><time>2026-04-12T09:46:04.001Z</time></trkpt><trkpt lat="44.08813939692208" lon="9.767160873265006"><ele>281.5</ele><time>2026-04-12T09:46:05Z</time></trkpt><trkpt lat="44.088062286102875" lon="9.767007161619146"><ele>279.75</ele><time>2026-04-12T09:46:06Z</time></trkpt><trkpt lat="44.08796032200003" lon="9.76688279442544"><ele>278.0</ele><time>2026-04-12T09:46:07Z</time></trkpt><trkpt lat="44.087840927014945" lon="9.76679115538293"><ele>282.0</ele><time>2026-04-12T09:46:08Z</time></trkpt><trkpt lat="44.08771649497073" lon="9.766742687970826"><ele>286.0</ele><time>2026-04-12T09:46:09Z</time></trkpt><trkpt lat="44.08759906325462" lon="9.766691813388"><ele>290.0</ele><time>2026-04-12T09:46:10Z</time></trkpt><trkpt lat="44.08750253257011" lon="9.766599288618949"><ele>294.0</ele><time>2026-04-12T09:46:11Z</time></trkpt><trkpt lat="44.087437681151854" lon="9.766465165122831"><ele>293.5</ele><time>2026-04-12T09:46:12Z</time></trkpt><trkpt lat="44.08740174300766" lon="9.766316638484481"><ele>293.0</ele><time>2026-04-12T09:46:13Z</time></trkpt><trkpt lat="44.08738596417297" lon="9.766158643438732"><ele>292.5</ele><time>2026-04-12T09:46:14Z</time></trkpt><trkpt lat="44.08740978668432" lon="9.765987555511046"><ele>292.0</ele><time>2026-04-12T09:46:15Z</time></trkpt><trkpt lat="44.087466926587126" lon="9.765823329063396"><ele>292.0</ele><time>2026-04-12T09:46:16Z</time></trkpt><trkpt lat="44.08755180930015" lon="9.765671396976225"><ele>292.0</ele><time>2026-04-12T09:46:17Z</time></trkpt><trkpt lat="44.08764171724978" lon="9.765511255141156"><ele>292.0</ele><time>2026-04-12T09:46:18Z</time></trkpt><trkpt lat="44.087732946046884" lon="9.765350230185781"><ele>292.0</ele><time>2026-04-12T09:46:19Z</time></trkpt><trkpt lat="44.08783114113771" lon="9.765196154925647"><ele>293.5</ele><time>2026-04-12T09:46:20Z</time></trkpt><trkpt lat="44.08794241748591" lon="9.765065741497633"><ele>295.0</ele><time>2026-04-12T09:46:21Z</time></trkpt><trkpt lat="44.08806416474818" lon="9.764944271424445"><ele>296.5</ele><time>2026-04-12T09:46:22Z</time></trkpt><trkpt lat="44.08819416946548" lon="9.764849878175896"><ele>298.0</ele><time>2026-04-12T09:46:23Z</time></trkpt><trkpt lat="44.08831269942061" lon="9.764773379291915"><ele>298.0</ele><time>2026-04-12T09:46:24Z</time></trkpt><trkpt lat="44.08841688184652" lon="9.764673342053248"><ele>298.0</ele><time>2026-04-12T09:46:25Z</time></trkpt><trkpt lat="44.088491869899954" lon="9.764520396407422"><ele>298.0</ele><time>2026-04-12T09:46:26Z</time></trkpt><trkpt lat="44.08853587414445" lon="9.76434387360961"><ele>298.0</ele><time>2026-04-12T09:46:27Z</time></trkpt><trkpt lat="44.088544242992846" lon="9.764140070885198"><ele>295.0</ele><time>2026-04-12T09:46:28Z</time></trkpt><trkpt lat="44.08853011204158" lon="9.763938074223251"><ele>292.0</ele><time>2026-04-12T09:46:29Z</time></trkpt><trkpt lat="44.08850677012829" lon="9.763739013212438"><ele>289.0</ele><time>2026-04-12T09:46:30Z</time></trkpt><trkpt lat="44.0884792262076" lon="9.763553372803628"><ele>286.0</ele><time>2026-04-12T09:46:31.001Z</time></trkpt><trkpt lat="44.0884648794344" lon="9.763379187761412"><ele>286.0</ele><time>2026-04-12T09:46:32.001Z</time></trkpt><trkpt lat="44.08845879766711" lon="9.763212733607913"><ele>286.0</ele><time>2026-04-12T09:46:33.001Z</time></trkpt><trkpt lat="44.08847147267914" lon="9.763059404852285"><ele>286.0</ele><time>2026-04-12T09:46:34.001Z</time></trkpt><trkpt lat="44.08851159102357" lon="9.762919840134549"><ele>286.0</ele><time>2026-04-12T09:46:35.001Z</time></trkpt><trkpt lat="44.08857539064666" lon="9.762786968441755"><ele>282.25</ele><time>2026-04-12T09:46:36.001Z</time></trkpt><trkpt lat="44.088668934037415" lon="9.762679848061769"><ele>278.5</ele><time>2026-04-12T09:46:37.001Z</time></trkpt><trkpt lat="44.08878722587" lon="9.7626116647954"><ele>274.75</ele><time>2026-04-12T09:46:38.001Z</time></trkpt><trkpt lat="44.08891296457223" lon="9.762575204047097"><ele>271.0</ele><time>2026-04-12T09:46:39.001Z</time></trkpt><trkpt lat="44.08904857616564" lon="9.762578147427984"><ele>274.0</ele><time>2026-04-12T09:46:40.001Z</time></trkpt><trkpt lat="44.08919066501806" lon="9.762599475911594"><ele>277.0</ele><time>2026-04-12T09:46:41.001Z</time></trkpt><trkpt lat="44.089331030491834" lon="9.762610953609963"><ele>280.0</ele><time>2026-04-12T09:46:42.001Z</time></trkpt><trkpt lat="44.089477213851886" lon="9.762617853085969"><ele>283.0</ele><time>2026-04-12T09:46:43.001Z</time></trkpt><trkpt lat="44.089627725552496" lon="9.7626186587875"><ele>283.0</ele><time>2026-04-12T09:46:44.001Z</time></trkpt><trkpt lat="44.08979039509596" lon="9.762627261085276"><ele>283.0</ele><time>2026-04-12T09:46:45.001Z</time></trkpt><trkpt lat="44.08995010007242" lon="9.762628511060317"><ele>283.0</ele><time>2026-04-12T09:46:46.001Z</time></trkpt><trkpt lat="44.090109737094366" lon="9.76263060463306"><ele>281.0</ele><time>2026-04-12T09:46:47.001Z</time></trkpt><trkpt lat="44.09027014475916" lon="9.762643819323005"><ele>279.0</ele><time>2026-04-12T09:46:48.001Z</time></trkpt><trkpt lat="44.09041779179115" lon="9.762655102471667"><ele>277.0</ele><time>2026-04-12T09:46:49.001Z</time></trkpt><trkpt lat="44.09056456256717" lon="9.762664482654676"><ele>277.0</ele><time>2026-04-12T09:46:50.001Z</time></trkpt><trkpt lat="44.0907089322712" lon="9.762664558423536"><ele>277.0</ele><time>2026-04-12T09:46:51.001Z</time></trkpt><trkpt lat="44.09085004658195" lon="9.762675544009367"><ele>277.0</ele><time>2026-04-12T09:46:52.001Z</time></trkpt><trkpt lat="44.09098072090282" lon="9.762687138513957"><ele>277.0</ele><time>2026-04-12T09:46:53.001Z</time></trkpt><trkpt lat="44.09110531084358" lon="9.76271314254845"><ele>278.75</ele><time>2026-04-12T09:46:54.001Z</time></trkpt><trkpt lat="44.09121715959546" lon="9.762702753457694"><ele>280.5</ele><time>2026-04-12T09:46:55.001Z</time></trkpt><trkpt lat="44.09133152619767" lon="9.762657695055172"><ele>282.25</ele><time>2026-04-12T09:46:56.001Z</time></trkpt><trkpt lat="44.09142898490913" lon="9.762556864754174"><ele>284.0</ele><time>2026-04-12T09:46:57.001Z</time></trkpt><trkpt lat="44.0915110473061" lon="9.762406194579935"><ele>284.0</ele><time>2026-04-12T09:46:58.001Z</time></trkpt><trkpt lat="44.09156341410949" lon="9.762212025899322"><ele>284.0</ele><time>2026-04-12T09:46:59.001Z</time></trkpt><trkpt lat="44.091585754991776" lon="9.761997049647496"><ele>284.0</ele><time>2026-04-12T09:47:00.001Z</time></trkpt><trkpt lat="44.091583179328886" lon="9.76179831478282"><ele>284.0</ele><time>2026-04-12T09:47:01.001Z</time></trkpt><trkpt lat="44.09158675345594" lon="9.761602551261662"><ele>285.75</ele><time>2026-04-12T09:47:02.001Z</time></trkpt><trkpt lat="44.0916185470705" lon="9.761430522389348"><ele>287.5</ele><time>2026-04-12T09:47:03.001Z</time></trkpt><trkpt lat="44.09169631194714" lon="9.761259863720046"><ele>289.25</ele><time>2026-04-12T09:47:04.001Z</time></trkpt><trkpt lat="44.09180335071315" lon="9.76113600695797"><ele>291.0</ele><time>2026-04-12T09:47:05.001Z</time></trkpt><trkpt lat="44.09193483349633" lon="9.761031940476208"><ele>279.3333333333333</ele><time>2026-04-12T09:47:06.001Z</time></trkpt><trkpt lat="44.09208498531841" lon="9.760948969481605"><ele>267.66666666666663</ele><time>2026-04-12T09:47:07.001Z</time></trkpt><trkpt lat="44.09224956641378" lon="9.760885232642945"><ele>256.0</ele><time>2026-04-12T09:47:08.001Z</time></trkpt><trkpt lat="44.092419509496786" lon="9.760833580310956"><ele>269.3333333333333</ele><time>2026-04-12T09:47:09.001Z</time></trkpt><trkpt lat="44.09257563465909" lon="9.760769137495188"><ele>282.6666666666667</ele><time>2026-04-12T09:47:10.001Z</time></trkpt><trkpt lat="44.09271210123907" lon="9.760674342818298"><ele>296.0</ele><time>2026-04-12T09:47:11.001Z</time></trkpt><trkpt lat="44.09283026923322" lon="9.76050691677136"><ele>296.0</ele><time>2026-04-12T09:47:12.001Z</time></trkpt><trkpt lat="44.09292731377837" lon="9.76029954713025"><ele>296.0</ele><time>2026-04-12T09:47:13.001Z</time></trkpt><trkpt lat="44.09300955748272" lon="9.760068772277357"><ele>296.0</ele><time>2026-04-12T09:47:14.001Z</time></trkpt><trkpt lat="44.0931021792742" lon="9.759844357103455"><ele>298.6666666666667</ele><time>2026-04-12T09:47:15.001Z</time></trkpt><trkpt lat="44.09320412380061" lon="9.75961703222983"><ele>301.3333333333333</ele><time>2026-04-12T09:47:16.001Z</time></trkpt><trkpt lat="44.093311355462696" lon="9.759380543863653"><ele>304.0</ele><time>2026-04-12T09:47:17.001Z</time></trkpt><trkpt lat="44.09341253516151" lon="9.759162069804589"><ele>297.3333333333333</ele><time>2026-04-12T09:47:18.001Z</time></trkpt><trkpt lat="44.09349632304956" lon="9.758938566988325"><ele>290.6666666666667</ele><time>2026-04-12T09:47:19.001Z</time></trkpt><trkpt lat="44.09357818733778" lon="9.758706901316211"><ele>284.0</ele><time>2026-04-12T09:47:20.001Z</time></trkpt><trkpt lat="44.09366126679887" lon="9.758472938965518"><ele>274.6666666666667</ele><time>2026-04-12T09:47:21.001Z</time></trkpt><trkpt lat="44.09374583801537" lon="9.75824132354806"><ele>265.3333333333333</ele><time>2026-04-12T09:47:22.001Z</time></trkpt><trkpt lat="44.093829332454796" lon="9.758008130995908"><ele>256.0</ele><time>2026-04-12T09:47:23.001Z</time></trkpt><trkpt lat="44.09391595537022" lon="9.757770555849197"><ele>249.0</ele><time>2026-04-12T09:47:24.015Z</time></trkpt><trkpt lat="44.09400100918256" lon="9.757535587085373"><ele>242.0</ele><time>2026-04-12T09:47:25.016Z</time></trkpt><trkpt lat="44.09408599881131" lon="9.757300989037383"><ele>235.0</ele><time>2026-04-12T09:47:26.015Z</time></trkpt><trkpt lat="44.09416956427506" lon="9.757066075416889"><ele>289.0</ele><time>2026-04-12T09:47:27.016Z</time></trkpt><trkpt lat="44.094539377879435" lon="9.755144147211457"><ele>289.0</ele><time>2026-04-12T09:47:35.001Z</time></trkpt><trkpt lat="44.094561455953865" lon="9.75493762320411"><ele>289.0</ele><time>2026-04-12T09:47:36.001Z</time></trkpt><trkpt lat="44.094577394426544" lon="9.754765096240483"><ele>289.0</ele><time>2026-04-12T09:47:37.001Z</time></trkpt><trkpt lat="44.09459499867597" lon="9.754550390441652"><ele>289.0</ele><time>2026-04-12T09:47:38.001Z</time></trkpt><trkpt lat="44.0946011132002" lon="9.754331689979976"><ele>284.3333333333333</ele><time>2026-04-12T09:47:39.001Z</time></trkpt><trkpt lat="44.0946035141516" lon="9.754111254664503"><ele>279.6666666666667</ele><time>2026-04-12T09:47:40.001Z</time></trkpt><trkpt lat="44.094595074855775" lon="9.75388994106542"><ele>275.0</ele><time>2026-04-12T09:47:41.001Z</time></trkpt><trkpt lat="44.09457910829764" lon="9.753660775693646"><ele>271.0</ele><time>2026-04-12T09:47:42.001Z</time></trkpt><trkpt lat="44.0945621394007" lon="9.753427916815392"><ele>267.0</ele><time>2026-04-12T09:47:43.001Z</time></trkpt><trkpt lat="44.09453935905423" lon="9.753200013599706"><ele>263.0</ele><time>2026-04-12T09:47:44.001Z</time></trkpt><trkpt lat="44.09451735428651" lon="9.752982389657449"><ele>263.0</ele><time>2026-04-12T09:47:45.001Z</time></trkpt><trkpt lat="44.094487452601676" lon="9.752772365938867"><ele>263.0</ele><time>2026-04-12T09:47:46.001Z</time></trkpt><trkpt lat="44.09446616304553" lon="9.752564756914298"><ele>263.0</ele><time>2026-04-12T09:47:47.001Z</time></trkpt><trkpt lat="44.09445257667474" lon="9.752359854220986"><ele>261.0</ele><time>2026-04-12T09:47:48.001Z</time></trkpt><trkpt lat="44.09444795853486" lon="9.75214981392191"><ele>259.0</ele><time>2026-04-12T09:47:49.001Z</time></trkpt><trkpt lat="44.0944594145739" lon="9.751934735289629"><ele>257.0</ele><time>2026-04-12T09:47:50.001Z</time></trkpt><trkpt lat="44.09447752861041" lon="9.751723192734062"><ele>256.5</ele><time>2026-04-12T09:47:51.001Z</time></trkpt><trkpt lat="44.094494806784674" lon="9.75152349121893"><ele>256.0</ele><time>2026-04-12T09:47:52.001Z</time></trkpt><trkpt lat="44.094512726844115" lon="9.751325693969582"><ele>255.5</ele><time>2026-04-12T09:47:53.001Z</time></trkpt><trkpt lat="44.09452581210553" lon="9.751140130238978"><ele>255.0</ele><time>2026-04-12T09:47:54.001Z</time></trkpt><trkpt lat="44.09453662326859" lon="9.75094915310225"><ele>252.5</ele><time>2026-04-12T09:47:55.001Z</time></trkpt><trkpt lat="44.094549231674776" lon="9.750755990355588"><ele>250.0</ele><time>2026-04-12T09:47:56.001Z</time></trkpt><trkpt lat="44.09456201523165" lon="9.750573632240513"><ele>247.5</ele><time>2026-04-12T09:47:57.001Z</time></trkpt><trkpt lat="44.09456779302178" lon="9.750395831178267"><ele>245.0</ele><time>2026-04-12T09:47:58.001Z</time></trkpt><trkpt lat="44.09455657208615" lon="9.750213141459357"><ele>244.75</ele><time>2026-04-12T09:47:59.001Z</time></trkpt><trkpt lat="44.09452366289249" lon="9.750037848568004"><ele>244.5</ele><time>2026-04-12T09:48:00.001Z</time></trkpt><trkpt lat="44.09448175534418" lon="9.749852145979968"><ele>244.25</ele><time>2026-04-12T09:48:01.001Z</time></trkpt><trkpt lat="44.09443334526146" lon="9.749657192373078"><ele>244.0</ele><time>2026-04-12T09:48:02.001Z</time></trkpt><trkpt lat="44.094377900919035" lon="9.749456054524458"><ele>247.33333333333331</ele><time>2026-04-12T09:48:03.001Z</time></trkpt><trkpt lat="44.094331651082356" lon="9.749261914142172"><ele>250.66666666666669</ele><time>2026-04-12T09:48:04.001Z</time></trkpt><trkpt lat="44.094280064943796" lon="9.749059578975679"><ele>254.0</ele><time>2026-04-12T09:48:05.001Z</time></trkpt><trkpt lat="44.0942327579155" lon="9.748855675112539"><ele>254.0</ele><time>2026-04-12T09:48:06.001Z</time></trkpt><trkpt lat="44.094180500295245" lon="9.748648354555025"><ele>254.0</ele><time>2026-04-12T09:48:07.001Z</time></trkpt><trkpt lat="44.094131836094405" lon="9.748435670211387"><ele>254.0</ele><time>2026-04-12T09:48:08.001Z</time></trkpt><trkpt lat="44.094076919821575" lon="9.748228003946709"><ele>239.66666666666669</ele><time>2026-04-12T09:48:09.001Z</time></trkpt><trkpt lat="44.094030473135355" lon="9.748017704980244"><ele>225.33333333333331</ele><time>2026-04-12T09:48:10.001Z</time></trkpt><trkpt lat="44.09398840897739" lon="9.747816344580563"><ele>211.0</ele><time>2026-04-12T09:48:11.001Z</time></trkpt><trkpt lat="44.093954083442085" lon="9.747621264069766"><ele>211.0</ele><time>2026-04-12T09:48:12.001Z</time></trkpt><trkpt lat="44.09395422742389" lon="9.747406554318644"><ele>211.0</ele><time>2026-04-12T09:48:13.001Z</time></trkpt><trkpt lat="44.093979601408414" lon="9.747194405676888"><ele>211.0</ele><time>2026-04-12T09:48:14.001Z</time></trkpt><trkpt lat="44.094034236711856" lon="9.746987776333253"><ele>221.33333333333331</ele><time>2026-04-12T09:48:15.001Z</time></trkpt><trkpt lat="44.094114412934466" lon="9.746788329207837"><ele>231.66666666666669</ele><time>2026-04-12T09:48:16.001Z</time></trkpt><trkpt lat="44.09422397723881" lon="9.746604823073701"><ele>242.0</ele><time>2026-04-12T09:48:17.001Z</time></trkpt><trkpt lat="44.09435247784234" lon="9.746451232905601"><ele>242.0</ele><time>2026-04-12T09:48:18.001Z</time></trkpt><trkpt lat="44.09446131002076" lon="9.746284987226893"><ele>242.0</ele><time>2026-04-12T09:48:19.001Z</time></trkpt><trkpt lat="44.09453629152679" lon="9.746081048829902"><ele>242.0</ele><time>2026-04-12T09:48:20.001Z</time></trkpt><trkpt lat="44.09458335750488" lon="9.745847908199625"><ele>233.66666666666669</ele><time>2026-04-12T09:48:21.001Z</time></trkpt><trkpt lat="44.09459291158237" lon="9.745589796852704"><ele>225.33333333333331</ele><time>2026-04-12T09:48:22.001Z</time></trkpt><trkpt lat="44.09457869702022" lon="9.745330253475087"><ele>217.0</ele><time>2026-04-12T09:48:23.001Z</time></trkpt><trkpt lat="44.09455331288523" lon="9.745072069120523"><ele>214.33333333333331</ele><time>2026-04-12T09:48:24.001Z</time></trkpt><trkpt lat="44.094538277195724" lon="9.744814645075351"><ele>211.66666666666669</ele><time>2026-04-12T09:48:25.001Z</time></trkpt><trkpt lat="44.09452168184313" lon="9.744561214524127"><ele>209.0</ele><time>2026-04-12T09:48:26.001Z</time></trkpt><trkpt lat="44.09448185252219" lon="9.744308850352308"><ele>215.33333333333334</ele><time>2026-04-12T09:48:27.001Z</time></trkpt><trkpt lat="44.094428486751" lon="9.744079528448754"><ele>221.66666666666669</ele><time>2026-04-12T09:48:28.001Z</time></trkpt><trkpt lat="44.094379861245834" lon="9.743858794797646"><ele>228.0</ele><time>2026-04-12T09:48:29.001Z</time></trkpt><trkpt lat="44.09433737891961" lon="9.743656312385239"><ele>229.25</ele><time>2026-04-12T09:48:30.001Z</time></trkpt><trkpt lat="44.09430435038086" lon="9.743457258308718"><ele>230.5</ele><time>2026-04-12T09:48:31.001Z</time></trkpt><trkpt lat="44.09429635813446" lon="9.743254908599962"><ele>231.75</ele><time>2026-04-12T09:48:32.001Z</time></trkpt><trkpt lat="44.09431778836024" lon="9.743049508025296"><ele>233.0</ele><time>2026-04-12T09:48:33.001Z</time></trkpt><trkpt lat="44.094366005883465" lon="9.742846184356006"><ele>228.75</ele><time>2026-04-12T09:48:34.001Z</time></trkpt><trkpt lat="44.09444630351158" lon="9.742670761698292"><ele>224.5</ele><time>2026-04-12T09:48:35.001Z</time></trkpt><trkpt lat="44.09453866197628" lon="9.742518830287294"><ele>220.25</ele><time>2026-04-12T09:48:36.001Z</time></trkpt><trkpt lat="44.09465702129645" lon="9.74239504434276"><ele>216.0</ele><time>2026-04-12T09:48:37.001Z</time></trkpt><trkpt lat="44.09478640583891" lon="9.742299631934573"><ele>222.0</ele><time>2026-04-12T09:48:38.001Z</time></trkpt><trkpt lat="44.09493035084876" lon="9.742240158774147"><ele>228.0</ele><time>2026-04-12T09:48:39.001Z</time></trkpt><trkpt lat="44.09507887988908" lon="9.742220932431538"><ele>234.0</ele><time>2026-04-12T09:48:40.001Z</time></trkpt><trkpt lat="44.09522030528214" lon="9.742224052126994"><ele>240.0</ele><time>2026-04-12T09:48:41.001Z</time></trkpt><trkpt lat="44.09537285552219" lon="9.742264638809685"><ele>240.0</ele><time>2026-04-12T09:48:42.001Z</time></trkpt><trkpt lat="44.095516541785805" lon="9.742310731021394"><ele>240.0</ele><time>2026-04-12T09:48:43.001Z</time></trkpt><trkpt lat="44.09565083468562" lon="9.742380625536473"><ele>240.0</ele><time>2026-04-12T09:48:44.001Z</time></trkpt><trkpt lat="44.09577401043976" lon="9.742429757449997"><ele>240.0</ele><time>2026-04-12T09:48:45.001Z</time></trkpt><trkpt lat="44.095887224273724" lon="9.742467535696745"><ele>238.33333333333334</ele><time>2026-04-12T09:48:46.001Z</time></trkpt><trkpt lat="44.095981775466974" lon="9.74251337929938"><ele>236.66666666666669</ele><time>2026-04-12T09:48:47.001Z</time></trkpt><trkpt lat="44.09605023855904" lon="9.742576897884538"><ele>235.0</ele><time>2026-04-12T09:48:48.001Z</time></trkpt><trkpt lat="44.09610131572424" lon="9.742672370692977"><ele>233.33333333333334</ele><time>2026-04-12T09:48:49.001Z</time></trkpt><trkpt lat="44.096133829120525" lon="9.74278503011109"><ele>231.66666666666669</ele><time>2026-04-12T09:48:50.001Z</time></trkpt><trkpt lat="44.096167569139546" lon="9.742896807628581"><ele>230.0</ele><time>2026-04-12T09:48:51.001Z</time></trkpt><trkpt lat="44.0962213536484" lon="9.742983297184708"><ele>231.2</ele><time>2026-04-12T09:48:52.001Z</time></trkpt><trkpt lat="44.09631372310966" lon="9.743037750594082"><ele>232.4</ele><time>2026-04-12T09:48:53.001Z</time></trkpt><trkpt lat="44.09641698485989" lon="9.743079541443898"><ele>233.60000000000002</ele><time>2026-04-12T09:48:54.001Z</time></trkpt><trkpt lat="44.09652055173465" lon="9.743121211193952"><ele>234.8</ele><time>2026-04-12T09:48:55.001Z</time></trkpt><trkpt lat="44.096613856062916" lon="9.743147657487642"><ele>236.0</ele><time>2026-04-12T09:48:56.001Z</time></trkpt><trkpt lat="44.09671324953497" lon="9.743123479630068"><ele>236.0</ele><time>2026-04-12T09:48:57.001Z</time></trkpt><trkpt lat="44.096796650921796" lon="9.743050751351573"><ele>236.00000000000003</ele><time>2026-04-12T09:48:58.001Z</time></trkpt><trkpt lat="44.09695077045991" lon="9.742896511171988"><ele>236.00000000000003</ele><time>2026-04-12T09:49:00.001Z</time></trkpt><trkpt lat="44.09702620563358" lon="9.742849602006917"><ele>236.0</ele><time>2026-04-12T09:49:01.001Z</time></trkpt><trkpt lat="44.09708849831302" lon="9.742830098692734"><ele>236.0</ele><time>2026-04-12T09:49:02.001Z</time></trkpt><trkpt lat="44.09713609489857" lon="9.742758033730592"><ele>236.00000000000003</ele><time>2026-04-12T09:49:04.001Z</time></trkpt><trkpt lat="44.09711096226134" lon="9.74263772498774"><ele>236.0</ele><time>2026-04-12T09:49:16.001Z</time></trkpt><trkpt lat="44.09700901511834" lon="9.742567941493672"><ele>236.0</ele><time>2026-04-12T09:49:18.001Z</time></trkpt><trkpt lat="44.09694645730299" lon="9.742596217657406"><ele>236.0</ele><time>2026-04-12T09:49:19.001Z</time></trkpt><trkpt lat="44.09688563386651" lon="9.742670681948976"><ele>236.00000000000003</ele><time>2026-04-12T09:49:20.001Z</time></trkpt><trkpt lat="44.09682938047289" lon="9.742754255638205"><ele>236.0</ele><time>2026-04-12T09:49:21.001Z</time></trkpt><trkpt lat="44.09675449395721" lon="9.742796438936818"><ele>236.0</ele><time>2026-04-12T09:49:22.001Z</time></trkpt><trkpt lat="44.09666617398743" lon="9.74281255605691"><ele>236.00000000000003</ele><time>2026-04-12T09:49:23.001Z</time></trkpt><trkpt lat="44.09657276368098" lon="9.742791675450736"><ele>236.00000000000003</ele><time>2026-04-12T09:49:24.001Z</time></trkpt><trkpt lat="44.09648596585748" lon="9.74273828103976"><ele>236.0</ele><time>2026-04-12T09:49:25.001Z</time></trkpt><trkpt lat="44.096419924744296" lon="9.742643097788143"><ele>236.0</ele><time>2026-04-12T09:49:26.001Z</time></trkpt><trkpt lat="44.096362863121556" lon="9.742530355621176"><ele>234.8</ele><time>2026-04-12T09:49:27.001Z</time></trkpt><trkpt lat="44.09629973773869" lon="9.742427717414374"><ele>233.60000000000002</ele><time>2026-04-12T09:49:28.001Z</time></trkpt><trkpt lat="44.09622469903924" lon="9.742341410096904"><ele>232.4</ele><time>2026-04-12T09:49:29.001Z</time></trkpt><trkpt lat="44.09613808873121" lon="9.742244545743292"><ele>231.2</ele><time>2026-04-12T09:49:30.001Z</time></trkpt><trkpt lat="44.096056407111654" lon="9.74213869748455"><ele>230.0</ele><time>2026-04-12T09:49:31.001Z</time></trkpt><trkpt lat="44.096004777647714" lon="9.742005264677546"><ele>230.0</ele><time>2026-04-12T09:49:32.001Z</time></trkpt><trkpt lat="44.095934450958865" lon="9.741894049298608"><ele>230.0</ele><time>2026-04-12T09:49:33.001Z</time></trkpt><trkpt lat="44.095880340323646" lon="9.74178145727087"><ele>230.0</ele><time>2026-04-12T09:49:34.001Z</time></trkpt><trkpt lat="44.09580608791772" lon="9.741695225448368"><ele>230.0</ele><time>2026-04-12T09:49:35.001Z</time></trkpt><trkpt lat="44.09571787962464" lon="9.74164107355396"><ele>230.0</ele><time>2026-04-12T09:49:36.001Z</time></trkpt><trkpt lat="44.09562426608019" lon="9.741608093089956"><ele>224.2</ele><time>2026-04-12T09:49:37.001Z</time></trkpt><trkpt lat="44.09551638179618" lon="9.741604844948778"><ele>218.4</ele><time>2026-04-12T09:49:38.001Z</time></trkpt><trkpt lat="44.09541140655819" lon="9.741615868591374"><ele>212.60000000000002</ele><time>2026-04-12T09:49:39.001Z</time></trkpt><trkpt lat="44.09529756263286" lon="9.741627258732194"><ele>206.8</ele><time>2026-04-12T09:49:40.001Z</time></trkpt><trkpt lat="44.095181628320226" lon="9.741599625723449"><ele>201.0</ele><time>2026-04-12T09:49:41.001Z</time></trkpt><trkpt lat="44.09508052289237" lon="9.741514949546168"><ele>201.0</ele><time>2026-04-12T09:49:42.001Z</time></trkpt><trkpt lat="44.09497753251328" lon="9.741421939069152"><ele>201.0</ele><time>2026-04-12T09:49:43.001Z</time></trkpt><trkpt lat="44.094879532133056" lon="9.74131348117075"><ele>201.0</ele><time>2026-04-12T09:49:44.001Z</time></trkpt><trkpt lat="44.09477630759394" lon="9.741219794511691"><ele>201.0</ele><time>2026-04-12T09:49:45.001Z</time></trkpt><trkpt lat="44.0946849724066" lon="9.741118279364237"><ele>199.20000000000002</ele><time>2026-04-12T09:49:46.001Z</time></trkpt><trkpt lat="44.09459341911214" lon="9.741037372462944"><ele>197.4</ele><time>2026-04-12T09:49:47.001Z</time></trkpt><trkpt lat="44.094489550838425" lon="9.740998200555529"><ele>195.6</ele><time>2026-04-12T09:49:48.001Z</time></trkpt><trkpt lat="44.09437583894624" lon="9.741017426336782"><ele>193.8</ele><time>2026-04-12T09:49:49.001Z</time></trkpt><trkpt lat="44.094266244967294" lon="9.741075976318744"><ele>192.0</ele><time>2026-04-12T09:49:50.001Z</time></trkpt><trkpt lat="44.09416915314431" lon="9.74116193911878"><ele>177.5</ele><time>2026-04-12T09:49:51.001Z</time></trkpt><trkpt lat="44.09408521123025" lon="9.741281498860483"><ele>163.0</ele><time>2026-04-12T09:49:52.001Z</time></trkpt><trkpt lat="44.09400389125535" lon="9.741405867997488"><ele>148.5</ele><time>2026-04-12T09:49:53.001Z</time></trkpt><trkpt lat="44.093928039901506" lon="9.741540736993665"><ele>134.0</ele><time>2026-04-12T09:49:54.001Z</time></trkpt><trkpt lat="44.093862918922554" lon="9.741680013991164"><ele>134.0</ele><time>2026-04-12T09:49:55.001Z</time></trkpt><trkpt lat="44.09381040585488" lon="9.74183146133601"><ele>134.0</ele><time>2026-04-12T09:49:56.001Z</time></trkpt><trkpt lat="44.093766568894615" lon="9.74199204854482"><ele>134.0</ele><time>2026-04-12T09:49:57.001Z</time></trkpt><trkpt lat="44.09372167168461" lon="9.742148166274372"><ele>134.0</ele><time>2026-04-12T09:49:58.001Z</time></trkpt><trkpt lat="44.09366593527641" lon="9.742298765627886"><ele>134.0</ele><time>2026-04-12T09:49:59.001Z</time></trkpt><trkpt lat="44.09361363432284" lon="9.742450059379795"><ele>134.0</ele><time>2026-04-12T09:50:00.001Z</time></trkpt><trkpt lat="44.09356305386894" lon="9.742592226041166"><ele>134.0</ele><time>2026-04-12T09:50:01.001Z</time></trkpt><trkpt lat="44.09352383613455" lon="9.742717328845771"><ele>134.0</ele><time>2026-04-12T09:50:02.001Z</time></trkpt><trkpt lat="44.09349616562601" lon="9.742835379706916"><ele>134.0</ele><time>2026-04-12T09:50:03.001Z</time></trkpt><trkpt lat="44.09349348792095" lon="9.74294209542569"><ele>134.0</ele><time>2026-04-12T09:50:04.001Z</time></trkpt><trkpt lat="44.09349943652321" lon="9.743034663206698"><ele>134.0</ele><time>2026-04-12T09:50:05.001Z</time></trkpt><trkpt lat="44.09342375482025" lon="9.743090681734714"><ele>134.0</ele><time>2026-04-12T09:50:07.001Z</time></trkpt><trkpt lat="44.09336388420614" lon="9.742973910844071"><ele>134.0</ele><time>2026-04-12T09:50:09.001Z</time></trkpt><trkpt lat="44.09337209231699" lon="9.742878793038088"><ele>134.0</ele><time>2026-04-12T09:50:10.001Z</time></trkpt><trkpt lat="44.093423495703824" lon="9.742791725199856"><ele>134.0</ele><time>2026-04-12T09:50:11.001Z</time></trkpt><trkpt lat="44.093448824243346" lon="9.742669770222237"><ele>134.0</ele><time>2026-04-12T09:50:12.001Z</time></trkpt><trkpt lat="44.09348636867482" lon="9.742558958963162"><ele>134.0</ele><time>2026-04-12T09:50:13.001Z</time></trkpt><trkpt lat="44.09352469598247" lon="9.742438735869799"><ele>134.0</ele><time>2026-04-12T09:50:14.001Z</time></trkpt><trkpt lat="44.09355523985805" lon="9.742310487984286"><ele>134.0</ele><time>2026-04-12T09:50:15Z</time></trkpt><trkpt lat="44.093577710369864" lon="9.742177232392088"><ele>134.0</ele><time>2026-04-12T09:50:16Z</time></trkpt><trkpt lat="44.09359300125696" lon="9.742034010395056"><ele>134.0</ele><time>2026-04-12T09:50:17Z</time></trkpt><trkpt lat="44.09361177252841" lon="9.741879656335115"><ele>134.0</ele><time>2026-04-12T09:50:18Z</time></trkpt><trkpt lat="44.09363577771339" lon="9.741728802962074"><ele>134.0</ele><time>2026-04-12T09:50:19Z</time></trkpt><trkpt lat="44.09365297607733" lon="9.741577063301357"><ele>134.0</ele><time>2026-04-12T09:50:20Z</time></trkpt><trkpt lat="44.093676220196144" lon="9.741424055127457"><ele>134.0</ele><time>2026-04-12T09:50:21Z</time></trkpt><trkpt lat="44.093707346376995" lon="9.741280988256067"><ele>134.0</ele><time>2026-04-12T09:50:22Z</time></trkpt><trkpt lat="44.09373808702279" lon="9.741153652224218"><ele>134.0</ele><time>2026-04-12T09:50:23Z</time></trkpt><trkpt lat="44.09376949908563" lon="9.74103888138295"><ele>134.0</ele><time>2026-04-12T09:50:24Z</time></trkpt><trkpt lat="44.09379655893708" lon="9.740941049678339"><ele>134.0</ele><time>2026-04-12T09:50:25Z</time></trkpt><trkpt lat="44.093843812785394" lon="9.7407892824918"><ele>134.0</ele><time>2026-04-12T09:50:27Z</time></trkpt><trkpt lat="44.09388027643679" lon="9.740714261504296"><ele>134.0</ele><time>2026-04-12T09:50:28Z</time></trkpt><trkpt lat="44.09393345525258" lon="9.74063901739482"><ele>132.8</ele><time>2026-04-12T09:50:29Z</time></trkpt><trkpt lat="44.094003092337374" lon="9.740586007356784"><ele>131.60000000000002</ele><time>2026-04-12T09:50:30Z</time></trkpt><trkpt lat="44.094092892390236" lon="9.740553084437904"><ele>130.4</ele><time>2026-04-12T09:50:31Z</time></trkpt><trkpt lat="44.09418564763803" lon="9.740531168715574"><ele>129.20000000000002</ele><time>2026-04-12T09:50:32Z</time></trkpt><trkpt lat="44.09427686288605" lon="9.740499785444184"><ele>128.0</ele><time>2026-04-12T09:50:33Z</time></trkpt><trkpt lat="44.094363299614045" lon="9.740447984909327"><ele>136.4</ele><time>2026-04-12T09:50:34Z</time></trkpt><trkpt lat="44.094449051120556" lon="9.74040369768868"><ele>144.8</ele><time>2026-04-12T09:50:35Z</time></trkpt><trkpt lat="44.094542207351864" lon="9.740371644155516"><ele>153.2</ele><time>2026-04-12T09:50:36Z</time></trkpt><trkpt lat="44.09463713530772" lon="9.740357018677251"><ele>161.6</ele><time>2026-04-12T09:50:37Z</time></trkpt><trkpt lat="44.094732611809484" lon="9.740373075382763"><ele>170.0</ele><time>2026-04-12T09:50:38Z</time></trkpt><trkpt lat="44.094826293258244" lon="9.740403129424369"><ele>167.8</ele><time>2026-04-12T09:50:39Z</time></trkpt><trkpt lat="44.09492262392955" lon="9.7404544926941"><ele>165.6</ele><time>2026-04-12T09:50:40Z</time></trkpt><trkpt lat="44.0950256550437" lon="9.740516280393367"><ele>163.4</ele><time>2026-04-12T09:50:41Z</time></trkpt><trkpt lat="44.095123845241844" lon="9.740599862224649"><ele>161.2</ele><time>2026-04-12T09:50:42Z</time></trkpt><trkpt lat="44.095232661528236" lon="9.740663107792072"><ele>159.0</ele><time>2026-04-12T09:50:43Z</time></trkpt><trkpt lat="44.0953540808067" lon="9.740720214954885"><ele>159.0</ele><time>2026-04-12T09:50:44Z</time></trkpt><trkpt lat="44.0954858250548" lon="9.740736259337908"><ele>159.0</ele><time>2026-04-12T09:50:45Z</time></trkpt><trkpt lat="44.09561572604283" lon="9.74073784100319"><ele>159.0</ele><time>2026-04-12T09:50:46Z</time></trkpt><trkpt lat="44.09574144582183" lon="9.740741901144737"><ele>159.0</ele><time>2026-04-12T09:50:47Z</time></trkpt><trkpt lat="44.095860998807424" lon="9.740761011234301"><ele>156.5</ele><time>2026-04-12T09:50:48Z</time></trkpt><trkpt lat="44.095971327036885" lon="9.740820249814496"><ele>154.0</ele><time>2026-04-12T09:50:49Z</time></trkpt><trkpt lat="44.096092075093075" lon="9.740882173715642"><ele>151.5</ele><time>2026-04-12T09:50:50Z</time></trkpt><trkpt lat="44.09621339529969" lon="9.740942728880668"><ele>149.0</ele><time>2026-04-12T09:50:51Z</time></trkpt><trkpt lat="44.096330842515" lon="9.741001350880804"><ele>153.5</ele><time>2026-04-12T09:50:52Z</time></trkpt><trkpt lat="44.096444094293254" lon="9.74105757645377"><ele>158.0</ele><time>2026-04-12T09:50:53Z</time></trkpt><trkpt lat="44.09655792922054" lon="9.741113028298338"><ele>162.5</ele><time>2026-04-12T09:50:54Z</time></trkpt><trkpt lat="44.09667374426084" lon="9.741133398250687"><ele>167.0</ele><time>2026-04-12T09:50:55.001Z</time></trkpt><trkpt lat="44.096782539525265" lon="9.741172363941011"><ele>167.0</ele><time>2026-04-12T09:50:56.001Z</time></trkpt><trkpt lat="44.096890990092085" lon="9.741175267704161"><ele>167.0</ele><time>2026-04-12T09:50:57.001Z</time></trkpt><trkpt lat="44.0970024707103" lon="9.741102160017737"><ele>167.0</ele><time>2026-04-12T09:50:58.001Z</time></trkpt><trkpt lat="44.097085326099084" lon="9.741002300870646"><ele>167.0</ele><time>2026-04-12T09:50:59.001Z</time></trkpt><trkpt lat="44.09719361964615" lon="9.740996542312446"><ele>155.25</ele><time>2026-04-12T09:51:00.001Z</time></trkpt><trkpt lat="44.09730743266815" lon="9.740982724336911"><ele>143.5</ele><time>2026-04-12T09:51:01.001Z</time></trkpt><trkpt lat="44.09741757096403" lon="9.74096056931261"><ele>131.75</ele><time>2026-04-12T09:51:02.001Z</time></trkpt><trkpt lat="44.09753013715978" lon="9.740909351503891"><ele>120.0</ele><time>2026-04-12T09:51:03.001Z</time></trkpt><trkpt lat="44.097635036376" lon="9.74081860549921"><ele>120.0</ele><time>2026-04-12T09:51:04.001Z</time></trkpt><trkpt lat="44.09772558883603" lon="9.740700054927173"><ele>120.0</ele><time>2026-04-12T09:51:05.001Z</time></trkpt><trkpt lat="44.097808225844105" lon="9.740585403754649"><ele>120.0</ele><time>2026-04-12T09:51:06.001Z</time></trkpt><trkpt lat="44.097889632714065" lon="9.740479500715024"><ele>120.0</ele><time>2026-04-12T09:51:07.001Z</time></trkpt><trkpt lat="44.09797701057967" lon="9.740403645026023"><ele>120.0</ele><time>2026-04-12T09:51:08.001Z</time></trkpt><trkpt lat="44.09805721557568" lon="9.74033751693463"><ele>120.0</ele><time>2026-04-12T09:51:09.001Z</time></trkpt><trkpt lat="44.09812832931642" lon="9.740295077201962"><ele>120.0</ele><time>2026-04-12T09:51:10.001Z</time></trkpt><trkpt lat="44.09820678649263" lon="9.740282695413187"><ele>120.0</ele><time>2026-04-12T09:51:11.001Z</time></trkpt><trkpt lat="44.098286373621185" lon="9.7403019290493"><ele>120.0</ele><time>2026-04-12T09:51:12.001Z</time></trkpt><trkpt lat="44.09836663635914" lon="9.740347509738857"><ele>120.0</ele><time>2026-04-12T09:51:13.001Z</time></trkpt><trkpt lat="44.09844452463797" lon="9.740413824857319"><ele>120.33333333333333</ele><time>2026-04-12T09:51:14.001Z</time></trkpt><trkpt lat="44.0984880427341" lon="9.740540355614014"><ele>120.66666666666666</ele><time>2026-04-12T09:51:15.001Z</time></trkpt><trkpt lat="44.0985133372454" lon="9.740666011224574"><ele>121.0</ele><time>2026-04-12T09:51:16.001Z</time></trkpt><trkpt lat="44.09853836353442" lon="9.740783591732146"><ele>121.33333333333333</ele><time>2026-04-12T09:51:17.001Z</time></trkpt><trkpt lat="44.098576137300896" lon="9.740879756854056"><ele>121.66666666666666</ele><time>2026-04-12T09:51:18.001Z</time></trkpt><trkpt lat="44.09863269209445" lon="9.740938625538634"><ele>122.0</ele><time>2026-04-12T09:51:19.001Z</time></trkpt><trkpt lat="44.098705733427394" lon="9.740945766587146"><ele>121.99999999999999</ele><time>2026-04-12T09:51:20.001Z</time></trkpt><trkpt lat="44.09878196634167" lon="9.740918891620705"><ele>122.0</ele><time>2026-04-12T09:51:21.001Z</time></trkpt><trkpt lat="44.09886772531692" lon="9.740864406508585"><ele>122.0</ele><time>2026-04-12T09:51:22.001Z</time></trkpt><trkpt lat="44.098952035392045" lon="9.740824228754763"><ele>122.0</ele><time>2026-04-12T09:51:23.001Z</time></trkpt><trkpt lat="44.09904455794193" lon="9.740808163287417"><ele>121.99999999999999</ele><time>2026-04-12T09:51:24.001Z</time></trkpt><trkpt lat="44.09912794920679" lon="9.740756890454835"><ele>122.0</ele><time>2026-04-12T09:51:25.001Z</time></trkpt><trkpt lat="44.099216997511306" lon="9.740769384543432"><ele>122.28571428571428</ele><time>2026-04-12T09:51:26.001Z</time></trkpt><trkpt lat="44.09928821912352" lon="9.740753363617609"><ele>122.57142857142857</ele><time>2026-04-12T09:51:27.001Z</time></trkpt><trkpt lat="44.0993489877824" lon="9.7407801950642"><ele>122.85714285714286</ele><time>2026-04-12T09:51:28.001Z</time></trkpt><trkpt lat="44.099407132610494" lon="9.740821536412977"><ele>123.14285714285714</ele><time>2026-04-12T09:51:29.001Z</time></trkpt><trkpt lat="44.09945874476955" lon="9.74088653813367"><ele>123.42857142857144</ele><time>2026-04-12T09:51:30.001Z</time></trkpt><trkpt lat="44.09948099450155" lon="9.740987456023126"><ele>123.71428571428572</ele><time>2026-04-12T09:51:31.001Z</time></trkpt><trkpt lat="44.09953224557665" lon="9.74107885790946"><ele>124.0</ele><time>2026-04-12T09:51:32.001Z</time></trkpt><trkpt lat="44.09956901605856" lon="9.741194810196092"><ele>124.0</ele><time>2026-04-12T09:51:33.001Z</time></trkpt><trkpt lat="44.09961381288353" lon="9.741310388045296"><ele>124.0</ele><time>2026-04-12T09:51:34.001Z</time></trkpt><trkpt lat="44.09965674819828" lon="9.7414329604743"><ele>124.0</ele><time>2026-04-12T09:51:35.001Z</time></trkpt><trkpt lat="44.09969519254552" lon="9.74155104004371"><ele>124.0</ele><time>2026-04-12T09:51:36.001Z</time></trkpt><trkpt lat="44.09972434446277" lon="9.741669196623793"><ele>124.0</ele><time>2026-04-12T09:51:37.001Z</time></trkpt><trkpt lat="44.09970871938798" lon="9.7417951109683"><ele>125.83333333333334</ele><time>2026-04-12T09:51:38.001Z</time></trkpt><trkpt lat="44.09968956117981" lon="9.741915252214385"><ele>127.66666666666667</ele><time>2026-04-12T09:51:39.001Z</time></trkpt><trkpt lat="44.0996704559487" lon="9.742024726718672"><ele>129.5</ele><time>2026-04-12T09:51:40.001Z</time></trkpt><trkpt lat="44.09964182787176" lon="9.74212540130389"><ele>131.33333333333334</ele><time>2026-04-12T09:51:41.001Z</time></trkpt><trkpt lat="44.09963151885261" lon="9.742221008746204"><ele>133.16666666666666</ele><time>2026-04-12T09:51:42.001Z</time></trkpt><trkpt lat="44.09963873279092" lon="9.742327281125286"><ele>135.0</ele><time>2026-04-12T09:51:43.001Z</time></trkpt><trkpt lat="44.09965139629509" lon="9.742429307080169"><ele>135.0</ele><time>2026-04-12T09:51:44.001Z</time></trkpt><trkpt lat="44.09967038339489" lon="9.742530145501322"><ele>135.0</ele><time>2026-04-12T09:51:45.001Z</time></trkpt><trkpt lat="44.09969474850374" lon="9.742644319588564"><ele>135.0</ele><time>2026-04-12T09:51:46.001Z</time></trkpt><trkpt lat="44.09971479690383" lon="9.742760540592238"><ele>135.0</ele><time>2026-04-12T09:51:47.001Z</time></trkpt><trkpt lat="44.09970115068321" lon="9.742875388675486"><ele>135.0</ele><time>2026-04-12T09:51:48.001Z</time></trkpt><trkpt lat="44.09969515043389" lon="9.742976883670323"><ele>135.0</ele><time>2026-04-12T09:51:49.001Z</time></trkpt><trkpt lat="44.099705663367764" lon="9.743069120525442"><ele>136.85714285714286</ele><time>2026-04-12T09:51:50.001Z</time></trkpt><trkpt lat="44.099694682749984" lon="9.743203079059105"><ele>138.7142857142857</ele><time>2026-04-12T09:51:52.001Z</time></trkpt><trkpt lat="44.09972241772713" lon="9.743285847818886"><ele>140.57142857142856</ele><time>2026-04-12T09:51:55.001Z</time></trkpt><trkpt lat="44.099712179351435" lon="9.743381122456562"><ele>142.42857142857142</ele><time>2026-04-12T09:52:16Z</time></trkpt><trkpt lat="44.09973981320105" lon="9.743476996055197"><ele>144.28571428571428</ele><time>2026-04-12T09:52:20Z</time></trkpt><trkpt lat="44.09976554594476" lon="9.743567591195928"><ele>146.14285714285714</ele><time>2026-04-12T09:52:24Z</time></trkpt><trkpt lat="44.09980717188365" lon="9.743639532767467"><ele>148.0</ele><time>2026-04-12T09:52:32Z</time></trkpt><trkpt lat="44.09984981521275" lon="9.74372519575976"><ele>148.0</ele><time>2026-04-12T09:54:23Z</time></trkpt><trkpt lat="44.09991708485697" lon="9.743703028071174"><ele>148.0</ele><time>2026-04-12T09:54:27Z</time></trkpt><trkpt lat="44.09988754864372" lon="9.74358409218841"><ele>148.0</ele><time>2026-04-12T09:54:28Z</time></trkpt><trkpt lat="44.09990697508608" lon="9.743394648386055"><ele>148.0</ele><time>2026-04-12T09:54:30Z</time></trkpt><trkpt lat="44.09992455524437" lon="9.743223558816624"><ele>148.0</ele><time>2026-04-12T09:54:31Z</time></trkpt><trkpt lat="44.09993779232915" lon="9.74304348444837"><ele>133.0</ele><time>2026-04-12T09:54:32Z</time></trkpt><trkpt lat="44.099955412247034" lon="9.742839259635618"><ele>118.0</ele><time>2026-04-12T09:54:33Z</time></trkpt><trkpt lat="44.09997201021763" lon="9.742635924854513"><ele>103.0</ele><time>2026-04-12T09:54:34Z</time></trkpt><trkpt lat="44.09997524931117" lon="9.742473445683137"><ele>88.0</ele><time>2026-04-12T09:54:35Z</time></trkpt><trkpt lat="44.099975249310624" lon="9.74236480158812"><ele>78.0</ele><time>2026-04-12T09:54:36Z</time></trkpt><trkpt lat="44.09997945976182" lon="9.742220412964924"><ele>78.0</ele><time>2026-04-12T09:54:38Z</time></trkpt><trkpt lat="44.0996775729117" lon="9.742150742956975"><ele>135.0</ele><time>2026-04-12T09:57:25Z</time></trkpt></trkseg><trkseg><trkpt lat="44.0996691884259" lon="9.74202373971306"><ele>135.0</ele><time>2026-04-12T11:09:17Z</time></trkpt><trkpt lat="44.09971120341726" lon="9.74189786007883"><ele>135.0</ele><time>2026-04-12T11:09:19Z</time></trkpt><trkpt lat="44.09973965111757" lon="9.741730740535784"><ele>135.0</ele><time>2026-04-12T11:09:21Z</time></trkpt><trkpt lat="44.0997324791289" lon="9.741619903268482"><ele>135.0</ele><time>2026-04-12T11:09:22Z</time></trkpt><trkpt lat="44.09970281276959" lon="9.741498049281113"><ele>135.0</ele><time>2026-04-12T11:09:23Z</time></trkpt><trkpt lat="44.09965907215892" lon="9.741374556765493"><ele>133.16666666666666</ele><time>2026-04-12T11:09:24Z</time></trkpt><trkpt lat="44.09961303813238" lon="9.741246487931768"><ele>131.33333333333334</ele><time>2026-04-12T11:09:25Z</time></trkpt><trkpt lat="44.099571598602964" lon="9.741124580947623"><ele>129.5</ele><time>2026-04-12T11:09:26Z</time></trkpt><trkpt lat="44.09952711685011" lon="9.741006692350837"><ele>127.66666666666667</ele><time>2026-04-12T11:09:27Z</time></trkpt><trkpt lat="44.09949060463628" lon="9.740906170560296"><ele>125.83333333333334</ele><time>2026-04-12T11:09:28Z</time></trkpt><trkpt lat="44.09945411837027" lon="9.740822392676664"><ele>124.0</ele><time>2026-04-12T11:09:29Z</time></trkpt><trkpt lat="44.0993956325367" lon="9.740756650292687"><ele>123.6</ele><time>2026-04-12T11:09:30Z</time></trkpt><trkpt lat="44.0993090227121" lon="9.740712591329569"><ele>123.2</ele><time>2026-04-12T11:09:31Z</time></trkpt><trkpt lat="44.09921533093308" lon="9.740706900544609"><ele>122.79999999999998</ele><time>2026-04-12T11:09:32Z</time></trkpt><trkpt lat="44.09911247904367" lon="9.740732551930757"><ele>122.39999999999999</ele><time>2026-04-12T11:09:33Z</time></trkpt><trkpt lat="44.09899953212529" lon="9.74078373511629"><ele>122.0</ele><time>2026-04-12T11:09:34Z</time></trkpt><trkpt lat="44.098888096365755" lon="9.740835963836545"><ele>121.99999999999999</ele><time>2026-04-12T11:09:35Z</time></trkpt><trkpt lat="44.09879019166447" lon="9.7408734843596"><ele>122.0</ele><time>2026-04-12T11:09:36Z</time></trkpt><trkpt lat="44.09871148037272" lon="9.740896323047956"><ele>122.0</ele><time>2026-04-12T11:09:37Z</time></trkpt><trkpt lat="44.098631513244996" lon="9.740892094712908"><ele>122.0</ele><time>2026-04-12T11:09:38Z</time></trkpt><trkpt lat="44.09856831928109" lon="9.740835943676956"><ele>121.99999999999999</ele><time>2026-04-12T11:09:39Z</time></trkpt><trkpt lat="44.09854132479932" lon="9.740716229734529"><ele>122.0</ele><time>2026-04-12T11:09:40Z</time></trkpt><trkpt lat="44.098524197651884" lon="9.740598077782195"><ele>121.99999999999999</ele><time>2026-04-12T11:09:41Z</time></trkpt><trkpt lat="44.098489149393565" lon="9.740487940823904"><ele>122.0</ele><time>2026-04-12T11:09:42Z</time></trkpt><trkpt lat="44.09845883951801" lon="9.740392693357093"><ele>122.0</ele><time>2026-04-12T11:09:43Z</time></trkpt><trkpt lat="44.09838465474481" lon="9.740320702080588"><ele>122.0</ele><time>2026-04-12T11:09:44Z</time></trkpt><trkpt lat="44.09830889073744" lon="9.740256867970649"><ele>121.99999999999999</ele><time>2026-04-12T11:09:45Z</time></trkpt><trkpt lat="44.09822246277885" lon="9.740219073205871"><ele>122.0</ele><time>2026-04-12T11:09:46Z</time></trkpt><trkpt lat="44.09814331157669" lon="9.740221478395405"><ele>121.6</ele><time>2026-04-12T11:09:47Z</time></trkpt><trkpt lat="44.098063903605116" lon="9.740251601779535"><ele>121.19999999999999</ele><time>2026-04-12T11:09:48Z</time></trkpt><trkpt lat="44.097988866675244" lon="9.740321957335965"><ele>120.8</ele><time>2026-04-12T11:09:49Z</time></trkpt><trkpt lat="44.09790803761816" lon="9.740405368283145"><ele>120.4</ele><time>2026-04-12T11:09:50Z</time></trkpt><trkpt lat="44.09782791954017" lon="9.740496393588376"><ele>120.0</ele><time>2026-04-12T11:09:51Z</time></trkpt><trkpt lat="44.09774907508405" lon="9.740597328001549"><ele>120.0</ele><time>2026-04-12T11:09:52Z</time></trkpt><trkpt lat="44.09767451994412" lon="9.740708412724363"><ele>120.0</ele><time>2026-04-12T11:09:53Z</time></trkpt><trkpt lat="44.09759928736489" lon="9.740817172575262"><ele>120.0</ele><time>2026-04-12T11:09:54Z</time></trkpt><trkpt lat="44.09750403245825" lon="9.740877728745955"><ele>120.0</ele><time>2026-04-12T11:09:55Z</time></trkpt><trkpt lat="44.09740126307276" lon="9.74092512833102"><ele>120.0</ele><time>2026-04-12T11:09:56Z</time></trkpt><trkpt lat="44.097279159165254" lon="9.740941354806901"><ele>120.0</ele><time>2026-04-12T11:09:57Z</time></trkpt><trkpt lat="44.09714581777155" lon="9.740958438954618"><ele>120.0</ele><time>2026-04-12T11:09:58Z</time></trkpt><trkpt lat="44.09701091112192" lon="9.741016801191975"><ele>120.0</ele><time>2026-04-12T11:09:58.999Z</time></trkpt><trkpt lat="44.09691638767695" lon="9.74113885290121"><ele>120.0</ele><time>2026-04-12T11:09:59.999Z</time></trkpt><trkpt lat="44.096812772134655" lon="9.741145886287923"><ele>127.25</ele><time>2026-04-12T11:10:00.999Z</time></trkpt><trkpt lat="44.09671164603977" lon="9.741113652324703"><ele>134.5</ele><time>2026-04-12T11:10:01.999Z</time></trkpt><trkpt lat="44.09658940190721" lon="9.74107807543995"><ele>141.75</ele><time>2026-04-12T11:10:02.999Z</time></trkpt><trkpt lat="44.096459721499436" lon="9.741016257424208"><ele>149.0</ele><time>2026-04-12T11:10:03.999Z</time></trkpt><trkpt lat="44.096324517508535" lon="9.740949090046213"><ele>149.0</ele><time>2026-04-12T11:10:04.999Z</time></trkpt><trkpt lat="44.09619819834613" lon="9.740886039735623"><ele>149.0</ele><time>2026-04-12T11:10:05.999Z</time></trkpt><trkpt lat="44.09606551098737" lon="9.740844344429975"><ele>149.0</ele><time>2026-04-12T11:10:06.999Z</time></trkpt><trkpt lat="44.095952437885316" lon="9.740778381466113"><ele>149.0</ele><time>2026-04-12T11:10:07.999Z</time></trkpt><trkpt lat="44.09583642748425" lon="9.740715684336676"><ele>151.5</ele><time>2026-04-12T11:10:08.999Z</time></trkpt><trkpt lat="44.095711841442245" lon="9.740684436460535"><ele>154.0</ele><time>2026-04-12T11:10:09.999Z</time></trkpt><trkpt lat="44.095577624685724" lon="9.740695845562458"><ele>156.5</ele><time>2026-04-12T11:10:10.999Z</time></trkpt><trkpt lat="44.095447348285056" lon="9.740687234086076"><ele>159.0</ele><time>2026-04-12T11:10:11.999Z</time></trkpt><trkpt lat="44.095322711041966" lon="9.74066388881546"><ele>159.0</ele><time>2026-04-12T11:10:12.999Z</time></trkpt><trkpt lat="44.09520847391985" lon="9.740600277497679"><ele>159.0</ele><time>2026-04-12T11:10:13.999Z</time></trkpt><trkpt lat="44.09508304935842" lon="9.740541470289099"><ele>159.0</ele><time>2026-04-12T11:10:14.999Z</time></trkpt><trkpt lat="44.09496899626505" lon="9.740460330705703"><ele>159.0</ele><time>2026-04-12T11:10:15.999Z</time></trkpt><trkpt lat="44.09485122682576" lon="9.740394139372231"><ele>161.2</ele><time>2026-04-12T11:10:16.999Z</time></trkpt><trkpt lat="44.09474227111374" lon="9.740346539619669"><ele>163.4</ele><time>2026-04-12T11:10:18Z</time></trkpt><trkpt lat="44.09463862991749" lon="9.740325543683294"><ele>165.6</ele><time>2026-04-12T11:10:19Z</time></trkpt><trkpt lat="44.09453847244042" lon="9.740339718825862"><ele>167.8</ele><time>2026-04-12T11:10:20Z</time></trkpt><trkpt lat="44.09443118304157" lon="9.740372390583934"><ele>170.0</ele><time>2026-04-12T11:10:21Z</time></trkpt><trkpt lat="44.09432291107423" lon="9.740440951037893"><ele>170.0</ele><time>2026-04-12T11:10:22Z</time></trkpt><trkpt lat="44.09421446197702" lon="9.740503855041014"><ele>170.0</ele><time>2026-04-12T11:10:23Z</time></trkpt><trkpt lat="44.09411385266838" lon="9.740541142961105"><ele>170.0</ele><time>2026-04-12T11:10:24Z</time></trkpt><trkpt lat="44.09402767800728" lon="9.740562531499245"><ele>170.0</ele><time>2026-04-12T11:10:25Z</time></trkpt><trkpt lat="44.09395780487316" lon="9.740583789636094"><ele>170.0</ele><time>2026-04-12T11:10:26Z</time></trkpt><trkpt lat="44.093900607525775" lon="9.740622029341955"><ele>170.0</ele><time>2026-04-12T11:10:27Z</time></trkpt><trkpt lat="44.09385003221438" lon="9.740682976174986"><ele>162.8</ele><time>2026-04-12T11:10:28Z</time></trkpt><trkpt lat="44.09380460586033" lon="9.740784340876413"><ele>155.6</ele><time>2026-04-12T11:10:29Z</time></trkpt><trkpt lat="44.09376718778551" lon="9.740912730829965"><ele>148.4</ele><time>2026-04-12T11:10:30Z</time></trkpt><trkpt lat="44.09373015500608" lon="9.741060162959801"><ele>141.2</ele><time>2026-04-12T11:10:31Z</time></trkpt><trkpt lat="44.09368837275638" lon="9.74122176987776"><ele>134.0</ele><time>2026-04-12T11:10:32Z</time></trkpt><trkpt lat="44.09364622661382" lon="9.741397054589832"><ele>134.0</ele><time>2026-04-12T11:10:33Z</time></trkpt><trkpt lat="44.093613342966954" lon="9.741599030996525"><ele>134.0</ele><time>2026-04-12T11:10:34Z</time></trkpt><trkpt lat="44.093587631140636" lon="9.741822639259018"><ele>134.0</ele><time>2026-04-12T11:10:35Z</time></trkpt><trkpt lat="44.09356838251214" lon="9.742048346033224"><ele>134.0</ele><time>2026-04-12T11:10:36Z</time></trkpt><trkpt lat="44.093543753827106" lon="9.742266423422981"><ele>134.0</ele><time>2026-04-12T11:10:37Z</time></trkpt><trkpt lat="44.093491080350724" lon="9.742447962007699"><ele>134.0</ele><time>2026-04-12T11:10:38Z</time></trkpt><trkpt lat="44.09344451145069" lon="9.742604849960857"><ele>134.0</ele><time>2026-04-12T11:10:39Z</time></trkpt><trkpt lat="44.093410300835906" lon="9.742732343020677"><ele>134.0</ele><time>2026-04-12T11:10:40Z</time></trkpt><trkpt lat="44.09337606971864" lon="9.742845731533277"><ele>134.0</ele><time>2026-04-12T11:10:41Z</time></trkpt><trkpt lat="44.093348260154116" lon="9.742938405241832"><ele>134.0</ele><time>2026-04-12T11:10:42Z</time></trkpt><trkpt lat="44.09334147887834" lon="9.74307823995963"><ele>134.0</ele><time>2026-04-12T11:10:44Z</time></trkpt><trkpt lat="44.09342742998387" lon="9.743162245554812"><ele>134.0</ele><time>2026-04-12T11:10:46Z</time></trkpt><trkpt lat="44.09352769678157" lon="9.743089017187591"><ele>134.0</ele><time>2026-04-12T11:10:48Z</time></trkpt><trkpt lat="44.09354017221003" lon="9.742995072387544"><ele>134.0</ele><time>2026-04-12T11:10:49Z</time></trkpt><trkpt lat="44.09352990855452" lon="9.742874856958476"><ele>134.0</ele><time>2026-04-12T11:10:50Z</time></trkpt><trkpt lat="44.09353961504625" lon="9.742741915199836"><ele>134.0</ele><time>2026-04-12T11:10:51Z</time></trkpt><trkpt lat="44.09359385628412" lon="9.74261724202478"><ele>134.0</ele><time>2026-04-12T11:10:52Z</time></trkpt><trkpt lat="44.09362796197667" lon="9.742476721635597"><ele>134.0</ele><time>2026-04-12T11:10:53Z</time></trkpt><trkpt lat="44.0936770301986" lon="9.742339932306043"><ele>134.0</ele><time>2026-04-12T11:10:54Z</time></trkpt><trkpt lat="44.09372347829986" lon="9.742185244298302"><ele>134.0</ele><time>2026-04-12T11:10:55Z</time></trkpt><trkpt lat="44.09376978746638" lon="9.742023239542368"><ele>134.0</ele><time>2026-04-12T11:10:56Z</time></trkpt><trkpt lat="44.09381933132816" lon="9.741861461372599"><ele>134.0</ele><time>2026-04-12T11:10:57Z</time></trkpt><trkpt lat="44.0938721506246" lon="9.741707912698617"><ele>134.0</ele><time>2026-04-12T11:10:58Z</time></trkpt><trkpt lat="44.093932819478816" lon="9.741570269715321"><ele>134.0</ele><time>2026-04-12T11:10:59Z</time></trkpt><trkpt lat="44.09400377304139" lon="9.74144405354849"><ele>134.0</ele><time>2026-04-12T11:11:00Z</time></trkpt><trkpt lat="44.09408406488484" lon="9.741331336657693"><ele>141.2</ele><time>2026-04-12T11:11:01Z</time></trkpt><trkpt lat="44.09416488793995" lon="9.74122558819339"><ele>148.4</ele><time>2026-04-12T11:11:02Z</time></trkpt><trkpt lat="44.094251506224246" lon="9.741136571027734"><ele>155.6</ele><time>2026-04-12T11:11:03Z</time></trkpt><trkpt lat="44.09434403244493" lon="9.741075384520874"><ele>162.8</ele><time>2026-04-12T11:11:04Z</time></trkpt><trkpt lat="44.09443948206335" lon="9.741040559284519"><ele>170.0</ele><time>2026-04-12T11:11:05Z</time></trkpt><trkpt lat="44.09454387354935" lon="9.741054528900394"><ele>175.5</ele><time>2026-04-12T11:11:06Z</time></trkpt><trkpt lat="44.09464912316332" lon="9.741111944060032"><ele>181.0</ele><time>2026-04-12T11:11:07Z</time></trkpt><trkpt lat="44.09474777805587" lon="9.741208177877553"><ele>186.5</ele><time>2026-04-12T11:11:08Z</time></trkpt><trkpt lat="44.09484749051342" lon="9.741327062936644"><ele>192.0</ele><time>2026-04-12T11:11:09Z</time></trkpt><trkpt lat="44.09495345596904" lon="9.741459854512682"><ele>194.25</ele><time>2026-04-12T11:11:10Z</time></trkpt><trkpt lat="44.095061330940304" lon="9.74156647813485"><ele>196.5</ele><time>2026-04-12T11:11:11Z</time></trkpt><trkpt lat="44.095176682510704" lon="9.741643898633706"><ele>198.75</ele><time>2026-04-12T11:11:12Z</time></trkpt><trkpt lat="44.095305868042495" lon="9.741676322813413"><ele>201.0</ele><time>2026-04-12T11:11:13Z</time></trkpt><trkpt lat="44.09543788570677" lon="9.741673928918116"><ele>201.0</ele><time>2026-04-12T11:11:14Z</time></trkpt><trkpt lat="44.09555622662778" lon="9.741658385756745"><ele>201.0</ele><time>2026-04-12T11:11:15Z</time></trkpt><trkpt lat="44.09565162620144" lon="9.741655724140982"><ele>201.0</ele><time>2026-04-12T11:11:16Z</time></trkpt><trkpt lat="44.09573760014913" lon="9.741696807751387"><ele>201.0</ele><time>2026-04-12T11:11:17Z</time></trkpt><trkpt lat="44.095825245393364" lon="9.74176693729326"><ele>201.0</ele><time>2026-04-12T11:11:18Z</time></trkpt><trkpt lat="44.09590551846256" lon="9.741864388767839"><ele>208.25</ele><time>2026-04-12T11:11:19Z</time></trkpt><trkpt lat="44.09597504161694" lon="9.741991204002312"><ele>215.5</ele><time>2026-04-12T11:11:20Z</time></trkpt><trkpt lat="44.096038690589786" lon="9.742132254642796"><ele>222.75</ele><time>2026-04-12T11:11:21Z</time></trkpt><trkpt lat="44.09611430337324" lon="9.742262252190587"><ele>230.0</ele><time>2026-04-12T11:11:22Z</time></trkpt><trkpt lat="44.096208773645614" lon="9.742377345529798"><ele>230.0</ele><time>2026-04-12T11:11:23Z</time></trkpt><trkpt lat="44.09630207425799" lon="9.742481944238106"><ele>230.0</ele><time>2026-04-12T11:11:24Z</time></trkpt><trkpt lat="44.09638397426645" lon="9.742588395369383"><ele>230.0</ele><time>2026-04-12T11:11:25Z</time></trkpt><trkpt lat="44.09644564696432" lon="9.742703576473108"><ele>230.0</ele><time>2026-04-12T11:11:26Z</time></trkpt><trkpt lat="44.09651001088547" lon="9.742807168693766"><ele>230.0</ele><time>2026-04-12T11:11:27Z</time></trkpt><trkpt lat="44.09659022191914" lon="9.742865806885806"><ele>231.2</ele><time>2026-04-12T11:11:28Z</time></trkpt><trkpt lat="44.09668353809135" lon="9.742870840176792"><ele>232.4</ele><time>2026-04-12T11:11:29Z</time></trkpt><trkpt lat="44.096788111082674" lon="9.742830947251933"><ele>233.60000000000002</ele><time>2026-04-12T11:11:30Z</time></trkpt><trkpt lat="44.096883664974555" lon="9.742769764621722"><ele>234.8</ele><time>2026-04-12T11:11:31Z</time></trkpt><trkpt lat="44.09694856999066" lon="9.742681816445046"><ele>236.0</ele><time>2026-04-12T11:11:32Z</time></trkpt><trkpt lat="44.09699509724767" lon="9.742608107382233"><ele>236.0</ele><time>2026-04-12T11:11:33Z</time></trkpt><trkpt lat="44.09707955642485" lon="9.742607030446743"><ele>236.00000000000003</ele><time>2026-04-12T11:11:35Z</time></trkpt><trkpt lat="44.09712575144626" lon="9.742689346640711"><ele>236.00000000000003</ele><time>2026-04-12T11:11:37Z</time></trkpt><trkpt lat="44.097064141844996" lon="9.742803591399971"><ele>236.0</ele><time>2026-04-12T11:11:40Z</time></trkpt><trkpt lat="44.09694812573989" lon="9.742871108059306"><ele>236.0</ele><time>2026-04-12T11:11:42Z</time></trkpt><trkpt lat="44.0968701132621" lon="9.742901965446448"><ele>236.0</ele><time>2026-04-12T11:11:43Z</time></trkpt><trkpt lat="44.0967866659669" lon="9.742968777276076"><ele>236.00000000000003</ele><time>2026-04-12T11:11:44Z</time></trkpt><trkpt lat="44.0967146101015" lon="9.743053469630055"><ele>236.00000000000003</ele><time>2026-04-12T11:11:45Z</time></trkpt><trkpt lat="44.09663247160971" lon="9.743106133032786"><ele>236.0</ele><time>2026-04-12T11:11:46Z</time></trkpt><trkpt lat="44.09653228813535" lon="9.743095658752285"><ele>236.0</ele><time>2026-04-12T11:11:47Z</time></trkpt><trkpt lat="44.09643736403501" lon="9.743040735309897"><ele>234.8</ele><time>2026-04-12T11:11:48Z</time></trkpt><trkpt lat="44.09633462599498" lon="9.742984350237661"><ele>233.60000000000002</ele><time>2026-04-12T11:11:49Z</time></trkpt><trkpt lat="44.09624497238171" lon="9.742951015361081"><ele>232.4</ele><time>2026-04-12T11:11:50Z</time></trkpt><trkpt lat="44.09617613190461" lon="9.74284895434972"><ele>231.2</ele><time>2026-04-12T11:11:52Z</time></trkpt><trkpt lat="44.09619964744631" lon="9.742753736973771"><ele>230.0</ele><time>2026-04-12T11:11:54Z</time></trkpt><trkpt lat="44.09627160621106" lon="9.74267328158121"><ele>231.2</ele><time>2026-04-12T11:11:57Z</time></trkpt><trkpt lat="44.096354424446574" lon="9.74279915483845"><ele>232.4</ele><time>2026-04-12T11:11:58Z</time></trkpt><trkpt lat="44.096439864679745" lon="9.742849425607181"><ele>233.60000000000002</ele><time>2026-04-12T11:11:59Z</time></trkpt><trkpt lat="44.09653102104692" lon="9.74292886688055"><ele>234.8</ele><time>2026-04-12T11:12:00Z</time></trkpt><trkpt lat="44.09664465125305" lon="9.74299223264999"><ele>236.0</ele><time>2026-04-12T11:12:01Z</time></trkpt><trkpt lat="44.09677686613903" lon="9.743036846622799"><ele>236.0</ele><time>2026-04-12T11:12:02Z</time></trkpt><trkpt lat="44.09692774748781" lon="9.743074923801913"><ele>236.0</ele><time>2026-04-12T11:12:03Z</time></trkpt><trkpt lat="44.09709055782907" lon="9.743108815545966"><ele>236.0</ele><time>2026-04-12T11:12:04Z</time></trkpt><trkpt lat="44.097251295494026" lon="9.743137306618433"><ele>236.0</ele><time>2026-04-12T11:12:04.999Z</time></trkpt><trkpt lat="44.09739926637963" lon="9.743172235642355"><ele>236.0</ele><time>2026-04-12T11:12:05.999Z</time></trkpt><trkpt lat="44.09752891636036" lon="9.743220524250443"><ele>236.0</ele><time>2026-04-12T11:12:06.999Z</time></trkpt><trkpt lat="44.09765019823536" lon="9.743291727679397"><ele>236.0</ele><time>2026-04-12T11:12:07.999Z</time></trkpt><trkpt lat="44.097764439288525" lon="9.743395512797083"><ele>235.0</ele><time>2026-04-12T11:12:08.999Z</time></trkpt><trkpt lat="44.09787148437202" lon="9.743527908485454"><ele>234.0</ele><time>2026-04-12T11:12:09.999Z</time></trkpt><trkpt lat="44.097971149274855" lon="9.743685543797277"><ele>233.0</ele><time>2026-04-12T11:12:10.999Z</time></trkpt><trkpt lat="44.09803290549835" lon="9.743874232100223"><ele>232.0</ele><time>2026-04-12T11:12:11.999Z</time></trkpt><trkpt lat="44.09809997148062" lon="9.74406193246924"><ele>240.0</ele><time>2026-04-12T11:12:12.999Z</time></trkpt><trkpt lat="44.09812501250705" lon="9.744277952281875"><ele>248.0</ele><time>2026-04-12T11:12:13.999Z</time></trkpt><trkpt lat="44.09810744314095" lon="9.744501821531228"><ele>256.0</ele><time>2026-04-12T11:12:14.999Z</time></trkpt><trkpt lat="44.09808149941922" lon="9.744712814198873"><ele>255.33333333333331</ele><time>2026-04-12T11:12:15.999Z</time></trkpt><trkpt lat="44.098025818857955" lon="9.744916221481851"><ele>254.66666666666669</ele><time>2026-04-12T11:12:16.999Z</time></trkpt><trkpt lat="44.097947640885266" lon="9.745122852138664"><ele>254.0</ele><time>2026-04-12T11:12:17.999Z</time></trkpt><trkpt lat="44.09787482680772" lon="9.745343138674686"><ele>254.0</ele><time>2026-04-12T11:12:18.999Z</time></trkpt><trkpt lat="44.097795291319606" lon="9.745551244201033"><ele>254.0</ele><time>2026-04-12T11:12:19.999Z</time></trkpt><trkpt lat="44.09772836333133" lon="9.745757440971303"><ele>254.0</ele><time>2026-04-12T11:12:20.999Z</time></trkpt><trkpt lat="44.097683500959" lon="9.745969606870679"><ele>251.33333333333334</ele><time>2026-04-12T11:12:21.999Z</time></trkpt><trkpt lat="44.097673303622194" lon="9.746197143602396"><ele>248.66666666666669</ele><time>2026-04-12T11:12:22.999Z</time></trkpt><trkpt lat="44.09771366132355" lon="9.746413974722167"><ele>246.0</ele><time>2026-04-12T11:12:23.999Z</time></trkpt><trkpt lat="44.09777537549" lon="9.746624416249915"><ele>246.0</ele><time>2026-04-12T11:12:24.999Z</time></trkpt><trkpt lat="44.097871986875916" lon="9.74681433290769"><ele>246.0</ele><time>2026-04-12T11:12:25.999Z</time></trkpt><trkpt lat="44.09799096422313" lon="9.74699124767632"><ele>246.0</ele><time>2026-04-12T11:12:26.999Z</time></trkpt><trkpt lat="44.09811192892733" lon="9.747176849294052"><ele>243.66666666666669</ele><time>2026-04-12T11:12:27.999Z</time></trkpt><trkpt lat="44.098227785901614" lon="9.747365481920431"><ele>241.33333333333334</ele><time>2026-04-12T11:12:28.999Z</time></trkpt><trkpt lat="44.098344950261726" lon="9.747564467281153"><ele>239.0</ele><time>2026-04-12T11:12:29.999Z</time></trkpt><trkpt lat="44.09845836088557" lon="9.747762001284743"><ele>239.0</ele><time>2026-04-12T11:12:30.999Z</time></trkpt><trkpt lat="44.098557429821504" lon="9.747950548572822"><ele>239.0</ele><time>2026-04-12T11:12:31.999Z</time></trkpt><trkpt lat="44.098667249158105" lon="9.748113366177472"><ele>239.0</ele><time>2026-04-12T11:12:32.999Z</time></trkpt><trkpt lat="44.098763881181064" lon="9.748274556559217"><ele>239.0</ele><time>2026-04-12T11:12:33.999Z</time></trkpt><trkpt lat="44.098868574684055" lon="9.74842305894485"><ele>239.0</ele><time>2026-04-12T11:12:35Z</time></trkpt><trkpt lat="44.09900845392051" lon="9.748536066555042"><ele>239.0</ele><time>2026-04-12T11:12:36Z</time></trkpt><trkpt lat="44.099154805617026" lon="9.748634601690506"><ele>239.25</ele><time>2026-04-12T11:12:37Z</time></trkpt><trkpt lat="44.099301005514484" lon="9.748701039681285"><ele>239.5</ele><time>2026-04-12T11:12:38Z</time></trkpt><trkpt lat="44.099426674567226" lon="9.74878283818883"><ele>239.75</ele><time>2026-04-12T11:12:39Z</time></trkpt><trkpt lat="44.099534402053585" lon="9.748886197382337"><ele>240.0</ele><time>2026-04-12T11:12:40Z</time></trkpt><trkpt lat="44.09964250962271" lon="9.749020967115687"><ele>240.0</ele><time>2026-04-12T11:12:41Z</time></trkpt><trkpt lat="44.09973513113975" lon="9.749188171073786"><ele>240.0</ele><time>2026-04-12T11:12:42Z</time></trkpt><trkpt lat="44.099803874273874" lon="9.74937737515918"><ele>240.0</ele><time>2026-04-12T11:12:43Z</time></trkpt><trkpt lat="44.09984930242479" lon="9.749574363032151"><ele>248.0</ele><time>2026-04-12T11:12:44Z</time></trkpt><trkpt lat="44.09987263123129" lon="9.749787406615996"><ele>256.0</ele><time>2026-04-12T11:12:45Z</time></trkpt><trkpt lat="44.09987856393746" lon="9.750023313475646"><ele>264.0</ele><time>2026-04-12T11:12:46Z</time></trkpt><trkpt lat="44.099908039126525" lon="9.750256370157285"><ele>248.66666666666669</ele><time>2026-04-12T11:12:47Z</time></trkpt><trkpt lat="44.099948167344095" lon="9.750482578765196"><ele>233.33333333333334</ele><time>2026-04-12T11:12:48Z</time></trkpt><trkpt lat="44.10001463271181" lon="9.75068398445913"><ele>218.0</ele><time>2026-04-12T11:12:49Z</time></trkpt><trkpt lat="44.10009698528801" lon="9.75086402445857"><ele>218.0</ele><time>2026-04-12T11:12:50Z</time></trkpt><trkpt lat="44.10021075935435" lon="9.75101543152876"><ele>218.0</ele><time>2026-04-12T11:12:51Z</time></trkpt><trkpt lat="44.10033863212154" lon="9.751136681436071"><ele>218.0</ele><time>2026-04-12T11:12:52Z</time></trkpt><trkpt lat="44.100475223893405" lon="9.751230004352124"><ele>218.66666666666669</ele><time>2026-04-12T11:12:53Z</time></trkpt><trkpt lat="44.100628505682906" lon="9.751289525211837"><ele>219.33333333333331</ele><time>2026-04-12T11:12:54Z</time></trkpt><trkpt lat="44.10079903654203" lon="9.751321803891601"><ele>220.0</ele><time>2026-04-12T11:12:55Z</time></trkpt><trkpt lat="44.100965475093346" lon="9.751340969878376"><ele>220.0</ele><time>2026-04-12T11:12:56Z</time></trkpt><trkpt lat="44.101126913746775" lon="9.751364054673015"><ele>220.0</ele><time>2026-04-12T11:12:57Z</time></trkpt><trkpt lat="44.1012754208845" lon="9.751366025167878"><ele>220.0</ele><time>2026-04-12T11:12:58Z</time></trkpt><trkpt lat="44.10142349320202" lon="9.751339674147312"><ele>220.0</ele><time>2026-04-12T11:12:59Z</time></trkpt><trkpt lat="44.10155708037743" lon="9.751275390375056"><ele>220.0</ele><time>2026-04-12T11:13:00Z</time></trkpt><trkpt lat="44.101682512876735" lon="9.751176194101724"><ele>220.0</ele><time>2026-04-12T11:13:01Z</time></trkpt><trkpt lat="44.10179856026958" lon="9.75106251263086"><ele>220.0</ele><time>2026-04-12T11:13:02Z</time></trkpt><trkpt lat="44.10190325874611" lon="9.75091393200866"><ele>212.66666666666666</ele><time>2026-04-12T11:13:03Z</time></trkpt><trkpt lat="44.10198360530024" lon="9.750728394397791"><ele>205.33333333333331</ele><time>2026-04-12T11:13:04Z</time></trkpt><trkpt lat="44.10205411263516" lon="9.750511115484999"><ele>198.0</ele><time>2026-04-12T11:13:05Z</time></trkpt><trkpt lat="44.1021240834621" lon="9.750286601758038"><ele>193.66666666666666</ele><time>2026-04-12T11:13:06Z</time></trkpt><trkpt lat="44.102199505746235" lon="9.75006700423026"><ele>189.33333333333331</ele><time>2026-04-12T11:13:07Z</time></trkpt><trkpt lat="44.10227470530315" lon="9.749849950733417"><ele>185.0</ele><time>2026-04-12T11:13:08Z</time></trkpt><trkpt lat="44.10235661379566" lon="9.749634726912356"><ele>188.66666666666666</ele><time>2026-04-12T11:13:09Z</time></trkpt><trkpt lat="44.102427457589044" lon="9.749430843568895"><ele>192.33333333333331</ele><time>2026-04-12T11:13:10Z</time></trkpt><trkpt lat="44.10249453701264" lon="9.7492297529923"><ele>196.0</ele><time>2026-04-12T11:13:11Z</time></trkpt><trkpt lat="44.10255917777893" lon="9.749041332069691"><ele>196.0</ele><time>2026-04-12T11:13:12Z</time></trkpt><trkpt lat="44.10261233577606" lon="9.748856152198927"><ele>196.0</ele><time>2026-04-12T11:13:13Z</time></trkpt><trkpt lat="44.10262981952856" lon="9.748646419223629"><ele>196.0</ele><time>2026-04-12T11:13:14Z</time></trkpt><trkpt lat="44.10262427954541" lon="9.748424077662333"><ele>195.66666666666666</ele><time>2026-04-12T11:13:15Z</time></trkpt><trkpt lat="44.10258378231082" lon="9.748212160250674"><ele>195.33333333333331</ele><time>2026-04-12T11:13:16Z</time></trkpt><trkpt lat="44.102517731266936" lon="9.748012618679468"><ele>195.0</ele><time>2026-04-12T11:13:17Z</time></trkpt><trkpt lat="44.102417750179775" lon="9.747829133293902"><ele>187.0</ele><time>2026-04-12T11:13:18Z</time></trkpt><trkpt lat="44.102292586872345" lon="9.74767020581177"><ele>179.0</ele><time>2026-04-12T11:13:19Z</time></trkpt><trkpt lat="44.102146622755754" lon="9.747536022032829"><ele>171.0</ele><time>2026-04-12T11:13:20Z</time></trkpt><trkpt lat="44.101993799654046" lon="9.74741652384924"><ele>171.0</ele><time>2026-04-12T11:13:21Z</time></trkpt><trkpt lat="44.10185018916271" lon="9.747290613449708"><ele>171.0</ele><time>2026-04-12T11:13:22Z</time></trkpt><trkpt lat="44.101719131743074" lon="9.747159068607107"><ele>171.0</ele><time>2026-04-12T11:13:23Z</time></trkpt><trkpt lat="44.10160958886265" lon="9.747008791894064"><ele>162.33333333333334</ele><time>2026-04-12T11:13:24Z</time></trkpt><trkpt lat="44.10151608178789" lon="9.746831046945305"><ele>153.66666666666669</ele><time>2026-04-12T11:13:25Z</time></trkpt><trkpt lat="44.101448822757526" lon="9.746631468920675"><ele>145.0</ele><time>2026-04-12T11:13:26Z</time></trkpt><trkpt lat="44.101429932652245" lon="9.746411428259371"><ele>145.0</ele><time>2026-04-12T11:13:27Z</time></trkpt><trkpt lat="44.101418393228954" lon="9.746197936827445"><ele>145.0</ele><time>2026-04-12T11:13:28Z</time></trkpt><trkpt lat="44.10143127094274" lon="9.745972603297766"><ele>145.0</ele><time>2026-04-12T11:13:29Z</time></trkpt><trkpt lat="44.10147808759862" lon="9.745749551529897"><ele>148.0</ele><time>2026-04-12T11:13:30Z</time></trkpt><trkpt lat="44.101538405136445" lon="9.74551789225482"><ele>151.0</ele><time>2026-04-12T11:13:31Z</time></trkpt><trkpt lat="44.1015995339075" lon="9.745279928775602"><ele>154.0</ele><time>2026-04-12T11:13:32Z</time></trkpt><trkpt lat="44.10165318000176" lon="9.745024631738497"><ele>160.66666666666669</ele><time>2026-04-12T11:13:33Z</time></trkpt><trkpt lat="44.10171892045462" lon="9.744791712478992"><ele>167.33333333333334</ele><time>2026-04-12T11:13:34Z</time></trkpt><trkpt lat="44.10178350280669" lon="9.74454269903117"><ele>174.0</ele><time>2026-04-12T11:13:35Z</time></trkpt><trkpt lat="44.10184440516067" lon="9.744298476892858"><ele>174.0</ele><time>2026-04-12T11:13:36Z</time></trkpt><trkpt lat="44.101902187086196" lon="9.744063219143802"><ele>174.0</ele><time>2026-04-12T11:13:37Z</time></trkpt><trkpt lat="44.10195912701443" lon="9.743839019834338"><ele>174.0</ele><time>2026-04-12T11:13:38Z</time></trkpt><trkpt lat="44.102014755738274" lon="9.74363050270197"><ele>168.75</ele><time>2026-04-12T11:13:39Z</time></trkpt><trkpt lat="44.102068824538904" lon="9.743433486665232"><ele>163.5</ele><time>2026-04-12T11:13:40Z</time></trkpt><trkpt lat="44.102116540305865" lon="9.743238368628251"><ele>158.25</ele><time>2026-04-12T11:13:41Z</time></trkpt><trkpt lat="44.10214321402274" lon="9.743049721540283"><ele>153.0</ele><time>2026-04-12T11:13:42Z</time></trkpt><trkpt lat="44.10216410507738" lon="9.742872354205263"><ele>153.0</ele><time>2026-04-12T11:13:43Z</time></trkpt><trkpt lat="44.102162968469614" lon="9.742700482921945"><ele>153.0</ele><time>2026-04-12T11:13:44Z</time></trkpt><trkpt lat="44.10215813862764" lon="9.742534776719278"><ele>153.0</ele><time>2026-04-12T11:13:45Z</time></trkpt><trkpt lat="44.102153447983525" lon="9.742380323460731"><ele>153.0</ele><time>2026-04-12T11:13:46Z</time></trkpt><trkpt lat="44.10214874392487" lon="9.742227929775764"><ele>153.0</ele><time>2026-04-12T11:13:47Z</time></trkpt><trkpt lat="44.10214418648738" lon="9.742082089076662"><ele>153.0</ele><time>2026-04-12T11:13:48Z</time></trkpt><trkpt lat="44.10213986460806" lon="9.741945883538033"><ele>153.0</ele><time>2026-04-12T11:13:49Z</time></trkpt><trkpt lat="44.102135874193856" lon="9.741820124274215"><ele>153.0</ele><time>2026-04-12T11:13:50Z</time></trkpt><trkpt lat="44.102125914872815" lon="9.741660934940336"><ele>153.0</ele><time>2026-04-12T11:13:51Z</time></trkpt><trkpt lat="44.102134425760205" lon="9.741463852938313"><ele>151.0</ele><time>2026-04-12T11:13:52Z</time></trkpt><trkpt lat="44.10212289733836" lon="9.741244362360241"><ele>149.0</ele><time>2026-04-12T11:13:53Z</time></trkpt><trkpt lat="44.102109633937836" lon="9.741003869016996"><ele>147.0</ele><time>2026-04-12T11:13:54Z</time></trkpt><trkpt lat="44.10209880048614" lon="9.740752088979248"><ele>145.33333333333334</ele><time>2026-04-12T11:13:55Z</time></trkpt><trkpt lat="44.10209159781499" lon="9.740514661056872"><ele>143.66666666666669</ele><time>2026-04-12T11:13:56Z</time></trkpt><trkpt lat="44.102084901438985" lon="9.740286651285016"><ele>142.0</ele><time>2026-04-12T11:13:57Z</time></trkpt><trkpt lat="44.102083737164506" lon="9.740071024123464"><ele>142.0</ele><time>2026-04-12T11:13:58Z</time></trkpt><trkpt lat="44.10208944726905" lon="9.739867291598266"><ele>142.0</ele><time>2026-04-12T11:13:59Z</time></trkpt><trkpt lat="44.10212105519264" lon="9.739671327875103"><ele>142.0</ele><time>2026-04-12T11:14:00Z</time></trkpt><trkpt lat="44.10217894418774" lon="9.739483804039777"><ele>142.0</ele><time>2026-04-12T11:14:01Z</time></trkpt><trkpt lat="44.10226377036434" lon="9.739315145536185"><ele>143.0</ele><time>2026-04-12T11:14:02Z</time></trkpt><trkpt lat="44.10235970747344" lon="9.739166558594475"><ele>144.0</ele><time>2026-04-12T11:14:03Z</time></trkpt><trkpt lat="44.1024782284704" lon="9.739046724120266"><ele>145.0</ele><time>2026-04-12T11:14:04Z</time></trkpt><trkpt lat="44.10260972481671" lon="9.738963287195833"><ele>146.0</ele><time>2026-04-12T11:14:05Z</time></trkpt><trkpt lat="44.10275670214151" lon="9.73890310581924"><ele>156.66666666666666</ele><time>2026-04-12T11:14:06Z</time></trkpt><trkpt lat="44.102907522524674" lon="9.738858930476946"><ele>167.33333333333334</ele><time>2026-04-12T11:14:07Z</time></trkpt><trkpt lat="44.103055149585366" lon="9.738799785786187"><ele>178.0</ele><time>2026-04-12T11:14:08.001Z</time></trkpt><trkpt lat="44.10320007162003" lon="9.738738226258961"><ele>177.5</ele><time>2026-04-12T11:14:09.001Z</time></trkpt><trkpt lat="44.10334169523007" lon="9.738673390427312"><ele>177.0</ele><time>2026-04-12T11:14:10.001Z</time></trkpt><trkpt lat="44.103486265423406" lon="9.738634637101184"><ele>176.5</ele><time>2026-04-12T11:14:10.999Z</time></trkpt><trkpt lat="44.10362102552398" lon="9.738577091370667"><ele>176.0</ele><time>2026-04-12T11:14:11.999Z</time></trkpt><trkpt lat="44.10375626735332" lon="9.738517837255186"><ele>168.75</ele><time>2026-04-12T11:14:12.999Z</time></trkpt><trkpt lat="44.103889533336414" lon="9.73845796482763"><ele>161.5</ele><time>2026-04-12T11:14:13.999Z</time></trkpt><trkpt lat="44.10402322476825" lon="9.738393727108106"><ele>154.25</ele><time>2026-04-12T11:14:14.999Z</time></trkpt><trkpt lat="44.1041622950134" lon="9.738319898022853"><ele>147.0</ele><time>2026-04-12T11:14:15.999Z</time></trkpt><trkpt lat="44.10430090729153" lon="9.738239673494492"><ele>139.0</ele><time>2026-04-12T11:14:16.999Z</time></trkpt><trkpt lat="44.10443831596698" lon="9.738150053717098"><ele>131.0</ele><time>2026-04-12T11:14:17.999Z</time></trkpt><trkpt lat="44.10457267786087" lon="9.738049389049438"><ele>123.0</ele><time>2026-04-12T11:14:18.999Z</time></trkpt><trkpt lat="44.10470241332706" lon="9.737937467856018"><ele>123.0</ele><time>2026-04-12T11:14:19.999Z</time></trkpt><trkpt lat="44.10483122825109" lon="9.737809824543145"><ele>123.0</ele><time>2026-04-12T11:14:20.999Z</time></trkpt><trkpt lat="44.10495311371372" lon="9.737679012004131"><ele>123.0</ele><time>2026-04-12T11:14:21.999Z</time></trkpt><trkpt lat="44.10507543008129" lon="9.737543474155062"><ele>121.33333333333334</ele><time>2026-04-12T11:14:22.999Z</time></trkpt><trkpt lat="44.10519599453904" lon="9.73740440775636"><ele>119.66666666666667</ele><time>2026-04-12T11:14:23.999Z</time></trkpt><trkpt lat="44.105317601037925" lon="9.737257646968288"><ele>118.0</ele><time>2026-04-12T11:14:24.999Z</time></trkpt><trkpt lat="44.10543905962773" lon="9.737103415842752"><ele>118.0</ele><time>2026-04-12T11:14:25.999Z</time></trkpt><trkpt lat="44.10555405770873" lon="9.736937930000773"><ele>118.0</ele><time>2026-04-12T11:14:26.999Z</time></trkpt><trkpt lat="44.10567793041842" lon="9.736787564285608"><ele>118.0</ele><time>2026-04-12T11:14:27.999Z</time></trkpt><trkpt lat="44.10579459579605" lon="9.736636686957304"><ele>135.66666666666669</ele><time>2026-04-12T11:14:28.999Z</time></trkpt><trkpt lat="44.10590683434224" lon="9.736488528188124"><ele>153.33333333333334</ele><time>2026-04-12T11:14:30Z</time></trkpt><trkpt lat="44.10601779025542" lon="9.736345366383151"><ele>171.0</ele><time>2026-04-12T11:14:31Z</time></trkpt><trkpt lat="44.10612656327079" lon="9.736207925168104"><ele>171.0</ele><time>2026-04-12T11:14:32Z</time></trkpt><trkpt lat="44.106234967001214" lon="9.736070020028428"><ele>171.0</ele><time>2026-04-12T11:14:33Z</time></trkpt><trkpt lat="44.10634562628531" lon="9.73592916518647"><ele>171.0</ele><time>2026-04-12T11:14:34Z</time></trkpt><trkpt lat="44.10645499472517" lon="9.735787926528738"><ele>171.0</ele><time>2026-04-12T11:14:35Z</time></trkpt><trkpt lat="44.10656530680308" lon="9.735646303864344"><ele>189.33333333333331</ele><time>2026-04-12T11:14:36Z</time></trkpt><trkpt lat="44.106674013131375" lon="9.73550611846251"><ele>207.66666666666666</ele><time>2026-04-12T11:14:37Z</time></trkpt><trkpt lat="44.1067846839304" lon="9.735363248891707"><ele>226.0</ele><time>2026-04-12T11:14:38Z</time></trkpt><trkpt lat="44.10689731455468" lon="9.735219822435731"><ele>231.66666666666666</ele><time>2026-04-12T11:14:39Z</time></trkpt><trkpt lat="44.107013365714" lon="9.735077415628185"><ele>237.33333333333331</ele><time>2026-04-12T11:14:40Z</time></trkpt><trkpt lat="44.107128456599455" lon="9.734933536908407"><ele>243.0</ele><time>2026-04-12T11:14:41Z</time></trkpt><trkpt lat="44.10724361645849" lon="9.734785818150524"><ele>243.0</ele><time>2026-04-12T11:14:42Z</time></trkpt><trkpt lat="44.10738822555143" lon="9.734567536563043"><ele>243.0</ele><time>2026-04-12T11:14:43Z</time></trkpt><trkpt lat="44.107505087423704" lon="9.73441728556818"><ele>243.0</ele><time>2026-04-12T11:14:44Z</time></trkpt><trkpt lat="44.10762601862529" lon="9.734261802615627"><ele>226.25</ele><time>2026-04-12T11:14:45Z</time></trkpt><trkpt lat="44.10774201134413" lon="9.734118872347464"><ele>209.5</ele><time>2026-04-12T11:14:46Z</time></trkpt><trkpt lat="44.107813818902464" lon="9.73412369639222"><ele>192.75</ele><time>2026-04-12T11:14:47Z</time></trkpt><trkpt lat="44.10791628555884" lon="9.733959142096879"><ele>176.0</ele><time>2026-04-12T11:14:48Z</time></trkpt><trkpt lat="44.10802345143314" lon="9.73396352134447"><ele>176.0</ele><time>2026-04-12T11:14:49Z</time></trkpt><trkpt lat="44.10811148884978" lon="9.733959463285979"><ele>176.0</ele><time>2026-04-12T11:14:50Z</time></trkpt><trkpt lat="44.108219076005135" lon="9.734017819862729"><ele>176.0</ele><time>2026-04-12T11:14:51Z</time></trkpt><trkpt lat="44.10831714592169" lon="9.734101561663696"><ele>176.0</ele><time>2026-04-12T11:14:52Z</time></trkpt><trkpt lat="44.1084212036191" lon="9.73420554108097"><ele>176.0</ele><time>2026-04-12T11:14:53Z</time></trkpt><trkpt lat="44.10852866826525" lon="9.734300825429813"><ele>180.25</ele><time>2026-04-12T11:14:54Z</time></trkpt><trkpt lat="44.10863036587315" lon="9.734393666355"><ele>184.5</ele><time>2026-04-12T11:14:55Z</time></trkpt><trkpt lat="44.10873338550724" lon="9.7344813706777"><ele>188.75</ele><time>2026-04-12T11:14:56Z</time></trkpt><trkpt lat="44.108832436783075" lon="9.734574091581164"><ele>193.0</ele><time>2026-04-12T11:14:57Z</time></trkpt><trkpt lat="44.10892863186645" lon="9.734673550924665"><ele>193.0</ele><time>2026-04-12T11:14:58Z</time></trkpt><trkpt lat="44.10900650509141" lon="9.734790791432102"><ele>193.0</ele><time>2026-04-12T11:14:59Z</time></trkpt><trkpt lat="44.109098430193676" lon="9.734905258806062"><ele>193.0</ele><time>2026-04-12T11:15:00Z</time></trkpt><trkpt lat="44.10916382282449" lon="9.735053591592644"><ele>193.0</ele><time>2026-04-12T11:15:01Z</time></trkpt><trkpt lat="44.10921905473742" lon="9.735208004156469"><ele>188.60000000000002</ele><time>2026-04-12T11:15:02Z</time></trkpt><trkpt lat="44.10926702674418" lon="9.735356034257245"><ele>184.20000000000002</ele><time>2026-04-12T11:15:03Z</time></trkpt><trkpt lat="44.109312019333075" lon="9.735492731653709"><ele>179.8</ele><time>2026-04-12T11:15:04Z</time></trkpt><trkpt lat="44.10935560369745" lon="9.73561630174416"><ele>175.4</ele><time>2026-04-12T11:15:05Z</time></trkpt><trkpt lat="44.1094077219299" lon="9.735706049949101"><ele>171.0</ele><time>2026-04-12T11:15:06Z</time></trkpt><trkpt lat="44.109488136100666" lon="9.735746400120563"><ele>171.0</ele><time>2026-04-12T11:15:07Z</time></trkpt><trkpt lat="44.10957249432889" lon="9.735729279472658"><ele>171.0</ele><time>2026-04-12T11:15:08Z</time></trkpt><trkpt lat="44.10964698978839" lon="9.735670522626373"><ele>171.0</ele><time>2026-04-12T11:15:09Z</time></trkpt><trkpt lat="44.10972240416926" lon="9.735563383384978"><ele>171.0</ele><time>2026-04-12T11:15:10Z</time></trkpt><trkpt lat="44.109783892325225" lon="9.735446104730768"><ele>171.0</ele><time>2026-04-12T11:15:11Z</time></trkpt><trkpt lat="44.109858273994504" lon="9.735346813838289"><ele>169.4</ele><time>2026-04-12T11:15:12Z</time></trkpt><trkpt lat="44.109940919610935" lon="9.735256041059538"><ele>167.8</ele><time>2026-04-12T11:15:13Z</time></trkpt><trkpt lat="44.11003207189641" lon="9.73518191869191"><ele>166.20000000000002</ele><time>2026-04-12T11:15:14Z</time></trkpt><trkpt lat="44.11011867149478" lon="9.735131200630304"><ele>164.60000000000002</ele><time>2026-04-12T11:15:15Z</time></trkpt><trkpt lat="44.11019743382934" lon="9.735111178281995"><ele>163.0</ele><time>2026-04-12T11:15:16Z</time></trkpt><trkpt lat="44.11027112540524" lon="9.735108317255037"><ele>157.4</ele><time>2026-04-12T11:15:17Z</time></trkpt><trkpt lat="44.11035206603799" lon="9.735134877545434"><ele>151.8</ele><time>2026-04-12T11:15:18Z</time></trkpt><trkpt lat="44.11043937257726" lon="9.735167590773333"><ele>146.2</ele><time>2026-04-12T11:15:19Z</time></trkpt><trkpt lat="44.110539494881785" lon="9.735162202037609"><ele>140.6</ele><time>2026-04-12T11:15:20Z</time></trkpt><trkpt lat="44.11063929805003" lon="9.73510653286173"><ele>135.0</ele><time>2026-04-12T11:15:21Z</time></trkpt><trkpt lat="44.11073639245" lon="9.735010719556378"><ele>137.5</ele><time>2026-04-12T11:15:22Z</time></trkpt><trkpt lat="44.11083574865187" lon="9.734909275657463"><ele>140.0</ele><time>2026-04-12T11:15:23Z</time></trkpt><trkpt lat="44.11093968684429" lon="9.734800029859016"><ele>142.5</ele><time>2026-04-12T11:15:24Z</time></trkpt><trkpt lat="44.1110461891486" lon="9.734681368208731"><ele>145.0</ele><time>2026-04-12T11:15:25Z</time></trkpt><trkpt lat="44.111148145970574" lon="9.734576538872414"><ele>145.0</ele><time>2026-04-12T11:15:26Z</time></trkpt><trkpt lat="44.11125164394454" lon="9.734500291936051"><ele>145.0</ele><time>2026-04-12T11:15:27Z</time></trkpt><trkpt lat="44.11135550509739" lon="9.734428289214312"><ele>145.0</ele><time>2026-04-12T11:15:28Z</time></trkpt><trkpt lat="44.11144755695823" lon="9.734348027610293"><ele>145.0</ele><time>2026-04-12T11:15:29Z</time></trkpt><trkpt lat="44.11151844212723" lon="9.734238728997639"><ele>145.0</ele><time>2026-04-12T11:15:30Z</time></trkpt><trkpt lat="44.11156958140572" lon="9.734113115593553"><ele>147.6</ele><time>2026-04-12T11:15:31Z</time></trkpt><trkpt lat="44.111609454194834" lon="9.733975389584264"><ele>150.2</ele><time>2026-04-12T11:15:32Z</time></trkpt><trkpt lat="44.111649942019476" lon="9.733837498495621"><ele>152.8</ele><time>2026-04-12T11:15:33Z</time></trkpt><trkpt lat="44.11169708786143" lon="9.733704941842296"><ele>155.4</ele><time>2026-04-12T11:15:34Z</time></trkpt><trkpt lat="44.11174174925369" lon="9.733581839870547"><ele>158.0</ele><time>2026-04-12T11:15:35Z</time></trkpt><trkpt lat="44.11176683491053" lon="9.733466813724249"><ele>158.0</ele><time>2026-04-12T11:15:36.001Z</time></trkpt><trkpt lat="44.11176557840011" lon="9.73334357925308"><ele>158.0</ele><time>2026-04-12T11:15:37.001Z</time></trkpt><trkpt lat="44.11174161193414" lon="9.733229208935354"><ele>158.0</ele><time>2026-04-12T11:15:38.001Z</time></trkpt><trkpt lat="44.11170628654134" lon="9.73311970586452"><ele>158.0</ele><time>2026-04-12T11:15:39.001Z</time></trkpt><trkpt lat="44.11169338162725" lon="9.733017784380634"><ele>158.0</ele><time>2026-04-12T11:15:40.001Z</time></trkpt><trkpt lat="44.11168806254854" lon="9.73287598172999"><ele>158.0</ele><time>2026-04-12T11:15:42.001Z</time></trkpt><trkpt lat="44.11180209274722" lon="9.732825444366727"><ele>158.0</ele><time>2026-04-12T11:15:44.001Z</time></trkpt><trkpt lat="44.11187155118465" lon="9.732867765434518"><ele>158.0</ele><time>2026-04-12T11:15:45.001Z</time></trkpt><trkpt lat="44.111933177307336" lon="9.732953693465602"><ele>158.0</ele><time>2026-04-12T11:15:46.001Z</time></trkpt><trkpt lat="44.112006650705446" lon="9.733002856753435"><ele>158.0</ele><time>2026-04-12T11:15:47.001Z</time></trkpt><trkpt lat="44.11207140605248" lon="9.73306791307831"><ele>158.0</ele><time>2026-04-12T11:15:48.001Z</time></trkpt><trkpt lat="44.11213874295775" lon="9.73313109888989"><ele>158.0</ele><time>2026-04-12T11:15:49.001Z</time></trkpt><trkpt lat="44.11220375091512" lon="9.733195608723172"><ele>158.0</ele><time>2026-04-12T11:15:50.001Z</time></trkpt><trkpt lat="44.112264451011406" lon="9.73326411838415"><ele>158.0</ele><time>2026-04-12T11:15:51.001Z</time></trkpt><trkpt lat="44.11232244208755" lon="9.733341947508485"><ele>158.0</ele><time>2026-04-12T11:15:52.001Z</time></trkpt><trkpt lat="44.112378385671754" lon="9.733418795660542"><ele>158.0</ele><time>2026-04-12T11:15:53.001Z</time></trkpt><trkpt lat="44.11243458243463" lon="9.733492252419104"><ele>158.0</ele><time>2026-04-12T11:15:54.001Z</time></trkpt><trkpt lat="44.112489326224114" lon="9.733571790366529"><ele>158.0</ele><time>2026-04-12T11:15:55.001Z</time></trkpt><trkpt lat="44.11253797899782" lon="9.733659894399343"><ele>161.0</ele><time>2026-04-12T11:15:56.001Z</time></trkpt><trkpt lat="44.112583526369235" lon="9.733754561595555"><ele>164.0</ele><time>2026-04-12T11:15:57.001Z</time></trkpt><trkpt lat="44.11262637929725" lon="9.733844362229883"><ele>167.0</ele><time>2026-04-12T11:15:58.001Z</time></trkpt><trkpt lat="44.1126732548271" lon="9.733933026144014"><ele>170.0</ele><time>2026-04-12T11:15:59.001Z</time></trkpt><trkpt lat="44.11271841397634" lon="9.734009190204304"><ele>173.0</ele><time>2026-04-12T11:16:00.001Z</time></trkpt><trkpt lat="44.11282281596005" lon="9.734121335070668"><ele>176.0</ele><time>2026-04-12T11:16:02.001Z</time></trkpt><trkpt lat="44.11289307450847" lon="9.734176199312307"><ele>176.0</ele><time>2026-04-12T11:16:03.001Z</time></trkpt><trkpt lat="44.112982005158834" lon="9.73416555393661"><ele>176.0</ele><time>2026-04-12T11:16:04.001Z</time></trkpt><trkpt lat="44.11305090545255" lon="9.734163291933617"><ele>176.0</ele><time>2026-04-12T11:16:05.001Z</time></trkpt><trkpt lat="44.113150674669804" lon="9.734175991261198"><ele>176.0</ele><time>2026-04-12T11:16:07.001Z</time></trkpt><trkpt lat="44.113200938202745" lon="9.73428161766277"><ele>176.0</ele><time>2026-04-12T11:16:09.001Z</time></trkpt><trkpt lat="44.11317709436355" lon="9.734364702623953"><ele>176.0</ele><time>2026-04-12T11:16:10.001Z</time></trkpt><trkpt lat="44.11313365271222" lon="9.734429819711321"><ele>177.85714285714286</ele><time>2026-04-12T11:16:11.001Z</time></trkpt><trkpt lat="44.113054929147786" lon="9.734458778314474"><ele>179.71428571428572</ele><time>2026-04-12T11:16:12.001Z</time></trkpt><trkpt lat="44.113007732440565" lon="9.734538632304348"><ele>181.57142857142856</ele><time>2026-04-12T11:16:13.001Z</time></trkpt><trkpt lat="44.11297433558459" lon="9.73462102045485"><ele>183.42857142857144</ele><time>2026-04-12T11:16:14.001Z</time></trkpt><trkpt lat="44.112964867843054" lon="9.734716827330125"><ele>185.28571428571428</ele><time>2026-04-12T11:16:15.001Z</time></trkpt><trkpt lat="44.11297806496271" lon="9.734823930201983"><ele>187.14285714285714</ele><time>2026-04-12T11:16:16.001Z</time></trkpt><trkpt lat="44.11299826004877" lon="9.734924156465281"><ele>189.0</ele><time>2026-04-12T11:16:17Z</time></trkpt><trkpt lat="44.11301236874162" lon="9.73503060264949"><ele>189.0</ele><time>2026-04-12T11:16:18Z</time></trkpt><trkpt lat="44.11302597506833" lon="9.735143046827508"><ele>189.0</ele><time>2026-04-12T11:16:19Z</time></trkpt><trkpt lat="44.11303670925329" lon="9.73526884362295"><ele>189.0</ele><time>2026-04-12T11:16:20Z</time></trkpt><trkpt lat="44.11304584489038" lon="9.735402213880368"><ele>189.0</ele><time>2026-04-12T11:16:21Z</time></trkpt><trkpt lat="44.11305693436461" lon="9.73551328268405"><ele>189.0</ele><time>2026-04-12T11:16:22Z</time></trkpt><trkpt lat="44.113064931918196" lon="9.735631909533701"><ele>189.0</ele><time>2026-04-12T11:16:23Z</time></trkpt><trkpt lat="44.1130732559909" lon="9.735758480855734"><ele>191.33333333333334</ele><time>2026-04-12T11:16:24Z</time></trkpt><trkpt lat="44.11308103197065" lon="9.73588914199504"><ele>193.66666666666669</ele><time>2026-04-12T11:16:25Z</time></trkpt><trkpt lat="44.1130942170581" lon="9.736017799231247"><ele>196.0</ele><time>2026-04-12T11:16:26Z</time></trkpt><trkpt lat="44.11310635268858" lon="9.736137064188362"><ele>198.33333333333334</ele><time>2026-04-12T11:16:27Z</time></trkpt><trkpt lat="44.11311478800255" lon="9.73625519360403"><ele>200.66666666666669</ele><time>2026-04-12T11:16:28Z</time></trkpt><trkpt lat="44.113126079559" lon="9.73637633280255"><ele>203.0</ele><time>2026-04-12T11:16:29Z</time></trkpt><trkpt lat="44.11314555714269" lon="9.736488210795892"><ele>205.00000000000003</ele><time>2026-04-12T11:16:30Z</time></trkpt><trkpt lat="44.11318284573635" lon="9.73660102499402"><ele>207.0</ele><time>2026-04-12T11:16:31Z</time></trkpt><trkpt lat="44.11324307899918" lon="9.736701726615912"><ele>209.0</ele><time>2026-04-12T11:16:32Z</time></trkpt><trkpt lat="44.11331124751423" lon="9.736783624082044"><ele>211.0</ele><time>2026-04-12T11:16:33Z</time></trkpt><trkpt lat="44.113384348561446" lon="9.736845041119723"><ele>213.00000000000003</ele><time>2026-04-12T11:16:34Z</time></trkpt><trkpt lat="44.11346071742702" lon="9.7368800003439"><ele>215.0</ele><time>2026-04-12T11:16:35Z</time></trkpt><trkpt lat="44.11355050833971" lon="9.736891077540745"><ele>215.0</ele><time>2026-04-12T11:16:36Z</time></trkpt><trkpt lat="44.11364536862891" lon="9.73688312236057"><ele>215.0</ele><time>2026-04-12T11:16:37Z</time></trkpt><trkpt lat="44.11374046995498" lon="9.736865472225649"><ele>215.0</ele><time>2026-04-12T11:16:38Z</time></trkpt><trkpt lat="44.11383318817646" lon="9.736860306689819"><ele>215.0</ele><time>2026-04-12T11:16:39Z</time></trkpt><trkpt lat="44.113926386690785" lon="9.73686051210905"><ele>215.0</ele><time>2026-04-12T11:16:40Z</time></trkpt><trkpt lat="44.1140190464629" lon="9.736853087440013"><ele>219.2</ele><time>2026-04-12T11:16:41Z</time></trkpt><trkpt lat="44.1141003762379" lon="9.736850973065028"><ele>223.4</ele><time>2026-04-12T11:16:42Z</time></trkpt><trkpt lat="44.114168784553065" lon="9.736839778261558"><ele>227.60000000000002</ele><time>2026-04-12T11:16:43Z</time></trkpt><trkpt lat="44.114252572064736" lon="9.736850282258455"><ele>231.8</ele><time>2026-04-12T11:16:45Z</time></trkpt><trkpt lat="44.11432062214342" lon="9.736947984297101"><ele>236.0</ele><time>2026-04-12T11:16:47Z</time></trkpt><trkpt lat="44.11426882704727" lon="9.737116534854215"><ele>236.00000000000003</ele><time>2026-04-12T11:16:49Z</time></trkpt><trkpt lat="44.11420497917653" lon="9.737184503054227"><ele>236.0</ele><time>2026-04-12T11:16:50Z</time></trkpt><trkpt lat="44.11413410767374" lon="9.73725128154096"><ele>236.0</ele><time>2026-04-12T11:16:51Z</time></trkpt><trkpt lat="44.11406038157972" lon="9.737336273246413"><ele>236.0</ele><time>2026-04-12T11:16:52Z</time></trkpt><trkpt lat="44.11398580199075" lon="9.737420901878403"><ele>236.00000000000003</ele><time>2026-04-12T11:16:53Z</time></trkpt><trkpt lat="44.11391692948084" lon="9.737498322461136"><ele>236.0</ele><time>2026-04-12T11:16:54Z</time></trkpt><trkpt lat="44.11384508501414" lon="9.737569698769796"><ele>233.20000000000002</ele><time>2026-04-12T11:16:55Z</time></trkpt><trkpt lat="44.11376847550906" lon="9.737622043573"><ele>230.40000000000003</ele><time>2026-04-12T11:16:56Z</time></trkpt><trkpt lat="44.11370842053166" lon="9.737661925678912"><ele>227.6</ele><time>2026-04-12T11:16:57Z</time></trkpt><trkpt lat="44.113640761423156" lon="9.737752771103787"><ele>224.8</ele><time>2026-04-12T11:16:59Z</time></trkpt><trkpt lat="44.113674167920706" lon="9.737871339343652"><ele>222.0</ele><time>2026-04-12T11:17:01Z</time></trkpt><trkpt lat="44.11380943912948" lon="9.737877926015464"><ele>224.33333333333334</ele><time>2026-04-12T11:17:03Z</time></trkpt><trkpt lat="44.113887056177866" lon="9.73784559369115"><ele>226.66666666666669</ele><time>2026-04-12T11:17:04Z</time></trkpt><trkpt lat="44.11397097776154" lon="9.73781927648629"><ele>229.0</ele><time>2026-04-12T11:17:05Z</time></trkpt><trkpt lat="44.11405458712425" lon="9.737788488321215"><ele>231.33333333333334</ele><time>2026-04-12T11:17:06Z</time></trkpt><trkpt lat="44.11412890018661" lon="9.737751904502746"><ele>233.66666666666669</ele><time>2026-04-12T11:17:07Z</time></trkpt><trkpt lat="44.114197306319944" lon="9.737701504985372"><ele>236.0</ele><time>2026-04-12T11:17:08Z</time></trkpt><trkpt lat="44.11426252174346" lon="9.737637241143087"><ele>236.0</ele><time>2026-04-12T11:17:09Z</time></trkpt><trkpt lat="44.11433206814755" lon="9.737563594947595"><ele>236.00000000000003</ele><time>2026-04-12T11:17:10Z</time></trkpt><trkpt lat="44.11441010016317" lon="9.737490025496827"><ele>236.00000000000003</ele><time>2026-04-12T11:17:11Z</time></trkpt><trkpt lat="44.1144863223867" lon="9.737428641919927"><ele>236.0</ele><time>2026-04-12T11:17:12Z</time></trkpt><trkpt lat="44.114572405492126" lon="9.737368790379483"><ele>236.0</ele><time>2026-04-12T11:17:13Z</time></trkpt><trkpt lat="44.114664532108044" lon="9.7373255373489"><ele>236.00000000000003</ele><time>2026-04-12T11:17:14Z</time></trkpt><trkpt lat="44.11475314145047" lon="9.737304709972333"><ele>236.0</ele><time>2026-04-12T11:17:15Z</time></trkpt><trkpt lat="44.11483888602916" lon="9.73732106044759"><ele>236.0</ele><time>2026-04-12T11:17:16Z</time></trkpt><trkpt lat="44.11492241908626" lon="9.737373387720965"><ele>236.0</ele><time>2026-04-12T11:17:17Z</time></trkpt><trkpt lat="44.11499489063547" lon="9.737427018453612"><ele>236.00000000000003</ele><time>2026-04-12T11:17:18Z</time></trkpt><trkpt lat="44.115066891755646" lon="9.737480940160468"><ele>236.0</ele><time>2026-04-12T11:17:19Z</time></trkpt><trkpt lat="44.11513731497026" lon="9.737534923788612"><ele>238.42857142857142</ele><time>2026-04-12T11:17:20Z</time></trkpt><trkpt lat="44.115206925881935" lon="9.73756667814375"><ele>240.8571428571429</ele><time>2026-04-12T11:17:21Z</time></trkpt><trkpt lat="44.115271289141255" lon="9.737571379137075"><ele>243.2857142857143</ele><time>2026-04-12T11:17:22.001Z</time></trkpt><trkpt lat="44.115336761451914" lon="9.73754191342374"><ele>245.71428571428572</ele><time>2026-04-12T11:17:23.001Z</time></trkpt><trkpt lat="44.11538157792987" lon="9.737465089983493"><ele>248.14285714285717</ele><time>2026-04-12T11:17:24.001Z</time></trkpt><trkpt lat="44.11540614159042" lon="9.737367682771122"><ele>250.5714285714286</ele><time>2026-04-12T11:17:25.001Z</time></trkpt><trkpt lat="44.11542520505738" lon="9.737272995757243"><ele>253.00000000000003</ele><time>2026-04-12T11:17:26.001Z</time></trkpt><trkpt lat="44.115474102976705" lon="9.737179800753054"><ele>253.0</ele><time>2026-04-12T11:17:27.001Z</time></trkpt><trkpt lat="44.115540268200256" lon="9.737088466714246"><ele>253.0</ele><time>2026-04-12T11:17:28.001Z</time></trkpt><trkpt lat="44.115624266222675" lon="9.737008979202983"><ele>253.0</ele><time>2026-04-12T11:17:29.001Z</time></trkpt><trkpt lat="44.1157071153309" lon="9.736928492314682"><ele>253.0</ele><time>2026-04-12T11:17:30.001Z</time></trkpt><trkpt lat="44.115783531100604" lon="9.736816201444396"><ele>253.0</ele><time>2026-04-12T11:17:31.001Z</time></trkpt><trkpt lat="44.11585662569953" lon="9.73669282205521"><ele>254.33333333333331</ele><time>2026-04-12T11:17:32.001Z</time></trkpt><trkpt lat="44.11591404097862" lon="9.736576424139527"><ele>255.66666666666666</ele><time>2026-04-12T11:17:33.001Z</time></trkpt><trkpt lat="44.11597559443315" lon="9.736478813747734"><ele>257.0</ele><time>2026-04-12T11:17:34.001Z</time></trkpt><trkpt lat="44.11604720165152" lon="9.736405425530196"><ele>258.3333333333333</ele><time>2026-04-12T11:17:35.001Z</time></trkpt><trkpt lat="44.1161213357666" lon="9.736360712092972"><ele>259.6666666666667</ele><time>2026-04-12T11:17:36.001Z</time></trkpt><trkpt lat="44.11619979439443" lon="9.73633401466151"><ele>261.0</ele><time>2026-04-12T11:17:37.001Z</time></trkpt><trkpt lat="44.116281314049246" lon="9.73638036968485"><ele>261.0</ele><time>2026-04-12T11:17:38.001Z</time></trkpt><trkpt lat="44.11637490074675" lon="9.736433477845498"><ele>261.0</ele><time>2026-04-12T11:17:39.001Z</time></trkpt><trkpt lat="44.11647909498932" lon="9.73648541945584"><ele>261.0</ele><time>2026-04-12T11:17:40.001Z</time></trkpt><trkpt lat="44.11658568320934" lon="9.736518593243416"><ele>261.0</ele><time>2026-04-12T11:17:41.001Z</time></trkpt><trkpt lat="44.11667663141586" lon="9.736571068513692"><ele>261.0</ele><time>2026-04-12T11:17:42.001Z</time></trkpt><trkpt lat="44.11675134346097" lon="9.736610375889775"><ele>264.1666666666667</ele><time>2026-04-12T11:17:43.001Z</time></trkpt><trkpt lat="44.11681745702578" lon="9.73660797515859"><ele>267.3333333333333</ele><time>2026-04-12T11:17:44.001Z</time></trkpt><trkpt lat="44.116888571362985" lon="9.736475907335388"><ele>270.5</ele><time>2026-04-12T11:17:46.001Z</time></trkpt><trkpt lat="44.11688099307159" lon="9.736377330139854"><ele>273.66666666666663</ele><time>2026-04-12T11:17:47.001Z</time></trkpt><trkpt lat="44.11683186216918" lon="9.7362907550127"><ele>276.8333333333333</ele><time>2026-04-12T11:17:48.001Z</time></trkpt><trkpt lat="44.116758730589375" lon="9.73620958828659"><ele>280.0</ele><time>2026-04-12T11:17:49.001Z</time></trkpt><trkpt lat="44.11668283733086" lon="9.736137449012505"><ele>280.0</ele><time>2026-04-12T11:17:50.001Z</time></trkpt><trkpt lat="44.11660588496361" lon="9.736063600966084"><ele>280.0</ele><time>2026-04-12T11:17:51.001Z</time></trkpt><trkpt lat="44.11652131793936" lon="9.736003928254835"><ele>280.0</ele><time>2026-04-12T11:17:52.001Z</time></trkpt><trkpt lat="44.11644945730942" lon="9.73594253199296"><ele>280.0</ele><time>2026-04-12T11:17:53.001Z</time></trkpt><trkpt lat="44.11638292180863" lon="9.735879405866903"><ele>280.0</ele><time>2026-04-12T11:17:54.001Z</time></trkpt><trkpt lat="44.116313778872254" lon="9.73582253049739"><ele>280.0</ele><time>2026-04-12T11:17:55.001Z</time></trkpt><trkpt lat="44.116233310240894" lon="9.735759537259984"><ele>280.0</ele><time>2026-04-12T11:17:56.001Z</time></trkpt><trkpt lat="44.11614162711852" lon="9.735724687612404"><ele>280.0</ele><time>2026-04-12T11:17:57.001Z</time></trkpt><trkpt lat="44.11603294327627" lon="9.735704159482673"><ele>280.0</ele><time>2026-04-12T11:17:58.001Z</time></trkpt><trkpt lat="44.115923711778414" lon="9.735697782024928"><ele>280.0</ele><time>2026-04-12T11:17:59.001Z</time></trkpt><trkpt lat="44.11581400400638" lon="9.735681485701448"><ele>280.0</ele><time>2026-04-12T11:18:00.001Z</time></trkpt><trkpt lat="44.11570594283372" lon="9.735656555413847"><ele>278.2</ele><time>2026-04-12T11:18:01.001Z</time></trkpt><trkpt lat="44.11559874416933" lon="9.73563888315988"><ele>276.4</ele><time>2026-04-12T11:18:02.001Z</time></trkpt><trkpt lat="44.11550089158889" lon="9.73560752878002"><ele>274.6</ele><time>2026-04-12T11:18:03.001Z</time></trkpt><trkpt lat="44.115418718954" lon="9.735586767972832"><ele>272.8</ele><time>2026-04-12T11:18:04.001Z</time></trkpt><trkpt lat="44.11534967767565" lon="9.73557709142956"><ele>271.0</ele><time>2026-04-12T11:18:06.001Z</time></trkpt><trkpt lat="44.11525294885911" lon="9.735594014229545"><ele>271.0</ele><time>2026-04-12T11:18:14.001Z</time></trkpt><trkpt lat="44.115182265907954" lon="9.735588786684263"><ele>271.0</ele><time>2026-04-12T11:18:15.001Z</time></trkpt><trkpt lat="44.115111078094785" lon="9.735580321743328"><ele>271.0</ele><time>2026-04-12T11:18:16.001Z</time></trkpt><trkpt lat="44.11504500456384" lon="9.735573785918849"><ele>271.0</ele><time>2026-04-12T11:18:17.001Z</time></trkpt><trkpt lat="44.11495468259205" lon="9.735554213510603"><ele>271.0</ele><time>2026-04-12T11:18:19.001Z</time></trkpt><trkpt lat="44.11488895401397" lon="9.735537170735196"><ele>271.0</ele><time>2026-04-12T11:18:21.001Z</time></trkpt><trkpt lat="44.114818495947894" lon="9.73545805818168"><ele>274.25</ele><time>2026-04-12T11:18:23Z</time></trkpt><trkpt lat="44.11485398683933" lon="9.73530775260849"><ele>277.5</ele><time>2026-04-12T11:18:25Z</time></trkpt><trkpt lat="44.114997683277416" lon="9.735128402512272"><ele>280.75</ele><time>2026-04-12T11:18:27Z</time></trkpt><trkpt lat="44.11508931453444" lon="9.73502595403396"><ele>284.0</ele><time>2026-04-12T11:18:28Z</time></trkpt><trkpt lat="44.11517431133036" lon="9.734921450897932"><ele>284.0</ele><time>2026-04-12T11:18:29Z</time></trkpt><trkpt lat="44.11526738978939" lon="9.7348049316901"><ele>284.0</ele><time>2026-04-12T11:18:30Z</time></trkpt><trkpt lat="44.11536534169653" lon="9.734676767327597"><ele>284.0</ele><time>2026-04-12T11:18:31Z</time></trkpt><trkpt lat="44.115462054266054" lon="9.734535131389618"><ele>284.0</ele><time>2026-04-12T11:18:32Z</time></trkpt><trkpt lat="44.11554603216469" lon="9.734382679887943"><ele>277.5</ele><time>2026-04-12T11:18:33Z</time></trkpt><trkpt lat="44.11562870906577" lon="9.734227594524706"><ele>271.0</ele><time>2026-04-12T11:18:34Z</time></trkpt><trkpt lat="44.115709139171905" lon="9.734080108567403"><ele>264.5</ele><time>2026-04-12T11:18:35Z</time></trkpt><trkpt lat="44.115783339736666" lon="9.733944869231818"><ele>258.0</ele><time>2026-04-12T11:18:36Z</time></trkpt><trkpt lat="44.1158516847688" lon="9.733813258450084"><ele>266.0</ele><time>2026-04-12T11:18:37Z</time></trkpt><trkpt lat="44.115912781296956" lon="9.733679066321873"><ele>274.0</ele><time>2026-04-12T11:18:38Z</time></trkpt><trkpt lat="44.11596849569455" lon="9.733552043143424"><ele>282.0</ele><time>2026-04-12T11:18:39Z</time></trkpt><trkpt lat="44.11601705749333" lon="9.733414062646487"><ele>290.0</ele><time>2026-04-12T11:18:40Z</time></trkpt><trkpt lat="44.11605083442511" lon="9.733258541399367"><ele>298.0</ele><time>2026-04-12T11:18:41Z</time></trkpt><trkpt lat="44.116073444762996" lon="9.733092931770146"><ele>298.0</ele><time>2026-04-12T11:18:42Z</time></trkpt><trkpt lat="44.11609340765442" lon="9.732921234425193"><ele>298.0</ele><time>2026-04-12T11:18:43Z</time></trkpt><trkpt lat="44.11610826506296" lon="9.732749950727607"><ele>298.0</ele><time>2026-04-12T11:18:44Z</time></trkpt><trkpt lat="44.11611441329516" lon="9.732582374064005"><ele>298.0</ele><time>2026-04-12T11:18:45Z</time></trkpt><trkpt lat="44.116105127631585" lon="9.732422143842918"><ele>298.0</ele><time>2026-04-12T11:18:46Z</time></trkpt><trkpt lat="44.11609781411518" lon="9.732271441359522"><ele>298.0</ele><time>2026-04-12T11:18:47Z</time></trkpt><trkpt lat="44.1161088064989" lon="9.732121033525178"><ele>298.0</ele><time>2026-04-12T11:18:48Z</time></trkpt><trkpt lat="44.11613621760353" lon="9.73197609138994"><ele>298.0</ele><time>2026-04-12T11:18:49Z</time></trkpt><trkpt lat="44.1161708608843" lon="9.731825414762891"><ele>298.0</ele><time>2026-04-12T11:18:50Z</time></trkpt><trkpt lat="44.116212299298965" lon="9.731674931596338"><ele>299.25</ele><time>2026-04-12T11:18:51Z</time></trkpt><trkpt lat="44.11626292729426" lon="9.731530017128486"><ele>300.5</ele><time>2026-04-12T11:18:52Z</time></trkpt><trkpt lat="44.116311130505046" lon="9.731377332946288"><ele>301.75</ele><time>2026-04-12T11:18:53Z</time></trkpt><trkpt lat="44.116354626374545" lon="9.731220732693842"><ele>303.0</ele><time>2026-04-12T11:18:54Z</time></trkpt><trkpt lat="44.116388797007225" lon="9.731056448152703"><ele>308.25</ele><time>2026-04-12T11:18:55Z</time></trkpt><trkpt lat="44.11642117224276" lon="9.730891085257888"><ele>313.5</ele><time>2026-04-12T11:18:56Z</time></trkpt><trkpt lat="44.11645337654147" lon="9.73072702937598"><ele>318.75</ele><time>2026-04-12T11:18:57Z</time></trkpt><trkpt lat="44.11649235079161" lon="9.730566514324403"><ele>324.0</ele><time>2026-04-12T11:18:58Z</time></trkpt><trkpt lat="44.11652853998772" lon="9.730407031509825"><ele>324.0</ele><time>2026-04-12T11:18:59Z</time></trkpt><trkpt lat="44.11655601127121" lon="9.730260397962935"><ele>324.0</ele><time>2026-04-12T11:19:00Z</time></trkpt><trkpt lat="44.11657894003801" lon="9.730132415747002"><ele>324.0</ele><time>2026-04-12T11:19:01Z</time></trkpt><trkpt lat="44.11657839121038" lon="9.73002606974168"><ele>324.0</ele><time>2026-04-12T11:19:02Z</time></trkpt><trkpt lat="44.11657796162471" lon="9.729928447544939"><ele>324.0</ele><time>2026-04-12T11:19:03Z</time></trkpt><trkpt lat="44.116575346554924" lon="9.729834635347732"><ele>324.0</ele><time>2026-04-12T11:19:04Z</time></trkpt><trkpt lat="44.116556014081766" lon="9.729736716922709"><ele>325.8333333333333</ele><time>2026-04-12T11:19:05Z</time></trkpt><trkpt lat="44.116519796221866" lon="9.729643606547986"><ele>327.6666666666667</ele><time>2026-04-12T11:19:06Z</time></trkpt><trkpt lat="44.116466021039365" lon="9.72957372317113"><ele>329.5</ele><time>2026-04-12T11:19:07Z</time></trkpt><trkpt lat="44.11640670042796" lon="9.729513741487438"><ele>331.33333333333337</ele><time>2026-04-12T11:19:08Z</time></trkpt><trkpt lat="44.11632669577105" lon="9.729542433362667"><ele>333.1666666666667</ele><time>2026-04-12T11:19:09Z</time></trkpt><trkpt lat="44.11624949462469" lon="9.729591570765566"><ele>335.0</ele><time>2026-04-12T11:19:11Z</time></trkpt><trkpt lat="44.11620493986196" lon="9.729656395200445"><ele>335.0</ele><time>2026-04-12T11:19:13Z</time></trkpt><trkpt lat="44.11611756500733" lon="9.72969412312468"><ele>335.0</ele><time>2026-04-12T11:19:15.001Z</time></trkpt><trkpt lat="44.116026524884916" lon="9.729615909177111"><ele>335.0</ele><time>2026-04-12T11:19:17.001Z</time></trkpt><trkpt lat="44.11598463295739" lon="9.72954639483066"><ele>335.0</ele><time>2026-04-12T11:19:18.001Z</time></trkpt><trkpt lat="44.11593056274029" lon="9.729395246445348"><ele>335.0</ele><time>2026-04-12T11:19:20.001Z</time></trkpt><trkpt lat="44.11592683753079" lon="9.729300020086333"><ele>336.2</ele><time>2026-04-12T11:19:21.001Z</time></trkpt><trkpt lat="44.11594652512289" lon="9.729189697618706"><ele>337.4</ele><time>2026-04-12T11:19:22.001Z</time></trkpt><trkpt lat="44.11600362316519" lon="9.729093447065134"><ele>338.6</ele><time>2026-04-12T11:19:23.001Z</time></trkpt><trkpt lat="44.116050118414904" lon="9.728972675358163"><ele>339.8</ele><time>2026-04-12T11:19:24.001Z</time></trkpt><trkpt lat="44.1161103327533" lon="9.728866715343413"><ele>341.0</ele><time>2026-04-12T11:19:25.001Z</time></trkpt><trkpt lat="44.116178723943726" lon="9.72874086603845"><ele>341.0</ele><time>2026-04-12T11:19:26.001Z</time></trkpt><trkpt lat="44.1162559134062" lon="9.728604351162724"><ele>341.0</ele><time>2026-04-12T11:19:27.001Z</time></trkpt><trkpt lat="44.11633466767596" lon="9.728453150728214"><ele>341.0</ele><time>2026-04-12T11:19:28.001Z</time></trkpt><trkpt lat="44.11641632527732" lon="9.72828623212645"><ele>341.0</ele><time>2026-04-12T11:19:29.001Z</time></trkpt><trkpt lat="44.11650612406201" lon="9.72811393659784"><ele>344.5</ele><time>2026-04-12T11:19:30.001Z</time></trkpt><trkpt lat="44.116597532554145" lon="9.727939686433954"><ele>348.0</ele><time>2026-04-12T11:19:31.001Z</time></trkpt><trkpt lat="44.116680355145434" lon="9.727778273108015"><ele>351.5</ele><time>2026-04-12T11:19:32.001Z</time></trkpt><trkpt lat="44.11673805276936" lon="9.727616662688343"><ele>355.0</ele><time>2026-04-12T11:19:33.001Z</time></trkpt><trkpt lat="44.11676472881419" lon="9.727440262689386"><ele>355.0</ele><time>2026-04-12T11:19:34.001Z</time></trkpt><trkpt lat="44.11677094247654" lon="9.727258720378375"><ele>355.0</ele><time>2026-04-12T11:19:35.001Z</time></trkpt><trkpt lat="44.11677623499988" lon="9.727097825433216"><ele>355.0</ele><time>2026-04-12T11:19:36.001Z</time></trkpt><trkpt lat="44.11678959881146" lon="9.726969114746502"><ele>355.0</ele><time>2026-04-12T11:19:37.001Z</time></trkpt><trkpt lat="44.11681757175529" lon="9.72685864330231"><ele>355.0</ele><time>2026-04-12T11:19:38.001Z</time></trkpt><trkpt lat="44.11687179272675" lon="9.726753144483254"><ele>353.6</ele><time>2026-04-12T11:19:39.001Z</time></trkpt><trkpt lat="44.11695364938059" lon="9.72665268935788"><ele>352.2</ele><time>2026-04-12T11:19:40.001Z</time></trkpt><trkpt lat="44.11703742812041" lon="9.726548758023373"><ele>350.79999999999995</ele><time>2026-04-12T11:19:41.001Z</time></trkpt><trkpt lat="44.117121202072525" lon="9.7264578783034"><ele>349.4</ele><time>2026-04-12T11:19:42.001Z</time></trkpt><trkpt lat="44.11721386462883" lon="9.726386739176391"><ele>348.0</ele><time>2026-04-12T11:19:43.001Z</time></trkpt><trkpt lat="44.1173277115723" lon="9.726323436626362"><ele>355.5</ele><time>2026-04-12T11:19:44.001Z</time></trkpt><trkpt lat="44.11745154857526" lon="9.72627692024758"><ele>363.0</ele><time>2026-04-12T11:19:45.001Z</time></trkpt><trkpt lat="44.1175658127202" lon="9.72623302088131"><ele>370.5</ele><time>2026-04-12T11:19:46.001Z</time></trkpt><trkpt lat="44.11767145030849" lon="9.726196747183373"><ele>378.0</ele><time>2026-04-12T11:19:47.001Z</time></trkpt><trkpt lat="44.11777397507538" lon="9.726185677717464"><ele>378.0</ele><time>2026-04-12T11:19:48.001Z</time></trkpt><trkpt lat="44.11787756784368" lon="9.726239643724364"><ele>378.0</ele><time>2026-04-12T11:19:49.001Z</time></trkpt><trkpt lat="44.11798449769863" lon="9.726260494035717"><ele>378.0</ele><time>2026-04-12T11:19:50.001Z</time></trkpt><trkpt lat="44.118089704969414" lon="9.726280187348578"><ele>378.0</ele><time>2026-04-12T11:19:51.001Z</time></trkpt><trkpt lat="44.1182070868623" lon="9.726258492955187"><ele>378.0</ele><time>2026-04-12T11:19:52.001Z</time></trkpt><trkpt lat="44.118327436826796" lon="9.726203750468184"><ele>373.79999999999995</ele><time>2026-04-12T11:19:53.001Z</time></trkpt><trkpt lat="44.118441478534905" lon="9.726138286287975"><ele>369.6</ele><time>2026-04-12T11:19:54.001Z</time></trkpt><trkpt lat="44.11854773617325" lon="9.726093329729832"><ele>365.4</ele><time>2026-04-12T11:19:55.001Z</time></trkpt><trkpt lat="44.11864290313055" lon="9.726044338957687"><ele>361.20000000000005</ele><time>2026-04-12T11:19:56.001Z</time></trkpt><trkpt lat="44.118736058244934" lon="9.72600638604118"><ele>357.0</ele><time>2026-04-12T11:19:57.001Z</time></trkpt><trkpt lat="44.11882382040424" lon="9.725975312721122"><ele>357.0</ele><time>2026-04-12T11:19:58.001Z</time></trkpt><trkpt lat="44.118908675814374" lon="9.725950147620516"><ele>357.0</ele><time>2026-04-12T11:19:59.001Z</time></trkpt><trkpt lat="44.11899139124198" lon="9.725927419467839"><ele>357.0</ele><time>2026-04-12T11:20:00.001Z</time></trkpt><trkpt lat="44.119072549759714" lon="9.725902809912272"><ele>357.0</ele><time>2026-04-12T11:20:01.001Z</time></trkpt><trkpt lat="44.11915373126483" lon="9.725876848909122"><ele>357.0</ele><time>2026-04-12T11:20:02.001Z</time></trkpt><trkpt lat="44.11923665630515" lon="9.725843130169665"><ele>357.0</ele><time>2026-04-12T11:20:03.001Z</time></trkpt><trkpt lat="44.11931815059675" lon="9.725812645163122"><ele>359.3333333333333</ele><time>2026-04-12T11:20:04.001Z</time></trkpt><trkpt lat="44.119399940336734" lon="9.725798195881971"><ele>361.6666666666667</ele><time>2026-04-12T11:20:05.001Z</time></trkpt><trkpt lat="44.11948445143885" lon="9.725814028965418"><ele>364.0</ele><time>2026-04-12T11:20:06.001Z</time></trkpt><trkpt lat="44.11955939630598" lon="9.725834156823222"><ele>366.33333333333337</ele><time>2026-04-12T11:20:07.001Z</time></trkpt><trkpt lat="44.119636803920834" lon="9.72585435076921"><ele>368.6666666666667</ele><time>2026-04-12T11:20:08.001Z</time></trkpt><trkpt lat="44.119719195707205" lon="9.725863838803896"><ele>371.0</ele><time>2026-04-12T11:20:09.001Z</time></trkpt><trkpt lat="44.1197938036722" lon="9.72585842035766"><ele>371.0</ele><time>2026-04-12T11:20:10.001Z</time></trkpt><trkpt lat="44.11986756466876" lon="9.725861116547792"><ele>371.0</ele><time>2026-04-12T11:20:11.001Z</time></trkpt><trkpt lat="44.11993444404737" lon="9.725865870321584"><ele>371.0</ele><time>2026-04-12T11:20:12.001Z</time></trkpt><trkpt lat="44.120058022422256" lon="9.725824671032868"><ele>371.0</ele><time>2026-04-12T11:20:14.001Z</time></trkpt><trkpt lat="44.120116080360624" lon="9.72575927126086"><ele>371.0</ele><time>2026-04-12T11:20:15.001Z</time></trkpt><trkpt lat="44.12014123870835" lon="9.725653814303929"><ele>371.0</ele><time>2026-04-12T11:20:16.001Z</time></trkpt><trkpt lat="44.12015579851308" lon="9.725512941876296"><ele>368.75</ele><time>2026-04-12T11:20:17.001Z</time></trkpt><trkpt lat="44.12019720316473" lon="9.725347424807216"><ele>366.5</ele><time>2026-04-12T11:20:18.001Z</time></trkpt><trkpt lat="44.1202355364415" lon="9.725145309403608"><ele>364.25</ele><time>2026-04-12T11:20:19.001Z</time></trkpt><trkpt lat="44.120276290461874" lon="9.724917753803078"><ele>362.0</ele><time>2026-04-12T11:20:20.001Z</time></trkpt><trkpt lat="44.120325425690744" lon="9.724696914564504"><ele>362.0</ele><time>2026-04-12T11:20:21.001Z</time></trkpt><trkpt lat="44.120358827938155" lon="9.72446775506403"><ele>362.0</ele><time>2026-04-12T11:20:22.001Z</time></trkpt><trkpt lat="44.120375459071795" lon="9.724230385447086"><ele>362.0</ele><time>2026-04-12T11:20:23.001Z</time></trkpt><trkpt lat="44.120378530256346" lon="9.724005918122774"><ele>358.25</ele><time>2026-04-12T11:20:24.001Z</time></trkpt><trkpt lat="44.12037969693956" lon="9.723791533379504"><ele>354.5</ele><time>2026-04-12T11:20:25.001Z</time></trkpt><trkpt lat="44.1203879412762" lon="9.723584676949256"><ele>350.75</ele><time>2026-04-12T11:20:26.001Z</time></trkpt><trkpt lat="44.1203949842318" lon="9.72340185196415"><ele>347.0</ele><time>2026-04-12T11:20:27.001Z</time></trkpt><trkpt lat="44.12040533620186" lon="9.723232239380751"><ele>346.8</ele><time>2026-04-12T11:20:28.001Z</time></trkpt><trkpt lat="44.12041568485157" lon="9.723075632229301"><ele>346.6</ele><time>2026-04-12T11:20:29Z</time></trkpt><trkpt lat="44.12044228951742" lon="9.722947242775817"><ele>346.40000000000003</ele><time>2026-04-12T11:20:30Z</time></trkpt><trkpt lat="44.12050018491697" lon="9.722846607643069"><ele>346.20000000000005</ele><time>2026-04-12T11:20:31Z</time></trkpt><trkpt lat="44.12058118859235" lon="9.722783118413552"><ele>346.0</ele><time>2026-04-12T11:20:32Z</time></trkpt><trkpt lat="44.1206790281618" lon="9.722755012169735"><ele>356.25</ele><time>2026-04-12T11:20:33Z</time></trkpt><trkpt lat="44.120787732876494" lon="9.722796737210196"><ele>366.5</ele><time>2026-04-12T11:20:34Z</time></trkpt><trkpt lat="44.120898970446085" lon="9.72281078358078"><ele>376.75</ele><time>2026-04-12T11:20:35Z</time></trkpt><trkpt lat="44.12101967786912" lon="9.722827729138903"><ele>387.0</ele><time>2026-04-12T11:20:36Z</time></trkpt><trkpt lat="44.12114092047963" lon="9.722856046552549"><ele>387.0</ele><time>2026-04-12T11:20:37Z</time></trkpt><trkpt lat="44.12126676621039" lon="9.722863973576517"><ele>387.0</ele><time>2026-04-12T11:20:38Z</time></trkpt><trkpt lat="44.12139946613989" lon="9.72286347505362"><ele>387.0</ele><time>2026-04-12T11:20:39Z</time></trkpt><trkpt lat="44.12153354236025" lon="9.722865914518684"><ele>387.0</ele><time>2026-04-12T11:20:40Z</time></trkpt><trkpt lat="44.121658806167034" lon="9.722885142279289"><ele>392.0</ele><time>2026-04-12T11:20:41Z</time></trkpt><trkpt lat="44.12177303635353" lon="9.722924340815373"><ele>397.0</ele><time>2026-04-12T11:20:42Z</time></trkpt><trkpt lat="44.12188499861938" lon="9.722981459599808"><ele>402.0</ele><time>2026-04-12T11:20:43Z</time></trkpt><trkpt lat="44.121998789667224" lon="9.72304760968916"><ele>407.0</ele><time>2026-04-12T11:20:44Z</time></trkpt><trkpt lat="44.12210700746129" lon="9.72315476251546"><ele>407.0</ele><time>2026-04-12T11:20:45Z</time></trkpt><trkpt lat="44.12223779889296" lon="9.723235803835609"><ele>407.0</ele><time>2026-04-12T11:20:46Z</time></trkpt><trkpt lat="44.122364404693016" lon="9.723322175947867"><ele>407.0</ele><time>2026-04-12T11:20:47Z</time></trkpt><trkpt lat="44.12250647851638" lon="9.723399865215075"><ele>407.0</ele><time>2026-04-12T11:20:48Z</time></trkpt><trkpt lat="44.1226457552537" lon="9.723463246128059"><ele>407.5</ele><time>2026-04-12T11:20:49Z</time></trkpt><trkpt lat="44.122772172265364" lon="9.723554200208534"><ele>408.0</ele><time>2026-04-12T11:20:50Z</time></trkpt><trkpt lat="44.12288695958827" lon="9.723644477581361"><ele>408.5</ele><time>2026-04-12T11:20:51Z</time></trkpt><trkpt lat="44.122989997973434" lon="9.723752293713678"><ele>409.0</ele><time>2026-04-12T11:20:52Z</time></trkpt><trkpt lat="44.12308556146054" lon="9.723868412147395"><ele>410.75</ele><time>2026-04-12T11:20:53Z</time></trkpt><trkpt lat="44.12316347573029" lon="9.723992450028817"><ele>412.5</ele><time>2026-04-12T11:20:54Z</time></trkpt><trkpt lat="44.123217899005375" lon="9.724139263159376"><ele>414.25</ele><time>2026-04-12T11:20:55Z</time></trkpt><trkpt lat="44.12325124398003" lon="9.724308075037849"><ele>416.0</ele><time>2026-04-12T11:20:56Z</time></trkpt><trkpt lat="44.12330201395766" lon="9.724459253136972"><ele>425.5</ele><time>2026-04-12T11:20:57Z</time></trkpt><trkpt lat="44.12338938217051" lon="9.724584425360398"><ele>435.0</ele><time>2026-04-12T11:20:58Z</time></trkpt><trkpt lat="44.12350421870928" lon="9.72469427916022"><ele>444.5</ele><time>2026-04-12T11:20:59Z</time></trkpt><trkpt lat="44.12361856949421" lon="9.724802199712368"><ele>454.0</ele><time>2026-04-12T11:21:00Z</time></trkpt><trkpt lat="44.123694548799044" lon="9.724952148648123"><ele>454.0</ele><time>2026-04-12T11:21:01Z</time></trkpt><trkpt lat="44.12375934224689" lon="9.725110266954845"><ele>454.0</ele><time>2026-04-12T11:21:02Z</time></trkpt><trkpt lat="44.12384641788274" lon="9.725250401935215"><ele>454.0</ele><time>2026-04-12T11:21:03Z</time></trkpt><trkpt lat="44.123913225916" lon="9.725397003148467"><ele>454.0</ele><time>2026-04-12T11:21:04Z</time></trkpt><trkpt lat="44.12399754153291" lon="9.72551017483335"><ele>455.6</ele><time>2026-04-12T11:21:05Z</time></trkpt><trkpt lat="44.124071567489736" lon="9.72559863544464"><ele>457.2</ele><time>2026-04-12T11:21:06Z</time></trkpt><trkpt lat="44.124143579614255" lon="9.725649481966842"><ele>458.80000000000007</ele><time>2026-04-12T11:21:07Z</time></trkpt><trkpt lat="44.124228691792645" lon="9.72565797288831"><ele>460.40000000000003</ele><time>2026-04-12T11:21:08Z</time></trkpt><trkpt lat="44.124315928403156" lon="9.72560966206269"><ele>462.0</ele><time>2026-04-12T11:21:09Z</time></trkpt><trkpt lat="44.124383038630505" lon="9.725516843750661"><ele>462.0</ele><time>2026-04-12T11:21:10Z</time></trkpt><trkpt lat="44.124422002785856" lon="9.725384505418013"><ele>462.00000000000006</ele><time>2026-04-12T11:21:11Z</time></trkpt><trkpt lat="44.12443922955088" lon="9.725233237785286"><ele>462.00000000000006</ele><time>2026-04-12T11:21:12Z</time></trkpt><trkpt lat="44.12444735540142" lon="9.72507337711027"><ele>462.0</ele><time>2026-04-12T11:21:13Z</time></trkpt><trkpt lat="44.124477550757895" lon="9.724917289849003"><ele>462.0</ele><time>2026-04-12T11:21:14Z</time></trkpt><trkpt lat="44.1245146194306" lon="9.724785402986406"><ele>460.0</ele><time>2026-04-12T11:21:15Z</time></trkpt><trkpt lat="44.12457337062922" lon="9.724701158018886"><ele>458.00000000000006</ele><time>2026-04-12T11:21:16Z</time></trkpt><trkpt lat="44.12464304482697" lon="9.724661630715104"><ele>456.00000000000006</ele><time>2026-04-12T11:21:17Z</time></trkpt><trkpt lat="44.12472941711967" lon="9.724695006265542"><ele>454.0</ele><time>2026-04-12T11:21:18Z</time></trkpt><trkpt lat="44.12482836072438" lon="9.724675586804347"><ele>452.0</ele><time>2026-04-12T11:21:19Z</time></trkpt><trkpt lat="44.12493735522549" lon="9.724680785432637"><ele>452.0</ele><time>2026-04-12T11:21:20Z</time></trkpt><trkpt lat="44.12504590581959" lon="9.724712323549179"><ele>452.00000000000006</ele><time>2026-04-12T11:21:21.001Z</time></trkpt><trkpt lat="44.12514884083666" lon="9.724750450533062"><ele>452.00000000000006</ele><time>2026-04-12T11:21:22.001Z</time></trkpt><trkpt lat="44.12524996190725" lon="9.724817012650679"><ele>452.0</ele><time>2026-04-12T11:21:23.001Z</time></trkpt><trkpt lat="44.12532964208712" lon="9.724890805587291"><ele>452.0</ele><time>2026-04-12T11:21:24.001Z</time></trkpt><trkpt lat="44.12540494685773" lon="9.724989376833845"><ele>452.0</ele><time>2026-04-12T11:21:25.001Z</time></trkpt><trkpt lat="44.12546201537912" lon="9.725101263792912"><ele>452.00000000000006</ele><time>2026-04-12T11:21:26.001Z</time></trkpt><trkpt lat="44.12553275622376" lon="9.725183032351993"><ele>452.00000000000006</ele><time>2026-04-12T11:21:27.001Z</time></trkpt><trkpt lat="44.12560056779655" lon="9.725251601795105"><ele>452.0</ele><time>2026-04-12T11:21:28.001Z</time></trkpt><trkpt lat="44.12570294954384" lon="9.725283598303147"><ele>452.0</ele><time>2026-04-12T11:21:29.001Z</time></trkpt><trkpt lat="44.1257992148156" lon="9.725264736592804"><ele>454.40000000000003</ele><time>2026-04-12T11:21:30.001Z</time></trkpt><trkpt lat="44.125887232045066" lon="9.725219840242943"><ele>456.80000000000007</ele><time>2026-04-12T11:21:31.001Z</time></trkpt><trkpt lat="44.12596290040068" lon="9.725143280786698"><ele>459.2</ele><time>2026-04-12T11:21:32.001Z</time></trkpt><trkpt lat="44.12601632665671" lon="9.725020513698281"><ele>461.6</ele><time>2026-04-12T11:21:33.001Z</time></trkpt><trkpt lat="44.12605302761246" lon="9.724862683045416"><ele>464.0</ele><time>2026-04-12T11:21:34.001Z</time></trkpt><trkpt lat="44.12610852201432" lon="9.724711853202548"><ele>464.0</ele><time>2026-04-12T11:21:35.001Z</time></trkpt><trkpt lat="44.12618900563352" lon="9.724589453242674"><ele>464.0</ele><time>2026-04-12T11:21:36.001Z</time></trkpt><trkpt lat="44.12624979317311" lon="9.724472751029605"><ele>464.0</ele><time>2026-04-12T11:21:37.001Z</time></trkpt><trkpt lat="44.12626185611605" lon="9.724339160925318"><ele>464.0</ele><time>2026-04-12T11:21:38.001Z</time></trkpt><trkpt lat="44.12622409075256" lon="9.724207535926386"><ele>464.0</ele><time>2026-04-12T11:21:39.001Z</time></trkpt><trkpt lat="44.12615492693504" lon="9.72409149073319"><ele>465.0</ele><time>2026-04-12T11:21:40.001Z</time></trkpt><trkpt lat="44.1260896189937" lon="9.723968286730278"><ele>466.0</ele><time>2026-04-12T11:21:41.001Z</time></trkpt><trkpt lat="44.126044907219196" lon="9.723807553681679"><ele>467.0</ele><time>2026-04-12T11:21:42.001Z</time></trkpt><trkpt lat="44.12601048445929" lon="9.723629317390976"><ele>468.0</ele><time>2026-04-12T11:21:43.001Z</time></trkpt><trkpt lat="44.12596225638487" lon="9.723454032692192"><ele>468.0</ele><time>2026-04-12T11:21:44.001Z</time></trkpt><trkpt lat="44.12586452585195" lon="9.72330497915544"><ele>468.0</ele><time>2026-04-12T11:21:45.001Z</time></trkpt><trkpt lat="44.125747938136264" lon="9.723177804125411"><ele>468.0</ele><time>2026-04-12T11:21:46.001Z</time></trkpt><trkpt lat="44.1256308235828" lon="9.723049220959469"><ele>468.0</ele><time>2026-04-12T11:21:47.001Z</time></trkpt><trkpt lat="44.12553934608158" lon="9.722887732062754"><ele>464.5</ele><time>2026-04-12T11:21:48.001Z</time></trkpt><trkpt lat="44.1254492616456" lon="9.722749147779226"><ele>461.0</ele><time>2026-04-12T11:21:49.001Z</time></trkpt><trkpt lat="44.12536517624322" lon="9.722615807413128"><ele>457.5</ele><time>2026-04-12T11:21:50.001Z</time></trkpt><trkpt lat="44.12528731490781" lon="9.722478799613658"><ele>454.0</ele><time>2026-04-12T11:21:51.001Z</time></trkpt><trkpt lat="44.12522169210189" lon="9.722329499256224"><ele>454.0</ele><time>2026-04-12T11:21:52.001Z</time></trkpt><trkpt lat="44.12515898120217" lon="9.72217421837304"><ele>454.0</ele><time>2026-04-12T11:21:53.001Z</time></trkpt><trkpt lat="44.12510379001939" lon="9.72202188736691"><ele>454.0</ele><time>2026-04-12T11:21:54.001Z</time></trkpt><trkpt lat="44.12506050313462" lon="9.721870793931503"><ele>454.0</ele><time>2026-04-12T11:21:55.001Z</time></trkpt><trkpt lat="44.12504326412378" lon="9.721708545373245"><ele>458.25</ele><time>2026-04-12T11:21:56.001Z</time></trkpt><trkpt lat="44.12503993165609" lon="9.721532862775845"><ele>462.5</ele><time>2026-04-12T11:21:57.001Z</time></trkpt><trkpt lat="44.125027193592686" lon="9.721328802401692"><ele>466.75</ele><time>2026-04-12T11:21:58.001Z</time></trkpt><trkpt lat="44.12503209721275" lon="9.72113553093423"><ele>471.0</ele><time>2026-04-12T11:21:59.001Z</time></trkpt><trkpt lat="44.12502848311686" lon="9.720957585018816"><ele>471.8</ele><time>2026-04-12T11:22:00.001Z</time></trkpt><trkpt lat="44.12503419961587" lon="9.720787890921313"><ele>472.6</ele><time>2026-04-12T11:22:01.001Z</time></trkpt><trkpt lat="44.12506339365648" lon="9.720638009463633"><ele>473.4</ele><time>2026-04-12T11:22:02.001Z</time></trkpt><trkpt lat="44.12509283290566" lon="9.720510274682663"><ele>474.2</ele><time>2026-04-12T11:22:03.001Z</time></trkpt><trkpt lat="44.125133456792" lon="9.72041555046802"><ele>475.0</ele><time>2026-04-12T11:22:04.001Z</time></trkpt><trkpt lat="44.125172810191714" lon="9.720309774765783"><ele>473.6</ele><time>2026-04-12T11:22:05.001Z</time></trkpt><trkpt lat="44.125244406181324" lon="9.720228525612361"><ele>472.2</ele><time>2026-04-12T11:22:06.001Z</time></trkpt><trkpt lat="44.12532315393597" lon="9.720156203742787"><ele>470.79999999999995</ele><time>2026-04-12T11:22:07.001Z</time></trkpt><trkpt lat="44.12540381017728" lon="9.720108123383419"><ele>469.4</ele><time>2026-04-12T11:22:08.001Z</time></trkpt><trkpt lat="44.125487872866834" lon="9.720090307780938"><ele>468.0</ele><time>2026-04-12T11:22:09.001Z</time></trkpt><trkpt lat="44.125578781514506" lon="9.72011571977276"><ele>468.0</ele><time>2026-04-12T11:22:10.001Z</time></trkpt><trkpt lat="44.12567404003075" lon="9.720175534011119"><ele>467.99999999999994</ele><time>2026-04-12T11:22:11.001Z</time></trkpt><trkpt lat="44.12575892257524" lon="9.720244756608343"><ele>467.99999999999994</ele><time>2026-04-12T11:22:12.001Z</time></trkpt><trkpt lat="44.12582424471685" lon="9.720372350835095"><ele>468.0</ele><time>2026-04-12T11:22:13.001Z</time></trkpt><trkpt lat="44.1258955795653" lon="9.720491924433581"><ele>468.0</ele><time>2026-04-12T11:22:14.001Z</time></trkpt><trkpt lat="44.1259741726634" lon="9.720612313203922"><ele>474.79999999999995</ele><time>2026-04-12T11:22:15.001Z</time></trkpt><trkpt lat="44.12605034292892" lon="9.720737363272743"><ele>481.59999999999997</ele><time>2026-04-12T11:22:16.001Z</time></trkpt><trkpt lat="44.12614673140158" lon="9.720814494461859"><ele>488.40000000000003</ele><time>2026-04-12T11:22:17.001Z</time></trkpt><trkpt lat="44.12624460254055" lon="9.720859554913886"><ele>495.20000000000005</ele><time>2026-04-12T11:22:18.001Z</time></trkpt><trkpt lat="44.126357206254205" lon="9.720856508376462"><ele>502.0</ele><time>2026-04-12T11:22:19.001Z</time></trkpt><trkpt lat="44.126486502212785" lon="9.720839069640569"><ele>502.0</ele><time>2026-04-12T11:22:20.001Z</time></trkpt><trkpt lat="44.1266186874899" lon="9.720824376040817"><ele>502.0</ele><time>2026-04-12T11:22:21.001Z</time></trkpt><trkpt lat="44.12674940332143" lon="9.720820060410286"><ele>502.0</ele><time>2026-04-12T11:22:22.001Z</time></trkpt><trkpt lat="44.12686296341255" lon="9.720819673524776"><ele>502.0</ele><time>2026-04-12T11:22:23.001Z</time></trkpt><trkpt lat="44.12696220248075" lon="9.720852776884595"><ele>502.0</ele><time>2026-04-12T11:22:24.001Z</time></trkpt><trkpt lat="44.12705470122348" lon="9.72094751197596"><ele>502.0</ele><time>2026-04-12T11:22:25.001Z</time></trkpt><trkpt lat="44.12714982455458" lon="9.721066793122466"><ele>502.0</ele><time>2026-04-12T11:22:26.001Z</time></trkpt><trkpt lat="44.12724569993882" lon="9.721171647534597"><ele>502.0</ele><time>2026-04-12T11:22:27.001Z</time></trkpt><trkpt lat="44.12734670124739" lon="9.721247224853734"><ele>511.25</ele><time>2026-04-12T11:22:28.001Z</time></trkpt><trkpt lat="44.12746031331189" lon="9.721277292626738"><ele>520.5</ele><time>2026-04-12T11:22:29.001Z</time></trkpt><trkpt lat="44.12758891085732" lon="9.721261453428179"><ele>529.75</ele><time>2026-04-12T11:22:30.001Z</time></trkpt><trkpt lat="44.12772383556541" lon="9.72122801517495"><ele>539.0</ele><time>2026-04-12T11:22:31.001Z</time></trkpt><trkpt lat="44.1278479750386" lon="9.721219168881541"><ele>539.0</ele><time>2026-04-12T11:22:32.001Z</time></trkpt><trkpt lat="44.12796410152829" lon="9.721248230069097"><ele>539.0</ele><time>2026-04-12T11:22:33.001Z</time></trkpt><trkpt lat="44.12807718940648" lon="9.721318640128004"><ele>539.0</ele><time>2026-04-12T11:22:34.001Z</time></trkpt><trkpt lat="44.12818826481726" lon="9.721413745857584"><ele>539.0</ele><time>2026-04-12T11:22:35Z</time></trkpt><trkpt lat="44.12829934859949" lon="9.721522867726597"><ele>537.0</ele><time>2026-04-12T11:22:36Z</time></trkpt><trkpt lat="44.12839727009077" lon="9.721621144977211"><ele>535.0</ele><time>2026-04-12T11:22:37Z</time></trkpt><trkpt lat="44.1284885583264" lon="9.721704932555575"><ele>533.0</ele><time>2026-04-12T11:22:38Z</time></trkpt><trkpt lat="44.128581608302774" lon="9.721762436059388"><ele>531.0</ele><time>2026-04-12T11:22:39Z</time></trkpt><trkpt lat="44.12867644068624" lon="9.721788994812432"><ele>529.0</ele><time>2026-04-12T11:22:40Z</time></trkpt><trkpt lat="44.12876246603927" lon="9.721766339353605"><ele>529.0</ele><time>2026-04-12T11:22:41Z</time></trkpt><trkpt lat="44.12882988847378" lon="9.721699227429774"><ele>529.0</ele><time>2026-04-12T11:22:42Z</time></trkpt><trkpt lat="44.12887145061975" lon="9.721622130215318"><ele>529.0</ele><time>2026-04-12T11:22:43Z</time></trkpt><trkpt lat="44.12888271512993" lon="9.721524945065964"><ele>529.0</ele><time>2026-04-12T11:22:44Z</time></trkpt><trkpt lat="44.12885616512166" lon="9.721407978259633"><ele>529.0</ele><time>2026-04-12T11:22:45Z</time></trkpt><trkpt lat="44.128798661616074" lon="9.721270577228598"><ele>529.0</ele><time>2026-04-12T11:22:46Z</time></trkpt><trkpt lat="44.1287350839816" lon="9.721118443351605"><ele>522.75</ele><time>2026-04-12T11:22:47Z</time></trkpt><trkpt lat="44.128687351564096" lon="9.720956065381506"><ele>516.5</ele><time>2026-04-12T11:22:48Z</time></trkpt><trkpt lat="44.12867416028918" lon="9.72079153293309"><ele>510.25</ele><time>2026-04-12T11:22:49Z</time></trkpt><trkpt lat="44.128701256736434" lon="9.720628854858234"><ele>504.0</ele><time>2026-04-12T11:22:50Z</time></trkpt><trkpt lat="44.12874280970353" lon="9.720457542951314"><ele>504.0</ele><time>2026-04-12T11:22:51Z</time></trkpt><trkpt lat="44.128746045870685" lon="9.720267010065022"><ele>504.0</ele><time>2026-04-12T11:22:52Z</time></trkpt><trkpt lat="44.128796132794065" lon="9.720068276245215"><ele>504.0</ele><time>2026-04-12T11:22:53Z</time></trkpt><trkpt lat="44.12885332219991" lon="9.719876599395144"><ele>504.0</ele><time>2026-04-12T11:22:54Z</time></trkpt><trkpt lat="44.128911000473394" lon="9.719689116525236"><ele>504.75</ele><time>2026-04-12T11:22:55Z</time></trkpt><trkpt lat="44.12897456550897" lon="9.719516560639594"><ele>505.5</ele><time>2026-04-12T11:22:56Z</time></trkpt><trkpt lat="44.129030419037356" lon="9.719355192801924"><ele>506.25</ele><time>2026-04-12T11:22:57Z</time></trkpt><trkpt lat="44.129093042145506" lon="9.719224924797812"><ele>507.0</ele><time>2026-04-12T11:22:58Z</time></trkpt><trkpt lat="44.12918184542507" lon="9.719135044295397"><ele>507.0</ele><time>2026-04-12T11:22:59Z</time></trkpt><trkpt lat="44.129288507223066" lon="9.719093972553317"><ele>507.0</ele><time>2026-04-12T11:23:00Z</time></trkpt><trkpt lat="44.12941403360669" lon="9.719081501239774"><ele>507.0</ele><time>2026-04-12T11:23:01Z</time></trkpt><trkpt lat="44.12955147552148" lon="9.71906975965252"><ele>507.0</ele><time>2026-04-12T11:23:02Z</time></trkpt><trkpt lat="44.129700381132" lon="9.719043896815261"><ele>507.0</ele><time>2026-04-12T11:23:03Z</time></trkpt><trkpt lat="44.129841242658046" lon="9.719009390533165"><ele>507.0</ele><time>2026-04-12T11:23:04Z</time></trkpt><trkpt lat="44.12999434539122" lon="9.718974827814614"><ele>507.0</ele><time>2026-04-12T11:23:05Z</time></trkpt><trkpt lat="44.1301505295765" lon="9.718928462019228"><ele>503.75</ele><time>2026-04-12T11:23:06Z</time></trkpt><trkpt lat="44.130302416754034" lon="9.718855252746396"><ele>500.5</ele><time>2026-04-12T11:23:07Z</time></trkpt><trkpt lat="44.13043483181361" lon="9.718766070575315"><ele>497.25</ele><time>2026-04-12T11:23:08Z</time></trkpt><trkpt lat="44.13054527560511" lon="9.718657831401151"><ele>494.0</ele><time>2026-04-12T11:23:09Z</time></trkpt><trkpt lat="44.13062768487294" lon="9.718522912381916"><ele>494.0</ele><time>2026-04-12T11:23:10Z</time></trkpt><trkpt lat="44.13071498208775" lon="9.718413028709527"><ele>494.0</ele><time>2026-04-12T11:23:11Z</time></trkpt><trkpt lat="44.13082090810272" lon="9.718362364254059"><ele>494.0</ele><time>2026-04-12T11:23:12Z</time></trkpt><trkpt lat="44.13093888854395" lon="9.718349493009336"><ele>494.0</ele><time>2026-04-12T11:23:13Z</time></trkpt><trkpt lat="44.13104553844591" lon="9.718312439429877"><ele>494.2</ele><time>2026-04-12T11:23:14Z</time></trkpt><trkpt lat="44.131128341096414" lon="9.718226874986177"><ele>494.4</ele><time>2026-04-12T11:23:15Z</time></trkpt><trkpt lat="44.13117040397116" lon="9.718098185097723"><ele>494.6</ele><time>2026-04-12T11:23:16Z</time></trkpt><trkpt lat="44.13117822912397" lon="9.717946129425776"><ele>494.8</ele><time>2026-04-12T11:23:17Z</time></trkpt><trkpt lat="44.13117721406536" lon="9.717779073385739"><ele>495.0</ele><time>2026-04-12T11:23:18Z</time></trkpt><trkpt lat="44.13121141170076" lon="9.717618964363348"><ele>495.0</ele><time>2026-04-12T11:23:19Z</time></trkpt><trkpt lat="44.13126480059835" lon="9.717486734476925"><ele>495.0</ele><time>2026-04-12T11:23:20Z</time></trkpt><trkpt lat="44.131269943243176" lon="9.717370191496471"><ele>495.0</ele><time>2026-04-12T11:23:21Z</time></trkpt><trkpt lat="44.13122014647226" lon="9.717261164167514"><ele>495.0</ele><time>2026-04-12T11:23:22Z</time></trkpt><trkpt lat="44.13113500796825" lon="9.717155121019562"><ele>495.0</ele><time>2026-04-12T11:23:23Z</time></trkpt><trkpt lat="44.13102698686897" lon="9.717051408759854"><ele>495.0</ele><time>2026-04-12T11:23:24Z</time></trkpt><trkpt lat="44.13093169933206" lon="9.71692234779702"><ele>495.0</ele><time>2026-04-12T11:23:25Z</time></trkpt><trkpt lat="44.13085566819374" lon="9.716780748605453"><ele>495.0</ele><time>2026-04-12T11:23:26Z</time></trkpt><trkpt lat="44.1308004223005" lon="9.716633840885978"><ele>495.0</ele><time>2026-04-12T11:23:27Z</time></trkpt><trkpt lat="44.130771004359936" lon="9.716496402425532"><ele>496.6</ele><time>2026-04-12T11:23:28Z</time></trkpt><trkpt lat="44.13078627425621" lon="9.716359411758567"><ele>498.2</ele><time>2026-04-12T11:23:29Z</time></trkpt><trkpt lat="44.130829997425046" lon="9.716219146023011"><ele>499.79999999999995</ele><time>2026-04-12T11:23:30Z</time></trkpt><trkpt lat="44.13084350823307" lon="9.716082674861507"><ele>501.4</ele><time>2026-04-12T11:23:31Z</time></trkpt><trkpt lat="44.13079515843516" lon="9.715948457263691"><ele>503.0</ele><time>2026-04-12T11:23:32Z</time></trkpt><trkpt lat="44.130704214309986" lon="9.715825342484969"><ele>492.75</ele><time>2026-04-12T11:23:33Z</time></trkpt><trkpt lat="44.13057956280882" lon="9.715730910661726"><ele>482.5</ele><time>2026-04-12T11:23:34Z</time></trkpt><trkpt lat="44.130484220239296" lon="9.715584390186589"><ele>472.25</ele><time>2026-04-12T11:23:35Z</time></trkpt><trkpt lat="44.13040648225606" lon="9.715428462853422"><ele>462.0</ele><time>2026-04-12T11:23:36Z</time></trkpt><trkpt lat="44.130339134315925" lon="9.715284269065588"><ele>466.25</ele><time>2026-04-12T11:23:37.001Z</time></trkpt><trkpt lat="44.13027632219874" lon="9.71514539750484"><ele>470.5</ele><time>2026-04-12T11:23:38.001Z</time></trkpt><trkpt lat="44.130224728442045" lon="9.715007589590702"><ele>474.75</ele><time>2026-04-12T11:23:39.001Z</time></trkpt><trkpt lat="44.13019663006654" lon="9.714853632099974"><ele>479.0</ele><time>2026-04-12T11:23:40.001Z</time></trkpt><trkpt lat="44.1301839827207" lon="9.714681972792826"><ele>479.0</ele><time>2026-04-12T11:23:41.001Z</time></trkpt><trkpt lat="44.13017334659559" lon="9.714506783485554"><ele>479.0</ele><time>2026-04-12T11:23:42.001Z</time></trkpt><trkpt lat="44.13016733753847" lon="9.714329595897325"><ele>479.0</ele><time>2026-04-12T11:23:43.001Z</time></trkpt><trkpt lat="44.13017035461567" lon="9.714161668096882"><ele>479.0</ele><time>2026-04-12T11:23:44.001Z</time></trkpt><trkpt lat="44.13018692659693" lon="9.714011131560703"><ele>480.0</ele><time>2026-04-12T11:23:45.001Z</time></trkpt><trkpt lat="44.13023135218159" lon="9.713880903495424"><ele>481.0</ele><time>2026-04-12T11:23:46.001Z</time></trkpt><trkpt lat="44.13030080777058" lon="9.713782011100797"><ele>482.0</ele><time>2026-04-12T11:23:47.001Z</time></trkpt><trkpt lat="44.13039100445313" lon="9.713730552153352"><ele>483.0</ele><time>2026-04-12T11:23:48.001Z</time></trkpt><trkpt lat="44.130504623350085" lon="9.713711508782179"><ele>484.0</ele><time>2026-04-12T11:23:49.001Z</time></trkpt><trkpt lat="44.13063375574656" lon="9.713689595755994"><ele>486.5</ele><time>2026-04-12T11:23:50.001Z</time></trkpt><trkpt lat="44.13076949430988" lon="9.713647870104033"><ele>489.0</ele><time>2026-04-12T11:23:51.001Z</time></trkpt><trkpt lat="44.13090127019101" lon="9.713566621444008"><ele>491.5</ele><time>2026-04-12T11:23:52.001Z</time></trkpt><trkpt lat="44.13101972493385" lon="9.713464145055788"><ele>494.0</ele><time>2026-04-12T11:23:53.001Z</time></trkpt><trkpt lat="44.13113680635179" lon="9.713383008541157"><ele>494.0</ele><time>2026-04-12T11:23:54.001Z</time></trkpt><trkpt lat="44.13124435751221" lon="9.713330521663185"><ele>494.0</ele><time>2026-04-12T11:23:55.001Z</time></trkpt><trkpt lat="44.13134584865402" lon="9.713317835442508"><ele>494.0</ele><time>2026-04-12T11:23:56.001Z</time></trkpt><trkpt lat="44.131451942398726" lon="9.713343625515906"><ele>494.0</ele><time>2026-04-12T11:23:57.001Z</time></trkpt><trkpt lat="44.13155628763089" lon="9.713400336095077"><ele>494.0</ele><time>2026-04-12T11:23:58.001Z</time></trkpt><trkpt lat="44.13164870722286" lon="9.713477986262241"><ele>495.99999999999994</ele><time>2026-04-12T11:23:59.001Z</time></trkpt><trkpt lat="44.131719352637376" lon="9.713545932288504"><ele>498.0</ele><time>2026-04-12T11:24:00.001Z</time></trkpt><trkpt lat="44.131792094973385" lon="9.713562338735732"><ele>500.0</ele><time>2026-04-12T11:24:01.001Z</time></trkpt><trkpt lat="44.13186339487837" lon="9.713527478630219"><ele>502.0</ele><time>2026-04-12T11:24:02.001Z</time></trkpt><trkpt lat="44.131914697380914" lon="9.713455323706032"><ele>503.99999999999994</ele><time>2026-04-12T11:24:03.001Z</time></trkpt><trkpt lat="44.13195122794626" lon="9.71333674194486"><ele>506.0</ele><time>2026-04-12T11:24:04.001Z</time></trkpt><trkpt lat="44.13197165077317" lon="9.713168329574483"><ele>506.0</ele><time>2026-04-12T11:24:05.001Z</time></trkpt><trkpt lat="44.131992182452336" lon="9.712969248007845"><ele>506.0</ele><time>2026-04-12T11:24:06.001Z</time></trkpt><trkpt lat="44.13201414461877" lon="9.712755015242925"><ele>506.0</ele><time>2026-04-12T11:24:07.001Z</time></trkpt><trkpt lat="44.13203586880213" lon="9.712536194318837"><ele>496.66666666666663</ele><time>2026-04-12T11:24:08.001Z</time></trkpt><trkpt lat="44.13204797048825" lon="9.712304699170586"><ele>487.33333333333337</ele><time>2026-04-12T11:24:09.001Z</time></trkpt><trkpt lat="44.13204684026604" lon="9.712075201937225"><ele>478.0</ele><time>2026-04-12T11:24:10.001Z</time></trkpt><trkpt lat="44.13203976133507" lon="9.711859946661892"><ele>474.0</ele><time>2026-04-12T11:24:11.001Z</time></trkpt><trkpt lat="44.13201799848734" lon="9.711650571370496"><ele>470.0</ele><time>2026-04-12T11:24:12.001Z</time></trkpt><trkpt lat="44.13196729137563" lon="9.711450687311638"><ele>466.0</ele><time>2026-04-12T11:24:13.001Z</time></trkpt><trkpt lat="44.13188465595035" lon="9.711270521451812"><ele>466.0</ele><time>2026-04-12T11:24:14.001Z</time></trkpt><trkpt lat="44.13182015248116" lon="9.711099278521727"><ele>466.0</ele><time>2026-04-12T11:24:15.001Z</time></trkpt><trkpt lat="44.131753604602665" lon="9.710933686867298"><ele>466.0</ele><time>2026-04-12T11:24:16.001Z</time></trkpt><trkpt lat="44.13169705508522" lon="9.710782299706782"><ele>466.0</ele><time>2026-04-12T11:24:17.001Z</time></trkpt><trkpt lat="44.131675091268136" lon="9.71061272201296"><ele>466.75</ele><time>2026-04-12T11:24:18.001Z</time></trkpt><trkpt lat="44.131677884567374" lon="9.710423299649905"><ele>467.5</ele><time>2026-04-12T11:24:19.001Z</time></trkpt><trkpt lat="44.13170752039347" lon="9.710221540170165"><ele>468.25</ele><time>2026-04-12T11:24:20.001Z</time></trkpt><trkpt lat="44.13174139921425" lon="9.710020752686843"><ele>469.0</ele><time>2026-04-12T11:24:21.001Z</time></trkpt><trkpt lat="44.13174012952542" lon="9.709826275291677"><ele>469.25</ele><time>2026-04-12T11:24:22.001Z</time></trkpt><trkpt lat="44.13168602932259" lon="9.709651450639686"><ele>469.5</ele><time>2026-04-12T11:24:23.001Z</time></trkpt><trkpt lat="44.131636953887195" lon="9.709484400346314"><ele>469.75</ele><time>2026-04-12T11:24:24.001Z</time></trkpt><trkpt lat="44.13162288019624" lon="9.709304131616735"><ele>470.0</ele><time>2026-04-12T11:24:25.001Z</time></trkpt><trkpt lat="44.131629309082555" lon="9.709115417947546"><ele>468.75</ele><time>2026-04-12T11:24:26.001Z</time></trkpt><trkpt lat="44.13164536436955" lon="9.708922972363917"><ele>467.5</ele><time>2026-04-12T11:24:27.001Z</time></trkpt><trkpt lat="44.13167034883614" lon="9.70873290287014"><ele>466.25</ele><time>2026-04-12T11:24:28.001Z</time></trkpt><trkpt lat="44.131693206004115" lon="9.708547165157965"><ele>465.0</ele><time>2026-04-12T11:24:29.001Z</time></trkpt><trkpt lat="44.13171587885105" lon="9.70837449709806"><ele>462.25</ele><time>2026-04-12T11:24:30.001Z</time></trkpt><trkpt lat="44.1317502897153" lon="9.708222180593914"><ele>459.5</ele><time>2026-04-12T11:24:31.001Z</time></trkpt><trkpt lat="44.13181283397934" lon="9.708079797318293"><ele>456.75</ele><time>2026-04-12T11:24:32.001Z</time></trkpt><trkpt lat="44.13190343631236" lon="9.707938317370319"><ele>454.0</ele><time>2026-04-12T11:24:33.001Z</time></trkpt><trkpt lat="44.132001091519705" lon="9.70779358784268"><ele>448.5</ele><time>2026-04-12T11:24:34.001Z</time></trkpt><trkpt lat="44.13207993732009" lon="9.707632805633978"><ele>443.0</ele><time>2026-04-12T11:24:35.001Z</time></trkpt><trkpt lat="44.13211522085869" lon="9.707437648089318"><ele>437.5</ele><time>2026-04-12T11:24:36.001Z</time></trkpt><trkpt lat="44.13212151579658" lon="9.707242962512767"><ele>432.0</ele><time>2026-04-12T11:24:37.001Z</time></trkpt><trkpt lat="44.13212958629576" lon="9.707066641898008"><ele>432.0</ele><time>2026-04-12T11:24:38.001Z</time></trkpt><trkpt lat="44.132171119541816" lon="9.706912866234646"><ele>432.0</ele><time>2026-04-12T11:24:39.001Z</time></trkpt><trkpt lat="44.132237191202464" lon="9.70676614198433"><ele>432.0</ele><time>2026-04-12T11:24:40.001Z</time></trkpt><trkpt lat="44.13230522341533" lon="9.706636529647277"><ele>432.0</ele><time>2026-04-12T11:24:41Z</time></trkpt><trkpt lat="44.13234985238651" lon="9.706516263414379"><ele>428.3333333333333</ele><time>2026-04-12T11:24:42Z</time></trkpt><trkpt lat="44.1323842702679" lon="9.706412165917408"><ele>424.66666666666663</ele><time>2026-04-12T11:24:43Z</time></trkpt><trkpt lat="44.13244223669369" lon="9.706350050289416"><ele>421.0</ele><time>2026-04-12T11:24:44Z</time></trkpt><trkpt lat="44.132519667080224" lon="9.706330220216632"><ele>417.3333333333333</ele><time>2026-04-12T11:24:45Z</time></trkpt><trkpt lat="44.13260817107396" lon="9.706404959036307"><ele>413.66666666666663</ele><time>2026-04-12T11:24:46Z</time></trkpt><trkpt lat="44.13268704503783" lon="9.70649109031364"><ele>410.0</ele><time>2026-04-12T11:24:47Z</time></trkpt><trkpt lat="44.13278779796482" lon="9.706587268440204"><ele>422.75</ele><time>2026-04-12T11:24:48Z</time></trkpt><trkpt lat="44.13286230931038" lon="9.706723533216532"><ele>435.5</ele><time>2026-04-12T11:24:49Z</time></trkpt><trkpt lat="44.13292596611044" lon="9.706852654266342"><ele>448.25</ele><time>2026-04-12T11:24:50Z</time></trkpt><trkpt lat="44.13300495935992" lon="9.70694181934431"><ele>461.0</ele><time>2026-04-12T11:24:51Z</time></trkpt><trkpt lat="44.13311991117186" lon="9.706977318556335"><ele>465.0</ele><time>2026-04-12T11:24:52Z</time></trkpt><trkpt lat="44.13324726333802" lon="9.706973004450834"><ele>469.0</ele><time>2026-04-12T11:24:53Z</time></trkpt><trkpt lat="44.13336837386144" lon="9.706976003853695"><ele>473.0</ele><time>2026-04-12T11:24:54Z</time></trkpt><trkpt lat="44.13346744810465" lon="9.70704156130842"><ele>477.0</ele><time>2026-04-12T11:24:55Z</time></trkpt><trkpt lat="44.13355211834837" lon="9.707083878964358"><ele>481.0</ele><time>2026-04-12T11:24:56Z</time></trkpt><trkpt lat="44.13359930656206" lon="9.707160412320869"><ele>481.0</ele><time>2026-04-12T11:24:57Z</time></trkpt><trkpt lat="44.13362651406822" lon="9.707254932193566"><ele>481.0</ele><time>2026-04-12T11:24:58Z</time></trkpt><trkpt lat="44.1336067399654" lon="9.707363200321542"><ele>481.0</ele><time>2026-04-12T11:24:59Z</time></trkpt><trkpt lat="44.13361119982822" lon="9.707491190110911"><ele>481.0</ele><time>2026-04-12T11:25:00Z</time></trkpt><trkpt lat="44.133603630812175" lon="9.707639321583274"><ele>481.0</ele><time>2026-04-12T11:25:01Z</time></trkpt><trkpt lat="44.13361376383466" lon="9.707797754244208"><ele>487.25</ele><time>2026-04-12T11:25:02Z</time></trkpt><trkpt lat="44.13363712558722" lon="9.7079455382932"><ele>493.5</ele><time>2026-04-12T11:25:03Z</time></trkpt><trkpt lat="44.13373741909014" lon="9.708055543155155"><ele>499.75</ele><time>2026-04-12T11:25:04Z</time></trkpt><trkpt lat="44.133817779793866" lon="9.708169998694894"><ele>506.0</ele><time>2026-04-12T11:25:05Z</time></trkpt><trkpt lat="44.13384640599054" lon="9.708326842635016"><ele>506.0</ele><time>2026-04-12T11:25:06Z</time></trkpt><trkpt lat="44.133896142265684" lon="9.708446822359102"><ele>506.0</ele><time>2026-04-12T11:25:07Z</time></trkpt><trkpt lat="44.13397024041807" lon="9.708545263849077"><ele>506.0</ele><time>2026-04-12T11:25:08Z</time></trkpt><trkpt lat="44.13408126632498" lon="9.708560309183062"><ele>506.0</ele><time>2026-04-12T11:25:09Z</time></trkpt><trkpt lat="44.134176800890295" lon="9.708595818891599"><ele>506.0</ele><time>2026-04-12T11:25:10Z</time></trkpt><trkpt lat="44.134261078923124" lon="9.708660262796974"><ele>501.75</ele><time>2026-04-12T11:25:11Z</time></trkpt><trkpt lat="44.13432793644108" lon="9.708779331005287"><ele>497.5</ele><time>2026-04-12T11:25:12Z</time></trkpt><trkpt lat="44.13438311072588" lon="9.70892418319154"><ele>493.25</ele><time>2026-04-12T11:25:13Z</time></trkpt><trkpt lat="44.134451241962275" lon="9.709050727104223"><ele>489.0</ele><time>2026-04-12T11:25:14Z</time></trkpt><trkpt lat="44.1345551587538" lon="9.709133432494674"><ele>489.0</ele><time>2026-04-12T11:25:15Z</time></trkpt><trkpt lat="44.134682206539416" lon="9.709183818539266"><ele>489.0</ele><time>2026-04-12T11:25:16Z</time></trkpt><trkpt lat="44.13481338867227" lon="9.70923436226576"><ele>489.0</ele><time>2026-04-12T11:25:17Z</time></trkpt><trkpt lat="44.13494718401335" lon="9.709280947198048"><ele>489.0</ele><time>2026-04-12T11:25:18Z</time></trkpt><trkpt lat="44.135089229245125" lon="9.709298938199789"><ele>483.25</ele><time>2026-04-12T11:25:19Z</time></trkpt><trkpt lat="44.13522869369129" lon="9.709283918926104"><ele>477.5</ele><time>2026-04-12T11:25:20Z</time></trkpt><trkpt lat="44.13536552155784" lon="9.709265812623348"><ele>471.75</ele><time>2026-04-12T11:25:21Z</time></trkpt><trkpt lat="44.13548927932402" lon="9.709318953674163"><ele>466.0</ele><time>2026-04-12T11:25:22Z</time></trkpt><trkpt lat="44.13561273069946" lon="9.709376257437135"><ele>474.75</ele><time>2026-04-12T11:25:23Z</time></trkpt><trkpt lat="44.13574074913224" lon="9.709422931406305"><ele>483.5</ele><time>2026-04-12T11:25:24.001Z</time></trkpt><trkpt lat="44.13585622307646" lon="9.709504719564546"><ele>492.25</ele><time>2026-04-12T11:25:25.001Z</time></trkpt><trkpt lat="44.1359639717843" lon="9.709572017888398"><ele>501.0</ele><time>2026-04-12T11:25:26.001Z</time></trkpt><trkpt lat="44.13606310577955" lon="9.709611442462597"><ele>501.0</ele><time>2026-04-12T11:25:27.001Z</time></trkpt><trkpt lat="44.13616569063163" lon="9.70962283981674"><ele>501.0</ele><time>2026-04-12T11:25:28.001Z</time></trkpt><trkpt lat="44.13626334004315" lon="9.709578984592376"><ele>501.0</ele><time>2026-04-12T11:25:29.001Z</time></trkpt><trkpt lat="44.136345837270326" lon="9.709483079382458"><ele>501.0</ele><time>2026-04-12T11:25:30.001Z</time></trkpt><trkpt lat="44.13639672416119" lon="9.709347255485792"><ele>501.0</ele><time>2026-04-12T11:25:31.001Z</time></trkpt><trkpt lat="44.13640830403757" lon="9.709189431756625"><ele>492.0</ele><time>2026-04-12T11:25:32.001Z</time></trkpt><trkpt lat="44.136395036742606" lon="9.709019503644836"><ele>483.0</ele><time>2026-04-12T11:25:33.001Z</time></trkpt><trkpt lat="44.136368996856696" lon="9.708841877932024"><ele>474.0</ele><time>2026-04-12T11:25:34.001Z</time></trkpt><trkpt lat="44.13634377233412" lon="9.708649106153121"><ele>465.0</ele><time>2026-04-12T11:25:35.001Z</time></trkpt><trkpt lat="44.136328480524256" lon="9.708464441685265"><ele>465.6</ele><time>2026-04-12T11:25:36.001Z</time></trkpt><trkpt lat="44.1363256350592" lon="9.708309798603594"><ele>466.2</ele><time>2026-04-12T11:25:37.001Z</time></trkpt><trkpt lat="44.13635293143828" lon="9.708177175748931"><ele>466.79999999999995</ele><time>2026-04-12T11:25:38.001Z</time></trkpt><trkpt lat="44.13640881916933" lon="9.708068426779397"><ele>467.4</ele><time>2026-04-12T11:25:39.001Z</time></trkpt><trkpt lat="44.13650764482465" lon="9.708007955370944"><ele>468.0</ele><time>2026-04-12T11:25:40.001Z</time></trkpt><trkpt lat="44.13660340912543" lon="9.70798380351954"><ele>468.0</ele><time>2026-04-12T11:25:41.001Z</time></trkpt><trkpt lat="44.136703961266186" lon="9.708015642992253"><ele>468.0</ele><time>2026-04-12T11:25:42.001Z</time></trkpt><trkpt lat="44.136803969143074" lon="9.708091454311745"><ele>468.0</ele><time>2026-04-12T11:25:43.001Z</time></trkpt><trkpt lat="44.13691798901573" lon="9.708176697218711"><ele>468.0</ele><time>2026-04-12T11:25:44.001Z</time></trkpt><trkpt lat="44.13705959043971" lon="9.708263883594336"><ele>468.0</ele><time>2026-04-12T11:25:45.001Z</time></trkpt><trkpt lat="44.13720726267238" lon="9.708342745448574"><ele>468.0</ele><time>2026-04-12T11:25:46.001Z</time></trkpt><trkpt lat="44.137358408320985" lon="9.708403010493754"><ele>468.0</ele><time>2026-04-12T11:25:47.001Z</time></trkpt><trkpt lat="44.137493996665434" lon="9.708452688049787"><ele>469.4</ele><time>2026-04-12T11:25:48.001Z</time></trkpt><trkpt lat="44.137612544616196" lon="9.708512327413416"><ele>470.79999999999995</ele><time>2026-04-12T11:25:49.001Z</time></trkpt><trkpt lat="44.13771226777068" lon="9.708555382740442"><ele>472.2</ele><time>2026-04-12T11:25:50.001Z</time></trkpt><trkpt lat="44.13780016690223" lon="9.708550040467035"><ele>473.6</ele><time>2026-04-12T11:25:51.001Z</time></trkpt><trkpt lat="44.13787865772657" lon="9.708486034888363"><ele>475.0</ele><time>2026-04-12T11:25:52.001Z</time></trkpt><trkpt lat="44.137936466885655" lon="9.708363071862085"><ele>475.0</ele><time>2026-04-12T11:25:53.001Z</time></trkpt><trkpt lat="44.13796023817262" lon="9.70820820503663"><ele>475.0</ele><time>2026-04-12T11:25:54.001Z</time></trkpt><trkpt lat="44.13796368502372" lon="9.708028588088714"><ele>475.0</ele><time>2026-04-12T11:25:55.001Z</time></trkpt><trkpt lat="44.137963490150426" lon="9.707822490810047"><ele>475.0</ele><time>2026-04-12T11:25:56.001Z</time></trkpt><trkpt lat="44.13796646977832" lon="9.707599053242088"><ele>468.33333333333337</ele><time>2026-04-12T11:25:57.001Z</time></trkpt><trkpt lat="44.1379645041352" lon="9.70735919347796"><ele>461.66666666666663</ele><time>2026-04-12T11:25:58.001Z</time></trkpt><trkpt lat="44.137957217477016" lon="9.70711963124523"><ele>455.0</ele><time>2026-04-12T11:25:59.001Z</time></trkpt><trkpt lat="44.137953046741195" lon="9.706882089333865"><ele>449.0</ele><time>2026-04-12T11:26:00.001Z</time></trkpt><trkpt lat="44.13796156411704" lon="9.706660358679986"><ele>443.0</ele><time>2026-04-12T11:26:01.001Z</time></trkpt><trkpt lat="44.13797831833332" lon="9.706463731936232"><ele>437.0</ele><time>2026-04-12T11:26:02.001Z</time></trkpt><trkpt lat="44.13799878132401" lon="9.706294977533277"><ele>431.0</ele><time>2026-04-12T11:26:03.001Z</time></trkpt><trkpt lat="44.13803667365419" lon="9.706148925557581"><ele>425.75</ele><time>2026-04-12T11:26:04.001Z</time></trkpt><trkpt lat="44.13810287167098" lon="9.706032854116586"><ele>420.5</ele><time>2026-04-12T11:26:05.001Z</time></trkpt><trkpt lat="44.13819950825909" lon="9.705949602516114"><ele>415.25</ele><time>2026-04-12T11:26:06.001Z</time></trkpt><trkpt lat="44.13832269514866" lon="9.705937040879888"><ele>410.0</ele><time>2026-04-12T11:26:07.001Z</time></trkpt><trkpt lat="44.13844441680549" lon="9.705866963234332"><ele>424.0</ele><time>2026-04-12T11:26:08.001Z</time></trkpt><trkpt lat="44.138569069208415" lon="9.705787076368507"><ele>438.0</ele><time>2026-04-12T11:26:09.001Z</time></trkpt><trkpt lat="44.13868575061118" lon="9.70565529581357"><ele>452.0</ele><time>2026-04-12T11:26:10.001Z</time></trkpt><trkpt lat="44.13878933444287" lon="9.705515489571784"><ele>466.0</ele><time>2026-04-12T11:26:11.001Z</time></trkpt><trkpt lat="44.138893906730424" lon="9.705411981957553"><ele>466.0</ele><time>2026-04-12T11:26:12.001Z</time></trkpt><trkpt lat="44.138988568561516" lon="9.705360267895847"><ele>466.0</ele><time>2026-04-12T11:26:13.001Z</time></trkpt><trkpt lat="44.139090513768465" lon="9.70538526335134"><ele>466.0</ele><time>2026-04-12T11:26:14.001Z</time></trkpt><trkpt lat="44.13918701545598" lon="9.705435696092179"><ele>466.0</ele><time>2026-04-12T11:26:15.001Z</time></trkpt><trkpt lat="44.13928164892258" lon="9.705522172268399"><ele>466.0</ele><time>2026-04-12T11:26:16.001Z</time></trkpt><trkpt lat="44.13939831609136" lon="9.70561784013571"><ele>472.0</ele><time>2026-04-12T11:26:17.001Z</time></trkpt><trkpt lat="44.13952428700734" lon="9.70570468665227"><ele>478.0</ele><time>2026-04-12T11:26:18.001Z</time></trkpt><trkpt lat="44.139647761473846" lon="9.705803105828895"><ele>484.0</ele><time>2026-04-12T11:26:19.001Z</time></trkpt><trkpt lat="44.13976162639852" lon="9.705892458915091"><ele>490.0</ele><time>2026-04-12T11:26:20.001Z</time></trkpt><trkpt lat="44.13986439413614" lon="9.705975427751302"><ele>491.25</ele><time>2026-04-12T11:26:21.001Z</time></trkpt><trkpt lat="44.13995740497813" lon="9.70606524715934"><ele>492.5</ele><time>2026-04-12T11:26:22.001Z</time></trkpt><trkpt lat="44.14003602961521" lon="9.706173395856254"><ele>493.75</ele><time>2026-04-12T11:26:23.001Z</time></trkpt><trkpt lat="44.14008633078445" lon="9.706323127689759"><ele>495.0</ele><time>2026-04-12T11:26:24.001Z</time></trkpt><trkpt lat="44.14016011276619" lon="9.706451238061893"><ele>495.0</ele><time>2026-04-12T11:26:25.001Z</time></trkpt><trkpt lat="44.14021354676925" lon="9.706577460737766"><ele>495.0</ele><time>2026-04-12T11:26:26.001Z</time></trkpt><trkpt lat="44.14028576394814" lon="9.706667315308174"><ele>495.0</ele><time>2026-04-12T11:26:27.001Z</time></trkpt><trkpt lat="44.140375623389595" lon="9.706724741852756"><ele>495.0</ele><time>2026-04-12T11:26:28.001Z</time></trkpt><trkpt lat="44.14048350619174" lon="9.70673964419356"><ele>495.0</ele><time>2026-04-12T11:26:29.001Z</time></trkpt><trkpt lat="44.1405964710296" lon="9.70670675906912"><ele>495.0</ele><time>2026-04-12T11:26:30.001Z</time></trkpt><trkpt lat="44.140712415231555" lon="9.706661244219411"><ele>495.0</ele><time>2026-04-12T11:26:31.001Z</time></trkpt><trkpt lat="44.140829571531754" lon="9.70670348390632"><ele>495.0</ele><time>2026-04-12T11:26:32.001Z</time></trkpt><trkpt lat="44.140942872998615" lon="9.706759569018361"><ele>495.0</ele><time>2026-04-12T11:26:33.001Z</time></trkpt><trkpt lat="44.14107162664838" lon="9.706823938614003"><ele>498.5</ele><time>2026-04-12T11:26:34.001Z</time></trkpt><trkpt lat="44.1412143743625" lon="9.706879834200505"><ele>502.0</ele><time>2026-04-12T11:26:35.001Z</time></trkpt><trkpt lat="44.14133652958516" lon="9.706984087582658"><ele>505.5</ele><time>2026-04-12T11:26:36.001Z</time></trkpt><trkpt lat="44.14146321677029" lon="9.707056812138037"><ele>509.0</ele><time>2026-04-12T11:26:37.001Z</time></trkpt><trkpt lat="44.14158005456788" lon="9.707160580329976"><ele>501.5</ele><time>2026-04-12T11:26:38.001Z</time></trkpt><trkpt lat="44.14167226216521" lon="9.707283802996335"><ele>494.0</ele><time>2026-04-12T11:26:39.001Z</time></trkpt><trkpt lat="44.14176680105521" lon="9.707395979917667"><ele>486.5</ele><time>2026-04-12T11:26:40.002Z</time></trkpt><trkpt lat="44.141847096742225" lon="9.707494952255894"><ele>479.0</ele><time>2026-04-12T11:26:41.002Z</time></trkpt><trkpt lat="44.14189453967963" lon="9.707637321636318"><ele>482.5</ele><time>2026-04-12T11:26:42.002Z</time></trkpt><trkpt lat="44.14190192595291" lon="9.707808182195718"><ele>486.0</ele><time>2026-04-12T11:26:43.002Z</time></trkpt><trkpt lat="44.141913654872695" lon="9.707979790303076"><ele>489.5</ele><time>2026-04-12T11:26:44.002Z</time></trkpt><trkpt lat="44.14191887432805" lon="9.708158265324178"><ele>493.0</ele><time>2026-04-12T11:26:45.002Z</time></trkpt><trkpt lat="44.14191613212576" lon="9.708332975880632"><ele>493.0</ele><time>2026-04-12T11:26:46.002Z</time></trkpt><trkpt lat="44.141872373835184" lon="9.70851179152619"><ele>493.0</ele><time>2026-04-12T11:26:47Z</time></trkpt><trkpt lat="44.14185702522774" lon="9.708703132367571"><ele>493.0</ele><time>2026-04-12T11:26:48Z</time></trkpt><trkpt lat="44.14184006626236" lon="9.708876199913446"><ele>493.0</ele><time>2026-04-12T11:26:49Z</time></trkpt><trkpt lat="44.14185114677771" lon="9.70905084924334"><ele>493.0</ele><time>2026-04-12T11:26:50Z</time></trkpt><trkpt lat="44.141882052841794" lon="9.709210950212196"><ele>493.0</ele><time>2026-04-12T11:26:51Z</time></trkpt><trkpt lat="44.14190423264559" lon="9.709379061476264"><ele>493.0</ele><time>2026-04-12T11:26:52Z</time></trkpt><trkpt lat="44.14190853098068" lon="9.709548227175102"><ele>493.0</ele><time>2026-04-12T11:26:53Z</time></trkpt><trkpt lat="44.14189057303483" lon="9.70973166337517"><ele>493.0</ele><time>2026-04-12T11:26:54Z</time></trkpt><trkpt lat="44.14187805442999" lon="9.709908189460595"><ele>492.99999999999994</ele><time>2026-04-12T11:26:55Z</time></trkpt><trkpt lat="44.14186514349831" lon="9.710064085094468"><ele>492.99999999999994</ele><time>2026-04-12T11:26:56Z</time></trkpt><trkpt lat="44.141852818106976" lon="9.710202047331006"><ele>493.0</ele><time>2026-04-12T11:26:57Z</time></trkpt><trkpt lat="44.14183831767874" lon="9.710326125439249"><ele>493.0</ele><time>2026-04-12T11:26:58Z</time></trkpt><trkpt lat="44.141793660713006" lon="9.710428706686098"><ele>493.4</ele><time>2026-04-12T11:26:59Z</time></trkpt><trkpt lat="44.141790110705806" lon="9.71052879950176"><ele>493.79999999999995</ele><time>2026-04-12T11:27:00Z</time></trkpt><trkpt lat="44.14180620093045" lon="9.710680345218554"><ele>494.2</ele><time>2026-04-12T11:27:02Z</time></trkpt><trkpt lat="44.141865644245584" lon="9.710839309499264"><ele>494.6</ele><time>2026-04-12T11:27:04Z</time></trkpt><trkpt lat="44.141899106175295" lon="9.71094602841798"><ele>495.0</ele><time>2026-04-12T11:27:05Z</time></trkpt><trkpt lat="44.141956756659205" lon="9.711060327019679"><ele>496.8</ele><time>2026-04-12T11:27:06Z</time></trkpt><trkpt lat="44.142033358277814" lon="9.711166336699504"><ele>498.6</ele><time>2026-04-12T11:27:07Z</time></trkpt><trkpt lat="44.14212316311829" lon="9.71124767918387"><ele>500.4</ele><time>2026-04-12T11:27:08Z</time></trkpt><trkpt lat="44.14220104249645" lon="9.711340030382154"><ele>502.2</ele><time>2026-04-12T11:27:09Z</time></trkpt><trkpt lat="44.14227531978426" lon="9.711421822940542"><ele>504.0</ele><time>2026-04-12T11:27:10Z</time></trkpt><trkpt lat="44.14234097976232" lon="9.711485900047"><ele>500.33333333333337</ele><time>2026-04-12T11:27:11Z</time></trkpt><trkpt lat="44.142567462992524" lon="9.711234966104705"><ele>496.6666666666667</ele><time>2026-04-12T11:27:12Z</time></trkpt><trkpt lat="44.14268516117801" lon="9.711160429189505"><ele>493.0</ele><time>2026-04-12T11:27:13Z</time></trkpt><trkpt lat="44.14280248517277" lon="9.711073295080949"><ele>483.0</ele><time>2026-04-12T11:27:14Z</time></trkpt><trkpt lat="44.14291571188448" lon="9.71095558978384"><ele>473.0</ele><time>2026-04-12T11:27:15Z</time></trkpt><trkpt lat="44.14301744679798" lon="9.710812435608673"><ele>463.0</ele><time>2026-04-12T11:27:16Z</time></trkpt><trkpt lat="44.1431018255983" lon="9.710661528442419"><ele>453.0</ele><time>2026-04-12T11:27:17Z</time></trkpt><trkpt lat="44.1431740505689" lon="9.710522092446274"><ele>456.59999999999997</ele><time>2026-04-12T11:27:18Z</time></trkpt><trkpt lat="44.14324458314427" lon="9.710408885542062"><ele>460.19999999999993</ele><time>2026-04-12T11:27:19Z</time></trkpt><trkpt lat="44.14331957765369" lon="9.710335736584318"><ele>463.8</ele><time>2026-04-12T11:27:20Z</time></trkpt><trkpt lat="44.14340672982695" lon="9.710315336807312"><ele>467.4</ele><time>2026-04-12T11:27:21Z</time></trkpt><trkpt lat="44.14349834478006" lon="9.71033677137566"><ele>471.0</ele><time>2026-04-12T11:27:22Z</time></trkpt><trkpt lat="44.14357981557398" lon="9.710398098767289"><ele>471.0</ele><time>2026-04-12T11:27:23.001Z</time></trkpt><trkpt lat="44.1436449526964" lon="9.71050421004709"><ele>471.0</ele><time>2026-04-12T11:27:24.001Z</time></trkpt><trkpt lat="44.14369162314465" lon="9.710639807211889"><ele>471.0</ele><time>2026-04-12T11:27:25.001Z</time></trkpt><trkpt lat="44.14371865364344" lon="9.71079420553665"><ele>471.0</ele><time>2026-04-12T11:27:26.001Z</time></trkpt><trkpt lat="44.143750362178196" lon="9.710960968932117"><ele>471.0</ele><time>2026-04-12T11:27:27.001Z</time></trkpt><trkpt lat="44.143783945981504" lon="9.711120529616553"><ele>478.5</ele><time>2026-04-12T11:27:28.001Z</time></trkpt><trkpt lat="44.14381701860616" lon="9.711280520232343"><ele>486.0</ele><time>2026-04-12T11:27:29.001Z</time></trkpt><trkpt lat="44.14385028606615" lon="9.711458800752917"><ele>493.5</ele><time>2026-04-12T11:27:30.001Z</time></trkpt><trkpt lat="44.1438951841013" lon="9.71163092211599"><ele>501.0</ele><time>2026-04-12T11:27:31.001Z</time></trkpt><trkpt lat="44.14394249050212" lon="9.7118031211582"><ele>496.5</ele><time>2026-04-12T11:27:32.001Z</time></trkpt><trkpt lat="44.14400724760817" lon="9.711961077252004"><ele>492.0</ele><time>2026-04-12T11:27:33.001Z</time></trkpt><trkpt lat="44.14408535731663" lon="9.712100147022317"><ele>487.5</ele><time>2026-04-12T11:27:34.001Z</time></trkpt><trkpt lat="44.14417692207127" lon="9.712205418485729"><ele>483.0</ele><time>2026-04-12T11:27:35.001Z</time></trkpt><trkpt lat="44.144274016626326" lon="9.712266624901307"><ele>483.0</ele><time>2026-04-12T11:27:36.001Z</time></trkpt><trkpt lat="44.14437508299928" lon="9.712282571281916"><ele>482.99999999999994</ele><time>2026-04-12T11:27:37.001Z</time></trkpt><trkpt lat="44.14447035054049" lon="9.712246159831588"><ele>482.99999999999994</ele><time>2026-04-12T11:27:38.001Z</time></trkpt><trkpt lat="44.144556742309284" lon="9.712160227400602"><ele>483.0</ele><time>2026-04-12T11:27:39.001Z</time></trkpt><trkpt lat="44.14463486854177" lon="9.712030163240579"><ele>483.0</ele><time>2026-04-12T11:27:40.001Z</time></trkpt><trkpt lat="44.144702966146866" lon="9.711869921391544"><ele>477.75</ele><time>2026-04-12T11:27:41.001Z</time></trkpt><trkpt lat="44.14476622820432" lon="9.711688975904218"><ele>472.5</ele><time>2026-04-12T11:27:42.001Z</time></trkpt><trkpt lat="44.14482062671412" lon="9.711520469697618"><ele>467.25</ele><time>2026-04-12T11:27:43.001Z</time></trkpt><trkpt lat="44.14485859008781" lon="9.71137706506502"><ele>462.0</ele><time>2026-04-12T11:27:44.001Z</time></trkpt><trkpt lat="44.14492357493239" lon="9.711282335563796"><ele>461.8</ele><time>2026-04-12T11:27:45.001Z</time></trkpt><trkpt lat="44.14499861620973" lon="9.711231388694411"><ele>461.6</ele><time>2026-04-12T11:27:46.001Z</time></trkpt><trkpt lat="44.14508764766369" lon="9.711221842075787"><ele>461.40000000000003</ele><time>2026-04-12T11:27:47.001Z</time></trkpt><trkpt lat="44.14517986918832" lon="9.711254890706229"><ele>461.20000000000005</ele><time>2026-04-12T11:27:48.001Z</time></trkpt><trkpt lat="44.145269608530015" lon="9.711321287927845"><ele>461.0</ele><time>2026-04-12T11:27:49.001Z</time></trkpt><trkpt lat="44.145344468340205" lon="9.71142296360536"><ele>461.0</ele><time>2026-04-12T11:27:50.001Z</time></trkpt><trkpt lat="44.14541519213258" lon="9.711525011344651"><ele>461.0</ele><time>2026-04-12T11:27:51.001Z</time></trkpt><trkpt lat="44.14549181536399" lon="9.711598936387121"><ele>461.0</ele><time>2026-04-12T11:27:52.001Z</time></trkpt><trkpt lat="44.145580099117964" lon="9.711647369508137"><ele>461.0</ele><time>2026-04-12T11:27:53.001Z</time></trkpt><trkpt lat="44.14566919071569" lon="9.711666279136894"><ele>461.0</ele><time>2026-04-12T11:27:54.001Z</time></trkpt><trkpt lat="44.14575779290135" lon="9.71164881954314"><ele>460.4</ele><time>2026-04-12T11:27:55.001Z</time></trkpt><trkpt lat="44.14584173128549" lon="9.711593686232266"><ele>459.8</ele><time>2026-04-12T11:27:56.001Z</time></trkpt><trkpt lat="44.14590745766158" lon="9.7114921030864"><ele>459.19999999999993</ele><time>2026-04-12T11:27:57.001Z</time></trkpt><trkpt lat="44.145946490375714" lon="9.711360337762821"><ele>458.59999999999997</ele><time>2026-04-12T11:27:58.001Z</time></trkpt><trkpt lat="44.14596041434082" lon="9.711209326920118"><ele>458.0</ele><time>2026-04-12T11:27:59.001Z</time></trkpt><trkpt lat="44.14595354156337" lon="9.711037279013922"><ele>458.0</ele><time>2026-04-12T11:28:00.001Z</time></trkpt><trkpt lat="44.14595054102885" lon="9.710849540579813"><ele>458.0</ele><time>2026-04-12T11:28:01.001Z</time></trkpt><trkpt lat="44.14595961868679" lon="9.71064342556708"><ele>458.0</ele><time>2026-04-12T11:28:02.001Z</time></trkpt><trkpt lat="44.14596949925518" lon="9.71042569559953"><ele>458.0</ele><time>2026-04-12T11:28:03.001Z</time></trkpt><trkpt lat="44.14597262525304" lon="9.710202426861468"><ele>456.0</ele><time>2026-04-12T11:28:04.001Z</time></trkpt><trkpt lat="44.14597273281462" lon="9.709974715644563"><ele>454.0</ele><time>2026-04-12T11:28:05.001Z</time></trkpt><trkpt lat="44.1459477554981" lon="9.709744968753569"><ele>452.0</ele><time>2026-04-12T11:28:06.001Z</time></trkpt><trkpt lat="44.14591202474061" lon="9.709531091539361"><ele>452.75</ele><time>2026-04-12T11:28:07.001Z</time></trkpt><trkpt lat="44.14587811778254" lon="9.709342482357014"><ele>453.5</ele><time>2026-04-12T11:28:08.001Z</time></trkpt><trkpt lat="44.145828203964285" lon="9.709180180788"><ele>454.25</ele><time>2026-04-12T11:28:09.001Z</time></trkpt><trkpt lat="44.14576542971524" lon="9.709050911437947"><ele>455.0</ele><time>2026-04-12T11:28:10.001Z</time></trkpt><trkpt lat="44.1457140821088" lon="9.708936266983288"><ele>455.0</ele><time>2026-04-12T11:28:11.001Z</time></trkpt><trkpt lat="44.14570035777736" lon="9.7088159614949"><ele>455.0</ele><time>2026-04-12T11:28:12.001Z</time></trkpt><trkpt lat="44.145728637469645" lon="9.708685842867887"><ele>455.0</ele><time>2026-04-12T11:28:13.001Z</time></trkpt><trkpt lat="44.145782591397335" lon="9.708549966451779"><ele>455.0</ele><time>2026-04-12T11:28:14.001Z</time></trkpt><trkpt lat="44.14584214589378" lon="9.708405563104245"><ele>455.0</ele><time>2026-04-12T11:28:15.001Z</time></trkpt><trkpt lat="44.14588370750518" lon="9.708236564144146"><ele>455.4</ele><time>2026-04-12T11:28:16.001Z</time></trkpt><trkpt lat="44.14589238445723" lon="9.708055874204724"><ele>455.8</ele><time>2026-04-12T11:28:17.001Z</time></trkpt><trkpt lat="44.145887011472645" lon="9.707897549176504"><ele>456.20000000000005</ele><time>2026-04-12T11:28:18.001Z</time></trkpt><trkpt lat="44.14587999410152" lon="9.70775700694886"><ele>456.6</ele><time>2026-04-12T11:28:19.001Z</time></trkpt><trkpt lat="44.14591085340359" lon="9.707627294009965"><ele>457.0</ele><time>2026-04-12T11:28:20.001Z</time></trkpt><trkpt lat="44.14597463690906" lon="9.707536548602421"><ele>453.40000000000003</ele><time>2026-04-12T11:28:21.001Z</time></trkpt><trkpt lat="44.14606507511465" lon="9.70748386553331"><ele>449.80000000000007</ele><time>2026-04-12T11:28:22.001Z</time></trkpt><trkpt lat="44.146163848727646" lon="9.70747340979655"><ele>446.2</ele><time>2026-04-12T11:28:23.001Z</time></trkpt><trkpt lat="44.14626905883211" lon="9.707512305796481"><ele>442.6</ele><time>2026-04-12T11:28:24.001Z</time></trkpt><trkpt lat="44.146377291552916" lon="9.707569667375022"><ele>439.0</ele><time>2026-04-12T11:28:25.001Z</time></trkpt><trkpt lat="44.14649244560886" lon="9.707614853976562"><ele>440.75</ele><time>2026-04-12T11:28:26.001Z</time></trkpt><trkpt lat="44.14661333418695" lon="9.707644338421545"><ele>442.5</ele><time>2026-04-12T11:28:27.001Z</time></trkpt><trkpt lat="44.146731234589986" lon="9.707680517193095"><ele>444.25</ele><time>2026-04-12T11:28:28.001Z</time></trkpt><trkpt lat="44.14684306600109" lon="9.707758920416348"><ele>446.0</ele><time>2026-04-12T11:28:29.001Z</time></trkpt><trkpt lat="44.1469520881951" lon="9.70785906937857"><ele>455.25</ele><time>2026-04-12T11:28:30.001Z</time></trkpt><trkpt lat="44.14704767074388" lon="9.707939391585416"><ele>464.5</ele><time>2026-04-12T11:28:31.001Z</time></trkpt><trkpt lat="44.147150278007175" lon="9.707989754497397"><ele>473.75</ele><time>2026-04-12T11:28:32.001Z</time></trkpt><trkpt lat="44.14725965157898" lon="9.70797865350067"><ele>483.0</ele><time>2026-04-12T11:28:33.001Z</time></trkpt><trkpt lat="44.147379750164426" lon="9.707932991455076"><ele>483.0</ele><time>2026-04-12T11:28:34.001Z</time></trkpt><trkpt lat="44.147491050354674" lon="9.707862555042594"><ele>482.99999999999994</ele><time>2026-04-12T11:28:35.001Z</time></trkpt><trkpt lat="44.14759904725332" lon="9.707825792622126"><ele>482.99999999999994</ele><time>2026-04-12T11:28:36.001Z</time></trkpt><trkpt lat="44.14769801017482" lon="9.707835075574168"><ele>483.0</ele><time>2026-04-12T11:28:37.001Z</time></trkpt><trkpt lat="44.14780452807329" lon="9.707894436535659"><ele>483.0</ele><time>2026-04-12T11:28:38.001Z</time></trkpt><trkpt lat="44.14791778969053" lon="9.707983946243735"><ele>483.0</ele><time>2026-04-12T11:28:39.001Z</time></trkpt><trkpt lat="44.14804773328773" lon="9.708086961464527"><ele>483.0</ele><time>2026-04-12T11:28:40.001Z</time></trkpt><trkpt lat="44.148170671656416" lon="9.708174710553248"><ele>483.0</ele><time>2026-04-12T11:28:41.001Z</time></trkpt><trkpt lat="44.14828632502829" lon="9.708255850087367"><ele>483.0</ele><time>2026-04-12T11:28:42.001Z</time></trkpt><trkpt lat="44.14839834885982" lon="9.708305095676375"><ele>479.25</ele><time>2026-04-12T11:28:43.001Z</time></trkpt><trkpt lat="44.14850793022028" lon="9.708298298766671"><ele>475.5</ele><time>2026-04-12T11:28:44.001Z</time></trkpt><trkpt lat="44.14861378186153" lon="9.708228903055213"><ele>471.75</ele><time>2026-04-12T11:28:45.001Z</time></trkpt><trkpt lat="44.148712451140774" lon="9.708116039673687"><ele>468.0</ele><time>2026-04-12T11:28:46.001Z</time></trkpt><trkpt lat="44.14880239477293" lon="9.70797186336796"><ele>468.0</ele><time>2026-04-12T11:28:47.002Z</time></trkpt><trkpt lat="44.148897617811514" lon="9.707813609660388"><ele>468.0</ele><time>2026-04-12T11:28:48.002Z</time></trkpt><trkpt lat="44.14900718400775" lon="9.707675700496926"><ele>468.0</ele><time>2026-04-12T11:28:49.002Z</time></trkpt><trkpt lat="44.14910172875002" lon="9.707549932774437"><ele>468.0</ele><time>2026-04-12T11:28:50.002Z</time></trkpt><trkpt lat="44.149180601634235" lon="9.70741937813581"><ele>465.5</ele><time>2026-04-12T11:28:51.002Z</time></trkpt><trkpt lat="44.1492276054345" lon="9.707284063836628"><ele>463.0</ele><time>2026-04-12T11:28:52.002Z</time></trkpt><trkpt lat="44.14922135180248" lon="9.707122458982122"><ele>460.5</ele><time>2026-04-12T11:28:53Z</time></trkpt><trkpt lat="44.14918058084373" lon="9.706958955246472"><ele>458.0</ele><time>2026-04-12T11:28:54Z</time></trkpt><trkpt lat="44.1491350823553" lon="9.706807055305804"><ele>456.79999999999995</ele><time>2026-04-12T11:28:55Z</time></trkpt><trkpt lat="44.14913214974091" lon="9.706661872455506"><ele>455.59999999999997</ele><time>2026-04-12T11:28:56Z</time></trkpt><trkpt lat="44.14916799074121" lon="9.706538119016178"><ele>454.40000000000003</ele><time>2026-04-12T11:28:57Z</time></trkpt><trkpt lat="44.14923551086112" lon="9.70645270679353"><ele>453.20000000000005</ele><time>2026-04-12T11:28:58Z</time></trkpt><trkpt lat="44.149322775822185" lon="9.706403569515565"><ele>452.0</ele><time>2026-04-12T11:28:59Z</time></trkpt><trkpt lat="44.149424985736275" lon="9.70638600899365"><ele>452.0</ele><time>2026-04-12T11:29:00Z</time></trkpt><trkpt lat="44.14952964770744" lon="9.706354663323001"><ele>452.00000000000006</ele><time>2026-04-12T11:29:01Z</time></trkpt><trkpt lat="44.14962861104855" lon="9.706301533084325"><ele>452.00000000000006</ele><time>2026-04-12T11:29:02Z</time></trkpt><trkpt lat="44.14970987534632" lon="9.706219417664052"><ele>452.0</ele><time>2026-04-12T11:29:03Z</time></trkpt><trkpt lat="44.14976530597503" lon="9.706108907491979"><ele>452.0</ele><time>2026-04-12T11:29:04Z</time></trkpt><trkpt lat="44.14979776803986" lon="9.705981859599232"><ele>449.6</ele><time>2026-04-12T11:29:05Z</time></trkpt><trkpt lat="44.14979429115289" lon="9.705837399614076"><ele>447.20000000000005</ele><time>2026-04-12T11:29:06Z</time></trkpt><trkpt lat="44.14975996895478" lon="9.705696320805348"><ele>444.8</ele><time>2026-04-12T11:29:07Z</time></trkpt><trkpt lat="44.14969382255165" lon="9.705575551617452"><ele>442.4</ele><time>2026-04-12T11:29:08Z</time></trkpt><trkpt lat="44.14960637030633" lon="9.705462209278352"><ele>440.0</ele><time>2026-04-12T11:29:09Z</time></trkpt><trkpt lat="44.14951758618075" lon="9.705338459211731"><ele>444.75</ele><time>2026-04-12T11:29:10Z</time></trkpt><trkpt lat="44.149429540739746" lon="9.70519322761575"><ele>449.5</ele><time>2026-04-12T11:29:11Z</time></trkpt><trkpt lat="44.149339154070695" lon="9.705034546329987"><ele>454.25</ele><time>2026-04-12T11:29:12Z</time></trkpt><trkpt lat="44.14922901653742" lon="9.704898462368229"><ele>459.0</ele><time>2026-04-12T11:29:13Z</time></trkpt><trkpt lat="44.14909635348322" lon="9.704802973880595"><ele>454.0</ele><time>2026-04-12T11:29:14Z</time></trkpt><trkpt lat="44.148942320361414" lon="9.7047361639843"><ele>449.0</ele><time>2026-04-12T11:29:15Z</time></trkpt><trkpt lat="44.14877376503762" lon="9.704683725453101"><ele>444.0</ele><time>2026-04-12T11:29:16Z</time></trkpt><trkpt lat="44.148603365433374" lon="9.704647137042473"><ele>444.0</ele><time>2026-04-12T11:29:17Z</time></trkpt><trkpt lat="44.148435109525536" lon="9.704633946588588"><ele>444.0</ele><time>2026-04-12T11:29:18Z</time></trkpt><trkpt lat="44.14827941570112" lon="9.70463125883184"><ele>444.0</ele><time>2026-04-12T11:29:19Z</time></trkpt><trkpt lat="44.148139158166295" lon="9.704636586446606"><ele>441.2</ele><time>2026-04-12T11:29:20Z</time></trkpt><trkpt lat="44.14802013426001" lon="9.704635746668696"><ele>438.4</ele><time>2026-04-12T11:29:21Z</time></trkpt><trkpt lat="44.14792076952244" lon="9.70462166314783"><ele>435.6</ele><time>2026-04-12T11:29:22Z</time></trkpt><trkpt lat="44.14783409240144" lon="9.704579353969129"><ele>432.8</ele><time>2026-04-12T11:29:23Z</time></trkpt><trkpt lat="44.147764127449214" lon="9.70449554410967"><ele>430.0</ele><time>2026-04-12T11:29:24Z</time></trkpt><trkpt lat="44.14773193519153" lon="9.704383355275363"><ele>430.0</ele><time>2026-04-12T11:29:25Z</time></trkpt><trkpt lat="44.147740090002024" lon="9.70425657945729"><ele>430.0</ele><time>2026-04-12T11:29:26Z</time></trkpt><trkpt lat="44.14777212630633" lon="9.704123038522974"><ele>430.0</ele><time>2026-04-12T11:29:27Z</time></trkpt><trkpt lat="44.14782135690532" lon="9.703976085898889"><ele>430.0</ele><time>2026-04-12T11:29:28Z</time></trkpt><trkpt lat="44.14786408783829" lon="9.703811910117839"><ele>430.0</ele><time>2026-04-12T11:29:29Z</time></trkpt><trkpt lat="44.1479187990097" lon="9.703627477755234"><ele>427.75</ele><time>2026-04-12T11:29:30Z</time></trkpt><trkpt lat="44.14797113017777" lon="9.703433496519331"><ele>425.5</ele><time>2026-04-12T11:29:31Z</time></trkpt><trkpt lat="44.14802082180411" lon="9.703234467916207"><ele>423.25</ele><time>2026-04-12T11:29:32Z</time></trkpt><trkpt lat="44.14806980292516" lon="9.703056120893102"><ele>421.0</ele><time>2026-04-12T11:29:33Z</time></trkpt><trkpt lat="44.14810987468012" lon="9.702894138316621"><ele>421.0</ele><time>2026-04-12T11:29:34Z</time></trkpt><trkpt lat="44.148147825094746" lon="9.70275385675147"><ele>421.0</ele><time>2026-04-12T11:29:35Z</time></trkpt><trkpt lat="44.148151350239445" lon="9.702622316703499"><ele>421.0</ele><time>2026-04-12T11:29:36Z</time></trkpt><trkpt lat="44.148114778603905" lon="9.702497475271931"><ele>421.0</ele><time>2026-04-12T11:29:37.001Z</time></trkpt><trkpt lat="44.14803552277766" lon="9.702395374745397"><ele>421.0</ele><time>2026-04-12T11:29:38.001Z</time></trkpt><trkpt lat="44.14793063943163" lon="9.702330290078974"><ele>427.75</ele><time>2026-04-12T11:29:39.001Z</time></trkpt><trkpt lat="44.147801400093314" lon="9.702296227204693"><ele>434.5</ele><time>2026-04-12T11:29:40.001Z</time></trkpt><trkpt lat="44.14766643178969" lon="9.702256116991018"><ele>441.25</ele><time>2026-04-12T11:29:41.001Z</time></trkpt><trkpt lat="44.14752388050974" lon="9.702233097859551"><ele>448.0</ele><time>2026-04-12T11:29:42.001Z</time></trkpt><trkpt lat="44.14738889168438" lon="9.702222923090254"><ele>439.75</ele><time>2026-04-12T11:29:43.001Z</time></trkpt><trkpt lat="44.147268721657106" lon="9.702190751241817"><ele>431.5</ele><time>2026-04-12T11:29:44.001Z</time></trkpt><trkpt lat="44.14716653618418" lon="9.702133366314182"><ele>423.25</ele><time>2026-04-12T11:29:45.001Z</time></trkpt><trkpt lat="44.147087786866074" lon="9.70203432141698"><ele>415.0</ele><time>2026-04-12T11:29:46.001Z</time></trkpt><trkpt lat="44.14701407389841" lon="9.70191785091132"><ele>417.4</ele><time>2026-04-12T11:29:47.001Z</time></trkpt><trkpt lat="44.1469552351401" lon="9.701790252342679"><ele>419.8</ele><time>2026-04-12T11:29:48.001Z</time></trkpt><trkpt lat="44.14690949407304" lon="9.701664289575135"><ele>422.20000000000005</ele><time>2026-04-12T11:29:49.001Z</time></trkpt><trkpt lat="44.1468875808455" lon="9.701532736085795"><ele>424.6</ele><time>2026-04-12T11:29:50.001Z</time></trkpt><trkpt lat="44.146903031793165" lon="9.70140145046511"><ele>427.0</ele><time>2026-04-12T11:29:51.001Z</time></trkpt><trkpt lat="44.146942495550554" lon="9.701266022858052"><ele>427.0</ele><time>2026-04-12T11:29:52.001Z</time></trkpt><trkpt lat="44.147012977875264" lon="9.701128907701714"><ele>427.0</ele><time>2026-04-12T11:29:53.001Z</time></trkpt><trkpt lat="44.14708789918611" lon="9.700974869870961"><ele>427.0</ele><time>2026-04-12T11:29:54.001Z</time></trkpt><trkpt lat="44.14715521195932" lon="9.700811955149362"><ele>427.0</ele><time>2026-04-12T11:29:55.001Z</time></trkpt><trkpt lat="44.14722735146067" lon="9.70064659171642"><ele>424.5</ele><time>2026-04-12T11:29:56.001Z</time></trkpt><trkpt lat="44.147310647244794" lon="9.70047441490272"><ele>422.0</ele><time>2026-04-12T11:29:57.001Z</time></trkpt><trkpt lat="44.147388716122514" lon="9.700296562767779"><ele>419.5</ele><time>2026-04-12T11:29:58.001Z</time></trkpt><trkpt lat="44.14746236711211" lon="9.700122520258963"><ele>417.0</ele><time>2026-04-12T11:29:59.001Z</time></trkpt><trkpt lat="44.1475332234982" lon="9.699951108918688"><ele>416.0</ele><time>2026-04-12T11:30:00.001Z</time></trkpt><trkpt lat="44.14760502844966" lon="9.699792551629105"><ele>415.0</ele><time>2026-04-12T11:30:01.001Z</time></trkpt><trkpt lat="44.147682488083646" lon="9.69964681294666"><ele>414.0</ele><time>2026-04-12T11:30:02.001Z</time></trkpt><trkpt lat="44.14777648568586" lon="9.69950774017488"><ele>413.0</ele><time>2026-04-12T11:30:03.001Z</time></trkpt><trkpt lat="44.147876333208295" lon="9.699392312522557"><ele>413.0</ele><time>2026-04-12T11:30:04.001Z</time></trkpt><trkpt lat="44.147967019598156" lon="9.699275916740946"><ele>413.0</ele><time>2026-04-12T11:30:05.001Z</time></trkpt><trkpt lat="44.148056124286406" lon="9.69916962673285"><ele>413.0</ele><time>2026-04-12T11:30:06.001Z</time></trkpt><trkpt lat="44.14815153407886" lon="9.699097137442738"><ele>413.0</ele><time>2026-04-12T11:30:07.001Z</time></trkpt><trkpt lat="44.14825403421996" lon="9.699056885523989"><ele>417.59999999999997</ele><time>2026-04-12T11:30:08.001Z</time></trkpt><trkpt lat="44.14835790285754" lon="9.699027965024037"><ele>422.2</ele><time>2026-04-12T11:30:09.001Z</time></trkpt><trkpt lat="44.14844275108265" lon="9.698968164738782"><ele>426.8</ele><time>2026-04-12T11:30:10.001Z</time></trkpt><trkpt lat="44.14849042859522" lon="9.698858026767585"><ele>431.4</ele><time>2026-04-12T11:30:11.001Z</time></trkpt><trkpt lat="44.148488147182114" lon="9.698710824061083"><ele>436.0</ele><time>2026-04-12T11:30:12.001Z</time></trkpt><trkpt lat="44.14850615246806" lon="9.69854472215259"><ele>436.0</ele><time>2026-04-12T11:30:13.001Z</time></trkpt><trkpt lat="44.14855894769682" lon="9.698383615782662"><ele>436.0</ele><time>2026-04-12T11:30:14.001Z</time></trkpt><trkpt lat="44.148609149783674" lon="9.69824371101932"><ele>436.0</ele><time>2026-04-12T11:30:15.001Z</time></trkpt><trkpt lat="44.148672081216" lon="9.698125390052715"><ele>436.0</ele><time>2026-04-12T11:30:16.001Z</time></trkpt><trkpt lat="44.14874793026975" lon="9.698039817860538"><ele>436.0</ele><time>2026-04-12T11:30:17.001Z</time></trkpt><trkpt lat="44.14883611246112" lon="9.697984082533146"><ele>436.0</ele><time>2026-04-12T11:30:18.001Z</time></trkpt><trkpt lat="44.14891952633106" lon="9.69793859374191"><ele>436.0</ele><time>2026-04-12T11:30:19.001Z</time></trkpt><trkpt lat="44.1489860398894" lon="9.697858485007766"><ele>436.0</ele><time>2026-04-12T11:30:20.001Z</time></trkpt><trkpt lat="44.149018417928346" lon="9.697745968894687"><ele>436.0</ele><time>2026-04-12T11:30:21.001Z</time></trkpt><trkpt lat="44.14902359350296" lon="9.69761072510275"><ele>436.0</ele><time>2026-04-12T11:30:22.001Z</time></trkpt><trkpt lat="44.14898905207086" lon="9.697474738017952"><ele>435.4</ele><time>2026-04-12T11:30:23.001Z</time></trkpt><trkpt lat="44.1489279199834" lon="9.697357316335976"><ele>434.8</ele><time>2026-04-12T11:30:24.001Z</time></trkpt><trkpt lat="44.14886883322634" lon="9.697232931775142"><ele>434.19999999999993</ele><time>2026-04-12T11:30:25.001Z</time></trkpt><trkpt lat="44.1488185922108" lon="9.697098618317623"><ele>433.59999999999997</ele><time>2026-04-12T11:30:26.001Z</time></trkpt><trkpt lat="44.148776414033144" lon="9.696958189638883"><ele>433.0</ele><time>2026-04-12T11:30:27.001Z</time></trkpt><trkpt lat="44.14874951334407" lon="9.696803760102409"><ele>438.5</ele><time>2026-04-12T11:30:28.001Z</time></trkpt><trkpt lat="44.148705062512676" lon="9.696683173039068"><ele>444.0</ele><time>2026-04-12T11:30:29.001Z</time></trkpt><trkpt lat="44.14861436038728" lon="9.696598758022152"><ele>449.5</ele><time>2026-04-12T11:30:30.001Z</time></trkpt><trkpt lat="44.148501753033926" lon="9.696560929976094"><ele>455.0</ele><time>2026-04-12T11:30:31.001Z</time></trkpt><trkpt lat="44.14837054904082" lon="9.69655903623221"><ele>455.0</ele><time>2026-04-12T11:30:32.001Z</time></trkpt><trkpt lat="44.14823365692302" lon="9.696579434680109"><ele>455.0</ele><time>2026-04-12T11:30:33.001Z</time></trkpt><trkpt lat="44.14809958642391" lon="9.696643847143688"><ele>455.0</ele><time>2026-04-12T11:30:34.001Z</time></trkpt><trkpt lat="44.147972284782135" lon="9.696733666174945"><ele>455.0</ele><time>2026-04-12T11:30:35.001Z</time></trkpt><trkpt lat="44.14786634192783" lon="9.69682097555985"><ele>452.66666666666663</ele><time>2026-04-12T11:30:36.001Z</time></trkpt><trkpt lat="44.14777712190565" lon="9.696880659591768"><ele>450.3333333333333</ele><time>2026-04-12T11:30:37.001Z</time></trkpt><trkpt lat="44.147696843974224" lon="9.696905001835962"><ele>448.0</ele><time>2026-04-12T11:30:38.001Z</time></trkpt><trkpt lat="44.147614340995986" lon="9.696870619666774"><ele>445.66666666666663</ele><time>2026-04-12T11:30:39.001Z</time></trkpt><trkpt lat="44.14755761129836" lon="9.69678495335449"><ele>443.3333333333333</ele><time>2026-04-12T11:30:40.001Z</time></trkpt><trkpt lat="44.14752473542504" lon="9.696660307993895"><ele>441.0</ele><time>2026-04-12T11:30:41.001Z</time></trkpt><trkpt lat="44.14749828905229" lon="9.696515686204329"><ele>441.0</ele><time>2026-04-12T11:30:42.001Z</time></trkpt><trkpt lat="44.147465238391014" lon="9.696366828966282"><ele>441.0</ele><time>2026-04-12T11:30:43.001Z</time></trkpt><trkpt lat="44.14742337846594" lon="9.696222470240444"><ele>441.0</ele><time>2026-04-12T11:30:44.001Z</time></trkpt><trkpt lat="44.14738594122243" lon="9.696085482751444"><ele>441.0</ele><time>2026-04-12T11:30:45.001Z</time></trkpt><trkpt lat="44.14737572968688" lon="9.695962220955703"><ele>441.0</ele><time>2026-04-12T11:30:46.001Z</time></trkpt><trkpt lat="44.14739731116819" lon="9.695845652071013"><ele>441.8</ele><time>2026-04-12T11:30:47.001Z</time></trkpt><trkpt lat="44.14744333277486" lon="9.695737925012395"><ele>442.6</ele><time>2026-04-12T11:30:48.001Z</time></trkpt><trkpt lat="44.14751945977192" lon="9.695643785593203"><ele>443.4</ele><time>2026-04-12T11:30:49.001Z</time></trkpt><trkpt lat="44.147607573613044" lon="9.69555570285037"><ele>444.2</ele><time>2026-04-12T11:30:50.001Z</time></trkpt><trkpt lat="44.147704375468635" lon="9.695468783233608"><ele>445.0</ele><time>2026-04-12T11:30:51.001Z</time></trkpt><trkpt lat="44.14781010405521" lon="9.695371967982467"><ele>445.0</ele><time>2026-04-12T11:30:52.001Z</time></trkpt><trkpt lat="44.14790936915911" lon="9.695276402204009"><ele>445.0</ele><time>2026-04-12T11:30:53.001Z</time></trkpt><trkpt lat="44.148022742725026" lon="9.695208068097992"><ele>445.0</ele><time>2026-04-12T11:30:54.001Z</time></trkpt><trkpt lat="44.14814110493703" lon="9.695175405600942"><ele>445.0</ele><time>2026-04-12T11:30:55.001Z</time></trkpt><trkpt lat="44.14825866729911" lon="9.69517323014355"><ele>445.8</ele><time>2026-04-12T11:30:56.001Z</time></trkpt><trkpt lat="44.14836195746132" lon="9.695153259668503"><ele>446.6</ele><time>2026-04-12T11:30:57.001Z</time></trkpt><trkpt lat="44.148446446445064" lon="9.695080149246426"><ele>447.4</ele><time>2026-04-12T11:30:58.001Z</time></trkpt><trkpt lat="44.148508971524386" lon="9.694960634842348"><ele>448.2</ele><time>2026-04-12T11:30:59Z</time></trkpt><trkpt lat="44.148537645133274" lon="9.694803583941676"><ele>449.0</ele><time>2026-04-12T11:31:00Z</time></trkpt><trkpt lat="44.1485387196403" lon="9.694636893343578"><ele>449.0</ele><time>2026-04-12T11:31:01Z</time></trkpt><trkpt lat="44.14854538516716" lon="9.694486590041437"><ele>449.0</ele><time>2026-04-12T11:31:02Z</time></trkpt><trkpt lat="44.14859070331845" lon="9.694353701942076"><ele>449.0</ele><time>2026-04-12T11:31:03Z</time></trkpt><trkpt lat="44.14866701224818" lon="9.694231546509899"><ele>449.0</ele><time>2026-04-12T11:31:04Z</time></trkpt><trkpt lat="44.148753128184374" lon="9.694114939645333"><ele>446.2</ele><time>2026-04-12T11:31:05Z</time></trkpt><trkpt lat="44.148827219523966" lon="9.69399459821673"><ele>443.4</ele><time>2026-04-12T11:31:06.001Z</time></trkpt><trkpt lat="44.14888727866318" lon="9.693879156811755"><ele>440.6</ele><time>2026-04-12T11:31:07Z</time></trkpt><trkpt lat="44.148912573352625" lon="9.693748735243036"><ele>437.8</ele><time>2026-04-12T11:31:08Z</time></trkpt><trkpt lat="44.14890031673152" lon="9.693603987798564"><ele>435.0</ele><time>2026-04-12T11:31:09Z</time></trkpt><trkpt lat="44.14884387035789" lon="9.693474781535825"><ele>435.0</ele><time>2026-04-12T11:31:10Z</time></trkpt><trkpt lat="44.14875653333562" lon="9.69337422275239"><ele>435.0</ele><time>2026-04-12T11:31:11Z</time></trkpt><trkpt lat="44.14865914785772" lon="9.693308530451318"><ele>435.0</ele><time>2026-04-12T11:31:12Z</time></trkpt><trkpt lat="44.14856464493099" lon="9.693248591997943"><ele>435.0</ele><time>2026-04-12T11:31:13Z</time></trkpt><trkpt lat="44.1484955032009" lon="9.693158833788566"><ele>435.0</ele><time>2026-04-12T11:31:14Z</time></trkpt><trkpt lat="44.148459306847954" lon="9.693030952244317"><ele>435.0</ele><time>2026-04-12T11:31:15Z</time></trkpt><trkpt lat="44.14845856065874" lon="9.692880423525605"><ele>435.0</ele><time>2026-04-12T11:31:16Z</time></trkpt><trkpt lat="44.148467412414135" lon="9.692720770451048"><ele>435.0</ele><time>2026-04-12T11:31:17Z</time></trkpt><trkpt lat="44.148453695722516" lon="9.69256816664935"><ele>435.0</ele><time>2026-04-12T11:31:18Z</time></trkpt><trkpt lat="44.14840241392992" lon="9.692429545083627"><ele>435.0</ele><time>2026-04-12T11:31:19Z</time></trkpt><trkpt lat="44.148312564841724" lon="9.692317428467765"><ele>431.75</ele><time>2026-04-12T11:31:20Z</time></trkpt><trkpt lat="44.14820274882661" lon="9.692235710361016"><ele>428.5</ele><time>2026-04-12T11:31:21Z</time></trkpt><trkpt lat="44.14808089213182" lon="9.69217943898508"><ele>425.25</ele><time>2026-04-12T11:31:22Z</time></trkpt><trkpt lat="44.147970076546024" lon="9.692118588524346"><ele>422.0</ele><time>2026-04-12T11:31:23Z</time></trkpt><trkpt lat="44.147887772634846" lon="9.692047788954536"><ele>421.99999999999994</ele><time>2026-04-12T11:31:24Z</time></trkpt><trkpt lat="44.14784233313723" lon="9.691955263553595"><ele>422.0</ele><time>2026-04-12T11:31:25Z</time></trkpt><trkpt lat="44.14783592491043" lon="9.691851046831776"><ele>422.0</ele><time>2026-04-12T11:31:26Z</time></trkpt><trkpt lat="44.147871049928945" lon="9.691738258196523"><ele>422.0</ele><time>2026-04-12T11:31:27Z</time></trkpt><trkpt lat="44.14793522753565" lon="9.69163698921387"><ele>421.99999999999994</ele><time>2026-04-12T11:31:28Z</time></trkpt><trkpt lat="44.148018374251656" lon="9.691544815441352"><ele>422.0</ele><time>2026-04-12T11:31:29Z</time></trkpt><trkpt lat="44.1481034266034" lon="9.691445423794361"><ele>422.8</ele><time>2026-04-12T11:31:30Z</time></trkpt><trkpt lat="44.1481857583122" lon="9.691335348115622"><ele>423.6</ele><time>2026-04-12T11:31:31Z</time></trkpt><trkpt lat="44.14824796630947" lon="9.691222776304622"><ele>424.40000000000003</ele><time>2026-04-12T11:31:32Z</time></trkpt><trkpt lat="44.14826913712613" lon="9.691098114380482"><ele>425.20000000000005</ele><time>2026-04-12T11:31:33Z</time></trkpt><trkpt lat="44.148240763447774" lon="9.690963573610022"><ele>426.0</ele><time>2026-04-12T11:31:34Z</time></trkpt><trkpt lat="44.14819653683232" lon="9.690818471776112"><ele>423.5</ele><time>2026-04-12T11:31:35Z</time></trkpt><trkpt lat="44.14815314092002" lon="9.690665638487149"><ele>421.0</ele><time>2026-04-12T11:31:36Z</time></trkpt><trkpt lat="44.148117314027225" lon="9.69050114437084"><ele>418.5</ele><time>2026-04-12T11:31:37Z</time></trkpt><trkpt lat="44.148088534590904" lon="9.690328577991064"><ele>416.0</ele><time>2026-04-12T11:31:38Z</time></trkpt><trkpt lat="44.14807215419171" lon="9.690147224300148"><ele>415.99999999999994</ele><time>2026-04-12T11:31:39Z</time></trkpt><trkpt lat="44.14806044111055" lon="9.689989028135313"><ele>416.0</ele><time>2026-04-12T11:31:40Z</time></trkpt><trkpt lat="44.148051410434306" lon="9.689848142999324"><ele>416.0</ele><time>2026-04-12T11:31:41Z</time></trkpt><trkpt lat="44.14804628759738" lon="9.689736615723099"><ele>416.0</ele><time>2026-04-12T11:31:42Z</time></trkpt><trkpt lat="44.14807261227178" lon="9.689635251505974"><ele>415.99999999999994</ele><time>2026-04-12T11:31:43Z</time></trkpt><trkpt lat="44.148130584027314" lon="9.68956862561897"><ele>416.0</ele><time>2026-04-12T11:31:44Z</time></trkpt><trkpt lat="44.148206953150634" lon="9.6895350445161"><ele>425.0</ele><time>2026-04-12T11:31:45Z</time></trkpt><trkpt lat="44.148294480664894" lon="9.68953059432972"><ele>434.0</ele><time>2026-04-12T11:31:46Z</time></trkpt><trkpt lat="44.14839036037634" lon="9.689540742376579"><ele>443.0</ele><time>2026-04-12T11:31:47Z</time></trkpt><trkpt lat="44.14849330419212" lon="9.689546805090185"><ele>452.0</ele><time>2026-04-12T11:31:48Z</time></trkpt><trkpt lat="44.14860352144244" lon="9.689553196262928"><ele>461.0</ele><time>2026-04-12T11:31:49Z</time></trkpt><trkpt lat="44.14872268163145" lon="9.68957278012639"><ele>460.99999999999994</ele><time>2026-04-12T11:31:50Z</time></trkpt><trkpt lat="44.14882318481175" lon="9.68958579758249"><ele>461.0</ele><time>2026-04-12T11:31:51Z</time></trkpt><trkpt lat="44.14890579973" lon="9.68957001678748"><ele>461.0</ele><time>2026-04-12T11:31:52Z</time></trkpt><trkpt lat="44.14896712549086" lon="9.689516804742539"><ele>461.0</ele><time>2026-04-12T11:31:53Z</time></trkpt><trkpt lat="44.149001778016846" lon="9.68941037868398"><ele>460.99999999999994</ele><time>2026-04-12T11:31:54Z</time></trkpt><trkpt lat="44.14900869026709" lon="9.689285140956693"><ele>461.0</ele><time>2026-04-12T11:31:55Z</time></trkpt><trkpt lat="44.14898952792516" lon="9.689140533729338"><ele>456.8</ele><time>2026-04-12T11:31:56Z</time></trkpt><trkpt lat="44.14895917610311" lon="9.688998454603047"><ele>452.6</ele><time>2026-04-12T11:31:57Z</time></trkpt><trkpt lat="44.148930360372816" lon="9.688862253579318"><ele>448.4</ele><time>2026-04-12T11:31:58Z</time></trkpt><trkpt lat="44.14892522628548" lon="9.68874438005484"><ele>444.2</ele><time>2026-04-12T11:31:59Z</time></trkpt><trkpt lat="44.1489565179467" lon="9.688645113114747"><ele>440.0</ele><time>2026-04-12T11:32:00Z</time></trkpt><trkpt lat="44.14901861357784" lon="9.688550151480205"><ele>444.4</ele><time>2026-04-12T11:32:01Z</time></trkpt><trkpt lat="44.14909846731263" lon="9.688466061924764"><ele>448.8</ele><time>2026-04-12T11:32:02Z</time></trkpt><trkpt lat="44.14919007835262" lon="9.688386976892305"><ele>453.20000000000005</ele><time>2026-04-12T11:32:03.001Z</time></trkpt><trkpt lat="44.1492844119371" lon="9.688300947993934"><ele>457.6</ele><time>2026-04-12T11:32:04.001Z</time></trkpt><trkpt lat="44.14937805369587" lon="9.688210639661557"><ele>462.0</ele><time>2026-04-12T11:32:05.001Z</time></trkpt><trkpt lat="44.1494534112342" lon="9.688112150099716"><ele>462.0</ele><time>2026-04-12T11:32:06.001Z</time></trkpt><trkpt lat="44.14949021671241" lon="9.687993559997505"><ele>462.00000000000006</ele><time>2026-04-12T11:32:07.001Z</time></trkpt><trkpt lat="44.14949504885109" lon="9.687867576244066"><ele>462.00000000000006</ele><time>2026-04-12T11:32:08.001Z</time></trkpt><trkpt lat="44.14947281645974" lon="9.687742596434642"><ele>462.0</ele><time>2026-04-12T11:32:09.001Z</time></trkpt><trkpt lat="44.14941184656314" lon="9.687642497763646"><ele>462.0</ele><time>2026-04-12T11:32:10.001Z</time></trkpt><trkpt lat="44.14934097810788" lon="9.68756429656301"><ele>464.40000000000003</ele><time>2026-04-12T11:32:11.001Z</time></trkpt><trkpt lat="44.149251119620914" lon="9.68750626684019"><ele>466.80000000000007</ele><time>2026-04-12T11:32:12.001Z</time></trkpt><trkpt lat="44.14916173792504" lon="9.687459079439664"><ele>469.2</ele><time>2026-04-12T11:32:13.001Z</time></trkpt><trkpt lat="44.14908159752866" lon="9.687381185383959"><ele>471.6</ele><time>2026-04-12T11:32:14.001Z</time></trkpt><trkpt lat="44.14901489454218" lon="9.687284134628275"><ele>474.0</ele><time>2026-04-12T11:32:15.001Z</time></trkpt><trkpt lat="44.14895842028329" lon="9.687169895853767"><ele>474.0</ele><time>2026-04-12T11:32:16.001Z</time></trkpt><trkpt lat="44.14891054221244" lon="9.687086539324204"><ele>474.0</ele><time>2026-04-12T11:32:17.001Z</time></trkpt><trkpt lat="44.14888241820109" lon="9.686989145685503"><ele>474.0</ele><time>2026-04-12T11:32:19.001Z</time></trkpt><trkpt lat="44.14894555176322" lon="9.686945805184981"><ele>474.0</ele><time>2026-04-12T11:32:21.001Z</time></trkpt><trkpt lat="44.14901598890312" lon="9.687032115421047"><ele>474.0</ele><time>2026-04-12T11:32:23.001Z</time></trkpt><trkpt lat="44.149056470737186" lon="9.687130415679647"><ele>474.0</ele><time>2026-04-12T11:32:24.001Z</time></trkpt><trkpt lat="44.149094989501165" lon="9.687224165524347"><ele>474.0</ele><time>2026-04-12T11:32:25.001Z</time></trkpt><trkpt lat="44.14914091441008" lon="9.687303399367403"><ele>474.0</ele><time>2026-04-12T11:32:26.001Z</time></trkpt><trkpt lat="44.149205170331385" lon="9.68736412750041"><ele>474.0</ele><time>2026-04-12T11:32:27.001Z</time></trkpt><trkpt lat="44.14928755855786" lon="9.687390599002033"><ele>474.0</ele><time>2026-04-12T11:32:28.001Z</time></trkpt><trkpt lat="44.14938747656032" lon="9.687401773534406"><ele>474.0</ele><time>2026-04-12T11:32:29.001Z</time></trkpt><trkpt lat="44.14948035056678" lon="9.687407618207134"><ele>474.0</ele><time>2026-04-12T11:32:30.001Z</time></trkpt><trkpt lat="44.14956745256913" lon="9.687417731529578"><ele>474.0</ele><time>2026-04-12T11:32:31.001Z</time></trkpt><trkpt lat="44.14964115675701" lon="9.687424729633511"><ele>474.0</ele><time>2026-04-12T11:32:32.001Z</time></trkpt><trkpt lat="44.149708084733604" lon="9.687440603697384"><ele>474.0</ele><time>2026-04-12T11:32:33.001Z</time></trkpt><trkpt lat="44.149807613827" lon="9.687531588139835"><ele>474.0</ele><time>2026-04-12T11:32:35.001Z</time></trkpt><trkpt lat="44.14982723683147" lon="9.68761839271424"><ele>474.0</ele><time>2026-04-12T11:32:36.001Z</time></trkpt><trkpt lat="44.1498325478875" lon="9.687733613980253"><ele>474.0</ele><time>2026-04-12T11:32:37.001Z</time></trkpt><trkpt lat="44.14981310128042" lon="9.687846456752055"><ele>472.0</ele><time>2026-04-12T11:32:38.001Z</time></trkpt><trkpt lat="44.14980335440368" lon="9.687957756569487"><ele>470.0</ele><time>2026-04-12T11:32:39.001Z</time></trkpt><trkpt lat="44.149805643770804" lon="9.688066890946367"><ele>468.0</ele><time>2026-04-12T11:32:40.001Z</time></trkpt><trkpt lat="44.14981914311427" lon="9.688187458991626"><ele>466.0</ele><time>2026-04-12T11:32:41.001Z</time></trkpt><trkpt lat="44.14985410173031" lon="9.688303157852063"><ele>464.0</ele><time>2026-04-12T11:32:42.001Z</time></trkpt><trkpt lat="44.14988930321261" lon="9.688408609269313"><ele>462.0</ele><time>2026-04-12T11:32:43.001Z</time></trkpt><trkpt lat="44.14994014959625" lon="9.688510350544522"><ele>468.5</ele><time>2026-04-12T11:32:44.001Z</time></trkpt><trkpt lat="44.149991939374544" lon="9.688611678930972"><ele>475.0</ele><time>2026-04-12T11:32:45.001Z</time></trkpt><trkpt lat="44.15004909110572" lon="9.688703276962812"><ele>481.5</ele><time>2026-04-12T11:32:46.001Z</time></trkpt><trkpt lat="44.15010092052328" lon="9.688779450844867"><ele>488.0</ele><time>2026-04-12T11:32:47.001Z</time></trkpt><trkpt lat="44.15012926727066" lon="9.688868132546327"><ele>494.5</ele><time>2026-04-12T11:32:48.001Z</time></trkpt><trkpt lat="44.15020694813867" lon="9.68898108561449"><ele>501.0</ele><time>2026-04-12T11:32:50.001Z</time></trkpt><trkpt lat="44.150249449358846" lon="9.689060798771127"><ele>501.0</ele><time>2026-04-12T11:32:53.001Z</time></trkpt><trkpt lat="44.15022137791169" lon="9.68897558788986"><ele>501.0</ele><time>2026-04-12T11:33:11Z</time></trkpt><trkpt lat="44.150142218003076" lon="9.688873517330778"><ele>501.0</ele><time>2026-04-12T11:33:13Z</time></trkpt><trkpt lat="44.150093788646544" lon="9.688787200859508"><ele>501.0</ele><time>2026-04-12T11:33:14Z</time></trkpt><trkpt lat="44.150054942744866" lon="9.688702536183385"><ele>501.0</ele><time>2026-04-12T11:33:15Z</time></trkpt><trkpt lat="44.15001438678091" lon="9.688616122995215"><ele>501.0</ele><time>2026-04-12T11:33:16Z</time></trkpt><trkpt lat="44.149976330556854" lon="9.688526713208468"><ele>500.28571428571433</ele><time>2026-04-12T11:33:17Z</time></trkpt><trkpt lat="44.14992914817966" lon="9.688455292429962"><ele>499.57142857142856</ele><time>2026-04-12T11:33:18Z</time></trkpt><trkpt lat="44.149882984800314" lon="9.688368705880954"><ele>498.8571428571429</ele><time>2026-04-12T11:33:19Z</time></trkpt><trkpt lat="44.14984926317333" lon="9.68828589279229"><ele>498.14285714285717</ele><time>2026-04-12T11:33:20Z</time></trkpt><trkpt lat="44.14982521420119" lon="9.688184548322594"><ele>497.42857142857144</ele><time>2026-04-12T11:33:21Z</time></trkpt><trkpt lat="44.14980833279631" lon="9.688086005487788"><ele>496.7142857142857</ele><time>2026-04-12T11:33:22Z</time></trkpt><trkpt lat="44.1498017666391" lon="9.687986827628512"><ele>496.0</ele><time>2026-04-12T11:33:23Z</time></trkpt><trkpt lat="44.14979919663759" lon="9.68789100647131"><ele>492.8571428571429</ele><time>2026-04-12T11:33:24Z</time></trkpt><trkpt lat="44.149803462851544" lon="9.687797014432663"><ele>489.7142857142858</ele><time>2026-04-12T11:33:25Z</time></trkpt><trkpt lat="44.14981729354961" lon="9.687702645722558"><ele>486.57142857142856</ele><time>2026-04-12T11:33:26Z</time></trkpt><trkpt lat="44.14981556748887" lon="9.68760584476964"><ele>483.42857142857144</ele><time>2026-04-12T11:33:27Z</time></trkpt><trkpt lat="44.149794129295145" lon="9.687519363592026"><ele>480.2857142857143</ele><time>2026-04-12T11:33:28Z</time></trkpt><trkpt lat="44.149752844109344" lon="9.687450238808905"><ele>477.1428571428571</ele><time>2026-04-12T11:33:29Z</time></trkpt><trkpt lat="44.149684077914245" lon="9.687415123885488"><ele>473.99999999999994</ele><time>2026-04-12T11:33:30Z</time></trkpt><trkpt lat="44.149609779789884" lon="9.68740644321674"><ele>474.0</ele><time>2026-04-12T11:33:31Z</time></trkpt><trkpt lat="44.14952510031691" lon="9.687406164530037"><ele>474.0</ele><time>2026-04-12T11:33:32Z</time></trkpt><trkpt lat="44.14944280409092" lon="9.687399905242916"><ele>474.0</ele><time>2026-04-12T11:33:33Z</time></trkpt><trkpt lat="44.14935687211683" lon="9.687385908210429"><ele>474.0</ele><time>2026-04-12T11:33:34Z</time></trkpt><trkpt lat="44.14927258713248" lon="9.68736209830642"><ele>474.0</ele><time>2026-04-12T11:33:35Z</time></trkpt><trkpt lat="44.149192994176154" lon="9.687328562480532"><ele>474.0</ele><time>2026-04-12T11:33:36Z</time></trkpt><trkpt lat="44.14912966371731" lon="9.687279062590106"><ele>474.0</ele><time>2026-04-12T11:33:37Z</time></trkpt><trkpt lat="44.1490762533173" lon="9.687195931850521"><ele>474.0</ele><time>2026-04-12T11:33:38Z</time></trkpt><trkpt lat="44.14903030612034" lon="9.687095263680924"><ele>474.0</ele><time>2026-04-12T11:33:39Z</time></trkpt><trkpt lat="44.148989892418356" lon="9.686996565405023"><ele>474.0</ele><time>2026-04-12T11:33:40Z</time></trkpt><trkpt lat="44.14895470071812" lon="9.686913381154554"><ele>474.0</ele><time>2026-04-12T11:33:41Z</time></trkpt><trkpt lat="44.14893567089198" lon="9.686777251045106"><ele>474.0</ele><time>2026-04-12T11:33:43Z</time></trkpt><trkpt lat="44.1489805649965" lon="9.686673313493138"><ele>475.0</ele><time>2026-04-12T11:33:45Z</time></trkpt><trkpt lat="44.149029855645054" lon="9.686605484331102"><ele>476.0</ele><time>2026-04-12T11:33:46Z</time></trkpt><trkpt lat="44.1490948466757" lon="9.686524951500697"><ele>477.0</ele><time>2026-04-12T11:33:47Z</time></trkpt><trkpt lat="44.149144067357405" lon="9.686421945114542"><ele>478.0</ele><time>2026-04-12T11:33:48Z</time></trkpt><trkpt lat="44.149159412499024" lon="9.686296670510242"><ele>479.0</ele><time>2026-04-12T11:33:49Z</time></trkpt><trkpt lat="44.149137295063355" lon="9.686155085804572"><ele>480.0</ele><time>2026-04-12T11:33:50Z</time></trkpt><trkpt lat="44.14911753655252" lon="9.685996399262377"><ele>480.0</ele><time>2026-04-12T11:33:51Z</time></trkpt><trkpt lat="44.14910011154726" lon="9.685830016912915"><ele>480.0</ele><time>2026-04-12T11:33:52Z</time></trkpt><trkpt lat="44.14906753440612" lon="9.68567721491841"><ele>480.0</ele><time>2026-04-12T11:33:53Z</time></trkpt><trkpt lat="44.14900579768412" lon="9.685539075495798"><ele>480.0</ele><time>2026-04-12T11:33:54Z</time></trkpt><trkpt lat="44.148909210590006" lon="9.685413634376053"><ele>481.75</ele><time>2026-04-12T11:33:55Z</time></trkpt><trkpt lat="44.148783986113415" lon="9.685303741688895"><ele>483.5</ele><time>2026-04-12T11:33:56Z</time></trkpt><trkpt lat="44.1486543710797" lon="9.685194251092893"><ele>485.25</ele><time>2026-04-12T11:33:57Z</time></trkpt><trkpt lat="44.14853818945122" lon="9.685095091329082"><ele>487.0</ele><time>2026-04-12T11:33:58Z</time></trkpt><trkpt lat="44.14844738558991" lon="9.684985211057764"><ele>487.0</ele><time>2026-04-12T11:33:59Z</time></trkpt><trkpt lat="44.148369814599235" lon="9.684906578208997"><ele>487.00000000000006</ele><time>2026-04-12T11:34:00Z</time></trkpt><trkpt lat="44.148280266177956" lon="9.68488915355788"><ele>487.00000000000006</ele><time>2026-04-12T11:34:01Z</time></trkpt><trkpt lat="44.14819102112651" lon="9.684950279021574"><ele>487.0</ele><time>2026-04-12T11:34:02.001Z</time></trkpt><trkpt lat="44.14811657428747" lon="9.685051213530267"><ele>487.0</ele><time>2026-04-12T11:34:03.001Z</time></trkpt><trkpt lat="44.148045769640106" lon="9.685160890755844"><ele>487.20000000000005</ele><time>2026-04-12T11:34:04.001Z</time></trkpt><trkpt lat="44.147973468100226" lon="9.685233556880972"><ele>487.40000000000003</ele><time>2026-04-12T11:34:05.001Z</time></trkpt><trkpt lat="44.147886315219395" lon="9.685252036310661"><ele>487.59999999999997</ele><time>2026-04-12T11:34:06.001Z</time></trkpt><trkpt lat="44.14778769129715" lon="9.685235918404064"><ele>487.79999999999995</ele><time>2026-04-12T11:34:07.001Z</time></trkpt><trkpt lat="44.1476856850718" lon="9.68520367976632"><ele>488.0</ele><time>2026-04-12T11:34:08.001Z</time></trkpt><trkpt lat="44.14758972027495" lon="9.685157538981985"><ele>488.0</ele><time>2026-04-12T11:34:09.001Z</time></trkpt><trkpt lat="44.1475085315683" lon="9.685075950439908"><ele>487.99999999999994</ele><time>2026-04-12T11:34:10.001Z</time></trkpt><trkpt lat="44.147427111564" lon="9.685001231406773"><ele>487.99999999999994</ele><time>2026-04-12T11:34:11.001Z</time></trkpt><trkpt lat="44.14734014671838" lon="9.684973211233032"><ele>488.0</ele><time>2026-04-12T11:34:12.001Z</time></trkpt><trkpt lat="44.14724390547199" lon="9.685004247886171"><ele>488.0</ele><time>2026-04-12T11:34:13.001Z</time></trkpt><trkpt lat="44.1471375421804" lon="9.685039376173497"><ele>484.2</ele><time>2026-04-12T11:34:14.001Z</time></trkpt><trkpt lat="44.14703251839794" lon="9.685042632463796"><ele>480.4</ele><time>2026-04-12T11:34:15.001Z</time></trkpt><trkpt lat="44.14693439393779" lon="9.685005834109488"><ele>476.59999999999997</ele><time>2026-04-12T11:34:16.001Z</time></trkpt><trkpt lat="44.146843476088286" lon="9.684936433443273"><ele>472.79999999999995</ele><time>2026-04-12T11:34:17.001Z</time></trkpt><trkpt lat="44.14677574277898" lon="9.684824975782119"><ele>469.0</ele><time>2026-04-12T11:34:18.001Z</time></trkpt><trkpt lat="44.14672141254424" lon="9.684686648241039"><ele>469.0</ele><time>2026-04-12T11:34:19.001Z</time></trkpt><trkpt lat="44.14666589918237" lon="9.684544136406418"><ele>469.0</ele><time>2026-04-12T11:34:20.001Z</time></trkpt><trkpt lat="44.14656868190032" lon="9.684434421197432"><ele>469.0</ele><time>2026-04-12T11:34:21.001Z</time></trkpt><trkpt lat="44.14644343424516" lon="9.684372757717812"><ele>469.0</ele><time>2026-04-12T11:34:22Z</time></trkpt><trkpt lat="44.14629597196765" lon="9.684338275877447"><ele>473.6666666666667</ele><time>2026-04-12T11:34:23Z</time></trkpt><trkpt lat="44.146143133825696" lon="9.684287462239254"><ele>478.33333333333337</ele><time>2026-04-12T11:34:24Z</time></trkpt><trkpt lat="44.14598837837046" lon="9.684217304559308"><ele>483.0</ele><time>2026-04-12T11:34:25Z</time></trkpt><trkpt lat="44.145830028879324" lon="9.684163656891737"><ele>478.25</ele><time>2026-04-12T11:34:26Z</time></trkpt><trkpt lat="44.14569713630914" lon="9.68412176205125"><ele>473.5</ele><time>2026-04-12T11:34:27Z</time></trkpt><trkpt lat="44.14557579381294" lon="9.684082366297392"><ele>468.75</ele><time>2026-04-12T11:34:28Z</time></trkpt><trkpt lat="44.14546943551479" lon="9.684031109126412"><ele>464.0</ele><time>2026-04-12T11:34:29Z</time></trkpt><trkpt lat="44.14536734772598" lon="9.683955543101625"><ele>464.0</ele><time>2026-04-12T11:34:30Z</time></trkpt><trkpt lat="44.14526824839385" lon="9.683845505013835"><ele>464.0</ele><time>2026-04-12T11:34:31Z</time></trkpt><trkpt lat="44.1451558020199" lon="9.683727024908372"><ele>464.0</ele><time>2026-04-12T11:34:32Z</time></trkpt><trkpt lat="44.14503233993643" lon="9.683600356354297"><ele>464.0</ele><time>2026-04-12T11:34:33Z</time></trkpt><trkpt lat="44.14490274391395" lon="9.683496393094345"><ele>465.0</ele><time>2026-04-12T11:34:34Z</time></trkpt><trkpt lat="44.14477352877733" lon="9.683451062912223"><ele>466.0</ele><time>2026-04-12T11:34:35Z</time></trkpt><trkpt lat="44.144664837696844" lon="9.683409957001702"><ele>467.0</ele><time>2026-04-12T11:34:35.999Z</time></trkpt><trkpt lat="44.14458547880133" lon="9.683329143597962"><ele>468.0</ele><time>2026-04-12T11:34:36.999Z</time></trkpt><trkpt lat="44.14451898842429" lon="9.683249569591501"><ele>469.0</ele><time>2026-04-12T11:34:37.999Z</time></trkpt><trkpt lat="44.14448657361243" lon="9.683129693310066"><ele>469.0</ele><time>2026-04-12T11:34:38.999Z</time></trkpt><trkpt lat="44.14444378287728" lon="9.682974207903632"><ele>469.0</ele><time>2026-04-12T11:34:39.999Z</time></trkpt><trkpt lat="44.14438909169087" lon="9.68279974291301"><ele>469.0</ele><time>2026-04-12T11:34:40.999Z</time></trkpt><trkpt lat="44.14434362982361" lon="9.682624079697757"><ele>469.0</ele><time>2026-04-12T11:34:41.999Z</time></trkpt><trkpt lat="44.14430943269954" lon="9.682466427328075"><ele>470.83333333333337</ele><time>2026-04-12T11:34:42.999Z</time></trkpt><trkpt lat="44.14427012347822" lon="9.682340832365396"><ele>472.6666666666667</ele><time>2026-04-12T11:34:43.999Z</time></trkpt><trkpt lat="44.14425629595413" lon="9.682219428298124"><ele>474.5</ele><time>2026-04-12T11:34:44.999Z</time></trkpt><trkpt lat="44.14427981771826" lon="9.682123005128068"><ele>476.33333333333337</ele><time>2026-04-12T11:34:45.999Z</time></trkpt><trkpt lat="44.144337495545294" lon="9.682044605124021"><ele>478.1666666666667</ele><time>2026-04-12T11:34:46.999Z</time></trkpt><trkpt lat="44.144415315164835" lon="9.681994363881135"><ele>480.0</ele><time>2026-04-12T11:34:47.999Z</time></trkpt><trkpt lat="44.14452403394706" lon="9.682000301120867"><ele>480.0</ele><time>2026-04-12T11:34:48.999Z</time></trkpt><trkpt lat="44.14464606291294" lon="9.681956438515142"><ele>480.0</ele><time>2026-04-12T11:34:49.999Z</time></trkpt><trkpt lat="44.14477759459727" lon="9.681889267403388"><ele>480.0</ele><time>2026-04-12T11:34:50.999Z</time></trkpt><trkpt lat="44.144924860043304" lon="9.68189089676004"><ele>480.0</ele><time>2026-04-12T11:34:51.999Z</time></trkpt><trkpt lat="44.1450734283652" lon="9.681895206217826"><ele>480.75</ele><time>2026-04-12T11:34:52.999Z</time></trkpt><trkpt lat="44.14521455741383" lon="9.681871854168351"><ele>481.5</ele><time>2026-04-12T11:34:53.999Z</time></trkpt><trkpt lat="44.14533425461227" lon="9.681879574119145"><ele>482.25</ele><time>2026-04-12T11:34:54.999Z</time></trkpt><trkpt lat="44.14544129728741" lon="9.681840921453915"><ele>483.0</ele><time>2026-04-12T11:34:55.999Z</time></trkpt><trkpt lat="44.14553310965518" lon="9.681746887079148"><ele>483.0</ele><time>2026-04-12T11:34:56.999Z</time></trkpt><trkpt lat="44.14562878854232" lon="9.681604712104178"><ele>483.0</ele><time>2026-04-12T11:34:57.999Z</time></trkpt><trkpt lat="44.14576055261375" lon="9.68152834180201"><ele>483.0</ele><time>2026-04-12T11:34:58.999Z</time></trkpt><trkpt lat="44.145894735962635" lon="9.681451135439945"><ele>483.0</ele><time>2026-04-12T11:34:59.999Z</time></trkpt><trkpt lat="44.146006019177086" lon="9.681341562516458"><ele>483.79999999999995</ele><time>2026-04-12T11:35:00.999Z</time></trkpt><trkpt lat="44.14610490272692" lon="9.681226312933937"><ele>484.59999999999997</ele><time>2026-04-12T11:35:01.999Z</time></trkpt><trkpt lat="44.14617888716695" lon="9.681105757253757"><ele>485.40000000000003</ele><time>2026-04-12T11:35:02.999Z</time></trkpt><trkpt lat="44.14622804594598" lon="9.680989220044767"><ele>486.20000000000005</ele><time>2026-04-12T11:35:03.999Z</time></trkpt><trkpt lat="44.14624327597391" lon="9.680859231469187"><ele>487.0</ele><time>2026-04-12T11:35:04.999Z</time></trkpt><trkpt lat="44.146230156905744" lon="9.680702299167608"><ele>487.0</ele><time>2026-04-12T11:35:05.999Z</time></trkpt><trkpt lat="44.1462248616468" lon="9.680544845397558"><ele>487.00000000000006</ele><time>2026-04-12T11:35:06.999Z</time></trkpt><trkpt lat="44.14625383796819" lon="9.680415808216791"><ele>487.00000000000006</ele><time>2026-04-12T11:35:07.999Z</time></trkpt><trkpt lat="44.14627679605801" lon="9.680313126531779"><ele>487.0</ele><time>2026-04-12T11:35:08.999Z</time></trkpt><trkpt lat="44.146306527860474" lon="9.680220638872866"><ele>487.0</ele><time>2026-04-12T11:35:09.999Z</time></trkpt><trkpt lat="44.14639394898874" lon="9.680165111817809"><ele>483.20000000000005</ele><time>2026-04-12T11:35:10.998Z</time></trkpt><trkpt lat="44.14644068152066" lon="9.680048188485902"><ele>479.40000000000003</ele><time>2026-04-12T11:35:11.998Z</time></trkpt><trkpt lat="44.146477839109735" lon="9.67992110813371"><ele>475.59999999999997</ele><time>2026-04-12T11:35:12.998Z</time></trkpt><trkpt lat="44.14650797228104" lon="9.679797703476689"><ele>471.79999999999995</ele><time>2026-04-12T11:35:13.998Z</time></trkpt><trkpt lat="44.14655160876181" lon="9.679698484252187"><ele>468.0</ele><time>2026-04-12T11:35:14.999Z</time></trkpt><trkpt lat="44.146637550554985" lon="9.6796418450725"><ele>476.79999999999995</ele><time>2026-04-12T11:35:15.999Z</time></trkpt><trkpt lat="44.14668997182586" lon="9.67954808782837"><ele>485.59999999999997</ele><time>2026-04-12T11:35:16.999Z</time></trkpt><trkpt lat="44.14673133299005" lon="9.679440448140245"><ele>494.40000000000003</ele><time>2026-04-12T11:35:17.999Z</time></trkpt><trkpt lat="44.146733330573134" lon="9.679308690963316"><ele>503.20000000000005</ele><time>2026-04-12T11:35:18.999Z</time></trkpt><trkpt lat="44.146714782290026" lon="9.679154695494814"><ele>512.0</ele><time>2026-04-12T11:35:19.999Z</time></trkpt><trkpt lat="44.14669788948173" lon="9.678994106779834"><ele>512.0</ele><time>2026-04-12T11:35:20.999Z</time></trkpt><trkpt lat="44.146714631072896" lon="9.67883975903482"><ele>512.0</ele><time>2026-04-12T11:35:21.999Z</time></trkpt><trkpt lat="44.14671892633043" lon="9.678712631936914"><ele>512.0</ele><time>2026-04-12T11:35:22.999Z</time></trkpt><trkpt lat="44.1467405648065" lon="9.6785925494542"><ele>512.0</ele><time>2026-04-12T11:35:23.999Z</time></trkpt><trkpt lat="44.14678234502475" lon="9.678447812772905"><ele>512.0</ele><time>2026-04-12T11:35:24.999Z</time></trkpt><trkpt lat="44.14678531893545" lon="9.678277759750447"><ele>511.8</ele><time>2026-04-12T11:35:25.999Z</time></trkpt><trkpt lat="44.14682451819348" lon="9.678134947396437"><ele>511.6</ele><time>2026-04-12T11:35:26.999Z</time></trkpt><trkpt lat="44.146867976440554" lon="9.677988584113724"><ele>511.40000000000003</ele><time>2026-04-12T11:35:28Z</time></trkpt><trkpt lat="44.14690341142005" lon="9.677847082848068"><ele>511.20000000000005</ele><time>2026-04-12T11:35:29Z</time></trkpt><trkpt lat="44.14689866496027" lon="9.677711075069293"><ele>511.0</ele><time>2026-04-12T11:35:30Z</time></trkpt><trkpt lat="44.14689813536252" lon="9.677556878851465"><ele>511.0</ele><time>2026-04-12T11:35:31Z</time></trkpt><trkpt lat="44.14685088521087" lon="9.677401292481518"><ele>511.0</ele><time>2026-04-12T11:35:32Z</time></trkpt><trkpt lat="44.146788119336136" lon="9.677252034132671"><ele>511.0</ele><time>2026-04-12T11:35:33Z</time></trkpt><trkpt lat="44.14672595746525" lon="9.677106812989669"><ele>511.0</ele><time>2026-04-12T11:35:34Z</time></trkpt><trkpt lat="44.146671369156714" lon="9.67697401250505"><ele>513.3333333333334</ele><time>2026-04-12T11:35:35Z</time></trkpt><trkpt lat="44.146617790470906" lon="9.676859712631973"><ele>515.6666666666667</ele><time>2026-04-12T11:35:36Z</time></trkpt><trkpt lat="44.14658694967837" lon="9.676770156716143"><ele>518.0</ele><time>2026-04-12T11:35:37Z</time></trkpt><trkpt lat="44.146573713874936" lon="9.676684036059712"><ele>520.3333333333334</ele><time>2026-04-12T11:35:38Z</time></trkpt><trkpt lat="44.146560130696656" lon="9.676572763982769"><ele>522.6666666666666</ele><time>2026-04-12T11:35:39Z</time></trkpt><trkpt lat="44.14657659735479" lon="9.676471867731962"><ele>525.0</ele><time>2026-04-12T11:35:40Z</time></trkpt><trkpt lat="44.14660983342651" lon="9.67638029660055"><ele>525.0</ele><time>2026-04-12T11:35:41Z</time></trkpt><trkpt lat="44.14665706440249" lon="9.676294845694718"><ele>525.0</ele><time>2026-04-12T11:35:42Z</time></trkpt><trkpt lat="44.146712227945976" lon="9.676221575578118"><ele>525.0</ele><time>2026-04-12T11:35:43Z</time></trkpt><trkpt lat="44.14677713044818" lon="9.676159392111776"><ele>525.0</ele><time>2026-04-12T11:35:44Z</time></trkpt><trkpt lat="44.14684753553723" lon="9.676103579269999"><ele>525.0</ele><time>2026-04-12T11:35:45Z</time></trkpt><trkpt lat="44.14692185087701" lon="9.676074270781749"><ele>525.0</ele><time>2026-04-12T11:35:46Z</time></trkpt><trkpt lat="44.147010049852234" lon="9.676069221618661"><ele>525.0</ele><time>2026-04-12T11:35:47Z</time></trkpt><trkpt lat="44.14710728320345" lon="9.67607745033568"><ele>525.0</ele><time>2026-04-12T11:35:48Z</time></trkpt><trkpt lat="44.14720616286413" lon="9.676099954158417"><ele>525.0</ele><time>2026-04-12T11:35:49Z</time></trkpt><trkpt lat="44.147307659153604" lon="9.676129703183543"><ele>525.0</ele><time>2026-04-12T11:35:50Z</time></trkpt><trkpt lat="44.14741596023206" lon="9.676175365050756"><ele>525.0</ele><time>2026-04-12T11:35:51Z</time></trkpt><trkpt lat="44.147531852858485" lon="9.676237102648736"><ele>531.5</ele><time>2026-04-12T11:35:52Z</time></trkpt><trkpt lat="44.14764751029039" lon="9.676309016519664"><ele>538.0</ele><time>2026-04-12T11:35:53Z</time></trkpt><trkpt lat="44.14775863754804" lon="9.676382494976187"><ele>544.5</ele><time>2026-04-12T11:35:54Z</time></trkpt><trkpt lat="44.147864578486235" lon="9.676459932912044"><ele>551.0</ele><time>2026-04-12T11:35:55Z</time></trkpt><trkpt lat="44.14797193872793" lon="9.676518913566296"><ele>551.0</ele><time>2026-04-12T11:35:56Z</time></trkpt><trkpt lat="44.148075483640554" lon="9.676591706994165"><ele>551.0</ele><time>2026-04-12T11:35:57Z</time></trkpt><trkpt lat="44.14817231996718" lon="9.67667247319207"><ele>551.0</ele><time>2026-04-12T11:35:58Z</time></trkpt><trkpt lat="44.14827254710469" lon="9.676753584297995"><ele>551.0</ele><time>2026-04-12T11:35:59Z</time></trkpt><trkpt lat="44.14837583039813" lon="9.676831379591686"><ele>547.75</ele><time>2026-04-12T11:36:00Z</time></trkpt><trkpt lat="44.14848246747952" lon="9.67692249312389"><ele>544.5</ele><time>2026-04-12T11:36:01.001Z</time></trkpt><trkpt lat="44.14859891764459" lon="9.67704629264601"><ele>541.25</ele><time>2026-04-12T11:36:02.001Z</time></trkpt><trkpt lat="44.14871166117502" lon="9.677180129808283"><ele>538.0</ele><time>2026-04-12T11:36:03.001Z</time></trkpt><trkpt lat="44.14882511242529" lon="9.677324258311891"><ele>541.25</ele><time>2026-04-12T11:36:04.001Z</time></trkpt><trkpt lat="44.14894150350388" lon="9.677455664987926"><ele>544.5</ele><time>2026-04-12T11:36:05.001Z</time></trkpt><trkpt lat="44.149049700291734" lon="9.677583817112016"><ele>547.75</ele><time>2026-04-12T11:36:06.001Z</time></trkpt><trkpt lat="44.14914808568717" lon="9.67770250965143"><ele>551.0</ele><time>2026-04-12T11:36:07.001Z</time></trkpt><trkpt lat="44.14923699017304" lon="9.677786339712425"><ele>551.0</ele><time>2026-04-12T11:36:08.001Z</time></trkpt><trkpt lat="44.149322509336294" lon="9.677845377325472"><ele>551.0</ele><time>2026-04-12T11:36:09.001Z</time></trkpt><trkpt lat="44.14939667134282" lon="9.677885811926561"><ele>551.0</ele><time>2026-04-12T11:36:10.001Z</time></trkpt><trkpt lat="44.149470037346994" lon="9.677884876110255"><ele>551.0</ele><time>2026-04-12T11:36:11.001Z</time></trkpt><trkpt lat="44.149534294941056" lon="9.677835254715975"><ele>551.0</ele><time>2026-04-12T11:36:12.001Z</time></trkpt><trkpt lat="44.14959523147647" lon="9.67774018526083"><ele>551.0</ele><time>2026-04-12T11:36:13.001Z</time></trkpt><trkpt lat="44.14964287614661" lon="9.677606879464038"><ele>551.0</ele><time>2026-04-12T11:36:14.001Z</time></trkpt><trkpt lat="44.149688966131016" lon="9.677452960533332"><ele>551.0</ele><time>2026-04-12T11:36:15.001Z</time></trkpt><trkpt lat="44.149751031570695" lon="9.677314074606949"><ele>551.0</ele><time>2026-04-12T11:36:16.001Z</time></trkpt><trkpt lat="44.149780766677075" lon="9.677169767550946"><ele>551.0</ele><time>2026-04-12T11:36:17.001Z</time></trkpt><trkpt lat="44.14977627824588" lon="9.677017290407829"><ele>545.0</ele><time>2026-04-12T11:36:18.001Z</time></trkpt><trkpt lat="44.149711575630576" lon="9.676865075275263"><ele>539.0</ele><time>2026-04-12T11:36:19.001Z</time></trkpt><trkpt lat="44.14972418430807" lon="9.676699440469331"><ele>533.0</ele><time>2026-04-12T11:36:20.001Z</time></trkpt><trkpt lat="44.14974472538306" lon="9.676524181408684"><ele>527.0</ele><time>2026-04-12T11:36:21.001Z</time></trkpt><trkpt lat="44.14976829660331" lon="9.676346707857524"><ele>527.0</ele><time>2026-04-12T11:36:22.001Z</time></trkpt><trkpt lat="44.14979065552953" lon="9.676178259129149"><ele>527.0</ele><time>2026-04-12T11:36:23.001Z</time></trkpt><trkpt lat="44.14981117061576" lon="9.676023163888305"><ele>527.0</ele><time>2026-04-12T11:36:24.001Z</time></trkpt><trkpt lat="44.14985069449882" lon="9.675872464443424"><ele>527.0</ele><time>2026-04-12T11:36:25.001Z</time></trkpt><trkpt lat="44.14990190385165" lon="9.67571691881593"><ele>528.75</ele><time>2026-04-12T11:36:26.001Z</time></trkpt><trkpt lat="44.14997318145155" lon="9.675557669208272"><ele>530.5</ele><time>2026-04-12T11:36:27.001Z</time></trkpt><trkpt lat="44.15005371719672" lon="9.675396957360222"><ele>532.25</ele><time>2026-04-12T11:36:28.001Z</time></trkpt><trkpt lat="44.150108155359746" lon="9.675207449263661"><ele>534.0</ele><time>2026-04-12T11:36:29.001Z</time></trkpt><trkpt lat="44.15013827514204" lon="9.675005179400719"><ele>534.0</ele><time>2026-04-12T11:36:30.001Z</time></trkpt><trkpt lat="44.150136335683726" lon="9.67479853600783"><ele>534.0</ele><time>2026-04-12T11:36:31.001Z</time></trkpt><trkpt lat="44.15016275173008" lon="9.674615717584851"><ele>534.0</ele><time>2026-04-12T11:36:32.001Z</time></trkpt><trkpt lat="44.15020255867134" lon="9.67444141426636"><ele>534.0</ele><time>2026-04-12T11:36:33.001Z</time></trkpt><trkpt lat="44.150254651968766" lon="9.674285646573383"><ele>530.5</ele><time>2026-04-12T11:36:34.001Z</time></trkpt><trkpt lat="44.15031945305877" lon="9.674143857056269"><ele>527.0</ele><time>2026-04-12T11:36:35.001Z</time></trkpt><trkpt lat="44.150404853102714" lon="9.674014759071772"><ele>523.5</ele><time>2026-04-12T11:36:36.001Z</time></trkpt><trkpt lat="44.15050918101927" lon="9.673913603937699"><ele>520.0</ele><time>2026-04-12T11:36:37.001Z</time></trkpt><trkpt lat="44.1506290761681" lon="9.673825296516682"><ele>523.0</ele><time>2026-04-12T11:36:38.001Z</time></trkpt><trkpt lat="44.15075954401186" lon="9.673728538807762"><ele>526.0</ele><time>2026-04-12T11:36:39.001Z</time></trkpt><trkpt lat="44.15088574746966" lon="9.673610181373265"><ele>529.0</ele><time>2026-04-12T11:36:40.001Z</time></trkpt><trkpt lat="44.15101510946831" lon="9.673530303107842"><ele>532.0</ele><time>2026-04-12T11:36:41.001Z</time></trkpt><trkpt lat="44.15113421295204" lon="9.673455200668792"><ele>532.0</ele><time>2026-04-12T11:36:42.001Z</time></trkpt><trkpt lat="44.15124175731386" lon="9.673391518492314"><ele>532.0</ele><time>2026-04-12T11:36:43.001Z</time></trkpt><trkpt lat="44.15132809487825" lon="9.67329857667013"><ele>532.0</ele><time>2026-04-12T11:36:44.001Z</time></trkpt><trkpt lat="44.15138714012805" lon="9.673144148653053"><ele>532.0</ele><time>2026-04-12T11:36:45.001Z</time></trkpt><trkpt lat="44.15141318358811" lon="9.672963107608552"><ele>532.0</ele><time>2026-04-12T11:36:46.001Z</time></trkpt><trkpt lat="44.151447688974514" lon="9.672804013615181"><ele>532.0</ele><time>2026-04-12T11:36:47.001Z</time></trkpt><trkpt lat="44.15149637815204" lon="9.672666996826687"><ele>532.0</ele><time>2026-04-12T11:36:48.001Z</time></trkpt><trkpt lat="44.15157209741825" lon="9.672567404342931"><ele>532.0</ele><time>2026-04-12T11:36:49.001Z</time></trkpt><trkpt lat="44.151667654340095" lon="9.67253096172154"><ele>532.0</ele><time>2026-04-12T11:36:50.001Z</time></trkpt><trkpt lat="44.151788130614584" lon="9.672497867622555"><ele>534.6666666666667</ele><time>2026-04-12T11:36:51.001Z</time></trkpt><trkpt lat="44.15192521166684" lon="9.672440073456182"><ele>537.3333333333334</ele><time>2026-04-12T11:36:52.001Z</time></trkpt><trkpt lat="44.152083549495096" lon="9.672437250453497"><ele>540.0</ele><time>2026-04-12T11:36:53.001Z</time></trkpt><trkpt lat="44.152239133215225" lon="9.672376770975866"><ele>544.25</ele><time>2026-04-12T11:36:54.001Z</time></trkpt><trkpt lat="44.15238105496792" lon="9.672305062737712"><ele>548.5</ele><time>2026-04-12T11:36:55.001Z</time></trkpt><trkpt lat="44.15251879660384" lon="9.67226349372054"><ele>552.75</ele><time>2026-04-12T11:36:56.001Z</time></trkpt><trkpt lat="44.1526525101238" lon="9.6722171478864"><ele>557.0</ele><time>2026-04-12T11:36:57.001Z</time></trkpt><trkpt lat="44.15277010741321" lon="9.672204258293942"><ele>557.0</ele><time>2026-04-12T11:36:58.001Z</time></trkpt><trkpt lat="44.15287746777828" lon="9.672217015925613"><ele>557.0</ele><time>2026-04-12T11:36:59.001Z</time></trkpt><trkpt lat="44.15298054941933" lon="9.672274966515898"><ele>557.0</ele><time>2026-04-12T11:37:00.001Z</time></trkpt><trkpt lat="44.15309147706237" lon="9.672361773493632"><ele>557.0</ele><time>2026-04-12T11:37:01.001Z</time></trkpt><trkpt lat="44.15321139074496" lon="9.672426772603895"><ele>556.4</ele><time>2026-04-12T11:37:02.001Z</time></trkpt><trkpt lat="44.1533116476005" lon="9.67248903886313"><ele>555.8000000000001</ele><time>2026-04-12T11:37:03.001Z</time></trkpt><trkpt lat="44.15340097404189" lon="9.672560073714392"><ele>555.2</ele><time>2026-04-12T11:37:04.001Z</time></trkpt><trkpt lat="44.153482322403676" lon="9.672635095228147"><ele>554.6</ele><time>2026-04-12T11:37:05.001Z</time></trkpt><trkpt lat="44.153560894071184" lon="9.672708127734197"><ele>554.0</ele><time>2026-04-12T11:37:06.001Z</time></trkpt><trkpt lat="44.153639937219154" lon="9.672746732839254"><ele>554.0</ele><time>2026-04-12T11:37:07.001Z</time></trkpt><trkpt lat="44.15371564423735" lon="9.672744055362418"><ele>554.0</ele><time>2026-04-12T11:37:08.001Z</time></trkpt><trkpt lat="44.15380837482578" lon="9.67267106434384"><ele>554.0</ele><time>2026-04-12T11:37:10.001Z</time></trkpt><trkpt lat="44.15386828350862" lon="9.67259928218927"><ele>554.0</ele><time>2026-04-12T11:37:14.001Z</time></trkpt><trkpt lat="44.15378345774933" lon="9.672402244556812"><ele>554.0</ele><time>2026-04-12T11:37:15.001Z</time></trkpt><trkpt lat="44.15371486761764" lon="9.672288134729806"><ele>554.0</ele><time>2026-04-12T11:37:16.001Z</time></trkpt><trkpt lat="44.153648597757076" lon="9.672163405207488"><ele>554.0</ele><time>2026-04-12T11:37:17Z</time></trkpt><trkpt lat="44.153575607204324" lon="9.67202970868972"><ele>554.0</ele><time>2026-04-12T11:37:18Z</time></trkpt><trkpt lat="44.15349414874308" lon="9.671883343489194"><ele>554.0</ele><time>2026-04-12T11:37:19Z</time></trkpt><trkpt lat="44.15341426866576" lon="9.671735896435623"><ele>551.5</ele><time>2026-04-12T11:37:20Z</time></trkpt><trkpt lat="44.15336122082724" lon="9.6715719955848"><ele>549.0</ele><time>2026-04-12T11:37:21Z</time></trkpt><trkpt lat="44.153317164100095" lon="9.671410152306017"><ele>546.5</ele><time>2026-04-12T11:37:22Z</time></trkpt><trkpt lat="44.15327840670088" lon="9.671220202846849"><ele>544.0</ele><time>2026-04-12T11:37:23Z</time></trkpt><trkpt lat="44.15323194981114" lon="9.671035191051626"><ele>534.25</ele><time>2026-04-12T11:37:24Z</time></trkpt><trkpt lat="44.15320197321196" lon="9.670838178220242"><ele>524.5</ele><time>2026-04-12T11:37:25Z</time></trkpt><trkpt lat="44.15316590111892" lon="9.67064800864908"><ele>514.75</ele><time>2026-04-12T11:37:26Z</time></trkpt><trkpt lat="44.15314879112336" lon="9.670452125895228"><ele>505.0</ele><time>2026-04-12T11:37:27Z</time></trkpt><trkpt lat="44.15311473823892" lon="9.670258258356249"><ele>504.5</ele><time>2026-04-12T11:37:28Z</time></trkpt><trkpt lat="44.15307992485979" lon="9.670073372796757"><ele>504.0</ele><time>2026-04-12T11:37:29Z</time></trkpt><trkpt lat="44.1530489295832" lon="9.669899607173702"><ele>503.5</ele><time>2026-04-12T11:37:30Z</time></trkpt><trkpt lat="44.153015306291984" lon="9.669736632560287"><ele>503.0</ele><time>2026-04-12T11:37:31Z</time></trkpt><trkpt lat="44.153033811798984" lon="9.669574963689595"><ele>503.0</ele><time>2026-04-12T11:37:32Z</time></trkpt><trkpt lat="44.15309002978058" lon="9.669444191616304"><ele>503.0</ele><time>2026-04-12T11:37:33Z</time></trkpt><trkpt lat="44.15319904617861" lon="9.669362728760253"><ele>503.0</ele><time>2026-04-12T11:37:34Z</time></trkpt><trkpt lat="44.15331264377418" lon="9.669276996180466"><ele>503.0</ele><time>2026-04-12T11:37:35Z</time></trkpt><trkpt lat="44.1534419498176" lon="9.669173667851025"><ele>508.25</ele><time>2026-04-12T11:37:36Z</time></trkpt><trkpt lat="44.15356622221556" lon="9.669059922746914"><ele>513.5</ele><time>2026-04-12T11:37:37Z</time></trkpt><trkpt lat="44.15367855328744" lon="9.668978074160423"><ele>518.75</ele><time>2026-04-12T11:37:38Z</time></trkpt><trkpt lat="44.1537900272668" lon="9.66894692693548"><ele>524.0</ele><time>2026-04-12T11:37:39Z</time></trkpt><trkpt lat="44.153909612577166" lon="9.668968004614259"><ele>524.0</ele><time>2026-04-12T11:37:40Z</time></trkpt><trkpt lat="44.154034642492846" lon="9.669022070377162"><ele>524.0</ele><time>2026-04-12T11:37:41Z</time></trkpt><trkpt lat="44.154164891567675" lon="9.669113427016448"><ele>524.0</ele><time>2026-04-12T11:37:42Z</time></trkpt><trkpt lat="44.15430555391741" lon="9.669206235425715"><ele>524.0</ele><time>2026-04-12T11:37:43Z</time></trkpt><trkpt lat="44.15443837583944" lon="9.669290143850969"><ele>524.6</ele><time>2026-04-12T11:37:44Z</time></trkpt><trkpt lat="44.15455723051434" lon="9.669358843310663"><ele>525.2</ele><time>2026-04-12T11:37:45Z</time></trkpt><trkpt lat="44.15466590111462" lon="9.669401777748702"><ele>525.8000000000001</ele><time>2026-04-12T11:37:46Z</time></trkpt><trkpt lat="44.154769484094075" lon="9.66939683846356"><ele>526.4</ele><time>2026-04-12T11:37:47Z</time></trkpt><trkpt lat="44.15486193533706" lon="9.669337949642582"><ele>527.0</ele><time>2026-04-12T11:37:48Z</time></trkpt><trkpt lat="44.1549316650199" lon="9.669226153355185"><ele>527.0</ele><time>2026-04-12T11:37:49Z</time></trkpt><trkpt lat="44.15496587170183" lon="9.6690691513563"><ele>527.0</ele><time>2026-04-12T11:37:50Z</time></trkpt><trkpt lat="44.15496448335059" lon="9.66889656857045"><ele>527.0</ele><time>2026-04-12T11:37:51Z</time></trkpt><trkpt lat="44.15494086483135" lon="9.668711944021737"><ele>527.0</ele><time>2026-04-12T11:37:52Z</time></trkpt><trkpt lat="44.15493379943364" lon="9.668518542965865"><ele>524.75</ele><time>2026-04-12T11:37:53Z</time></trkpt><trkpt lat="44.15495908042464" lon="9.66832829591326"><ele>522.5</ele><time>2026-04-12T11:37:54Z</time></trkpt><trkpt lat="44.155035742883484" lon="9.668173009771113"><ele>520.25</ele><time>2026-04-12T11:37:55Z</time></trkpt><trkpt lat="44.15508138037514" lon="9.667996938181204"><ele>518.0</ele><time>2026-04-12T11:37:56Z</time></trkpt><trkpt lat="44.15512104306663" lon="9.667832270156737"><ele>516.5</ele><time>2026-04-12T11:37:57Z</time></trkpt><trkpt lat="44.15510622275747" lon="9.667663584858618"><ele>515.0</ele><time>2026-04-12T11:37:58Z</time></trkpt><trkpt lat="44.15506530693255" lon="9.667478471337486"><ele>513.5</ele><time>2026-04-12T11:37:59Z</time></trkpt><trkpt lat="44.155030824609945" lon="9.66730071456603"><ele>512.0</ele><time>2026-04-12T11:38:00Z</time></trkpt><trkpt lat="44.15501298159615" lon="9.667140156515416"><ele>512.0</ele><time>2026-04-12T11:38:01Z</time></trkpt><trkpt lat="44.1550143205092" lon="9.666980863092746"><ele>512.0</ele><time>2026-04-12T11:38:02Z</time></trkpt><trkpt lat="44.15503164015985" lon="9.66682851474543"><ele>512.0</ele><time>2026-04-12T11:38:03Z</time></trkpt><trkpt lat="44.15508629648875" lon="9.66669786604533"><ele>512.0</ele><time>2026-04-12T11:38:04Z</time></trkpt><trkpt lat="44.15516702475157" lon="9.6665979965964"><ele>512.0</ele><time>2026-04-12T11:38:05Z</time></trkpt><trkpt lat="44.15527750459765" lon="9.66652769759145"><ele>509.66666666666663</ele><time>2026-04-12T11:38:06Z</time></trkpt><trkpt lat="44.155429271657724" lon="9.666480012155176"><ele>507.33333333333337</ele><time>2026-04-12T11:38:07Z</time></trkpt><trkpt lat="44.15558718853623" lon="9.666435298961408"><ele>505.0</ele><time>2026-04-12T11:38:08Z</time></trkpt><trkpt lat="44.15575237496852" lon="9.666382361215286"><ele>510.6666666666667</ele><time>2026-04-12T11:38:09Z</time></trkpt><trkpt lat="44.15591750572203" lon="9.666336325562865"><ele>516.3333333333334</ele><time>2026-04-12T11:38:10Z</time></trkpt><trkpt lat="44.15608843022853" lon="9.666291754568324"><ele>522.0</ele><time>2026-04-12T11:38:11Z</time></trkpt><trkpt lat="44.15626480390893" lon="9.666261586189027"><ele>522.0</ele><time>2026-04-12T11:38:12Z</time></trkpt><trkpt lat="44.156437703801906" lon="9.666265369947098"><ele>522.0</ele><time>2026-04-12T11:38:13Z</time></trkpt><trkpt lat="44.15660423687516" lon="9.666276164989117"><ele>522.0</ele><time>2026-04-12T11:38:14Z</time></trkpt><trkpt lat="44.15676219265238" lon="9.66625679753153"><ele>519.0</ele><time>2026-04-12T11:38:15Z</time></trkpt><trkpt lat="44.15692888908348" lon="9.666193719271403"><ele>516.0</ele><time>2026-04-12T11:38:16Z</time></trkpt><trkpt lat="44.15709044751569" lon="9.66609340297381"><ele>513.0</ele><time>2026-04-12T11:38:17Z</time></trkpt><trkpt lat="44.15724574700496" lon="9.66599604841011"><ele>509.33333333333337</ele><time>2026-04-12T11:38:18Z</time></trkpt><trkpt lat="44.15741746274521" lon="9.665934350988358"><ele>505.6666666666667</ele><time>2026-04-12T11:38:19Z</time></trkpt><trkpt lat="44.15759726373984" lon="9.665901024555758"><ele>502.0</ele><time>2026-04-12T11:38:20Z</time></trkpt><trkpt lat="44.15778060539681" lon="9.665878859277068"><ele>502.0</ele><time>2026-04-12T11:38:21Z</time></trkpt><trkpt lat="44.15796781148174" lon="9.665852489010604"><ele>502.0</ele><time>2026-04-12T11:38:22Z</time></trkpt><trkpt lat="44.158153139108094" lon="9.665808497533384"><ele>502.0</ele><time>2026-04-12T11:38:23Z</time></trkpt><trkpt lat="44.15834052385605" lon="9.665761541686898"><ele>501.6666666666667</ele><time>2026-04-12T11:38:24Z</time></trkpt><trkpt lat="44.15852824084063" lon="9.66571609830139"><ele>501.33333333333337</ele><time>2026-04-12T11:38:25Z</time></trkpt><trkpt lat="44.15871644616657" lon="9.665661068811678"><ele>501.0</ele><time>2026-04-12T11:38:26Z</time></trkpt><trkpt lat="44.1589039553021" lon="9.665594192455263"><ele>506.66666666666663</ele><time>2026-04-12T11:38:27Z</time></trkpt><trkpt lat="44.15908401579776" lon="9.665520389727694"><ele>512.3333333333333</ele><time>2026-04-12T11:38:28Z</time></trkpt><trkpt lat="44.15925500045531" lon="9.665452039344263"><ele>518.0</ele><time>2026-04-12T11:38:29Z</time></trkpt><trkpt lat="44.1594205811814" lon="9.665388998738994"><ele>518.0</ele><time>2026-04-12T11:38:30Z</time></trkpt><trkpt lat="44.159576722256396" lon="9.665317404952736"><ele>518.0</ele><time>2026-04-12T11:38:31Z</time></trkpt><trkpt lat="44.159721963512304" lon="9.665198750791152"><ele>518.0</ele><time>2026-04-12T11:38:32Z</time></trkpt><trkpt lat="44.159858854345565" lon="9.665047367810054"><ele>511.0</ele><time>2026-04-12T11:38:33Z</time></trkpt><trkpt lat="44.15998993608806" lon="9.664871611799072"><ele>504.0</ele><time>2026-04-12T11:38:34Z</time></trkpt><trkpt lat="44.16011873949034" lon="9.66468467817566"><ele>497.0</ele><time>2026-04-12T11:38:35Z</time></trkpt><trkpt lat="44.1602493571837" lon="9.66450315567397"><ele>488.3333333333333</ele><time>2026-04-12T11:38:36.001Z</time></trkpt><trkpt lat="44.16037922901745" lon="9.664326050558966"><ele>479.66666666666663</ele><time>2026-04-12T11:38:37.001Z</time></trkpt><trkpt lat="44.16050672084674" lon="9.66415340982987"><ele>471.0</ele><time>2026-04-12T11:38:38.001Z</time></trkpt><trkpt lat="44.16062758064054" lon="9.663986487872295"><ele>472.33333333333337</ele><time>2026-04-12T11:38:39.001Z</time></trkpt><trkpt lat="44.16073516838373" lon="9.663804235378542"><ele>473.6666666666667</ele><time>2026-04-12T11:38:40.001Z</time></trkpt><trkpt lat="44.16081608742957" lon="9.663589562003532"><ele>475.0</ele><time>2026-04-12T11:38:41.001Z</time></trkpt><trkpt lat="44.160870665459804" lon="9.663342915985051"><ele>475.0</ele><time>2026-04-12T11:38:42.001Z</time></trkpt><trkpt lat="44.16092833942131" lon="9.663100551011473"><ele>475.0</ele><time>2026-04-12T11:38:43.001Z</time></trkpt><trkpt lat="44.161010004303606" lon="9.662880953111523"><ele>475.0</ele><time>2026-04-12T11:38:44.001Z</time></trkpt><trkpt lat="44.16107998603031" lon="9.662662190408268"><ele>469.6666666666667</ele><time>2026-04-12T11:38:45.001Z</time></trkpt><trkpt lat="44.16115502623392" lon="9.662452968575968"><ele>464.33333333333337</ele><time>2026-04-12T11:38:46.001Z</time></trkpt><trkpt lat="44.16122744549491" lon="9.662258500535405"><ele>459.0</ele><time>2026-04-12T11:38:47.001Z</time></trkpt><trkpt lat="44.161306797651356" lon="9.662089855666368"><ele>454.0</ele><time>2026-04-12T11:38:48.001Z</time></trkpt><trkpt lat="44.16136401442841" lon="9.661934766471711"><ele>449.0</ele><time>2026-04-12T11:38:49.001Z</time></trkpt><trkpt lat="44.16139136041735" lon="9.66177108606847"><ele>444.0</ele><time>2026-04-12T11:38:50.001Z</time></trkpt><trkpt lat="44.161367102686036" lon="9.661602788860158"><ele>439.0</ele><time>2026-04-12T11:38:51.001Z</time></trkpt><trkpt lat="44.161308241143274" lon="9.661439085919241"><ele>439.0</ele><time>2026-04-12T11:38:52.001Z</time></trkpt><trkpt lat="44.16125316379177" lon="9.661266505967447"><ele>439.0</ele><time>2026-04-12T11:38:53.001Z</time></trkpt><trkpt lat="44.161229471829714" lon="9.661087537391847"><ele>439.0</ele><time>2026-04-12T11:38:54.001Z</time></trkpt><trkpt lat="44.16126716742507" lon="9.660911371831594"><ele>439.0</ele><time>2026-04-12T11:38:55.001Z</time></trkpt><trkpt lat="44.16132128932253" lon="9.66073432061122"><ele>436.33333333333337</ele><time>2026-04-12T11:38:56.001Z</time></trkpt><trkpt lat="44.16138914310363" lon="9.660529769053877"><ele>433.66666666666663</ele><time>2026-04-12T11:38:57.001Z</time></trkpt><trkpt lat="44.16145871054126" lon="9.660319253893261"><ele>431.0</ele><time>2026-04-12T11:38:58.001Z</time></trkpt><trkpt lat="44.16150802460556" lon="9.660108144998611"><ele>436.5</ele><time>2026-04-12T11:38:59.001Z</time></trkpt><trkpt lat="44.161582627945116" lon="9.659943371579862"><ele>442.0</ele><time>2026-04-12T11:39:00.001Z</time></trkpt><trkpt lat="44.161639792819926" lon="9.659795129727444"><ele>447.5</ele><time>2026-04-12T11:39:01.001Z</time></trkpt><trkpt lat="44.16169408845181" lon="9.659679317593264"><ele>453.0</ele><time>2026-04-12T11:39:02.001Z</time></trkpt><trkpt lat="44.16178718356178" lon="9.659623463784031"><ele>453.0</ele><time>2026-04-12T11:39:03.001Z</time></trkpt><trkpt lat="44.16190373083498" lon="9.659657453465158"><ele>453.0</ele><time>2026-04-12T11:39:04.001Z</time></trkpt><trkpt lat="44.16204523419832" lon="9.659666496125295"><ele>453.0</ele><time>2026-04-12T11:39:05.001Z</time></trkpt><trkpt lat="44.16219111772842" lon="9.659697814513807"><ele>453.0</ele><time>2026-04-12T11:39:06.001Z</time></trkpt><trkpt lat="44.16233691972567" lon="9.659759819667972"><ele>456.0</ele><time>2026-04-12T11:39:07.001Z</time></trkpt><trkpt lat="44.162454512306866" lon="9.659865113924143"><ele>459.0</ele><time>2026-04-12T11:39:08.001Z</time></trkpt><trkpt lat="44.1625785666893" lon="9.659966570796016"><ele>462.0</ele><time>2026-04-12T11:39:09.001Z</time></trkpt><trkpt lat="44.16269727022374" lon="9.660046398877983"><ele>465.0</ele><time>2026-04-12T11:39:10.001Z</time></trkpt><trkpt lat="44.16282127439436" lon="9.660085307147453"><ele>465.0</ele><time>2026-04-12T11:39:11.001Z</time></trkpt><trkpt lat="44.16296985586211" lon="9.660025495496535"><ele>465.0</ele><time>2026-04-12T11:39:12.001Z</time></trkpt><trkpt lat="44.16311313113129" lon="9.659964027410409"><ele>465.0</ele><time>2026-04-12T11:39:13.001Z</time></trkpt><trkpt lat="44.163233210280076" lon="9.659890255870064"><ele>465.0</ele><time>2026-04-12T11:39:14.001Z</time></trkpt><trkpt lat="44.163328810085005" lon="9.659784238568715"><ele>463.0</ele><time>2026-04-12T11:39:15.001Z</time></trkpt><trkpt lat="44.16338113564259" lon="9.659623904289955"><ele>461.0</ele><time>2026-04-12T11:39:16.001Z</time></trkpt><trkpt lat="44.163401974926934" lon="9.659434309611514"><ele>459.0</ele><time>2026-04-12T11:39:17.001Z</time></trkpt><trkpt lat="44.163378776301705" lon="9.659227605445048"><ele>457.0</ele><time>2026-04-12T11:39:18.001Z</time></trkpt><trkpt lat="44.163338196042766" lon="9.659014012304798"><ele>452.33333333333337</ele><time>2026-04-12T11:39:19.001Z</time></trkpt><trkpt lat="44.16328437721177" lon="9.658777004372267"><ele>447.66666666666663</ele><time>2026-04-12T11:39:20.001Z</time></trkpt><trkpt lat="44.16323672227813" lon="9.658528711530918"><ele>443.0</ele><time>2026-04-12T11:39:21.001Z</time></trkpt><trkpt lat="44.163191821368365" lon="9.658299055117588"><ele>433.25</ele><time>2026-04-12T11:39:22.001Z</time></trkpt><trkpt lat="44.163146008539236" lon="9.658089670298716"><ele>423.5</ele><time>2026-04-12T11:39:23Z</time></trkpt><trkpt lat="44.16312942169654" lon="9.657886679999212"><ele>413.75</ele><time>2026-04-12T11:39:24Z</time></trkpt><trkpt lat="44.16311289881808" lon="9.65771125238108"><ele>404.0</ele><time>2026-04-12T11:39:25Z</time></trkpt><trkpt lat="44.16311455464127" lon="9.657562814684095"><ele>401.0</ele><time>2026-04-12T11:39:26Z</time></trkpt><trkpt lat="44.16311487448054" lon="9.657425439051579"><ele>398.0</ele><time>2026-04-12T11:39:27Z</time></trkpt><trkpt lat="44.163191312079185" lon="9.657338324731747"><ele>395.0</ele><time>2026-04-12T11:39:28Z</time></trkpt><trkpt lat="44.16325828942657" lon="9.657257232386936"><ele>392.0</ele><time>2026-04-12T11:39:29Z</time></trkpt><trkpt lat="44.163373738875656" lon="9.657278702629455"><ele>389.0</ele><time>2026-04-12T11:39:30Z</time></trkpt><trkpt lat="44.16350414132564" lon="9.657289486817932"><ele>397.75</ele><time>2026-04-12T11:39:31Z</time></trkpt><trkpt lat="44.163636224389386" lon="9.657296708628229"><ele>406.5</ele><time>2026-04-12T11:39:32Z</time></trkpt><trkpt lat="44.16375439490949" lon="9.657292885788374"><ele>415.25</ele><time>2026-04-12T11:39:33Z</time></trkpt><trkpt lat="44.163851635652634" lon="9.657216781642868"><ele>424.0</ele><time>2026-04-12T11:39:34Z</time></trkpt><trkpt lat="44.163922788904195" lon="9.657073717376118"><ele>422.0</ele><time>2026-04-12T11:39:35Z</time></trkpt><trkpt lat="44.163965435773136" lon="9.656889669153156"><ele>420.0</ele><time>2026-04-12T11:39:36Z</time></trkpt><trkpt lat="44.1639923602409" lon="9.656695501579662"><ele>418.0</ele><time>2026-04-12T11:39:37Z</time></trkpt><trkpt lat="44.16405331695042" lon="9.656541092958548"><ele>416.0</ele><time>2026-04-12T11:39:38Z</time></trkpt><trkpt lat="44.16412494786767" lon="9.656418575096383"><ele>416.0</ele><time>2026-04-12T11:39:39Z</time></trkpt><trkpt lat="44.16422610728977" lon="9.656336432496236"><ele>416.0</ele><time>2026-04-12T11:39:40Z</time></trkpt><trkpt lat="44.16433629171614" lon="9.65630591483687"><ele>416.0</ele><time>2026-04-12T11:39:41Z</time></trkpt><trkpt lat="44.1644632621998" lon="9.65629719412533"><ele>416.0</ele><time>2026-04-12T11:39:42Z</time></trkpt><trkpt lat="44.164605586011085" lon="9.656323716961845"><ele>416.0</ele><time>2026-04-12T11:39:43Z</time></trkpt><trkpt lat="44.16476280784567" lon="9.656349468010024"><ele>416.0</ele><time>2026-04-12T11:39:44Z</time></trkpt><trkpt lat="44.16492908403988" lon="9.656377533059898"><ele>416.0</ele><time>2026-04-12T11:39:45Z</time></trkpt><trkpt lat="44.16509238286088" lon="9.656400581749558"><ele>417.25</ele><time>2026-04-12T11:39:46Z</time></trkpt><trkpt lat="44.16522794536912" lon="9.656467487954366"><ele>418.5</ele><time>2026-04-12T11:39:47Z</time></trkpt><trkpt lat="44.16534040109334" lon="9.65653287226794"><ele>419.75</ele><time>2026-04-12T11:39:48Z</time></trkpt><trkpt lat="44.165444469167525" lon="9.656613012517973"><ele>421.0</ele><time>2026-04-12T11:39:49Z</time></trkpt><trkpt lat="44.16553891212061" lon="9.656640969001982"><ele>421.0</ele><time>2026-04-12T11:39:50Z</time></trkpt><trkpt lat="44.16562628580184" lon="9.656609219230488"><ele>421.0</ele><time>2026-04-12T11:39:51Z</time></trkpt><trkpt lat="44.16569223508406" lon="9.656514755232969"><ele>421.0</ele><time>2026-04-12T11:39:52Z</time></trkpt><trkpt lat="44.165734341264184" lon="9.656391285652273"><ele>421.0</ele><time>2026-04-12T11:39:53Z</time></trkpt><trkpt lat="44.16573489637755" lon="9.656253252404989"><ele>421.0</ele><time>2026-04-12T11:39:54Z</time></trkpt><trkpt lat="44.16570637997489" lon="9.656103101606197"><ele>413.0</ele><time>2026-04-12T11:39:55Z</time></trkpt><trkpt lat="44.16566961405375" lon="9.655932914023955"><ele>405.0</ele><time>2026-04-12T11:39:56Z</time></trkpt><trkpt lat="44.16564509676293" lon="9.655746637483476"><ele>397.0</ele><time>2026-04-12T11:39:57Z</time></trkpt><trkpt lat="44.165610892809525" lon="9.655550435229678"><ele>389.0</ele><time>2026-04-12T11:39:58Z</time></trkpt><trkpt lat="44.16557728015711" lon="9.655357266665915"><ele>386.25</ele><time>2026-04-12T11:39:59Z</time></trkpt><trkpt lat="44.16553955727346" lon="9.655184357872242"><ele>383.5</ele><time>2026-04-12T11:40:00Z</time></trkpt><trkpt lat="44.16546777661188" lon="9.655028387913095"><ele>380.75</ele><time>2026-04-12T11:40:01Z</time></trkpt><trkpt lat="44.1653615672338" lon="9.654886267175135"><ele>378.0</ele><time>2026-04-12T11:40:02Z</time></trkpt><trkpt lat="44.165225709440705" lon="9.65475974722616"><ele>378.0</ele><time>2026-04-12T11:40:03Z</time></trkpt><trkpt lat="44.16508708055839" lon="9.654619697022467"><ele>378.0</ele><time>2026-04-12T11:40:04Z</time></trkpt><trkpt lat="44.164944260720496" lon="9.654475028950563"><ele>378.0</ele><time>2026-04-12T11:40:05Z</time></trkpt><trkpt lat="44.16481623648357" lon="9.65432346506877"><ele>372.5</ele><time>2026-04-12T11:40:06Z</time></trkpt><trkpt lat="44.164706736183746" lon="9.654188230168392"><ele>367.0</ele><time>2026-04-12T11:40:07Z</time></trkpt><trkpt lat="44.164607293756575" lon="9.654083101470249"><ele>361.5</ele><time>2026-04-12T11:40:08Z</time></trkpt><trkpt lat="44.16451719425135" lon="9.653982176990752"><ele>356.0</ele><time>2026-04-12T11:40:09Z</time></trkpt><trkpt lat="44.16444207781494" lon="9.65388726927587"><ele>356.0</ele><time>2026-04-12T11:40:10.001Z</time></trkpt><trkpt lat="44.164388461798666" lon="9.65378549106467"><ele>356.0</ele><time>2026-04-12T11:40:11.001Z</time></trkpt><trkpt lat="44.16438159839043" lon="9.65366997632793"><ele>356.0</ele><time>2026-04-12T11:40:12.001Z</time></trkpt><trkpt lat="44.16441173367369" lon="9.653528692436323"><ele>356.0</ele><time>2026-04-12T11:40:13.001Z</time></trkpt><trkpt lat="44.164501527982466" lon="9.65341675195881"><ele>356.0</ele><time>2026-04-12T11:40:14.001Z</time></trkpt><trkpt lat="44.164579590745134" lon="9.653276865038416"><ele>355.75</ele><time>2026-04-12T11:40:15.001Z</time></trkpt><trkpt lat="44.16465294421495" lon="9.653125928185913"><ele>355.5</ele><time>2026-04-12T11:40:16.001Z</time></trkpt><trkpt lat="44.16473384356238" lon="9.653002827733975"><ele>355.25</ele><time>2026-04-12T11:40:17.001Z</time></trkpt><trkpt lat="44.16479771255732" lon="9.652882452686208"><ele>355.0</ele><time>2026-04-12T11:40:18.001Z</time></trkpt><trkpt lat="44.164837966555815" lon="9.652756323911117"><ele>355.0</ele><time>2026-04-12T11:40:19.001Z</time></trkpt><trkpt lat="44.16482750051607" lon="9.652622739577708"><ele>355.0</ele><time>2026-04-12T11:40:20.001Z</time></trkpt><trkpt lat="44.16477707103668" lon="9.652496524070202"><ele>355.0</ele><time>2026-04-12T11:40:21.001Z</time></trkpt><trkpt lat="44.16467374003879" lon="9.652408856569352"><ele>355.0</ele><time>2026-04-12T11:40:22.001Z</time></trkpt><trkpt lat="44.16455627095194" lon="9.65233994739635"><ele>355.0</ele><time>2026-04-12T11:40:23.001Z</time></trkpt><trkpt lat="44.16442180059195" lon="9.652279219006251"><ele>355.0</ele><time>2026-04-12T11:40:24.001Z</time></trkpt><trkpt lat="44.16427888313283" lon="9.652213049538766"><ele>355.0</ele><time>2026-04-12T11:40:25.001Z</time></trkpt><trkpt lat="44.16413769166905" lon="9.652132110482329"><ele>355.0</ele><time>2026-04-12T11:40:26.001Z</time></trkpt><trkpt lat="44.164002967339606" lon="9.65205672114974"><ele>355.0</ele><time>2026-04-12T11:40:27.001Z</time></trkpt><trkpt lat="44.16389150971818" lon="9.651947891674764"><ele>353.2</ele><time>2026-04-12T11:40:28.001Z</time></trkpt><trkpt lat="44.16379002116205" lon="9.65184848612945"><ele>351.4</ele><time>2026-04-12T11:40:29.001Z</time></trkpt><trkpt lat="44.163687960273855" lon="9.651769190960787"><ele>349.6</ele><time>2026-04-12T11:40:30.001Z</time></trkpt><trkpt lat="44.163634907468555" lon="9.651647166740625"><ele>347.8</ele><time>2026-04-12T11:40:31.001Z</time></trkpt><trkpt lat="44.163598305924964" lon="9.651541173085878"><ele>346.0</ele><time>2026-04-12T11:40:32.001Z</time></trkpt><trkpt lat="44.16360103805607" lon="9.651427031890432"><ele>346.0</ele><time>2026-04-12T11:40:33.001Z</time></trkpt><trkpt lat="44.16363533181372" lon="9.65130353223732"><ele>346.0</ele><time>2026-04-12T11:40:34.001Z</time></trkpt><trkpt lat="44.16368372899986" lon="9.651166571392414"><ele>346.0</ele><time>2026-04-12T11:40:35.001Z</time></trkpt><trkpt lat="44.163741711879254" lon="9.651022150121694"><ele>346.0</ele><time>2026-04-12T11:40:36.001Z</time></trkpt><trkpt lat="44.16378552149251" lon="9.650864968883758"><ele>346.0</ele><time>2026-04-12T11:40:37.001Z</time></trkpt><trkpt lat="44.16382868849042" lon="9.650728171864856"><ele>343.8</ele><time>2026-04-12T11:40:38.001Z</time></trkpt><trkpt lat="44.163855235475715" lon="9.650591168182181"><ele>341.6</ele><time>2026-04-12T11:40:39.001Z</time></trkpt><trkpt lat="44.16382890284209" lon="9.65044944180441"><ele>339.4</ele><time>2026-04-12T11:40:40.001Z</time></trkpt><trkpt lat="44.163770543144054" lon="9.650333431949434"><ele>337.2</ele><time>2026-04-12T11:40:41.001Z</time></trkpt><trkpt lat="44.16367972613873" lon="9.650235991458308"><ele>335.0</ele><time>2026-04-12T11:40:42.001Z</time></trkpt><trkpt lat="44.16356649779336" lon="9.650176600948695"><ele>335.0</ele><time>2026-04-12T11:40:43.001Z</time></trkpt><trkpt lat="44.16343852183871" lon="9.650130186025692"><ele>335.0</ele><time>2026-04-12T11:40:44.001Z</time></trkpt><trkpt lat="44.1633252076075" lon="9.650084395556007"><ele>335.0</ele><time>2026-04-12T11:40:45.001Z</time></trkpt><trkpt lat="44.16324258534231" lon="9.649986230901884"><ele>335.0</ele><time>2026-04-12T11:40:46.001Z</time></trkpt><trkpt lat="44.163172554802" lon="9.649903551054548"><ele>335.0</ele><time>2026-04-12T11:40:47.001Z</time></trkpt><trkpt lat="44.1631516739354" lon="9.649787284193163"><ele>335.0</ele><time>2026-04-12T11:40:48.001Z</time></trkpt><trkpt lat="44.1631679329177" lon="9.649664530694228"><ele>335.0</ele><time>2026-04-12T11:40:49.001Z</time></trkpt><trkpt lat="44.16322006634036" lon="9.649571337089643"><ele>335.0</ele><time>2026-04-12T11:40:50.001Z</time></trkpt><trkpt lat="44.16329732291682" lon="9.649522503416202"><ele>335.0</ele><time>2026-04-12T11:40:51.001Z</time></trkpt><trkpt lat="44.16338790173316" lon="9.649513755753453"><ele>335.0</ele><time>2026-04-12T11:40:52.001Z</time></trkpt><trkpt lat="44.163479116789546" lon="9.649536034238954"><ele>335.0</ele><time>2026-04-12T11:40:53.001Z</time></trkpt><trkpt lat="44.16356450301014" lon="9.64958664531688"><ele>335.0</ele><time>2026-04-12T11:40:54.001Z</time></trkpt><trkpt lat="44.16363849283435" lon="9.649651777042118"><ele>335.0</ele><time>2026-04-12T11:40:55.001Z</time></trkpt><trkpt lat="44.16370752369633" lon="9.649725370223933"><ele>335.0</ele><time>2026-04-12T11:40:56.001Z</time></trkpt><trkpt lat="44.16377322947936" lon="9.649788375076557"><ele>335.0</ele><time>2026-04-12T11:40:57.001Z</time></trkpt><trkpt lat="44.16383425555971" lon="9.649822284706545"><ele>335.0</ele><time>2026-04-12T11:40:58.001Z</time></trkpt><trkpt lat="44.163914891217416" lon="9.649843740915506"><ele>335.0</ele><time>2026-04-12T11:41:00.001Z</time></trkpt><trkpt lat="44.163944732595965" lon="9.649708042068738"><ele>335.0</ele><time>2026-04-12T11:41:02.001Z</time></trkpt><trkpt lat="44.16392217351259" lon="9.649558743919625"><ele>335.0</ele><time>2026-04-12T11:41:06.001Z</time></trkpt><trkpt lat="44.16384545632832" lon="9.649500173140005"><ele>335.0</ele><time>2026-04-12T11:41:07.001Z</time></trkpt><trkpt lat="44.16377546998603" lon="9.649426773819124"><ele>335.0</ele><time>2026-04-12T11:41:08.001Z</time></trkpt><trkpt lat="44.163707840459814" lon="9.649346687600485"><ele>334.4</ele><time>2026-04-12T11:41:09.001Z</time></trkpt><trkpt lat="44.16363269420096" lon="9.64927262321688"><ele>333.8</ele><time>2026-04-12T11:41:10.001Z</time></trkpt><trkpt lat="44.1635461469694" lon="9.64922012539439"><ele>333.20000000000005</ele><time>2026-04-12T11:41:11.001Z</time></trkpt><trkpt lat="44.16344157469091" lon="9.649206448159692"><ele>332.6</ele><time>2026-04-12T11:41:12.001Z</time></trkpt><trkpt lat="44.163345085663515" lon="9.649210361163773"><ele>332.0</ele><time>2026-04-12T11:41:13.001Z</time></trkpt><trkpt lat="44.16325843800461" lon="9.649233042910476"><ele>331.20000000000005</ele><time>2026-04-12T11:41:14.001Z</time></trkpt><trkpt lat="44.163188404540044" lon="9.649259914605533"><ele>330.4</ele><time>2026-04-12T11:41:15.001Z</time></trkpt><trkpt lat="44.163093057511254" lon="9.649318759676907"><ele>329.6</ele><time>2026-04-12T11:41:17.001Z</time></trkpt><trkpt lat="44.16301318501162" lon="9.649347431134377"><ele>328.79999999999995</ele><time>2026-04-12T11:41:19.001Z</time></trkpt><trkpt lat="44.16292784129964" lon="9.649359040723152"><ele>328.0</ele><time>2026-04-12T11:41:21.001Z</time></trkpt><trkpt lat="44.16282013537974" lon="9.649404218021573"><ele>328.0</ele><time>2026-04-12T11:41:23.001Z</time></trkpt><trkpt lat="44.16274257086272" lon="9.64943693426187"><ele>328.0</ele><time>2026-04-12T11:41:24.001Z</time></trkpt><trkpt lat="44.16265838369395" lon="9.649475743124675"><ele>328.0</ele><time>2026-04-12T11:41:25.001Z</time></trkpt><trkpt lat="44.162568778515855" lon="9.649513103345956"><ele>328.0</ele><time>2026-04-12T11:41:26.001Z</time></trkpt><trkpt lat="44.1624775267881" lon="9.649548119698355"><ele>328.0</ele><time>2026-04-12T11:41:27.001Z</time></trkpt><trkpt lat="44.16238576551066" lon="9.649587471977735"><ele>323.16666666666663</ele><time>2026-04-12T11:41:28.001Z</time></trkpt><trkpt lat="44.16229911126232" lon="9.649627005567755"><ele>318.3333333333333</ele><time>2026-04-12T11:41:29Z</time></trkpt><trkpt lat="44.16221401639788" lon="9.649660160800327"><ele>313.5</ele><time>2026-04-12T11:41:30Z</time></trkpt><trkpt lat="44.16213451664478" lon="9.649667488171312"><ele>308.6666666666667</ele><time>2026-04-12T11:41:31Z</time></trkpt><trkpt lat="44.162062067281" lon="9.649648176437687"><ele>303.83333333333337</ele><time>2026-04-12T11:41:32Z</time></trkpt><trkpt lat="44.16199197352968" lon="9.649601815010612"><ele>299.0</ele><time>2026-04-12T11:41:33Z</time></trkpt><trkpt lat="44.161931010486185" lon="9.649532108098565"><ele>300.1666666666667</ele><time>2026-04-12T11:41:34Z</time></trkpt><trkpt lat="44.161878103681694" lon="9.649449548112427"><ele>301.33333333333337</ele><time>2026-04-12T11:41:35Z</time></trkpt><trkpt lat="44.1618546855066" lon="9.64934995358684"><ele>302.5</ele><time>2026-04-12T11:41:36Z</time></trkpt><trkpt lat="44.16185392255116" lon="9.649253786630279"><ele>303.6666666666667</ele><time>2026-04-12T11:41:37Z</time></trkpt><trkpt lat="44.161892216040314" lon="9.649161656269522"><ele>304.8333333333333</ele><time>2026-04-12T11:41:38Z</time></trkpt><trkpt lat="44.161949165400564" lon="9.649085725383959"><ele>306.0</ele><time>2026-04-12T11:41:39Z</time></trkpt><trkpt lat="44.16201589581905" lon="9.649011525413833"><ele>306.0</ele><time>2026-04-12T11:41:40Z</time></trkpt><trkpt lat="44.16208231323172" lon="9.648928021697548"><ele>306.0</ele><time>2026-04-12T11:41:41Z</time></trkpt><trkpt lat="44.16212830624271" lon="9.648823880068957"><ele>306.0</ele><time>2026-04-12T11:41:42Z</time></trkpt><trkpt lat="44.1621504379382" lon="9.648702357975317"><ele>306.0</ele><time>2026-04-12T11:41:43Z</time></trkpt><trkpt lat="44.16215363831358" lon="9.648576530870137"><ele>306.0</ele><time>2026-04-12T11:41:44Z</time></trkpt><trkpt lat="44.16214059801576" lon="9.648439300062991"><ele>303.0</ele><time>2026-04-12T11:41:45Z</time></trkpt><trkpt lat="44.16212110620735" lon="9.648301297975056"><ele>300.0</ele><time>2026-04-12T11:41:46Z</time></trkpt><trkpt lat="44.16209946507778" lon="9.648175558265866"><ele>297.0</ele><time>2026-04-12T11:41:47Z</time></trkpt><trkpt lat="44.16207805348191" lon="9.648049058504524"><ele>294.0</ele><time>2026-04-12T11:41:48Z</time></trkpt><trkpt lat="44.162005112480436" lon="9.647948592630227"><ele>291.0</ele><time>2026-04-12T11:41:49Z</time></trkpt><trkpt lat="44.16190384234204" lon="9.64791172599949"><ele>291.0</ele><time>2026-04-12T11:41:50Z</time></trkpt><trkpt lat="44.16181678573569" lon="9.647847958305814"><ele>291.0</ele><time>2026-04-12T11:41:51Z</time></trkpt><trkpt lat="44.16175866269696" lon="9.647732576101662"><ele>291.0</ele><time>2026-04-12T11:41:52Z</time></trkpt><trkpt lat="44.16168646715049" lon="9.647631852541336"><ele>291.0</ele><time>2026-04-12T11:41:53Z</time></trkpt><trkpt lat="44.16161089693721" lon="9.64753827295414"><ele>291.0</ele><time>2026-04-12T11:41:54Z</time></trkpt><trkpt lat="44.16152409872998" lon="9.647464738432207"><ele>288.3333333333333</ele><time>2026-04-12T11:41:55Z</time></trkpt><trkpt lat="44.16141782471779" lon="9.647453733686953"><ele>285.6666666666667</ele><time>2026-04-12T11:41:56Z</time></trkpt><trkpt lat="44.16133205709614" lon="9.647430047153641"><ele>283.0</ele><time>2026-04-12T11:41:57Z</time></trkpt><trkpt lat="44.161271550150154" lon="9.647375424904604"><ele>280.33333333333337</ele><time>2026-04-12T11:41:58Z</time></trkpt><trkpt lat="44.161239087387116" lon="9.6472780818787"><ele>277.6666666666667</ele><time>2026-04-12T11:41:59Z</time></trkpt><trkpt lat="44.16121728754157" lon="9.647161372434214"><ele>275.0</ele><time>2026-04-12T11:42:00Z</time></trkpt><trkpt lat="44.16118046833301" lon="9.647036346805352"><ele>280.1666666666667</ele><time>2026-04-12T11:42:01Z</time></trkpt><trkpt lat="44.16114541646287" lon="9.646929463910462"><ele>285.33333333333337</ele><time>2026-04-12T11:42:02Z</time></trkpt><trkpt lat="44.161085789668114" lon="9.646849905797534"><ele>290.5</ele><time>2026-04-12T11:42:03Z</time></trkpt><trkpt lat="44.16100272722166" lon="9.646819052746475"><ele>295.6666666666667</ele><time>2026-04-12T11:42:04Z</time></trkpt><trkpt lat="44.16091553121752" lon="9.64682891370699"><ele>300.8333333333333</ele><time>2026-04-12T11:42:05Z</time></trkpt><trkpt lat="44.160813256329725" lon="9.646858790369913"><ele>306.0</ele><time>2026-04-12T11:42:06Z</time></trkpt><trkpt lat="44.16070944047579" lon="9.646877492768386"><ele>302.8</ele><time>2026-04-12T11:42:07Z</time></trkpt><trkpt lat="44.16060542885633" lon="9.64686487291551"><ele>299.6</ele><time>2026-04-12T11:42:08Z</time></trkpt><trkpt lat="44.16050624161886" lon="9.646831276431634"><ele>296.4</ele><time>2026-04-12T11:42:09Z</time></trkpt><trkpt lat="44.160417862067" lon="9.646758507708359"><ele>293.2</ele><time>2026-04-12T11:42:10Z</time></trkpt><trkpt lat="44.16032331291436" lon="9.64670992798101"><ele>290.0</ele><time>2026-04-12T11:42:11Z</time></trkpt><trkpt lat="44.16022035312246" lon="9.646743577522535"><ele>290.0</ele><time>2026-04-12T11:42:12Z</time></trkpt><trkpt lat="44.16012457478007" lon="9.646798731454753"><ele>290.0</ele><time>2026-04-12T11:42:13Z</time></trkpt><trkpt lat="44.160019380188324" lon="9.646828136942062"><ele>290.0</ele><time>2026-04-12T11:42:14Z</time></trkpt><trkpt lat="44.159919198288485" lon="9.646837961986503"><ele>290.0</ele><time>2026-04-12T11:42:15Z</time></trkpt><trkpt lat="44.159814986741836" lon="9.646811123553256"><ele>290.0</ele><time>2026-04-12T11:42:16Z</time></trkpt><trkpt lat="44.15972051064094" lon="9.646786299277668"><ele>285.8</ele><time>2026-04-12T11:42:17Z</time></trkpt><trkpt lat="44.15963730651174" lon="9.64676319482491"><ele>281.6</ele><time>2026-04-12T11:42:18Z</time></trkpt><trkpt lat="44.15960507913762" lon="9.646639741279031"><ele>277.4</ele><time>2026-04-12T11:42:19Z</time></trkpt><trkpt lat="44.15957233265331" lon="9.646505489914837"><ele>273.2</ele><time>2026-04-12T11:42:20Z</time></trkpt><trkpt lat="44.15949991416448" lon="9.646425251398858"><ele>269.0</ele><time>2026-04-12T11:42:21Z</time></trkpt><trkpt lat="44.159403641372826" lon="9.646368583954896"><ele>269.0</ele><time>2026-04-12T11:42:22Z</time></trkpt><trkpt lat="44.15930915972405" lon="9.646307886805303"><ele>269.0</ele><time>2026-04-12T11:42:23Z</time></trkpt><trkpt lat="44.15919890739996" lon="9.646276293057287"><ele>269.0</ele><time>2026-04-12T11:42:24.001Z</time></trkpt><trkpt lat="44.15908258787698" lon="9.646265134892419"><ele>269.0</ele><time>2026-04-12T11:42:25.001Z</time></trkpt><trkpt lat="44.15896372222417" lon="9.646287216425623"><ele>266.59999999999997</ele><time>2026-04-12T11:42:26.001Z</time></trkpt><trkpt lat="44.15884968797762" lon="9.646324626498775"><ele>264.2</ele><time>2026-04-12T11:42:27.001Z</time></trkpt><trkpt lat="44.1587400902499" lon="9.646351017503363"><ele>261.79999999999995</ele><time>2026-04-12T11:42:28.001Z</time></trkpt><trkpt lat="44.158629714919805" lon="9.646349190228662"><ele>259.4</ele><time>2026-04-12T11:42:29.001Z</time></trkpt><trkpt lat="44.15852072023983" lon="9.646329948134504"><ele>257.0</ele><time>2026-04-12T11:42:30.001Z</time></trkpt><trkpt lat="44.158421451766046" lon="9.646312192791722"><ele>257.0</ele><time>2026-04-12T11:42:31.001Z</time></trkpt><trkpt lat="44.15833393227407" lon="9.646294061685262"><ele>257.0</ele><time>2026-04-12T11:42:32.001Z</time></trkpt><trkpt lat="44.158260647960816" lon="9.646258165566202"><ele>257.0</ele><time>2026-04-12T11:42:33.001Z</time></trkpt><trkpt lat="44.158192117134796" lon="9.646202555886093"><ele>257.0</ele><time>2026-04-12T11:42:34.001Z</time></trkpt><trkpt lat="44.15816916730645" lon="9.646079928569815"><ele>257.0</ele><time>2026-04-12T11:42:35.001Z</time></trkpt><trkpt lat="44.15812592445179" lon="9.645955330442076"><ele>257.0</ele><time>2026-04-12T11:42:36.001Z</time></trkpt><trkpt lat="44.15810312868735" lon="9.645821309069197"><ele>253.66666666666669</ele><time>2026-04-12T11:42:37.001Z</time></trkpt><trkpt lat="44.1580852607654" lon="9.64568677711857"><ele>250.33333333333334</ele><time>2026-04-12T11:42:38.001Z</time></trkpt><trkpt lat="44.15805463533755" lon="9.64556002295837"><ele>247.0</ele><time>2026-04-12T11:42:39.001Z</time></trkpt><trkpt lat="44.1580458009458" lon="9.645433159863686"><ele>243.66666666666669</ele><time>2026-04-12T11:42:40.001Z</time></trkpt><trkpt lat="44.15800984199797" lon="9.64532945182514"><ele>240.33333333333334</ele><time>2026-04-12T11:42:41.001Z</time></trkpt><trkpt lat="44.15801679974626" lon="9.645226477738793"><ele>237.0</ele><time>2026-04-12T11:42:42.001Z</time></trkpt><trkpt lat="44.15805044963318" lon="9.64513923907823"><ele>235.0</ele><time>2026-04-12T11:42:43.001Z</time></trkpt><trkpt lat="44.158106917317085" lon="9.64506887349533"><ele>233.0</ele><time>2026-04-12T11:42:44.001Z</time></trkpt><trkpt lat="44.158177417953006" lon="9.645010713412859"><ele>231.0</ele><time>2026-04-12T11:42:45.001Z</time></trkpt><trkpt lat="44.15824956245284" lon="9.644949591990143"><ele>229.0</ele><time>2026-04-12T11:42:46.001Z</time></trkpt><trkpt lat="44.15831572885648" lon="9.644880175081306"><ele>227.0</ele><time>2026-04-12T11:42:47.001Z</time></trkpt><trkpt lat="44.158362054952384" lon="9.6447864111641"><ele>225.0</ele><time>2026-04-12T11:42:48.001Z</time></trkpt><trkpt lat="44.15838865623484" lon="9.644676207412415"><ele>223.71428571428575</ele><time>2026-04-12T11:42:49.001Z</time></trkpt><trkpt lat="44.15839164875473" lon="9.644557916259146"><ele>222.42857142857144</ele><time>2026-04-12T11:42:50.001Z</time></trkpt><trkpt lat="44.158383239037335" lon="9.644451834731244"><ele>221.14285714285717</ele><time>2026-04-12T11:42:51.001Z</time></trkpt><trkpt lat="44.158354925592114" lon="9.644371123667739"><ele>219.8571428571429</ele><time>2026-04-12T11:42:52.001Z</time></trkpt><trkpt lat="44.158293019555124" lon="9.644293590661556"><ele>218.57142857142856</ele><time>2026-04-12T11:42:54.001Z</time></trkpt><trkpt lat="44.15822829615474" lon="9.644270667680567"><ele>217.28571428571428</ele><time>2026-04-12T11:42:58.001Z</time></trkpt><trkpt lat="44.15816139113328" lon="9.644271891277706"><ele>216.0</ele><time>2026-04-12T11:43:28.001Z</time></trkpt><trkpt lat="44.15810133764684" lon="9.644302366957865"><ele>216.0</ele><time>2026-04-12T11:43:31.001Z</time></trkpt><trkpt lat="44.15805726793834" lon="9.644379406737777"><ele>216.00000000000003</ele><time>2026-04-12T11:43:33.001Z</time></trkpt><trkpt lat="44.15811807302075" lon="9.644301642446504"><ele>216.00000000000003</ele><time>2026-04-12T11:43:50Z</time></trkpt><trkpt lat="44.15820412505912" lon="9.64424815975074"><ele>216.0</ele><time>2026-04-12T11:44:05Z</time></trkpt><trkpt lat="44.158119463152936" lon="9.644320249370994"><ele>216.0</ele><time>2026-04-12T11:44:06Z</time></trkpt><trkpt lat="44.15805045482506" lon="9.64448284866888"><ele>217.5</ele><time>2026-04-12T11:44:08Z</time></trkpt><trkpt lat="44.15802252216086" lon="9.644590350697351"><ele>219.0</ele><time>2026-04-12T11:44:09Z</time></trkpt><trkpt lat="44.157963145662826" lon="9.644694339674261"><ele>220.5</ele><time>2026-04-12T11:44:12Z</time></trkpt><trkpt lat="44.15791510923163" lon="9.644762795952758"><ele>222.0</ele><time>2026-04-12T11:44:13Z</time></trkpt><trkpt lat="44.15786634625164" lon="9.64482261088311"><ele>223.5</ele><time>2026-04-12T11:44:14Z</time></trkpt><trkpt lat="44.15781575276928" lon="9.644880241523047"><ele>225.0</ele><time>2026-04-12T11:44:15Z</time></trkpt><trkpt lat="44.1577665120202" lon="9.64501063969335"><ele>237.0</ele><time>2026-04-12T11:44:17Z</time></trkpt><trkpt lat="44.15807377073227" lon="9.645767306468946"><ele>237.0</ele><time>2026-04-12T11:44:19Z</time></trkpt><trkpt lat="44.1581015706155" lon="9.645926439852214"><ele>237.0</ele><time>2026-04-12T11:44:20Z</time></trkpt><trkpt lat="44.15813093013722" lon="9.646061579744655"><ele>237.0</ele><time>2026-04-12T11:44:21Z</time></trkpt><trkpt lat="44.1581650260656" lon="9.646177911232721"><ele>237.0</ele><time>2026-04-12T11:44:22Z</time></trkpt><trkpt lat="44.15822018206865" lon="9.646271505916209"><ele>237.0</ele><time>2026-04-12T11:44:23Z</time></trkpt><trkpt lat="44.15829770619346" lon="9.646328534298673"><ele>242.0</ele><time>2026-04-12T11:44:24Z</time></trkpt><trkpt lat="44.15839113968399" lon="9.646357622402789"><ele>247.0</ele><time>2026-04-12T11:44:25Z</time></trkpt><trkpt lat="44.15850271891933" lon="9.646369222370089"><ele>252.0</ele><time>2026-04-12T11:44:26Z</time></trkpt><trkpt lat="44.15862251933991" lon="9.646389450359841"><ele>257.0</ele><time>2026-04-12T11:44:27Z</time></trkpt><trkpt lat="44.15874478977784" lon="9.646398422246524"><ele>257.0</ele><time>2026-04-12T11:44:28Z</time></trkpt><trkpt lat="44.158870855294055" lon="9.646377068667588"><ele>257.0</ele><time>2026-04-12T11:44:29.001Z</time></trkpt><trkpt lat="44.158992109408636" lon="9.64632601782258"><ele>257.0</ele><time>2026-04-12T11:44:30.001Z</time></trkpt><trkpt lat="44.15909759183123" lon="9.646300203590743"><ele>257.0</ele><time>2026-04-12T11:44:31.001Z</time></trkpt><trkpt lat="44.15920028652333" lon="9.646311098557462"><ele>259.4</ele><time>2026-04-12T11:44:32.001Z</time></trkpt><trkpt lat="44.15930854048033" lon="9.646342257472806"><ele>261.79999999999995</ele><time>2026-04-12T11:44:33.001Z</time></trkpt><trkpt lat="44.15940713156122" lon="9.646386894696702"><ele>264.2</ele><time>2026-04-12T11:44:34.001Z</time></trkpt><trkpt lat="44.15948287773729" lon="9.646436862753278"><ele>266.59999999999997</ele><time>2026-04-12T11:44:35.001Z</time></trkpt><trkpt lat="44.15953659249065" lon="9.64650291564224"><ele>269.0</ele><time>2026-04-12T11:44:36.001Z</time></trkpt><trkpt lat="44.159581948237026" lon="9.646602299452487"><ele>269.0</ele><time>2026-04-12T11:44:37.001Z</time></trkpt><trkpt lat="44.159612805702814" lon="9.646710257183546"><ele>269.0</ele><time>2026-04-12T11:44:38.001Z</time></trkpt><trkpt lat="44.15965212387856" lon="9.646792284305693"><ele>269.0</ele><time>2026-04-12T11:44:39.001Z</time></trkpt><trkpt lat="44.15971968303457" lon="9.646842873914897"><ele>269.0</ele><time>2026-04-12T11:44:40.001Z</time></trkpt><trkpt lat="44.15980402832272" lon="9.646867225623051"><ele>269.0</ele><time>2026-04-12T11:44:41.001Z</time></trkpt><trkpt lat="44.15990381626905" lon="9.646865247122344"><ele>269.0</ele><time>2026-04-12T11:44:42.001Z</time></trkpt><trkpt lat="44.160004651984316" lon="9.646869996688732"><ele>273.2</ele><time>2026-04-12T11:44:43.001Z</time></trkpt><trkpt lat="44.160106958191804" lon="9.646855415193977"><ele>277.4</ele><time>2026-04-12T11:44:44.001Z</time></trkpt><trkpt lat="44.160206913681115" lon="9.646802564222584"><ele>281.6</ele><time>2026-04-12T11:44:45.001Z</time></trkpt><trkpt lat="44.160295590986735" lon="9.646756631057753"><ele>285.8</ele><time>2026-04-12T11:44:46.001Z</time></trkpt><trkpt lat="44.16037557988677" lon="9.646768889707038"><ele>290.0</ele><time>2026-04-12T11:44:47.001Z</time></trkpt><trkpt lat="44.16045205318711" lon="9.646820600805835"><ele>290.0</ele><time>2026-04-12T11:44:48.001Z</time></trkpt><trkpt lat="44.16052802626349" lon="9.64687572124888"><ele>290.0</ele><time>2026-04-12T11:44:49.001Z</time></trkpt><trkpt lat="44.16061614958151" lon="9.646903631452966"><ele>290.0</ele><time>2026-04-12T11:44:50.001Z</time></trkpt><trkpt lat="44.160725660823104" lon="9.64689851511334"><ele>290.0</ele><time>2026-04-12T11:44:51.001Z</time></trkpt><trkpt lat="44.16084451006403" lon="9.646871206680869"><ele>290.0</ele><time>2026-04-12T11:44:52.001Z</time></trkpt><trkpt lat="44.16095300316603" lon="9.646849429514443"><ele>287.5</ele><time>2026-04-12T11:44:53.001Z</time></trkpt><trkpt lat="44.1610480702304" lon="9.64685323278976"><ele>285.0</ele><time>2026-04-12T11:44:54.001Z</time></trkpt><trkpt lat="44.161122131591156" lon="9.646897936244704"><ele>282.5</ele><time>2026-04-12T11:44:55.001Z</time></trkpt><trkpt lat="44.161167605462516" lon="9.64698596856431"><ele>280.0</ele><time>2026-04-12T11:44:56.001Z</time></trkpt><trkpt lat="44.16116935748487" lon="9.64710665946116"><ele>277.5</ele><time>2026-04-12T11:44:57.001Z</time></trkpt><trkpt lat="44.16120649355215" lon="9.64722799812534"><ele>275.0</ele><time>2026-04-12T11:44:58.001Z</time></trkpt><trkpt lat="44.16123173643119" lon="9.647351910908212"><ele>275.0</ele><time>2026-04-12T11:44:59.001Z</time></trkpt><trkpt lat="44.16128039138774" lon="9.647449961845533"><ele>275.0</ele><time>2026-04-12T11:45:00.001Z</time></trkpt><trkpt lat="44.16134918394472" lon="9.647507178812402"><ele>275.0</ele><time>2026-04-12T11:45:01.001Z</time></trkpt><trkpt lat="44.16144125825554" lon="9.647522282770446"><ele>275.0</ele><time>2026-04-12T11:45:02.001Z</time></trkpt><trkpt lat="44.161538772725955" lon="9.647522729895115"><ele>275.0</ele><time>2026-04-12T11:45:03.001Z</time></trkpt><trkpt lat="44.16163050305978" lon="9.647568514408103"><ele>278.2</ele><time>2026-04-12T11:45:04.001Z</time></trkpt><trkpt lat="44.161703750164016" lon="9.647660943513442"><ele>281.4</ele><time>2026-04-12T11:45:05.001Z</time></trkpt><trkpt lat="44.16176659739773" lon="9.647783613004444"><ele>284.6</ele><time>2026-04-12T11:45:06.001Z</time></trkpt><trkpt lat="44.161850310416874" lon="9.64789599025464"><ele>287.8</ele><time>2026-04-12T11:45:07.001Z</time></trkpt><trkpt lat="44.16194586293645" lon="9.647975746946674"><ele>291.0</ele><time>2026-04-12T11:45:08.001Z</time></trkpt><trkpt lat="44.1620346902635" lon="9.648038781748433"><ele>291.0</ele><time>2026-04-12T11:45:09.001Z</time></trkpt><trkpt lat="44.16208767252426" lon="9.648129477538273"><ele>291.0</ele><time>2026-04-12T11:45:10.001Z</time></trkpt><trkpt lat="44.16209114046983" lon="9.648274759073134"><ele>291.0</ele><time>2026-04-12T11:45:11.001Z</time></trkpt><trkpt lat="44.162112106719185" lon="9.648425946266135"><ele>291.0</ele><time>2026-04-12T11:45:12.001Z</time></trkpt><trkpt lat="44.162127251506156" lon="9.648579409834063"><ele>291.0</ele><time>2026-04-12T11:45:13.001Z</time></trkpt><trkpt lat="44.16213506035657" lon="9.648724082221024"><ele>294.0</ele><time>2026-04-12T11:45:14.001Z</time></trkpt><trkpt lat="44.16210198398185" lon="9.648853618209166"><ele>297.0</ele><time>2026-04-12T11:45:15.001Z</time></trkpt><trkpt lat="44.16202378807166" lon="9.64894858218107"><ele>300.0</ele><time>2026-04-12T11:45:16.001Z</time></trkpt><trkpt lat="44.161941569736925" lon="9.649052178266777"><ele>303.0</ele><time>2026-04-12T11:45:17.001Z</time></trkpt><trkpt lat="44.16187544129727" lon="9.649167636095125"><ele>306.0</ele><time>2026-04-12T11:45:18.001Z</time></trkpt><trkpt lat="44.161825182164506" lon="9.649260557185926"><ele>306.0</ele><time>2026-04-12T11:45:19.001Z</time></trkpt><trkpt lat="44.16181503396195" lon="9.649365389843824"><ele>306.0</ele><time>2026-04-12T11:45:20.001Z</time></trkpt><trkpt lat="44.161841880567486" lon="9.649470056471964"><ele>306.0</ele><time>2026-04-12T11:45:21.001Z</time></trkpt><trkpt lat="44.16189717365011" lon="9.649569617802696"><ele>306.0</ele><time>2026-04-12T11:45:22.001Z</time></trkpt><trkpt lat="44.161980711108015" lon="9.649659614582532"><ele>306.0</ele><time>2026-04-12T11:45:23.001Z</time></trkpt><trkpt lat="44.16207378622858" lon="9.649716865571515"><ele>304.6</ele><time>2026-04-12T11:45:24.001Z</time></trkpt><trkpt lat="44.16217560153949" lon="9.649725651104712"><ele>303.20000000000005</ele><time>2026-04-12T11:45:25.001Z</time></trkpt><trkpt lat="44.162275029490324" lon="9.649699649898018"><ele>301.79999999999995</ele><time>2026-04-12T11:45:26.001Z</time></trkpt><trkpt lat="44.16236580307277" lon="9.649652477469047"><ele>300.4</ele><time>2026-04-12T11:45:27.001Z</time></trkpt><trkpt lat="44.16245182229708" lon="9.649618658384622"><ele>299.0</ele><time>2026-04-12T11:45:28.001Z</time></trkpt><trkpt lat="44.16253897361261" lon="9.649573507465037"><ele>302.33333333333337</ele><time>2026-04-12T11:45:29.001Z</time></trkpt><trkpt lat="44.162628513546274" lon="9.649532151878121"><ele>305.6666666666667</ele><time>2026-04-12T11:45:30.001Z</time></trkpt><trkpt lat="44.16270854570524" lon="9.649492468163196"><ele>309.0</ele><time>2026-04-12T11:45:31.001Z</time></trkpt><trkpt lat="44.16278775424571" lon="9.649454170892067"><ele>312.3333333333333</ele><time>2026-04-12T11:45:32.001Z</time></trkpt><trkpt lat="44.16285280081436" lon="9.64942719886534"><ele>315.66666666666663</ele><time>2026-04-12T11:45:33.001Z</time></trkpt><trkpt lat="44.16294063482632" lon="9.649418571870944"><ele>319.0</ele><time>2026-04-12T11:45:35.001Z</time></trkpt><trkpt lat="44.16301709607751" lon="9.649425485381599"><ele>321.25</ele><time>2026-04-12T11:45:51Z</time></trkpt><trkpt lat="44.16295412346481" lon="9.649405027122203"><ele>323.5</ele><time>2026-04-12T11:45:57Z</time></trkpt><trkpt lat="44.16281759873974" lon="9.649196374863461"><ele>325.75</ele><time>2026-04-12T11:45:59Z</time></trkpt><trkpt lat="44.16272084526133" lon="9.649231670369387"><ele>328.0</ele><time>2026-04-12T11:46:00Z</time></trkpt><trkpt lat="44.162624936304375" lon="9.649266759091882"><ele>328.0</ele><time>2026-04-12T11:46:01Z</time></trkpt><trkpt lat="44.16251519857875" lon="9.649306907130894"><ele>328.0</ele><time>2026-04-12T11:46:02Z</time></trkpt><trkpt lat="44.16241303558575" lon="9.649344283921753"><ele>328.0</ele><time>2026-04-12T11:46:03Z</time></trkpt><trkpt lat="44.16235522811486" lon="9.649609065109095"><ele>328.0</ele><time>2026-04-12T11:46:04Z</time></trkpt><trkpt lat="44.16226051946212" lon="9.649651397448855"><ele>323.59999999999997</ele><time>2026-04-12T11:46:05Z</time></trkpt><trkpt lat="44.1621604779866" lon="9.649679179357003"><ele>319.2</ele><time>2026-04-12T11:46:06Z</time></trkpt><trkpt lat="44.162062502743815" lon="9.649658189968399"><ele>314.8</ele><time>2026-04-12T11:46:07Z</time></trkpt><trkpt lat="44.161970071590936" lon="9.649591308549457"><ele>310.4</ele><time>2026-04-12T11:46:08Z</time></trkpt><trkpt lat="44.16189635451293" lon="9.649496266430711"><ele>306.0</ele><time>2026-04-12T11:46:09Z</time></trkpt><trkpt lat="44.16185413298186" lon="9.649392382439293"><ele>306.0</ele><time>2026-04-12T11:46:10Z</time></trkpt><trkpt lat="44.16185115994925" lon="9.649270626736385"><ele>306.0</ele><time>2026-04-12T11:46:11Z</time></trkpt><trkpt lat="44.16189488329512" lon="9.649162763459845"><ele>306.0</ele><time>2026-04-12T11:46:12Z</time></trkpt><trkpt lat="44.16197240836824" lon="9.649062134980877"><ele>306.0</ele><time>2026-04-12T11:46:13Z</time></trkpt><trkpt lat="44.1620603556292" lon="9.648956155308404"><ele>306.0</ele><time>2026-04-12T11:46:14Z</time></trkpt><trkpt lat="44.1621213434643" lon="9.648839202898227"><ele>306.0</ele><time>2026-04-12T11:46:15Z</time></trkpt><trkpt lat="44.16216384740023" lon="9.648726576550079"><ele>306.0</ele><time>2026-04-12T11:46:16Z</time></trkpt><trkpt lat="44.16217525622547" lon="9.648593107236652"><ele>306.0</ele><time>2026-04-12T11:46:17Z</time></trkpt><trkpt lat="44.16215470730079" lon="9.648423273733858"><ele>306.0</ele><time>2026-04-12T11:46:18Z</time></trkpt><trkpt lat="44.162137319064946" lon="9.64825407377764"><ele>306.0</ele><time>2026-04-12T11:46:19Z</time></trkpt><trkpt lat="44.162097950390596" lon="9.648099727780775"><ele>306.25</ele><time>2026-04-12T11:46:20Z</time></trkpt><trkpt lat="44.162030422557955" lon="9.647989091360909"><ele>306.5</ele><time>2026-04-12T11:46:21Z</time></trkpt><trkpt lat="44.161928429889265" lon="9.647905916640914"><ele>306.75</ele><time>2026-04-12T11:46:22Z</time></trkpt><trkpt lat="44.16180553119761" lon="9.647829245523107"><ele>307.0</ele><time>2026-04-12T11:46:23Z</time></trkpt><trkpt lat="44.16172463933165" lon="9.647654071413834"><ele>307.0</ele><time>2026-04-12T11:46:24Z</time></trkpt><trkpt lat="44.16162286263353" lon="9.647533341087334"><ele>307.0</ele><time>2026-04-12T11:46:25Z</time></trkpt><trkpt lat="44.16151554314515" lon="9.647445513642467"><ele>307.0</ele><time>2026-04-12T11:46:26Z</time></trkpt><trkpt lat="44.16138729226588" lon="9.647457382586913"><ele>307.0</ele><time>2026-04-12T11:46:27Z</time></trkpt><trkpt lat="44.161297698407786" lon="9.647409272599642"><ele>306.8</ele><time>2026-04-12T11:46:28Z</time></trkpt><trkpt lat="44.1612326174102" lon="9.647350072711472"><ele>306.6</ele><time>2026-04-12T11:46:29Z</time></trkpt><trkpt lat="44.16122575912898" lon="9.647208818648387"><ele>306.40000000000003</ele><time>2026-04-12T11:46:30Z</time></trkpt><trkpt lat="44.16118675418938" lon="9.647070652290795"><ele>306.2</ele><time>2026-04-12T11:46:31Z</time></trkpt><trkpt lat="44.161157370697296" lon="9.646937844608459"><ele>306.0</ele><time>2026-04-12T11:46:32Z</time></trkpt><trkpt lat="44.161094801251956" lon="9.646850304159537"><ele>306.0</ele><time>2026-04-12T11:46:33Z</time></trkpt><trkpt lat="44.16101604923012" lon="9.646791161849439"><ele>306.0</ele><time>2026-04-12T11:46:34Z</time></trkpt><trkpt lat="44.160897987197515" lon="9.646844347454552"><ele>306.0</ele><time>2026-04-12T11:46:35Z</time></trkpt><trkpt lat="44.16079789274446" lon="9.646860246370661"><ele>306.0</ele><time>2026-04-12T11:46:36Z</time></trkpt><trkpt lat="44.16068764666283" lon="9.646881575746411"><ele>306.0</ele><time>2026-04-12T11:46:37Z</time></trkpt><trkpt lat="44.16058324074184" lon="9.646864872916048"><ele>302.8</ele><time>2026-04-12T11:46:38Z</time></trkpt><trkpt lat="44.160492209892446" lon="9.646825704997818"><ele>299.6</ele><time>2026-04-12T11:46:39Z</time></trkpt><trkpt lat="44.160407971635806" lon="9.646752428271316"><ele>296.4</ele><time>2026-04-12T11:46:40Z</time></trkpt><trkpt lat="44.160319422487746" lon="9.6467082227587"><ele>293.2</ele><time>2026-04-12T11:46:41Z</time></trkpt><trkpt lat="44.16021375827045" lon="9.646741095559902"><ele>290.0</ele><time>2026-04-12T11:46:42Z</time></trkpt><trkpt lat="44.160111928559665" lon="9.646785928787283"><ele>290.0</ele><time>2026-04-12T11:46:43.001Z</time></trkpt><trkpt lat="44.16001869823593" lon="9.64685208634636"><ele>290.0</ele><time>2026-04-12T11:46:44.001Z</time></trkpt><trkpt lat="44.159922990984946" lon="9.646857968551592"><ele>290.0</ele><time>2026-04-12T11:46:45.001Z</time></trkpt><trkpt lat="44.15981838479335" lon="9.646811578900053"><ele>290.0</ele><time>2026-04-12T11:46:46.001Z</time></trkpt><trkpt lat="44.159723922433365" lon="9.646787400151561"><ele>290.0</ele><time>2026-04-12T11:46:47.001Z</time></trkpt><trkpt lat="44.15964454870388" lon="9.64674621278105"><ele>285.8</ele><time>2026-04-12T11:46:48.001Z</time></trkpt><trkpt lat="44.15959110536176" lon="9.64663607975993"><ele>281.6</ele><time>2026-04-12T11:46:49.001Z</time></trkpt><trkpt lat="44.15957082351793" lon="9.646502088743103"><ele>277.4</ele><time>2026-04-12T11:46:50.001Z</time></trkpt><trkpt lat="44.15949555185991" lon="9.646418543692516"><ele>273.2</ele><time>2026-04-12T11:46:51.001Z</time></trkpt><trkpt lat="44.15940058755116" lon="9.646363954727494"><ele>269.0</ele><time>2026-04-12T11:46:52.001Z</time></trkpt><trkpt lat="44.15929713130917" lon="9.646320572558446"><ele>269.0</ele><time>2026-04-12T11:46:53.001Z</time></trkpt><trkpt lat="44.159178078975685" lon="9.646289629597241"><ele>269.0</ele><time>2026-04-12T11:46:54.001Z</time></trkpt><trkpt lat="44.1590500520486" lon="9.646268670313995"><ele>269.0</ele><time>2026-04-12T11:46:55.001Z</time></trkpt><trkpt lat="44.1589195053403" lon="9.646299791274654"><ele>269.0</ele><time>2026-04-12T11:46:56.001Z</time></trkpt><trkpt lat="44.15880201555341" lon="9.64633874366265"><ele>266.0</ele><time>2026-04-12T11:46:57.001Z</time></trkpt><trkpt lat="44.15868489956426" lon="9.646353273596013"><ele>263.0</ele><time>2026-04-12T11:46:58.001Z</time></trkpt><trkpt lat="44.158567985829215" lon="9.64636151637452"><ele>260.0</ele><time>2026-04-12T11:46:59.001Z</time></trkpt><trkpt lat="44.158457859973296" lon="9.646318704834334"><ele>257.0</ele><time>2026-04-12T11:47:00.001Z</time></trkpt><trkpt lat="44.158355286493006" lon="9.64629876817926"><ele>257.0</ele><time>2026-04-12T11:47:01.001Z</time></trkpt><trkpt lat="44.15827022876856" lon="9.646293263196874"><ele>257.0</ele><time>2026-04-12T11:47:02.001Z</time></trkpt><trkpt lat="44.158209279984085" lon="9.646224397529286"><ele>257.0</ele><time>2026-04-12T11:47:03.001Z</time></trkpt><trkpt lat="44.15816232617975" lon="9.646119710798345"><ele>257.0</ele><time>2026-04-12T11:47:04.001Z</time></trkpt><trkpt lat="44.15813570210421" lon="9.6459928616736"><ele>257.0</ele><time>2026-04-12T11:47:05.001Z</time></trkpt><trkpt lat="44.15810940754852" lon="9.645850664604719"><ele>253.0</ele><time>2026-04-12T11:47:06.001Z</time></trkpt><trkpt lat="44.158081949755555" lon="9.645698173977346"><ele>249.0</ele><time>2026-04-12T11:47:07.001Z</time></trkpt><trkpt lat="44.158066359776676" lon="9.64554138466642"><ele>245.0</ele><time>2026-04-12T11:47:08.001Z</time></trkpt><trkpt lat="44.15804036485078" lon="9.645404543440254"><ele>241.0</ele><time>2026-04-12T11:47:09.001Z</time></trkpt><trkpt lat="44.15801109701338" lon="9.645288869063473"><ele>237.0</ele><time>2026-04-12T11:47:10.001Z</time></trkpt><trkpt lat="44.15802921596534" lon="9.645182658543069"><ele>234.6</ele><time>2026-04-12T11:47:11.001Z</time></trkpt><trkpt lat="44.158081657622915" lon="9.645091522568428"><ele>232.2</ele><time>2026-04-12T11:47:12.001Z</time></trkpt><trkpt lat="44.158161081463284" lon="9.645015023106842"><ele>229.8</ele><time>2026-04-12T11:47:13.001Z</time></trkpt><trkpt lat="44.15824875712423" lon="9.644939096563"><ele>227.4</ele><time>2026-04-12T11:47:14.001Z</time></trkpt><trkpt lat="44.15832165649517" lon="9.644859189087665"><ele>225.0</ele><time>2026-04-12T11:47:15.001Z</time></trkpt><trkpt lat="44.15837132361492" lon="9.64475482913686"><ele>223.5</ele><time>2026-04-12T11:47:16.001Z</time></trkpt><trkpt lat="44.15839935865732" lon="9.644636132720242"><ele>222.0</ele><time>2026-04-12T11:47:17.001Z</time></trkpt><trkpt lat="44.158398283575714" lon="9.644505765963695"><ele>220.5</ele><time>2026-04-12T11:47:18.001Z</time></trkpt><trkpt lat="44.158366237316656" lon="9.644384968039343"><ele>219.0</ele><time>2026-04-12T11:47:19.001Z</time></trkpt><trkpt lat="44.15830235352945" lon="9.644300561113429"><ele>217.5</ele><time>2026-04-12T11:47:20.001Z</time></trkpt><trkpt lat="44.15822356742025" lon="9.644266154033884"><ele>216.0</ele><time>2026-04-12T11:47:21.001Z</time></trkpt><trkpt lat="44.158138601869894" lon="9.644269227595057"><ele>216.0</ele><time>2026-04-12T11:47:22.001Z</time></trkpt><trkpt lat="44.15806933834462" lon="9.644369716926276"><ele>216.00000000000003</ele><time>2026-04-12T11:47:23.001Z</time></trkpt><trkpt lat="44.15802574405304" lon="9.644481645038653"><ele>216.00000000000003</ele><time>2026-04-12T11:47:24.001Z</time></trkpt><trkpt lat="44.157999114886536" lon="9.644616521337209"><ele>216.0</ele><time>2026-04-12T11:47:25.001Z</time></trkpt><trkpt lat="44.157950789393" lon="9.644748902360913"><ele>216.0</ele><time>2026-04-12T11:47:26.001Z</time></trkpt><trkpt lat="44.15785407733458" lon="9.644840140540461"><ele>218.25</ele><time>2026-04-12T11:47:27.001Z</time></trkpt><trkpt lat="44.157752219223546" lon="9.644947865309943"><ele>220.5</ele><time>2026-04-12T11:47:28.001Z</time></trkpt><trkpt lat="44.15765464732585" lon="9.645070293763029"><ele>222.75</ele><time>2026-04-12T11:47:29.001Z</time></trkpt><trkpt lat="44.15754205164358" lon="9.64517680826326"><ele>225.0</ele><time>2026-04-12T11:47:30.001Z</time></trkpt><trkpt lat="44.157433450967595" lon="9.645275860437696"><ele>221.25</ele><time>2026-04-12T11:47:31.001Z</time></trkpt><trkpt lat="44.15732436303445" lon="9.645361074331058"><ele>217.5</ele><time>2026-04-12T11:47:32.001Z</time></trkpt><trkpt lat="44.15721877417649" lon="9.645435588217147"><ele>213.75</ele><time>2026-04-12T11:47:33.001Z</time></trkpt><trkpt lat="44.15711669086631" lon="9.64550129857782"><ele>210.0</ele><time>2026-04-12T11:47:34.001Z</time></trkpt><trkpt lat="44.15702835017085" lon="9.645567654796407"><ele>210.0</ele><time>2026-04-12T11:47:35.001Z</time></trkpt><trkpt lat="44.15696448651915" lon="9.645654558130035"><ele>210.0</ele><time>2026-04-12T11:47:36.001Z</time></trkpt><trkpt lat="44.156933571007045" lon="9.645765988060147"><ele>210.0</ele><time>2026-04-12T11:47:37.001Z</time></trkpt><trkpt lat="44.156941324298955" lon="9.645894212726438"><ele>210.0</ele><time>2026-04-12T11:47:38.001Z</time></trkpt><trkpt lat="44.15698090930483" lon="9.646023044759994"><ele>210.0</ele><time>2026-04-12T11:47:39.001Z</time></trkpt><trkpt lat="44.1570292050478" lon="9.64614194823759"><ele>211.2</ele><time>2026-04-12T11:47:40.001Z</time></trkpt><trkpt lat="44.15704552168077" lon="9.646264095112572"><ele>212.4</ele><time>2026-04-12T11:47:41.001Z</time></trkpt><trkpt lat="44.15701841045939" lon="9.646388223685454"><ele>213.60000000000002</ele><time>2026-04-12T11:47:42.001Z</time></trkpt><trkpt lat="44.15693869978998" lon="9.646480926508163"><ele>214.8</ele><time>2026-04-12T11:47:43.001Z</time></trkpt><trkpt lat="44.15686016379148" lon="9.646567732777301"><ele>216.0</ele><time>2026-04-12T11:47:44.001Z</time></trkpt><trkpt lat="44.15676635506572" lon="9.646656508334873"><ele>216.0</ele><time>2026-04-12T11:47:45.001Z</time></trkpt><trkpt lat="44.15665200990383" lon="9.64673348210544"><ele>216.0</ele><time>2026-04-12T11:47:46.001Z</time></trkpt><trkpt lat="44.15652654106329" lon="9.646826859638114"><ele>216.0</ele><time>2026-04-12T11:47:47Z</time></trkpt><trkpt lat="44.15639549945092" lon="9.646894421211801"><ele>216.0</ele><time>2026-04-12T11:47:48Z</time></trkpt><trkpt lat="44.15627041839728" lon="9.646963348726073"><ele>217.5</ele><time>2026-04-12T11:47:49Z</time></trkpt><trkpt lat="44.156146497153244" lon="9.64701592058705"><ele>219.0</ele><time>2026-04-12T11:47:50Z</time></trkpt><trkpt lat="44.156011537964474" lon="9.647025725205907"><ele>220.5</ele><time>2026-04-12T11:47:51Z</time></trkpt><trkpt lat="44.15587213403938" lon="9.647062286731725"><ele>222.0</ele><time>2026-04-12T11:47:52Z</time></trkpt><trkpt lat="44.155724865658776" lon="9.647088921684666"><ele>215.33333333333331</ele><time>2026-04-12T11:47:53Z</time></trkpt><trkpt lat="44.155574399219766" lon="9.647147193533312"><ele>208.66666666666666</ele><time>2026-04-12T11:47:54Z</time></trkpt><trkpt lat="44.155418613321295" lon="9.647219732318154"><ele>202.0</ele><time>2026-04-12T11:47:55Z</time></trkpt><trkpt lat="44.155258657963294" lon="9.647292076004769"><ele>202.0</ele><time>2026-04-12T11:47:56Z</time></trkpt><trkpt lat="44.15510281133029" lon="9.647356380726299"><ele>202.0</ele><time>2026-04-12T11:47:57Z</time></trkpt><trkpt lat="44.15494767437551" lon="9.647425080564505"><ele>202.0</ele><time>2026-04-12T11:47:58Z</time></trkpt><trkpt lat="44.154797125694095" lon="9.647494575368066"><ele>195.66666666666666</ele><time>2026-04-12T11:47:59Z</time></trkpt><trkpt lat="44.15464345594684" lon="9.647564012544342"><ele>189.33333333333331</ele><time>2026-04-12T11:48:00Z</time></trkpt><trkpt lat="44.154503427607445" lon="9.647627478225985"><ele>183.0</ele><time>2026-04-12T11:48:01Z</time></trkpt><trkpt lat="44.154355866875264" lon="9.647687964167703"><ele>183.0</ele><time>2026-04-12T11:48:02Z</time></trkpt><trkpt lat="44.154211373288085" lon="9.647747451553519"><ele>183.0</ele><time>2026-04-12T11:48:03Z</time></trkpt><trkpt lat="44.154073379821675" lon="9.647809803258037"><ele>183.0</ele><time>2026-04-12T11:48:04Z</time></trkpt><trkpt lat="44.15393237323253" lon="9.647868815318933"><ele>183.0</ele><time>2026-04-12T11:48:05Z</time></trkpt><trkpt lat="44.15379763534459" lon="9.647931410638384"><ele>185.25</ele><time>2026-04-12T11:48:06Z</time></trkpt><trkpt lat="44.153662210080014" lon="9.647989041595862"><ele>187.5</ele><time>2026-04-12T11:48:07Z</time></trkpt><trkpt lat="44.15353176518207" lon="9.648038557595122"><ele>189.75</ele><time>2026-04-12T11:48:08Z</time></trkpt><trkpt lat="44.15340157547245" lon="9.648062299937212"><ele>192.0</ele><time>2026-04-12T11:48:09Z</time></trkpt><trkpt lat="44.15327681947765" lon="9.648098718931616"><ele>191.0</ele><time>2026-04-12T11:48:10Z</time></trkpt><trkpt lat="44.1531658024188" lon="9.648153543243701"><ele>190.0</ele><time>2026-04-12T11:48:11Z</time></trkpt><trkpt lat="44.15306095109183" lon="9.648176052895577"><ele>189.0</ele><time>2026-04-12T11:48:12Z</time></trkpt><trkpt lat="44.15296142682006" lon="9.648187103023648"><ele>188.0</ele><time>2026-04-12T11:48:13Z</time></trkpt><trkpt lat="44.15286904465409" lon="9.648170997325291"><ele>187.0</ele><time>2026-04-12T11:48:14Z</time></trkpt><trkpt lat="44.15278768009065" lon="9.648091047054105"><ele>187.0</ele><time>2026-04-12T11:48:15Z</time></trkpt><trkpt lat="44.15270458276688" lon="9.648016253451825"><ele>187.0</ele><time>2026-04-12T11:48:16Z</time></trkpt><trkpt lat="44.15267596789164" lon="9.647882765106749"><ele>187.0</ele><time>2026-04-12T11:48:17Z</time></trkpt><trkpt lat="44.15264506974914" lon="9.647761477455498"><ele>187.0</ele><time>2026-04-12T11:48:18Z</time></trkpt><trkpt lat="44.152607218094275" lon="9.64766197227684"><ele>187.0</ele><time>2026-04-12T11:48:19Z</time></trkpt><trkpt lat="44.15256390524054" lon="9.647581300667477"><ele>187.0</ele><time>2026-04-12T11:48:20Z</time></trkpt><trkpt lat="44.152460465247046" lon="9.647580020559053"><ele>177.75</ele><time>2026-04-12T11:48:21Z</time></trkpt><trkpt lat="44.152361989523506" lon="9.647618945661245"><ele>168.5</ele><time>2026-04-12T11:48:22Z</time></trkpt><trkpt lat="44.15225421982418" lon="9.64767637488638"><ele>159.25</ele><time>2026-04-12T11:48:23Z</time></trkpt><trkpt lat="44.15212755035887" lon="9.647737039050625"><ele>150.0</ele><time>2026-04-12T11:48:24Z</time></trkpt><trkpt lat="44.15200264801226" lon="9.647786225303413"><ele>152.6</ele><time>2026-04-12T11:48:25Z</time></trkpt><trkpt lat="44.15188950497054" lon="9.64783277828539"><ele>155.2</ele><time>2026-04-12T11:48:26Z</time></trkpt><trkpt lat="44.15178401668502" lon="9.64787384932287"><ele>157.8</ele><time>2026-04-12T11:48:27Z</time></trkpt><trkpt lat="44.15169479756012" lon="9.647922546889378"><ele>160.4</ele><time>2026-04-12T11:48:28Z</time></trkpt><trkpt lat="44.151627235403396" lon="9.6479969230692"><ele>163.0</ele><time>2026-04-12T11:48:29Z</time></trkpt><trkpt lat="44.151590894482744" lon="9.648110278927268"><ele>163.0</ele><time>2026-04-12T11:48:30Z</time></trkpt><trkpt lat="44.151580982467216" lon="9.648244446641034"><ele>163.0</ele><time>2026-04-12T11:48:31Z</time></trkpt><trkpt lat="44.15159551613359" lon="9.64839580112671"><ele>163.0</ele><time>2026-04-12T11:48:32Z</time></trkpt><trkpt lat="44.15162090251032" lon="9.648546181170628"><ele>163.0</ele><time>2026-04-12T11:48:33Z</time></trkpt><trkpt lat="44.15165300738819" lon="9.64869131552563"><ele>163.0</ele><time>2026-04-12T11:48:34Z</time></trkpt><trkpt lat="44.15171215156233" lon="9.648818956746089"><ele>160.8</ele><time>2026-04-12T11:48:35Z</time></trkpt><trkpt lat="44.151786119137704" lon="9.64892277740653"><ele>158.60000000000002</ele><time>2026-04-12T11:48:36Z</time></trkpt><trkpt lat="44.15186358265884" lon="9.649013703125025"><ele>156.39999999999998</ele><time>2026-04-12T11:48:37Z</time></trkpt><trkpt lat="44.15192365169206" lon="9.6491151499235"><ele>154.2</ele><time>2026-04-12T11:48:38Z</time></trkpt><trkpt lat="44.15196754793591" lon="9.649217333304414"><ele>152.0</ele><time>2026-04-12T11:48:39Z</time></trkpt><trkpt lat="44.151985203730284" lon="9.649337400873812"><ele>153.2</ele><time>2026-04-12T11:48:40Z</time></trkpt><trkpt lat="44.15196432605433" lon="9.64945989735968"><ele>154.39999999999998</ele><time>2026-04-12T11:48:41Z</time></trkpt><trkpt lat="44.15189204018983" lon="9.649550481963452"><ele>155.60000000000002</ele><time>2026-04-12T11:48:42Z</time></trkpt><trkpt lat="44.151826232980675" lon="9.649674482934996"><ele>156.8</ele><time>2026-04-12T11:48:43Z</time></trkpt><trkpt lat="44.15175540420002" lon="9.64981606087019"><ele>158.0</ele><time>2026-04-12T11:48:44Z</time></trkpt><trkpt lat="44.151658817554434" lon="9.64992088768644"><ele>158.0</ele><time>2026-04-12T11:48:45Z</time></trkpt><trkpt lat="44.151547583237175" lon="9.650005386123437"><ele>158.0</ele><time>2026-04-12T11:48:46Z</time></trkpt><trkpt lat="44.151436456922646" lon="9.650079243466859"><ele>158.0</ele><time>2026-04-12T11:48:47Z</time></trkpt><trkpt lat="44.15134179982298" lon="9.650157376151787"><ele>158.0</ele><time>2026-04-12T11:48:48Z</time></trkpt><trkpt lat="44.15124995870762" lon="9.650239404463067"><ele>154.20000000000002</ele><time>2026-04-12T11:48:49Z</time></trkpt><trkpt lat="44.15116744239817" lon="9.650338468624978"><ele>150.4</ele><time>2026-04-12T11:48:50Z</time></trkpt><trkpt lat="44.15109727459508" lon="9.650455835403381"><ele>146.60000000000002</ele><time>2026-04-12T11:48:51Z</time></trkpt><trkpt lat="44.15105089392553" lon="9.650575857139955"><ele>142.8</ele><time>2026-04-12T11:48:52Z</time></trkpt><trkpt lat="44.151021750403146" lon="9.6506935872647"><ele>139.0</ele><time>2026-04-12T11:48:53Z</time></trkpt><trkpt lat="44.15100052722652" lon="9.650795793534403"><ele>139.0</ele><time>2026-04-12T11:48:54.001Z</time></trkpt><trkpt lat="44.150915090026785" lon="9.650925354595849"><ele>139.0</ele><time>2026-04-12T11:48:56.001Z</time></trkpt><trkpt lat="44.150842804047905" lon="9.650928698230578"><ele>139.0</ele><time>2026-04-12T11:48:57.001Z</time></trkpt><trkpt lat="44.15077664791039" lon="9.650883859793097"><ele>139.0</ele><time>2026-04-12T11:48:58.001Z</time></trkpt><trkpt lat="44.1507478146194" lon="9.650787203077849"><ele>139.0</ele><time>2026-04-12T11:48:59.001Z</time></trkpt><trkpt lat="44.150756030474476" lon="9.6506802371904"><ele>139.0</ele><time>2026-04-12T11:49:00.001Z</time></trkpt><trkpt lat="44.1508237296752" lon="9.650588835336569"><ele>139.0</ele><time>2026-04-12T11:49:01.001Z</time></trkpt><trkpt lat="44.1508937729054" lon="9.65052753338055"><ele>139.0</ele><time>2026-04-12T11:49:02.001Z</time></trkpt><trkpt lat="44.1509525349699" lon="9.65043696429903"><ele>139.0</ele><time>2026-04-12T11:49:03.001Z</time></trkpt><trkpt lat="44.15101293594954" lon="9.650311921078766"><ele>139.0</ele><time>2026-04-12T11:49:04.001Z</time></trkpt><trkpt lat="44.15107518600488" lon="9.650172922860117"><ele>139.0</ele><time>2026-04-12T11:49:05.001Z</time></trkpt><trkpt lat="44.15115184320577" lon="9.650040050422827"><ele>137.0</ele><time>2026-04-12T11:49:06.001Z</time></trkpt><trkpt lat="44.15122031300034" lon="9.649917821248977"><ele>135.0</ele><time>2026-04-12T11:49:07.001Z</time></trkpt><trkpt lat="44.151288383982525" lon="9.649789207855681"><ele>133.0</ele><time>2026-04-12T11:49:08.001Z</time></trkpt><trkpt lat="44.15136203324077" lon="9.64968502992693"><ele>131.0</ele><time>2026-04-12T11:49:09.001Z</time></trkpt><trkpt lat="44.15143209321092" lon="9.64958153169134"><ele>129.0</ele><time>2026-04-12T11:49:10.001Z</time></trkpt><trkpt lat="44.15147994459864" lon="9.64948235946306"><ele>128.4</ele><time>2026-04-12T11:49:11.001Z</time></trkpt><trkpt lat="44.15148902087823" lon="9.649361776877475"><ele>127.80000000000001</ele><time>2026-04-12T11:49:12.001Z</time></trkpt><trkpt lat="44.15144918590239" lon="9.64924490775882"><ele>127.19999999999999</ele><time>2026-04-12T11:49:13.001Z</time></trkpt><trkpt lat="44.15138048853458" lon="9.649136514227076"><ele>126.6</ele><time>2026-04-12T11:49:14.001Z</time></trkpt><trkpt lat="44.15128486263134" lon="9.649047637950362"><ele>126.0</ele><time>2026-04-12T11:49:15.001Z</time></trkpt><trkpt lat="44.15117253826702" lon="9.64898605587299"><ele>126.0</ele><time>2026-04-12T11:49:16.001Z</time></trkpt><trkpt lat="44.15104973701801" lon="9.648941483480256"><ele>126.0</ele><time>2026-04-12T11:49:17.001Z</time></trkpt><trkpt lat="44.15093047854091" lon="9.648909897829999"><ele>126.0</ele><time>2026-04-12T11:49:18.001Z</time></trkpt><trkpt lat="44.150810177049394" lon="9.648880141643241"><ele>126.0</ele><time>2026-04-12T11:49:19.001Z</time></trkpt><trkpt lat="44.150685090706915" lon="9.648875068120075"><ele>121.25</ele><time>2026-04-12T11:49:20.001Z</time></trkpt><trkpt lat="44.15056676923934" lon="9.648881104585024"><ele>116.5</ele><time>2026-04-12T11:49:21.001Z</time></trkpt><trkpt lat="44.15043988411815" lon="9.648876097117839"><ele>111.75</ele><time>2026-04-12T11:49:22.001Z</time></trkpt><trkpt lat="44.15031853660129" lon="9.648882994687494"><ele>107.0</ele><time>2026-04-12T11:49:23.001Z</time></trkpt><trkpt lat="44.15020422413774" lon="9.648878682066742"><ele>107.0</ele><time>2026-04-12T11:49:24.001Z</time></trkpt><trkpt lat="44.15010419154962" lon="9.64887108678681"><ele>106.99999999999999</ele><time>2026-04-12T11:49:25.001Z</time></trkpt><trkpt lat="44.15002523536644" lon="9.648866902498314"><ele>106.99999999999999</ele><time>2026-04-12T11:49:26.001Z</time></trkpt><trkpt lat="44.149934577497625" lon="9.64880776454889"><ele>107.0</ele><time>2026-04-12T11:49:28.001Z</time></trkpt><trkpt lat="44.14993688540934" lon="9.648656288656328"><ele>107.0</ele><time>2026-04-12T11:49:30.001Z</time></trkpt><trkpt lat="44.15005264990406" lon="9.648549157266073"><ele>107.83333333333333</ele><time>2026-04-12T11:49:32.001Z</time></trkpt><trkpt lat="44.150135165526095" lon="9.648495578006345"><ele>108.66666666666666</ele><time>2026-04-12T11:49:33.001Z</time></trkpt><trkpt lat="44.15021932299685" lon="9.648432371288484"><ele>109.5</ele><time>2026-04-12T11:49:34.001Z</time></trkpt><trkpt lat="44.15028961723498" lon="9.648368042541879"><ele>110.33333333333334</ele><time>2026-04-12T11:49:35.001Z</time></trkpt><trkpt lat="44.150341208544" lon="9.648302553940525"><ele>111.16666666666667</ele><time>2026-04-12T11:49:36.001Z</time></trkpt><trkpt lat="44.15036092461645" lon="9.648211935661518"><ele>112.0</ele><time>2026-04-12T11:49:37.001Z</time></trkpt><trkpt lat="44.15034976392206" lon="9.648105436787985"><ele>112.00000000000001</ele><time>2026-04-12T11:49:38.001Z</time></trkpt><trkpt lat="44.150307709228024" lon="9.64800458964931"><ele>112.0</ele><time>2026-04-12T11:49:39.001Z</time></trkpt><trkpt lat="44.15023724164418" lon="9.647913860460498"><ele>112.0</ele><time>2026-04-12T11:49:40.001Z</time></trkpt><trkpt lat="44.1501584172496" lon="9.647833442012088"><ele>112.0</ele><time>2026-04-12T11:49:41.001Z</time></trkpt><trkpt lat="44.15008586141848" lon="9.647757476314466"><ele>112.00000000000001</ele><time>2026-04-12T11:49:42.001Z</time></trkpt><trkpt lat="44.15004496874904" lon="9.647667568052126"><ele>112.0</ele><time>2026-04-12T11:49:43.001Z</time></trkpt><trkpt lat="44.14999891394282" lon="9.647533311379691"><ele>111.39999999999999</ele><time>2026-04-12T11:49:45.001Z</time></trkpt><trkpt lat="44.1500347132866" lon="9.647444968112158"><ele>110.79999999999998</ele><time>2026-04-12T11:49:46.001Z</time></trkpt><trkpt lat="44.15009471157305" lon="9.647378302854271"><ele>110.2</ele><time>2026-04-12T11:49:47.001Z</time></trkpt><trkpt lat="44.15018671750152" lon="9.647328708129022"><ele>109.6</ele><time>2026-04-12T11:49:48.001Z</time></trkpt><trkpt lat="44.150296902646595" lon="9.647278922937875"><ele>109.0</ele><time>2026-04-12T11:49:49.001Z</time></trkpt><trkpt lat="44.15041016507268" lon="9.647211677634452"><ele>109.0</ele><time>2026-04-12T11:49:50.001Z</time></trkpt><trkpt lat="44.15052865795135" lon="9.647135727101016"><ele>109.0</ele><time>2026-04-12T11:49:51.001Z</time></trkpt><trkpt lat="44.15064800356702" lon="9.64705698265436"><ele>109.0</ele><time>2026-04-12T11:49:52.001Z</time></trkpt><trkpt lat="44.15076681067813" lon="9.646989168645948"><ele>109.0</ele><time>2026-04-12T11:49:53Z</time></trkpt><trkpt lat="44.15088546395699" lon="9.646918526180302"><ele>106.5</ele><time>2026-04-12T11:49:54Z</time></trkpt><trkpt lat="44.15099608904374" lon="9.646809182021602"><ele>104.0</ele><time>2026-04-12T11:49:55Z</time></trkpt><trkpt lat="44.151110864628166" lon="9.646709449923389"><ele>101.5</ele><time>2026-04-12T11:49:56Z</time></trkpt><trkpt lat="44.151217956539405" lon="9.646594057709033"><ele>99.0</ele><time>2026-04-12T11:49:57Z</time></trkpt><trkpt lat="44.1513244292296" lon="9.646486773206206"><ele>99.0</ele><time>2026-04-12T11:49:58Z</time></trkpt><trkpt lat="44.15142754319676" lon="9.646379010196222"><ele>99.0</ele><time>2026-04-12T11:49:59Z</time></trkpt><trkpt lat="44.151526393235756" lon="9.646276238692868"><ele>99.0</ele><time>2026-04-12T11:50:00Z</time></trkpt><trkpt lat="44.15162295705445" lon="9.646174822165992"><ele>99.0</ele><time>2026-04-12T11:50:01Z</time></trkpt><trkpt lat="44.151712514558305" lon="9.646079671630009"><ele>96.2</ele><time>2026-04-12T11:50:02Z</time></trkpt><trkpt lat="44.15180805026713" lon="9.645998417467121"><ele>93.4</ele><time>2026-04-12T11:50:03Z</time></trkpt><trkpt lat="44.151902454573914" lon="9.645934601630696"><ele>90.6</ele><time>2026-04-12T11:50:04Z</time></trkpt><trkpt lat="44.15199230849565" lon="9.645883000502613"><ele>87.8</ele><time>2026-04-12T11:50:05Z</time></trkpt><trkpt lat="44.152063985935" lon="9.645822824298216"><ele>85.0</ele><time>2026-04-12T11:50:06Z</time></trkpt><trkpt lat="44.15211164152002" lon="9.64571888302469"><ele>85.0</ele><time>2026-04-12T11:50:07Z</time></trkpt><trkpt lat="44.15212489649761" lon="9.64557340994747"><ele>85.0</ele><time>2026-04-12T11:50:08Z</time></trkpt><trkpt lat="44.15211756597" lon="9.645412631897608"><ele>85.0</ele><time>2026-04-12T11:50:09Z</time></trkpt><trkpt lat="44.152129666572044" lon="9.64526660988014"><ele>85.0</ele><time>2026-04-12T11:50:10Z</time></trkpt><trkpt lat="44.152176224979925" lon="9.645145600965362"><ele>85.0</ele><time>2026-04-12T11:50:11Z</time></trkpt><trkpt lat="44.15225825975057" lon="9.645083993068672"><ele>82.83333333333333</ele><time>2026-04-12T11:50:12Z</time></trkpt><trkpt lat="44.15232991058845" lon="9.645014516004366"><ele>80.66666666666666</ele><time>2026-04-12T11:50:13Z</time></trkpt><trkpt lat="44.15239450911374" lon="9.644944320360297"><ele>78.5</ele><time>2026-04-12T11:50:14Z</time></trkpt><trkpt lat="44.15243004892715" lon="9.644836470117657"><ele>76.33333333333333</ele><time>2026-04-12T11:50:15Z</time></trkpt><trkpt lat="44.15242846106551" lon="9.644706452502458"><ele>74.16666666666667</ele><time>2026-04-12T11:50:16Z</time></trkpt><trkpt lat="44.1524144457759" lon="9.644579285921633"><ele>72.0</ele><time>2026-04-12T11:50:17Z</time></trkpt><trkpt lat="44.15238041320712" lon="9.64445150025753"><ele>75.16666666666667</ele><time>2026-04-12T11:50:18Z</time></trkpt><trkpt lat="44.15233824765634" lon="9.644334933670443"><ele>78.33333333333333</ele><time>2026-04-12T11:50:19Z</time></trkpt><trkpt lat="44.15229362376547" lon="9.64423624342708"><ele>81.5</ele><time>2026-04-12T11:50:20Z</time></trkpt><trkpt lat="44.152241192104725" lon="9.644155851453043"><ele>84.66666666666666</ele><time>2026-04-12T11:50:21Z</time></trkpt><trkpt lat="44.15216934200888" lon="9.644106846786308"><ele>87.83333333333333</ele><time>2026-04-12T11:50:22Z</time></trkpt><trkpt lat="44.15208661681903" lon="9.644087536945841"><ele>91.0</ele><time>2026-04-12T11:50:23Z</time></trkpt><trkpt lat="44.151993648920104" lon="9.644088533596083"><ele>91.0</ele><time>2026-04-12T11:50:24Z</time></trkpt><trkpt lat="44.151900467521635" lon="9.644089218932603"><ele>91.0</ele><time>2026-04-12T11:50:25Z</time></trkpt><trkpt lat="44.15180347154786" lon="9.64411055928536"><ele>91.0</ele><time>2026-04-12T11:50:26Z</time></trkpt><trkpt lat="44.15170465819016" lon="9.644149951263648"><ele>91.0</ele><time>2026-04-12T11:50:27Z</time></trkpt><trkpt lat="44.151595374504566" lon="9.644194275495737"><ele>91.0</ele><time>2026-04-12T11:50:28Z</time></trkpt><trkpt lat="44.15150329729433" lon="9.644275541761237"><ele>91.19999999999999</ele><time>2026-04-12T11:50:29Z</time></trkpt><trkpt lat="44.1514129773404" lon="9.644346836588984"><ele>91.39999999999999</ele><time>2026-04-12T11:50:30Z</time></trkpt><trkpt lat="44.151322976194486" lon="9.644399342687768"><ele>91.6</ele><time>2026-04-12T11:50:31Z</time></trkpt><trkpt lat="44.151237338891356" lon="9.644454005386825"><ele>91.8</ele><time>2026-04-12T11:50:32Z</time></trkpt><trkpt lat="44.15114948036214" lon="9.644479831937137"><ele>92.0</ele><time>2026-04-12T11:50:33Z</time></trkpt><trkpt lat="44.1510469401791" lon="9.64447296014955"><ele>90.39999999999999</ele><time>2026-04-12T11:50:34Z</time></trkpt><trkpt lat="44.15094949920505" lon="9.644486602801154"><ele>88.8</ele><time>2026-04-12T11:50:35Z</time></trkpt><trkpt lat="44.150851850814455" lon="9.644518506875333"><ele>87.2</ele><time>2026-04-12T11:50:36Z</time></trkpt><trkpt lat="44.150752789501205" lon="9.64452908507844"><ele>85.6</ele><time>2026-04-12T11:50:37Z</time></trkpt><trkpt lat="44.1506477772704" lon="9.64452169934402"><ele>84.0</ele><time>2026-04-12T11:50:38Z</time></trkpt><trkpt lat="44.1505520679419" lon="9.644456978133901"><ele>84.0</ele><time>2026-04-12T11:50:39Z</time></trkpt><trkpt lat="44.15044838426177" lon="9.644450161663631"><ele>84.0</ele><time>2026-04-12T11:50:40Z</time></trkpt><trkpt lat="44.15034093821376" lon="9.64444795337446"><ele>84.0</ele><time>2026-04-12T11:50:41Z</time></trkpt><trkpt lat="44.15022572998527" lon="9.644468320233152"><ele>84.0</ele><time>2026-04-12T11:50:42Z</time></trkpt><trkpt lat="44.150109608638445" lon="9.644482386865228"><ele>84.0</ele><time>2026-04-12T11:50:43Z</time></trkpt><trkpt lat="44.15000165518873" lon="9.644476953415174"><ele>84.0</ele><time>2026-04-12T11:50:44Z</time></trkpt><trkpt lat="44.14989423283778" lon="9.644458507381897"><ele>84.0</ele><time>2026-04-12T11:50:45Z</time></trkpt><trkpt lat="44.14979353457011" lon="9.644427294869029"><ele>84.0</ele><time>2026-04-12T11:50:46Z</time></trkpt><trkpt lat="44.1496954429284" lon="9.644415069823383"><ele>84.0</ele><time>2026-04-12T11:50:47Z</time></trkpt><trkpt lat="44.14959410256876" lon="9.644452103668455"><ele>84.0</ele><time>2026-04-12T11:50:48Z</time></trkpt><trkpt lat="44.149498108800785" lon="9.644502219621067"><ele>81.16666666666667</ele><time>2026-04-12T11:50:49Z</time></trkpt><trkpt lat="44.149413500185645" lon="9.644511537626641"><ele>78.33333333333333</ele><time>2026-04-12T11:50:50Z</time></trkpt><trkpt lat="44.1493365481627" lon="9.644525553248297"><ele>75.5</ele><time>2026-04-12T11:50:51Z</time></trkpt><trkpt lat="44.14926839049726" lon="9.64446111726079"><ele>72.66666666666666</ele><time>2026-04-12T11:50:52Z</time></trkpt><trkpt lat="44.14923217953789" lon="9.644348085433458"><ele>69.83333333333333</ele><time>2026-04-12T11:50:53Z</time></trkpt><trkpt lat="44.14917555391455" lon="9.644258859522008"><ele>67.0</ele><time>2026-04-12T11:50:54Z</time></trkpt><trkpt lat="44.14912049897769" lon="9.644174402281822"><ele>67.0</ele><time>2026-04-12T11:50:55Z</time></trkpt><trkpt lat="44.1490522407542" lon="9.644109668545198"><ele>67.0</ele><time>2026-04-12T11:50:56Z</time></trkpt><trkpt lat="44.148965490109596" lon="9.644089686711379"><ele>67.0</ele><time>2026-04-12T11:50:57Z</time></trkpt><trkpt lat="44.14887202270307" lon="9.644092349677564"><ele>67.0</ele><time>2026-04-12T11:50:58.001Z</time></trkpt><trkpt lat="44.148787494964374" lon="9.644093931325662"><ele>67.0</ele><time>2026-04-12T11:50:59.001Z</time></trkpt><trkpt lat="44.14871414102281" lon="9.644098927247038"><ele>67.0</ele><time>2026-04-12T11:51:00.001Z</time></trkpt><trkpt lat="44.148639114229134" lon="9.644109028926472"><ele>64.66666666666666</ele><time>2026-04-12T11:51:01.001Z</time></trkpt><trkpt lat="44.14856179603122" lon="9.644130549185641"><ele>62.33333333333333</ele><time>2026-04-12T11:51:02.001Z</time></trkpt><trkpt lat="44.148493065107395" lon="9.644208138281588"><ele>60.0</ele><time>2026-04-12T11:51:03.001Z</time></trkpt><trkpt lat="44.14841940158372" lon="9.644277708153858"><ele>57.66666666666667</ele><time>2026-04-12T11:51:04.001Z</time></trkpt><trkpt lat="44.148349584200844" lon="9.64433298815252"><ele>55.333333333333336</ele><time>2026-04-12T11:51:05.001Z</time></trkpt><trkpt lat="44.1482899205023" lon="9.644381392775871"><ele>53.0</ele><time>2026-04-12T11:51:06.001Z</time></trkpt><trkpt lat="44.14823822712485" lon="9.644439439923909"><ele>51.16666666666667</ele><time>2026-04-12T11:51:07.001Z</time></trkpt><trkpt lat="44.14818895003549" lon="9.644505620220677"><ele>49.333333333333336</ele><time>2026-04-12T11:51:08.001Z</time></trkpt><trkpt lat="44.148139185813825" lon="9.644575308187928"><ele>47.5</ele><time>2026-04-12T11:51:09.001Z</time></trkpt><trkpt lat="44.148070136191045" lon="9.644625721977297"><ele>45.66666666666667</ele><time>2026-04-12T11:51:10.001Z</time></trkpt><trkpt lat="44.14799928024705" lon="9.644687062137683"><ele>43.833333333333336</ele><time>2026-04-12T11:51:11.001Z</time></trkpt><trkpt lat="44.14791906385553" lon="9.644756262286997"><ele>42.0</ele><time>2026-04-12T11:51:12.001Z</time></trkpt><trkpt lat="44.147836990365406" lon="9.644827065432274"><ele>42.0</ele><time>2026-04-12T11:51:13.001Z</time></trkpt><trkpt lat="44.14775779187977" lon="9.644897165232669"><ele>42.0</ele><time>2026-04-12T11:51:14.001Z</time></trkpt><trkpt lat="44.147683994538404" lon="9.64496480720018"><ele>42.0</ele><time>2026-04-12T11:51:15.001Z</time></trkpt><trkpt lat="44.14761910071086" lon="9.645055283403657"><ele>42.0</ele><time>2026-04-12T11:51:16.001Z</time></trkpt><trkpt lat="44.14754715808471" lon="9.645128774919893"><ele>42.0</ele><time>2026-04-12T11:51:17.001Z</time></trkpt><trkpt lat="44.147470133786825" lon="9.645203378396177"><ele>42.0</ele><time>2026-04-12T11:51:18.001Z</time></trkpt><trkpt lat="44.14739561144193" lon="9.645279309983044"><ele>42.0</ele><time>2026-04-12T11:51:19.001Z</time></trkpt><trkpt lat="44.1473197212925" lon="9.645346654789178"><ele>42.0</ele><time>2026-04-12T11:51:20.001Z</time></trkpt><trkpt lat="44.14724096249801" lon="9.645406184989625"><ele>42.0</ele><time>2026-04-12T11:51:21.001Z</time></trkpt><trkpt lat="44.14716473942637" lon="9.645462046626117"><ele>42.0</ele><time>2026-04-12T11:51:22.001Z</time></trkpt><trkpt lat="44.14708590721471" lon="9.645512398115246"><ele>42.0</ele><time>2026-04-12T11:51:23.001Z</time></trkpt><trkpt lat="44.14700365511164" lon="9.645533978794509"><ele>39.5</ele><time>2026-04-12T11:51:24.001Z</time></trkpt><trkpt lat="44.14692492741002" lon="9.645555259276662"><ele>37.0</ele><time>2026-04-12T11:51:25.001Z</time></trkpt><trkpt lat="44.14685649789122" lon="9.645583242153807"><ele>34.5</ele><time>2026-04-12T11:51:26.001Z</time></trkpt><trkpt lat="44.14678745989797" lon="9.645581806246946"><ele>32.0</ele><time>2026-04-12T11:51:27.001Z</time></trkpt><trkpt lat="44.146666937674425" lon="9.645556803487517"><ele>29.5</ele><time>2026-04-12T11:51:29.001Z</time></trkpt><trkpt lat="44.14657812161568" lon="9.645538933718948"><ele>27.0</ele><time>2026-04-12T11:51:31.001Z</time></trkpt><trkpt lat="44.14649723170101" lon="9.645466448356558"><ele>27.6</ele><time>2026-04-12T11:51:33.001Z</time></trkpt><trkpt lat="44.14649404929462" lon="9.645305949691156"><ele>28.200000000000003</ele><time>2026-04-12T11:51:35.001Z</time></trkpt><trkpt lat="44.14655928481778" lon="9.64518158226278"><ele>28.8</ele><time>2026-04-12T11:51:37.001Z</time></trkpt><trkpt lat="44.1466262516693" lon="9.645138916723825"><ele>29.4</ele><time>2026-04-12T11:51:38.001Z</time></trkpt><trkpt lat="44.146705792649705" lon="9.64509606729025"><ele>30.0</ele><time>2026-04-12T11:51:39.001Z</time></trkpt><trkpt lat="44.14678236362107" lon="9.645051028928092"><ele>30.0</ele><time>2026-04-12T11:51:40.001Z</time></trkpt><trkpt lat="44.14686081922335" lon="9.644994036007969"><ele>30.0</ele><time>2026-04-12T11:51:41.001Z</time></trkpt><trkpt lat="44.14693872634024" lon="9.644933043231855"><ele>30.0</ele><time>2026-04-12T11:51:42.001Z</time></trkpt><trkpt lat="44.14699784822626" lon="9.644849889971123"><ele>30.0</ele><time>2026-04-12T11:51:43.001Z</time></trkpt><trkpt lat="44.14703397964967" lon="9.64475131470868"><ele>30.0</ele><time>2026-04-12T11:51:44.001Z</time></trkpt><trkpt lat="44.14704744392101" lon="9.644651107154198"><ele>30.0</ele><time>2026-04-12T11:51:45.001Z</time></trkpt><trkpt lat="44.14705419673914" lon="9.64454171638064"><ele>28.42857142857143</ele><time>2026-04-12T11:51:46.001Z</time></trkpt><trkpt lat="44.14705104331358" lon="9.64444914066696"><ele>26.857142857142854</ele><time>2026-04-12T11:51:47.001Z</time></trkpt><trkpt lat="44.147049502700334" lon="9.644346143786395"><ele>25.285714285714285</ele><time>2026-04-12T11:51:48.001Z</time></trkpt><trkpt lat="44.147047389014396" lon="9.644233807535697"><ele>23.714285714285715</ele><time>2026-04-12T11:51:49.001Z</time></trkpt><trkpt lat="44.14705335911168" lon="9.644125742848088"><ele>22.142857142857146</ele><time>2026-04-12T11:51:50.001Z</time></trkpt><trkpt lat="44.14700432541498" lon="9.644040361272419"><ele>20.57142857142857</ele><time>2026-04-12T11:51:51.001Z</time></trkpt><trkpt lat="44.14696445811214" lon="9.643967163461738"><ele>19.0</ele><time>2026-04-12T11:51:52.001Z</time></trkpt><trkpt lat="44.14687928764587" lon="9.643969188392768"><ele>19.0</ele><time>2026-04-12T11:51:53.001Z</time></trkpt><trkpt lat="44.14680494026212" lon="9.643988111194417"><ele>19.0</ele><time>2026-04-12T11:51:54.001Z</time></trkpt><trkpt lat="44.14674599119284" lon="9.644035992642774"><ele>19.0</ele><time>2026-04-12T11:51:55.001Z</time></trkpt><trkpt lat="44.146702363055404" lon="9.64412210451758"><ele>19.0</ele><time>2026-04-12T11:51:56.001Z</time></trkpt><trkpt lat="44.14667575850257" lon="9.644224618767359"><ele>19.0</ele><time>2026-04-12T11:51:57.001Z</time></trkpt><trkpt lat="44.14667440105159" lon="9.644326823875302"><ele>19.0</ele><time>2026-04-12T11:51:58.001Z</time></trkpt><trkpt lat="44.146680166594535" lon="9.644418302838119"><ele>19.0</ele><time>2026-04-12T11:51:59Z</time></trkpt><trkpt lat="44.14667012667552" lon="9.644505079191623"><ele>18.285714285714285</ele><time>2026-04-12T11:52:00Z</time></trkpt><trkpt lat="44.14664066439226" lon="9.644592761266301"><ele>17.571428571428573</ele><time>2026-04-12T11:52:01Z</time></trkpt><trkpt lat="44.14659513137715" lon="9.64466655145293"><ele>16.857142857142858</ele><time>2026-04-12T11:52:02Z</time></trkpt><trkpt lat="44.14652636329702" lon="9.644702417283785"><ele>16.142857142857142</ele><time>2026-04-12T11:52:03Z</time></trkpt><trkpt lat="44.14646225708869" lon="9.644741971953115"><ele>15.428571428571429</ele><time>2026-04-12T11:52:04Z</time></trkpt><trkpt lat="44.14638980185585" lon="9.64474683094457"><ele>14.714285714285715</ele><time>2026-04-12T11:52:05Z</time></trkpt><trkpt lat="44.14631606161535" lon="9.644725194534898"><ele>14.0</ele><time>2026-04-12T11:52:06Z</time></trkpt><trkpt lat="44.14624965840514" lon="9.644697807378115"><ele>14.000000000000002</ele><time>2026-04-12T11:52:07Z</time></trkpt><trkpt lat="44.14617474210162" lon="9.644698372727563"><ele>14.0</ele><time>2026-04-12T11:52:08Z</time></trkpt><trkpt lat="44.14610386610193" lon="9.644690134977132"><ele>14.0</ele><time>2026-04-12T11:52:09Z</time></trkpt><trkpt lat="44.14603166425956" lon="9.644710353772894"><ele>14.0</ele><time>2026-04-12T11:52:10Z</time></trkpt><trkpt lat="44.145960144387224" lon="9.64475634243669"><ele>14.000000000000002</ele><time>2026-04-12T11:52:11Z</time></trkpt><trkpt lat="44.14589826550937" lon="9.644824096788241"><ele>14.0</ele><time>2026-04-12T11:52:12Z</time></trkpt><trkpt lat="44.14584943846104" lon="9.644906495273226"><ele>14.0</ele><time>2026-04-12T11:52:13Z</time></trkpt><trkpt lat="44.14580430976286" lon="9.645007663187606"><ele>14.0</ele><time>2026-04-12T11:52:14Z</time></trkpt><trkpt lat="44.145773639719145" lon="9.645115588415669"><ele>14.0</ele><time>2026-04-12T11:52:15Z</time></trkpt><trkpt lat="44.14575476075975" lon="9.645219500584705"><ele>14.0</ele><time>2026-04-12T11:52:16Z</time></trkpt><trkpt lat="44.14572211544346" lon="9.645303492954463"><ele>14.0</ele><time>2026-04-12T11:52:17Z</time></trkpt><trkpt lat="44.145723306356" lon="9.64540062557408"><ele>14.0</ele><time>2026-04-12T11:52:18Z</time></trkpt><trkpt lat="44.145707658493414" lon="9.645488682930338"><ele>14.0</ele><time>2026-04-12T11:52:19Z</time></trkpt><trkpt lat="44.14569778624774" lon="9.645589737721242"><ele>12.0</ele><time>2026-04-12T11:52:20Z</time></trkpt><trkpt lat="44.14566274145469" lon="9.645678411697563"><ele>9.999999999999998</ele><time>2026-04-12T11:52:21Z</time></trkpt><trkpt lat="44.14561637835321" lon="9.645833260804656"><ele>8.0</ele><time>2026-04-12T11:52:23Z</time></trkpt><trkpt lat="44.14554600416435" lon="9.645932880828411"><ele>6.0</ele><time>2026-04-12T11:52:25Z</time></trkpt><trkpt lat="44.14542614006659" lon="9.645970959487766"><ele>4.0</ele><time>2026-04-12T11:52:27Z</time></trkpt><trkpt lat="44.145322583074126" lon="9.646025134235865"><ele>3.9999999999999996</ele><time>2026-04-12T11:52:29Z</time></trkpt><trkpt lat="44.14524405556591" lon="9.646075247549925"><ele>4.0</ele><time>2026-04-12T11:52:31Z</time></trkpt><trkpt lat="44.14519901518858" lon="9.646165036306535"><ele>4.0</ele><time>2026-04-12T11:52:33Z</time></trkpt><trkpt lat="44.14519349889872" lon="9.646262934098765"><ele>4.0</ele><time>2026-04-12T11:52:35Z</time></trkpt><trkpt lat="44.14518521301826" lon="9.646374700742548"><ele>3.9999999999999996</ele><time>2026-04-12T11:52:39Z</time></trkpt><trkpt lat="44.14520590723218" lon="9.64650347302796"><ele>4.0</ele><time>2026-04-12T11:52:44Z</time></trkpt><trkpt lat="44.145203029150956" lon="9.646592595845611"><ele>4.0</ele><time>2026-04-12T11:52:46Z</time></trkpt><trkpt lat="44.14509658461802" lon="9.646628772675758"><ele>4.0</ele><time>2026-04-12T11:52:49Z</time></trkpt><trkpt lat="44.14497610829168" lon="9.64666380780819"><ele>4.0</ele><time>2026-04-12T11:52:51Z</time></trkpt><trkpt lat="44.14485949009414" lon="9.646697733084405"><ele>4.0</ele><time>2026-04-12T11:52:53Z</time></trkpt><trkpt lat="44.14475670076282" lon="9.646746011931352"><ele>0.0</ele><time>2026-04-12T11:52:55Z</time></trkpt><trkpt lat="44.14467229986594" lon="9.646755352610585"><ele>0.0</ele><time>2026-04-12T11:52:57Z</time></trkpt><trkpt lat="44.14458726569337" lon="9.646807260370606"><ele>0.0</ele><time>2026-04-12T11:52:59Z</time></trkpt><trkpt lat="44.144503525562705" lon="9.64685239849579"><ele>0.0</ele><time>2026-04-12T11:53:01Z</time></trkpt><trkpt lat="44.14443032521291" lon="9.646881714641905"><ele>0.0</ele><time>2026-04-12T11:53:03.001Z</time></trkpt><trkpt lat="44.144360547466235" lon="9.64688868611262"><ele>0.0</ele><time>2026-04-12T11:53:06.001Z</time></trkpt></trkseg></trk></gpx>